<?xml version="1.0" encoding="UTF-8"?>
<gpx creator="Garmin Connect" version="1.1"
  xsi:schemaLocation="http://www.topografix.com/GPX/1/1 http://www.topografix.com/GPX/11.xsd"
  xmlns="http://www.topografix.com/GPX/1/1"
  xmlns:ns3="http://www.garmin.com/xmlschemas/TrackPointExtension/v1"
  xmlns:ns2="http://www.garmin.com/xmlschemas/GpxExtensions/v3" xmlns:xsi="http://www.w3.org/2001/XMLSchema-instance">
  <metadata>
    <link href="connect.garmin.com">
      <text>Garmin Connect</text>
    </link>
    <time>2013-08-15T15:43:12.000Z</time>
  </metadata>
  <trk>
    <name>Prévonloup TCS c</name>
    <type>cycling</type>
    <trkseg>
      <trkpt lat="46.698668114840984344482421875" lon="6.88338023610413074493408203125">
        <ele>660.20001220703125</ele>
        <time>2013-08-15T15:43:12.000Z</time>
        <extensions>
          <ns3:TrackPointExtension>
            <ns3:atemp>21.0</ns3:atemp>
            <ns3:hr>76</ns3:hr>
          </ns3:TrackPointExtension>
        </extensions>
      </trkpt>
      <trkpt lat="46.69871681369841098785400390625" lon="6.88339616172015666961669921875">
        <ele>660.20001220703125</ele>
        <time>2013-08-15T15:43:13.000Z</time>
        <extensions>
          <ns3:TrackPointExtension>
            <ns3:atemp>21.0</ns3:atemp>
            <ns3:hr>75</ns3:hr>
          </ns3:TrackPointExtension>
        </extensions>
      </trkpt>
      <trkpt lat="46.6988305561244487762451171875" lon="6.88346338458359241485595703125">
        <ele>660.4000244140625</ele>
        <time>2013-08-15T15:43:16.000Z</time>
        <extensions>
          <ns3:TrackPointExtension>
            <ns3:atemp>21.0</ns3:atemp>
            <ns3:hr>76</ns3:hr>
          </ns3:TrackPointExtension>
        </extensions>
      </trkpt>
      <trkpt lat="46.69883835129439830780029296875" lon="6.883490793406963348388671875">
        <ele>659.79998779296875</ele>
        <time>2013-08-15T15:43:17.000Z</time>
        <extensions>
          <ns3:TrackPointExtension>
            <ns3:atemp>21.0</ns3:atemp>
            <ns3:hr>76</ns3:hr>
          </ns3:TrackPointExtension>
        </extensions>
      </trkpt>
      <trkpt lat="46.6988352499902248382568359375" lon="6.883511580526828765869140625">
        <ele>660</ele>
        <time>2013-08-15T15:43:18.000Z</time>
        <extensions>
          <ns3:TrackPointExtension>
            <ns3:atemp>21.0</ns3:atemp>
            <ns3:hr>77</ns3:hr>
          </ns3:TrackPointExtension>
        </extensions>
      </trkpt>
      <trkpt lat="46.69883868657052516937255859375" lon="6.88354485668241977691650390625">
        <ele>660.20001220703125</ele>
        <time>2013-08-15T15:43:19.000Z</time>
        <extensions>
          <ns3:TrackPointExtension>
            <ns3:atemp>21.0</ns3:atemp>
            <ns3:hr>78</ns3:hr>
          </ns3:TrackPointExtension>
        </extensions>
      </trkpt>
      <trkpt lat="46.69884354807436466217041015625" lon="6.883589364588260650634765625">
        <ele>660.20001220703125</ele>
        <time>2013-08-15T15:43:20.000Z</time>
        <extensions>
          <ns3:TrackPointExtension>
            <ns3:atemp>21.0</ns3:atemp>
            <ns3:hr>78</ns3:hr>
          </ns3:TrackPointExtension>
        </extensions>
      </trkpt>
      <trkpt lat="46.6988620720803737640380859375" lon="6.88363538123667240142822265625">
        <ele>660.4000244140625</ele>
        <time>2013-08-15T15:43:21.000Z</time>
        <extensions>
          <ns3:TrackPointExtension>
            <ns3:atemp>21.0</ns3:atemp>
            <ns3:hr>80</ns3:hr>
          </ns3:TrackPointExtension>
        </extensions>
      </trkpt>
      <trkpt lat="46.6989023052155971527099609375" lon="6.8836842477321624755859375">
        <ele>660.5999755859375</ele>
        <time>2013-08-15T15:43:22.000Z</time>
        <extensions>
          <ns3:TrackPointExtension>
            <ns3:atemp>21.0</ns3:atemp>
            <ns3:hr>81</ns3:hr>
          </ns3:TrackPointExtension>
        </extensions>
      </trkpt>
      <trkpt lat="46.69893868267536163330078125" lon="6.88374049030244350433349609375">
        <ele>660.5999755859375</ele>
        <time>2013-08-15T15:43:23.000Z</time>
        <extensions>
          <ns3:TrackPointExtension>
            <ns3:atemp>21.0</ns3:atemp>
            <ns3:hr>83</ns3:hr>
          </ns3:TrackPointExtension>
        </extensions>
      </trkpt>
      <trkpt lat="46.69895318336784839630126953125" lon="6.88380620442330837249755859375">
        <ele>660.4000244140625</ele>
        <time>2013-08-15T15:43:24.000Z</time>
        <extensions>
          <ns3:TrackPointExtension>
            <ns3:atemp>21.0</ns3:atemp>
            <ns3:hr>84</ns3:hr>
          </ns3:TrackPointExtension>
        </extensions>
      </trkpt>
      <trkpt lat="46.69897078536450862884521484375" lon="6.88387778587639331817626953125">
        <ele>660.4000244140625</ele>
        <time>2013-08-15T15:43:25.000Z</time>
        <extensions>
          <ns3:TrackPointExtension>
            <ns3:atemp>21.0</ns3:atemp>
            <ns3:hr>85</ns3:hr>
          </ns3:TrackPointExtension>
        </extensions>
      </trkpt>
      <trkpt lat="46.69898084364831447601318359375" lon="6.8839539773762226104736328125">
        <ele>660.4000244140625</ele>
        <time>2013-08-15T15:43:26.000Z</time>
        <extensions>
          <ns3:TrackPointExtension>
            <ns3:atemp>21.0</ns3:atemp>
            <ns3:hr>86</ns3:hr>
          </ns3:TrackPointExtension>
        </extensions>
      </trkpt>
      <trkpt lat="46.6989862918853759765625" lon="6.88402958214282989501953125">
        <ele>660.5999755859375</ele>
        <time>2013-08-15T15:43:27.000Z</time>
        <extensions>
          <ns3:TrackPointExtension>
            <ns3:atemp>21.0</ns3:atemp>
            <ns3:hr>87</ns3:hr>
          </ns3:TrackPointExtension>
        </extensions>
      </trkpt>
      <trkpt lat="46.69899224303662776947021484375" lon="6.8841035105288028717041015625">
        <ele>660.5999755859375</ele>
        <time>2013-08-15T15:43:28.000Z</time>
        <extensions>
          <ns3:TrackPointExtension>
            <ns3:atemp>21.0</ns3:atemp>
            <ns3:hr>88</ns3:hr>
          </ns3:TrackPointExtension>
        </extensions>
      </trkpt>
      <trkpt lat="46.69899224303662776947021484375" lon="6.88418422825634479522705078125">
        <ele>660.5999755859375</ele>
        <time>2013-08-15T15:43:29.000Z</time>
        <extensions>
          <ns3:TrackPointExtension>
            <ns3:atemp>21.0</ns3:atemp>
            <ns3:hr>88</ns3:hr>
          </ns3:TrackPointExtension>
        </extensions>
      </trkpt>
      <trkpt lat="46.69899157248437404632568359375" lon="6.88426553271710872650146484375">
        <ele>660.4000244140625</ele>
        <time>2013-08-15T15:43:30.000Z</time>
        <extensions>
          <ns3:TrackPointExtension>
            <ns3:atemp>21.0</ns3:atemp>
            <ns3:hr>88</ns3:hr>
          </ns3:TrackPointExtension>
        </extensions>
      </trkpt>
      <trkpt lat="46.6989955119788646697998046875" lon="6.8843358568847179412841796875">
        <ele>660.5999755859375</ele>
        <time>2013-08-15T15:43:31.000Z</time>
        <extensions>
          <ns3:TrackPointExtension>
            <ns3:atemp>21.0</ns3:atemp>
            <ns3:hr>89</ns3:hr>
          </ns3:TrackPointExtension>
        </extensions>
      </trkpt>
      <trkpt lat="46.69899861328303813934326171875" lon="6.8844052590429782867431640625">
        <ele>660.5999755859375</ele>
        <time>2013-08-15T15:43:32.000Z</time>
        <extensions>
          <ns3:TrackPointExtension>
            <ns3:atemp>21.0</ns3:atemp>
            <ns3:hr>89</ns3:hr>
          </ns3:TrackPointExtension>
        </extensions>
      </trkpt>
      <trkpt lat="46.69900448061525821685791015625" lon="6.88447223044931888580322265625">
        <ele>660.79998779296875</ele>
        <time>2013-08-15T15:43:33.000Z</time>
        <extensions>
          <ns3:TrackPointExtension>
            <ns3:atemp>21.0</ns3:atemp>
            <ns3:hr>89</ns3:hr>
          </ns3:TrackPointExtension>
        </extensions>
      </trkpt>
      <trkpt lat="46.69901286251842975616455078125" lon="6.88453920185565948486328125">
        <ele>661</ele>
        <time>2013-08-15T15:43:34.000Z</time>
        <extensions>
          <ns3:TrackPointExtension>
            <ns3:atemp>21.0</ns3:atemp>
            <ns3:hr>89</ns3:hr>
          </ns3:TrackPointExtension>
        </extensions>
      </trkpt>
      <trkpt lat="46.69902510009706020355224609375" lon="6.8846027366816997528076171875">
        <ele>661.20001220703125</ele>
        <time>2013-08-15T15:43:35.000Z</time>
        <extensions>
          <ns3:TrackPointExtension>
            <ns3:atemp>21.0</ns3:atemp>
            <ns3:hr>89</ns3:hr>
          </ns3:TrackPointExtension>
        </extensions>
      </trkpt>
      <trkpt lat="46.69904119335114955902099609375" lon="6.88466400839388370513916015625">
        <ele>661.20001220703125</ele>
        <time>2013-08-15T15:43:36.000Z</time>
        <extensions>
          <ns3:TrackPointExtension>
            <ns3:atemp>21.0</ns3:atemp>
            <ns3:hr>90</ns3:hr>
          </ns3:TrackPointExtension>
        </extensions>
      </trkpt>
      <trkpt lat="46.69905778951942920684814453125" lon="6.8847249448299407958984375">
        <ele>661.20001220703125</ele>
        <time>2013-08-15T15:43:37.000Z</time>
        <extensions>
          <ns3:TrackPointExtension>
            <ns3:atemp>21.0</ns3:atemp>
            <ns3:hr>90</ns3:hr>
          </ns3:TrackPointExtension>
        </extensions>
      </trkpt>
      <trkpt lat="46.699073798954486846923828125" lon="6.8847851268947124481201171875">
        <ele>661.20001220703125</ele>
        <time>2013-08-15T15:43:38.000Z</time>
        <extensions>
          <ns3:TrackPointExtension>
            <ns3:atemp>21.0</ns3:atemp>
            <ns3:hr>91</ns3:hr>
          </ns3:TrackPointExtension>
        </extensions>
      </trkpt>
      <trkpt lat="46.69908964075148105621337890625" lon="6.88484572805464267730712890625">
        <ele>661.4000244140625</ele>
        <time>2013-08-15T15:43:39.000Z</time>
        <extensions>
          <ns3:TrackPointExtension>
            <ns3:atemp>21.0</ns3:atemp>
            <ns3:hr>92</ns3:hr>
          </ns3:TrackPointExtension>
        </extensions>
      </trkpt>
      <trkpt lat="46.69910623691976070404052734375" lon="6.88490532338619232177734375">
        <ele>661.5999755859375</ele>
        <time>2013-08-15T15:43:40.000Z</time>
        <extensions>
          <ns3:TrackPointExtension>
            <ns3:atemp>21.0</ns3:atemp>
            <ns3:hr>93</ns3:hr>
          </ns3:TrackPointExtension>
        </extensions>
      </trkpt>
      <trkpt lat="46.69912241399288177490234375" lon="6.884965002536773681640625">
        <ele>661.5999755859375</ele>
        <time>2013-08-15T15:43:41.000Z</time>
        <extensions>
          <ns3:TrackPointExtension>
            <ns3:atemp>21.0</ns3:atemp>
            <ns3:hr>93</ns3:hr>
          </ns3:TrackPointExtension>
        </extensions>
      </trkpt>
      <trkpt lat="46.699138842523097991943359375" lon="6.8850218318402767181396484375">
        <ele>661.5999755859375</ele>
        <time>2013-08-15T15:43:42.000Z</time>
        <extensions>
          <ns3:TrackPointExtension>
            <ns3:atemp>21.0</ns3:atemp>
            <ns3:hr>94</ns3:hr>
          </ns3:TrackPointExtension>
        </extensions>
      </trkpt>
      <trkpt lat="46.69915585778653621673583984375" lon="6.8850764818489551544189453125">
        <ele>661.79998779296875</ele>
        <time>2013-08-15T15:43:43.000Z</time>
        <extensions>
          <ns3:TrackPointExtension>
            <ns3:atemp>21.0</ns3:atemp>
            <ns3:hr>95</ns3:hr>
          </ns3:TrackPointExtension>
        </extensions>
      </trkpt>
      <trkpt lat="46.69917605817317962646484375" lon="6.88513020984828472137451171875">
        <ele>662.20001220703125</ele>
        <time>2013-08-15T15:43:44.000Z</time>
        <extensions>
          <ns3:TrackPointExtension>
            <ns3:atemp>21.0</ns3:atemp>
            <ns3:hr>95</ns3:hr>
          </ns3:TrackPointExtension>
        </extensions>
      </trkpt>
      <trkpt lat="46.69919944368302822113037109375" lon="6.88518217764794826507568359375">
        <ele>662.4000244140625</ele>
        <time>2013-08-15T15:43:45.000Z</time>
        <extensions>
          <ns3:TrackPointExtension>
            <ns3:atemp>21.0</ns3:atemp>
            <ns3:hr>96</ns3:hr>
          </ns3:TrackPointExtension>
        </extensions>
      </trkpt>
      <trkpt lat="46.69922308064997196197509765625" lon="6.88523414544761180877685546875">
        <ele>662.4000244140625</ele>
        <time>2013-08-15T15:43:46.000Z</time>
        <extensions>
          <ns3:TrackPointExtension>
            <ns3:atemp>21.0</ns3:atemp>
            <ns3:hr>96</ns3:hr>
          </ns3:TrackPointExtension>
        </extensions>
      </trkpt>
      <trkpt lat="46.69924470596015453338623046875" lon="6.8852856941521167755126953125">
        <ele>662.5999755859375</ele>
        <time>2013-08-15T15:43:47.000Z</time>
        <extensions>
          <ns3:TrackPointExtension>
            <ns3:atemp>21.0</ns3:atemp>
            <ns3:hr>97</ns3:hr>
          </ns3:TrackPointExtension>
        </extensions>
      </trkpt>
      <trkpt lat="46.69926918111741542816162109375" lon="6.8853364884853363037109375">
        <ele>662.79998779296875</ele>
        <time>2013-08-15T15:43:48.000Z</time>
        <extensions>
          <ns3:TrackPointExtension>
            <ns3:atemp>21.0</ns3:atemp>
            <ns3:hr>98</ns3:hr>
          </ns3:TrackPointExtension>
        </extensions>
      </trkpt>
      <trkpt lat="46.699294410645961761474609375" lon="6.8853849358856678009033203125">
        <ele>663</ele>
        <time>2013-08-15T15:43:49.000Z</time>
        <extensions>
          <ns3:TrackPointExtension>
            <ns3:atemp>21.0</ns3:atemp>
            <ns3:hr>98</ns3:hr>
          </ns3:TrackPointExtension>
        </extensions>
      </trkpt>
      <trkpt lat="46.6993203945457935333251953125" lon="6.8854335509240627288818359375">
        <ele>663</ele>
        <time>2013-08-15T15:43:50.000Z</time>
        <extensions>
          <ns3:TrackPointExtension>
            <ns3:atemp>21.0</ns3:atemp>
            <ns3:hr>98</ns3:hr>
          </ns3:TrackPointExtension>
        </extensions>
      </trkpt>
      <trkpt lat="46.69934361241757869720458984375" lon="6.885484345257282257080078125">
        <ele>663</ele>
        <time>2013-08-15T15:43:51.000Z</time>
        <extensions>
          <ns3:TrackPointExtension>
            <ns3:atemp>21.0</ns3:atemp>
            <ns3:hr>99</ns3:hr>
          </ns3:TrackPointExtension>
        </extensions>
      </trkpt>
      <trkpt lat="46.69936791993677616119384765625" lon="6.88553421758115291595458984375">
        <ele>663.20001220703125</ele>
        <time>2013-08-15T15:43:52.000Z</time>
        <extensions>
          <ns3:TrackPointExtension>
            <ns3:atemp>21.0</ns3:atemp>
            <ns3:hr>99</ns3:hr>
          </ns3:TrackPointExtension>
        </extensions>
      </trkpt>
      <trkpt lat="46.6993693448603153228759765625" lon="6.88559054397046566009521484375">
        <ele>663.4000244140625</ele>
        <time>2013-08-15T15:43:53.000Z</time>
        <extensions>
          <ns3:TrackPointExtension>
            <ns3:atemp>21.0</ns3:atemp>
            <ns3:hr>100</ns3:hr>
          </ns3:TrackPointExtension>
        </extensions>
      </trkpt>
      <trkpt lat="46.69937714003026485443115234375" lon="6.88564670272171497344970703125">
        <ele>663.5999755859375</ele>
        <time>2013-08-15T15:43:54.000Z</time>
        <extensions>
          <ns3:TrackPointExtension>
            <ns3:atemp>21.0</ns3:atemp>
            <ns3:hr>100</ns3:hr>
          </ns3:TrackPointExtension>
        </extensions>
      </trkpt>
      <trkpt lat="46.6993897967040538787841796875" lon="6.885702945291996002197265625">
        <ele>664.20001220703125</ele>
        <time>2013-08-15T15:43:55.000Z</time>
        <extensions>
          <ns3:TrackPointExtension>
            <ns3:atemp>21.0</ns3:atemp>
            <ns3:hr>101</ns3:hr>
          </ns3:TrackPointExtension>
        </extensions>
      </trkpt>
      <trkpt lat="46.69940278865396976470947265625" lon="6.88576153479516506195068359375">
        <ele>664.5999755859375</ele>
        <time>2013-08-15T15:43:56.000Z</time>
        <extensions>
          <ns3:TrackPointExtension>
            <ns3:atemp>21.0</ns3:atemp>
            <ns3:hr>102</ns3:hr>
          </ns3:TrackPointExtension>
        </extensions>
      </trkpt>
      <trkpt lat="46.69941955246031284332275390625" lon="6.88581450842320919036865234375">
        <ele>664.79998779296875</ele>
        <time>2013-08-15T15:43:57.000Z</time>
        <extensions>
          <ns3:TrackPointExtension>
            <ns3:atemp>21.0</ns3:atemp>
            <ns3:hr>102</ns3:hr>
          </ns3:TrackPointExtension>
        </extensions>
      </trkpt>
      <trkpt lat="46.69944000430405139923095703125" lon="6.8858650512993335723876953125">
        <ele>664.5999755859375</ele>
        <time>2013-08-15T15:43:58.000Z</time>
        <extensions>
          <ns3:TrackPointExtension>
            <ns3:atemp>21.0</ns3:atemp>
            <ns3:hr>103</ns3:hr>
          </ns3:TrackPointExtension>
        </extensions>
      </trkpt>
      <trkpt lat="46.69944067485630512237548828125" lon="6.8859009258449077606201171875">
        <ele>664.5999755859375</ele>
        <time>2013-08-15T15:43:59.000Z</time>
        <extensions>
          <ns3:TrackPointExtension>
            <ns3:atemp>21.0</ns3:atemp>
            <ns3:hr>104</ns3:hr>
          </ns3:TrackPointExtension>
        </extensions>
      </trkpt>
      <trkpt lat="46.69944872148334980010986328125" lon="6.88594241626560688018798828125">
        <ele>664.5999755859375</ele>
        <time>2013-08-15T15:44:00.000Z</time>
        <extensions>
          <ns3:TrackPointExtension>
            <ns3:atemp>21.0</ns3:atemp>
            <ns3:hr>104</ns3:hr>
          </ns3:TrackPointExtension>
        </extensions>
      </trkpt>
      <trkpt lat="46.6994585283100605010986328125" lon="6.8859864212572574615478515625">
        <ele>664.79998779296875</ele>
        <time>2013-08-15T15:44:01.000Z</time>
        <extensions>
          <ns3:TrackPointExtension>
            <ns3:atemp>21.0</ns3:atemp>
            <ns3:hr>105</ns3:hr>
          </ns3:TrackPointExtension>
        </extensions>
      </trkpt>
      <trkpt lat="46.699470765888690948486328125" lon="6.886027492582798004150390625">
        <ele>665.20001220703125</ele>
        <time>2013-08-15T15:44:02.000Z</time>
        <extensions>
          <ns3:TrackPointExtension>
            <ns3:atemp>21.0</ns3:atemp>
            <ns3:hr>106</ns3:hr>
          </ns3:TrackPointExtension>
        </extensions>
      </trkpt>
      <trkpt lat="46.69948593713343143463134765625" lon="6.88606864772737026214599609375">
        <ele>665.4000244140625</ele>
        <time>2013-08-15T15:44:03.000Z</time>
        <extensions>
          <ns3:TrackPointExtension>
            <ns3:atemp>21.0</ns3:atemp>
            <ns3:hr>106</ns3:hr>
          </ns3:TrackPointExtension>
        </extensions>
      </trkpt>
      <trkpt lat="46.69950052164494991302490234375" lon="6.88611365854740142822265625">
        <ele>665.5999755859375</ele>
        <time>2013-08-15T15:44:04.000Z</time>
        <extensions>
          <ns3:TrackPointExtension>
            <ns3:atemp>21.0</ns3:atemp>
            <ns3:hr>107</ns3:hr>
          </ns3:TrackPointExtension>
        </extensions>
      </trkpt>
      <trkpt lat="46.699507646262645721435546875" lon="6.88615850172936916351318359375">
        <ele>665.79998779296875</ele>
        <time>2013-08-15T15:44:05.000Z</time>
        <extensions>
          <ns3:TrackPointExtension>
            <ns3:atemp>21.0</ns3:atemp>
            <ns3:hr>107</ns3:hr>
          </ns3:TrackPointExtension>
        </extensions>
      </trkpt>
      <trkpt lat="46.69952231459319591522216796875" lon="6.88620409928262233734130859375">
        <ele>666</ele>
        <time>2013-08-15T15:44:06.000Z</time>
        <extensions>
          <ns3:TrackPointExtension>
            <ns3:atemp>21.0</ns3:atemp>
            <ns3:hr>108</ns3:hr>
          </ns3:TrackPointExtension>
        </extensions>
      </trkpt>
      <trkpt lat="46.69953815639019012451171875" lon="6.88624768517911434173583984375">
        <ele>666</ele>
        <time>2013-08-15T15:44:07.000Z</time>
        <extensions>
          <ns3:TrackPointExtension>
            <ns3:atemp>21.0</ns3:atemp>
            <ns3:hr>108</ns3:hr>
          </ns3:TrackPointExtension>
        </extensions>
      </trkpt>
      <trkpt lat="46.69955181889235973358154296875" lon="6.8862878344953060150146484375">
        <ele>665.79998779296875</ele>
        <time>2013-08-15T15:44:08.000Z</time>
        <extensions>
          <ns3:TrackPointExtension>
            <ns3:atemp>21.0</ns3:atemp>
            <ns3:hr>109</ns3:hr>
          </ns3:TrackPointExtension>
        </extensions>
      </trkpt>
      <trkpt lat="46.69956363737583160400390625" lon="6.886328570544719696044921875">
        <ele>665.79998779296875</ele>
        <time>2013-08-15T15:44:09.000Z</time>
        <extensions>
          <ns3:TrackPointExtension>
            <ns3:atemp>21.0</ns3:atemp>
            <ns3:hr>110</ns3:hr>
          </ns3:TrackPointExtension>
        </extensions>
      </trkpt>
      <trkpt lat="46.69957713223993778228759765625" lon="6.88637115061283111572265625">
        <ele>665.79998779296875</ele>
        <time>2013-08-15T15:44:10.000Z</time>
        <extensions>
          <ns3:TrackPointExtension>
            <ns3:atemp>21.0</ns3:atemp>
            <ns3:hr>110</ns3:hr>
          </ns3:TrackPointExtension>
        </extensions>
      </trkpt>
      <trkpt lat="46.69959045946598052978515625" lon="6.8864138983190059661865234375">
        <ele>666</ele>
        <time>2013-08-15T15:44:11.000Z</time>
        <extensions>
          <ns3:TrackPointExtension>
            <ns3:atemp>21.0</ns3:atemp>
            <ns3:hr>111</ns3:hr>
          </ns3:TrackPointExtension>
        </extensions>
      </trkpt>
      <trkpt lat="46.69960713945329189300537109375" lon="6.88645522110164165496826171875">
        <ele>666.20001220703125</ele>
        <time>2013-08-15T15:44:12.000Z</time>
        <extensions>
          <ns3:TrackPointExtension>
            <ns3:atemp>21.0</ns3:atemp>
            <ns3:hr>111</ns3:hr>
          </ns3:TrackPointExtension>
        </extensions>
      </trkpt>
      <trkpt lat="46.69962591491639614105224609375" lon="6.886499226093292236328125">
        <ele>666.4000244140625</ele>
        <time>2013-08-15T15:44:13.000Z</time>
        <extensions>
          <ns3:TrackPointExtension>
            <ns3:atemp>21.0</ns3:atemp>
            <ns3:hr>112</ns3:hr>
          </ns3:TrackPointExtension>
        </extensions>
      </trkpt>
      <trkpt lat="46.6996449418365955352783203125" lon="6.88654239289462566375732421875">
        <ele>666.5999755859375</ele>
        <time>2013-08-15T15:44:14.000Z</time>
        <extensions>
          <ns3:TrackPointExtension>
            <ns3:atemp>21.0</ns3:atemp>
            <ns3:hr>112</ns3:hr>
          </ns3:TrackPointExtension>
        </extensions>
      </trkpt>
      <trkpt lat="46.69966279529035091400146484375" lon="6.88658564351499080657958984375">
        <ele>666.79998779296875</ele>
        <time>2013-08-15T15:44:15.000Z</time>
        <extensions>
          <ns3:TrackPointExtension>
            <ns3:atemp>21.0</ns3:atemp>
            <ns3:hr>113</ns3:hr>
          </ns3:TrackPointExtension>
        </extensions>
      </trkpt>
      <trkpt lat="46.69968090020120143890380859375" lon="6.88663065433502197265625">
        <ele>667</ele>
        <time>2013-08-15T15:44:16.000Z</time>
        <extensions>
          <ns3:TrackPointExtension>
            <ns3:atemp>21.0</ns3:atemp>
            <ns3:hr>113</ns3:hr>
          </ns3:TrackPointExtension>
        </extensions>
      </trkpt>
      <trkpt lat="46.6996975801885128021240234375" lon="6.8866749107837677001953125">
        <ele>667.20001220703125</ele>
        <time>2013-08-15T15:44:17.000Z</time>
        <extensions>
          <ns3:TrackPointExtension>
            <ns3:atemp>21.0</ns3:atemp>
            <ns3:hr>114</ns3:hr>
          </ns3:TrackPointExtension>
        </extensions>
      </trkpt>
      <trkpt lat="46.69971493072807788848876953125" lon="6.88671648502349853515625">
        <ele>667.4000244140625</ele>
        <time>2013-08-15T15:44:18.000Z</time>
        <extensions>
          <ns3:TrackPointExtension>
            <ns3:atemp>21.0</ns3:atemp>
            <ns3:hr>114</ns3:hr>
          </ns3:TrackPointExtension>
        </extensions>
      </trkpt>
      <trkpt lat="46.69973320327699184417724609375" lon="6.886757723987102508544921875">
        <ele>667.5999755859375</ele>
        <time>2013-08-15T15:44:19.000Z</time>
        <extensions>
          <ns3:TrackPointExtension>
            <ns3:atemp>21.0</ns3:atemp>
            <ns3:hr>115</ns3:hr>
          </ns3:TrackPointExtension>
        </extensions>
      </trkpt>
      <trkpt lat="46.69975298456847667694091796875" lon="6.8867977894842624664306640625">
        <ele>668</ele>
        <time>2013-08-15T15:44:20.000Z</time>
        <extensions>
          <ns3:TrackPointExtension>
            <ns3:atemp>21.0</ns3:atemp>
            <ns3:hr>116</ns3:hr>
          </ns3:TrackPointExtension>
        </extensions>
      </trkpt>
      <trkpt lat="46.69976991601288318634033203125" lon="6.8868386931717395782470703125">
        <ele>668.4000244140625</ele>
        <time>2013-08-15T15:44:21.000Z</time>
        <extensions>
          <ns3:TrackPointExtension>
            <ns3:atemp>21.0</ns3:atemp>
            <ns3:hr>116</ns3:hr>
          </ns3:TrackPointExtension>
        </extensions>
      </trkpt>
      <trkpt lat="46.699786596000194549560546875" lon="6.886879093945026397705078125">
        <ele>668.4000244140625</ele>
        <time>2013-08-15T15:44:22.000Z</time>
        <extensions>
          <ns3:TrackPointExtension>
            <ns3:atemp>21.0</ns3:atemp>
            <ns3:hr>117</ns3:hr>
          </ns3:TrackPointExtension>
        </extensions>
      </trkpt>
      <trkpt lat="46.6998008452355861663818359375" lon="6.88692058436572551727294921875">
        <ele>668.5999755859375</ele>
        <time>2013-08-15T15:44:23.000Z</time>
        <extensions>
          <ns3:TrackPointExtension>
            <ns3:atemp>21.0</ns3:atemp>
            <ns3:hr>117</ns3:hr>
          </ns3:TrackPointExtension>
        </extensions>
      </trkpt>
      <trkpt lat="46.69981710612773895263671875" lon="6.8869619071483612060546875">
        <ele>668.79998779296875</ele>
        <time>2013-08-15T15:44:24.000Z</time>
        <extensions>
          <ns3:TrackPointExtension>
            <ns3:atemp>22.0</ns3:atemp>
            <ns3:hr>117</ns3:hr>
          </ns3:TrackPointExtension>
        </extensions>
      </trkpt>
      <trkpt lat="46.6998360492289066314697265625" lon="6.887003816664218902587890625">
        <ele>669.20001220703125</ele>
        <time>2013-08-15T15:44:25.000Z</time>
        <extensions>
          <ns3:TrackPointExtension>
            <ns3:atemp>22.0</ns3:atemp>
            <ns3:hr>117</ns3:hr>
          </ns3:TrackPointExtension>
        </extensions>
      </trkpt>
      <trkpt lat="46.69985608197748661041259765625" lon="6.88704363070428371429443359375">
        <ele>669.4000244140625</ele>
        <time>2013-08-15T15:44:26.000Z</time>
        <extensions>
          <ns3:TrackPointExtension>
            <ns3:atemp>22.0</ns3:atemp>
            <ns3:hr>117</ns3:hr>
          </ns3:TrackPointExtension>
        </extensions>
      </trkpt>
      <trkpt lat="46.69987468980252742767333984375" lon="6.88708503730595111846923828125">
        <ele>669.5999755859375</ele>
        <time>2013-08-15T15:44:27.000Z</time>
        <extensions>
          <ns3:TrackPointExtension>
            <ns3:atemp>22.0</ns3:atemp>
            <ns3:hr>117</ns3:hr>
          </ns3:TrackPointExtension>
        </extensions>
      </trkpt>
      <trkpt lat="46.69989044778048992156982421875" lon="6.88712191767990589141845703125">
        <ele>669.79998779296875</ele>
        <time>2013-08-15T15:44:28.000Z</time>
        <extensions>
          <ns3:TrackPointExtension>
            <ns3:atemp>22.0</ns3:atemp>
            <ns3:hr>117</ns3:hr>
          </ns3:TrackPointExtension>
        </extensions>
      </trkpt>
      <trkpt lat="46.69990737922489643096923828125" lon="6.88715779222548007965087890625">
        <ele>670</ele>
        <time>2013-08-15T15:44:29.000Z</time>
        <extensions>
          <ns3:TrackPointExtension>
            <ns3:atemp>22.0</ns3:atemp>
            <ns3:hr>116</ns3:hr>
          </ns3:TrackPointExtension>
        </extensions>
      </trkpt>
      <trkpt lat="46.69992330484092235565185546875" lon="6.8871930800378322601318359375">
        <ele>670</ele>
        <time>2013-08-15T15:44:30.000Z</time>
        <extensions>
          <ns3:TrackPointExtension>
            <ns3:atemp>22.0</ns3:atemp>
            <ns3:hr>117</ns3:hr>
          </ns3:TrackPointExtension>
        </extensions>
      </trkpt>
      <trkpt lat="46.6999389789998531341552734375" lon="6.8872292898595333099365234375">
        <ele>670.4000244140625</ele>
        <time>2013-08-15T15:44:31.000Z</time>
        <extensions>
          <ns3:TrackPointExtension>
            <ns3:atemp>22.0</ns3:atemp>
            <ns3:hr>117</ns3:hr>
          </ns3:TrackPointExtension>
        </extensions>
      </trkpt>
      <trkpt lat="46.69995658099651336669921875" lon="6.8872634880244731903076171875">
        <ele>670.4000244140625</ele>
        <time>2013-08-15T15:44:32.000Z</time>
        <extensions>
          <ns3:TrackPointExtension>
            <ns3:atemp>22.0</ns3:atemp>
            <ns3:hr>117</ns3:hr>
          </ns3:TrackPointExtension>
        </extensions>
      </trkpt>
      <trkpt lat="46.69997544027864933013916015625" lon="6.88729911111295223236083984375">
        <ele>670.5999755859375</ele>
        <time>2013-08-15T15:44:33.000Z</time>
        <extensions>
          <ns3:TrackPointExtension>
            <ns3:atemp>22.0</ns3:atemp>
            <ns3:hr>116</ns3:hr>
          </ns3:TrackPointExtension>
        </extensions>
      </trkpt>
      <trkpt lat="46.69999337755143642425537109375" lon="6.887332387268543243408203125">
        <ele>671</ele>
        <time>2013-08-15T15:44:34.000Z</time>
        <extensions>
          <ns3:TrackPointExtension>
            <ns3:atemp>22.0</ns3:atemp>
            <ns3:hr>117</ns3:hr>
          </ns3:TrackPointExtension>
        </extensions>
      </trkpt>
      <trkpt lat="46.70001014135777950286865234375" lon="6.8873707763850688934326171875">
        <ele>671.20001220703125</ele>
        <time>2013-08-15T15:44:35.000Z</time>
        <extensions>
          <ns3:TrackPointExtension>
            <ns3:atemp>22.0</ns3:atemp>
            <ns3:hr>117</ns3:hr>
          </ns3:TrackPointExtension>
        </extensions>
      </trkpt>
      <trkpt lat="46.70002975501120090484619140625" lon="6.88740790821611881256103515625">
        <ele>671.5999755859375</ele>
        <time>2013-08-15T15:44:36.000Z</time>
        <extensions>
          <ns3:TrackPointExtension>
            <ns3:atemp>22.0</ns3:atemp>
            <ns3:hr>117</ns3:hr>
          </ns3:TrackPointExtension>
        </extensions>
      </trkpt>
      <trkpt lat="46.70005104504525661468505859375" lon="6.88743975944817066192626953125">
        <ele>671.79998779296875</ele>
        <time>2013-08-15T15:44:37.000Z</time>
        <extensions>
          <ns3:TrackPointExtension>
            <ns3:atemp>22.0</ns3:atemp>
            <ns3:hr>117</ns3:hr>
          </ns3:TrackPointExtension>
        </extensions>
      </trkpt>
      <trkpt lat="46.70006914995610713958740234375" lon="6.88747345469892024993896484375">
        <ele>672.20001220703125</ele>
        <time>2013-08-15T15:44:38.000Z</time>
        <extensions>
          <ns3:TrackPointExtension>
            <ns3:atemp>22.0</ns3:atemp>
            <ns3:hr>117</ns3:hr>
          </ns3:TrackPointExtension>
        </extensions>
      </trkpt>
      <trkpt lat="46.70008373446762561798095703125" lon="6.88750983215868473052978515625">
        <ele>672.4000244140625</ele>
        <time>2013-08-15T15:44:39.000Z</time>
        <extensions>
          <ns3:TrackPointExtension>
            <ns3:atemp>22.0</ns3:atemp>
            <ns3:hr>117</ns3:hr>
          </ns3:TrackPointExtension>
        </extensions>
      </trkpt>
      <trkpt lat="46.700099408626556396484375" lon="6.8875441141426563262939453125">
        <ele>672.79998779296875</ele>
        <time>2013-08-15T15:44:40.000Z</time>
        <extensions>
          <ns3:TrackPointExtension>
            <ns3:atemp>22.0</ns3:atemp>
            <ns3:hr>118</ns3:hr>
          </ns3:TrackPointExtension>
        </extensions>
      </trkpt>
      <trkpt lat="46.7001141607761383056640625" lon="6.887577809393405914306640625">
        <ele>672.79998779296875</ele>
        <time>2013-08-15T15:44:41.000Z</time>
        <extensions>
          <ns3:TrackPointExtension>
            <ns3:atemp>22.0</ns3:atemp>
            <ns3:hr>118</ns3:hr>
          </ns3:TrackPointExtension>
        </extensions>
      </trkpt>
      <trkpt lat="46.700130589306354522705078125" lon="6.8876111693680286407470703125">
        <ele>673</ele>
        <time>2013-08-15T15:44:42.000Z</time>
        <extensions>
          <ns3:TrackPointExtension>
            <ns3:atemp>22.0</ns3:atemp>
            <ns3:hr>119</ns3:hr>
          </ns3:TrackPointExtension>
        </extensions>
      </trkpt>
      <trkpt lat="46.70014760456979274749755859375" lon="6.8876453675329685211181640625">
        <ele>673.20001220703125</ele>
        <time>2013-08-15T15:44:43.000Z</time>
        <extensions>
          <ns3:TrackPointExtension>
            <ns3:atemp>22.0</ns3:atemp>
            <ns3:hr>119</ns3:hr>
          </ns3:TrackPointExtension>
        </extensions>
      </trkpt>
      <trkpt lat="46.7001652903854846954345703125" lon="6.88767881132662296295166015625">
        <ele>673.4000244140625</ele>
        <time>2013-08-15T15:44:44.000Z</time>
        <extensions>
          <ns3:TrackPointExtension>
            <ns3:atemp>22.0</ns3:atemp>
            <ns3:hr>119</ns3:hr>
          </ns3:TrackPointExtension>
        </extensions>
      </trkpt>
      <trkpt lat="46.70018054544925689697265625" lon="6.88771359622478485107421875">
        <ele>673.79998779296875</ele>
        <time>2013-08-15T15:44:45.000Z</time>
        <extensions>
          <ns3:TrackPointExtension>
            <ns3:atemp>22.0</ns3:atemp>
            <ns3:hr>119</ns3:hr>
          </ns3:TrackPointExtension>
        </extensions>
      </trkpt>
      <trkpt lat="46.70019471086561679840087890625" lon="6.887749135494232177734375">
        <ele>674</ele>
        <time>2013-08-15T15:44:46.000Z</time>
        <extensions>
          <ns3:TrackPointExtension>
            <ns3:atemp>22.0</ns3:atemp>
            <ns3:hr>119</ns3:hr>
          </ns3:TrackPointExtension>
        </extensions>
      </trkpt>
      <trkpt lat="46.70020594261586666107177734375" lon="6.8877855129539966583251953125">
        <ele>674.20001220703125</ele>
        <time>2013-08-15T15:44:47.000Z</time>
        <extensions>
          <ns3:TrackPointExtension>
            <ns3:atemp>22.0</ns3:atemp>
            <ns3:hr>119</ns3:hr>
          </ns3:TrackPointExtension>
        </extensions>
      </trkpt>
      <trkpt lat="46.70021784491837024688720703125" lon="6.88782214187085628509521484375">
        <ele>674.4000244140625</ele>
        <time>2013-08-15T15:44:48.000Z</time>
        <extensions>
          <ns3:TrackPointExtension>
            <ns3:atemp>22.0</ns3:atemp>
            <ns3:hr>119</ns3:hr>
          </ns3:TrackPointExtension>
        </extensions>
      </trkpt>
      <trkpt lat="46.700230501592159271240234375" lon="6.88785902224481105804443359375">
        <ele>674.5999755859375</ele>
        <time>2013-08-15T15:44:49.000Z</time>
        <extensions>
          <ns3:TrackPointExtension>
            <ns3:atemp>22.0</ns3:atemp>
            <ns3:hr>119</ns3:hr>
          </ns3:TrackPointExtension>
        </extensions>
      </trkpt>
      <trkpt lat="46.7002402245998382568359375" lon="6.8878958187997341156005859375">
        <ele>674.79998779296875</ele>
        <time>2013-08-15T15:44:50.000Z</time>
        <extensions>
          <ns3:TrackPointExtension>
            <ns3:atemp>22.0</ns3:atemp>
            <ns3:hr>119</ns3:hr>
          </ns3:TrackPointExtension>
        </extensions>
      </trkpt>
      <trkpt lat="46.7002494446933269500732421875" lon="6.8879333697259426116943359375">
        <ele>675</ele>
        <time>2013-08-15T15:44:51.000Z</time>
        <extensions>
          <ns3:TrackPointExtension>
            <ns3:atemp>22.0</ns3:atemp>
            <ns3:hr>119</ns3:hr>
          </ns3:TrackPointExtension>
        </extensions>
      </trkpt>
      <trkpt lat="46.70025765895843505859375" lon="6.88797175884246826171875">
        <ele>675.20001220703125</ele>
        <time>2013-08-15T15:44:52.000Z</time>
        <extensions>
          <ns3:TrackPointExtension>
            <ns3:atemp>22.0</ns3:atemp>
            <ns3:hr>119</ns3:hr>
          </ns3:TrackPointExtension>
        </extensions>
      </trkpt>
      <trkpt lat="46.7002590000629425048828125" lon="6.8880106508731842041015625">
        <ele>675.5999755859375</ele>
        <time>2013-08-15T15:44:53.000Z</time>
        <extensions>
          <ns3:TrackPointExtension>
            <ns3:atemp>22.0</ns3:atemp>
            <ns3:hr>119</ns3:hr>
          </ns3:TrackPointExtension>
        </extensions>
      </trkpt>
      <trkpt lat="46.70025891624391078948974609375" lon="6.8880490399897098541259765625">
        <ele>675.79998779296875</ele>
        <time>2013-08-15T15:44:54.000Z</time>
        <extensions>
          <ns3:TrackPointExtension>
            <ns3:atemp>22.0</ns3:atemp>
            <ns3:hr>119</ns3:hr>
          </ns3:TrackPointExtension>
        </extensions>
      </trkpt>
      <trkpt lat="46.700260005891323089599609375" lon="6.88808835111558437347412109375">
        <ele>675.79998779296875</ele>
        <time>2013-08-15T15:44:55.000Z</time>
        <extensions>
          <ns3:TrackPointExtension>
            <ns3:atemp>22.0</ns3:atemp>
            <ns3:hr>119</ns3:hr>
          </ns3:TrackPointExtension>
        </extensions>
      </trkpt>
      <trkpt lat="46.70026411302387714385986328125" lon="6.8881286680698394775390625">
        <ele>676</ele>
        <time>2013-08-15T15:44:56.000Z</time>
        <extensions>
          <ns3:TrackPointExtension>
            <ns3:atemp>22.0</ns3:atemp>
            <ns3:hr>119</ns3:hr>
          </ns3:TrackPointExtension>
        </extensions>
      </trkpt>
      <trkpt lat="46.70026780106127262115478515625" lon="6.88816823065280914306640625">
        <ele>676.20001220703125</ele>
        <time>2013-08-15T15:44:57.000Z</time>
        <extensions>
          <ns3:TrackPointExtension>
            <ns3:atemp>22.0</ns3:atemp>
            <ns3:hr>120</ns3:hr>
          </ns3:TrackPointExtension>
        </extensions>
      </trkpt>
      <trkpt lat="46.7002685554325580596923828125" lon="6.88820837996900081634521484375">
        <ele>676.4000244140625</ele>
        <time>2013-08-15T15:44:58.000Z</time>
        <extensions>
          <ns3:TrackPointExtension>
            <ns3:atemp>22.0</ns3:atemp>
            <ns3:hr>120</ns3:hr>
          </ns3:TrackPointExtension>
        </extensions>
      </trkpt>
      <trkpt lat="46.70026662759482860565185546875" lon="6.88824844546616077423095703125">
        <ele>676.79998779296875</ele>
        <time>2013-08-15T15:44:59.000Z</time>
        <extensions>
          <ns3:TrackPointExtension>
            <ns3:atemp>22.0</ns3:atemp>
            <ns3:hr>120</ns3:hr>
          </ns3:TrackPointExtension>
        </extensions>
      </trkpt>
      <trkpt lat="46.70026310719549655914306640625" lon="6.8882882595062255859375">
        <ele>677</ele>
        <time>2013-08-15T15:45:00.000Z</time>
        <extensions>
          <ns3:TrackPointExtension>
            <ns3:atemp>22.0</ns3:atemp>
            <ns3:hr>120</ns3:hr>
          </ns3:TrackPointExtension>
        </extensions>
      </trkpt>
      <trkpt lat="46.700259335339069366455078125" lon="6.88832840882241725921630859375">
        <ele>677.4000244140625</ele>
        <time>2013-08-15T15:45:01.000Z</time>
        <extensions>
          <ns3:TrackPointExtension>
            <ns3:atemp>22.0</ns3:atemp>
            <ns3:hr>121</ns3:hr>
          </ns3:TrackPointExtension>
        </extensions>
      </trkpt>
      <trkpt lat="46.7002581618726253509521484375" lon="6.88836830668151378631591796875">
        <ele>677.4000244140625</ele>
        <time>2013-08-15T15:45:02.000Z</time>
        <extensions>
          <ns3:TrackPointExtension>
            <ns3:atemp>22.0</ns3:atemp>
            <ns3:hr>121</ns3:hr>
          </ns3:TrackPointExtension>
        </extensions>
      </trkpt>
      <trkpt lat="46.7002578265964984893798828125" lon="6.888407953083515167236328125">
        <ele>677.5999755859375</ele>
        <time>2013-08-15T15:45:03.000Z</time>
        <extensions>
          <ns3:TrackPointExtension>
            <ns3:atemp>22.0</ns3:atemp>
            <ns3:hr>121</ns3:hr>
          </ns3:TrackPointExtension>
        </extensions>
      </trkpt>
      <trkpt lat="46.70025506056845188140869140625" lon="6.88844843767583370208740234375">
        <ele>677.5999755859375</ele>
        <time>2013-08-15T15:45:04.000Z</time>
        <extensions>
          <ns3:TrackPointExtension>
            <ns3:atemp>22.0</ns3:atemp>
            <ns3:hr>121</ns3:hr>
          </ns3:TrackPointExtension>
        </extensions>
      </trkpt>
      <trkpt lat="46.700249947607517242431640625" lon="6.888489760458469390869140625">
        <ele>678</ele>
        <time>2013-08-15T15:45:05.000Z</time>
        <extensions>
          <ns3:TrackPointExtension>
            <ns3:atemp>22.0</ns3:atemp>
            <ns3:hr>121</ns3:hr>
          </ns3:TrackPointExtension>
        </extensions>
      </trkpt>
      <trkpt lat="46.70024483464658260345458984375" lon="6.8885301612317562103271484375">
        <ele>678.20001220703125</ele>
        <time>2013-08-15T15:45:06.000Z</time>
        <extensions>
          <ns3:TrackPointExtension>
            <ns3:atemp>22.0</ns3:atemp>
            <ns3:hr>122</ns3:hr>
          </ns3:TrackPointExtension>
        </extensions>
      </trkpt>
      <trkpt lat="46.700239889323711395263671875" lon="6.88857064582407474517822265625">
        <ele>678.4000244140625</ele>
        <time>2013-08-15T15:45:07.000Z</time>
        <extensions>
          <ns3:TrackPointExtension>
            <ns3:atemp>22.0</ns3:atemp>
            <ns3:hr>122</ns3:hr>
          </ns3:TrackPointExtension>
        </extensions>
      </trkpt>
      <trkpt lat="46.7002360336482524871826171875" lon="6.888609789311885833740234375">
        <ele>678.4000244140625</ele>
        <time>2013-08-15T15:45:08.000Z</time>
        <extensions>
          <ns3:TrackPointExtension>
            <ns3:atemp>22.0</ns3:atemp>
            <ns3:hr>122</ns3:hr>
          </ns3:TrackPointExtension>
        </extensions>
      </trkpt>
      <trkpt lat="46.7002326808869838714599609375" lon="6.8886501900851726531982421875">
        <ele>679</ele>
        <time>2013-08-15T15:45:09.000Z</time>
        <extensions>
          <ns3:TrackPointExtension>
            <ns3:atemp>22.0</ns3:atemp>
            <ns3:hr>122</ns3:hr>
          </ns3:TrackPointExtension>
        </extensions>
      </trkpt>
      <trkpt lat="46.70022689737379550933837890625" lon="6.8886904232203960418701171875">
        <ele>679</ele>
        <time>2013-08-15T15:45:10.000Z</time>
        <extensions>
          <ns3:TrackPointExtension>
            <ns3:atemp>22.0</ns3:atemp>
            <ns3:hr>122</ns3:hr>
          </ns3:TrackPointExtension>
        </extensions>
      </trkpt>
      <trkpt lat="46.7002162523567676544189453125" lon="6.8887289799749851226806640625">
        <ele>679.20001220703125</ele>
        <time>2013-08-15T15:45:11.000Z</time>
        <extensions>
          <ns3:TrackPointExtension>
            <ns3:atemp>22.0</ns3:atemp>
            <ns3:hr>122</ns3:hr>
          </ns3:TrackPointExtension>
        </extensions>
      </trkpt>
      <trkpt lat="46.700205020606517791748046875" lon="6.88876745291054248809814453125">
        <ele>679.4000244140625</ele>
        <time>2013-08-15T15:45:12.000Z</time>
        <extensions>
          <ns3:TrackPointExtension>
            <ns3:atemp>22.0</ns3:atemp>
            <ns3:hr>122</ns3:hr>
          </ns3:TrackPointExtension>
        </extensions>
      </trkpt>
      <trkpt lat="46.7001946270465850830078125" lon="6.888806261122226715087890625">
        <ele>679.5999755859375</ele>
        <time>2013-08-15T15:45:13.000Z</time>
        <extensions>
          <ns3:TrackPointExtension>
            <ns3:atemp>22.0</ns3:atemp>
            <ns3:hr>122</ns3:hr>
          </ns3:TrackPointExtension>
        </extensions>
      </trkpt>
      <trkpt lat="46.7001865804195404052734375" lon="6.88884590752422809600830078125">
        <ele>679.79998779296875</ele>
        <time>2013-08-15T15:45:14.000Z</time>
        <extensions>
          <ns3:TrackPointExtension>
            <ns3:atemp>22.0</ns3:atemp>
            <ns3:hr>122</ns3:hr>
          </ns3:TrackPointExtension>
        </extensions>
      </trkpt>
      <trkpt lat="46.70017920434474945068359375" lon="6.88888496719300746917724609375">
        <ele>679.79998779296875</ele>
        <time>2013-08-15T15:45:15.000Z</time>
        <extensions>
          <ns3:TrackPointExtension>
            <ns3:atemp>22.0</ns3:atemp>
            <ns3:hr>122</ns3:hr>
          </ns3:TrackPointExtension>
        </extensions>
      </trkpt>
      <trkpt lat="46.70016922987997531890869140625" lon="6.88892385922372341156005859375">
        <ele>680</ele>
        <time>2013-08-15T15:45:16.000Z</time>
        <extensions>
          <ns3:TrackPointExtension>
            <ns3:atemp>22.0</ns3:atemp>
            <ns3:hr>122</ns3:hr>
          </ns3:TrackPointExtension>
        </extensions>
      </trkpt>
      <trkpt lat="46.70015749521553516387939453125" lon="6.888960488140583038330078125">
        <ele>680.20001220703125</ele>
        <time>2013-08-15T15:45:17.000Z</time>
        <extensions>
          <ns3:TrackPointExtension>
            <ns3:atemp>22.0</ns3:atemp>
            <ns3:hr>122</ns3:hr>
          </ns3:TrackPointExtension>
        </extensions>
      </trkpt>
      <trkpt lat="46.70014542527496814727783203125" lon="6.8889963626861572265625">
        <ele>680.20001220703125</ele>
        <time>2013-08-15T15:45:18.000Z</time>
        <extensions>
          <ns3:TrackPointExtension>
            <ns3:atemp>22.0</ns3:atemp>
            <ns3:hr>122</ns3:hr>
          </ns3:TrackPointExtension>
        </extensions>
      </trkpt>
      <trkpt lat="46.7001341097056865692138671875" lon="6.88903265632688999176025390625">
        <ele>680.5999755859375</ele>
        <time>2013-08-15T15:45:19.000Z</time>
        <extensions>
          <ns3:TrackPointExtension>
            <ns3:atemp>22.0</ns3:atemp>
            <ns3:hr>122</ns3:hr>
          </ns3:TrackPointExtension>
        </extensions>
      </trkpt>
      <trkpt lat="46.7001237161457538604736328125" lon="6.88906970433890819549560546875">
        <ele>680.5999755859375</ele>
        <time>2013-08-15T15:45:20.000Z</time>
        <extensions>
          <ns3:TrackPointExtension>
            <ns3:atemp>22.0</ns3:atemp>
            <ns3:hr>122</ns3:hr>
          </ns3:TrackPointExtension>
        </extensions>
      </trkpt>
      <trkpt lat="46.70011323876678943634033203125" lon="6.8891051597893238067626953125">
        <ele>680.79998779296875</ele>
        <time>2013-08-15T15:45:21.000Z</time>
        <extensions>
          <ns3:TrackPointExtension>
            <ns3:atemp>22.0</ns3:atemp>
            <ns3:hr>122</ns3:hr>
          </ns3:TrackPointExtension>
        </extensions>
      </trkpt>
      <trkpt lat="46.70010150410234928131103515625" lon="6.8891398608684539794921875">
        <ele>681</ele>
        <time>2013-08-15T15:45:22.000Z</time>
        <extensions>
          <ns3:TrackPointExtension>
            <ns3:atemp>22.0</ns3:atemp>
            <ns3:hr>122</ns3:hr>
          </ns3:TrackPointExtension>
        </extensions>
      </trkpt>
      <trkpt lat="46.70008725486695766448974609375" lon="6.88917296938598155975341796875">
        <ele>681.4000244140625</ele>
        <time>2013-08-15T15:45:23.000Z</time>
        <extensions>
          <ns3:TrackPointExtension>
            <ns3:atemp>22.0</ns3:atemp>
            <ns3:hr>122</ns3:hr>
          </ns3:TrackPointExtension>
        </extensions>
      </trkpt>
      <trkpt lat="46.700072921812534332275390625" lon="6.889206580817699432373046875">
        <ele>681.4000244140625</ele>
        <time>2013-08-15T15:45:24.000Z</time>
        <extensions>
          <ns3:TrackPointExtension>
            <ns3:atemp>22.0</ns3:atemp>
            <ns3:hr>123</ns3:hr>
          </ns3:TrackPointExtension>
        </extensions>
      </trkpt>
      <trkpt lat="46.70006093569099903106689453125" lon="6.8892406113445758819580078125">
        <ele>681.5999755859375</ele>
        <time>2013-08-15T15:45:25.000Z</time>
        <extensions>
          <ns3:TrackPointExtension>
            <ns3:atemp>22.0</ns3:atemp>
            <ns3:hr>123</ns3:hr>
          </ns3:TrackPointExtension>
        </extensions>
      </trkpt>
      <trkpt lat="46.7000523023307323455810546875" lon="6.889271624386310577392578125">
        <ele>681.5999755859375</ele>
        <time>2013-08-15T15:45:26.000Z</time>
        <extensions>
          <ns3:TrackPointExtension>
            <ns3:atemp>22.0</ns3:atemp>
            <ns3:hr>123</ns3:hr>
          </ns3:TrackPointExtension>
        </extensions>
      </trkpt>
      <trkpt lat="46.70004199258983135223388671875" lon="6.8893012963235378265380859375">
        <ele>682</ele>
        <time>2013-08-15T15:45:27.000Z</time>
        <extensions>
          <ns3:TrackPointExtension>
            <ns3:atemp>22.0</ns3:atemp>
            <ns3:hr>123</ns3:hr>
          </ns3:TrackPointExtension>
        </extensions>
      </trkpt>
      <trkpt lat="46.7000321857631206512451171875" lon="6.8893328122794628143310546875">
        <ele>682</ele>
        <time>2013-08-15T15:45:28.000Z</time>
        <extensions>
          <ns3:TrackPointExtension>
            <ns3:atemp>22.0</ns3:atemp>
            <ns3:hr>123</ns3:hr>
          </ns3:TrackPointExtension>
        </extensions>
      </trkpt>
      <trkpt lat="46.7000202834606170654296875" lon="6.88936592079699039459228515625">
        <ele>682.4000244140625</ele>
        <time>2013-08-15T15:45:29.000Z</time>
        <extensions>
          <ns3:TrackPointExtension>
            <ns3:atemp>22.0</ns3:atemp>
            <ns3:hr>123</ns3:hr>
          </ns3:TrackPointExtension>
        </extensions>
      </trkpt>
      <trkpt lat="46.70000762678682804107666015625" lon="6.88939693383872509002685546875">
        <ele>682.5999755859375</ele>
        <time>2013-08-15T15:45:30.000Z</time>
        <extensions>
          <ns3:TrackPointExtension>
            <ns3:atemp>22.0</ns3:atemp>
            <ns3:hr>123</ns3:hr>
          </ns3:TrackPointExtension>
        </extensions>
      </trkpt>
      <trkpt lat="46.69999388046562671661376953125" lon="6.88942828215658664703369140625">
        <ele>683</ele>
        <time>2013-08-15T15:45:31.000Z</time>
        <extensions>
          <ns3:TrackPointExtension>
            <ns3:atemp>22.0</ns3:atemp>
            <ns3:hr>123</ns3:hr>
          </ns3:TrackPointExtension>
        </extensions>
      </trkpt>
      <trkpt lat="46.699981056153774261474609375" lon="6.88946105539798736572265625">
        <ele>683.20001220703125</ele>
        <time>2013-08-15T15:45:32.000Z</time>
        <extensions>
          <ns3:TrackPointExtension>
            <ns3:atemp>22.0</ns3:atemp>
            <ns3:hr>123</ns3:hr>
          </ns3:TrackPointExtension>
        </extensions>
      </trkpt>
      <trkpt lat="46.69997007586061954498291015625" lon="6.8894930742681026458740234375">
        <ele>683.5999755859375</ele>
        <time>2013-08-15T15:45:33.000Z</time>
        <extensions>
          <ns3:TrackPointExtension>
            <ns3:atemp>22.0</ns3:atemp>
            <ns3:hr>123</ns3:hr>
          </ns3:TrackPointExtension>
        </extensions>
      </trkpt>
      <trkpt lat="46.69996001757681369781494140625" lon="6.8895235843956470489501953125">
        <ele>684</ele>
        <time>2013-08-15T15:45:34.000Z</time>
        <extensions>
          <ns3:TrackPointExtension>
            <ns3:atemp>22.0</ns3:atemp>
            <ns3:hr>124</ns3:hr>
          </ns3:TrackPointExtension>
        </extensions>
      </trkpt>
      <trkpt lat="46.699949204921722412109375" lon="6.88955367542803287506103515625">
        <ele>684.20001220703125</ele>
        <time>2013-08-15T15:45:35.000Z</time>
        <extensions>
          <ns3:TrackPointExtension>
            <ns3:atemp>22.0</ns3:atemp>
            <ns3:hr>124</ns3:hr>
          </ns3:TrackPointExtension>
        </extensions>
      </trkpt>
      <trkpt lat="46.69993738643825054168701171875" lon="6.88958100043237209320068359375">
        <ele>684.4000244140625</ele>
        <time>2013-08-15T15:45:36.000Z</time>
        <extensions>
          <ns3:TrackPointExtension>
            <ns3:atemp>22.0</ns3:atemp>
            <ns3:hr>124</ns3:hr>
          </ns3:TrackPointExtension>
        </extensions>
      </trkpt>
      <trkpt lat="46.69992498122155666351318359375" lon="6.8896090798079967498779296875">
        <ele>684.5999755859375</ele>
        <time>2013-08-15T15:45:37.000Z</time>
        <extensions>
          <ns3:TrackPointExtension>
            <ns3:atemp>22.0</ns3:atemp>
            <ns3:hr>125</ns3:hr>
          </ns3:TrackPointExtension>
        </extensions>
      </trkpt>
      <trkpt lat="46.69991257600486278533935546875" lon="6.88963732682168483734130859375">
        <ele>684.79998779296875</ele>
        <time>2013-08-15T15:45:38.000Z</time>
        <extensions>
          <ns3:TrackPointExtension>
            <ns3:atemp>22.0</ns3:atemp>
            <ns3:hr>125</ns3:hr>
          </ns3:TrackPointExtension>
        </extensions>
      </trkpt>
      <trkpt lat="46.69990218244493007659912109375" lon="6.889668591320514678955078125">
        <ele>685.20001220703125</ele>
        <time>2013-08-15T15:45:39.000Z</time>
        <extensions>
          <ns3:TrackPointExtension>
            <ns3:atemp>22.0</ns3:atemp>
            <ns3:hr>126</ns3:hr>
          </ns3:TrackPointExtension>
        </extensions>
      </trkpt>
      <trkpt lat="46.699894554913043975830078125" lon="6.88970086164772510528564453125">
        <ele>685.20001220703125</ele>
        <time>2013-08-15T15:45:40.000Z</time>
        <extensions>
          <ns3:TrackPointExtension>
            <ns3:atemp>22.0</ns3:atemp>
            <ns3:hr>126</ns3:hr>
          </ns3:TrackPointExtension>
        </extensions>
      </trkpt>
      <trkpt lat="46.6998896934092044830322265625" lon="6.8897358141839504241943359375">
        <ele>685.4000244140625</ele>
        <time>2013-08-15T15:45:41.000Z</time>
        <extensions>
          <ns3:TrackPointExtension>
            <ns3:atemp>22.0</ns3:atemp>
            <ns3:hr>126</ns3:hr>
          </ns3:TrackPointExtension>
        </extensions>
      </trkpt>
      <trkpt lat="46.6998836584389209747314453125" lon="6.88976942561566829681396484375">
        <ele>685.5999755859375</ele>
        <time>2013-08-15T15:45:42.000Z</time>
        <extensions>
          <ns3:TrackPointExtension>
            <ns3:atemp>22.0</ns3:atemp>
            <ns3:hr>126</ns3:hr>
          </ns3:TrackPointExtension>
        </extensions>
      </trkpt>
      <trkpt lat="46.69987821020185947418212890625" lon="6.889801360666751861572265625">
        <ele>685.79998779296875</ele>
        <time>2013-08-15T15:45:43.000Z</time>
        <extensions>
          <ns3:TrackPointExtension>
            <ns3:atemp>22.0</ns3:atemp>
            <ns3:hr>126</ns3:hr>
          </ns3:TrackPointExtension>
        </extensions>
      </trkpt>
      <trkpt lat="46.69987234286963939666748046875" lon="6.8898318707942962646484375">
        <ele>686</ele>
        <time>2013-08-15T15:45:44.000Z</time>
        <extensions>
          <ns3:TrackPointExtension>
            <ns3:atemp>22.0</ns3:atemp>
            <ns3:hr>126</ns3:hr>
          </ns3:TrackPointExtension>
        </extensions>
      </trkpt>
      <trkpt lat="46.69986546970903873443603515625" lon="6.88986095599830150604248046875">
        <ele>686.20001220703125</ele>
        <time>2013-08-15T15:45:45.000Z</time>
        <extensions>
          <ns3:TrackPointExtension>
            <ns3:atemp>22.0</ns3:atemp>
            <ns3:hr>126</ns3:hr>
          </ns3:TrackPointExtension>
        </extensions>
      </trkpt>
      <trkpt lat="46.6998578421771526336669921875" lon="6.88989029265940189361572265625">
        <ele>686.4000244140625</ele>
        <time>2013-08-15T15:45:46.000Z</time>
        <extensions>
          <ns3:TrackPointExtension>
            <ns3:atemp>22.0</ns3:atemp>
            <ns3:hr>126</ns3:hr>
          </ns3:TrackPointExtension>
        </extensions>
      </trkpt>
      <trkpt lat="46.69984803535044193267822265625" lon="6.889921389520168304443359375">
        <ele>686.5999755859375</ele>
        <time>2013-08-15T15:45:47.000Z</time>
        <extensions>
          <ns3:TrackPointExtension>
            <ns3:atemp>22.0</ns3:atemp>
            <ns3:hr>126</ns3:hr>
          </ns3:TrackPointExtension>
        </extensions>
      </trkpt>
      <trkpt lat="46.69983445666730403900146484375" lon="6.88995164819061756134033203125">
        <ele>686.79998779296875</ele>
        <time>2013-08-15T15:45:48.000Z</time>
        <extensions>
          <ns3:TrackPointExtension>
            <ns3:atemp>22.0</ns3:atemp>
            <ns3:hr>127</ns3:hr>
          </ns3:TrackPointExtension>
        </extensions>
      </trkpt>
      <trkpt lat="46.6998226381838321685791015625" lon="6.889983080327510833740234375">
        <ele>687</ele>
        <time>2013-08-15T15:45:49.000Z</time>
        <extensions>
          <ns3:TrackPointExtension>
            <ns3:atemp>22.0</ns3:atemp>
            <ns3:hr>126</ns3:hr>
          </ns3:TrackPointExtension>
        </extensions>
      </trkpt>
      <trkpt lat="46.69981182552874088287353515625" lon="6.8900127522647380828857421875">
        <ele>687.4000244140625</ele>
        <time>2013-08-15T15:45:50.000Z</time>
        <extensions>
          <ns3:TrackPointExtension>
            <ns3:atemp>22.0</ns3:atemp>
            <ns3:hr>127</ns3:hr>
          </ns3:TrackPointExtension>
        </extensions>
      </trkpt>
      <trkpt lat="46.69979925267398357391357421875" lon="6.89004032872617244720458984375">
        <ele>687.5999755859375</ele>
        <time>2013-08-15T15:45:51.000Z</time>
        <extensions>
          <ns3:TrackPointExtension>
            <ns3:atemp>22.0</ns3:atemp>
            <ns3:hr>127</ns3:hr>
          </ns3:TrackPointExtension>
        </extensions>
      </trkpt>
      <trkpt lat="46.6997881047427654266357421875" lon="6.89006580971181392669677734375">
        <ele>687.79998779296875</ele>
        <time>2013-08-15T15:45:52.000Z</time>
        <extensions>
          <ns3:TrackPointExtension>
            <ns3:atemp>22.0</ns3:atemp>
            <ns3:hr>127</ns3:hr>
          </ns3:TrackPointExtension>
        </extensions>
      </trkpt>
      <trkpt lat="46.699777208268642425537109375" lon="6.890092380344867706298828125">
        <ele>688</ele>
        <time>2013-08-15T15:45:53.000Z</time>
        <extensions>
          <ns3:TrackPointExtension>
            <ns3:atemp>22.0</ns3:atemp>
            <ns3:hr>127</ns3:hr>
          </ns3:TrackPointExtension>
        </extensions>
      </trkpt>
      <trkpt lat="46.6997673176229000091552734375" lon="6.89012045972049236297607421875">
        <ele>688.20001220703125</ele>
        <time>2013-08-15T15:45:54.000Z</time>
        <extensions>
          <ns3:TrackPointExtension>
            <ns3:atemp>22.0</ns3:atemp>
            <ns3:hr>127</ns3:hr>
          </ns3:TrackPointExtension>
        </extensions>
      </trkpt>
      <trkpt lat="46.69975834898650646209716796875" lon="6.89015197567641735076904296875">
        <ele>688.4000244140625</ele>
        <time>2013-08-15T15:45:55.000Z</time>
        <extensions>
          <ns3:TrackPointExtension>
            <ns3:atemp>22.0</ns3:atemp>
            <ns3:hr>127</ns3:hr>
          </ns3:TrackPointExtension>
        </extensions>
      </trkpt>
      <trkpt lat="46.69975080527365207672119140625" lon="6.89018391072750091552734375">
        <ele>688.79998779296875</ele>
        <time>2013-08-15T15:45:56.000Z</time>
        <extensions>
          <ns3:TrackPointExtension>
            <ns3:atemp>22.0</ns3:atemp>
            <ns3:hr>128</ns3:hr>
          </ns3:TrackPointExtension>
        </extensions>
      </trkpt>
      <trkpt lat="46.6997431777417659759521484375" lon="6.89021341502666473388671875">
        <ele>689.4000244140625</ele>
        <time>2013-08-15T15:45:57.000Z</time>
        <extensions>
          <ns3:TrackPointExtension>
            <ns3:atemp>22.0</ns3:atemp>
            <ns3:hr>128</ns3:hr>
          </ns3:TrackPointExtension>
        </extensions>
      </trkpt>
      <trkpt lat="46.6997359693050384521484375" lon="6.89024166204035282135009765625">
        <ele>689.5999755859375</ele>
        <time>2013-08-15T15:45:58.000Z</time>
        <extensions>
          <ns3:TrackPointExtension>
            <ns3:atemp>22.0</ns3:atemp>
            <ns3:hr>129</ns3:hr>
          </ns3:TrackPointExtension>
        </extensions>
      </trkpt>
      <trkpt lat="46.6997284255921840667724609375" lon="6.8902712501585483551025390625">
        <ele>689.79998779296875</ele>
        <time>2013-08-15T15:45:59.000Z</time>
        <extensions>
          <ns3:TrackPointExtension>
            <ns3:atemp>22.0</ns3:atemp>
            <ns3:hr>129</ns3:hr>
          </ns3:TrackPointExtension>
        </extensions>
      </trkpt>
      <trkpt lat="46.6997180320322513580322265625" lon="6.89030167646706104278564453125">
        <ele>690</ele>
        <time>2013-08-15T15:46:00.000Z</time>
        <extensions>
          <ns3:TrackPointExtension>
            <ns3:atemp>22.0</ns3:atemp>
            <ns3:hr>130</ns3:hr>
          </ns3:TrackPointExtension>
        </extensions>
      </trkpt>
      <trkpt lat="46.69970872811973094940185546875" lon="6.890334784984588623046875">
        <ele>690.4000244140625</ele>
        <time>2013-08-15T15:46:01.000Z</time>
        <extensions>
          <ns3:TrackPointExtension>
            <ns3:atemp>22.0</ns3:atemp>
            <ns3:hr>131</ns3:hr>
          </ns3:TrackPointExtension>
        </extensions>
      </trkpt>
      <trkpt lat="46.69969883747398853302001953125" lon="6.89036722294986248016357421875">
        <ele>690.5999755859375</ele>
        <time>2013-08-15T15:46:02.000Z</time>
        <extensions>
          <ns3:TrackPointExtension>
            <ns3:atemp>22.0</ns3:atemp>
            <ns3:hr>131</ns3:hr>
          </ns3:TrackPointExtension>
        </extensions>
      </trkpt>
      <trkpt lat="46.699687354266643524169921875" lon="6.89039991237223148345947265625">
        <ele>691</ele>
        <time>2013-08-15T15:46:03.000Z</time>
        <extensions>
          <ns3:TrackPointExtension>
            <ns3:atemp>22.0</ns3:atemp>
            <ns3:hr>132</ns3:hr>
          </ns3:TrackPointExtension>
        </extensions>
      </trkpt>
      <trkpt lat="46.6996774636209011077880859375" lon="6.8904288299381732940673828125">
        <ele>691.20001220703125</ele>
        <time>2013-08-15T15:46:04.000Z</time>
        <extensions>
          <ns3:TrackPointExtension>
            <ns3:atemp>22.0</ns3:atemp>
            <ns3:hr>133</ns3:hr>
          </ns3:TrackPointExtension>
        </extensions>
      </trkpt>
      <trkpt lat="46.69966715388000011444091796875" lon="6.890453137457370758056640625">
        <ele>691.5999755859375</ele>
        <time>2013-08-15T15:46:05.000Z</time>
        <extensions>
          <ns3:TrackPointExtension>
            <ns3:atemp>22.0</ns3:atemp>
            <ns3:hr>133</ns3:hr>
          </ns3:TrackPointExtension>
        </extensions>
      </trkpt>
      <trkpt lat="46.69965860433876514434814453125" lon="6.89047761261463165283203125">
        <ele>691.79998779296875</ele>
        <time>2013-08-15T15:46:06.000Z</time>
        <extensions>
          <ns3:TrackPointExtension>
            <ns3:atemp>22.0</ns3:atemp>
            <ns3:hr>133</ns3:hr>
          </ns3:TrackPointExtension>
        </extensions>
      </trkpt>
      <trkpt lat="46.6996514797210693359375" lon="6.89050384797155857086181640625">
        <ele>692.20001220703125</ele>
        <time>2013-08-15T15:46:07.000Z</time>
        <extensions>
          <ns3:TrackPointExtension>
            <ns3:atemp>22.0</ns3:atemp>
            <ns3:hr>134</ns3:hr>
          </ns3:TrackPointExtension>
        </extensions>
      </trkpt>
      <trkpt lat="46.69964016415178775787353515625" lon="6.89052832312881946563720703125">
        <ele>692.20001220703125</ele>
        <time>2013-08-15T15:46:08.000Z</time>
        <extensions>
          <ns3:TrackPointExtension>
            <ns3:atemp>22.0</ns3:atemp>
            <ns3:hr>134</ns3:hr>
          </ns3:TrackPointExtension>
        </extensions>
      </trkpt>
      <trkpt lat="46.69962742365896701812744140625" lon="6.890551038086414337158203125">
        <ele>692.5999755859375</ele>
        <time>2013-08-15T15:46:09.000Z</time>
        <extensions>
          <ns3:TrackPointExtension>
            <ns3:atemp>22.0</ns3:atemp>
            <ns3:hr>134</ns3:hr>
          </ns3:TrackPointExtension>
        </extensions>
      </trkpt>
      <trkpt lat="46.69961669482290744781494140625" lon="6.89057643525302410125732421875">
        <ele>692.79998779296875</ele>
        <time>2013-08-15T15:46:10.000Z</time>
        <extensions>
          <ns3:TrackPointExtension>
            <ns3:atemp>22.0</ns3:atemp>
            <ns3:hr>133</ns3:hr>
          </ns3:TrackPointExtension>
        </extensions>
      </trkpt>
      <trkpt lat="46.69960923492908477783203125" lon="6.8906038440763950347900390625">
        <ele>693</ele>
        <time>2013-08-15T15:46:11.000Z</time>
        <extensions>
          <ns3:TrackPointExtension>
            <ns3:atemp>22.0</ns3:atemp>
            <ns3:hr>133</ns3:hr>
          </ns3:TrackPointExtension>
        </extensions>
      </trkpt>
      <trkpt lat="46.699602194130420684814453125" lon="6.89063393510878086090087890625">
        <ele>693.20001220703125</ele>
        <time>2013-08-15T15:46:12.000Z</time>
        <extensions>
          <ns3:TrackPointExtension>
            <ns3:atemp>22.0</ns3:atemp>
            <ns3:hr>133</ns3:hr>
          </ns3:TrackPointExtension>
        </extensions>
      </trkpt>
      <trkpt lat="46.69959389604628086090087890625" lon="6.89066109247505664825439453125">
        <ele>693.4000244140625</ele>
        <time>2013-08-15T15:46:13.000Z</time>
        <extensions>
          <ns3:TrackPointExtension>
            <ns3:atemp>22.0</ns3:atemp>
            <ns3:hr>132</ns3:hr>
          </ns3:TrackPointExtension>
        </extensions>
      </trkpt>
      <trkpt lat="46.69958568178117275238037109375" lon="6.8906859867274761199951171875">
        <ele>693.5999755859375</ele>
        <time>2013-08-15T15:46:14.000Z</time>
        <extensions>
          <ns3:TrackPointExtension>
            <ns3:atemp>22.0</ns3:atemp>
            <ns3:hr>132</ns3:hr>
          </ns3:TrackPointExtension>
        </extensions>
      </trkpt>
      <trkpt lat="46.6995792277157306671142578125" lon="6.89071071334183216094970703125">
        <ele>693.79998779296875</ele>
        <time>2013-08-15T15:46:15.000Z</time>
        <extensions>
          <ns3:TrackPointExtension>
            <ns3:atemp>22.0</ns3:atemp>
            <ns3:hr>132</ns3:hr>
          </ns3:TrackPointExtension>
        </extensions>
      </trkpt>
      <trkpt lat="46.69956908561289310455322265625" lon="6.89073334448039531707763671875">
        <ele>694</ele>
        <time>2013-08-15T15:46:16.000Z</time>
        <extensions>
          <ns3:TrackPointExtension>
            <ns3:atemp>22.0</ns3:atemp>
            <ns3:hr>132</ns3:hr>
          </ns3:TrackPointExtension>
        </extensions>
      </trkpt>
      <trkpt lat="46.6995616257190704345703125" lon="6.89075731672346591949462890625">
        <ele>694.4000244140625</ele>
        <time>2013-08-15T15:46:17.000Z</time>
        <extensions>
          <ns3:TrackPointExtension>
            <ns3:atemp>22.0</ns3:atemp>
            <ns3:hr>131</ns3:hr>
          </ns3:TrackPointExtension>
        </extensions>
      </trkpt>
      <trkpt lat="46.6995535790920257568359375" lon="6.8907838873565196990966796875">
        <ele>694.5999755859375</ele>
        <time>2013-08-15T15:46:18.000Z</time>
        <extensions>
          <ns3:TrackPointExtension>
            <ns3:atemp>22.0</ns3:atemp>
            <ns3:hr>131</ns3:hr>
          </ns3:TrackPointExtension>
        </extensions>
      </trkpt>
      <trkpt lat="46.699549891054630279541015625" lon="6.89081096090376377105712890625">
        <ele>695</ele>
        <time>2013-08-15T15:46:19.000Z</time>
        <extensions>
          <ns3:TrackPointExtension>
            <ns3:atemp>22.0</ns3:atemp>
            <ns3:hr>130</ns3:hr>
          </ns3:TrackPointExtension>
        </extensions>
      </trkpt>
      <trkpt lat="46.699544526636600494384765625" lon="6.890839375555515289306640625">
        <ele>695.20001220703125</ele>
        <time>2013-08-15T15:46:20.000Z</time>
        <extensions>
          <ns3:TrackPointExtension>
            <ns3:atemp>22.0</ns3:atemp>
            <ns3:hr>130</ns3:hr>
          </ns3:TrackPointExtension>
        </extensions>
      </trkpt>
      <trkpt lat="46.69953740201890468597412109375" lon="6.890866868197917938232421875">
        <ele>695.5999755859375</ele>
        <time>2013-08-15T15:46:21.000Z</time>
        <extensions>
          <ns3:TrackPointExtension>
            <ns3:atemp>22.0</ns3:atemp>
            <ns3:hr>130</ns3:hr>
          </ns3:TrackPointExtension>
        </extensions>
      </trkpt>
      <trkpt lat="46.69953069649636745452880859375" lon="6.89089561812579631805419921875">
        <ele>696</ele>
        <time>2013-08-15T15:46:22.000Z</time>
        <extensions>
          <ns3:TrackPointExtension>
            <ns3:atemp>22.0</ns3:atemp>
            <ns3:hr>129</ns3:hr>
          </ns3:TrackPointExtension>
        </extensions>
      </trkpt>
      <trkpt lat="46.69952340424060821533203125" lon="6.89092361368238925933837890625">
        <ele>696</ele>
        <time>2013-08-15T15:46:23.000Z</time>
        <extensions>
          <ns3:TrackPointExtension>
            <ns3:atemp>22.0</ns3:atemp>
            <ns3:hr>129</ns3:hr>
          </ns3:TrackPointExtension>
        </extensions>
      </trkpt>
      <trkpt lat="46.6995175369083881378173828125" lon="6.89095060341060161590576171875">
        <ele>696.20001220703125</ele>
        <time>2013-08-15T15:46:24.000Z</time>
        <extensions>
          <ns3:TrackPointExtension>
            <ns3:atemp>22.0</ns3:atemp>
            <ns3:hr>129</ns3:hr>
          </ns3:TrackPointExtension>
        </extensions>
      </trkpt>
      <trkpt lat="46.69950957410037517547607421875" lon="6.8909776769578456878662109375">
        <ele>696.4000244140625</ele>
        <time>2013-08-15T15:46:25.000Z</time>
        <extensions>
          <ns3:TrackPointExtension>
            <ns3:atemp>22.0</ns3:atemp>
            <ns3:hr>129</ns3:hr>
          </ns3:TrackPointExtension>
        </extensions>
      </trkpt>
      <trkpt lat="46.6995021142065525054931640625" lon="6.89100558869540691375732421875">
        <ele>696.5999755859375</ele>
        <time>2013-08-15T15:46:26.000Z</time>
        <extensions>
          <ns3:TrackPointExtension>
            <ns3:atemp>22.0</ns3:atemp>
            <ns3:hr>129</ns3:hr>
          </ns3:TrackPointExtension>
        </extensions>
      </trkpt>
      <trkpt lat="46.69949448667466640472412109375" lon="6.891033165156841278076171875">
        <ele>697</ele>
        <time>2013-08-15T15:46:27.000Z</time>
        <extensions>
          <ns3:TrackPointExtension>
            <ns3:atemp>23.0</ns3:atemp>
            <ns3:hr>129</ns3:hr>
          </ns3:TrackPointExtension>
        </extensions>
      </trkpt>
      <trkpt lat="46.69948426075279712677001953125" lon="6.89105906523764133453369140625">
        <ele>697.20001220703125</ele>
        <time>2013-08-15T15:46:28.000Z</time>
        <extensions>
          <ns3:TrackPointExtension>
            <ns3:atemp>23.0</ns3:atemp>
            <ns3:hr>129</ns3:hr>
          </ns3:TrackPointExtension>
        </extensions>
      </trkpt>
      <trkpt lat="46.6994749568402767181396484375" lon="6.891085803508758544921875">
        <ele>697.4000244140625</ele>
        <time>2013-08-15T15:46:29.000Z</time>
        <extensions>
          <ns3:TrackPointExtension>
            <ns3:atemp>23.0</ns3:atemp>
            <ns3:hr>129</ns3:hr>
          </ns3:TrackPointExtension>
        </extensions>
      </trkpt>
      <trkpt lat="46.6994672454893589019775390625" lon="6.89111329615116119384765625">
        <ele>697.5999755859375</ele>
        <time>2013-08-15T15:46:30.000Z</time>
        <extensions>
          <ns3:TrackPointExtension>
            <ns3:atemp>23.0</ns3:atemp>
            <ns3:hr>129</ns3:hr>
          </ns3:TrackPointExtension>
        </extensions>
      </trkpt>
      <trkpt lat="46.699461042881011962890625" lon="6.89114171080291271209716796875">
        <ele>697.79998779296875</ele>
        <time>2013-08-15T15:46:31.000Z</time>
        <extensions>
          <ns3:TrackPointExtension>
            <ns3:atemp>23.0</ns3:atemp>
            <ns3:hr>129</ns3:hr>
          </ns3:TrackPointExtension>
        </extensions>
      </trkpt>
      <trkpt lat="46.699454672634601593017578125" lon="6.89117054454982280731201171875">
        <ele>698</ele>
        <time>2013-08-15T15:46:32.000Z</time>
        <extensions>
          <ns3:TrackPointExtension>
            <ns3:atemp>23.0</ns3:atemp>
            <ns3:hr>129</ns3:hr>
          </ns3:TrackPointExtension>
        </extensions>
      </trkpt>
      <trkpt lat="46.69944830238819122314453125" lon="6.8911997973918914794921875">
        <ele>698.20001220703125</ele>
        <time>2013-08-15T15:46:33.000Z</time>
        <extensions>
          <ns3:TrackPointExtension>
            <ns3:atemp>23.0</ns3:atemp>
            <ns3:hr>129</ns3:hr>
          </ns3:TrackPointExtension>
        </extensions>
      </trkpt>
      <trkpt lat="46.69944025576114654541015625" lon="6.891228295862674713134765625">
        <ele>698.4000244140625</ele>
        <time>2013-08-15T15:46:34.000Z</time>
        <extensions>
          <ns3:TrackPointExtension>
            <ns3:atemp>23.0</ns3:atemp>
            <ns3:hr>129</ns3:hr>
          </ns3:TrackPointExtension>
        </extensions>
      </trkpt>
      <trkpt lat="46.69943028129637241363525390625" lon="6.89125654287636280059814453125">
        <ele>698.5999755859375</ele>
        <time>2013-08-15T15:46:35.000Z</time>
        <extensions>
          <ns3:TrackPointExtension>
            <ns3:atemp>23.0</ns3:atemp>
            <ns3:hr>129</ns3:hr>
          </ns3:TrackPointExtension>
        </extensions>
      </trkpt>
      <trkpt lat="46.6994216479361057281494140625" lon="6.8912844546139240264892578125">
        <ele>698.79998779296875</ele>
        <time>2013-08-15T15:46:36.000Z</time>
        <extensions>
          <ns3:TrackPointExtension>
            <ns3:atemp>23.0</ns3:atemp>
            <ns3:hr>129</ns3:hr>
          </ns3:TrackPointExtension>
        </extensions>
      </trkpt>
      <trkpt lat="46.69941653497517108917236328125" lon="6.89131370745599269866943359375">
        <ele>699</ele>
        <time>2013-08-15T15:46:37.000Z</time>
        <extensions>
          <ns3:TrackPointExtension>
            <ns3:atemp>23.0</ns3:atemp>
            <ns3:hr>128</ns3:hr>
          </ns3:TrackPointExtension>
        </extensions>
      </trkpt>
      <trkpt lat="46.6994172893464565277099609375" lon="6.8913392722606658935546875">
        <ele>699.20001220703125</ele>
        <time>2013-08-15T15:46:38.000Z</time>
        <extensions>
          <ns3:TrackPointExtension>
            <ns3:atemp>23.0</ns3:atemp>
            <ns3:hr>128</ns3:hr>
          </ns3:TrackPointExtension>
        </extensions>
      </trkpt>
      <trkpt lat="46.69942240230739116668701171875" lon="6.89136274158954620361328125">
        <ele>699.5999755859375</ele>
        <time>2013-08-15T15:46:39.000Z</time>
        <extensions>
          <ns3:TrackPointExtension>
            <ns3:atemp>23.0</ns3:atemp>
            <ns3:hr>128</ns3:hr>
          </ns3:TrackPointExtension>
        </extensions>
      </trkpt>
      <trkpt lat="46.69942659325897693634033203125" lon="6.8913860432803630828857421875">
        <ele>699.79998779296875</ele>
        <time>2013-08-15T15:46:40.000Z</time>
        <extensions>
          <ns3:TrackPointExtension>
            <ns3:atemp>23.0</ns3:atemp>
            <ns3:hr>128</ns3:hr>
          </ns3:TrackPointExtension>
        </extensions>
      </trkpt>
      <trkpt lat="46.6994313709437847137451171875" lon="6.891413368284702301025390625">
        <ele>699.79998779296875</ele>
        <time>2013-08-15T15:46:41.000Z</time>
        <extensions>
          <ns3:TrackPointExtension>
            <ns3:atemp>23.0</ns3:atemp>
            <ns3:hr>127</ns3:hr>
          </ns3:TrackPointExtension>
        </extensions>
      </trkpt>
      <trkpt lat="46.69942977838218212127685546875" lon="6.8914460577070713043212890625">
        <ele>699.79998779296875</ele>
        <time>2013-08-15T15:46:42.000Z</time>
        <extensions>
          <ns3:TrackPointExtension>
            <ns3:atemp>23.0</ns3:atemp>
            <ns3:hr>128</ns3:hr>
          </ns3:TrackPointExtension>
        </extensions>
      </trkpt>
      <trkpt lat="46.699424497783184051513671875" lon="6.89147681929171085357666015625">
        <ele>699.79998779296875</ele>
        <time>2013-08-15T15:46:43.000Z</time>
        <extensions>
          <ns3:TrackPointExtension>
            <ns3:atemp>23.0</ns3:atemp>
            <ns3:hr>127</ns3:hr>
          </ns3:TrackPointExtension>
        </extensions>
      </trkpt>
      <trkpt lat="46.6994166187942028045654296875" lon="6.89151051454246044158935546875">
        <ele>699.79998779296875</ele>
        <time>2013-08-15T15:46:44.000Z</time>
        <extensions>
          <ns3:TrackPointExtension>
            <ns3:atemp>23.0</ns3:atemp>
            <ns3:hr>127</ns3:hr>
          </ns3:TrackPointExtension>
        </extensions>
      </trkpt>
      <trkpt lat="46.699403710663318634033203125" lon="6.89154068939387798309326171875">
        <ele>700</ele>
        <time>2013-08-15T15:46:45.000Z</time>
        <extensions>
          <ns3:TrackPointExtension>
            <ns3:atemp>23.0</ns3:atemp>
            <ns3:hr>127</ns3:hr>
          </ns3:TrackPointExtension>
        </extensions>
      </trkpt>
      <trkpt lat="46.69938652776181697845458984375" lon="6.8915667571127414703369140625">
        <ele>700.20001220703125</ele>
        <time>2013-08-15T15:46:46.000Z</time>
        <extensions>
          <ns3:TrackPointExtension>
            <ns3:atemp>23.0</ns3:atemp>
            <ns3:hr>127</ns3:hr>
          </ns3:TrackPointExtension>
        </extensions>
      </trkpt>
      <trkpt lat="46.69936708174645900726318359375" lon="6.89159148372709751129150390625">
        <ele>700.4000244140625</ele>
        <time>2013-08-15T15:46:47.000Z</time>
        <extensions>
          <ns3:TrackPointExtension>
            <ns3:atemp>23.0</ns3:atemp>
            <ns3:hr>127</ns3:hr>
          </ns3:TrackPointExtension>
        </extensions>
      </trkpt>
      <trkpt lat="46.69934679754078388214111328125" lon="6.8916106782853603363037109375">
        <ele>700.5999755859375</ele>
        <time>2013-08-15T15:46:48.000Z</time>
        <extensions>
          <ns3:TrackPointExtension>
            <ns3:atemp>23.0</ns3:atemp>
            <ns3:hr>126</ns3:hr>
          </ns3:TrackPointExtension>
        </extensions>
      </trkpt>
      <trkpt lat="46.6993254236876964569091796875" lon="6.89162903465330600738525390625">
        <ele>700.5999755859375</ele>
        <time>2013-08-15T15:46:49.000Z</time>
        <extensions>
          <ns3:TrackPointExtension>
            <ns3:atemp>23.0</ns3:atemp>
            <ns3:hr>126</ns3:hr>
          </ns3:TrackPointExtension>
        </extensions>
      </trkpt>
      <trkpt lat="46.699307821691036224365234375" lon="6.8916495703160762786865234375">
        <ele>700.5999755859375</ele>
        <time>2013-08-15T15:46:50.000Z</time>
        <extensions>
          <ns3:TrackPointExtension>
            <ns3:atemp>23.0</ns3:atemp>
            <ns3:hr>126</ns3:hr>
          </ns3:TrackPointExtension>
        </extensions>
      </trkpt>
      <trkpt lat="46.69929147697985172271728515625" lon="6.89167681150138378143310546875">
        <ele>700.5999755859375</ele>
        <time>2013-08-15T15:46:51.000Z</time>
        <extensions>
          <ns3:TrackPointExtension>
            <ns3:atemp>23.0</ns3:atemp>
            <ns3:hr>126</ns3:hr>
          </ns3:TrackPointExtension>
        </extensions>
      </trkpt>
      <trkpt lat="46.69927789829671382904052734375" lon="6.89171318896114826202392578125">
        <ele>700.5999755859375</ele>
        <time>2013-08-15T15:46:52.000Z</time>
        <extensions>
          <ns3:TrackPointExtension>
            <ns3:atemp>23.0</ns3:atemp>
            <ns3:hr>125</ns3:hr>
          </ns3:TrackPointExtension>
        </extensions>
      </trkpt>
      <trkpt lat="46.69926582835614681243896484375" lon="6.89175275154411792755126953125">
        <ele>700.5999755859375</ele>
        <time>2013-08-15T15:46:53.000Z</time>
        <extensions>
          <ns3:TrackPointExtension>
            <ns3:atemp>23.0</ns3:atemp>
            <ns3:hr>125</ns3:hr>
          </ns3:TrackPointExtension>
        </extensions>
      </trkpt>
      <trkpt lat="46.69925442896783351898193359375" lon="6.8917964212596416473388671875">
        <ele>700.5999755859375</ele>
        <time>2013-08-15T15:46:54.000Z</time>
        <extensions>
          <ns3:TrackPointExtension>
            <ns3:atemp>23.0</ns3:atemp>
            <ns3:hr>125</ns3:hr>
          </ns3:TrackPointExtension>
        </extensions>
      </trkpt>
      <trkpt lat="46.69924168847501277923583984375" lon="6.891842521727085113525390625">
        <ele>700.79998779296875</ele>
        <time>2013-08-15T15:46:55.000Z</time>
        <extensions>
          <ns3:TrackPointExtension>
            <ns3:atemp>23.0</ns3:atemp>
            <ns3:hr>124</ns3:hr>
          </ns3:TrackPointExtension>
        </extensions>
      </trkpt>
      <trkpt lat="46.69922769069671630859375" lon="6.89189373515546321868896484375">
        <ele>700.79998779296875</ele>
        <time>2013-08-15T15:46:56.000Z</time>
        <extensions>
          <ns3:TrackPointExtension>
            <ns3:atemp>23.0</ns3:atemp>
            <ns3:hr>124</ns3:hr>
          </ns3:TrackPointExtension>
        </extensions>
      </trkpt>
      <trkpt lat="46.69921117834746837615966796875" lon="6.8919456191360950469970703125">
        <ele>700.79998779296875</ele>
        <time>2013-08-15T15:46:57.000Z</time>
        <extensions>
          <ns3:TrackPointExtension>
            <ns3:atemp>23.0</ns3:atemp>
            <ns3:hr>124</ns3:hr>
          </ns3:TrackPointExtension>
        </extensions>
      </trkpt>
      <trkpt lat="46.69919307343661785125732421875" lon="6.891999430954456329345703125">
        <ele>700.79998779296875</ele>
        <time>2013-08-15T15:46:58.000Z</time>
        <extensions>
          <ns3:TrackPointExtension>
            <ns3:atemp>23.0</ns3:atemp>
            <ns3:hr>124</ns3:hr>
          </ns3:TrackPointExtension>
        </extensions>
      </trkpt>
      <trkpt lat="46.6991753876209259033203125" lon="6.8920562602579593658447265625">
        <ele>700.79998779296875</ele>
        <time>2013-08-15T15:46:59.000Z</time>
        <extensions>
          <ns3:TrackPointExtension>
            <ns3:atemp>23.0</ns3:atemp>
            <ns3:hr>123</ns3:hr>
          </ns3:TrackPointExtension>
        </extensions>
      </trkpt>
      <trkpt lat="46.69915619306266307830810546875" lon="6.89211149699985980987548828125">
        <ele>700.79998779296875</ele>
        <time>2013-08-15T15:47:00.000Z</time>
        <extensions>
          <ns3:TrackPointExtension>
            <ns3:atemp>23.0</ns3:atemp>
            <ns3:hr>123</ns3:hr>
          </ns3:TrackPointExtension>
        </extensions>
      </trkpt>
      <trkpt lat="46.69913792051374912261962890625" lon="6.892168410122394561767578125">
        <ele>700.5999755859375</ele>
        <time>2013-08-15T15:47:01.000Z</time>
        <extensions>
          <ns3:TrackPointExtension>
            <ns3:atemp>23.0</ns3:atemp>
            <ns3:hr>122</ns3:hr>
          </ns3:TrackPointExtension>
        </extensions>
      </trkpt>
      <trkpt lat="46.69912065379321575164794921875" lon="6.89222767017781734466552734375">
        <ele>700.5999755859375</ele>
        <time>2013-08-15T15:47:02.000Z</time>
        <extensions>
          <ns3:TrackPointExtension>
            <ns3:atemp>23.0</ns3:atemp>
            <ns3:hr>122</ns3:hr>
          </ns3:TrackPointExtension>
        </extensions>
      </trkpt>
      <trkpt lat="46.69911495409905910491943359375" lon="6.89229078590869903564453125">
        <ele>700.79998779296875</ele>
        <time>2013-08-15T15:47:03.000Z</time>
        <extensions>
          <ns3:TrackPointExtension>
            <ns3:atemp>23.0</ns3:atemp>
            <ns3:hr>122</ns3:hr>
          </ns3:TrackPointExtension>
        </extensions>
      </trkpt>
      <trkpt lat="46.69912601821124553680419921875" lon="6.89235373400151729583740234375">
        <ele>700.79998779296875</ele>
        <time>2013-08-15T15:47:04.000Z</time>
        <extensions>
          <ns3:TrackPointExtension>
            <ns3:atemp>23.0</ns3:atemp>
            <ns3:hr>121</ns3:hr>
          </ns3:TrackPointExtension>
        </extensions>
      </trkpt>
      <trkpt lat="46.69913959689438343048095703125" lon="6.89240612089633941650390625">
        <ele>700.79998779296875</ele>
        <time>2013-08-15T15:47:05.000Z</time>
        <extensions>
          <ns3:TrackPointExtension>
            <ns3:atemp>23.0</ns3:atemp>
            <ns3:hr>121</ns3:hr>
          </ns3:TrackPointExtension>
        </extensions>
      </trkpt>
      <trkpt lat="46.6991608031094074249267578125" lon="6.8924492038786411285400390625">
        <ele>700.5999755859375</ele>
        <time>2013-08-15T15:47:06.000Z</time>
        <extensions>
          <ns3:TrackPointExtension>
            <ns3:atemp>23.0</ns3:atemp>
            <ns3:hr>120</ns3:hr>
          </ns3:TrackPointExtension>
        </extensions>
      </trkpt>
      <trkpt lat="46.69918871484696865081787109375" lon="6.89248432405292987823486328125">
        <ele>700.79998779296875</ele>
        <time>2013-08-15T15:47:07.000Z</time>
        <extensions>
          <ns3:TrackPointExtension>
            <ns3:atemp>23.0</ns3:atemp>
            <ns3:hr>120</ns3:hr>
          </ns3:TrackPointExtension>
        </extensions>
      </trkpt>
      <trkpt lat="46.6992290318012237548828125" lon="6.89251701347529888153076171875">
        <ele>700.5999755859375</ele>
        <time>2013-08-15T15:47:08.000Z</time>
        <extensions>
          <ns3:TrackPointExtension>
            <ns3:atemp>23.0</ns3:atemp>
            <ns3:hr>120</ns3:hr>
          </ns3:TrackPointExtension>
        </extensions>
      </trkpt>
      <trkpt lat="46.69927261769771575927734375" lon="6.89254718832671642303466796875">
        <ele>700.5999755859375</ele>
        <time>2013-08-15T15:47:09.000Z</time>
        <extensions>
          <ns3:TrackPointExtension>
            <ns3:atemp>23.0</ns3:atemp>
            <ns3:hr>120</ns3:hr>
          </ns3:TrackPointExtension>
        </extensions>
      </trkpt>
      <trkpt lat="46.699316538870334625244140625" lon="6.8925813026726245880126953125">
        <ele>700.79998779296875</ele>
        <time>2013-08-15T15:47:10.000Z</time>
        <extensions>
          <ns3:TrackPointExtension>
            <ns3:atemp>23.0</ns3:atemp>
            <ns3:hr>119</ns3:hr>
          </ns3:TrackPointExtension>
        </extensions>
      </trkpt>
      <trkpt lat="46.699361465871334075927734375" lon="6.89261558465659618377685546875">
        <ele>700.5999755859375</ele>
        <time>2013-08-15T15:47:11.000Z</time>
        <extensions>
          <ns3:TrackPointExtension>
            <ns3:atemp>23.0</ns3:atemp>
            <ns3:hr>120</ns3:hr>
          </ns3:TrackPointExtension>
        </extensions>
      </trkpt>
      <trkpt lat="46.699407398700714111328125" lon="6.8926481902599334716796875">
        <ele>700.5999755859375</ele>
        <time>2013-08-15T15:47:12.000Z</time>
        <extensions>
          <ns3:TrackPointExtension>
            <ns3:atemp>23.0</ns3:atemp>
            <ns3:hr>120</ns3:hr>
          </ns3:TrackPointExtension>
        </extensions>
      </trkpt>
      <trkpt lat="46.6994534991681575775146484375" lon="6.8926825560629367828369140625">
        <ele>700.4000244140625</ele>
        <time>2013-08-15T15:47:13.000Z</time>
        <extensions>
          <ns3:TrackPointExtension>
            <ns3:atemp>23.0</ns3:atemp>
            <ns3:hr>120</ns3:hr>
          </ns3:TrackPointExtension>
        </extensions>
      </trkpt>
      <trkpt lat="46.699499599635601043701171875" lon="6.89271499402821063995361328125">
        <ele>700.4000244140625</ele>
        <time>2013-08-15T15:47:14.000Z</time>
        <extensions>
          <ns3:TrackPointExtension>
            <ns3:atemp>23.0</ns3:atemp>
            <ns3:hr>120</ns3:hr>
          </ns3:TrackPointExtension>
        </extensions>
      </trkpt>
      <trkpt lat="46.69954494573175907135009765625" lon="6.8927455879747867584228515625">
        <ele>700.20001220703125</ele>
        <time>2013-08-15T15:47:15.000Z</time>
        <extensions>
          <ns3:TrackPointExtension>
            <ns3:atemp>23.0</ns3:atemp>
            <ns3:hr>120</ns3:hr>
          </ns3:TrackPointExtension>
        </extensions>
      </trkpt>
      <trkpt lat="46.6995896212756633758544921875" lon="6.8927784450352191925048828125">
        <ele>700</ele>
        <time>2013-08-15T15:47:16.000Z</time>
        <extensions>
          <ns3:TrackPointExtension>
            <ns3:atemp>23.0</ns3:atemp>
            <ns3:hr>120</ns3:hr>
          </ns3:TrackPointExtension>
        </extensions>
      </trkpt>
      <trkpt lat="46.69963471591472625732421875" lon="6.8928082846105098724365234375">
        <ele>700</ele>
        <time>2013-08-15T15:47:17.000Z</time>
        <extensions>
          <ns3:TrackPointExtension>
            <ns3:atemp>23.0</ns3:atemp>
            <ns3:hr>120</ns3:hr>
          </ns3:TrackPointExtension>
        </extensions>
      </trkpt>
      <trkpt lat="46.69967788271605968475341796875" lon="6.89283929765224456787109375">
        <ele>699.79998779296875</ele>
        <time>2013-08-15T15:47:18.000Z</time>
        <extensions>
          <ns3:TrackPointExtension>
            <ns3:atemp>23.0</ns3:atemp>
            <ns3:hr>119</ns3:hr>
          </ns3:TrackPointExtension>
        </extensions>
      </trkpt>
      <trkpt lat="46.69972079806029796600341796875" lon="6.892872154712677001953125">
        <ele>699.79998779296875</ele>
        <time>2013-08-15T15:47:19.000Z</time>
        <extensions>
          <ns3:TrackPointExtension>
            <ns3:atemp>23.0</ns3:atemp>
            <ns3:hr>119</ns3:hr>
          </ns3:TrackPointExtension>
        </extensions>
      </trkpt>
      <trkpt lat="46.69976354576647281646728515625" lon="6.892904676496982574462890625">
        <ele>699.79998779296875</ele>
        <time>2013-08-15T15:47:20.000Z</time>
        <extensions>
          <ns3:TrackPointExtension>
            <ns3:atemp>23.0</ns3:atemp>
            <ns3:hr>118</ns3:hr>
          </ns3:TrackPointExtension>
        </extensions>
      </trkpt>
      <trkpt lat="46.6998072154819965362548828125" lon="6.89293443225324153900146484375">
        <ele>700</ele>
        <time>2013-08-15T15:47:21.000Z</time>
        <extensions>
          <ns3:TrackPointExtension>
            <ns3:atemp>23.0</ns3:atemp>
            <ns3:hr>118</ns3:hr>
          </ns3:TrackPointExtension>
        </extensions>
      </trkpt>
      <trkpt lat="46.69984384439885616302490234375" lon="6.89296762458980083465576171875">
        <ele>699.79998779296875</ele>
        <time>2013-08-15T15:47:22.000Z</time>
        <extensions>
          <ns3:TrackPointExtension>
            <ns3:atemp>23.0</ns3:atemp>
            <ns3:hr>118</ns3:hr>
          </ns3:TrackPointExtension>
        </extensions>
      </trkpt>
      <trkpt lat="46.6998746059834957122802734375" lon="6.89301238395273685455322265625">
        <ele>700</ele>
        <time>2013-08-15T15:47:23.000Z</time>
        <extensions>
          <ns3:TrackPointExtension>
            <ns3:atemp>23.0</ns3:atemp>
            <ns3:hr>117</ns3:hr>
          </ns3:TrackPointExtension>
        </extensions>
      </trkpt>
      <trkpt lat="46.69989899732172489166259765625" lon="6.8930724821984767913818359375">
        <ele>700</ele>
        <time>2013-08-15T15:47:24.000Z</time>
        <extensions>
          <ns3:TrackPointExtension>
            <ns3:atemp>23.0</ns3:atemp>
            <ns3:hr>115</ns3:hr>
          </ns3:TrackPointExtension>
        </extensions>
      </trkpt>
      <trkpt lat="46.6999084688723087310791015625" lon="6.893140375614166259765625">
        <ele>700.20001220703125</ele>
        <time>2013-08-15T15:47:25.000Z</time>
        <extensions>
          <ns3:TrackPointExtension>
            <ns3:atemp>23.0</ns3:atemp>
            <ns3:hr>115</ns3:hr>
          </ns3:TrackPointExtension>
        </extensions>
      </trkpt>
      <trkpt lat="46.69990318827331066131591796875" lon="6.8932072632014751434326171875">
        <ele>700</ele>
        <time>2013-08-15T15:47:26.000Z</time>
        <extensions>
          <ns3:TrackPointExtension>
            <ns3:atemp>23.0</ns3:atemp>
            <ns3:hr>115</ns3:hr>
          </ns3:TrackPointExtension>
        </extensions>
      </trkpt>
      <trkpt lat="46.6998870112001895904541015625" lon="6.893273480236530303955078125">
        <ele>699.79998779296875</ele>
        <time>2013-08-15T15:47:27.000Z</time>
        <extensions>
          <ns3:TrackPointExtension>
            <ns3:atemp>23.0</ns3:atemp>
            <ns3:hr>115</ns3:hr>
          </ns3:TrackPointExtension>
        </extensions>
      </trkpt>
      <trkpt lat="46.69986630789935588836669921875" lon="6.89333810470998287200927734375">
        <ele>699.79998779296875</ele>
        <time>2013-08-15T15:47:28.000Z</time>
        <extensions>
          <ns3:TrackPointExtension>
            <ns3:atemp>23.0</ns3:atemp>
            <ns3:hr>115</ns3:hr>
          </ns3:TrackPointExtension>
        </extensions>
      </trkpt>
      <trkpt lat="46.69984283857047557830810546875" lon="6.8933977000415325164794921875">
        <ele>699.79998779296875</ele>
        <time>2013-08-15T15:47:29.000Z</time>
        <extensions>
          <ns3:TrackPointExtension>
            <ns3:atemp>23.0</ns3:atemp>
            <ns3:hr>115</ns3:hr>
          </ns3:TrackPointExtension>
        </extensions>
      </trkpt>
      <trkpt lat="46.69981601648032665252685546875" lon="6.89345830120146274566650390625">
        <ele>700</ele>
        <time>2013-08-15T15:47:30.000Z</time>
        <extensions>
          <ns3:TrackPointExtension>
            <ns3:atemp>23.0</ns3:atemp>
            <ns3:hr>116</ns3:hr>
          </ns3:TrackPointExtension>
        </extensions>
      </trkpt>
      <trkpt lat="46.69979237951338291168212890625" lon="6.89351345412433147430419921875">
        <ele>700.4000244140625</ele>
        <time>2013-08-15T15:47:31.000Z</time>
        <extensions>
          <ns3:TrackPointExtension>
            <ns3:atemp>23.0</ns3:atemp>
            <ns3:hr>116</ns3:hr>
          </ns3:TrackPointExtension>
        </extensions>
      </trkpt>
      <trkpt lat="46.69977444224059581756591796875" lon="6.893571205437183380126953125">
        <ele>700.5999755859375</ele>
        <time>2013-08-15T15:47:32.000Z</time>
        <extensions>
          <ns3:TrackPointExtension>
            <ns3:atemp>23.0</ns3:atemp>
            <ns3:hr>116</ns3:hr>
          </ns3:TrackPointExtension>
        </extensions>
      </trkpt>
      <trkpt lat="46.69975348748266696929931640625" lon="6.89362786710262298583984375">
        <ele>700.4000244140625</ele>
        <time>2013-08-15T15:47:33.000Z</time>
        <extensions>
          <ns3:TrackPointExtension>
            <ns3:atemp>23.0</ns3:atemp>
            <ns3:hr>117</ns3:hr>
          </ns3:TrackPointExtension>
        </extensions>
      </trkpt>
      <trkpt lat="46.69973253272473812103271484375" lon="6.893684864044189453125">
        <ele>700.4000244140625</ele>
        <time>2013-08-15T15:47:34.000Z</time>
        <extensions>
          <ns3:TrackPointExtension>
            <ns3:atemp>23.0</ns3:atemp>
            <ns3:hr>117</ns3:hr>
          </ns3:TrackPointExtension>
        </extensions>
      </trkpt>
      <trkpt lat="46.6997109912335872650146484375" lon="6.89374060370028018951416015625">
        <ele>700.20001220703125</ele>
        <time>2013-08-15T15:47:35.000Z</time>
        <extensions>
          <ns3:TrackPointExtension>
            <ns3:atemp>23.0</ns3:atemp>
            <ns3:hr>118</ns3:hr>
          </ns3:TrackPointExtension>
        </extensions>
      </trkpt>
      <trkpt lat="46.69968827627599239349365234375" lon="6.89379776827991008758544921875">
        <ele>700.4000244140625</ele>
        <time>2013-08-15T15:47:36.000Z</time>
        <extensions>
          <ns3:TrackPointExtension>
            <ns3:atemp>23.0</ns3:atemp>
            <ns3:hr>118</ns3:hr>
          </ns3:TrackPointExtension>
        </extensions>
      </trkpt>
      <trkpt lat="46.699664890766143798828125" lon="6.8938563577830791473388671875">
        <ele>700.4000244140625</ele>
        <time>2013-08-15T15:47:37.000Z</time>
        <extensions>
          <ns3:TrackPointExtension>
            <ns3:atemp>23.0</ns3:atemp>
            <ns3:hr>119</ns3:hr>
          </ns3:TrackPointExtension>
        </extensions>
      </trkpt>
      <trkpt lat="46.699641756713390350341796875" lon="6.8939120136201381683349609375">
        <ele>700.79998779296875</ele>
        <time>2013-08-15T15:47:38.000Z</time>
        <extensions>
          <ns3:TrackPointExtension>
            <ns3:atemp>23.0</ns3:atemp>
            <ns3:hr>119</ns3:hr>
          </ns3:TrackPointExtension>
        </extensions>
      </trkpt>
      <trkpt lat="46.69961920939385890960693359375" lon="6.8939643166959285736083984375">
        <ele>701.20001220703125</ele>
        <time>2013-08-15T15:47:39.000Z</time>
        <extensions>
          <ns3:TrackPointExtension>
            <ns3:atemp>23.0</ns3:atemp>
            <ns3:hr>120</ns3:hr>
          </ns3:TrackPointExtension>
        </extensions>
      </trkpt>
      <trkpt lat="46.69959339313209056854248046875" lon="6.89401703886687755584716796875">
        <ele>701.5999755859375</ele>
        <time>2013-08-15T15:47:40.000Z</time>
        <extensions>
          <ns3:TrackPointExtension>
            <ns3:atemp>23.0</ns3:atemp>
            <ns3:hr>121</ns3:hr>
          </ns3:TrackPointExtension>
        </extensions>
      </trkpt>
      <trkpt lat="46.69956807978451251983642578125" lon="6.89406380988657474517822265625">
        <ele>701.4000244140625</ele>
        <time>2013-08-15T15:47:41.000Z</time>
        <extensions>
          <ns3:TrackPointExtension>
            <ns3:atemp>23.0</ns3:atemp>
            <ns3:hr>122</ns3:hr>
          </ns3:TrackPointExtension>
        </extensions>
      </trkpt>
      <trkpt lat="46.69954427517950534820556640625" lon="6.894096247851848602294921875">
        <ele>701</ele>
        <time>2013-08-15T15:47:42.000Z</time>
        <extensions>
          <ns3:TrackPointExtension>
            <ns3:atemp>23.0</ns3:atemp>
            <ns3:hr>122</ns3:hr>
          </ns3:TrackPointExtension>
        </extensions>
      </trkpt>
      <trkpt lat="46.6995245777070522308349609375" lon="6.894118376076221466064453125">
        <ele>700.79998779296875</ele>
        <time>2013-08-15T15:47:43.000Z</time>
        <extensions>
          <ns3:TrackPointExtension>
            <ns3:atemp>23.0</ns3:atemp>
            <ns3:hr>122</ns3:hr>
          </ns3:TrackPointExtension>
        </extensions>
      </trkpt>
      <trkpt lat="46.69950404204428195953369140625" lon="6.89412809908390045166015625">
        <ele>700.79998779296875</ele>
        <time>2013-08-15T15:47:44.000Z</time>
        <extensions>
          <ns3:TrackPointExtension>
            <ns3:atemp>23.0</ns3:atemp>
            <ns3:hr>122</ns3:hr>
          </ns3:TrackPointExtension>
        </extensions>
      </trkpt>
      <trkpt lat="46.6994830034673213958740234375" lon="6.89412298612296581268310546875">
        <ele>701</ele>
        <time>2013-08-15T15:47:45.000Z</time>
        <extensions>
          <ns3:TrackPointExtension>
            <ns3:atemp>23.0</ns3:atemp>
            <ns3:hr>122</ns3:hr>
          </ns3:TrackPointExtension>
        </extensions>
      </trkpt>
      <trkpt lat="46.6994638927280902862548828125" lon="6.894108988344669342041015625">
        <ele>701</ele>
        <time>2013-08-15T15:47:46.000Z</time>
        <extensions>
          <ns3:TrackPointExtension>
            <ns3:atemp>23.0</ns3:atemp>
            <ns3:hr>121</ns3:hr>
          </ns3:TrackPointExtension>
        </extensions>
      </trkpt>
      <trkpt lat="46.6994407586753368377685546875" lon="6.8940876983106136322021484375">
        <ele>701.20001220703125</ele>
        <time>2013-08-15T15:47:47.000Z</time>
        <extensions>
          <ns3:TrackPointExtension>
            <ns3:atemp>23.0</ns3:atemp>
            <ns3:hr>121</ns3:hr>
          </ns3:TrackPointExtension>
        </extensions>
      </trkpt>
      <trkpt lat="46.69941519387066364288330078125" lon="6.89406230114400386810302734375">
        <ele>701.4000244140625</ele>
        <time>2013-08-15T15:47:48.000Z</time>
        <extensions>
          <ns3:TrackPointExtension>
            <ns3:atemp>23.0</ns3:atemp>
            <ns3:hr>122</ns3:hr>
          </ns3:TrackPointExtension>
        </extensions>
      </trkpt>
      <trkpt lat="46.69938334263861179351806640625" lon="6.8940300308167934417724609375">
        <ele>701.5999755859375</ele>
        <time>2013-08-15T15:47:49.000Z</time>
        <extensions>
          <ns3:TrackPointExtension>
            <ns3:atemp>23.0</ns3:atemp>
            <ns3:hr>121</ns3:hr>
          </ns3:TrackPointExtension>
        </extensions>
      </trkpt>
      <trkpt lat="46.69934830628335475921630859375" lon="6.89399440772831439971923828125">
        <ele>701.5999755859375</ele>
        <time>2013-08-15T15:47:50.000Z</time>
        <extensions>
          <ns3:TrackPointExtension>
            <ns3:atemp>23.0</ns3:atemp>
            <ns3:hr>121</ns3:hr>
          </ns3:TrackPointExtension>
        </extensions>
      </trkpt>
      <trkpt lat="46.69930882751941680908203125" lon="6.89396272413432598114013671875">
        <ele>701.79998779296875</ele>
        <time>2013-08-15T15:47:51.000Z</time>
        <extensions>
          <ns3:TrackPointExtension>
            <ns3:atemp>23.0</ns3:atemp>
            <ns3:hr>121</ns3:hr>
          </ns3:TrackPointExtension>
        </extensions>
      </trkpt>
      <trkpt lat="46.6992697678506374359130859375" lon="6.89393992535769939422607421875">
        <ele>701.79998779296875</ele>
        <time>2013-08-15T15:47:52.000Z</time>
        <extensions>
          <ns3:TrackPointExtension>
            <ns3:atemp>23.0</ns3:atemp>
            <ns3:hr>121</ns3:hr>
          </ns3:TrackPointExtension>
        </extensions>
      </trkpt>
      <trkpt lat="46.6992265172302722930908203125" lon="6.89392517320811748504638671875">
        <ele>702</ele>
        <time>2013-08-15T15:47:53.000Z</time>
        <extensions>
          <ns3:TrackPointExtension>
            <ns3:atemp>23.0</ns3:atemp>
            <ns3:hr>122</ns3:hr>
          </ns3:TrackPointExtension>
        </extensions>
      </trkpt>
      <trkpt lat="46.69918418861925601959228515625" lon="6.89391394145786762237548828125">
        <ele>702.20001220703125</ele>
        <time>2013-08-15T15:47:54.000Z</time>
        <extensions>
          <ns3:TrackPointExtension>
            <ns3:atemp>23.0</ns3:atemp>
            <ns3:hr>123</ns3:hr>
          </ns3:TrackPointExtension>
        </extensions>
      </trkpt>
      <trkpt lat="46.69913691468536853790283203125" lon="6.8939063139259815216064453125">
        <ele>702.5999755859375</ele>
        <time>2013-08-15T15:47:55.000Z</time>
        <extensions>
          <ns3:TrackPointExtension>
            <ns3:atemp>23.0</ns3:atemp>
            <ns3:hr>123</ns3:hr>
          </ns3:TrackPointExtension>
        </extensions>
      </trkpt>
      <trkpt lat="46.69908863492310047149658203125" lon="6.8938942439854145050048828125">
        <ele>703</ele>
        <time>2013-08-15T15:47:56.000Z</time>
        <extensions>
          <ns3:TrackPointExtension>
            <ns3:atemp>23.0</ns3:atemp>
            <ns3:hr>124</ns3:hr>
          </ns3:TrackPointExtension>
        </extensions>
      </trkpt>
      <trkpt lat="46.69903985224664211273193359375" lon="6.89388091675937175750732421875">
        <ele>703.4000244140625</ele>
        <time>2013-08-15T15:47:57.000Z</time>
        <extensions>
          <ns3:TrackPointExtension>
            <ns3:atemp>23.0</ns3:atemp>
            <ns3:hr>125</ns3:hr>
          </ns3:TrackPointExtension>
        </extensions>
      </trkpt>
      <trkpt lat="46.6989928297698497772216796875" lon="6.89385996200144290924072265625">
        <ele>703.4000244140625</ele>
        <time>2013-08-15T15:47:58.000Z</time>
        <extensions>
          <ns3:TrackPointExtension>
            <ns3:atemp>23.0</ns3:atemp>
            <ns3:hr>125</ns3:hr>
          </ns3:TrackPointExtension>
        </extensions>
      </trkpt>
      <trkpt lat="46.69894446618854999542236328125" lon="6.89383263699710369110107421875">
        <ele>703.4000244140625</ele>
        <time>2013-08-15T15:47:59.000Z</time>
        <extensions>
          <ns3:TrackPointExtension>
            <ns3:atemp>23.0</ns3:atemp>
            <ns3:hr>125</ns3:hr>
          </ns3:TrackPointExtension>
        </extensions>
      </trkpt>
      <trkpt lat="46.6988979466259479522705078125" lon="6.8938047252595424652099609375">
        <ele>703.5999755859375</ele>
        <time>2013-08-15T15:48:00.000Z</time>
        <extensions>
          <ns3:TrackPointExtension>
            <ns3:atemp>23.0</ns3:atemp>
            <ns3:hr>126</ns3:hr>
          </ns3:TrackPointExtension>
        </extensions>
      </trkpt>
      <trkpt lat="46.69885109178721904754638671875" lon="6.893773712217807769775390625">
        <ele>703.79998779296875</ele>
        <time>2013-08-15T15:48:01.000Z</time>
        <extensions>
          <ns3:TrackPointExtension>
            <ns3:atemp>23.0</ns3:atemp>
            <ns3:hr>126</ns3:hr>
          </ns3:TrackPointExtension>
        </extensions>
      </trkpt>
      <trkpt lat="46.6988052427768707275390625" lon="6.893743537366390228271484375">
        <ele>704</ele>
        <time>2013-08-15T15:48:02.000Z</time>
        <extensions>
          <ns3:TrackPointExtension>
            <ns3:atemp>23.0</ns3:atemp>
            <ns3:hr>127</ns3:hr>
          </ns3:TrackPointExtension>
        </extensions>
      </trkpt>
      <trkpt lat="46.69876090250909328460693359375" lon="6.893712691962718963623046875">
        <ele>704.20001220703125</ele>
        <time>2013-08-15T15:48:03.000Z</time>
        <extensions>
          <ns3:TrackPointExtension>
            <ns3:atemp>23.0</ns3:atemp>
            <ns3:hr>127</ns3:hr>
          </ns3:TrackPointExtension>
        </extensions>
      </trkpt>
      <trkpt lat="46.698715388774871826171875" lon="6.8936793319880962371826171875">
        <ele>704.20001220703125</ele>
        <time>2013-08-15T15:48:04.000Z</time>
        <extensions>
          <ns3:TrackPointExtension>
            <ns3:atemp>23.0</ns3:atemp>
            <ns3:hr>127</ns3:hr>
          </ns3:TrackPointExtension>
        </extensions>
      </trkpt>
      <trkpt lat="46.69867180287837982177734375" lon="6.89364706166088581085205078125">
        <ele>704.20001220703125</ele>
        <time>2013-08-15T15:48:05.000Z</time>
        <extensions>
          <ns3:TrackPointExtension>
            <ns3:atemp>23.0</ns3:atemp>
            <ns3:hr>127</ns3:hr>
          </ns3:TrackPointExtension>
        </extensions>
      </trkpt>
      <trkpt lat="46.69862846843898296356201171875" lon="6.89361655153334140777587890625">
        <ele>704.20001220703125</ele>
        <time>2013-08-15T15:48:06.000Z</time>
        <extensions>
          <ns3:TrackPointExtension>
            <ns3:atemp>23.0</ns3:atemp>
            <ns3:hr>128</ns3:hr>
          </ns3:TrackPointExtension>
        </extensions>
      </trkpt>
      <trkpt lat="46.6985834576189517974853515625" lon="6.89358486793935298919677734375">
        <ele>704.4000244140625</ele>
        <time>2013-08-15T15:48:07.000Z</time>
        <extensions>
          <ns3:TrackPointExtension>
            <ns3:atemp>23.0</ns3:atemp>
            <ns3:hr>128</ns3:hr>
          </ns3:TrackPointExtension>
        </extensions>
      </trkpt>
      <trkpt lat="46.69853794388473033905029296875" lon="6.893553100526332855224609375">
        <ele>704.4000244140625</ele>
        <time>2013-08-15T15:48:08.000Z</time>
        <extensions>
          <ns3:TrackPointExtension>
            <ns3:atemp>23.0</ns3:atemp>
            <ns3:hr>128</ns3:hr>
          </ns3:TrackPointExtension>
        </extensions>
      </trkpt>
      <trkpt lat="46.698491089046001434326171875" lon="6.89352435059845447540283203125">
        <ele>704.5999755859375</ele>
        <time>2013-08-15T15:48:09.000Z</time>
        <extensions>
          <ns3:TrackPointExtension>
            <ns3:atemp>23.0</ns3:atemp>
            <ns3:hr>128</ns3:hr>
          </ns3:TrackPointExtension>
        </extensions>
      </trkpt>
      <trkpt lat="46.69844272546470165252685546875" lon="6.89350088126957416534423828125">
        <ele>704.79998779296875</ele>
        <time>2013-08-15T15:48:10.000Z</time>
        <extensions>
          <ns3:TrackPointExtension>
            <ns3:atemp>23.0</ns3:atemp>
            <ns3:hr>128</ns3:hr>
          </ns3:TrackPointExtension>
        </extensions>
      </trkpt>
      <trkpt lat="46.69839142821729183197021484375" lon="6.8934815190732479095458984375">
        <ele>705</ele>
        <time>2013-08-15T15:48:11.000Z</time>
        <extensions>
          <ns3:TrackPointExtension>
            <ns3:atemp>23.0</ns3:atemp>
            <ns3:hr>128</ns3:hr>
          </ns3:TrackPointExtension>
        </extensions>
      </trkpt>
      <trkpt lat="46.69834096916019916534423828125" lon="6.89346433617174625396728515625">
        <ele>705.20001220703125</ele>
        <time>2013-08-15T15:48:12.000Z</time>
        <extensions>
          <ns3:TrackPointExtension>
            <ns3:atemp>23.0</ns3:atemp>
            <ns3:hr>128</ns3:hr>
          </ns3:TrackPointExtension>
        </extensions>
      </trkpt>
      <trkpt lat="46.6982900910079479217529296875" lon="6.8934526853263378143310546875">
        <ele>705.4000244140625</ele>
        <time>2013-08-15T15:48:13.000Z</time>
        <extensions>
          <ns3:TrackPointExtension>
            <ns3:atemp>23.0</ns3:atemp>
            <ns3:hr>128</ns3:hr>
          </ns3:TrackPointExtension>
        </extensions>
      </trkpt>
      <trkpt lat="46.69823938049376010894775390625" lon="6.89344522543251514434814453125">
        <ele>705.4000244140625</ele>
        <time>2013-08-15T15:48:14.000Z</time>
        <extensions>
          <ns3:TrackPointExtension>
            <ns3:atemp>23.0</ns3:atemp>
            <ns3:hr>128</ns3:hr>
          </ns3:TrackPointExtension>
        </extensions>
      </trkpt>
      <trkpt lat="46.69818925671279430389404296875" lon="6.8934325687587261199951171875">
        <ele>705.79998779296875</ele>
        <time>2013-08-15T15:48:15.000Z</time>
        <extensions>
          <ns3:TrackPointExtension>
            <ns3:atemp>23.0</ns3:atemp>
            <ns3:hr>128</ns3:hr>
          </ns3:TrackPointExtension>
        </extensions>
      </trkpt>
      <trkpt lat="46.69813695363700389862060546875" lon="6.8934225104749202728271484375">
        <ele>706</ele>
        <time>2013-08-15T15:48:16.000Z</time>
        <extensions>
          <ns3:TrackPointExtension>
            <ns3:atemp>23.0</ns3:atemp>
            <ns3:hr>128</ns3:hr>
          </ns3:TrackPointExtension>
        </extensions>
      </trkpt>
      <trkpt lat="46.6980838961899280548095703125" lon="6.89341639168560504913330078125">
        <ele>705.79998779296875</ele>
        <time>2013-08-15T15:48:17.000Z</time>
        <extensions>
          <ns3:TrackPointExtension>
            <ns3:atemp>23.0</ns3:atemp>
            <ns3:hr>129</ns3:hr>
          </ns3:TrackPointExtension>
        </extensions>
      </trkpt>
      <trkpt lat="46.698033101856708526611328125" lon="6.8934137932956218719482421875">
        <ele>705.5999755859375</ele>
        <time>2013-08-15T15:48:18.000Z</time>
        <extensions>
          <ns3:TrackPointExtension>
            <ns3:atemp>23.0</ns3:atemp>
            <ns3:hr>129</ns3:hr>
          </ns3:TrackPointExtension>
        </extensions>
      </trkpt>
      <trkpt lat="46.6979819722473621368408203125" lon="6.89341102726757526397705078125">
        <ele>705.79998779296875</ele>
        <time>2013-08-15T15:48:19.000Z</time>
        <extensions>
          <ns3:TrackPointExtension>
            <ns3:atemp>23.0</ns3:atemp>
            <ns3:hr>128</ns3:hr>
          </ns3:TrackPointExtension>
        </extensions>
      </trkpt>
      <trkpt lat="46.69793310575187206268310546875" lon="6.89339677803218364715576171875">
        <ele>705.79998779296875</ele>
        <time>2013-08-15T15:48:20.000Z</time>
        <extensions>
          <ns3:TrackPointExtension>
            <ns3:atemp>23.0</ns3:atemp>
            <ns3:hr>128</ns3:hr>
          </ns3:TrackPointExtension>
        </extensions>
      </trkpt>
      <trkpt lat="46.697887592017650604248046875" lon="6.8933628313243389129638671875">
        <ele>706</ele>
        <time>2013-08-15T15:48:21.000Z</time>
        <extensions>
          <ns3:TrackPointExtension>
            <ns3:atemp>23.0</ns3:atemp>
            <ns3:hr>128</ns3:hr>
          </ns3:TrackPointExtension>
        </extensions>
      </trkpt>
      <trkpt lat="46.6978502087295055389404296875" lon="6.8933145515620708465576171875">
        <ele>706</ele>
        <time>2013-08-15T15:48:22.000Z</time>
        <extensions>
          <ns3:TrackPointExtension>
            <ns3:atemp>23.0</ns3:atemp>
            <ns3:hr>128</ns3:hr>
          </ns3:TrackPointExtension>
        </extensions>
      </trkpt>
      <trkpt lat="46.697824560105800628662109375" lon="6.89325378276407718658447265625">
        <ele>706.20001220703125</ele>
        <time>2013-08-15T15:48:23.000Z</time>
        <extensions>
          <ns3:TrackPointExtension>
            <ns3:atemp>23.0</ns3:atemp>
            <ns3:hr>128</ns3:hr>
          </ns3:TrackPointExtension>
        </extensions>
      </trkpt>
      <trkpt lat="46.6978019289672374725341796875" lon="6.89318873919546604156494140625">
        <ele>706.4000244140625</ele>
        <time>2013-08-15T15:48:24.000Z</time>
        <extensions>
          <ns3:TrackPointExtension>
            <ns3:atemp>23.0</ns3:atemp>
            <ns3:hr>128</ns3:hr>
          </ns3:TrackPointExtension>
        </extensions>
      </trkpt>
      <trkpt lat="46.69777971692383289337158203125" lon="6.89312403090298175811767578125">
        <ele>706.20001220703125</ele>
        <time>2013-08-15T15:48:25.000Z</time>
        <extensions>
          <ns3:TrackPointExtension>
            <ns3:atemp>23.0</ns3:atemp>
            <ns3:hr>129</ns3:hr>
          </ns3:TrackPointExtension>
        </extensions>
      </trkpt>
      <trkpt lat="46.69775742106139659881591796875" lon="6.8930610828101634979248046875">
        <ele>706.4000244140625</ele>
        <time>2013-08-15T15:48:26.000Z</time>
        <extensions>
          <ns3:TrackPointExtension>
            <ns3:atemp>23.0</ns3:atemp>
            <ns3:hr>129</ns3:hr>
          </ns3:TrackPointExtension>
        </extensions>
      </trkpt>
      <trkpt lat="46.697727330029010772705078125" lon="6.89300366677343845367431640625">
        <ele>706.4000244140625</ele>
        <time>2013-08-15T15:48:27.000Z</time>
        <extensions>
          <ns3:TrackPointExtension>
            <ns3:atemp>23.0</ns3:atemp>
            <ns3:hr>129</ns3:hr>
          </ns3:TrackPointExtension>
        </extensions>
      </trkpt>
      <trkpt lat="46.697693131864070892333984375" lon="6.8929548002779483795166015625">
        <ele>706.5999755859375</ele>
        <time>2013-08-15T15:48:28.000Z</time>
        <extensions>
          <ns3:TrackPointExtension>
            <ns3:atemp>23.0</ns3:atemp>
            <ns3:hr>129</ns3:hr>
          </ns3:TrackPointExtension>
        </extensions>
      </trkpt>
      <trkpt lat="46.69765482656657695770263671875" lon="6.89291129820048809051513671875">
        <ele>706.79998779296875</ele>
        <time>2013-08-15T15:48:29.000Z</time>
        <extensions>
          <ns3:TrackPointExtension>
            <ns3:atemp>23.0</ns3:atemp>
            <ns3:hr>130</ns3:hr>
          </ns3:TrackPointExtension>
        </extensions>
      </trkpt>
      <trkpt lat="46.69761191122233867645263671875" lon="6.89287693239748477935791015625">
        <ele>707</ele>
        <time>2013-08-15T15:48:30.000Z</time>
        <extensions>
          <ns3:TrackPointExtension>
            <ns3:atemp>23.0</ns3:atemp>
            <ns3:hr>130</ns3:hr>
          </ns3:TrackPointExtension>
        </extensions>
      </trkpt>
      <trkpt lat="46.6975658945739269256591796875" lon="6.892849020659923553466796875">
        <ele>707.20001220703125</ele>
        <time>2013-08-15T15:48:31.000Z</time>
        <extensions>
          <ns3:TrackPointExtension>
            <ns3:atemp>23.0</ns3:atemp>
            <ns3:hr>130</ns3:hr>
          </ns3:TrackPointExtension>
        </extensions>
      </trkpt>
      <trkpt lat="46.697516776621341705322265625" lon="6.8928263895213603973388671875">
        <ele>707.4000244140625</ele>
        <time>2013-08-15T15:48:32.000Z</time>
        <extensions>
          <ns3:TrackPointExtension>
            <ns3:atemp>23.0</ns3:atemp>
            <ns3:hr>130</ns3:hr>
          </ns3:TrackPointExtension>
        </extensions>
      </trkpt>
      <trkpt lat="46.6974668204784393310546875" lon="6.892808787524700164794921875">
        <ele>707.5999755859375</ele>
        <time>2013-08-15T15:48:33.000Z</time>
        <extensions>
          <ns3:TrackPointExtension>
            <ns3:atemp>23.0</ns3:atemp>
            <ns3:hr>131</ns3:hr>
          </ns3:TrackPointExtension>
        </extensions>
      </trkpt>
      <trkpt lat="46.697418205440044403076171875" lon="6.89279093407094478607177734375">
        <ele>708</ele>
        <time>2013-08-15T15:48:34.000Z</time>
        <extensions>
          <ns3:TrackPointExtension>
            <ns3:atemp>23.0</ns3:atemp>
            <ns3:hr>131</ns3:hr>
          </ns3:TrackPointExtension>
        </extensions>
      </trkpt>
      <trkpt lat="46.697368919849395751953125" lon="6.8927744217216968536376953125">
        <ele>708.20001220703125</ele>
        <time>2013-08-15T15:48:35.000Z</time>
        <extensions>
          <ns3:TrackPointExtension>
            <ns3:atemp>23.0</ns3:atemp>
            <ns3:hr>131</ns3:hr>
          </ns3:TrackPointExtension>
        </extensions>
      </trkpt>
      <trkpt lat="46.69732131063938140869140625" lon="6.892757825553417205810546875">
        <ele>708.20001220703125</ele>
        <time>2013-08-15T15:48:36.000Z</time>
        <extensions>
          <ns3:TrackPointExtension>
            <ns3:atemp>23.0</ns3:atemp>
            <ns3:hr>131</ns3:hr>
          </ns3:TrackPointExtension>
        </extensions>
      </trkpt>
      <trkpt lat="46.6972737014293670654296875" lon="6.89274064265191555023193359375">
        <ele>708.20001220703125</ele>
        <time>2013-08-15T15:48:37.000Z</time>
        <extensions>
          <ns3:TrackPointExtension>
            <ns3:atemp>23.0</ns3:atemp>
            <ns3:hr>132</ns3:hr>
          </ns3:TrackPointExtension>
        </extensions>
      </trkpt>
      <trkpt lat="46.69722550548613071441650390625" lon="6.8927204422652721405029296875">
        <ele>708.4000244140625</ele>
        <time>2013-08-15T15:48:38.000Z</time>
        <extensions>
          <ns3:TrackPointExtension>
            <ns3:atemp>23.0</ns3:atemp>
            <ns3:hr>132</ns3:hr>
          </ns3:TrackPointExtension>
        </extensions>
      </trkpt>
      <trkpt lat="46.6971786506474018096923828125" lon="6.89270392991602420806884765625">
        <ele>708.5999755859375</ele>
        <time>2013-08-15T15:48:39.000Z</time>
        <extensions>
          <ns3:TrackPointExtension>
            <ns3:atemp>23.0</ns3:atemp>
            <ns3:hr>132</ns3:hr>
          </ns3:TrackPointExtension>
        </extensions>
      </trkpt>
      <trkpt lat="46.69713078998029232025146484375" lon="6.892685405910015106201171875">
        <ele>709</ele>
        <time>2013-08-15T15:48:40.000Z</time>
        <extensions>
          <ns3:TrackPointExtension>
            <ns3:atemp>23.0</ns3:atemp>
            <ns3:hr>132</ns3:hr>
          </ns3:TrackPointExtension>
        </extensions>
      </trkpt>
      <trkpt lat="46.69708334840834140777587890625" lon="6.89266067929565906524658203125">
        <ele>709</ele>
        <time>2013-08-15T15:48:41.000Z</time>
        <extensions>
          <ns3:TrackPointExtension>
            <ns3:atemp>23.0</ns3:atemp>
            <ns3:hr>132</ns3:hr>
          </ns3:TrackPointExtension>
        </extensions>
      </trkpt>
      <trkpt lat="46.6970361582934856414794921875" lon="6.892632432281970977783203125">
        <ele>709</ele>
        <time>2013-08-15T15:48:42.000Z</time>
        <extensions>
          <ns3:TrackPointExtension>
            <ns3:atemp>23.0</ns3:atemp>
            <ns3:hr>132</ns3:hr>
          </ns3:TrackPointExtension>
        </extensions>
      </trkpt>
      <trkpt lat="46.69698729179799556732177734375" lon="6.8926106393337249755859375">
        <ele>709</ele>
        <time>2013-08-15T15:48:43.000Z</time>
        <extensions>
          <ns3:TrackPointExtension>
            <ns3:atemp>23.0</ns3:atemp>
            <ns3:hr>132</ns3:hr>
          </ns3:TrackPointExtension>
        </extensions>
      </trkpt>
      <trkpt lat="46.69693884439766407012939453125" lon="6.8925903551280498504638671875">
        <ele>709</ele>
        <time>2013-08-15T15:48:44.000Z</time>
        <extensions>
          <ns3:TrackPointExtension>
            <ns3:atemp>23.0</ns3:atemp>
            <ns3:hr>133</ns3:hr>
          </ns3:TrackPointExtension>
        </extensions>
      </trkpt>
      <trkpt lat="46.69689106754958629608154296875" lon="6.89256847836077213287353515625">
        <ele>709.20001220703125</ele>
        <time>2013-08-15T15:48:45.000Z</time>
        <extensions>
          <ns3:TrackPointExtension>
            <ns3:atemp>23.0</ns3:atemp>
            <ns3:hr>133</ns3:hr>
          </ns3:TrackPointExtension>
        </extensions>
      </trkpt>
      <trkpt lat="46.69684446416795253753662109375" lon="6.89254735596477985382080078125">
        <ele>709.4000244140625</ele>
        <time>2013-08-15T15:48:46.000Z</time>
        <extensions>
          <ns3:TrackPointExtension>
            <ns3:atemp>23.0</ns3:atemp>
            <ns3:hr>133</ns3:hr>
          </ns3:TrackPointExtension>
        </extensions>
      </trkpt>
      <trkpt lat="46.6967984475195407867431640625" lon="6.89252556301653385162353515625">
        <ele>709.5999755859375</ele>
        <time>2013-08-15T15:48:47.000Z</time>
        <extensions>
          <ns3:TrackPointExtension>
            <ns3:atemp>23.0</ns3:atemp>
            <ns3:hr>133</ns3:hr>
          </ns3:TrackPointExtension>
        </extensions>
      </trkpt>
      <trkpt lat="46.696753017604351043701171875" lon="6.89250293187797069549560546875">
        <ele>709.5999755859375</ele>
        <time>2013-08-15T15:48:48.000Z</time>
        <extensions>
          <ns3:TrackPointExtension>
            <ns3:atemp>23.0</ns3:atemp>
            <ns3:hr>133</ns3:hr>
          </ns3:TrackPointExtension>
        </extensions>
      </trkpt>
      <trkpt lat="46.696707420051097869873046875" lon="6.89248063601553440093994140625">
        <ele>709.79998779296875</ele>
        <time>2013-08-15T15:48:49.000Z</time>
        <extensions>
          <ns3:TrackPointExtension>
            <ns3:atemp>23.0</ns3:atemp>
            <ns3:hr>133</ns3:hr>
          </ns3:TrackPointExtension>
        </extensions>
      </trkpt>
      <trkpt lat="46.69666090048849582672119140625" lon="6.89245842397212982177734375">
        <ele>710</ele>
        <time>2013-08-15T15:48:50.000Z</time>
        <extensions>
          <ns3:TrackPointExtension>
            <ns3:atemp>23.0</ns3:atemp>
            <ns3:hr>134</ns3:hr>
          </ns3:TrackPointExtension>
        </extensions>
      </trkpt>
      <trkpt lat="46.696612536907196044921875" lon="6.89243621192872524261474609375">
        <ele>710.4000244140625</ele>
        <time>2013-08-15T15:48:51.000Z</time>
        <extensions>
          <ns3:TrackPointExtension>
            <ns3:atemp>23.0</ns3:atemp>
            <ns3:hr>133</ns3:hr>
          </ns3:TrackPointExtension>
        </extensions>
      </trkpt>
      <trkpt lat="46.6965627484023571014404296875" lon="6.892416179180145263671875">
        <ele>710.5999755859375</ele>
        <time>2013-08-15T15:48:52.000Z</time>
        <extensions>
          <ns3:TrackPointExtension>
            <ns3:atemp>23.0</ns3:atemp>
            <ns3:hr>133</ns3:hr>
          </ns3:TrackPointExtension>
        </extensions>
      </trkpt>
      <trkpt lat="46.69651472009718418121337890625" lon="6.8923891894519329071044921875">
        <ele>710.79998779296875</ele>
        <time>2013-08-15T15:48:53.000Z</time>
        <extensions>
          <ns3:TrackPointExtension>
            <ns3:atemp>23.0</ns3:atemp>
            <ns3:hr>133</ns3:hr>
          </ns3:TrackPointExtension>
        </extensions>
      </trkpt>
      <trkpt lat="46.6964688710868358612060546875" lon="6.89235557802021503448486328125">
        <ele>710.4000244140625</ele>
        <time>2013-08-15T15:48:54.000Z</time>
        <extensions>
          <ns3:TrackPointExtension>
            <ns3:atemp>23.0</ns3:atemp>
            <ns3:hr>133</ns3:hr>
          </ns3:TrackPointExtension>
        </extensions>
      </trkpt>
      <trkpt lat="46.69642453081905841827392578125" lon="6.89231987111270427703857421875">
        <ele>710.4000244140625</ele>
        <time>2013-08-15T15:48:55.000Z</time>
        <extensions>
          <ns3:TrackPointExtension>
            <ns3:atemp>23.0</ns3:atemp>
            <ns3:hr>133</ns3:hr>
          </ns3:TrackPointExtension>
        </extensions>
      </trkpt>
      <trkpt lat="46.69638128019869327545166015625" lon="6.89228299073874950408935546875">
        <ele>710.5999755859375</ele>
        <time>2013-08-15T15:48:56.000Z</time>
        <extensions>
          <ns3:TrackPointExtension>
            <ns3:atemp>23.0</ns3:atemp>
            <ns3:hr>133</ns3:hr>
          </ns3:TrackPointExtension>
        </extensions>
      </trkpt>
      <trkpt lat="46.69634389691054821014404296875" lon="6.89224116504192352294921875">
        <ele>710.5999755859375</ele>
        <time>2013-08-15T15:48:57.000Z</time>
        <extensions>
          <ns3:TrackPointExtension>
            <ns3:atemp>23.0</ns3:atemp>
            <ns3:hr>134</ns3:hr>
          </ns3:TrackPointExtension>
        </extensions>
      </trkpt>
      <trkpt lat="46.69630785472691059112548828125" lon="6.89219892024993896484375">
        <ele>710.79998779296875</ele>
        <time>2013-08-15T15:48:58.000Z</time>
        <extensions>
          <ns3:TrackPointExtension>
            <ns3:atemp>23.0</ns3:atemp>
            <ns3:hr>134</ns3:hr>
          </ns3:TrackPointExtension>
        </extensions>
      </trkpt>
      <trkpt lat="46.69627122581005096435546875" lon="6.8921558372676372528076171875">
        <ele>711</ele>
        <time>2013-08-15T15:48:59.000Z</time>
        <extensions>
          <ns3:TrackPointExtension>
            <ns3:atemp>23.0</ns3:atemp>
            <ns3:hr>134</ns3:hr>
          </ns3:TrackPointExtension>
        </extensions>
      </trkpt>
      <trkpt lat="46.69623593799769878387451171875" lon="6.89211384393274784088134765625">
        <ele>711</ele>
        <time>2013-08-15T15:49:00.000Z</time>
        <extensions>
          <ns3:TrackPointExtension>
            <ns3:atemp>23.0</ns3:atemp>
            <ns3:hr>134</ns3:hr>
          </ns3:TrackPointExtension>
        </extensions>
      </trkpt>
      <trkpt lat="46.69619671069085597991943359375" lon="6.89207629300653934478759765625">
        <ele>711.20001220703125</ele>
        <time>2013-08-15T15:49:01.000Z</time>
        <extensions>
          <ns3:TrackPointExtension>
            <ns3:atemp>23.0</ns3:atemp>
            <ns3:hr>135</ns3:hr>
          </ns3:TrackPointExtension>
        </extensions>
      </trkpt>
      <trkpt lat="46.696156561374664306640625" lon="6.89203706569969654083251953125">
        <ele>711.20001220703125</ele>
        <time>2013-08-15T15:49:02.000Z</time>
        <extensions>
          <ns3:TrackPointExtension>
            <ns3:atemp>23.0</ns3:atemp>
            <ns3:hr>135</ns3:hr>
          </ns3:TrackPointExtension>
        </extensions>
      </trkpt>
      <trkpt lat="46.69611708261072635650634765625" lon="6.8919969163835048675537109375">
        <ele>711.5999755859375</ele>
        <time>2013-08-15T15:49:03.000Z</time>
        <extensions>
          <ns3:TrackPointExtension>
            <ns3:atemp>23.0</ns3:atemp>
            <ns3:hr>135</ns3:hr>
          </ns3:TrackPointExtension>
        </extensions>
      </trkpt>
      <trkpt lat="46.6960762627422809600830078125" lon="6.8919546715915203094482421875">
        <ele>712</ele>
        <time>2013-08-15T15:49:04.000Z</time>
        <extensions>
          <ns3:TrackPointExtension>
            <ns3:atemp>23.0</ns3:atemp>
            <ns3:hr>136</ns3:hr>
          </ns3:TrackPointExtension>
        </extensions>
      </trkpt>
      <trkpt lat="46.69603711925446987152099609375" lon="6.8919124267995357513427734375">
        <ele>712.4000244140625</ele>
        <time>2013-08-15T15:49:05.000Z</time>
        <extensions>
          <ns3:TrackPointExtension>
            <ns3:atemp>23.0</ns3:atemp>
            <ns3:hr>136</ns3:hr>
          </ns3:TrackPointExtension>
        </extensions>
      </trkpt>
      <trkpt lat="46.69599856249988079071044921875" lon="6.89187177456915378570556640625">
        <ele>712.5999755859375</ele>
        <time>2013-08-15T15:49:06.000Z</time>
        <extensions>
          <ns3:TrackPointExtension>
            <ns3:atemp>23.0</ns3:atemp>
            <ns3:hr>137</ns3:hr>
          </ns3:TrackPointExtension>
        </extensions>
      </trkpt>
      <trkpt lat="46.6959599219262599945068359375" lon="6.89183338545262813568115234375">
        <ele>712.79998779296875</ele>
        <time>2013-08-15T15:49:07.000Z</time>
        <extensions>
          <ns3:TrackPointExtension>
            <ns3:atemp>23.0</ns3:atemp>
            <ns3:hr>137</ns3:hr>
          </ns3:TrackPointExtension>
        </extensions>
      </trkpt>
      <trkpt lat="46.69592027552425861358642578125" lon="6.891795583069324493408203125">
        <ele>712.79998779296875</ele>
        <time>2013-08-15T15:49:08.000Z</time>
        <extensions>
          <ns3:TrackPointExtension>
            <ns3:atemp>23.0</ns3:atemp>
            <ns3:hr>137</ns3:hr>
          </ns3:TrackPointExtension>
        </extensions>
      </trkpt>
      <trkpt lat="46.69588188640773296356201171875" lon="6.8917565234005451202392578125">
        <ele>713</ele>
        <time>2013-08-15T15:49:09.000Z</time>
        <extensions>
          <ns3:TrackPointExtension>
            <ns3:atemp>23.0</ns3:atemp>
            <ns3:hr>138</ns3:hr>
          </ns3:TrackPointExtension>
        </extensions>
      </trkpt>
      <trkpt lat="46.69584534130990505218505859375" lon="6.89171587117016315460205078125">
        <ele>713</ele>
        <time>2013-08-15T15:49:10.000Z</time>
        <extensions>
          <ns3:TrackPointExtension>
            <ns3:atemp>23.0</ns3:atemp>
            <ns3:hr>138</ns3:hr>
          </ns3:TrackPointExtension>
        </extensions>
      </trkpt>
      <trkpt lat="46.69580544345080852508544921875" lon="6.8916780687868595123291015625">
        <ele>713</ele>
        <time>2013-08-15T15:49:11.000Z</time>
        <extensions>
          <ns3:TrackPointExtension>
            <ns3:atemp>23.0</ns3:atemp>
            <ns3:hr>138</ns3:hr>
          </ns3:TrackPointExtension>
        </extensions>
      </trkpt>
      <trkpt lat="46.69576428830623626708984375" lon="6.89163993112742900848388671875">
        <ele>713</ele>
        <time>2013-08-15T15:49:12.000Z</time>
        <extensions>
          <ns3:TrackPointExtension>
            <ns3:atemp>23.0</ns3:atemp>
            <ns3:hr>139</ns3:hr>
          </ns3:TrackPointExtension>
        </extensions>
      </trkpt>
      <trkpt lat="46.695723719894886016845703125" lon="6.89159953035414218902587890625">
        <ele>713.4000244140625</ele>
        <time>2013-08-15T15:49:13.000Z</time>
        <extensions>
          <ns3:TrackPointExtension>
            <ns3:atemp>23.0</ns3:atemp>
            <ns3:hr>139</ns3:hr>
          </ns3:TrackPointExtension>
        </extensions>
      </trkpt>
      <trkpt lat="46.6956826485693454742431640625" lon="6.89155695028603076934814453125">
        <ele>713.5999755859375</ele>
        <time>2013-08-15T15:49:14.000Z</time>
        <extensions>
          <ns3:TrackPointExtension>
            <ns3:atemp>23.0</ns3:atemp>
            <ns3:hr>139</ns3:hr>
          </ns3:TrackPointExtension>
        </extensions>
      </trkpt>
      <trkpt lat="46.69564090669155120849609375" lon="6.89151772297918796539306640625">
        <ele>713.79998779296875</ele>
        <time>2013-08-15T15:49:15.000Z</time>
        <extensions>
          <ns3:TrackPointExtension>
            <ns3:atemp>23.0</ns3:atemp>
            <ns3:hr>139</ns3:hr>
          </ns3:TrackPointExtension>
        </extensions>
      </trkpt>
      <trkpt lat="46.69559975154697895050048828125" lon="6.89147816039621829986572265625">
        <ele>713.79998779296875</ele>
        <time>2013-08-15T15:49:16.000Z</time>
        <extensions>
          <ns3:TrackPointExtension>
            <ns3:atemp>23.0</ns3:atemp>
            <ns3:hr>138</ns3:hr>
          </ns3:TrackPointExtension>
        </extensions>
      </trkpt>
      <trkpt lat="46.69555750675499439239501953125" lon="6.8914385139942169189453125">
        <ele>714</ele>
        <time>2013-08-15T15:49:17.000Z</time>
        <extensions>
          <ns3:TrackPointExtension>
            <ns3:atemp>23.0</ns3:atemp>
            <ns3:hr>138</ns3:hr>
          </ns3:TrackPointExtension>
        </extensions>
      </trkpt>
      <trkpt lat="46.69551475904881954193115234375" lon="6.8913997896015644073486328125">
        <ele>714</ele>
        <time>2013-08-15T15:49:18.000Z</time>
        <extensions>
          <ns3:TrackPointExtension>
            <ns3:atemp>23.0</ns3:atemp>
            <ns3:hr>138</ns3:hr>
          </ns3:TrackPointExtension>
        </extensions>
      </trkpt>
      <trkpt lat="46.69547352008521556854248046875" lon="6.89136265777051448822021484375">
        <ele>714.20001220703125</ele>
        <time>2013-08-15T15:49:19.000Z</time>
        <extensions>
          <ns3:TrackPointExtension>
            <ns3:atemp>23.0</ns3:atemp>
            <ns3:hr>138</ns3:hr>
          </ns3:TrackPointExtension>
        </extensions>
      </trkpt>
      <trkpt lat="46.69542968273162841796875" lon="6.89132653176784515380859375">
        <ele>714.20001220703125</ele>
        <time>2013-08-15T15:49:20.000Z</time>
        <extensions>
          <ns3:TrackPointExtension>
            <ns3:atemp>23.0</ns3:atemp>
            <ns3:hr>138</ns3:hr>
          </ns3:TrackPointExtension>
        </extensions>
      </trkpt>
      <trkpt lat="46.6953852586448192596435546875" lon="6.89129191450774669647216796875">
        <ele>714.4000244140625</ele>
        <time>2013-08-15T15:49:21.000Z</time>
        <extensions>
          <ns3:TrackPointExtension>
            <ns3:atemp>23.0</ns3:atemp>
            <ns3:hr>138</ns3:hr>
          </ns3:TrackPointExtension>
        </extensions>
      </trkpt>
      <trkpt lat="46.69534049928188323974609375" lon="6.8912542797625064849853515625">
        <ele>714.4000244140625</ele>
        <time>2013-08-15T15:49:22.000Z</time>
        <extensions>
          <ns3:TrackPointExtension>
            <ns3:atemp>23.0</ns3:atemp>
            <ns3:hr>138</ns3:hr>
          </ns3:TrackPointExtension>
        </extensions>
      </trkpt>
      <trkpt lat="46.69529515318572521209716796875" lon="6.891215555369853973388671875">
        <ele>714.79998779296875</ele>
        <time>2013-08-15T15:49:23.000Z</time>
        <extensions>
          <ns3:TrackPointExtension>
            <ns3:atemp>23.0</ns3:atemp>
            <ns3:hr>138</ns3:hr>
          </ns3:TrackPointExtension>
        </extensions>
      </trkpt>
      <trkpt lat="46.69525064527988433837890625" lon="6.8911754898726940155029296875">
        <ele>714.79998779296875</ele>
        <time>2013-08-15T15:49:24.000Z</time>
        <extensions>
          <ns3:TrackPointExtension>
            <ns3:atemp>23.0</ns3:atemp>
            <ns3:hr>138</ns3:hr>
          </ns3:TrackPointExtension>
        </extensions>
      </trkpt>
      <trkpt lat="46.69520496390759944915771484375" lon="6.891129054129123687744140625">
        <ele>714.5999755859375</ele>
        <time>2013-08-15T15:49:25.000Z</time>
        <extensions>
          <ns3:TrackPointExtension>
            <ns3:atemp>23.0</ns3:atemp>
            <ns3:hr>138</ns3:hr>
          </ns3:TrackPointExtension>
        </extensions>
      </trkpt>
      <trkpt lat="46.6951606236398220062255859375" lon="6.8910790979862213134765625">
        <ele>714.5999755859375</ele>
        <time>2013-08-15T15:49:26.000Z</time>
        <extensions>
          <ns3:TrackPointExtension>
            <ns3:atemp>23.0</ns3:atemp>
            <ns3:hr>138</ns3:hr>
          </ns3:TrackPointExtension>
        </extensions>
      </trkpt>
      <trkpt lat="46.69511661864817142486572265625" lon="6.89103609882295131683349609375">
        <ele>714.5999755859375</ele>
        <time>2013-08-15T15:49:27.000Z</time>
        <extensions>
          <ns3:TrackPointExtension>
            <ns3:atemp>23.0</ns3:atemp>
            <ns3:hr>137</ns3:hr>
          </ns3:TrackPointExtension>
        </extensions>
      </trkpt>
      <trkpt lat="46.69507018290460109710693359375" lon="6.8909927643835544586181640625">
        <ele>714.79998779296875</ele>
        <time>2013-08-15T15:49:28.000Z</time>
        <extensions>
          <ns3:TrackPointExtension>
            <ns3:atemp>23.0</ns3:atemp>
            <ns3:hr>138</ns3:hr>
          </ns3:TrackPointExtension>
        </extensions>
      </trkpt>
      <trkpt lat="46.69502475298941135406494140625" lon="6.89094834029674530029296875">
        <ele>714.79998779296875</ele>
        <time>2013-08-15T15:49:29.000Z</time>
        <extensions>
          <ns3:TrackPointExtension>
            <ns3:atemp>23.0</ns3:atemp>
            <ns3:hr>137</ns3:hr>
          </ns3:TrackPointExtension>
        </extensions>
      </trkpt>
      <trkpt lat="46.69497999362647533416748046875" lon="6.890902407467365264892578125">
        <ele>714.79998779296875</ele>
        <time>2013-08-15T15:49:30.000Z</time>
        <extensions>
          <ns3:TrackPointExtension>
            <ns3:atemp>23.0</ns3:atemp>
            <ns3:hr>137</ns3:hr>
          </ns3:TrackPointExtension>
        </extensions>
      </trkpt>
      <trkpt lat="46.69493523426353931427001953125" lon="6.8908566422760486602783203125">
        <ele>715</ele>
        <time>2013-08-15T15:49:31.000Z</time>
        <extensions>
          <ns3:TrackPointExtension>
            <ns3:atemp>23.0</ns3:atemp>
            <ns3:hr>137</ns3:hr>
          </ns3:TrackPointExtension>
        </extensions>
      </trkpt>
      <trkpt lat="46.69488946907222270965576171875" lon="6.8908097036182880401611328125">
        <ele>715.20001220703125</ele>
        <time>2013-08-15T15:49:32.000Z</time>
        <extensions>
          <ns3:TrackPointExtension>
            <ns3:atemp>23.0</ns3:atemp>
            <ns3:hr>137</ns3:hr>
          </ns3:TrackPointExtension>
        </extensions>
      </trkpt>
      <trkpt lat="46.69484068639576435089111328125" lon="6.890764944255352020263671875">
        <ele>715.5999755859375</ele>
        <time>2013-08-15T15:49:33.000Z</time>
        <extensions>
          <ns3:TrackPointExtension>
            <ns3:atemp>23.0</ns3:atemp>
            <ns3:hr>137</ns3:hr>
          </ns3:TrackPointExtension>
        </extensions>
      </trkpt>
      <trkpt lat="46.6947901435196399688720703125" lon="6.8907188437879085540771484375">
        <ele>715</ele>
        <time>2013-08-15T15:49:34.000Z</time>
        <extensions>
          <ns3:TrackPointExtension>
            <ns3:atemp>23.0</ns3:atemp>
            <ns3:hr>137</ns3:hr>
          </ns3:TrackPointExtension>
        </extensions>
      </trkpt>
      <trkpt lat="46.694741360843181610107421875" lon="6.89066964201629161834716796875">
        <ele>715</ele>
        <time>2013-08-15T15:49:35.000Z</time>
        <extensions>
          <ns3:TrackPointExtension>
            <ns3:atemp>23.0</ns3:atemp>
            <ns3:hr>136</ns3:hr>
          </ns3:TrackPointExtension>
        </extensions>
      </trkpt>
      <trkpt lat="46.69469215907156467437744140625" lon="6.8906219489872455596923828125">
        <ele>714.79998779296875</ele>
        <time>2013-08-15T15:49:36.000Z</time>
        <extensions>
          <ns3:TrackPointExtension>
            <ns3:atemp>23.0</ns3:atemp>
            <ns3:hr>136</ns3:hr>
          </ns3:TrackPointExtension>
        </extensions>
      </trkpt>
      <trkpt lat="46.6946426220238208770751953125" lon="6.89057291485369205474853515625">
        <ele>715.20001220703125</ele>
        <time>2013-08-15T15:49:37.000Z</time>
        <extensions>
          <ns3:TrackPointExtension>
            <ns3:atemp>23.0</ns3:atemp>
            <ns3:hr>136</ns3:hr>
          </ns3:TrackPointExtension>
        </extensions>
      </trkpt>
      <trkpt lat="46.69459325261414051055908203125" lon="6.890518181025981903076171875">
        <ele>715.20001220703125</ele>
        <time>2013-08-15T15:49:38.000Z</time>
        <extensions>
          <ns3:TrackPointExtension>
            <ns3:atemp>23.0</ns3:atemp>
            <ns3:hr>135</ns3:hr>
          </ns3:TrackPointExtension>
        </extensions>
      </trkpt>
      <trkpt lat="46.69454597868025302886962890625" lon="6.8904657103121280670166015625">
        <ele>715</ele>
        <time>2013-08-15T15:49:39.000Z</time>
        <extensions>
          <ns3:TrackPointExtension>
            <ns3:atemp>23.0</ns3:atemp>
            <ns3:hr>135</ns3:hr>
          </ns3:TrackPointExtension>
        </extensions>
      </trkpt>
      <trkpt lat="46.69450021348893642425537109375" lon="6.890412233769893646240234375">
        <ele>714.5999755859375</ele>
        <time>2013-08-15T15:49:40.000Z</time>
        <extensions>
          <ns3:TrackPointExtension>
            <ns3:atemp>23.0</ns3:atemp>
            <ns3:hr>134</ns3:hr>
          </ns3:TrackPointExtension>
        </extensions>
      </trkpt>
      <trkpt lat="46.6944545321166515350341796875" lon="6.890357248485088348388671875">
        <ele>714.79998779296875</ele>
        <time>2013-08-15T15:49:41.000Z</time>
        <extensions>
          <ns3:TrackPointExtension>
            <ns3:atemp>23.0</ns3:atemp>
            <ns3:hr>134</ns3:hr>
          </ns3:TrackPointExtension>
        </extensions>
      </trkpt>
      <trkpt lat="46.69440717436373233795166015625" lon="6.89030217938125133514404296875">
        <ele>714.4000244140625</ele>
        <time>2013-08-15T15:49:42.000Z</time>
        <extensions>
          <ns3:TrackPointExtension>
            <ns3:atemp>23.0</ns3:atemp>
            <ns3:hr>133</ns3:hr>
          </ns3:TrackPointExtension>
        </extensions>
      </trkpt>
      <trkpt lat="46.69435746967792510986328125" lon="6.89024501480162143707275390625">
        <ele>714</ele>
        <time>2013-08-15T15:49:43.000Z</time>
        <extensions>
          <ns3:TrackPointExtension>
            <ns3:atemp>23.0</ns3:atemp>
            <ns3:hr>133</ns3:hr>
          </ns3:TrackPointExtension>
        </extensions>
      </trkpt>
      <trkpt lat="46.6943063400685787200927734375" lon="6.890188269317150115966796875">
        <ele>713.5999755859375</ele>
        <time>2013-08-15T15:49:44.000Z</time>
        <extensions>
          <ns3:TrackPointExtension>
            <ns3:atemp>23.0</ns3:atemp>
            <ns3:hr>132</ns3:hr>
          </ns3:TrackPointExtension>
        </extensions>
      </trkpt>
      <trkpt lat="46.69425152242183685302734375" lon="6.8901327811181545257568359375">
        <ele>713.79998779296875</ele>
        <time>2013-08-15T15:49:45.000Z</time>
        <extensions>
          <ns3:TrackPointExtension>
            <ns3:atemp>23.0</ns3:atemp>
            <ns3:hr>132</ns3:hr>
          </ns3:TrackPointExtension>
        </extensions>
      </trkpt>
      <trkpt lat="46.6941899992525577545166015625" lon="6.8900881893932819366455078125">
        <ele>713.79998779296875</ele>
        <time>2013-08-15T15:49:46.000Z</time>
        <extensions>
          <ns3:TrackPointExtension>
            <ns3:atemp>23.0</ns3:atemp>
            <ns3:hr>131</ns3:hr>
          </ns3:TrackPointExtension>
        </extensions>
      </trkpt>
      <trkpt lat="46.6941246204078197479248046875" lon="6.890058182179927825927734375">
        <ele>713.5999755859375</ele>
        <time>2013-08-15T15:49:47.000Z</time>
        <extensions>
          <ns3:TrackPointExtension>
            <ns3:atemp>23.0</ns3:atemp>
            <ns3:hr>130</ns3:hr>
          </ns3:TrackPointExtension>
        </extensions>
      </trkpt>
      <trkpt lat="46.69405731372535228729248046875" lon="6.8900576792657375335693359375">
        <ele>713</ele>
        <time>2013-08-15T15:49:48.000Z</time>
        <extensions>
          <ns3:TrackPointExtension>
            <ns3:atemp>23.0</ns3:atemp>
            <ns3:hr>129</ns3:hr>
          </ns3:TrackPointExtension>
        </extensions>
      </trkpt>
      <trkpt lat="46.69398606754839420318603515625" lon="6.89007796347141265869140625">
        <ele>712.5999755859375</ele>
        <time>2013-08-15T15:49:49.000Z</time>
        <extensions>
          <ns3:TrackPointExtension>
            <ns3:atemp>23.0</ns3:atemp>
            <ns3:hr>129</ns3:hr>
          </ns3:TrackPointExtension>
        </extensions>
      </trkpt>
      <trkpt lat="46.6939236223697662353515625" lon="6.8901223875582218170166015625">
        <ele>712.20001220703125</ele>
        <time>2013-08-15T15:49:50.000Z</time>
        <extensions>
          <ns3:TrackPointExtension>
            <ns3:atemp>23.0</ns3:atemp>
            <ns3:hr>128</ns3:hr>
          </ns3:TrackPointExtension>
        </extensions>
      </trkpt>
      <trkpt lat="46.693866960704326629638671875" lon="6.890165470540523529052734375">
        <ele>712</ele>
        <time>2013-08-15T15:49:51.000Z</time>
        <extensions>
          <ns3:TrackPointExtension>
            <ns3:atemp>23.0</ns3:atemp>
            <ns3:hr>127</ns3:hr>
          </ns3:TrackPointExtension>
        </extensions>
      </trkpt>
      <trkpt lat="46.69380954466760158538818359375" lon="6.8901993334293365478515625">
        <ele>711.20001220703125</ele>
        <time>2013-08-15T15:49:52.000Z</time>
        <extensions>
          <ns3:TrackPointExtension>
            <ns3:atemp>23.0</ns3:atemp>
            <ns3:hr>126</ns3:hr>
          </ns3:TrackPointExtension>
        </extensions>
      </trkpt>
      <trkpt lat="46.69374383054673671722412109375" lon="6.89020134508609771728515625">
        <ele>710.4000244140625</ele>
        <time>2013-08-15T15:49:53.000Z</time>
        <extensions>
          <ns3:TrackPointExtension>
            <ns3:atemp>22.0</ns3:atemp>
            <ns3:hr>126</ns3:hr>
          </ns3:TrackPointExtension>
        </extensions>
      </trkpt>
      <trkpt lat="46.693675182759761810302734375" lon="6.8901886045932769775390625">
        <ele>709.5999755859375</ele>
        <time>2013-08-15T15:49:54.000Z</time>
        <extensions>
          <ns3:TrackPointExtension>
            <ns3:atemp>22.0</ns3:atemp>
            <ns3:hr>125</ns3:hr>
          </ns3:TrackPointExtension>
        </extensions>
      </trkpt>
      <trkpt lat="46.69360687024891376495361328125" lon="6.89016169868409633636474609375">
        <ele>709</ele>
        <time>2013-08-15T15:49:55.000Z</time>
        <extensions>
          <ns3:TrackPointExtension>
            <ns3:atemp>22.0</ns3:atemp>
            <ns3:hr>124</ns3:hr>
          </ns3:TrackPointExtension>
        </extensions>
      </trkpt>
      <trkpt lat="46.69353864155709743499755859375" lon="6.89012825489044189453125">
        <ele>708.20001220703125</ele>
        <time>2013-08-15T15:49:56.000Z</time>
        <extensions>
          <ns3:TrackPointExtension>
            <ns3:atemp>22.0</ns3:atemp>
            <ns3:hr>124</ns3:hr>
          </ns3:TrackPointExtension>
        </extensions>
      </trkpt>
      <trkpt lat="46.69347275979816913604736328125" lon="6.89009849913418292999267578125">
        <ele>707.79998779296875</ele>
        <time>2013-08-15T15:49:57.000Z</time>
        <extensions>
          <ns3:TrackPointExtension>
            <ns3:atemp>22.0</ns3:atemp>
            <ns3:hr>123</ns3:hr>
          </ns3:TrackPointExtension>
        </extensions>
      </trkpt>
      <trkpt lat="46.69340805150568485260009765625" lon="6.89007301814854145050048828125">
        <ele>707.5999755859375</ele>
        <time>2013-08-15T15:49:58.000Z</time>
        <extensions>
          <ns3:TrackPointExtension>
            <ns3:atemp>22.0</ns3:atemp>
            <ns3:hr>122</ns3:hr>
          </ns3:TrackPointExtension>
        </extensions>
      </trkpt>
      <trkpt lat="46.69334091246128082275390625" lon="6.8900321982800960540771484375">
        <ele>707</ele>
        <time>2013-08-15T15:49:59.000Z</time>
        <extensions>
          <ns3:TrackPointExtension>
            <ns3:atemp>22.0</ns3:atemp>
            <ns3:hr>121</ns3:hr>
          </ns3:TrackPointExtension>
        </extensions>
      </trkpt>
      <trkpt lat="46.69327913783490657806396484375" lon="6.88998584635555744171142578125">
        <ele>705.79998779296875</ele>
        <time>2013-08-15T15:50:00.000Z</time>
        <extensions>
          <ns3:TrackPointExtension>
            <ns3:atemp>22.0</ns3:atemp>
            <ns3:hr>121</ns3:hr>
          </ns3:TrackPointExtension>
        </extensions>
      </trkpt>
      <trkpt lat="46.69322155416011810302734375" lon="6.889932788908481597900390625">
        <ele>704.5999755859375</ele>
        <time>2013-08-15T15:50:01.000Z</time>
        <extensions>
          <ns3:TrackPointExtension>
            <ns3:atemp>22.0</ns3:atemp>
            <ns3:hr>120</ns3:hr>
          </ns3:TrackPointExtension>
        </extensions>
      </trkpt>
      <trkpt lat="46.69315743260085582733154296875" lon="6.8898828327655792236328125">
        <ele>703.79998779296875</ele>
        <time>2013-08-15T15:50:02.000Z</time>
        <extensions>
          <ns3:TrackPointExtension>
            <ns3:atemp>22.0</ns3:atemp>
            <ns3:hr>119</ns3:hr>
          </ns3:TrackPointExtension>
        </extensions>
      </trkpt>
      <trkpt lat="46.6930787265300750732421875" lon="6.8898506462574005126953125">
        <ele>703.4000244140625</ele>
        <time>2013-08-15T15:50:03.000Z</time>
        <extensions>
          <ns3:TrackPointExtension>
            <ns3:atemp>22.0</ns3:atemp>
            <ns3:hr>118</ns3:hr>
          </ns3:TrackPointExtension>
        </extensions>
      </trkpt>
      <trkpt lat="46.692988537251949310302734375" lon="6.88982340507209300994873046875">
        <ele>702.79998779296875</ele>
        <time>2013-08-15T15:50:04.000Z</time>
        <extensions>
          <ns3:TrackPointExtension>
            <ns3:atemp>22.0</ns3:atemp>
            <ns3:hr>118</ns3:hr>
          </ns3:TrackPointExtension>
        </extensions>
      </trkpt>
      <trkpt lat="46.6928909718990325927734375" lon="6.88979943282902240753173828125">
        <ele>702.20001220703125</ele>
        <time>2013-08-15T15:50:05.000Z</time>
        <extensions>
          <ns3:TrackPointExtension>
            <ns3:atemp>22.0</ns3:atemp>
            <ns3:hr>117</ns3:hr>
          </ns3:TrackPointExtension>
        </extensions>
      </trkpt>
      <trkpt lat="46.69279131107032299041748046875" lon="6.88978166319429874420166015625">
        <ele>701.4000244140625</ele>
        <time>2013-08-15T15:50:06.000Z</time>
        <extensions>
          <ns3:TrackPointExtension>
            <ns3:atemp>22.0</ns3:atemp>
            <ns3:hr>116</ns3:hr>
          </ns3:TrackPointExtension>
        </extensions>
      </trkpt>
      <trkpt lat="46.6926889680325984954833984375" lon="6.88976272009313106536865234375">
        <ele>699.79998779296875</ele>
        <time>2013-08-15T15:50:07.000Z</time>
        <extensions>
          <ns3:TrackPointExtension>
            <ns3:atemp>22.0</ns3:atemp>
            <ns3:hr>116</ns3:hr>
          </ns3:TrackPointExtension>
        </extensions>
      </trkpt>
      <trkpt lat="46.692606993019580841064453125" lon="6.8897418491542339324951171875">
        <ele>697.79998779296875</ele>
        <time>2013-08-15T15:50:08.000Z</time>
        <extensions>
          <ns3:TrackPointExtension>
            <ns3:atemp>22.0</ns3:atemp>
            <ns3:hr>115</ns3:hr>
          </ns3:TrackPointExtension>
        </extensions>
      </trkpt>
      <trkpt lat="46.69253381900489330291748046875" lon="6.8897284381091594696044921875">
        <ele>695</ele>
        <time>2013-08-15T15:50:09.000Z</time>
        <extensions>
          <ns3:TrackPointExtension>
            <ns3:atemp>22.0</ns3:atemp>
            <ns3:hr>114</ns3:hr>
          </ns3:TrackPointExtension>
        </extensions>
      </trkpt>
      <trkpt lat="46.69246793724596500396728515625" lon="6.88974863849580287933349609375">
        <ele>692.4000244140625</ele>
        <time>2013-08-15T15:50:10.000Z</time>
        <extensions>
          <ns3:TrackPointExtension>
            <ns3:atemp>22.0</ns3:atemp>
            <ns3:hr>112</ns3:hr>
          </ns3:TrackPointExtension>
        </extensions>
      </trkpt>
      <trkpt lat="46.6924066655337810516357421875" lon="6.8898078985512256622314453125">
        <ele>690.20001220703125</ele>
        <time>2013-08-15T15:50:11.000Z</time>
        <extensions>
          <ns3:TrackPointExtension>
            <ns3:atemp>22.0</ns3:atemp>
            <ns3:hr>112</ns3:hr>
          </ns3:TrackPointExtension>
        </extensions>
      </trkpt>
      <trkpt lat="46.6923711262643337249755859375" lon="6.88989347778260707855224609375">
        <ele>689</ele>
        <time>2013-08-15T15:50:12.000Z</time>
        <extensions>
          <ns3:TrackPointExtension>
            <ns3:atemp>22.0</ns3:atemp>
            <ns3:hr>110</ns3:hr>
          </ns3:TrackPointExtension>
        </extensions>
      </trkpt>
      <trkpt lat="46.69234723784029483795166015625" lon="6.88997645862400531768798828125">
        <ele>688.4000244140625</ele>
        <time>2013-08-15T15:50:13.000Z</time>
        <extensions>
          <ns3:TrackPointExtension>
            <ns3:atemp>22.0</ns3:atemp>
            <ns3:hr>110</ns3:hr>
          </ns3:TrackPointExtension>
        </extensions>
      </trkpt>
      <trkpt lat="46.69232343323528766632080078125" lon="6.89007301814854145050048828125">
        <ele>688.4000244140625</ele>
        <time>2013-08-15T15:50:14.000Z</time>
        <extensions>
          <ns3:TrackPointExtension>
            <ns3:atemp>22.0</ns3:atemp>
            <ns3:hr>110</ns3:hr>
          </ns3:TrackPointExtension>
        </extensions>
      </trkpt>
      <trkpt lat="46.69232108630239963531494140625" lon="6.8902105651795864105224609375">
        <ele>688.5999755859375</ele>
        <time>2013-08-15T15:50:15.000Z</time>
        <extensions>
          <ns3:TrackPointExtension>
            <ns3:atemp>22.0</ns3:atemp>
            <ns3:hr>110</ns3:hr>
          </ns3:TrackPointExtension>
        </extensions>
      </trkpt>
      <trkpt lat="46.69232527725398540496826171875" lon="6.89035230316221714019775390625">
        <ele>688.79998779296875</ele>
        <time>2013-08-15T15:50:16.000Z</time>
        <extensions>
          <ns3:TrackPointExtension>
            <ns3:atemp>22.0</ns3:atemp>
            <ns3:hr>111</ns3:hr>
          </ns3:TrackPointExtension>
        </extensions>
      </trkpt>
      <trkpt lat="46.69233500026166439056396484375" lon="6.89048808999359607696533203125">
        <ele>688.79998779296875</ele>
        <time>2013-08-15T15:50:17.000Z</time>
        <extensions>
          <ns3:TrackPointExtension>
            <ns3:atemp>22.0</ns3:atemp>
            <ns3:hr>111</ns3:hr>
          </ns3:TrackPointExtension>
        </extensions>
      </trkpt>
      <trkpt lat="46.69235059060156345367431640625" lon="6.8906204402446746826171875">
        <ele>688.5999755859375</ele>
        <time>2013-08-15T15:50:18.000Z</time>
        <extensions>
          <ns3:TrackPointExtension>
            <ns3:atemp>22.0</ns3:atemp>
            <ns3:hr>111</ns3:hr>
          </ns3:TrackPointExtension>
        </extensions>
      </trkpt>
      <trkpt lat="46.69237389229238033294677734375" lon="6.89075128175318241119384765625">
        <ele>688.20001220703125</ele>
        <time>2013-08-15T15:50:19.000Z</time>
        <extensions>
          <ns3:TrackPointExtension>
            <ns3:atemp>22.0</ns3:atemp>
            <ns3:hr>112</ns3:hr>
          </ns3:TrackPointExtension>
        </extensions>
      </trkpt>
      <trkpt lat="46.69240373186767101287841796875" lon="6.89087466336786746978759765625">
        <ele>688.20001220703125</ele>
        <time>2013-08-15T15:50:20.000Z</time>
        <extensions>
          <ns3:TrackPointExtension>
            <ns3:atemp>22.0</ns3:atemp>
            <ns3:hr>111</ns3:hr>
          </ns3:TrackPointExtension>
        </extensions>
      </trkpt>
      <trkpt lat="46.69243357144296169281005859375" lon="6.89098815433681011199951171875">
        <ele>686.79998779296875</ele>
        <time>2013-08-15T15:50:21.000Z</time>
        <extensions>
          <ns3:TrackPointExtension>
            <ns3:atemp>22.0</ns3:atemp>
            <ns3:hr>111</ns3:hr>
          </ns3:TrackPointExtension>
        </extensions>
      </trkpt>
      <trkpt lat="46.6924643330276012420654296875" lon="6.8910896591842174530029296875">
        <ele>685.4000244140625</ele>
        <time>2013-08-15T15:50:22.000Z</time>
        <extensions>
          <ns3:TrackPointExtension>
            <ns3:atemp>22.0</ns3:atemp>
            <ns3:hr>110</ns3:hr>
          </ns3:TrackPointExtension>
        </extensions>
      </trkpt>
      <trkpt lat="46.69246978126466274261474609375" lon="6.89119049347937107086181640625">
        <ele>684</ele>
        <time>2013-08-15T15:50:23.000Z</time>
        <extensions>
          <ns3:TrackPointExtension>
            <ns3:atemp>22.0</ns3:atemp>
            <ns3:hr>109</ns3:hr>
          </ns3:TrackPointExtension>
        </extensions>
      </trkpt>
      <trkpt lat="46.69243843294680118560791015625" lon="6.89128629863262176513671875">
        <ele>683</ele>
        <time>2013-08-15T15:50:24.000Z</time>
        <extensions>
          <ns3:TrackPointExtension>
            <ns3:atemp>22.0</ns3:atemp>
            <ns3:hr>108</ns3:hr>
          </ns3:TrackPointExtension>
        </extensions>
      </trkpt>
      <trkpt lat="46.6923781670629978179931640625" lon="6.89135779626667499542236328125">
        <ele>682</ele>
        <time>2013-08-15T15:50:25.000Z</time>
        <extensions>
          <ns3:TrackPointExtension>
            <ns3:atemp>22.0</ns3:atemp>
            <ns3:hr>107</ns3:hr>
          </ns3:TrackPointExtension>
        </extensions>
      </trkpt>
      <trkpt lat="46.69229057617485523223876953125" lon="6.89139802940189838409423828125">
        <ele>681</ele>
        <time>2013-08-15T15:50:26.000Z</time>
        <extensions>
          <ns3:TrackPointExtension>
            <ns3:atemp>22.0</ns3:atemp>
            <ns3:hr>106</ns3:hr>
          </ns3:TrackPointExtension>
        </extensions>
      </trkpt>
      <trkpt lat="46.69219066388905048370361328125" lon="6.8914420343935489654541015625">
        <ele>680</ele>
        <time>2013-08-15T15:50:27.000Z</time>
        <extensions>
          <ns3:TrackPointExtension>
            <ns3:atemp>22.0</ns3:atemp>
            <ns3:hr>106</ns3:hr>
          </ns3:TrackPointExtension>
        </extensions>
      </trkpt>
      <trkpt lat="46.69207901693880558013916015625" lon="6.89148922450840473175048828125">
        <ele>678.79998779296875</ele>
        <time>2013-08-15T15:50:28.000Z</time>
        <extensions>
          <ns3:TrackPointExtension>
            <ns3:atemp>22.0</ns3:atemp>
            <ns3:hr>105</ns3:hr>
          </ns3:TrackPointExtension>
        </extensions>
      </trkpt>
      <trkpt lat="46.69196653179824352264404296875" lon="6.89154152758419513702392578125">
        <ele>677.79998779296875</ele>
        <time>2013-08-15T15:50:29.000Z</time>
        <extensions>
          <ns3:TrackPointExtension>
            <ns3:atemp>22.0</ns3:atemp>
            <ns3:hr>105</ns3:hr>
          </ns3:TrackPointExtension>
        </extensions>
      </trkpt>
      <trkpt lat="46.69185102917253971099853515625" lon="6.89160690642893314361572265625">
        <ele>676.79998779296875</ele>
        <time>2013-08-15T15:50:30.000Z</time>
        <extensions>
          <ns3:TrackPointExtension>
            <ns3:atemp>22.0</ns3:atemp>
            <ns3:hr>104</ns3:hr>
          </ns3:TrackPointExtension>
        </extensions>
      </trkpt>
      <trkpt lat="46.691730581223964691162109375" lon="6.89167630858719348907470703125">
        <ele>676</ele>
        <time>2013-08-15T15:50:31.000Z</time>
        <extensions>
          <ns3:TrackPointExtension>
            <ns3:atemp>22.0</ns3:atemp>
            <ns3:hr>103</ns3:hr>
          </ns3:TrackPointExtension>
        </extensions>
      </trkpt>
      <trkpt lat="46.69160946272313594818115234375" lon="6.8917457945644855499267578125">
        <ele>674.5999755859375</ele>
        <time>2013-08-15T15:50:32.000Z</time>
        <extensions>
          <ns3:TrackPointExtension>
            <ns3:atemp>22.0</ns3:atemp>
            <ns3:hr>102</ns3:hr>
          </ns3:TrackPointExtension>
        </extensions>
      </trkpt>
      <trkpt lat="46.6914947144687175750732421875" lon="6.8918059766292572021484375">
        <ele>672.79998779296875</ele>
        <time>2013-08-15T15:50:33.000Z</time>
        <extensions>
          <ns3:TrackPointExtension>
            <ns3:atemp>22.0</ns3:atemp>
            <ns3:hr>102</ns3:hr>
          </ns3:TrackPointExtension>
        </extensions>
      </trkpt>
      <trkpt lat="46.691392958164215087890625" lon="6.8918557651340961456298828125">
        <ele>670.4000244140625</ele>
        <time>2013-08-15T15:50:34.000Z</time>
        <extensions>
          <ns3:TrackPointExtension>
            <ns3:atemp>22.0</ns3:atemp>
            <ns3:hr>101</ns3:hr>
          </ns3:TrackPointExtension>
        </extensions>
      </trkpt>
      <trkpt lat="46.6913044452667236328125" lon="6.89190563745796680450439453125">
        <ele>668.20001220703125</ele>
        <time>2013-08-15T15:50:35.000Z</time>
        <extensions>
          <ns3:TrackPointExtension>
            <ns3:atemp>22.0</ns3:atemp>
            <ns3:hr>100</ns3:hr>
          </ns3:TrackPointExtension>
        </extensions>
      </trkpt>
      <trkpt lat="46.69122288934886455535888671875" lon="6.891949139535427093505859375">
        <ele>666.20001220703125</ele>
        <time>2013-08-15T15:50:36.000Z</time>
        <extensions>
          <ns3:TrackPointExtension>
            <ns3:atemp>22.0</ns3:atemp>
            <ns3:hr>99</ns3:hr>
          </ns3:TrackPointExtension>
        </extensions>
      </trkpt>
      <trkpt lat="46.69114686548709869384765625" lon="6.89196364022791385650634765625">
        <ele>664.4000244140625</ele>
        <time>2013-08-15T15:50:37.000Z</time>
        <extensions>
          <ns3:TrackPointExtension>
            <ns3:atemp>22.0</ns3:atemp>
            <ns3:hr>98</ns3:hr>
          </ns3:TrackPointExtension>
        </extensions>
      </trkpt>
      <trkpt lat="46.69107721187174320220947265625" lon="6.891930364072322845458984375">
        <ele>662.79998779296875</ele>
        <time>2013-08-15T15:50:38.000Z</time>
        <extensions>
          <ns3:TrackPointExtension>
            <ns3:atemp>22.0</ns3:atemp>
            <ns3:hr>97</ns3:hr>
          </ns3:TrackPointExtension>
        </extensions>
      </trkpt>
      <trkpt lat="46.69102859683334827423095703125" lon="6.89185517840087413787841796875">
        <ele>661.79998779296875</ele>
        <time>2013-08-15T15:50:39.000Z</time>
        <extensions>
          <ns3:TrackPointExtension>
            <ns3:atemp>22.0</ns3:atemp>
            <ns3:hr>97</ns3:hr>
          </ns3:TrackPointExtension>
        </extensions>
      </trkpt>
      <trkpt lat="46.69100764207541942596435546875" lon="6.89175476320087909698486328125">
        <ele>661</ele>
        <time>2013-08-15T15:50:40.000Z</time>
        <extensions>
          <ns3:TrackPointExtension>
            <ns3:atemp>22.0</ns3:atemp>
            <ns3:hr>97</ns3:hr>
          </ns3:TrackPointExtension>
        </extensions>
      </trkpt>
      <trkpt lat="46.69100160710513591766357421875" lon="6.89165719784796237945556640625">
        <ele>661</ele>
        <time>2013-08-15T15:50:41.000Z</time>
        <extensions>
          <ns3:TrackPointExtension>
            <ns3:atemp>22.0</ns3:atemp>
            <ns3:hr>97</ns3:hr>
          </ns3:TrackPointExtension>
        </extensions>
      </trkpt>
      <trkpt lat="46.69099423103034496307373046875" lon="6.8915637396275997161865234375">
        <ele>661</ele>
        <time>2013-08-15T15:50:42.000Z</time>
        <extensions>
          <ns3:TrackPointExtension>
            <ns3:atemp>22.0</ns3:atemp>
            <ns3:hr>98</ns3:hr>
          </ns3:TrackPointExtension>
        </extensions>
      </trkpt>
      <trkpt lat="46.6909839212894439697265625" lon="6.89147447235882282257080078125">
        <ele>661</ele>
        <time>2013-08-15T15:50:43.000Z</time>
        <extensions>
          <ns3:TrackPointExtension>
            <ns3:atemp>22.0</ns3:atemp>
            <ns3:hr>99</ns3:hr>
          </ns3:TrackPointExtension>
        </extensions>
      </trkpt>
      <trkpt lat="46.69096237979829311370849609375" lon="6.891391240060329437255859375">
        <ele>661</ele>
        <time>2013-08-15T15:50:44.000Z</time>
        <extensions>
          <ns3:TrackPointExtension>
            <ns3:atemp>22.0</ns3:atemp>
            <ns3:hr>100</ns3:hr>
          </ns3:TrackPointExtension>
        </extensions>
      </trkpt>
      <trkpt lat="46.69092960655689239501953125" lon="6.89131940715014934539794921875">
        <ele>661.4000244140625</ele>
        <time>2013-08-15T15:50:45.000Z</time>
        <extensions>
          <ns3:TrackPointExtension>
            <ns3:atemp>22.0</ns3:atemp>
            <ns3:hr>101</ns3:hr>
          </ns3:TrackPointExtension>
        </extensions>
      </trkpt>
      <trkpt lat="46.69088509865105152130126953125" lon="6.8912566266953945159912109375">
        <ele>661.5999755859375</ele>
        <time>2013-08-15T15:50:46.000Z</time>
        <extensions>
          <ns3:TrackPointExtension>
            <ns3:atemp>22.0</ns3:atemp>
            <ns3:hr>102</ns3:hr>
          </ns3:TrackPointExtension>
        </extensions>
      </trkpt>
      <trkpt lat="46.69083296321332454681396484375" lon="6.89119870774447917938232421875">
        <ele>661.5999755859375</ele>
        <time>2013-08-15T15:50:47.000Z</time>
        <extensions>
          <ns3:TrackPointExtension>
            <ns3:atemp>22.0</ns3:atemp>
            <ns3:hr>103</ns3:hr>
          </ns3:TrackPointExtension>
        </extensions>
      </trkpt>
      <trkpt lat="46.6907772235572338104248046875" lon="6.89113877713680267333984375">
        <ele>661.79998779296875</ele>
        <time>2013-08-15T15:50:48.000Z</time>
        <extensions>
          <ns3:TrackPointExtension>
            <ns3:atemp>22.0</ns3:atemp>
            <ns3:hr>104</ns3:hr>
          </ns3:TrackPointExtension>
        </extensions>
      </trkpt>
      <trkpt lat="46.69071905314922332763671875" lon="6.89107465557754039764404296875">
        <ele>661.5999755859375</ele>
        <time>2013-08-15T15:50:49.000Z</time>
        <extensions>
          <ns3:TrackPointExtension>
            <ns3:atemp>22.0</ns3:atemp>
            <ns3:hr>105</ns3:hr>
          </ns3:TrackPointExtension>
        </extensions>
      </trkpt>
      <trkpt lat="46.6906605474650859832763671875" lon="6.8910088576376438140869140625">
        <ele>661.5999755859375</ele>
        <time>2013-08-15T15:50:50.000Z</time>
        <extensions>
          <ns3:TrackPointExtension>
            <ns3:atemp>22.0</ns3:atemp>
            <ns3:hr>106</ns3:hr>
          </ns3:TrackPointExtension>
        </extensions>
      </trkpt>
      <trkpt lat="46.6906015388667583465576171875" lon="6.89094171859323978424072265625">
        <ele>661.4000244140625</ele>
        <time>2013-08-15T15:50:51.000Z</time>
        <extensions>
          <ns3:TrackPointExtension>
            <ns3:atemp>22.0</ns3:atemp>
            <ns3:hr>106</ns3:hr>
          </ns3:TrackPointExtension>
        </extensions>
      </trkpt>
      <trkpt lat="46.69054009951651096343994140625" lon="6.8908774293959140777587890625">
        <ele>661.4000244140625</ele>
        <time>2013-08-15T15:50:52.000Z</time>
        <extensions>
          <ns3:TrackPointExtension>
            <ns3:atemp>22.0</ns3:atemp>
            <ns3:hr>107</ns3:hr>
          </ns3:TrackPointExtension>
        </extensions>
      </trkpt>
      <trkpt lat="46.69047857634723186492919921875" lon="6.89081557095050811767578125">
        <ele>661.5999755859375</ele>
        <time>2013-08-15T15:50:53.000Z</time>
        <extensions>
          <ns3:TrackPointExtension>
            <ns3:atemp>22.0</ns3:atemp>
            <ns3:hr>107</ns3:hr>
          </ns3:TrackPointExtension>
        </extensions>
      </trkpt>
      <trkpt lat="46.69041671790182590484619140625" lon="6.890754885971546173095703125">
        <ele>661.5999755859375</ele>
        <time>2013-08-15T15:50:54.000Z</time>
        <extensions>
          <ns3:TrackPointExtension>
            <ns3:atemp>22.0</ns3:atemp>
            <ns3:hr>108</ns3:hr>
          </ns3:TrackPointExtension>
        </extensions>
      </trkpt>
      <trkpt lat="46.690355278551578521728515625" lon="6.89069487154483795166015625">
        <ele>661.4000244140625</ele>
        <time>2013-08-15T15:50:55.000Z</time>
        <extensions>
          <ns3:TrackPointExtension>
            <ns3:atemp>22.0</ns3:atemp>
            <ns3:hr>108</ns3:hr>
          </ns3:TrackPointExtension>
        </extensions>
      </trkpt>
      <trkpt lat="46.69029551558196544647216796875" lon="6.89063309691846370697021484375">
        <ele>661.20001220703125</ele>
        <time>2013-08-15T15:50:56.000Z</time>
        <extensions>
          <ns3:TrackPointExtension>
            <ns3:atemp>22.0</ns3:atemp>
            <ns3:hr>108</ns3:hr>
          </ns3:TrackPointExtension>
        </extensions>
      </trkpt>
      <trkpt lat="46.6902355849742889404296875" lon="6.89057157374918460845947265625">
        <ele>661</ele>
        <time>2013-08-15T15:50:57.000Z</time>
        <extensions>
          <ns3:TrackPointExtension>
            <ns3:atemp>22.0</ns3:atemp>
            <ns3:hr>108</ns3:hr>
          </ns3:TrackPointExtension>
        </extensions>
      </trkpt>
      <trkpt lat="46.69017682783305644989013671875" lon="6.89051155932247638702392578125">
        <ele>661</ele>
        <time>2013-08-15T15:50:58.000Z</time>
        <extensions>
          <ns3:TrackPointExtension>
            <ns3:atemp>22.0</ns3:atemp>
            <ns3:hr>108</ns3:hr>
          </ns3:TrackPointExtension>
        </extensions>
      </trkpt>
      <trkpt lat="46.690117903053760528564453125" lon="6.890451125800609588623046875">
        <ele>661</ele>
        <time>2013-08-15T15:50:59.000Z</time>
        <extensions>
          <ns3:TrackPointExtension>
            <ns3:atemp>22.0</ns3:atemp>
            <ns3:hr>108</ns3:hr>
          </ns3:TrackPointExtension>
        </extensions>
      </trkpt>
      <trkpt lat="46.69005981646478176116943359375" lon="6.890391446650028228759765625">
        <ele>660.79998779296875</ele>
        <time>2013-08-15T15:51:00.000Z</time>
        <extensions>
          <ns3:TrackPointExtension>
            <ns3:atemp>22.0</ns3:atemp>
            <ns3:hr>108</ns3:hr>
          </ns3:TrackPointExtension>
        </extensions>
      </trkpt>
      <trkpt lat="46.68999888002872467041015625" lon="6.8903326056897640228271484375">
        <ele>660.5999755859375</ele>
        <time>2013-08-15T15:51:01.000Z</time>
        <extensions>
          <ns3:TrackPointExtension>
            <ns3:atemp>22.0</ns3:atemp>
            <ns3:hr>109</ns3:hr>
          </ns3:TrackPointExtension>
        </extensions>
      </trkpt>
      <trkpt lat="46.689936183393001556396484375" lon="6.8902739323675632476806640625">
        <ele>660.5999755859375</ele>
        <time>2013-08-15T15:51:02.000Z</time>
        <extensions>
          <ns3:TrackPointExtension>
            <ns3:atemp>22.0</ns3:atemp>
            <ns3:hr>110</ns3:hr>
          </ns3:TrackPointExtension>
        </extensions>
      </trkpt>
      <trkpt lat="46.68987407349050045013427734375" lon="6.8902149237692356109619140625">
        <ele>660.5999755859375</ele>
        <time>2013-08-15T15:51:03.000Z</time>
        <extensions>
          <ns3:TrackPointExtension>
            <ns3:atemp>22.0</ns3:atemp>
            <ns3:hr>111</ns3:hr>
          </ns3:TrackPointExtension>
        </extensions>
      </trkpt>
      <trkpt lat="46.68981246650218963623046875" lon="6.89015583135187625885009765625">
        <ele>660.79998779296875</ele>
        <time>2013-08-15T15:51:04.000Z</time>
        <extensions>
          <ns3:TrackPointExtension>
            <ns3:atemp>22.0</ns3:atemp>
            <ns3:hr>111</ns3:hr>
          </ns3:TrackPointExtension>
        </extensions>
      </trkpt>
      <trkpt lat="46.68975119479000568389892578125" lon="6.89009699039161205291748046875">
        <ele>660.5999755859375</ele>
        <time>2013-08-15T15:51:05.000Z</time>
        <extensions>
          <ns3:TrackPointExtension>
            <ns3:atemp>22.0</ns3:atemp>
            <ns3:hr>112</ns3:hr>
          </ns3:TrackPointExtension>
        </extensions>
      </trkpt>
      <trkpt lat="46.68968967162072658538818359375" lon="6.8900375626981258392333984375">
        <ele>660.79998779296875</ele>
        <time>2013-08-15T15:51:06.000Z</time>
        <extensions>
          <ns3:TrackPointExtension>
            <ns3:atemp>22.0</ns3:atemp>
            <ns3:hr>113</ns3:hr>
          </ns3:TrackPointExtension>
        </extensions>
      </trkpt>
      <trkpt lat="46.68962932191789150238037109375" lon="6.8899768777191638946533203125">
        <ele>660.5999755859375</ele>
        <time>2013-08-15T15:51:07.000Z</time>
        <extensions>
          <ns3:TrackPointExtension>
            <ns3:atemp>22.0</ns3:atemp>
            <ns3:hr>113</ns3:hr>
          </ns3:TrackPointExtension>
        </extensions>
      </trkpt>
      <trkpt lat="46.689570061862468719482421875" lon="6.88991560600697994232177734375">
        <ele>660.5999755859375</ele>
        <time>2013-08-15T15:51:08.000Z</time>
        <extensions>
          <ns3:TrackPointExtension>
            <ns3:atemp>22.0</ns3:atemp>
            <ns3:hr>113</ns3:hr>
          </ns3:TrackPointExtension>
        </extensions>
      </trkpt>
      <trkpt lat="46.689509041607379913330078125" lon="6.88985676504671573638916015625">
        <ele>660.20001220703125</ele>
        <time>2013-08-15T15:51:09.000Z</time>
        <extensions>
          <ns3:TrackPointExtension>
            <ns3:atemp>22.0</ns3:atemp>
            <ns3:hr>113</ns3:hr>
          </ns3:TrackPointExtension>
        </extensions>
      </trkpt>
      <trkpt lat="46.68944768607616424560546875" lon="6.88979876227676868438720703125">
        <ele>660.20001220703125</ele>
        <time>2013-08-15T15:51:10.000Z</time>
        <extensions>
          <ns3:TrackPointExtension>
            <ns3:atemp>22.0</ns3:atemp>
            <ns3:hr>113</ns3:hr>
          </ns3:TrackPointExtension>
        </extensions>
      </trkpt>
      <trkpt lat="46.6893878392875194549560546875" lon="6.8897391669452190399169921875">
        <ele>660</ele>
        <time>2013-08-15T15:51:11.000Z</time>
        <extensions>
          <ns3:TrackPointExtension>
            <ns3:atemp>22.0</ns3:atemp>
            <ns3:hr>114</ns3:hr>
          </ns3:TrackPointExtension>
        </extensions>
      </trkpt>
      <trkpt lat="46.689327992498874664306640625" lon="6.88968124799430370330810546875">
        <ele>660</ele>
        <time>2013-08-15T15:51:12.000Z</time>
        <extensions>
          <ns3:TrackPointExtension>
            <ns3:atemp>22.0</ns3:atemp>
            <ns3:hr>114</ns3:hr>
          </ns3:TrackPointExtension>
        </extensions>
      </trkpt>
      <trkpt lat="46.68926973827183246612548828125" lon="6.88962341286242008209228515625">
        <ele>660.20001220703125</ele>
        <time>2013-08-15T15:51:13.000Z</time>
        <extensions>
          <ns3:TrackPointExtension>
            <ns3:atemp>22.0</ns3:atemp>
            <ns3:hr>114</ns3:hr>
          </ns3:TrackPointExtension>
        </extensions>
      </trkpt>
      <trkpt lat="46.68921072967350482940673828125" lon="6.88956524245440959930419921875">
        <ele>660.4000244140625</ele>
        <time>2013-08-15T15:51:14.000Z</time>
        <extensions>
          <ns3:TrackPointExtension>
            <ns3:atemp>22.0</ns3:atemp>
            <ns3:hr>114</ns3:hr>
          </ns3:TrackPointExtension>
        </extensions>
      </trkpt>
      <trkpt lat="46.68915264308452606201171875" lon="6.88950623385608196258544921875">
        <ele>660.4000244140625</ele>
        <time>2013-08-15T15:51:15.000Z</time>
        <extensions>
          <ns3:TrackPointExtension>
            <ns3:atemp>22.0</ns3:atemp>
            <ns3:hr>114</ns3:hr>
          </ns3:TrackPointExtension>
        </extensions>
      </trkpt>
      <trkpt lat="46.68909405358135700225830078125" lon="6.88944286666810512542724609375">
        <ele>660.4000244140625</ele>
        <time>2013-08-15T15:51:16.000Z</time>
        <extensions>
          <ns3:TrackPointExtension>
            <ns3:atemp>22.0</ns3:atemp>
            <ns3:hr>114</ns3:hr>
          </ns3:TrackPointExtension>
        </extensions>
      </trkpt>
      <trkpt lat="46.68903638608753681182861328125" lon="6.8893794156610965728759765625">
        <ele>660.4000244140625</ele>
        <time>2013-08-15T15:51:17.000Z</time>
        <extensions>
          <ns3:TrackPointExtension>
            <ns3:atemp>22.0</ns3:atemp>
            <ns3:hr>114</ns3:hr>
          </ns3:TrackPointExtension>
        </extensions>
      </trkpt>
      <trkpt lat="46.6889774613082408905029296875" lon="6.8893170543015003204345703125">
        <ele>660.4000244140625</ele>
        <time>2013-08-15T15:51:18.000Z</time>
        <extensions>
          <ns3:TrackPointExtension>
            <ns3:atemp>22.0</ns3:atemp>
            <ns3:hr>115</ns3:hr>
          </ns3:TrackPointExtension>
        </extensions>
      </trkpt>
      <trkpt lat="46.68891786597669124603271484375" lon="6.88925611786544322967529296875">
        <ele>660.4000244140625</ele>
        <time>2013-08-15T15:51:19.000Z</time>
        <extensions>
          <ns3:TrackPointExtension>
            <ns3:atemp>22.0</ns3:atemp>
            <ns3:hr>114</ns3:hr>
          </ns3:TrackPointExtension>
        </extensions>
      </trkpt>
      <trkpt lat="46.6888570971786975860595703125" lon="6.88919643871486186981201171875">
        <ele>660.4000244140625</ele>
        <time>2013-08-15T15:51:20.000Z</time>
        <extensions>
          <ns3:TrackPointExtension>
            <ns3:atemp>22.0</ns3:atemp>
            <ns3:hr>114</ns3:hr>
          </ns3:TrackPointExtension>
        </extensions>
      </trkpt>
      <trkpt lat="46.68879616074264049530029296875" lon="6.889138519763946533203125">
        <ele>660.4000244140625</ele>
        <time>2013-08-15T15:51:21.000Z</time>
        <extensions>
          <ns3:TrackPointExtension>
            <ns3:atemp>22.0</ns3:atemp>
            <ns3:hr>114</ns3:hr>
          </ns3:TrackPointExtension>
        </extensions>
      </trkpt>
      <trkpt lat="46.6887367330491542816162109375" lon="6.88908018171787261962890625">
        <ele>660.20001220703125</ele>
        <time>2013-08-15T15:51:22.000Z</time>
        <extensions>
          <ns3:TrackPointExtension>
            <ns3:atemp>22.0</ns3:atemp>
            <ns3:hr>114</ns3:hr>
          </ns3:TrackPointExtension>
        </extensions>
      </trkpt>
      <trkpt lat="46.68867797590792179107666015625" lon="6.88902259804308414459228515625">
        <ele>660.20001220703125</ele>
        <time>2013-08-15T15:51:23.000Z</time>
        <extensions>
          <ns3:TrackPointExtension>
            <ns3:atemp>22.0</ns3:atemp>
            <ns3:hr>114</ns3:hr>
          </ns3:TrackPointExtension>
        </extensions>
      </trkpt>
      <trkpt lat="46.688617207109928131103515625" lon="6.8889680318534374237060546875">
        <ele>660.20001220703125</ele>
        <time>2013-08-15T15:51:24.000Z</time>
        <extensions>
          <ns3:TrackPointExtension>
            <ns3:atemp>22.0</ns3:atemp>
            <ns3:hr>114</ns3:hr>
          </ns3:TrackPointExtension>
        </extensions>
      </trkpt>
      <trkpt lat="46.6885573603212833404541015625" lon="6.8889120407402515411376953125">
        <ele>660.20001220703125</ele>
        <time>2013-08-15T15:51:25.000Z</time>
        <extensions>
          <ns3:TrackPointExtension>
            <ns3:atemp>22.0</ns3:atemp>
            <ns3:hr>114</ns3:hr>
          </ns3:TrackPointExtension>
        </extensions>
      </trkpt>
      <trkpt lat="46.68849776498973369598388671875" lon="6.88885596580803394317626953125">
        <ele>660.20001220703125</ele>
        <time>2013-08-15T15:51:26.000Z</time>
        <extensions>
          <ns3:TrackPointExtension>
            <ns3:atemp>22.0</ns3:atemp>
            <ns3:hr>114</ns3:hr>
          </ns3:TrackPointExtension>
        </extensions>
      </trkpt>
      <trkpt lat="46.68843892402946949005126953125" lon="6.88879896886646747589111328125">
        <ele>660.4000244140625</ele>
        <time>2013-08-15T15:51:27.000Z</time>
        <extensions>
          <ns3:TrackPointExtension>
            <ns3:atemp>22.0</ns3:atemp>
            <ns3:hr>114</ns3:hr>
          </ns3:TrackPointExtension>
        </extensions>
      </trkpt>
      <trkpt lat="46.68838125653564929962158203125" lon="6.88874029554426670074462890625">
        <ele>660.4000244140625</ele>
        <time>2013-08-15T15:51:28.000Z</time>
        <extensions>
          <ns3:TrackPointExtension>
            <ns3:atemp>22.0</ns3:atemp>
            <ns3:hr>114</ns3:hr>
          </ns3:TrackPointExtension>
        </extensions>
      </trkpt>
      <trkpt lat="46.68832308612763881683349609375" lon="6.8886833824217319488525390625">
        <ele>660.4000244140625</ele>
        <time>2013-08-15T15:51:29.000Z</time>
        <extensions>
          <ns3:TrackPointExtension>
            <ns3:atemp>22.0</ns3:atemp>
            <ns3:hr>115</ns3:hr>
          </ns3:TrackPointExtension>
        </extensions>
      </trkpt>
      <trkpt lat="46.68826424516737461090087890625" lon="6.88862764276564121246337890625">
        <ele>660.4000244140625</ele>
        <time>2013-08-15T15:51:30.000Z</time>
        <extensions>
          <ns3:TrackPointExtension>
            <ns3:atemp>22.0</ns3:atemp>
            <ns3:hr>115</ns3:hr>
          </ns3:TrackPointExtension>
        </extensions>
      </trkpt>
      <trkpt lat="46.688206493854522705078125" lon="6.88857458531856536865234375">
        <ele>660.4000244140625</ele>
        <time>2013-08-15T15:51:31.000Z</time>
        <extensions>
          <ns3:TrackPointExtension>
            <ns3:atemp>22.0</ns3:atemp>
            <ns3:hr>116</ns3:hr>
          </ns3:TrackPointExtension>
        </extensions>
      </trkpt>
      <trkpt lat="46.688147149980068206787109375" lon="6.88852186314761638641357421875">
        <ele>660.4000244140625</ele>
        <time>2013-08-15T15:51:32.000Z</time>
        <extensions>
          <ns3:TrackPointExtension>
            <ns3:atemp>22.0</ns3:atemp>
            <ns3:hr>116</ns3:hr>
          </ns3:TrackPointExtension>
        </extensions>
      </trkpt>
      <trkpt lat="46.68808646500110626220703125" lon="6.8884728290140628814697265625">
        <ele>660.4000244140625</ele>
        <time>2013-08-15T15:51:33.000Z</time>
        <extensions>
          <ns3:TrackPointExtension>
            <ns3:atemp>22.0</ns3:atemp>
            <ns3:hr>117</ns3:hr>
          </ns3:TrackPointExtension>
        </extensions>
      </trkpt>
      <trkpt lat="46.68802368454635143280029296875" lon="6.888428069651126861572265625">
        <ele>660.4000244140625</ele>
        <time>2013-08-15T15:51:34.000Z</time>
        <extensions>
          <ns3:TrackPointExtension>
            <ns3:atemp>22.0</ns3:atemp>
            <ns3:hr>117</ns3:hr>
          </ns3:TrackPointExtension>
        </extensions>
      </trkpt>
      <trkpt lat="46.6879610717296600341796875" lon="6.88838406465947628021240234375">
        <ele>660.5999755859375</ele>
        <time>2013-08-15T15:51:35.000Z</time>
        <extensions>
          <ns3:TrackPointExtension>
            <ns3:atemp>22.0</ns3:atemp>
            <ns3:hr>117</ns3:hr>
          </ns3:TrackPointExtension>
        </extensions>
      </trkpt>
      <trkpt lat="46.6878992132842540740966796875" lon="6.888340227305889129638671875">
        <ele>660.5999755859375</ele>
        <time>2013-08-15T15:51:36.000Z</time>
        <extensions>
          <ns3:TrackPointExtension>
            <ns3:atemp>22.0</ns3:atemp>
            <ns3:hr>117</ns3:hr>
          </ns3:TrackPointExtension>
        </extensions>
      </trkpt>
      <trkpt lat="46.68783877976238727569580078125" lon="6.88829873688519001007080078125">
        <ele>660.5999755859375</ele>
        <time>2013-08-15T15:51:37.000Z</time>
        <extensions>
          <ns3:TrackPointExtension>
            <ns3:atemp>22.0</ns3:atemp>
            <ns3:hr>118</ns3:hr>
          </ns3:TrackPointExtension>
        </extensions>
      </trkpt>
      <trkpt lat="46.68777692131698131561279296875" lon="6.88825808465480804443359375">
        <ele>660.79998779296875</ele>
        <time>2013-08-15T15:51:38.000Z</time>
        <extensions>
          <ns3:TrackPointExtension>
            <ns3:atemp>22.0</ns3:atemp>
            <ns3:hr>118</ns3:hr>
          </ns3:TrackPointExtension>
        </extensions>
      </trkpt>
      <trkpt lat="46.68771497905254364013671875" lon="6.88821810297667980194091796875">
        <ele>660.79998779296875</ele>
        <time>2013-08-15T15:51:39.000Z</time>
        <extensions>
          <ns3:TrackPointExtension>
            <ns3:atemp>22.0</ns3:atemp>
            <ns3:hr>119</ns3:hr>
          </ns3:TrackPointExtension>
        </extensions>
      </trkpt>
      <trkpt lat="46.68765387497842311859130859375" lon="6.8881757743656635284423828125">
        <ele>660.79998779296875</ele>
        <time>2013-08-15T15:51:40.000Z</time>
        <extensions>
          <ns3:TrackPointExtension>
            <ns3:atemp>22.0</ns3:atemp>
            <ns3:hr>119</ns3:hr>
          </ns3:TrackPointExtension>
        </extensions>
      </trkpt>
      <trkpt lat="46.68759235180914402008056640625" lon="6.88813470304012298583984375">
        <ele>660.79998779296875</ele>
        <time>2013-08-15T15:51:41.000Z</time>
        <extensions>
          <ns3:TrackPointExtension>
            <ns3:atemp>22.0</ns3:atemp>
            <ns3:hr>119</ns3:hr>
          </ns3:TrackPointExtension>
        </extensions>
      </trkpt>
      <trkpt lat="46.6875294037163257598876953125" lon="6.88809849321842193603515625">
        <ele>660.79998779296875</ele>
        <time>2013-08-15T15:51:42.000Z</time>
        <extensions>
          <ns3:TrackPointExtension>
            <ns3:atemp>22.0</ns3:atemp>
            <ns3:hr>119</ns3:hr>
          </ns3:TrackPointExtension>
        </extensions>
      </trkpt>
      <trkpt lat="46.687466539442539215087890625" lon="6.88806555233895778656005859375">
        <ele>661</ele>
        <time>2013-08-15T15:51:43.000Z</time>
        <extensions>
          <ns3:TrackPointExtension>
            <ns3:atemp>22.0</ns3:atemp>
            <ns3:hr>119</ns3:hr>
          </ns3:TrackPointExtension>
        </extensions>
      </trkpt>
      <trkpt lat="46.687403507530689239501953125" lon="6.88803403638303279876708984375">
        <ele>661</ele>
        <time>2013-08-15T15:51:44.000Z</time>
        <extensions>
          <ns3:TrackPointExtension>
            <ns3:atemp>22.0</ns3:atemp>
            <ns3:hr>119</ns3:hr>
          </ns3:TrackPointExtension>
        </extensions>
      </trkpt>
      <trkpt lat="46.68734122999012470245361328125" lon="6.88800067640841007232666015625">
        <ele>661</ele>
        <time>2013-08-15T15:51:45.000Z</time>
        <extensions>
          <ns3:TrackPointExtension>
            <ns3:atemp>22.0</ns3:atemp>
            <ns3:hr>119</ns3:hr>
          </ns3:TrackPointExtension>
        </extensions>
      </trkpt>
      <trkpt lat="46.687278784811496734619140625" lon="6.887968741357326507568359375">
        <ele>661.20001220703125</ele>
        <time>2013-08-15T15:51:46.000Z</time>
        <extensions>
          <ns3:TrackPointExtension>
            <ns3:atemp>22.0</ns3:atemp>
            <ns3:hr>119</ns3:hr>
          </ns3:TrackPointExtension>
        </extensions>
      </trkpt>
      <trkpt lat="46.6872149147093296051025390625" lon="6.88794694840908050537109375">
        <ele>661.4000244140625</ele>
        <time>2013-08-15T15:51:47.000Z</time>
        <extensions>
          <ns3:TrackPointExtension>
            <ns3:atemp>22.0</ns3:atemp>
            <ns3:hr>119</ns3:hr>
          </ns3:TrackPointExtension>
        </extensions>
      </trkpt>
      <trkpt lat="46.68715263716876506805419921875" lon="6.887921802699565887451171875">
        <ele>661.4000244140625</ele>
        <time>2013-08-15T15:51:48.000Z</time>
        <extensions>
          <ns3:TrackPointExtension>
            <ns3:atemp>22.0</ns3:atemp>
            <ns3:hr>119</ns3:hr>
          </ns3:TrackPointExtension>
        </extensions>
      </trkpt>
      <trkpt lat="46.6870925389230251312255859375" lon="6.88788685016334056854248046875">
        <ele>661.20001220703125</ele>
        <time>2013-08-15T15:51:49.000Z</time>
        <extensions>
          <ns3:TrackPointExtension>
            <ns3:atemp>22.0</ns3:atemp>
            <ns3:hr>119</ns3:hr>
          </ns3:TrackPointExtension>
        </extensions>
      </trkpt>
      <trkpt lat="46.68704233132302761077880859375" lon="6.88782582990825176239013671875">
        <ele>661.20001220703125</ele>
        <time>2013-08-15T15:51:50.000Z</time>
        <extensions>
          <ns3:TrackPointExtension>
            <ns3:atemp>22.0</ns3:atemp>
            <ns3:hr>119</ns3:hr>
          </ns3:TrackPointExtension>
        </extensions>
      </trkpt>
      <trkpt lat="46.68701852671802043914794921875" lon="6.88773614354431629180908203125">
        <ele>661</ele>
        <time>2013-08-15T15:51:51.000Z</time>
        <extensions>
          <ns3:TrackPointExtension>
            <ns3:atemp>22.0</ns3:atemp>
            <ns3:hr>118</ns3:hr>
          </ns3:TrackPointExtension>
        </extensions>
      </trkpt>
      <trkpt lat="46.68702162802219390869140625" lon="6.88763874582946300506591796875">
        <ele>661.20001220703125</ele>
        <time>2013-08-15T15:51:52.000Z</time>
        <extensions>
          <ns3:TrackPointExtension>
            <ns3:atemp>22.0</ns3:atemp>
            <ns3:hr>118</ns3:hr>
          </ns3:TrackPointExtension>
        </extensions>
      </trkpt>
      <trkpt lat="46.6870452649891376495361328125" lon="6.8875461257994174957275390625">
        <ele>661.4000244140625</ele>
        <time>2013-08-15T15:51:53.000Z</time>
        <extensions>
          <ns3:TrackPointExtension>
            <ns3:atemp>22.0</ns3:atemp>
            <ns3:hr>118</ns3:hr>
          </ns3:TrackPointExtension>
        </extensions>
      </trkpt>
      <trkpt lat="46.68707393109798431396484375" lon="6.88745769672095775604248046875">
        <ele>661.79998779296875</ele>
        <time>2013-08-15T15:51:54.000Z</time>
        <extensions>
          <ns3:TrackPointExtension>
            <ns3:atemp>22.0</ns3:atemp>
            <ns3:hr>117</ns3:hr>
          </ns3:TrackPointExtension>
        </extensions>
      </trkpt>
      <trkpt lat="46.68709932826459407806396484375" lon="6.887367926537990570068359375">
        <ele>662</ele>
        <time>2013-08-15T15:51:55.000Z</time>
        <extensions>
          <ns3:TrackPointExtension>
            <ns3:atemp>22.0</ns3:atemp>
            <ns3:hr>118</ns3:hr>
          </ns3:TrackPointExtension>
        </extensions>
      </trkpt>
      <trkpt lat="46.68712480925023555755615234375" lon="6.88727932982146739959716796875">
        <ele>662</ele>
        <time>2013-08-15T15:51:56.000Z</time>
        <extensions>
          <ns3:TrackPointExtension>
            <ns3:atemp>22.0</ns3:atemp>
            <ns3:hr>118</ns3:hr>
          </ns3:TrackPointExtension>
        </extensions>
      </trkpt>
      <trkpt lat="46.6871488653123378753662109375" lon="6.88719056546688079833984375">
        <ele>662</ele>
        <time>2013-08-15T15:51:57.000Z</time>
        <extensions>
          <ns3:TrackPointExtension>
            <ns3:atemp>22.0</ns3:atemp>
            <ns3:hr>119</ns3:hr>
          </ns3:TrackPointExtension>
        </extensions>
      </trkpt>
      <trkpt lat="46.687174178659915924072265625" lon="6.88710364513099193572998046875">
        <ele>662</ele>
        <time>2013-08-15T15:51:58.000Z</time>
        <extensions>
          <ns3:TrackPointExtension>
            <ns3:atemp>22.0</ns3:atemp>
            <ns3:hr>120</ns3:hr>
          </ns3:TrackPointExtension>
        </extensions>
      </trkpt>
      <trkpt lat="46.68719689361751079559326171875" lon="6.88702384941279888153076171875">
        <ele>662.20001220703125</ele>
        <time>2013-08-15T15:51:59.000Z</time>
        <extensions>
          <ns3:TrackPointExtension>
            <ns3:atemp>22.0</ns3:atemp>
            <ns3:hr>120</ns3:hr>
          </ns3:TrackPointExtension>
        </extensions>
      </trkpt>
      <trkpt lat="46.687216423451900482177734375" lon="6.886950172483921051025390625">
        <ele>662.20001220703125</ele>
        <time>2013-08-15T15:52:00.000Z</time>
        <extensions>
          <ns3:TrackPointExtension>
            <ns3:atemp>22.0</ns3:atemp>
            <ns3:hr>120</ns3:hr>
          </ns3:TrackPointExtension>
        </extensions>
      </trkpt>
      <trkpt lat="46.68723109178245067596435546875" lon="6.88688219524919986724853515625">
        <ele>662.4000244140625</ele>
        <time>2013-08-15T15:52:01.000Z</time>
        <extensions>
          <ns3:TrackPointExtension>
            <ns3:atemp>22.0</ns3:atemp>
            <ns3:hr>121</ns3:hr>
          </ns3:TrackPointExtension>
        </extensions>
      </trkpt>
      <trkpt lat="46.68724383227527141571044921875" lon="6.8868232704699039459228515625">
        <ele>662.5999755859375</ele>
        <time>2013-08-15T15:52:02.000Z</time>
        <extensions>
          <ns3:TrackPointExtension>
            <ns3:atemp>22.0</ns3:atemp>
            <ns3:hr>121</ns3:hr>
          </ns3:TrackPointExtension>
        </extensions>
      </trkpt>
      <trkpt lat="46.6872588358819484710693359375" lon="6.88677524216473102569580078125">
        <ele>663</ele>
        <time>2013-08-15T15:52:03.000Z</time>
        <extensions>
          <ns3:TrackPointExtension>
            <ns3:atemp>22.0</ns3:atemp>
            <ns3:hr>121</ns3:hr>
          </ns3:TrackPointExtension>
        </extensions>
      </trkpt>
      <trkpt lat="46.687273085117340087890625" lon="6.88673433847725391387939453125">
        <ele>663.4000244140625</ele>
        <time>2013-08-15T15:52:04.000Z</time>
        <extensions>
          <ns3:TrackPointExtension>
            <ns3:atemp>22.0</ns3:atemp>
            <ns3:hr>121</ns3:hr>
          </ns3:TrackPointExtension>
        </extensions>
      </trkpt>
      <trkpt lat="46.6872836463153362274169921875" lon="6.88669511117041110992431640625">
        <ele>663.79998779296875</ele>
        <time>2013-08-15T15:52:05.000Z</time>
        <extensions>
          <ns3:TrackPointExtension>
            <ns3:atemp>22.0</ns3:atemp>
            <ns3:hr>121</ns3:hr>
          </ns3:TrackPointExtension>
        </extensions>
      </trkpt>
      <trkpt lat="46.687291525304317474365234375" lon="6.88665454275906085968017578125">
        <ele>664</ele>
        <time>2013-08-15T15:52:06.000Z</time>
        <extensions>
          <ns3:TrackPointExtension>
            <ns3:atemp>22.0</ns3:atemp>
            <ns3:hr>121</ns3:hr>
          </ns3:TrackPointExtension>
        </extensions>
      </trkpt>
      <trkpt lat="46.68729923665523529052734375" lon="6.88661581836640834808349609375">
        <ele>664.20001220703125</ele>
        <time>2013-08-15T15:52:07.000Z</time>
        <extensions>
          <ns3:TrackPointExtension>
            <ns3:atemp>22.0</ns3:atemp>
            <ns3:hr>121</ns3:hr>
          </ns3:TrackPointExtension>
        </extensions>
      </trkpt>
      <trkpt lat="46.68730921112000942230224609375" lon="6.88657541759312152862548828125">
        <ele>664.5999755859375</ele>
        <time>2013-08-15T15:52:08.000Z</time>
        <extensions>
          <ns3:TrackPointExtension>
            <ns3:atemp>22.0</ns3:atemp>
            <ns3:hr>122</ns3:hr>
          </ns3:TrackPointExtension>
        </extensions>
      </trkpt>
      <trkpt lat="46.687316335737705230712890625" lon="6.886534430086612701416015625">
        <ele>664.79998779296875</ele>
        <time>2013-08-15T15:52:09.000Z</time>
        <extensions>
          <ns3:TrackPointExtension>
            <ns3:atemp>22.0</ns3:atemp>
            <ns3:hr>122</ns3:hr>
          </ns3:TrackPointExtension>
        </extensions>
      </trkpt>
      <trkpt lat="46.6873215325176715850830078125" lon="6.886493526399135589599609375">
        <ele>665.20001220703125</ele>
        <time>2013-08-15T15:52:10.000Z</time>
        <extensions>
          <ns3:TrackPointExtension>
            <ns3:atemp>22.0</ns3:atemp>
            <ns3:hr>122</ns3:hr>
          </ns3:TrackPointExtension>
        </extensions>
      </trkpt>
      <trkpt lat="46.68732874095439910888671875" lon="6.886450946331024169921875">
        <ele>665.4000244140625</ele>
        <time>2013-08-15T15:52:11.000Z</time>
        <extensions>
          <ns3:TrackPointExtension>
            <ns3:atemp>22.0</ns3:atemp>
            <ns3:hr>123</ns3:hr>
          </ns3:TrackPointExtension>
        </extensions>
      </trkpt>
      <trkpt lat="46.687339134514331817626953125" lon="6.88641297630965709686279296875">
        <ele>666</ele>
        <time>2013-08-15T15:52:12.000Z</time>
        <extensions>
          <ns3:TrackPointExtension>
            <ns3:atemp>22.0</ns3:atemp>
            <ns3:hr>124</ns3:hr>
          </ns3:TrackPointExtension>
        </extensions>
      </trkpt>
      <trkpt lat="46.68735229410231113433837890625" lon="6.88637374900281429290771484375">
        <ele>666.4000244140625</ele>
        <time>2013-08-15T15:52:13.000Z</time>
        <extensions>
          <ns3:TrackPointExtension>
            <ns3:atemp>22.0</ns3:atemp>
            <ns3:hr>125</ns3:hr>
          </ns3:TrackPointExtension>
        </extensions>
      </trkpt>
      <trkpt lat="46.68736620806157588958740234375" lon="6.886340640485286712646484375">
        <ele>667</ele>
        <time>2013-08-15T15:52:14.000Z</time>
        <extensions>
          <ns3:TrackPointExtension>
            <ns3:atemp>22.0</ns3:atemp>
            <ns3:hr>126</ns3:hr>
          </ns3:TrackPointExtension>
        </extensions>
      </trkpt>
      <trkpt lat="46.6873776912689208984375" lon="6.8863076157867908477783203125">
        <ele>667.20001220703125</ele>
        <time>2013-08-15T15:52:15.000Z</time>
        <extensions>
          <ns3:TrackPointExtension>
            <ns3:atemp>22.0</ns3:atemp>
            <ns3:hr>128</ns3:hr>
          </ns3:TrackPointExtension>
        </extensions>
      </trkpt>
      <trkpt lat="46.687388084828853607177734375" lon="6.88627769239246845245361328125">
        <ele>667.5999755859375</ele>
        <time>2013-08-15T15:52:16.000Z</time>
        <extensions>
          <ns3:TrackPointExtension>
            <ns3:atemp>22.0</ns3:atemp>
            <ns3:hr>129</ns3:hr>
          </ns3:TrackPointExtension>
        </extensions>
      </trkpt>
      <trkpt lat="46.68739722110331058502197265625" lon="6.8862465955317020416259765625">
        <ele>668</ele>
        <time>2013-08-15T15:52:17.000Z</time>
        <extensions>
          <ns3:TrackPointExtension>
            <ns3:atemp>22.0</ns3:atemp>
            <ns3:hr>130</ns3:hr>
          </ns3:TrackPointExtension>
        </extensions>
      </trkpt>
      <trkpt lat="46.687404178082942962646484375" lon="6.88621449284255504608154296875">
        <ele>668.4000244140625</ele>
        <time>2013-08-15T15:52:18.000Z</time>
        <extensions>
          <ns3:TrackPointExtension>
            <ns3:atemp>22.0</ns3:atemp>
            <ns3:hr>131</ns3:hr>
          </ns3:TrackPointExtension>
        </extensions>
      </trkpt>
      <trkpt lat="46.68740895576775074005126953125" lon="6.8861808814108371734619140625">
        <ele>668.79998779296875</ele>
        <time>2013-08-15T15:52:19.000Z</time>
        <extensions>
          <ns3:TrackPointExtension>
            <ns3:atemp>22.0</ns3:atemp>
            <ns3:hr>132</ns3:hr>
          </ns3:TrackPointExtension>
        </extensions>
      </trkpt>
      <trkpt lat="46.687412224709987640380859375" lon="6.88614693470299243927001953125">
        <ele>669.20001220703125</ele>
        <time>2013-08-15T15:52:20.000Z</time>
        <extensions>
          <ns3:TrackPointExtension>
            <ns3:atemp>22.0</ns3:atemp>
            <ns3:hr>133</ns3:hr>
          </ns3:TrackPointExtension>
        </extensions>
      </trkpt>
      <trkpt lat="46.68741985224187374114990234375" lon="6.8861128203570842742919921875">
        <ele>669.5999755859375</ele>
        <time>2013-08-15T15:52:21.000Z</time>
        <extensions>
          <ns3:TrackPointExtension>
            <ns3:atemp>22.0</ns3:atemp>
            <ns3:hr>133</ns3:hr>
          </ns3:TrackPointExtension>
        </extensions>
      </trkpt>
      <trkpt lat="46.687428653240203857421875" lon="6.88608122058212757110595703125">
        <ele>670</ele>
        <time>2013-08-15T15:52:22.000Z</time>
        <extensions>
          <ns3:TrackPointExtension>
            <ns3:atemp>22.0</ns3:atemp>
            <ns3:hr>134</ns3:hr>
          </ns3:TrackPointExtension>
        </extensions>
      </trkpt>
      <trkpt lat="46.68743778951466083526611328125" lon="6.88604987226426601409912109375">
        <ele>670.20001220703125</ele>
        <time>2013-08-15T15:52:23.000Z</time>
        <extensions>
          <ns3:TrackPointExtension>
            <ns3:atemp>22.0</ns3:atemp>
            <ns3:hr>134</ns3:hr>
          </ns3:TrackPointExtension>
        </extensions>
      </trkpt>
      <trkpt lat="46.68744717724621295928955078125" lon="6.8860179372131824493408203125">
        <ele>670.5999755859375</ele>
        <time>2013-08-15T15:52:24.000Z</time>
        <extensions>
          <ns3:TrackPointExtension>
            <ns3:atemp>22.0</ns3:atemp>
            <ns3:hr>134</ns3:hr>
          </ns3:TrackPointExtension>
        </extensions>
      </trkpt>
      <trkpt lat="46.687453798949718475341796875" lon="6.88598625361919403076171875">
        <ele>670.79998779296875</ele>
        <time>2013-08-15T15:52:25.000Z</time>
        <extensions>
          <ns3:TrackPointExtension>
            <ns3:atemp>22.0</ns3:atemp>
            <ns3:hr>134</ns3:hr>
          </ns3:TrackPointExtension>
        </extensions>
      </trkpt>
      <trkpt lat="46.6874621808528900146484375" lon="6.8859549053013324737548828125">
        <ele>671.20001220703125</ele>
        <time>2013-08-15T15:52:26.000Z</time>
        <extensions>
          <ns3:TrackPointExtension>
            <ns3:atemp>22.0</ns3:atemp>
            <ns3:hr>134</ns3:hr>
          </ns3:TrackPointExtension>
        </extensions>
      </trkpt>
      <trkpt lat="46.68747232295572757720947265625" lon="6.8859267421066761016845703125">
        <ele>671.5999755859375</ele>
        <time>2013-08-15T15:52:27.000Z</time>
        <extensions>
          <ns3:TrackPointExtension>
            <ns3:atemp>22.0</ns3:atemp>
            <ns3:hr>134</ns3:hr>
          </ns3:TrackPointExtension>
        </extensions>
      </trkpt>
      <trkpt lat="46.687481291592121124267578125" lon="6.8858979083597660064697265625">
        <ele>671.79998779296875</ele>
        <time>2013-08-15T15:52:28.000Z</time>
        <extensions>
          <ns3:TrackPointExtension>
            <ns3:atemp>22.0</ns3:atemp>
            <ns3:hr>134</ns3:hr>
          </ns3:TrackPointExtension>
        </extensions>
      </trkpt>
      <trkpt lat="46.6874863207340240478515625" lon="6.88586915843188762664794921875">
        <ele>672.20001220703125</ele>
        <time>2013-08-15T15:52:29.000Z</time>
        <extensions>
          <ns3:TrackPointExtension>
            <ns3:atemp>22.0</ns3:atemp>
            <ns3:hr>134</ns3:hr>
          </ns3:TrackPointExtension>
        </extensions>
      </trkpt>
      <trkpt lat="46.68749327771365642547607421875" lon="6.885839402675628662109375">
        <ele>672.4000244140625</ele>
        <time>2013-08-15T15:52:30.000Z</time>
        <extensions>
          <ns3:TrackPointExtension>
            <ns3:atemp>22.0</ns3:atemp>
            <ns3:hr>134</ns3:hr>
          </ns3:TrackPointExtension>
        </extensions>
      </trkpt>
      <trkpt lat="46.68750107288360595703125" lon="6.88580654561519622802734375">
        <ele>672.79998779296875</ele>
        <time>2013-08-15T15:52:31.000Z</time>
        <extensions>
          <ns3:TrackPointExtension>
            <ns3:atemp>22.0</ns3:atemp>
            <ns3:hr>135</ns3:hr>
          </ns3:TrackPointExtension>
        </extensions>
      </trkpt>
      <trkpt lat="46.687508784234523773193359375" lon="6.8857745267450809478759765625">
        <ele>673</ele>
        <time>2013-08-15T15:52:32.000Z</time>
        <extensions>
          <ns3:TrackPointExtension>
            <ns3:atemp>22.0</ns3:atemp>
            <ns3:hr>135</ns3:hr>
          </ns3:TrackPointExtension>
        </extensions>
      </trkpt>
      <trkpt lat="46.6875173337757587432861328125" lon="6.88574426807463169097900390625">
        <ele>673.4000244140625</ele>
        <time>2013-08-15T15:52:33.000Z</time>
        <extensions>
          <ns3:TrackPointExtension>
            <ns3:atemp>22.0</ns3:atemp>
            <ns3:hr>135</ns3:hr>
          </ns3:TrackPointExtension>
        </extensions>
      </trkpt>
      <trkpt lat="46.68752697296440601348876953125" lon="6.88571409322321414947509765625">
        <ele>673.79998779296875</ele>
        <time>2013-08-15T15:52:34.000Z</time>
        <extensions>
          <ns3:TrackPointExtension>
            <ns3:atemp>22.0</ns3:atemp>
            <ns3:hr>135</ns3:hr>
          </ns3:TrackPointExtension>
        </extensions>
      </trkpt>
      <trkpt lat="46.6875384561717510223388671875" lon="6.8856851756572723388671875">
        <ele>674.20001220703125</ele>
        <time>2013-08-15T15:52:35.000Z</time>
        <extensions>
          <ns3:TrackPointExtension>
            <ns3:atemp>22.0</ns3:atemp>
            <ns3:hr>135</ns3:hr>
          </ns3:TrackPointExtension>
        </extensions>
      </trkpt>
      <trkpt lat="46.68754826299846172332763671875" lon="6.8856556713581085205078125">
        <ele>674.5999755859375</ele>
        <time>2013-08-15T15:52:36.000Z</time>
        <extensions>
          <ns3:TrackPointExtension>
            <ns3:atemp>22.0</ns3:atemp>
            <ns3:hr>136</ns3:hr>
          </ns3:TrackPointExtension>
        </extensions>
      </trkpt>
      <trkpt lat="46.687558405101299285888671875" lon="6.8856270052492618560791015625">
        <ele>675</ele>
        <time>2013-08-15T15:52:37.000Z</time>
        <extensions>
          <ns3:TrackPointExtension>
            <ns3:atemp>22.0</ns3:atemp>
            <ns3:hr>136</ns3:hr>
          </ns3:TrackPointExtension>
        </extensions>
      </trkpt>
      <trkpt lat="46.6875669546425342559814453125" lon="6.8855981715023517608642578125">
        <ele>675.20001220703125</ele>
        <time>2013-08-15T15:52:38.000Z</time>
        <extensions>
          <ns3:TrackPointExtension>
            <ns3:atemp>22.0</ns3:atemp>
            <ns3:hr>137</ns3:hr>
          </ns3:TrackPointExtension>
        </extensions>
      </trkpt>
      <trkpt lat="46.68757407926023006439208984375" lon="6.88556841574609279632568359375">
        <ele>675.5999755859375</ele>
        <time>2013-08-15T15:52:39.000Z</time>
        <extensions>
          <ns3:TrackPointExtension>
            <ns3:atemp>22.0</ns3:atemp>
            <ns3:hr>137</ns3:hr>
          </ns3:TrackPointExtension>
        </extensions>
      </trkpt>
      <trkpt lat="46.68757961131632328033447265625" lon="6.885538659989833831787109375">
        <ele>676</ele>
        <time>2013-08-15T15:52:40.000Z</time>
        <extensions>
          <ns3:TrackPointExtension>
            <ns3:atemp>22.0</ns3:atemp>
            <ns3:hr>138</ns3:hr>
          </ns3:TrackPointExtension>
        </extensions>
      </trkpt>
      <trkpt lat="46.6875847242772579193115234375" lon="6.88550806604325771331787109375">
        <ele>676.4000244140625</ele>
        <time>2013-08-15T15:52:41.000Z</time>
        <extensions>
          <ns3:TrackPointExtension>
            <ns3:atemp>22.0</ns3:atemp>
            <ns3:hr>138</ns3:hr>
          </ns3:TrackPointExtension>
        </extensions>
      </trkpt>
      <trkpt lat="46.68759293854236602783203125" lon="6.88547688536345958709716796875">
        <ele>676.5999755859375</ele>
        <time>2013-08-15T15:52:42.000Z</time>
        <extensions>
          <ns3:TrackPointExtension>
            <ns3:atemp>22.0</ns3:atemp>
            <ns3:hr>139</ns3:hr>
          </ns3:TrackPointExtension>
        </extensions>
      </trkpt>
      <trkpt lat="46.6876014880836009979248046875" lon="6.88544503413140773773193359375">
        <ele>677</ele>
        <time>2013-08-15T15:52:43.000Z</time>
        <extensions>
          <ns3:TrackPointExtension>
            <ns3:atemp>22.0</ns3:atemp>
            <ns3:hr>140</ns3:hr>
          </ns3:TrackPointExtension>
        </extensions>
      </trkpt>
      <trkpt lat="46.68760903179645538330078125" lon="6.88541318289935588836669921875">
        <ele>677.20001220703125</ele>
        <time>2013-08-15T15:52:44.000Z</time>
        <extensions>
          <ns3:TrackPointExtension>
            <ns3:atemp>22.0</ns3:atemp>
            <ns3:hr>141</ns3:hr>
          </ns3:TrackPointExtension>
        </extensions>
      </trkpt>
      <trkpt lat="46.68761934153735637664794921875" lon="6.88538284040987491607666015625">
        <ele>678</ele>
        <time>2013-08-15T15:52:45.000Z</time>
        <extensions>
          <ns3:TrackPointExtension>
            <ns3:atemp>22.0</ns3:atemp>
            <ns3:hr>141</ns3:hr>
          </ns3:TrackPointExtension>
        </extensions>
      </trkpt>
      <trkpt lat="46.687628142535686492919921875" lon="6.88535132445394992828369140625">
        <ele>678.4000244140625</ele>
        <time>2013-08-15T15:52:46.000Z</time>
        <extensions>
          <ns3:TrackPointExtension>
            <ns3:atemp>22.0</ns3:atemp>
            <ns3:hr>142</ns3:hr>
          </ns3:TrackPointExtension>
        </extensions>
      </trkpt>
      <trkpt lat="46.68763861991465091705322265625" lon="6.88532173633575439453125">
        <ele>678.5999755859375</ele>
        <time>2013-08-15T15:52:47.000Z</time>
        <extensions>
          <ns3:TrackPointExtension>
            <ns3:atemp>22.0</ns3:atemp>
            <ns3:hr>142</ns3:hr>
          </ns3:TrackPointExtension>
        </extensions>
      </trkpt>
      <trkpt lat="46.68764666654169559478759765625" lon="6.8852907232940196990966796875">
        <ele>679</ele>
        <time>2013-08-15T15:52:48.000Z</time>
        <extensions>
          <ns3:TrackPointExtension>
            <ns3:atemp>22.0</ns3:atemp>
            <ns3:hr>143</ns3:hr>
          </ns3:TrackPointExtension>
        </extensions>
      </trkpt>
      <trkpt lat="46.68765270151197910308837890625" lon="6.88526314683258533477783203125">
        <ele>679.4000244140625</ele>
        <time>2013-08-15T15:52:49.000Z</time>
        <extensions>
          <ns3:TrackPointExtension>
            <ns3:atemp>22.0</ns3:atemp>
            <ns3:hr>143</ns3:hr>
          </ns3:TrackPointExtension>
        </extensions>
      </trkpt>
      <trkpt lat="46.6876571439206600189208984375" lon="6.88523984514176845550537109375">
        <ele>679.5999755859375</ele>
        <time>2013-08-15T15:52:50.000Z</time>
        <extensions>
          <ns3:TrackPointExtension>
            <ns3:atemp>23.0</ns3:atemp>
            <ns3:hr>144</ns3:hr>
          </ns3:TrackPointExtension>
        </extensions>
      </trkpt>
      <trkpt lat="46.68766125105321407318115234375" lon="6.88522375188767910003662109375">
        <ele>679.79998779296875</ele>
        <time>2013-08-15T15:52:51.000Z</time>
        <extensions>
          <ns3:TrackPointExtension>
            <ns3:atemp>23.0</ns3:atemp>
            <ns3:hr>144</ns3:hr>
          </ns3:TrackPointExtension>
        </extensions>
      </trkpt>
      <trkpt lat="46.68766929768025875091552734375" lon="6.8852156214416027069091796875">
        <ele>680</ele>
        <time>2013-08-15T15:52:52.000Z</time>
        <extensions>
          <ns3:TrackPointExtension>
            <ns3:atemp>23.0</ns3:atemp>
            <ns3:hr>144</ns3:hr>
          </ns3:TrackPointExtension>
        </extensions>
      </trkpt>
      <trkpt lat="46.6876729018986225128173828125" lon="6.88520916737616062164306640625">
        <ele>680.20001220703125</ele>
        <time>2013-08-15T15:52:53.000Z</time>
        <extensions>
          <ns3:TrackPointExtension>
            <ns3:atemp>23.0</ns3:atemp>
            <ns3:hr>144</ns3:hr>
          </ns3:TrackPointExtension>
        </extensions>
      </trkpt>
      <trkpt lat="46.68767097406089305877685546875" lon="6.88521252013742923736572265625">
        <ele>680.4000244140625</ele>
        <time>2013-08-15T15:52:54.000Z</time>
        <extensions>
          <ns3:TrackPointExtension>
            <ns3:atemp>23.0</ns3:atemp>
            <ns3:hr>144</ns3:hr>
          </ns3:TrackPointExtension>
        </extensions>
      </trkpt>
      <trkpt lat="46.6876722313463687896728515625" lon="6.8852104246616363525390625">
        <ele>680.20001220703125</ele>
        <time>2013-08-15T15:52:55.000Z</time>
        <extensions>
          <ns3:TrackPointExtension>
            <ns3:atemp>23.0</ns3:atemp>
            <ns3:hr>144</ns3:hr>
          </ns3:TrackPointExtension>
        </extensions>
      </trkpt>
      <trkpt lat="46.6876722313463687896728515625" lon="6.8852104246616363525390625">
        <ele>680.20001220703125</ele>
        <time>2013-08-15T15:52:56.000Z</time>
        <extensions>
          <ns3:TrackPointExtension>
            <ns3:atemp>23.0</ns3:atemp>
            <ns3:hr>144</ns3:hr>
          </ns3:TrackPointExtension>
        </extensions>
      </trkpt>
      <trkpt lat="46.6876722313463687896728515625" lon="6.8852104246616363525390625">
        <ele>680</ele>
        <time>2013-08-15T15:52:57.000Z</time>
        <extensions>
          <ns3:TrackPointExtension>
            <ns3:atemp>23.0</ns3:atemp>
            <ns3:hr>144</ns3:hr>
          </ns3:TrackPointExtension>
        </extensions>
      </trkpt>
      <trkpt lat="46.6876722313463687896728515625" lon="6.8852104246616363525390625">
        <ele>680</ele>
        <time>2013-08-15T15:52:58.000Z</time>
        <extensions>
          <ns3:TrackPointExtension>
            <ns3:atemp>23.0</ns3:atemp>
            <ns3:hr>143</ns3:hr>
          </ns3:TrackPointExtension>
        </extensions>
      </trkpt>
      <trkpt lat="46.6876722313463687896728515625" lon="6.8852104246616363525390625">
        <ele>680</ele>
        <time>2013-08-15T15:52:59.000Z</time>
        <extensions>
          <ns3:TrackPointExtension>
            <ns3:atemp>23.0</ns3:atemp>
            <ns3:hr>142</ns3:hr>
          </ns3:TrackPointExtension>
        </extensions>
      </trkpt>
      <trkpt lat="46.68767667375504970550537109375" lon="6.8852126039564609527587890625">
        <ele>680</ele>
        <time>2013-08-15T15:53:00.000Z</time>
        <extensions>
          <ns3:TrackPointExtension>
            <ns3:atemp>23.0</ns3:atemp>
            <ns3:hr>141</ns3:hr>
          </ns3:TrackPointExtension>
        </extensions>
      </trkpt>
      <trkpt lat="46.6876752488315105438232421875" lon="6.88521704636514186859130859375">
        <ele>680</ele>
        <time>2013-08-15T15:53:01.000Z</time>
        <extensions>
          <ns3:TrackPointExtension>
            <ns3:atemp>23.0</ns3:atemp>
            <ns3:hr>140</ns3:hr>
          </ns3:TrackPointExtension>
        </extensions>
      </trkpt>
      <trkpt lat="46.68767667375504970550537109375" lon="6.8852126039564609527587890625">
        <ele>680</ele>
        <time>2013-08-15T15:53:02.000Z</time>
        <extensions>
          <ns3:TrackPointExtension>
            <ns3:atemp>23.0</ns3:atemp>
            <ns3:hr>139</ns3:hr>
          </ns3:TrackPointExtension>
        </extensions>
      </trkpt>
      <trkpt lat="46.68767600320279598236083984375" lon="6.885217130184173583984375">
        <ele>680</ele>
        <time>2013-08-15T15:53:03.000Z</time>
        <extensions>
          <ns3:TrackPointExtension>
            <ns3:atemp>23.0</ns3:atemp>
            <ns3:hr>138</ns3:hr>
          </ns3:TrackPointExtension>
        </extensions>
      </trkpt>
      <trkpt lat="46.6876762546598911285400390625" lon="6.88521771691739559173583984375">
        <ele>680</ele>
        <time>2013-08-15T15:53:04.000Z</time>
        <extensions>
          <ns3:TrackPointExtension>
            <ns3:atemp>23.0</ns3:atemp>
            <ns3:hr>138</ns3:hr>
          </ns3:TrackPointExtension>
        </extensions>
      </trkpt>
      <trkpt lat="46.6876749135553836822509765625" lon="6.88521805219352245330810546875">
        <ele>680</ele>
        <time>2013-08-15T15:53:05.000Z</time>
        <extensions>
          <ns3:TrackPointExtension>
            <ns3:atemp>23.0</ns3:atemp>
            <ns3:hr>137</ns3:hr>
          </ns3:TrackPointExtension>
        </extensions>
      </trkpt>
      <trkpt lat="46.6876675374805927276611328125" lon="6.88523791730403900146484375">
        <ele>679.79998779296875</ele>
        <time>2013-08-15T15:53:06.000Z</time>
        <extensions>
          <ns3:TrackPointExtension>
            <ns3:atemp>23.0</ns3:atemp>
            <ns3:hr>136</ns3:hr>
          </ns3:TrackPointExtension>
        </extensions>
      </trkpt>
      <trkpt lat="46.687659658491611480712890625" lon="6.88524588011205196380615234375">
        <ele>679.5999755859375</ele>
        <time>2013-08-15T15:53:07.000Z</time>
        <extensions>
          <ns3:TrackPointExtension>
            <ns3:atemp>23.0</ns3:atemp>
            <ns3:hr>136</ns3:hr>
          </ns3:TrackPointExtension>
        </extensions>
      </trkpt>
      <trkpt lat="46.68765328824520111083984375" lon="6.8852548487484455108642578125">
        <ele>679.4000244140625</ele>
        <time>2013-08-15T15:53:08.000Z</time>
        <extensions>
          <ns3:TrackPointExtension>
            <ns3:atemp>23.0</ns3:atemp>
            <ns3:hr>135</ns3:hr>
          </ns3:TrackPointExtension>
        </extensions>
      </trkpt>
      <trkpt lat="46.68764800764620304107666015625" lon="6.88527488149702548980712890625">
        <ele>679.20001220703125</ele>
        <time>2013-08-15T15:53:09.000Z</time>
        <extensions>
          <ns3:TrackPointExtension>
            <ns3:atemp>23.0</ns3:atemp>
            <ns3:hr>134</ns3:hr>
          </ns3:TrackPointExtension>
        </extensions>
      </trkpt>
      <trkpt lat="46.68764616362750530242919921875" lon="6.88529466278851032257080078125">
        <ele>679.20001220703125</ele>
        <time>2013-08-15T15:53:10.000Z</time>
        <extensions>
          <ns3:TrackPointExtension>
            <ns3:atemp>23.0</ns3:atemp>
            <ns3:hr>133</ns3:hr>
          </ns3:TrackPointExtension>
        </extensions>
      </trkpt>
      <trkpt lat="46.68764364905655384063720703125" lon="6.88531662337481975555419921875">
        <ele>679.20001220703125</ele>
        <time>2013-08-15T15:53:11.000Z</time>
        <extensions>
          <ns3:TrackPointExtension>
            <ns3:atemp>23.0</ns3:atemp>
            <ns3:hr>132</ns3:hr>
          </ns3:TrackPointExtension>
        </extensions>
      </trkpt>
      <trkpt lat="46.687640883028507232666015625" lon="6.88533774577081203460693359375">
        <ele>679</ele>
        <time>2013-08-15T15:53:12.000Z</time>
        <extensions>
          <ns3:TrackPointExtension>
            <ns3:atemp>23.0</ns3:atemp>
            <ns3:hr>131</ns3:hr>
          </ns3:TrackPointExtension>
        </extensions>
      </trkpt>
      <trkpt lat="46.68764012865722179412841796875" lon="6.88535802997648715972900390625">
        <ele>678.5999755859375</ele>
        <time>2013-08-15T15:53:13.000Z</time>
        <extensions>
          <ns3:TrackPointExtension>
            <ns3:atemp>23.0</ns3:atemp>
            <ns3:hr>130</ns3:hr>
          </ns3:TrackPointExtension>
        </extensions>
      </trkpt>
      <trkpt lat="46.68763996101915836334228515625" lon="6.885375715792179107666015625">
        <ele>678.5999755859375</ele>
        <time>2013-08-15T15:53:14.000Z</time>
        <extensions>
          <ns3:TrackPointExtension>
            <ns3:atemp>23.0</ns3:atemp>
            <ns3:hr>129</ns3:hr>
          </ns3:TrackPointExtension>
        </extensions>
      </trkpt>
      <trkpt lat="46.68764146976172924041748046875" lon="6.88538468442857265472412109375">
        <ele>678.4000244140625</ele>
        <time>2013-08-15T15:53:15.000Z</time>
        <extensions>
          <ns3:TrackPointExtension>
            <ns3:atemp>23.0</ns3:atemp>
            <ns3:hr>128</ns3:hr>
          </ns3:TrackPointExtension>
        </extensions>
      </trkpt>
      <trkpt lat="46.687648929655551910400390625" lon="6.88539658673107624053955078125">
        <ele>678.20001220703125</ele>
        <time>2013-08-15T15:53:16.000Z</time>
        <extensions>
          <ns3:TrackPointExtension>
            <ns3:atemp>23.0</ns3:atemp>
            <ns3:hr>127</ns3:hr>
          </ns3:TrackPointExtension>
        </extensions>
      </trkpt>
      <trkpt lat="46.68766024522483348846435546875" lon="6.88540446572005748748779296875">
        <ele>678.20001220703125</ele>
        <time>2013-08-15T15:53:17.000Z</time>
        <extensions>
          <ns3:TrackPointExtension>
            <ns3:atemp>23.0</ns3:atemp>
            <ns3:hr>127</ns3:hr>
          </ns3:TrackPointExtension>
        </extensions>
      </trkpt>
      <trkpt lat="46.68767516501247882843017578125" lon="6.8854067288339138031005859375">
        <ele>678</ele>
        <time>2013-08-15T15:53:18.000Z</time>
        <extensions>
          <ns3:TrackPointExtension>
            <ns3:atemp>23.0</ns3:atemp>
            <ns3:hr>126</ns3:hr>
          </ns3:TrackPointExtension>
        </extensions>
      </trkpt>
      <trkpt lat="46.687691844999790191650390625" lon="6.885395832359790802001953125">
        <ele>678</ele>
        <time>2013-08-15T15:53:19.000Z</time>
        <extensions>
          <ns3:TrackPointExtension>
            <ns3:atemp>23.0</ns3:atemp>
            <ns3:hr>125</ns3:hr>
          </ns3:TrackPointExtension>
        </extensions>
      </trkpt>
      <trkpt lat="46.6877040825784206390380859375" lon="6.88537605106830596923828125">
        <ele>678</ele>
        <time>2013-08-15T15:53:20.000Z</time>
        <extensions>
          <ns3:TrackPointExtension>
            <ns3:atemp>23.0</ns3:atemp>
            <ns3:hr>125</ns3:hr>
          </ns3:TrackPointExtension>
        </extensions>
      </trkpt>
      <trkpt lat="46.6877050884068012237548828125" lon="6.88535585068166255950927734375">
        <ele>678.20001220703125</ele>
        <time>2013-08-15T15:53:21.000Z</time>
        <extensions>
          <ns3:TrackPointExtension>
            <ns3:atemp>23.0</ns3:atemp>
            <ns3:hr>124</ns3:hr>
          </ns3:TrackPointExtension>
        </extensions>
      </trkpt>
      <trkpt lat="46.68769578449428081512451171875" lon="6.885340176522731781005859375">
        <ele>678.4000244140625</ele>
        <time>2013-08-15T15:53:22.000Z</time>
        <extensions>
          <ns3:TrackPointExtension>
            <ns3:atemp>22.0</ns3:atemp>
            <ns3:hr>125</ns3:hr>
          </ns3:TrackPointExtension>
        </extensions>
      </trkpt>
      <trkpt lat="46.687685139477252960205078125" lon="6.88532316125929355621337890625">
        <ele>678.5999755859375</ele>
        <time>2013-08-15T15:53:23.000Z</time>
        <extensions>
          <ns3:TrackPointExtension>
            <ns3:atemp>22.0</ns3:atemp>
            <ns3:hr>125</ns3:hr>
          </ns3:TrackPointExtension>
        </extensions>
      </trkpt>
      <trkpt lat="46.68767499737441539764404296875" lon="6.885301955044269561767578125">
        <ele>678.79998779296875</ele>
        <time>2013-08-15T15:53:24.000Z</time>
        <extensions>
          <ns3:TrackPointExtension>
            <ns3:atemp>22.0</ns3:atemp>
            <ns3:hr>125</ns3:hr>
          </ns3:TrackPointExtension>
        </extensions>
      </trkpt>
      <trkpt lat="46.68767047114670276641845703125" lon="6.88527085818350315093994140625">
        <ele>679</ele>
        <time>2013-08-15T15:53:25.000Z</time>
        <extensions>
          <ns3:TrackPointExtension>
            <ns3:atemp>22.0</ns3:atemp>
            <ns3:hr>125</ns3:hr>
          </ns3:TrackPointExtension>
        </extensions>
      </trkpt>
      <trkpt lat="46.6876702196896076202392578125" lon="6.88523749820888042449951171875">
        <ele>679.20001220703125</ele>
        <time>2013-08-15T15:53:26.000Z</time>
        <extensions>
          <ns3:TrackPointExtension>
            <ns3:atemp>22.0</ns3:atemp>
            <ns3:hr>125</ns3:hr>
          </ns3:TrackPointExtension>
        </extensions>
      </trkpt>
      <trkpt lat="46.68767466209828853607177734375" lon="6.88520279712975025177001953125">
        <ele>679.4000244140625</ele>
        <time>2013-08-15T15:53:27.000Z</time>
        <extensions>
          <ns3:TrackPointExtension>
            <ns3:atemp>22.0</ns3:atemp>
            <ns3:hr>126</ns3:hr>
          </ns3:TrackPointExtension>
        </extensions>
      </trkpt>
      <trkpt lat="46.6876829601824283599853515625" lon="6.885170526802539825439453125">
        <ele>679.79998779296875</ele>
        <time>2013-08-15T15:53:28.000Z</time>
        <extensions>
          <ns3:TrackPointExtension>
            <ns3:atemp>22.0</ns3:atemp>
            <ns3:hr>126</ns3:hr>
          </ns3:TrackPointExtension>
        </extensions>
      </trkpt>
      <trkpt lat="46.68769218027591705322265625" lon="6.88513959757983684539794921875">
        <ele>680</ele>
        <time>2013-08-15T15:53:29.000Z</time>
        <extensions>
          <ns3:TrackPointExtension>
            <ns3:atemp>22.0</ns3:atemp>
            <ns3:hr>126</ns3:hr>
          </ns3:TrackPointExtension>
        </extensions>
      </trkpt>
      <trkpt lat="46.68770265765488147735595703125" lon="6.8851083330810070037841796875">
        <ele>680.20001220703125</ele>
        <time>2013-08-15T15:53:30.000Z</time>
        <extensions>
          <ns3:TrackPointExtension>
            <ns3:atemp>22.0</ns3:atemp>
            <ns3:hr>126</ns3:hr>
          </ns3:TrackPointExtension>
        </extensions>
      </trkpt>
      <trkpt lat="46.68771154247224330902099609375" lon="6.88507698476314544677734375">
        <ele>680.5999755859375</ele>
        <time>2013-08-15T15:53:31.000Z</time>
        <extensions>
          <ns3:TrackPointExtension>
            <ns3:atemp>22.0</ns3:atemp>
            <ns3:hr>126</ns3:hr>
          </ns3:TrackPointExtension>
        </extensions>
      </trkpt>
      <trkpt lat="46.68771606869995594024658203125" lon="6.885045468807220458984375">
        <ele>680.79998779296875</ele>
        <time>2013-08-15T15:53:32.000Z</time>
        <extensions>
          <ns3:TrackPointExtension>
            <ns3:atemp>22.0</ns3:atemp>
            <ns3:hr>126</ns3:hr>
          </ns3:TrackPointExtension>
        </extensions>
      </trkpt>
      <trkpt lat="46.68772210367023944854736328125" lon="6.88501286320388317108154296875">
        <ele>681.5999755859375</ele>
        <time>2013-08-15T15:53:33.000Z</time>
        <extensions>
          <ns3:TrackPointExtension>
            <ns3:atemp>22.0</ns3:atemp>
            <ns3:hr>127</ns3:hr>
          </ns3:TrackPointExtension>
        </extensions>
      </trkpt>
      <trkpt lat="46.68772428296506404876708984375" lon="6.88497774302959442138671875">
        <ele>681.79998779296875</ele>
        <time>2013-08-15T15:53:34.000Z</time>
        <extensions>
          <ns3:TrackPointExtension>
            <ns3:atemp>22.0</ns3:atemp>
            <ns3:hr>127</ns3:hr>
          </ns3:TrackPointExtension>
        </extensions>
      </trkpt>
      <trkpt lat="46.68773450888693332672119140625" lon="6.884943209588527679443359375">
        <ele>682.20001220703125</ele>
        <time>2013-08-15T15:53:35.000Z</time>
        <extensions>
          <ns3:TrackPointExtension>
            <ns3:atemp>22.0</ns3:atemp>
            <ns3:hr>127</ns3:hr>
          </ns3:TrackPointExtension>
        </extensions>
      </trkpt>
      <trkpt lat="46.6877443157136440277099609375" lon="6.88491144217550754547119140625">
        <ele>682.4000244140625</ele>
        <time>2013-08-15T15:53:36.000Z</time>
        <extensions>
          <ns3:TrackPointExtension>
            <ns3:atemp>22.0</ns3:atemp>
            <ns3:hr>128</ns3:hr>
          </ns3:TrackPointExtension>
        </extensions>
      </trkpt>
      <trkpt lat="46.68775462545454502105712890625" lon="6.8848813511431217193603515625">
        <ele>682.5999755859375</ele>
        <time>2013-08-15T15:53:37.000Z</time>
        <extensions>
          <ns3:TrackPointExtension>
            <ns3:atemp>22.0</ns3:atemp>
            <ns3:hr>128</ns3:hr>
          </ns3:TrackPointExtension>
        </extensions>
      </trkpt>
      <trkpt lat="46.6877664439380168914794921875" lon="6.8848505057394504547119140625">
        <ele>682.79998779296875</ele>
        <time>2013-08-15T15:53:38.000Z</time>
        <extensions>
          <ns3:TrackPointExtension>
            <ns3:atemp>22.0</ns3:atemp>
            <ns3:hr>129</ns3:hr>
          </ns3:TrackPointExtension>
        </extensions>
      </trkpt>
      <trkpt lat="46.687777005136013031005859375" lon="6.88482175581157207489013671875">
        <ele>683.20001220703125</ele>
        <time>2013-08-15T15:53:39.000Z</time>
        <extensions>
          <ns3:TrackPointExtension>
            <ns3:atemp>22.0</ns3:atemp>
            <ns3:hr>130</ns3:hr>
          </ns3:TrackPointExtension>
        </extensions>
      </trkpt>
      <trkpt lat="46.68778195045888423919677734375" lon="6.88478873111307621002197265625">
        <ele>683.5999755859375</ele>
        <time>2013-08-15T15:53:40.000Z</time>
        <extensions>
          <ns3:TrackPointExtension>
            <ns3:atemp>22.0</ns3:atemp>
            <ns3:hr>130</ns3:hr>
          </ns3:TrackPointExtension>
        </extensions>
      </trkpt>
      <trkpt lat="46.68778748251497745513916015625" lon="6.88475436531007289886474609375">
        <ele>683.79998779296875</ele>
        <time>2013-08-15T15:53:41.000Z</time>
        <extensions>
          <ns3:TrackPointExtension>
            <ns3:atemp>22.0</ns3:atemp>
            <ns3:hr>131</ns3:hr>
          </ns3:TrackPointExtension>
        </extensions>
      </trkpt>
      <trkpt lat="46.68779502622783184051513671875" lon="6.8847220949828624725341796875">
        <ele>684</ele>
        <time>2013-08-15T15:53:42.000Z</time>
        <extensions>
          <ns3:TrackPointExtension>
            <ns3:atemp>22.0</ns3:atemp>
            <ns3:hr>131</ns3:hr>
          </ns3:TrackPointExtension>
        </extensions>
      </trkpt>
      <trkpt lat="46.6878023184835910797119140625" lon="6.8846912495791912078857421875">
        <ele>684.20001220703125</ele>
        <time>2013-08-15T15:53:43.000Z</time>
        <extensions>
          <ns3:TrackPointExtension>
            <ns3:atemp>22.0</ns3:atemp>
            <ns3:hr>131</ns3:hr>
          </ns3:TrackPointExtension>
        </extensions>
      </trkpt>
      <trkpt lat="46.687803827226161956787109375" lon="6.8846580572426319122314453125">
        <ele>684.5999755859375</ele>
        <time>2013-08-15T15:53:44.000Z</time>
        <extensions>
          <ns3:TrackPointExtension>
            <ns3:atemp>22.0</ns3:atemp>
            <ns3:hr>132</ns3:hr>
          </ns3:TrackPointExtension>
        </extensions>
      </trkpt>
      <trkpt lat="46.68780106119811534881591796875" lon="6.88462369143962860107421875">
        <ele>684.79998779296875</ele>
        <time>2013-08-15T15:53:45.000Z</time>
        <extensions>
          <ns3:TrackPointExtension>
            <ns3:atemp>22.0</ns3:atemp>
            <ns3:hr>132</ns3:hr>
          </ns3:TrackPointExtension>
        </extensions>
      </trkpt>
      <trkpt lat="46.68779318220913410186767578125" lon="6.8845896609127521514892578125">
        <ele>685</ele>
        <time>2013-08-15T15:53:46.000Z</time>
        <extensions>
          <ns3:TrackPointExtension>
            <ns3:atemp>22.0</ns3:atemp>
            <ns3:hr>133</ns3:hr>
          </ns3:TrackPointExtension>
        </extensions>
      </trkpt>
      <trkpt lat="46.68778111226856708526611328125" lon="6.88455454073846340179443359375">
        <ele>685.20001220703125</ele>
        <time>2013-08-15T15:53:47.000Z</time>
        <extensions>
          <ns3:TrackPointExtension>
            <ns3:atemp>22.0</ns3:atemp>
            <ns3:hr>133</ns3:hr>
          </ns3:TrackPointExtension>
        </extensions>
      </trkpt>
      <trkpt lat="46.68776317499577999114990234375" lon="6.8845237791538238525390625">
        <ele>685.4000244140625</ele>
        <time>2013-08-15T15:53:48.000Z</time>
        <extensions>
          <ns3:TrackPointExtension>
            <ns3:atemp>22.0</ns3:atemp>
            <ns3:hr>134</ns3:hr>
          </ns3:TrackPointExtension>
        </extensions>
      </trkpt>
      <trkpt lat="46.6877399571239948272705078125" lon="6.8844954483211040496826171875">
        <ele>685.5999755859375</ele>
        <time>2013-08-15T15:53:49.000Z</time>
        <extensions>
          <ns3:TrackPointExtension>
            <ns3:atemp>22.0</ns3:atemp>
            <ns3:hr>133</ns3:hr>
          </ns3:TrackPointExtension>
        </extensions>
      </trkpt>
      <trkpt lat="46.68771254830062389373779296875" lon="6.88447189517319202423095703125">
        <ele>685.79998779296875</ele>
        <time>2013-08-15T15:53:50.000Z</time>
        <extensions>
          <ns3:TrackPointExtension>
            <ns3:atemp>22.0</ns3:atemp>
            <ns3:hr>134</ns3:hr>
          </ns3:TrackPointExtension>
        </extensions>
      </trkpt>
      <trkpt lat="46.68768036179244518280029296875" lon="6.884445659816265106201171875">
        <ele>686</ele>
        <time>2013-08-15T15:53:51.000Z</time>
        <extensions>
          <ns3:TrackPointExtension>
            <ns3:atemp>22.0</ns3:atemp>
            <ns3:hr>134</ns3:hr>
          </ns3:TrackPointExtension>
        </extensions>
      </trkpt>
      <trkpt lat="46.68764784000813961029052734375" lon="6.88441204838454723358154296875">
        <ele>686</ele>
        <time>2013-08-15T15:53:52.000Z</time>
        <extensions>
          <ns3:TrackPointExtension>
            <ns3:atemp>22.0</ns3:atemp>
            <ns3:hr>134</ns3:hr>
          </ns3:TrackPointExtension>
        </extensions>
      </trkpt>
      <trkpt lat="46.68761305510997772216796875" lon="6.88437516801059246063232421875">
        <ele>686.20001220703125</ele>
        <time>2013-08-15T15:53:53.000Z</time>
        <extensions>
          <ns3:TrackPointExtension>
            <ns3:atemp>22.0</ns3:atemp>
            <ns3:hr>134</ns3:hr>
          </ns3:TrackPointExtension>
        </extensions>
      </trkpt>
      <trkpt lat="46.68757550418376922607421875" lon="6.8843382038176059722900390625">
        <ele>686.4000244140625</ele>
        <time>2013-08-15T15:53:54.000Z</time>
        <extensions>
          <ns3:TrackPointExtension>
            <ns3:atemp>22.0</ns3:atemp>
            <ns3:hr>134</ns3:hr>
          </ns3:TrackPointExtension>
        </extensions>
      </trkpt>
      <trkpt lat="46.68753837235271930694580078125" lon="6.88430459238588809967041015625">
        <ele>686.5999755859375</ele>
        <time>2013-08-15T15:53:55.000Z</time>
        <extensions>
          <ns3:TrackPointExtension>
            <ns3:atemp>22.0</ns3:atemp>
            <ns3:hr>135</ns3:hr>
          </ns3:TrackPointExtension>
        </extensions>
      </trkpt>
      <trkpt lat="46.68749998323619365692138671875" lon="6.8842708133161067962646484375">
        <ele>686.5999755859375</ele>
        <time>2013-08-15T15:53:56.000Z</time>
        <extensions>
          <ns3:TrackPointExtension>
            <ns3:atemp>22.0</ns3:atemp>
            <ns3:hr>135</ns3:hr>
          </ns3:TrackPointExtension>
        </extensions>
      </trkpt>
      <trkpt lat="46.68746125884354114532470703125" lon="6.8842367827892303466796875">
        <ele>686.79998779296875</ele>
        <time>2013-08-15T15:53:57.000Z</time>
        <extensions>
          <ns3:TrackPointExtension>
            <ns3:atemp>22.0</ns3:atemp>
            <ns3:hr>135</ns3:hr>
          </ns3:TrackPointExtension>
        </extensions>
      </trkpt>
      <trkpt lat="46.68742320500314235687255859375" lon="6.88419864512979984283447265625">
        <ele>687</ele>
        <time>2013-08-15T15:53:58.000Z</time>
        <extensions>
          <ns3:TrackPointExtension>
            <ns3:atemp>22.0</ns3:atemp>
            <ns3:hr>135</ns3:hr>
          </ns3:TrackPointExtension>
        </extensions>
      </trkpt>
      <trkpt lat="46.6873835586011409759521484375" lon="6.88416059128940105438232421875">
        <ele>687</ele>
        <time>2013-08-15T15:53:59.000Z</time>
        <extensions>
          <ns3:TrackPointExtension>
            <ns3:atemp>22.0</ns3:atemp>
            <ns3:hr>135</ns3:hr>
          </ns3:TrackPointExtension>
        </extensions>
      </trkpt>
      <trkpt lat="46.68734391219913959503173828125" lon="6.88412069343030452728271484375">
        <ele>687.20001220703125</ele>
        <time>2013-08-15T15:54:00.000Z</time>
        <extensions>
          <ns3:TrackPointExtension>
            <ns3:atemp>22.0</ns3:atemp>
            <ns3:hr>136</ns3:hr>
          </ns3:TrackPointExtension>
        </extensions>
      </trkpt>
      <trkpt lat="46.68730149976909160614013671875" lon="6.884084902703762054443359375">
        <ele>687.20001220703125</ele>
        <time>2013-08-15T15:54:01.000Z</time>
        <extensions>
          <ns3:TrackPointExtension>
            <ns3:atemp>22.0</ns3:atemp>
            <ns3:hr>136</ns3:hr>
          </ns3:TrackPointExtension>
        </extensions>
      </trkpt>
      <trkpt lat="46.68725891970098018646240234375" lon="6.88405145891010761260986328125">
        <ele>687.4000244140625</ele>
        <time>2013-08-15T15:54:02.000Z</time>
        <extensions>
          <ns3:TrackPointExtension>
            <ns3:atemp>22.0</ns3:atemp>
            <ns3:hr>136</ns3:hr>
          </ns3:TrackPointExtension>
        </extensions>
      </trkpt>
      <trkpt lat="46.68721566908061504364013671875" lon="6.88401591964066028594970703125">
        <ele>687.4000244140625</ele>
        <time>2013-08-15T15:54:03.000Z</time>
        <extensions>
          <ns3:TrackPointExtension>
            <ns3:atemp>22.0</ns3:atemp>
            <ns3:hr>136</ns3:hr>
          </ns3:TrackPointExtension>
        </extensions>
      </trkpt>
      <trkpt lat="46.687173508107662200927734375" lon="6.88397535122931003570556640625">
        <ele>687.4000244140625</ele>
        <time>2013-08-15T15:54:04.000Z</time>
        <extensions>
          <ns3:TrackPointExtension>
            <ns3:atemp>22.0</ns3:atemp>
            <ns3:hr>136</ns3:hr>
          </ns3:TrackPointExtension>
        </extensions>
      </trkpt>
      <trkpt lat="46.6871322691440582275390625" lon="6.8839331902563571929931640625">
        <ele>687.5999755859375</ele>
        <time>2013-08-15T15:54:05.000Z</time>
        <extensions>
          <ns3:TrackPointExtension>
            <ns3:atemp>22.0</ns3:atemp>
            <ns3:hr>136</ns3:hr>
          </ns3:TrackPointExtension>
        </extensions>
      </trkpt>
      <trkpt lat="46.68709161691367626190185546875" lon="6.88389010727405548095703125">
        <ele>687.5999755859375</ele>
        <time>2013-08-15T15:54:06.000Z</time>
        <extensions>
          <ns3:TrackPointExtension>
            <ns3:atemp>22.0</ns3:atemp>
            <ns3:hr>136</ns3:hr>
          </ns3:TrackPointExtension>
        </extensions>
      </trkpt>
      <trkpt lat="46.687049455940723419189453125" lon="6.883849203586578369140625">
        <ele>687.79998779296875</ele>
        <time>2013-08-15T15:54:07.000Z</time>
        <extensions>
          <ns3:TrackPointExtension>
            <ns3:atemp>22.0</ns3:atemp>
            <ns3:hr>135</ns3:hr>
          </ns3:TrackPointExtension>
        </extensions>
      </trkpt>
      <trkpt lat="46.6870062053203582763671875" lon="6.88380855135619640350341796875">
        <ele>688</ele>
        <time>2013-08-15T15:54:08.000Z</time>
        <extensions>
          <ns3:TrackPointExtension>
            <ns3:atemp>22.0</ns3:atemp>
            <ns3:hr>136</ns3:hr>
          </ns3:TrackPointExtension>
        </extensions>
      </trkpt>
      <trkpt lat="46.68696370907127857208251953125" lon="6.88376630656421184539794921875">
        <ele>688</ele>
        <time>2013-08-15T15:54:09.000Z</time>
        <extensions>
          <ns3:TrackPointExtension>
            <ns3:atemp>22.0</ns3:atemp>
            <ns3:hr>135</ns3:hr>
          </ns3:TrackPointExtension>
        </extensions>
      </trkpt>
      <trkpt lat="46.6869230568408966064453125" lon="6.88372003845870494842529296875">
        <ele>688.20001220703125</ele>
        <time>2013-08-15T15:54:10.000Z</time>
        <extensions>
          <ns3:TrackPointExtension>
            <ns3:atemp>22.0</ns3:atemp>
            <ns3:hr>135</ns3:hr>
          </ns3:TrackPointExtension>
        </extensions>
      </trkpt>
      <trkpt lat="46.686880476772785186767578125" lon="6.88367779366672039031982421875">
        <ele>688.20001220703125</ele>
        <time>2013-08-15T15:54:11.000Z</time>
        <extensions>
          <ns3:TrackPointExtension>
            <ns3:atemp>22.0</ns3:atemp>
            <ns3:hr>135</ns3:hr>
          </ns3:TrackPointExtension>
        </extensions>
      </trkpt>
      <trkpt lat="46.68683747760951519012451171875" lon="6.88363739289343357086181640625">
        <ele>688.20001220703125</ele>
        <time>2013-08-15T15:54:12.000Z</time>
        <extensions>
          <ns3:TrackPointExtension>
            <ns3:atemp>22.0</ns3:atemp>
            <ns3:hr>135</ns3:hr>
          </ns3:TrackPointExtension>
        </extensions>
      </trkpt>
      <trkpt lat="46.6867944784462451934814453125" lon="6.8835985846817493438720703125">
        <ele>688.20001220703125</ele>
        <time>2013-08-15T15:54:13.000Z</time>
        <extensions>
          <ns3:TrackPointExtension>
            <ns3:atemp>22.0</ns3:atemp>
            <ns3:hr>135</ns3:hr>
          </ns3:TrackPointExtension>
        </extensions>
      </trkpt>
      <trkpt lat="46.686752401292324066162109375" lon="6.8835620395839214324951171875">
        <ele>688.20001220703125</ele>
        <time>2013-08-15T15:54:14.000Z</time>
        <extensions>
          <ns3:TrackPointExtension>
            <ns3:atemp>22.0</ns3:atemp>
            <ns3:hr>134</ns3:hr>
          </ns3:TrackPointExtension>
        </extensions>
      </trkpt>
      <trkpt lat="46.68670780956745147705078125" lon="6.88352474011480808258056640625">
        <ele>688.4000244140625</ele>
        <time>2013-08-15T15:54:15.000Z</time>
        <extensions>
          <ns3:TrackPointExtension>
            <ns3:atemp>22.0</ns3:atemp>
            <ns3:hr>134</ns3:hr>
          </ns3:TrackPointExtension>
        </extensions>
      </trkpt>
      <trkpt lat="46.68666363693773746490478515625" lon="6.88348920084536075592041015625">
        <ele>688.4000244140625</ele>
        <time>2013-08-15T15:54:16.000Z</time>
        <extensions>
          <ns3:TrackPointExtension>
            <ns3:atemp>22.0</ns3:atemp>
            <ns3:hr>133</ns3:hr>
          </ns3:TrackPointExtension>
        </extensions>
      </trkpt>
      <trkpt lat="46.68662005104124546051025390625" lon="6.88345114700496196746826171875">
        <ele>688.5999755859375</ele>
        <time>2013-08-15T15:54:17.000Z</time>
        <extensions>
          <ns3:TrackPointExtension>
            <ns3:atemp>22.0</ns3:atemp>
            <ns3:hr>133</ns3:hr>
          </ns3:TrackPointExtension>
        </extensions>
      </trkpt>
      <trkpt lat="46.686576716601848602294921875" lon="6.88341267406940460205078125">
        <ele>688.79998779296875</ele>
        <time>2013-08-15T15:54:18.000Z</time>
        <extensions>
          <ns3:TrackPointExtension>
            <ns3:atemp>22.0</ns3:atemp>
            <ns3:hr>133</ns3:hr>
          </ns3:TrackPointExtension>
        </extensions>
      </trkpt>
      <trkpt lat="46.68653505854308605194091796875" lon="6.883372776210308074951171875">
        <ele>689</ele>
        <time>2013-08-15T15:54:19.000Z</time>
        <extensions>
          <ns3:TrackPointExtension>
            <ns3:atemp>22.0</ns3:atemp>
            <ns3:hr>134</ns3:hr>
          </ns3:TrackPointExtension>
        </extensions>
      </trkpt>
      <trkpt lat="46.686492897570133209228515625" lon="6.88333489000797271728515625">
        <ele>689.20001220703125</ele>
        <time>2013-08-15T15:54:20.000Z</time>
        <extensions>
          <ns3:TrackPointExtension>
            <ns3:atemp>22.0</ns3:atemp>
            <ns3:hr>134</ns3:hr>
          </ns3:TrackPointExtension>
        </extensions>
      </trkpt>
      <trkpt lat="46.6864508204162120819091796875" lon="6.88329524360597133636474609375">
        <ele>689.5999755859375</ele>
        <time>2013-08-15T15:54:21.000Z</time>
        <extensions>
          <ns3:TrackPointExtension>
            <ns3:atemp>22.0</ns3:atemp>
            <ns3:hr>134</ns3:hr>
          </ns3:TrackPointExtension>
        </extensions>
      </trkpt>
      <trkpt lat="46.68641000054776668548583984375" lon="6.8832552619278430938720703125">
        <ele>689.5999755859375</ele>
        <time>2013-08-15T15:54:22.000Z</time>
        <extensions>
          <ns3:TrackPointExtension>
            <ns3:atemp>22.0</ns3:atemp>
            <ns3:hr>133</ns3:hr>
          </ns3:TrackPointExtension>
        </extensions>
      </trkpt>
      <trkpt lat="46.68636842630803585052490234375" lon="6.8832167051732540130615234375">
        <ele>689.79998779296875</ele>
        <time>2013-08-15T15:54:23.000Z</time>
        <extensions>
          <ns3:TrackPointExtension>
            <ns3:atemp>22.0</ns3:atemp>
            <ns3:hr>133</ns3:hr>
          </ns3:TrackPointExtension>
        </extensions>
      </trkpt>
      <trkpt lat="46.68632718734443187713623046875" lon="6.8831781484186649322509765625">
        <ele>690</ele>
        <time>2013-08-15T15:54:24.000Z</time>
        <extensions>
          <ns3:TrackPointExtension>
            <ns3:atemp>22.0</ns3:atemp>
            <ns3:hr>133</ns3:hr>
          </ns3:TrackPointExtension>
        </extensions>
      </trkpt>
      <trkpt lat="46.6862861998379230499267578125" lon="6.8831392563879489898681640625">
        <ele>690.20001220703125</ele>
        <time>2013-08-15T15:54:25.000Z</time>
        <extensions>
          <ns3:TrackPointExtension>
            <ns3:atemp>22.0</ns3:atemp>
            <ns3:hr>133</ns3:hr>
          </ns3:TrackPointExtension>
        </extensions>
      </trkpt>
      <trkpt lat="46.68624454177916049957275390625" lon="6.88310086727142333984375">
        <ele>690.4000244140625</ele>
        <time>2013-08-15T15:54:26.000Z</time>
        <extensions>
          <ns3:TrackPointExtension>
            <ns3:atemp>22.0</ns3:atemp>
            <ns3:hr>133</ns3:hr>
          </ns3:TrackPointExtension>
        </extensions>
      </trkpt>
      <trkpt lat="46.68620246462523937225341796875" lon="6.88306105323135852813720703125">
        <ele>690.5999755859375</ele>
        <time>2013-08-15T15:54:27.000Z</time>
        <extensions>
          <ns3:TrackPointExtension>
            <ns3:atemp>22.0</ns3:atemp>
            <ns3:hr>133</ns3:hr>
          </ns3:TrackPointExtension>
        </extensions>
      </trkpt>
      <trkpt lat="46.68616508133709430694580078125" lon="6.883016712963581085205078125">
        <ele>690.79998779296875</ele>
        <time>2013-08-15T15:54:28.000Z</time>
        <extensions>
          <ns3:TrackPointExtension>
            <ns3:atemp>22.0</ns3:atemp>
            <ns3:hr>133</ns3:hr>
          </ns3:TrackPointExtension>
        </extensions>
      </trkpt>
      <trkpt lat="46.6861299611628055572509765625" lon="6.88296340405941009521484375">
        <ele>691</ele>
        <time>2013-08-15T15:54:29.000Z</time>
        <extensions>
          <ns3:TrackPointExtension>
            <ns3:atemp>22.0</ns3:atemp>
            <ns3:hr>133</ns3:hr>
          </ns3:TrackPointExtension>
        </extensions>
      </trkpt>
      <trkpt lat="46.68609970249235630035400390625" lon="6.88290037214756011962890625">
        <ele>690.79998779296875</ele>
        <time>2013-08-15T15:54:30.000Z</time>
        <extensions>
          <ns3:TrackPointExtension>
            <ns3:atemp>22.0</ns3:atemp>
            <ns3:hr>133</ns3:hr>
          </ns3:TrackPointExtension>
        </extensions>
      </trkpt>
      <trkpt lat="46.68607573024928569793701171875" lon="6.88283004797995090484619140625">
        <ele>690.79998779296875</ele>
        <time>2013-08-15T15:54:31.000Z</time>
        <extensions>
          <ns3:TrackPointExtension>
            <ns3:atemp>22.0</ns3:atemp>
            <ns3:hr>133</ns3:hr>
          </ns3:TrackPointExtension>
        </extensions>
      </trkpt>
      <trkpt lat="46.68605360202491283416748046875" lon="6.88276031054556369781494140625">
        <ele>690.79998779296875</ele>
        <time>2013-08-15T15:54:32.000Z</time>
        <extensions>
          <ns3:TrackPointExtension>
            <ns3:atemp>22.0</ns3:atemp>
            <ns3:hr>133</ns3:hr>
          </ns3:TrackPointExtension>
        </extensions>
      </trkpt>
      <trkpt lat="46.68603432364761829376220703125" lon="6.88269292004406452178955078125">
        <ele>691</ele>
        <time>2013-08-15T15:54:33.000Z</time>
        <extensions>
          <ns3:TrackPointExtension>
            <ns3:atemp>22.0</ns3:atemp>
            <ns3:hr>133</ns3:hr>
          </ns3:TrackPointExtension>
        </extensions>
      </trkpt>
      <trkpt lat="46.68601672165095806121826171875" lon="6.8826282955706119537353515625">
        <ele>691.20001220703125</ele>
        <time>2013-08-15T15:54:34.000Z</time>
        <extensions>
          <ns3:TrackPointExtension>
            <ns3:atemp>22.0</ns3:atemp>
            <ns3:hr>133</ns3:hr>
          </ns3:TrackPointExtension>
        </extensions>
      </trkpt>
      <trkpt lat="46.686005406081676483154296875" lon="6.88255394808948040008544921875">
        <ele>691.4000244140625</ele>
        <time>2013-08-15T15:54:35.000Z</time>
        <extensions>
          <ns3:TrackPointExtension>
            <ns3:atemp>22.0</ns3:atemp>
            <ns3:hr>132</ns3:hr>
          </ns3:TrackPointExtension>
        </extensions>
      </trkpt>
      <trkpt lat="46.68601202778518199920654296875" lon="6.88248069025576114654541015625">
        <ele>691.5999755859375</ele>
        <time>2013-08-15T15:54:36.000Z</time>
        <extensions>
          <ns3:TrackPointExtension>
            <ns3:atemp>22.0</ns3:atemp>
            <ns3:hr>132</ns3:hr>
          </ns3:TrackPointExtension>
        </extensions>
      </trkpt>
      <trkpt lat="46.686028540134429931640625" lon="6.8824117071926593780517578125">
        <ele>692</ele>
        <time>2013-08-15T15:54:37.000Z</time>
        <extensions>
          <ns3:TrackPointExtension>
            <ns3:atemp>22.0</ns3:atemp>
            <ns3:hr>132</ns3:hr>
          </ns3:TrackPointExtension>
        </extensions>
      </trkpt>
      <trkpt lat="46.68604874052107334136962890625" lon="6.8823493458330631256103515625">
        <ele>692.5999755859375</ele>
        <time>2013-08-15T15:54:38.000Z</time>
        <extensions>
          <ns3:TrackPointExtension>
            <ns3:atemp>22.0</ns3:atemp>
            <ns3:hr>133</ns3:hr>
          </ns3:TrackPointExtension>
        </extensions>
      </trkpt>
      <trkpt lat="46.68607187457382678985595703125" lon="6.882287822663784027099609375">
        <ele>692.79998779296875</ele>
        <time>2013-08-15T15:54:39.000Z</time>
        <extensions>
          <ns3:TrackPointExtension>
            <ns3:atemp>22.0</ns3:atemp>
            <ns3:hr>133</ns3:hr>
          </ns3:TrackPointExtension>
        </extensions>
      </trkpt>
      <trkpt lat="46.6860960982739925384521484375" lon="6.88222621567547321319580078125">
        <ele>693.20001220703125</ele>
        <time>2013-08-15T15:54:40.000Z</time>
        <extensions>
          <ns3:TrackPointExtension>
            <ns3:atemp>22.0</ns3:atemp>
            <ns3:hr>133</ns3:hr>
          </ns3:TrackPointExtension>
        </extensions>
      </trkpt>
      <trkpt lat="46.68612040579319000244140625" lon="6.88216284848749637603759765625">
        <ele>693.4000244140625</ele>
        <time>2013-08-15T15:54:41.000Z</time>
        <extensions>
          <ns3:TrackPointExtension>
            <ns3:atemp>22.0</ns3:atemp>
            <ns3:hr>133</ns3:hr>
          </ns3:TrackPointExtension>
        </extensions>
      </trkpt>
      <trkpt lat="46.686146892607212066650390625" lon="6.8820952065289020538330078125">
        <ele>693.5999755859375</ele>
        <time>2013-08-15T15:54:42.000Z</time>
        <extensions>
          <ns3:TrackPointExtension>
            <ns3:atemp>22.0</ns3:atemp>
            <ns3:hr>133</ns3:hr>
          </ns3:TrackPointExtension>
        </extensions>
      </trkpt>
      <trkpt lat="46.6861774027347564697265625" lon="6.88202756457030773162841796875">
        <ele>693.5999755859375</ele>
        <time>2013-08-15T15:54:43.000Z</time>
        <extensions>
          <ns3:TrackPointExtension>
            <ns3:atemp>22.0</ns3:atemp>
            <ns3:hr>133</ns3:hr>
          </ns3:TrackPointExtension>
        </extensions>
      </trkpt>
      <trkpt lat="46.6862100921571254730224609375" lon="6.88195648603141307830810546875">
        <ele>693.4000244140625</ele>
        <time>2013-08-15T15:54:44.000Z</time>
        <extensions>
          <ns3:TrackPointExtension>
            <ns3:atemp>22.0</ns3:atemp>
            <ns3:hr>133</ns3:hr>
          </ns3:TrackPointExtension>
        </extensions>
      </trkpt>
      <trkpt lat="46.68624688871204853057861328125" lon="6.88188523985445499420166015625">
        <ele>693.4000244140625</ele>
        <time>2013-08-15T15:54:45.000Z</time>
        <extensions>
          <ns3:TrackPointExtension>
            <ns3:atemp>22.0</ns3:atemp>
            <ns3:hr>134</ns3:hr>
          </ns3:TrackPointExtension>
        </extensions>
      </trkpt>
      <trkpt lat="46.68628594838082790374755859375" lon="6.88181265257298946380615234375">
        <ele>693.4000244140625</ele>
        <time>2013-08-15T15:54:46.000Z</time>
        <extensions>
          <ns3:TrackPointExtension>
            <ns3:atemp>22.0</ns3:atemp>
            <ns3:hr>133</ns3:hr>
          </ns3:TrackPointExtension>
        </extensions>
      </trkpt>
      <trkpt lat="46.68632266111671924591064453125" lon="6.8817351199686527252197265625">
        <ele>693.20001220703125</ele>
        <time>2013-08-15T15:54:47.000Z</time>
        <extensions>
          <ns3:TrackPointExtension>
            <ns3:atemp>22.0</ns3:atemp>
            <ns3:hr>133</ns3:hr>
          </ns3:TrackPointExtension>
        </extensions>
      </trkpt>
      <trkpt lat="46.6863613016903400421142578125" lon="6.881653480231761932373046875">
        <ele>693.20001220703125</ele>
        <time>2013-08-15T15:54:48.000Z</time>
        <extensions>
          <ns3:TrackPointExtension>
            <ns3:atemp>22.0</ns3:atemp>
            <ns3:hr>133</ns3:hr>
          </ns3:TrackPointExtension>
        </extensions>
      </trkpt>
      <trkpt lat="46.6864025406539440155029296875" lon="6.881571672856807708740234375">
        <ele>692.79998779296875</ele>
        <time>2013-08-15T15:54:49.000Z</time>
        <extensions>
          <ns3:TrackPointExtension>
            <ns3:atemp>22.0</ns3:atemp>
            <ns3:hr>132</ns3:hr>
          </ns3:TrackPointExtension>
        </extensions>
      </trkpt>
      <trkpt lat="46.6864451207220554351806640625" lon="6.88148844055831432342529296875">
        <ele>692.79998779296875</ele>
        <time>2013-08-15T15:54:50.000Z</time>
        <extensions>
          <ns3:TrackPointExtension>
            <ns3:atemp>22.0</ns3:atemp>
            <ns3:hr>132</ns3:hr>
          </ns3:TrackPointExtension>
        </extensions>
      </trkpt>
      <trkpt lat="46.6864880360662937164306640625" lon="6.88140177167952060699462890625">
        <ele>692.5999755859375</ele>
        <time>2013-08-15T15:54:51.000Z</time>
        <extensions>
          <ns3:TrackPointExtension>
            <ns3:atemp>22.0</ns3:atemp>
            <ns3:hr>131</ns3:hr>
          </ns3:TrackPointExtension>
        </extensions>
      </trkpt>
      <trkpt lat="46.68652810156345367431640625" lon="6.88131610862910747528076171875">
        <ele>692.79998779296875</ele>
        <time>2013-08-15T15:54:52.000Z</time>
        <extensions>
          <ns3:TrackPointExtension>
            <ns3:atemp>22.0</ns3:atemp>
            <ns3:hr>131</ns3:hr>
          </ns3:TrackPointExtension>
        </extensions>
      </trkpt>
      <trkpt lat="46.68656506575644016265869140625" lon="6.88123296014964580535888671875">
        <ele>692.5999755859375</ele>
        <time>2013-08-15T15:54:53.000Z</time>
        <extensions>
          <ns3:TrackPointExtension>
            <ns3:atemp>22.0</ns3:atemp>
            <ns3:hr>131</ns3:hr>
          </ns3:TrackPointExtension>
        </extensions>
      </trkpt>
      <trkpt lat="46.68660278432071208953857421875" lon="6.88115132041275501251220703125">
        <ele>692.5999755859375</ele>
        <time>2013-08-15T15:54:54.000Z</time>
        <extensions>
          <ns3:TrackPointExtension>
            <ns3:atemp>22.0</ns3:atemp>
            <ns3:hr>130</ns3:hr>
          </ns3:TrackPointExtension>
        </extensions>
      </trkpt>
      <trkpt lat="46.686637736856937408447265625" lon="6.8810744583606719970703125">
        <ele>692.79998779296875</ele>
        <time>2013-08-15T15:54:55.000Z</time>
        <extensions>
          <ns3:TrackPointExtension>
            <ns3:atemp>22.0</ns3:atemp>
            <ns3:hr>130</ns3:hr>
          </ns3:TrackPointExtension>
        </extensions>
      </trkpt>
      <trkpt lat="46.68667034246027469635009765625" lon="6.88100631348788738250732421875">
        <ele>693.20001220703125</ele>
        <time>2013-08-15T15:54:56.000Z</time>
        <extensions>
          <ns3:TrackPointExtension>
            <ns3:atemp>22.0</ns3:atemp>
            <ns3:hr>129</ns3:hr>
          </ns3:TrackPointExtension>
        </extensions>
      </trkpt>
      <trkpt lat="46.68670034967362880706787109375" lon="6.8809462152421474456787109375">
        <ele>693.4000244140625</ele>
        <time>2013-08-15T15:54:57.000Z</time>
        <extensions>
          <ns3:TrackPointExtension>
            <ns3:atemp>22.0</ns3:atemp>
            <ns3:hr>129</ns3:hr>
          </ns3:TrackPointExtension>
        </extensions>
      </trkpt>
      <trkpt lat="46.6867277584969997406005859375" lon="6.8808908946812152862548828125">
        <ele>693.5999755859375</ele>
        <time>2013-08-15T15:54:58.000Z</time>
        <extensions>
          <ns3:TrackPointExtension>
            <ns3:atemp>22.0</ns3:atemp>
            <ns3:hr>129</ns3:hr>
          </ns3:TrackPointExtension>
        </extensions>
      </trkpt>
      <trkpt lat="46.6867539100348949432373046875" lon="6.8808385916054248809814453125">
        <ele>693.79998779296875</ele>
        <time>2013-08-15T15:54:59.000Z</time>
        <extensions>
          <ns3:TrackPointExtension>
            <ns3:atemp>22.0</ns3:atemp>
            <ns3:hr>129</ns3:hr>
          </ns3:TrackPointExtension>
        </extensions>
      </trkpt>
      <trkpt lat="46.6867787204682826995849609375" lon="6.88079215586185455322265625">
        <ele>694</ele>
        <time>2013-08-15T15:55:00.000Z</time>
        <extensions>
          <ns3:TrackPointExtension>
            <ns3:atemp>22.0</ns3:atemp>
            <ns3:hr>128</ns3:hr>
          </ns3:TrackPointExtension>
        </extensions>
      </trkpt>
      <trkpt lat="46.68680210597813129425048828125" lon="6.8807447142899036407470703125">
        <ele>694.4000244140625</ele>
        <time>2013-08-15T15:55:01.000Z</time>
        <extensions>
          <ns3:TrackPointExtension>
            <ns3:atemp>22.0</ns3:atemp>
            <ns3:hr>129</ns3:hr>
          </ns3:TrackPointExtension>
        </extensions>
      </trkpt>
      <trkpt lat="46.6868219710886478424072265625" lon="6.880695261061191558837890625">
        <ele>694.5999755859375</ele>
        <time>2013-08-15T15:55:02.000Z</time>
        <extensions>
          <ns3:TrackPointExtension>
            <ns3:atemp>22.0</ns3:atemp>
            <ns3:hr>129</ns3:hr>
          </ns3:TrackPointExtension>
        </extensions>
      </trkpt>
      <trkpt lat="46.68683915399014949798583984375" lon="6.88064471818506717681884765625">
        <ele>695</ele>
        <time>2013-08-15T15:55:03.000Z</time>
        <extensions>
          <ns3:TrackPointExtension>
            <ns3:atemp>22.0</ns3:atemp>
            <ns3:hr>129</ns3:hr>
          </ns3:TrackPointExtension>
        </extensions>
      </trkpt>
      <trkpt lat="46.68685826472938060760498046875" lon="6.88059308566153049468994140625">
        <ele>695.4000244140625</ele>
        <time>2013-08-15T15:55:04.000Z</time>
        <extensions>
          <ns3:TrackPointExtension>
            <ns3:atemp>22.0</ns3:atemp>
            <ns3:hr>129</ns3:hr>
          </ns3:TrackPointExtension>
        </extensions>
      </trkpt>
      <trkpt lat="46.68688190169632434844970703125" lon="6.88054539263248443603515625">
        <ele>695.79998779296875</ele>
        <time>2013-08-15T15:55:05.000Z</time>
        <extensions>
          <ns3:TrackPointExtension>
            <ns3:atemp>22.0</ns3:atemp>
            <ns3:hr>129</ns3:hr>
          </ns3:TrackPointExtension>
        </extensions>
      </trkpt>
      <trkpt lat="46.68690402992069721221923828125" lon="6.8804992921650409698486328125">
        <ele>696</ele>
        <time>2013-08-15T15:55:06.000Z</time>
        <extensions>
          <ns3:TrackPointExtension>
            <ns3:atemp>22.0</ns3:atemp>
            <ns3:hr>129</ns3:hr>
          </ns3:TrackPointExtension>
        </extensions>
      </trkpt>
      <trkpt lat="46.68692448176443576812744140625" lon="6.88045511953532695770263671875">
        <ele>696.4000244140625</ele>
        <time>2013-08-15T15:55:07.000Z</time>
        <extensions>
          <ns3:TrackPointExtension>
            <ns3:atemp>22.0</ns3:atemp>
            <ns3:hr>129</ns3:hr>
          </ns3:TrackPointExtension>
        </extensions>
      </trkpt>
      <trkpt lat="46.686945520341396331787109375" lon="6.88041136600077152252197265625">
        <ele>696.5999755859375</ele>
        <time>2013-08-15T15:55:08.000Z</time>
        <extensions>
          <ns3:TrackPointExtension>
            <ns3:atemp>22.0</ns3:atemp>
            <ns3:hr>130</ns3:hr>
          </ns3:TrackPointExtension>
        </extensions>
      </trkpt>
      <trkpt lat="46.68696873821318149566650390625" lon="6.88037012703716754913330078125">
        <ele>697.20001220703125</ele>
        <time>2013-08-15T15:55:09.000Z</time>
        <extensions>
          <ns3:TrackPointExtension>
            <ns3:atemp>22.0</ns3:atemp>
            <ns3:hr>130</ns3:hr>
          </ns3:TrackPointExtension>
        </extensions>
      </trkpt>
      <trkpt lat="46.68699136935174465179443359375" lon="6.88032679259777069091796875">
        <ele>697.5999755859375</ele>
        <time>2013-08-15T15:55:10.000Z</time>
        <extensions>
          <ns3:TrackPointExtension>
            <ns3:atemp>22.0</ns3:atemp>
            <ns3:hr>130</ns3:hr>
          </ns3:TrackPointExtension>
        </extensions>
      </trkpt>
      <trkpt lat="46.687015928328037261962890625" lon="6.88028513453900814056396484375">
        <ele>698</ele>
        <time>2013-08-15T15:55:11.000Z</time>
        <extensions>
          <ns3:TrackPointExtension>
            <ns3:atemp>22.0</ns3:atemp>
            <ns3:hr>131</ns3:hr>
          </ns3:TrackPointExtension>
        </extensions>
      </trkpt>
      <trkpt lat="46.68703881092369556427001953125" lon="6.88024356029927730560302734375">
        <ele>698.20001220703125</ele>
        <time>2013-08-15T15:55:12.000Z</time>
        <extensions>
          <ns3:TrackPointExtension>
            <ns3:atemp>22.0</ns3:atemp>
            <ns3:hr>131</ns3:hr>
          </ns3:TrackPointExtension>
        </extensions>
      </trkpt>
      <trkpt lat="46.68705825693905353546142578125" lon="6.880198381841182708740234375">
        <ele>698.4000244140625</ele>
        <time>2013-08-15T15:55:13.000Z</time>
        <extensions>
          <ns3:TrackPointExtension>
            <ns3:atemp>22.0</ns3:atemp>
            <ns3:hr>132</ns3:hr>
          </ns3:TrackPointExtension>
        </extensions>
      </trkpt>
      <trkpt lat="46.68707703240215778350830078125" lon="6.88015244901180267333984375">
        <ele>698.5999755859375</ele>
        <time>2013-08-15T15:55:14.000Z</time>
        <extensions>
          <ns3:TrackPointExtension>
            <ns3:atemp>22.0</ns3:atemp>
            <ns3:hr>132</ns3:hr>
          </ns3:TrackPointExtension>
        </extensions>
      </trkpt>
      <trkpt lat="46.68709362857043743133544921875" lon="6.8801053427159786224365234375">
        <ele>698.5999755859375</ele>
        <time>2013-08-15T15:55:15.000Z</time>
        <extensions>
          <ns3:TrackPointExtension>
            <ns3:atemp>22.0</ns3:atemp>
            <ns3:hr>132</ns3:hr>
          </ns3:TrackPointExtension>
        </extensions>
      </trkpt>
      <trkpt lat="46.68711483478546142578125" lon="6.88006418757140636444091796875">
        <ele>698.79998779296875</ele>
        <time>2013-08-15T15:55:16.000Z</time>
        <extensions>
          <ns3:TrackPointExtension>
            <ns3:atemp>22.0</ns3:atemp>
            <ns3:hr>132</ns3:hr>
          </ns3:TrackPointExtension>
        </extensions>
      </trkpt>
      <trkpt lat="46.6871349513530731201171875" lon="6.8800188414752483367919921875">
        <ele>699</ele>
        <time>2013-08-15T15:55:17.000Z</time>
        <extensions>
          <ns3:TrackPointExtension>
            <ns3:atemp>22.0</ns3:atemp>
            <ns3:hr>133</ns3:hr>
          </ns3:TrackPointExtension>
        </extensions>
      </trkpt>
      <trkpt lat="46.68715716339647769927978515625" lon="6.87997533939778804779052734375">
        <ele>699.4000244140625</ele>
        <time>2013-08-15T15:55:18.000Z</time>
        <extensions>
          <ns3:TrackPointExtension>
            <ns3:atemp>22.0</ns3:atemp>
            <ns3:hr>133</ns3:hr>
          </ns3:TrackPointExtension>
        </extensions>
      </trkpt>
      <trkpt lat="46.6871813870966434478759765625" lon="6.87993326224386692047119140625">
        <ele>699.5999755859375</ele>
        <time>2013-08-15T15:55:19.000Z</time>
        <extensions>
          <ns3:TrackPointExtension>
            <ns3:atemp>22.0</ns3:atemp>
            <ns3:hr>133</ns3:hr>
          </ns3:TrackPointExtension>
        </extensions>
      </trkpt>
      <trkpt lat="46.68720544315874576568603515625" lon="6.87989051453769207000732421875">
        <ele>700</ele>
        <time>2013-08-15T15:55:20.000Z</time>
        <extensions>
          <ns3:TrackPointExtension>
            <ns3:atemp>22.0</ns3:atemp>
            <ns3:hr>134</ns3:hr>
          </ns3:TrackPointExtension>
        </extensions>
      </trkpt>
      <trkpt lat="46.68722857721149921417236328125" lon="6.87984726391732692718505859375">
        <ele>700.20001220703125</ele>
        <time>2013-08-15T15:55:21.000Z</time>
        <extensions>
          <ns3:TrackPointExtension>
            <ns3:atemp>22.0</ns3:atemp>
            <ns3:hr>134</ns3:hr>
          </ns3:TrackPointExtension>
        </extensions>
      </trkpt>
      <trkpt lat="46.68725020252168178558349609375" lon="6.879799403250217437744140625">
        <ele>700.4000244140625</ele>
        <time>2013-08-15T15:55:22.000Z</time>
        <extensions>
          <ns3:TrackPointExtension>
            <ns3:atemp>22.0</ns3:atemp>
            <ns3:hr>135</ns3:hr>
          </ns3:TrackPointExtension>
        </extensions>
      </trkpt>
      <trkpt lat="46.68727132491767406463623046875" lon="6.87975036911666393280029296875">
        <ele>700.5999755859375</ele>
        <time>2013-08-15T15:55:23.000Z</time>
        <extensions>
          <ns3:TrackPointExtension>
            <ns3:atemp>22.0</ns3:atemp>
            <ns3:hr>135</ns3:hr>
          </ns3:TrackPointExtension>
        </extensions>
      </trkpt>
      <trkpt lat="46.68729412369430065155029296875" lon="6.8797016702592372894287109375">
        <ele>700.79998779296875</ele>
        <time>2013-08-15T15:55:24.000Z</time>
        <extensions>
          <ns3:TrackPointExtension>
            <ns3:atemp>22.0</ns3:atemp>
            <ns3:hr>135</ns3:hr>
          </ns3:TrackPointExtension>
        </extensions>
      </trkpt>
      <trkpt lat="46.68731507845222949981689453125" lon="6.879653893411159515380859375">
        <ele>701</ele>
        <time>2013-08-15T15:55:25.000Z</time>
        <extensions>
          <ns3:TrackPointExtension>
            <ns3:atemp>22.0</ns3:atemp>
            <ns3:hr>136</ns3:hr>
          </ns3:TrackPointExtension>
        </extensions>
      </trkpt>
      <trkpt lat="46.68733737431466579437255859375" lon="6.87960569746792316436767578125">
        <ele>701.4000244140625</ele>
        <time>2013-08-15T15:55:26.000Z</time>
        <extensions>
          <ns3:TrackPointExtension>
            <ns3:atemp>22.0</ns3:atemp>
            <ns3:hr>136</ns3:hr>
          </ns3:TrackPointExtension>
        </extensions>
      </trkpt>
      <trkpt lat="46.6873604245483875274658203125" lon="6.87955909408628940582275390625">
        <ele>701.5999755859375</ele>
        <time>2013-08-15T15:55:27.000Z</time>
        <extensions>
          <ns3:TrackPointExtension>
            <ns3:atemp>22.0</ns3:atemp>
            <ns3:hr>136</ns3:hr>
          </ns3:TrackPointExtension>
        </extensions>
      </trkpt>
      <trkpt lat="46.68738179840147495269775390625" lon="6.87951249070465564727783203125">
        <ele>701.79998779296875</ele>
        <time>2013-08-15T15:55:28.000Z</time>
        <extensions>
          <ns3:TrackPointExtension>
            <ns3:atemp>22.0</ns3:atemp>
            <ns3:hr>137</ns3:hr>
          </ns3:TrackPointExtension>
        </extensions>
      </trkpt>
      <trkpt lat="46.6874006576836109161376953125" lon="6.87946672551333904266357421875">
        <ele>702</ele>
        <time>2013-08-15T15:55:29.000Z</time>
        <extensions>
          <ns3:TrackPointExtension>
            <ns3:atemp>22.0</ns3:atemp>
            <ns3:hr>137</ns3:hr>
          </ns3:TrackPointExtension>
        </extensions>
      </trkpt>
      <trkpt lat="46.6874214448034763336181640625" lon="6.87942230142652988433837890625">
        <ele>702.20001220703125</ele>
        <time>2013-08-15T15:55:30.000Z</time>
        <extensions>
          <ns3:TrackPointExtension>
            <ns3:atemp>22.0</ns3:atemp>
            <ns3:hr>137</ns3:hr>
          </ns3:TrackPointExtension>
        </extensions>
      </trkpt>
      <trkpt lat="46.68744432739913463592529296875" lon="6.87937988899648189544677734375">
        <ele>702.5999755859375</ele>
        <time>2013-08-15T15:55:31.000Z</time>
        <extensions>
          <ns3:TrackPointExtension>
            <ns3:atemp>22.0</ns3:atemp>
            <ns3:hr>138</ns3:hr>
          </ns3:TrackPointExtension>
        </extensions>
      </trkpt>
      <trkpt lat="46.68746762908995151519775390625" lon="6.87933680601418018341064453125">
        <ele>702.5999755859375</ele>
        <time>2013-08-15T15:55:32.000Z</time>
        <extensions>
          <ns3:TrackPointExtension>
            <ns3:atemp>22.0</ns3:atemp>
            <ns3:hr>138</ns3:hr>
          </ns3:TrackPointExtension>
        </extensions>
      </trkpt>
      <trkpt lat="46.68749009259045124053955078125" lon="6.87929472886025905609130859375">
        <ele>703.20001220703125</ele>
        <time>2013-08-15T15:55:33.000Z</time>
        <extensions>
          <ns3:TrackPointExtension>
            <ns3:atemp>22.0</ns3:atemp>
            <ns3:hr>138</ns3:hr>
          </ns3:TrackPointExtension>
        </extensions>
      </trkpt>
      <trkpt lat="46.68751087971031665802001953125" lon="6.87924896366894245147705078125">
        <ele>703.5999755859375</ele>
        <time>2013-08-15T15:55:34.000Z</time>
        <extensions>
          <ns3:TrackPointExtension>
            <ns3:atemp>22.0</ns3:atemp>
            <ns3:hr>139</ns3:hr>
          </ns3:TrackPointExtension>
        </extensions>
      </trkpt>
      <trkpt lat="46.68753267265856266021728515625" lon="6.87920621596276760101318359375">
        <ele>704</ele>
        <time>2013-08-15T15:55:35.000Z</time>
        <extensions>
          <ns3:TrackPointExtension>
            <ns3:atemp>22.0</ns3:atemp>
            <ns3:hr>139</ns3:hr>
          </ns3:TrackPointExtension>
        </extensions>
      </trkpt>
      <trkpt lat="46.6875545494258403778076171875" lon="6.87916338443756103515625">
        <ele>704.20001220703125</ele>
        <time>2013-08-15T15:55:36.000Z</time>
        <extensions>
          <ns3:TrackPointExtension>
            <ns3:atemp>22.0</ns3:atemp>
            <ns3:hr>140</ns3:hr>
          </ns3:TrackPointExtension>
        </extensions>
      </trkpt>
      <trkpt lat="46.68757542036473751068115234375" lon="6.87911837361752986907958984375">
        <ele>704.5999755859375</ele>
        <time>2013-08-15T15:55:37.000Z</time>
        <extensions>
          <ns3:TrackPointExtension>
            <ns3:atemp>22.0</ns3:atemp>
            <ns3:hr>140</ns3:hr>
          </ns3:TrackPointExtension>
        </extensions>
      </trkpt>
      <trkpt lat="46.687595956027507781982421875" lon="6.87907445244491100311279296875">
        <ele>704.79998779296875</ele>
        <time>2013-08-15T15:55:38.000Z</time>
        <extensions>
          <ns3:TrackPointExtension>
            <ns3:atemp>22.0</ns3:atemp>
            <ns3:hr>140</ns3:hr>
          </ns3:TrackPointExtension>
        </extensions>
      </trkpt>
      <trkpt lat="46.68761665932834148406982421875" lon="6.8790304474532604217529296875">
        <ele>705</ele>
        <time>2013-08-15T15:55:39.000Z</time>
        <extensions>
          <ns3:TrackPointExtension>
            <ns3:atemp>22.0</ns3:atemp>
            <ns3:hr>140</ns3:hr>
          </ns3:TrackPointExtension>
        </extensions>
      </trkpt>
      <trkpt lat="46.68763719499111175537109375" lon="6.87898828648030757904052734375">
        <ele>705.4000244140625</ele>
        <time>2013-08-15T15:55:40.000Z</time>
        <extensions>
          <ns3:TrackPointExtension>
            <ns3:atemp>22.0</ns3:atemp>
            <ns3:hr>140</ns3:hr>
          </ns3:TrackPointExtension>
        </extensions>
      </trkpt>
      <trkpt lat="46.68766192160546779632568359375" lon="6.8789446167647838592529296875">
        <ele>705.79998779296875</ele>
        <time>2013-08-15T15:55:41.000Z</time>
        <extensions>
          <ns3:TrackPointExtension>
            <ns3:atemp>22.0</ns3:atemp>
            <ns3:hr>141</ns3:hr>
          </ns3:TrackPointExtension>
        </extensions>
      </trkpt>
      <trkpt lat="46.6876863129436969757080078125" lon="6.8789013661444187164306640625">
        <ele>706</ele>
        <time>2013-08-15T15:55:42.000Z</time>
        <extensions>
          <ns3:TrackPointExtension>
            <ns3:atemp>22.0</ns3:atemp>
            <ns3:hr>141</ns3:hr>
          </ns3:TrackPointExtension>
        </extensions>
      </trkpt>
      <trkpt lat="46.687710620462894439697265625" lon="6.87885585241019725799560546875">
        <ele>706.4000244140625</ele>
        <time>2013-08-15T15:55:43.000Z</time>
        <extensions>
          <ns3:TrackPointExtension>
            <ns3:atemp>22.0</ns3:atemp>
            <ns3:hr>141</ns3:hr>
          </ns3:TrackPointExtension>
        </extensions>
      </trkpt>
      <trkpt lat="46.6877366043627262115478515625" lon="6.878812015056610107421875">
        <ele>706.5999755859375</ele>
        <time>2013-08-15T15:55:44.000Z</time>
        <extensions>
          <ns3:TrackPointExtension>
            <ns3:atemp>22.0</ns3:atemp>
            <ns3:hr>141</ns3:hr>
          </ns3:TrackPointExtension>
        </extensions>
      </trkpt>
      <trkpt lat="46.6877607442438602447509765625" lon="6.8787645734846591949462890625">
        <ele>706.79998779296875</ele>
        <time>2013-08-15T15:55:45.000Z</time>
        <extensions>
          <ns3:TrackPointExtension>
            <ns3:atemp>22.0</ns3:atemp>
            <ns3:hr>141</ns3:hr>
          </ns3:TrackPointExtension>
        </extensions>
      </trkpt>
      <trkpt lat="46.68778471648693084716796875" lon="6.878716461360454559326171875">
        <ele>706.79998779296875</ele>
        <time>2013-08-15T15:55:46.000Z</time>
        <extensions>
          <ns3:TrackPointExtension>
            <ns3:atemp>22.0</ns3:atemp>
            <ns3:hr>141</ns3:hr>
          </ns3:TrackPointExtension>
        </extensions>
      </trkpt>
      <trkpt lat="46.6878080181777477264404296875" lon="6.87866893596947193145751953125">
        <ele>707.20001220703125</ele>
        <time>2013-08-15T15:55:47.000Z</time>
        <extensions>
          <ns3:TrackPointExtension>
            <ns3:atemp>22.0</ns3:atemp>
            <ns3:hr>141</ns3:hr>
          </ns3:TrackPointExtension>
        </extensions>
      </trkpt>
      <trkpt lat="46.6878210939466953277587890625" lon="6.87860942445695400238037109375">
        <ele>707.20001220703125</ele>
        <time>2013-08-15T15:55:48.000Z</time>
        <extensions>
          <ns3:TrackPointExtension>
            <ns3:atemp>22.0</ns3:atemp>
            <ns3:hr>142</ns3:hr>
          </ns3:TrackPointExtension>
        </extensions>
      </trkpt>
      <trkpt lat="46.68782000429928302764892578125" lon="6.878549493849277496337890625">
        <ele>707.20001220703125</ele>
        <time>2013-08-15T15:55:49.000Z</time>
        <extensions>
          <ns3:TrackPointExtension>
            <ns3:atemp>22.0</ns3:atemp>
            <ns3:hr>142</ns3:hr>
          </ns3:TrackPointExtension>
        </extensions>
      </trkpt>
      <trkpt lat="46.687796451151371002197265625" lon="6.87849777750670909881591796875">
        <ele>707.20001220703125</ele>
        <time>2013-08-15T15:55:50.000Z</time>
        <extensions>
          <ns3:TrackPointExtension>
            <ns3:atemp>22.0</ns3:atemp>
            <ns3:hr>142</ns3:hr>
          </ns3:TrackPointExtension>
        </extensions>
      </trkpt>
      <trkpt lat="46.68776250444352626800537109375" lon="6.87845938839018344879150390625">
        <ele>707.20001220703125</ele>
        <time>2013-08-15T15:55:51.000Z</time>
        <extensions>
          <ns3:TrackPointExtension>
            <ns3:atemp>22.0</ns3:atemp>
            <ns3:hr>142</ns3:hr>
          </ns3:TrackPointExtension>
        </extensions>
      </trkpt>
      <trkpt lat="46.68772780336439609527587890625" lon="6.87843088991940021514892578125">
        <ele>707.4000244140625</ele>
        <time>2013-08-15T15:55:52.000Z</time>
        <extensions>
          <ns3:TrackPointExtension>
            <ns3:atemp>22.0</ns3:atemp>
            <ns3:hr>142</ns3:hr>
          </ns3:TrackPointExtension>
        </extensions>
      </trkpt>
      <trkpt lat="46.687694527208805084228515625" lon="6.878405995666980743408203125">
        <ele>707.5999755859375</ele>
        <time>2013-08-15T15:55:53.000Z</time>
        <extensions>
          <ns3:TrackPointExtension>
            <ns3:atemp>22.0</ns3:atemp>
            <ns3:hr>142</ns3:hr>
          </ns3:TrackPointExtension>
        </extensions>
      </trkpt>
      <trkpt lat="46.68766200542449951171875" lon="6.878379173576831817626953125">
        <ele>707.5999755859375</ele>
        <time>2013-08-15T15:55:54.000Z</time>
        <extensions>
          <ns3:TrackPointExtension>
            <ns3:atemp>22.0</ns3:atemp>
            <ns3:hr>142</ns3:hr>
          </ns3:TrackPointExtension>
        </extensions>
      </trkpt>
      <trkpt lat="46.6876293160021305084228515625" lon="6.878340281546115875244140625">
        <ele>707.79998779296875</ele>
        <time>2013-08-15T15:55:55.000Z</time>
        <extensions>
          <ns3:TrackPointExtension>
            <ns3:atemp>22.0</ns3:atemp>
            <ns3:hr>142</ns3:hr>
          </ns3:TrackPointExtension>
        </extensions>
      </trkpt>
      <trkpt lat="46.6875971294939517974853515625" lon="6.8782998807728290557861328125">
        <ele>708.20001220703125</ele>
        <time>2013-08-15T15:55:56.000Z</time>
        <extensions>
          <ns3:TrackPointExtension>
            <ns3:atemp>22.0</ns3:atemp>
            <ns3:hr>142</ns3:hr>
          </ns3:TrackPointExtension>
        </extensions>
      </trkpt>
      <trkpt lat="46.68756150640547275543212890625" lon="6.878259815275669097900390625">
        <ele>708.5999755859375</ele>
        <time>2013-08-15T15:55:57.000Z</time>
        <extensions>
          <ns3:TrackPointExtension>
            <ns3:atemp>22.0</ns3:atemp>
            <ns3:hr>142</ns3:hr>
          </ns3:TrackPointExtension>
        </extensions>
      </trkpt>
      <trkpt lat="46.68752563185989856719970703125" lon="6.87822050414979457855224609375">
        <ele>708.79998779296875</ele>
        <time>2013-08-15T15:55:58.000Z</time>
        <extensions>
          <ns3:TrackPointExtension>
            <ns3:atemp>22.0</ns3:atemp>
            <ns3:hr>142</ns3:hr>
          </ns3:TrackPointExtension>
        </extensions>
      </trkpt>
      <trkpt lat="46.6874881647527217864990234375" lon="6.878184042870998382568359375">
        <ele>709</ele>
        <time>2013-08-15T15:55:59.000Z</time>
        <extensions>
          <ns3:TrackPointExtension>
            <ns3:atemp>22.0</ns3:atemp>
            <ns3:hr>142</ns3:hr>
          </ns3:TrackPointExtension>
        </extensions>
      </trkpt>
      <trkpt lat="46.68745237402617931365966796875" lon="6.87814523465931415557861328125">
        <ele>709.20001220703125</ele>
        <time>2013-08-15T15:56:00.000Z</time>
        <extensions>
          <ns3:TrackPointExtension>
            <ns3:atemp>22.0</ns3:atemp>
            <ns3:hr>142</ns3:hr>
          </ns3:TrackPointExtension>
        </extensions>
      </trkpt>
      <trkpt lat="46.68741725385189056396484375" lon="6.878106929361820220947265625">
        <ele>709.20001220703125</ele>
        <time>2013-08-15T15:56:01.000Z</time>
        <extensions>
          <ns3:TrackPointExtension>
            <ns3:atemp>22.0</ns3:atemp>
            <ns3:hr>143</ns3:hr>
          </ns3:TrackPointExtension>
        </extensions>
      </trkpt>
      <trkpt lat="46.68738238513469696044921875" lon="6.87807013280689716339111328125">
        <ele>709.5999755859375</ele>
        <time>2013-08-15T15:56:02.000Z</time>
        <extensions>
          <ns3:TrackPointExtension>
            <ns3:atemp>22.0</ns3:atemp>
            <ns3:hr>142</ns3:hr>
          </ns3:TrackPointExtension>
        </extensions>
      </trkpt>
      <trkpt lat="46.6873466782271862030029296875" lon="6.87803090550005435943603515625">
        <ele>709.79998779296875</ele>
        <time>2013-08-15T15:56:03.000Z</time>
        <extensions>
          <ns3:TrackPointExtension>
            <ns3:atemp>22.0</ns3:atemp>
            <ns3:hr>142</ns3:hr>
          </ns3:TrackPointExtension>
        </extensions>
      </trkpt>
      <trkpt lat="46.68731004931032657623291015625" lon="6.87799318693578243255615234375">
        <ele>710.20001220703125</ele>
        <time>2013-08-15T15:56:04.000Z</time>
        <extensions>
          <ns3:TrackPointExtension>
            <ns3:atemp>22.0</ns3:atemp>
            <ns3:hr>142</ns3:hr>
          </ns3:TrackPointExtension>
        </extensions>
      </trkpt>
      <trkpt lat="46.68727182783186435699462890625" lon="6.877958066761493682861328125">
        <ele>710.20001220703125</ele>
        <time>2013-08-15T15:56:05.000Z</time>
        <extensions>
          <ns3:TrackPointExtension>
            <ns3:atemp>22.0</ns3:atemp>
            <ns3:hr>142</ns3:hr>
          </ns3:TrackPointExtension>
        </extensions>
      </trkpt>
      <trkpt lat="46.68723192997276782989501953125" lon="6.877923868596553802490234375">
        <ele>710.4000244140625</ele>
        <time>2013-08-15T15:56:06.000Z</time>
        <extensions>
          <ns3:TrackPointExtension>
            <ns3:atemp>22.0</ns3:atemp>
            <ns3:hr>142</ns3:hr>
          </ns3:TrackPointExtension>
        </extensions>
      </trkpt>
      <trkpt lat="46.6871931217610836029052734375" lon="6.8778881616890430450439453125">
        <ele>710.4000244140625</ele>
        <time>2013-08-15T15:56:07.000Z</time>
        <extensions>
          <ns3:TrackPointExtension>
            <ns3:atemp>22.0</ns3:atemp>
            <ns3:hr>142</ns3:hr>
          </ns3:TrackPointExtension>
        </extensions>
      </trkpt>
      <trkpt lat="46.68715716339647769927978515625" lon="6.87784843146800994873046875">
        <ele>710.5999755859375</ele>
        <time>2013-08-15T15:56:08.000Z</time>
        <extensions>
          <ns3:TrackPointExtension>
            <ns3:atemp>22.0</ns3:atemp>
            <ns3:hr>142</ns3:hr>
          </ns3:TrackPointExtension>
        </extensions>
      </trkpt>
      <trkpt lat="46.6871186904609203338623046875" lon="6.8778127245604991912841796875">
        <ele>710.79998779296875</ele>
        <time>2013-08-15T15:56:09.000Z</time>
        <extensions>
          <ns3:TrackPointExtension>
            <ns3:atemp>22.0</ns3:atemp>
            <ns3:hr>142</ns3:hr>
          </ns3:TrackPointExtension>
        </extensions>
      </trkpt>
      <trkpt lat="46.687081642448902130126953125" lon="6.8777718208730220794677734375">
        <ele>711</ele>
        <time>2013-08-15T15:56:10.000Z</time>
        <extensions>
          <ns3:TrackPointExtension>
            <ns3:atemp>22.0</ns3:atemp>
            <ns3:hr>142</ns3:hr>
          </ns3:TrackPointExtension>
        </extensions>
      </trkpt>
      <trkpt lat="46.68704333715140819549560546875" lon="6.87772999517619609832763671875">
        <ele>711.20001220703125</ele>
        <time>2013-08-15T15:56:11.000Z</time>
        <extensions>
          <ns3:TrackPointExtension>
            <ns3:atemp>22.0</ns3:atemp>
            <ns3:hr>143</ns3:hr>
          </ns3:TrackPointExtension>
        </extensions>
      </trkpt>
      <trkpt lat="46.6870063729584217071533203125" lon="6.877689845860004425048828125">
        <ele>711.20001220703125</ele>
        <time>2013-08-15T15:56:12.000Z</time>
        <extensions>
          <ns3:TrackPointExtension>
            <ns3:atemp>22.0</ns3:atemp>
            <ns3:hr>143</ns3:hr>
          </ns3:TrackPointExtension>
        </extensions>
      </trkpt>
      <trkpt lat="46.6869698278605937957763671875" lon="6.8776494450867176055908203125">
        <ele>711.4000244140625</ele>
        <time>2013-08-15T15:56:13.000Z</time>
        <extensions>
          <ns3:TrackPointExtension>
            <ns3:atemp>22.0</ns3:atemp>
            <ns3:hr>143</ns3:hr>
          </ns3:TrackPointExtension>
        </extensions>
      </trkpt>
      <trkpt lat="46.68693470768630504608154296875" lon="6.8776102177798748016357421875">
        <ele>711.4000244140625</ele>
        <time>2013-08-15T15:56:14.000Z</time>
        <extensions>
          <ns3:TrackPointExtension>
            <ns3:atemp>22.0</ns3:atemp>
            <ns3:hr>143</ns3:hr>
          </ns3:TrackPointExtension>
        </extensions>
      </trkpt>
      <trkpt lat="46.6868974082171916961669921875" lon="6.87757073901593685150146484375">
        <ele>711.5999755859375</ele>
        <time>2013-08-15T15:56:15.000Z</time>
        <extensions>
          <ns3:TrackPointExtension>
            <ns3:atemp>22.0</ns3:atemp>
            <ns3:hr>143</ns3:hr>
          </ns3:TrackPointExtension>
        </extensions>
      </trkpt>
      <trkpt lat="46.68686069548130035400390625" lon="6.87753134407103061676025390625">
        <ele>711.79998779296875</ele>
        <time>2013-08-15T15:56:16.000Z</time>
        <extensions>
          <ns3:TrackPointExtension>
            <ns3:atemp>22.0</ns3:atemp>
            <ns3:hr>143</ns3:hr>
          </ns3:TrackPointExtension>
        </extensions>
      </trkpt>
      <trkpt lat="46.68682306073606014251708984375" lon="6.87749312259256839752197265625">
        <ele>712</ele>
        <time>2013-08-15T15:56:17.000Z</time>
        <extensions>
          <ns3:TrackPointExtension>
            <ns3:atemp>22.0</ns3:atemp>
            <ns3:hr>144</ns3:hr>
          </ns3:TrackPointExtension>
        </extensions>
      </trkpt>
      <trkpt lat="46.686785258352756500244140625" lon="6.87745221890509128570556640625">
        <ele>712</ele>
        <time>2013-08-15T15:56:18.000Z</time>
        <extensions>
          <ns3:TrackPointExtension>
            <ns3:atemp>22.0</ns3:atemp>
            <ns3:hr>144</ns3:hr>
          </ns3:TrackPointExtension>
        </extensions>
      </trkpt>
      <trkpt lat="46.6867478750646114349365234375" lon="6.8774137459695339202880859375">
        <ele>712.20001220703125</ele>
        <time>2013-08-15T15:56:19.000Z</time>
        <extensions>
          <ns3:TrackPointExtension>
            <ns3:atemp>22.0</ns3:atemp>
            <ns3:hr>144</ns3:hr>
          </ns3:TrackPointExtension>
        </extensions>
      </trkpt>
      <trkpt lat="46.68671091087162494659423828125" lon="6.8773721717298030853271484375">
        <ele>712.20001220703125</ele>
        <time>2013-08-15T15:56:20.000Z</time>
        <extensions>
          <ns3:TrackPointExtension>
            <ns3:atemp>22.0</ns3:atemp>
            <ns3:hr>144</ns3:hr>
          </ns3:TrackPointExtension>
        </extensions>
      </trkpt>
      <trkpt lat="46.6866762936115264892578125" lon="6.877329759299755096435546875">
        <ele>712.5999755859375</ele>
        <time>2013-08-15T15:56:21.000Z</time>
        <extensions>
          <ns3:TrackPointExtension>
            <ns3:atemp>22.0</ns3:atemp>
            <ns3:hr>144</ns3:hr>
          </ns3:TrackPointExtension>
        </extensions>
      </trkpt>
      <trkpt lat="46.68664033524692058563232421875" lon="6.87728919088840484619140625">
        <ele>712.79998779296875</ele>
        <time>2013-08-15T15:56:22.000Z</time>
        <extensions>
          <ns3:TrackPointExtension>
            <ns3:atemp>22.0</ns3:atemp>
            <ns3:hr>144</ns3:hr>
          </ns3:TrackPointExtension>
        </extensions>
      </trkpt>
      <trkpt lat="46.6866047121584415435791015625" lon="6.87724820338189601898193359375">
        <ele>713.20001220703125</ele>
        <time>2013-08-15T15:56:23.000Z</time>
        <extensions>
          <ns3:TrackPointExtension>
            <ns3:atemp>22.0</ns3:atemp>
            <ns3:hr>144</ns3:hr>
          </ns3:TrackPointExtension>
        </extensions>
      </trkpt>
      <trkpt lat="46.686569340527057647705078125" lon="6.877207718789577484130859375">
        <ele>713.20001220703125</ele>
        <time>2013-08-15T15:56:24.000Z</time>
        <extensions>
          <ns3:TrackPointExtension>
            <ns3:atemp>22.0</ns3:atemp>
            <ns3:hr>145</ns3:hr>
          </ns3:TrackPointExtension>
        </extensions>
      </trkpt>
      <trkpt lat="46.68653287924826145172119140625" lon="6.87716446816921234130859375">
        <ele>713.20001220703125</ele>
        <time>2013-08-15T15:56:25.000Z</time>
        <extensions>
          <ns3:TrackPointExtension>
            <ns3:atemp>22.0</ns3:atemp>
            <ns3:hr>145</ns3:hr>
          </ns3:TrackPointExtension>
        </extensions>
      </trkpt>
      <trkpt lat="46.686495579779148101806640625" lon="6.8771237321197986602783203125">
        <ele>713.20001220703125</ele>
        <time>2013-08-15T15:56:26.000Z</time>
        <extensions>
          <ns3:TrackPointExtension>
            <ns3:atemp>22.0</ns3:atemp>
            <ns3:hr>145</ns3:hr>
          </ns3:TrackPointExtension>
        </extensions>
      </trkpt>
      <trkpt lat="46.686457358300685882568359375" lon="6.87708542682230472564697265625">
        <ele>713.4000244140625</ele>
        <time>2013-08-15T15:56:27.000Z</time>
        <extensions>
          <ns3:TrackPointExtension>
            <ns3:atemp>22.0</ns3:atemp>
            <ns3:hr>145</ns3:hr>
          </ns3:TrackPointExtension>
        </extensions>
      </trkpt>
      <trkpt lat="46.68642005883157253265380859375" lon="6.87704586423933506011962890625">
        <ele>713.4000244140625</ele>
        <time>2013-08-15T15:56:28.000Z</time>
        <extensions>
          <ns3:TrackPointExtension>
            <ns3:atemp>22.0</ns3:atemp>
            <ns3:hr>145</ns3:hr>
          </ns3:TrackPointExtension>
        </extensions>
      </trkpt>
      <trkpt lat="46.686381585896015167236328125" lon="6.87700965441763401031494140625">
        <ele>713.4000244140625</ele>
        <time>2013-08-15T15:56:29.000Z</time>
        <extensions>
          <ns3:TrackPointExtension>
            <ns3:atemp>22.0</ns3:atemp>
            <ns3:hr>146</ns3:hr>
          </ns3:TrackPointExtension>
        </extensions>
      </trkpt>
      <trkpt lat="46.68634462170302867889404296875" lon="6.8769681639969348907470703125">
        <ele>713.4000244140625</ele>
        <time>2013-08-15T15:56:30.000Z</time>
        <extensions>
          <ns3:TrackPointExtension>
            <ns3:atemp>22.0</ns3:atemp>
            <ns3:hr>146</ns3:hr>
          </ns3:TrackPointExtension>
        </extensions>
      </trkpt>
      <trkpt lat="46.686307825148105621337890625" lon="6.8769279308617115020751953125">
        <ele>713.4000244140625</ele>
        <time>2013-08-15T15:56:31.000Z</time>
        <extensions>
          <ns3:TrackPointExtension>
            <ns3:atemp>22.0</ns3:atemp>
            <ns3:hr>146</ns3:hr>
          </ns3:TrackPointExtension>
        </extensions>
      </trkpt>
      <trkpt lat="46.686268933117389678955078125" lon="6.8768870271742343902587890625">
        <ele>713.5999755859375</ele>
        <time>2013-08-15T15:56:32.000Z</time>
        <extensions>
          <ns3:TrackPointExtension>
            <ns3:atemp>22.0</ns3:atemp>
            <ns3:hr>146</ns3:hr>
          </ns3:TrackPointExtension>
        </extensions>
      </trkpt>
      <trkpt lat="46.6862315498292446136474609375" lon="6.876844950020313262939453125">
        <ele>713.79998779296875</ele>
        <time>2013-08-15T15:56:33.000Z</time>
        <extensions>
          <ns3:TrackPointExtension>
            <ns3:atemp>22.0</ns3:atemp>
            <ns3:hr>145</ns3:hr>
          </ns3:TrackPointExtension>
        </extensions>
      </trkpt>
      <trkpt lat="46.6861934959888458251953125" lon="6.87680773437023162841796875">
        <ele>713.79998779296875</ele>
        <time>2013-08-15T15:56:34.000Z</time>
        <extensions>
          <ns3:TrackPointExtension>
            <ns3:atemp>22.0</ns3:atemp>
            <ns3:hr>146</ns3:hr>
          </ns3:TrackPointExtension>
        </extensions>
      </trkpt>
      <trkpt lat="46.6861581243574619293212890625" lon="6.876768171787261962890625">
        <ele>713.79998779296875</ele>
        <time>2013-08-15T15:56:35.000Z</time>
        <extensions>
          <ns3:TrackPointExtension>
            <ns3:atemp>22.0</ns3:atemp>
            <ns3:hr>145</ns3:hr>
          </ns3:TrackPointExtension>
        </extensions>
      </trkpt>
      <trkpt lat="46.68612174689769744873046875" lon="6.876730956137180328369140625">
        <ele>714</ele>
        <time>2013-08-15T15:56:36.000Z</time>
        <extensions>
          <ns3:TrackPointExtension>
            <ns3:atemp>22.0</ns3:atemp>
            <ns3:hr>145</ns3:hr>
          </ns3:TrackPointExtension>
        </extensions>
      </trkpt>
      <trkpt lat="46.6860843636095523834228515625" lon="6.87669516541063785552978515625">
        <ele>714.20001220703125</ele>
        <time>2013-08-15T15:56:37.000Z</time>
        <extensions>
          <ns3:TrackPointExtension>
            <ns3:atemp>22.0</ns3:atemp>
            <ns3:hr>145</ns3:hr>
          </ns3:TrackPointExtension>
        </extensions>
      </trkpt>
      <trkpt lat="46.68604957871139049530029296875" lon="6.8766526691615581512451171875">
        <ele>714.20001220703125</ele>
        <time>2013-08-15T15:56:38.000Z</time>
        <extensions>
          <ns3:TrackPointExtension>
            <ns3:atemp>22.0</ns3:atemp>
            <ns3:hr>145</ns3:hr>
          </ns3:TrackPointExtension>
        </extensions>
      </trkpt>
      <trkpt lat="46.686012446880340576171875" lon="6.8766144476830959320068359375">
        <ele>714.20001220703125</ele>
        <time>2013-08-15T15:56:39.000Z</time>
        <extensions>
          <ns3:TrackPointExtension>
            <ns3:atemp>22.0</ns3:atemp>
            <ns3:hr>145</ns3:hr>
          </ns3:TrackPointExtension>
        </extensions>
      </trkpt>
      <trkpt lat="46.6859757341444492340087890625" lon="6.87657563947141170501708984375">
        <ele>714.4000244140625</ele>
        <time>2013-08-15T15:56:40.000Z</time>
        <extensions>
          <ns3:TrackPointExtension>
            <ns3:atemp>22.0</ns3:atemp>
            <ns3:hr>144</ns3:hr>
          </ns3:TrackPointExtension>
        </extensions>
      </trkpt>
      <trkpt lat="46.685937009751796722412109375" lon="6.87653557397425174713134765625">
        <ele>714.4000244140625</ele>
        <time>2013-08-15T15:56:41.000Z</time>
        <extensions>
          <ns3:TrackPointExtension>
            <ns3:atemp>22.0</ns3:atemp>
            <ns3:hr>144</ns3:hr>
          </ns3:TrackPointExtension>
        </extensions>
      </trkpt>
      <trkpt lat="46.6858986206352710723876953125" lon="6.8764932453632354736328125">
        <ele>714.5999755859375</ele>
        <time>2013-08-15T15:56:42.000Z</time>
        <extensions>
          <ns3:TrackPointExtension>
            <ns3:atemp>22.0</ns3:atemp>
            <ns3:hr>144</ns3:hr>
          </ns3:TrackPointExtension>
        </extensions>
      </trkpt>
      <trkpt lat="46.685859225690364837646484375" lon="6.8764541856944561004638671875">
        <ele>714.79998779296875</ele>
        <time>2013-08-15T15:56:43.000Z</time>
        <extensions>
          <ns3:TrackPointExtension>
            <ns3:atemp>22.0</ns3:atemp>
            <ns3:hr>145</ns3:hr>
          </ns3:TrackPointExtension>
        </extensions>
      </trkpt>
      <trkpt lat="46.68582108803093433380126953125" lon="6.87641353346407413482666015625">
        <ele>714.79998779296875</ele>
        <time>2013-08-15T15:56:44.000Z</time>
        <extensions>
          <ns3:TrackPointExtension>
            <ns3:atemp>22.0</ns3:atemp>
            <ns3:hr>145</ns3:hr>
          </ns3:TrackPointExtension>
        </extensions>
      </trkpt>
      <trkpt lat="46.68578823097050189971923828125" lon="6.8763725459575653076171875">
        <ele>715</ele>
        <time>2013-08-15T15:56:45.000Z</time>
        <extensions>
          <ns3:TrackPointExtension>
            <ns3:atemp>22.0</ns3:atemp>
            <ns3:hr>144</ns3:hr>
          </ns3:TrackPointExtension>
        </extensions>
      </trkpt>
      <trkpt lat="46.68575621210038661956787109375" lon="6.8763328157365322113037109375">
        <ele>715.20001220703125</ele>
        <time>2013-08-15T15:56:46.000Z</time>
        <extensions>
          <ns3:TrackPointExtension>
            <ns3:atemp>22.0</ns3:atemp>
            <ns3:hr>144</ns3:hr>
          </ns3:TrackPointExtension>
        </extensions>
      </trkpt>
      <trkpt lat="46.685721091926097869873046875" lon="6.87629534862935543060302734375">
        <ele>715.4000244140625</ele>
        <time>2013-08-15T15:56:47.000Z</time>
        <extensions>
          <ns3:TrackPointExtension>
            <ns3:atemp>22.0</ns3:atemp>
            <ns3:hr>145</ns3:hr>
          </ns3:TrackPointExtension>
        </extensions>
      </trkpt>
      <trkpt lat="46.68568831868469715118408203125" lon="6.8762590549886226654052734375">
        <ele>715.4000244140625</ele>
        <time>2013-08-15T15:56:48.000Z</time>
        <extensions>
          <ns3:TrackPointExtension>
            <ns3:atemp>22.0</ns3:atemp>
            <ns3:hr>145</ns3:hr>
          </ns3:TrackPointExtension>
        </extensions>
      </trkpt>
      <trkpt lat="46.6856555454432964324951171875" lon="6.87621488235890865325927734375">
        <ele>715.5999755859375</ele>
        <time>2013-08-15T15:56:49.000Z</time>
        <extensions>
          <ns3:TrackPointExtension>
            <ns3:atemp>22.0</ns3:atemp>
            <ns3:hr>145</ns3:hr>
          </ns3:TrackPointExtension>
        </extensions>
      </trkpt>
      <trkpt lat="46.6856240294873714447021484375" lon="6.87616710551083087921142578125">
        <ele>715.4000244140625</ele>
        <time>2013-08-15T15:56:50.000Z</time>
        <extensions>
          <ns3:TrackPointExtension>
            <ns3:atemp>22.0</ns3:atemp>
            <ns3:hr>145</ns3:hr>
          </ns3:TrackPointExtension>
        </extensions>
      </trkpt>
      <trkpt lat="46.68558639474213123321533203125" lon="6.8761246092617511749267578125">
        <ele>715.4000244140625</ele>
        <time>2013-08-15T15:56:51.000Z</time>
        <extensions>
          <ns3:TrackPointExtension>
            <ns3:atemp>22.0</ns3:atemp>
            <ns3:hr>145</ns3:hr>
          </ns3:TrackPointExtension>
        </extensions>
      </trkpt>
      <trkpt lat="46.6855479218065738677978515625" lon="6.876086555421352386474609375">
        <ele>715.5999755859375</ele>
        <time>2013-08-15T15:56:52.000Z</time>
        <extensions>
          <ns3:TrackPointExtension>
            <ns3:atemp>22.0</ns3:atemp>
            <ns3:hr>145</ns3:hr>
          </ns3:TrackPointExtension>
        </extensions>
      </trkpt>
      <trkpt lat="46.68551011942327022552490234375" lon="6.8760453164577484130859375">
        <ele>715.79998779296875</ele>
        <time>2013-08-15T15:56:53.000Z</time>
        <extensions>
          <ns3:TrackPointExtension>
            <ns3:atemp>22.0</ns3:atemp>
            <ns3:hr>144</ns3:hr>
          </ns3:TrackPointExtension>
        </extensions>
      </trkpt>
      <trkpt lat="46.68546955101191997528076171875" lon="6.8760049156844615936279296875">
        <ele>715.79998779296875</ele>
        <time>2013-08-15T15:56:54.000Z</time>
        <extensions>
          <ns3:TrackPointExtension>
            <ns3:atemp>22.0</ns3:atemp>
            <ns3:hr>144</ns3:hr>
          </ns3:TrackPointExtension>
        </extensions>
      </trkpt>
      <trkpt lat="46.6854285635054111480712890625" lon="6.87597214244306087493896484375">
        <ele>716</ele>
        <time>2013-08-15T15:56:55.000Z</time>
        <extensions>
          <ns3:TrackPointExtension>
            <ns3:atemp>22.0</ns3:atemp>
            <ns3:hr>144</ns3:hr>
          </ns3:TrackPointExtension>
        </extensions>
      </trkpt>
      <trkpt lat="46.68538816273212432861328125" lon="6.87594347633421421051025390625">
        <ele>716</ele>
        <time>2013-08-15T15:56:56.000Z</time>
        <extensions>
          <ns3:TrackPointExtension>
            <ns3:atemp>22.0</ns3:atemp>
            <ns3:hr>145</ns3:hr>
          </ns3:TrackPointExtension>
        </extensions>
      </trkpt>
      <trkpt lat="46.68535153381526470184326171875" lon="6.87590441666543483734130859375">
        <ele>716</ele>
        <time>2013-08-15T15:56:57.000Z</time>
        <extensions>
          <ns3:TrackPointExtension>
            <ns3:atemp>22.0</ns3:atemp>
            <ns3:hr>145</ns3:hr>
          </ns3:TrackPointExtension>
        </extensions>
      </trkpt>
      <trkpt lat="46.68531515635550022125244140625" lon="6.87586493790149688720703125">
        <ele>716</ele>
        <time>2013-08-15T15:56:58.000Z</time>
        <extensions>
          <ns3:TrackPointExtension>
            <ns3:atemp>22.0</ns3:atemp>
            <ns3:hr>145</ns3:hr>
          </ns3:TrackPointExtension>
        </extensions>
      </trkpt>
      <trkpt lat="46.68527685105800628662109375" lon="6.87582847662270069122314453125">
        <ele>716</ele>
        <time>2013-08-15T15:56:59.000Z</time>
        <extensions>
          <ns3:TrackPointExtension>
            <ns3:atemp>22.0</ns3:atemp>
            <ns3:hr>145</ns3:hr>
          </ns3:TrackPointExtension>
        </extensions>
      </trkpt>
      <trkpt lat="46.6852394677698612213134765625" lon="6.87579310499131679534912109375">
        <ele>716.20001220703125</ele>
        <time>2013-08-15T15:57:00.000Z</time>
        <extensions>
          <ns3:TrackPointExtension>
            <ns3:atemp>22.0</ns3:atemp>
            <ns3:hr>145</ns3:hr>
          </ns3:TrackPointExtension>
        </extensions>
      </trkpt>
      <trkpt lat="46.6852025873959064483642578125" lon="6.87575203366577625274658203125">
        <ele>716.4000244140625</ele>
        <time>2013-08-15T15:57:01.000Z</time>
        <extensions>
          <ns3:TrackPointExtension>
            <ns3:atemp>22.0</ns3:atemp>
            <ns3:hr>145</ns3:hr>
          </ns3:TrackPointExtension>
        </extensions>
      </trkpt>
      <trkpt lat="46.6851653717458248138427734375" lon="6.87571263872087001800537109375">
        <ele>716.5999755859375</ele>
        <time>2013-08-15T15:57:02.000Z</time>
        <extensions>
          <ns3:TrackPointExtension>
            <ns3:atemp>22.0</ns3:atemp>
            <ns3:hr>145</ns3:hr>
          </ns3:TrackPointExtension>
        </extensions>
      </trkpt>
      <trkpt lat="46.6851268149912357330322265625" lon="6.875670813024044036865234375">
        <ele>716.5999755859375</ele>
        <time>2013-08-15T15:57:03.000Z</time>
        <extensions>
          <ns3:TrackPointExtension>
            <ns3:atemp>22.0</ns3:atemp>
            <ns3:hr>145</ns3:hr>
          </ns3:TrackPointExtension>
        </extensions>
      </trkpt>
      <trkpt lat="46.6850912757217884063720703125" lon="6.875628568232059478759765625">
        <ele>716.5999755859375</ele>
        <time>2013-08-15T15:57:04.000Z</time>
        <extensions>
          <ns3:TrackPointExtension>
            <ns3:atemp>22.0</ns3:atemp>
            <ns3:hr>145</ns3:hr>
          </ns3:TrackPointExtension>
        </extensions>
      </trkpt>
      <trkpt lat="46.68505682609975337982177734375" lon="6.875584982335567474365234375">
        <ele>716.5999755859375</ele>
        <time>2013-08-15T15:57:05.000Z</time>
        <extensions>
          <ns3:TrackPointExtension>
            <ns3:atemp>22.0</ns3:atemp>
            <ns3:hr>145</ns3:hr>
          </ns3:TrackPointExtension>
        </extensions>
      </trkpt>
      <trkpt lat="46.685020364820957183837890625" lon="6.8755429051816463470458984375">
        <ele>716.5999755859375</ele>
        <time>2013-08-15T15:57:06.000Z</time>
        <extensions>
          <ns3:TrackPointExtension>
            <ns3:atemp>22.0</ns3:atemp>
            <ns3:hr>145</ns3:hr>
          </ns3:TrackPointExtension>
        </extensions>
      </trkpt>
      <trkpt lat="46.6849843226373195648193359375" lon="6.87550552189350128173828125">
        <ele>716.79998779296875</ele>
        <time>2013-08-15T15:57:07.000Z</time>
        <extensions>
          <ns3:TrackPointExtension>
            <ns3:atemp>22.0</ns3:atemp>
            <ns3:hr>145</ns3:hr>
          </ns3:TrackPointExtension>
        </extensions>
      </trkpt>
      <trkpt lat="46.6849484480917453765869140625" lon="6.87546906061470508575439453125">
        <ele>716.79998779296875</ele>
        <time>2013-08-15T15:57:08.000Z</time>
        <extensions>
          <ns3:TrackPointExtension>
            <ns3:atemp>22.0</ns3:atemp>
            <ns3:hr>145</ns3:hr>
          </ns3:TrackPointExtension>
        </extensions>
      </trkpt>
      <trkpt lat="46.6849125735461711883544921875" lon="6.875432766973972320556640625">
        <ele>716.79998779296875</ele>
        <time>2013-08-15T15:57:09.000Z</time>
        <extensions>
          <ns3:TrackPointExtension>
            <ns3:atemp>22.0</ns3:atemp>
            <ns3:hr>145</ns3:hr>
          </ns3:TrackPointExtension>
        </extensions>
      </trkpt>
      <trkpt lat="46.6848746873438358306884765625" lon="6.87539446167647838592529296875">
        <ele>717</ele>
        <time>2013-08-15T15:57:10.000Z</time>
        <extensions>
          <ns3:TrackPointExtension>
            <ns3:atemp>22.0</ns3:atemp>
            <ns3:hr>145</ns3:hr>
          </ns3:TrackPointExtension>
        </extensions>
      </trkpt>
      <trkpt lat="46.6848384775221347808837890625" lon="6.8753531388938426971435546875">
        <ele>717.20001220703125</ele>
        <time>2013-08-15T15:57:11.000Z</time>
        <extensions>
          <ns3:TrackPointExtension>
            <ns3:atemp>22.0</ns3:atemp>
            <ns3:hr>145</ns3:hr>
          </ns3:TrackPointExtension>
        </extensions>
      </trkpt>
      <trkpt lat="46.68480419553816318511962890625" lon="6.875309385359287261962890625">
        <ele>717.20001220703125</ele>
        <time>2013-08-15T15:57:12.000Z</time>
        <extensions>
          <ns3:TrackPointExtension>
            <ns3:atemp>22.0</ns3:atemp>
            <ns3:hr>145</ns3:hr>
          </ns3:TrackPointExtension>
        </extensions>
      </trkpt>
      <trkpt lat="46.68477200902998447418212890625" lon="6.87526336871087551116943359375">
        <ele>717.20001220703125</ele>
        <time>2013-08-15T15:57:13.000Z</time>
        <extensions>
          <ns3:TrackPointExtension>
            <ns3:atemp>22.0</ns3:atemp>
            <ns3:hr>145</ns3:hr>
          </ns3:TrackPointExtension>
        </extensions>
      </trkpt>
      <trkpt lat="46.6847385652363300323486328125" lon="6.87521710060536861419677734375">
        <ele>717.20001220703125</ele>
        <time>2013-08-15T15:57:14.000Z</time>
        <extensions>
          <ns3:TrackPointExtension>
            <ns3:atemp>22.0</ns3:atemp>
            <ns3:hr>144</ns3:hr>
          </ns3:TrackPointExtension>
        </extensions>
      </trkpt>
      <trkpt lat="46.6847023554146289825439453125" lon="6.87516689300537109375">
        <ele>717.4000244140625</ele>
        <time>2013-08-15T15:57:15.000Z</time>
        <extensions>
          <ns3:TrackPointExtension>
            <ns3:atemp>22.0</ns3:atemp>
            <ns3:hr>144</ns3:hr>
          </ns3:TrackPointExtension>
        </extensions>
      </trkpt>
      <trkpt lat="46.6846694983541965484619140625" lon="6.875114925205707550048828125">
        <ele>717.5999755859375</ele>
        <time>2013-08-15T15:57:16.000Z</time>
        <extensions>
          <ns3:TrackPointExtension>
            <ns3:atemp>22.0</ns3:atemp>
            <ns3:hr>144</ns3:hr>
          </ns3:TrackPointExtension>
        </extensions>
      </trkpt>
      <trkpt lat="46.684636808931827545166015625" lon="6.87506019137799739837646484375">
        <ele>717.4000244140625</ele>
        <time>2013-08-15T15:57:17.000Z</time>
        <extensions>
          <ns3:TrackPointExtension>
            <ns3:atemp>22.0</ns3:atemp>
            <ns3:hr>144</ns3:hr>
          </ns3:TrackPointExtension>
        </extensions>
      </trkpt>
      <trkpt lat="46.68460504151880741119384765625" lon="6.87500805594027042388916015625">
        <ele>717.4000244140625</ele>
        <time>2013-08-15T15:57:18.000Z</time>
        <extensions>
          <ns3:TrackPointExtension>
            <ns3:atemp>22.0</ns3:atemp>
            <ns3:hr>144</ns3:hr>
          </ns3:TrackPointExtension>
        </extensions>
      </trkpt>
      <trkpt lat="46.68457419611513614654541015625" lon="6.87495742924511432647705078125">
        <ele>717.20001220703125</ele>
        <time>2013-08-15T15:57:19.000Z</time>
        <extensions>
          <ns3:TrackPointExtension>
            <ns3:atemp>22.0</ns3:atemp>
            <ns3:hr>143</ns3:hr>
          </ns3:TrackPointExtension>
        </extensions>
      </trkpt>
      <trkpt lat="46.68454184196889400482177734375" lon="6.87491082586348056793212890625">
        <ele>717.4000244140625</ele>
        <time>2013-08-15T15:57:20.000Z</time>
        <extensions>
          <ns3:TrackPointExtension>
            <ns3:atemp>22.0</ns3:atemp>
            <ns3:hr>143</ns3:hr>
          </ns3:TrackPointExtension>
        </extensions>
      </trkpt>
      <trkpt lat="46.684502027928829193115234375" lon="6.87486623413860797882080078125">
        <ele>717.4000244140625</ele>
        <time>2013-08-15T15:57:21.000Z</time>
        <extensions>
          <ns3:TrackPointExtension>
            <ns3:atemp>22.0</ns3:atemp>
            <ns3:hr>142</ns3:hr>
          </ns3:TrackPointExtension>
        </extensions>
      </trkpt>
      <trkpt lat="46.68446104042232036590576171875" lon="6.87481711618602275848388671875">
        <ele>717.5999755859375</ele>
        <time>2013-08-15T15:57:22.000Z</time>
        <extensions>
          <ns3:TrackPointExtension>
            <ns3:atemp>22.0</ns3:atemp>
            <ns3:hr>141</ns3:hr>
          </ns3:TrackPointExtension>
        </extensions>
      </trkpt>
      <trkpt lat="46.6844203881919384002685546875" lon="6.8747610412538051605224609375">
        <ele>717.79998779296875</ele>
        <time>2013-08-15T15:57:23.000Z</time>
        <extensions>
          <ns3:TrackPointExtension>
            <ns3:atemp>22.0</ns3:atemp>
            <ns3:hr>140</ns3:hr>
          </ns3:TrackPointExtension>
        </extensions>
      </trkpt>
      <trkpt lat="46.68438074178993701934814453125" lon="6.87469976954162120819091796875">
        <ele>717.5999755859375</ele>
        <time>2013-08-15T15:57:24.000Z</time>
        <extensions>
          <ns3:TrackPointExtension>
            <ns3:atemp>22.0</ns3:atemp>
            <ns3:hr>140</ns3:hr>
          </ns3:TrackPointExtension>
        </extensions>
      </trkpt>
      <trkpt lat="46.68433899991214275360107421875" lon="6.874636821448802947998046875">
        <ele>717.5999755859375</ele>
        <time>2013-08-15T15:57:25.000Z</time>
        <extensions>
          <ns3:TrackPointExtension>
            <ns3:atemp>22.0</ns3:atemp>
            <ns3:hr>139</ns3:hr>
          </ns3:TrackPointExtension>
        </extensions>
      </trkpt>
      <trkpt lat="46.68429776094853878021240234375" lon="6.87457588501274585723876953125">
        <ele>717.5999755859375</ele>
        <time>2013-08-15T15:57:26.000Z</time>
        <extensions>
          <ns3:TrackPointExtension>
            <ns3:atemp>22.0</ns3:atemp>
            <ns3:hr>139</ns3:hr>
          </ns3:TrackPointExtension>
        </extensions>
      </trkpt>
      <trkpt lat="46.68425434269011020660400390625" lon="6.87451452948153018951416015625">
        <ele>717.79998779296875</ele>
        <time>2013-08-15T15:57:27.000Z</time>
        <extensions>
          <ns3:TrackPointExtension>
            <ns3:atemp>22.0</ns3:atemp>
            <ns3:hr>139</ns3:hr>
          </ns3:TrackPointExtension>
        </extensions>
      </trkpt>
      <trkpt lat="46.684211678802967071533203125" lon="6.87445149756968021392822265625">
        <ele>717.79998779296875</ele>
        <time>2013-08-15T15:57:28.000Z</time>
        <extensions>
          <ns3:TrackPointExtension>
            <ns3:atemp>22.0</ns3:atemp>
            <ns3:hr>138</ns3:hr>
          </ns3:TrackPointExtension>
        </extensions>
      </trkpt>
      <trkpt lat="46.68417018838226795196533203125" lon="6.8743895553052425384521484375">
        <ele>717.5999755859375</ele>
        <time>2013-08-15T15:57:29.000Z</time>
        <extensions>
          <ns3:TrackPointExtension>
            <ns3:atemp>22.0</ns3:atemp>
            <ns3:hr>138</ns3:hr>
          </ns3:TrackPointExtension>
        </extensions>
      </trkpt>
      <trkpt lat="46.6841256804764270782470703125" lon="6.87432526610791683197021484375">
        <ele>717.5999755859375</ele>
        <time>2013-08-15T15:57:30.000Z</time>
        <extensions>
          <ns3:TrackPointExtension>
            <ns3:atemp>22.0</ns3:atemp>
            <ns3:hr>138</ns3:hr>
          </ns3:TrackPointExtension>
        </extensions>
      </trkpt>
      <trkpt lat="46.6840799152851104736328125" lon="6.87426290474832057952880859375">
        <ele>717.4000244140625</ele>
        <time>2013-08-15T15:57:31.000Z</time>
        <extensions>
          <ns3:TrackPointExtension>
            <ns3:atemp>22.0</ns3:atemp>
            <ns3:hr>137</ns3:hr>
          </ns3:TrackPointExtension>
        </extensions>
      </trkpt>
      <trkpt lat="46.68403708375990390777587890625" lon="6.8741967715322971343994140625">
        <ele>717.4000244140625</ele>
        <time>2013-08-15T15:57:32.000Z</time>
        <extensions>
          <ns3:TrackPointExtension>
            <ns3:atemp>22.0</ns3:atemp>
            <ns3:hr>137</ns3:hr>
          </ns3:TrackPointExtension>
        </extensions>
      </trkpt>
      <trkpt lat="46.6839912347495555877685546875" lon="6.87412980012595653533935546875">
        <ele>717.4000244140625</ele>
        <time>2013-08-15T15:57:33.000Z</time>
        <extensions>
          <ns3:TrackPointExtension>
            <ns3:atemp>22.0</ns3:atemp>
            <ns3:hr>137</ns3:hr>
          </ns3:TrackPointExtension>
        </extensions>
      </trkpt>
      <trkpt lat="46.68394437991082668304443359375" lon="6.8740618228912353515625">
        <ele>717</ele>
        <time>2013-08-15T15:57:34.000Z</time>
        <extensions>
          <ns3:TrackPointExtension>
            <ns3:atemp>22.0</ns3:atemp>
            <ns3:hr>137</ns3:hr>
          </ns3:TrackPointExtension>
        </extensions>
      </trkpt>
      <trkpt lat="46.683895178139209747314453125" lon="6.8739966116845607757568359375">
        <ele>717.20001220703125</ele>
        <time>2013-08-15T15:57:35.000Z</time>
        <extensions>
          <ns3:TrackPointExtension>
            <ns3:atemp>22.0</ns3:atemp>
            <ns3:hr>137</ns3:hr>
          </ns3:TrackPointExtension>
        </extensions>
      </trkpt>
      <trkpt lat="46.6838492453098297119140625" lon="6.873930394649505615234375">
        <ele>717</ele>
        <time>2013-08-15T15:57:36.000Z</time>
        <extensions>
          <ns3:TrackPointExtension>
            <ns3:atemp>22.0</ns3:atemp>
            <ns3:hr>136</ns3:hr>
          </ns3:TrackPointExtension>
        </extensions>
      </trkpt>
      <trkpt lat="46.68380674906075000762939453125" lon="6.87386459670960903167724609375">
        <ele>716.79998779296875</ele>
        <time>2013-08-15T15:57:37.000Z</time>
        <extensions>
          <ns3:TrackPointExtension>
            <ns3:atemp>22.0</ns3:atemp>
            <ns3:hr>136</ns3:hr>
          </ns3:TrackPointExtension>
        </extensions>
      </trkpt>
      <trkpt lat="46.68376450426876544952392578125" lon="6.87380072660744190216064453125">
        <ele>716.20001220703125</ele>
        <time>2013-08-15T15:57:38.000Z</time>
        <extensions>
          <ns3:TrackPointExtension>
            <ns3:atemp>22.0</ns3:atemp>
            <ns3:hr>136</ns3:hr>
          </ns3:TrackPointExtension>
        </extensions>
      </trkpt>
      <trkpt lat="46.68372075073421001434326171875" lon="6.8737387843430042266845703125">
        <ele>716</ele>
        <time>2013-08-15T15:57:39.000Z</time>
        <extensions>
          <ns3:TrackPointExtension>
            <ns3:atemp>22.0</ns3:atemp>
            <ns3:hr>136</ns3:hr>
          </ns3:TrackPointExtension>
        </extensions>
      </trkpt>
      <trkpt lat="46.68367289006710052490234375" lon="6.8736734054982662200927734375">
        <ele>715.79998779296875</ele>
        <time>2013-08-15T15:57:40.000Z</time>
        <extensions>
          <ns3:TrackPointExtension>
            <ns3:atemp>22.0</ns3:atemp>
            <ns3:hr>135</ns3:hr>
          </ns3:TrackPointExtension>
        </extensions>
      </trkpt>
      <trkpt lat="46.6836251132190227508544921875" lon="6.873606182634830474853515625">
        <ele>715.79998779296875</ele>
        <time>2013-08-15T15:57:41.000Z</time>
        <extensions>
          <ns3:TrackPointExtension>
            <ns3:atemp>22.0</ns3:atemp>
            <ns3:hr>135</ns3:hr>
          </ns3:TrackPointExtension>
        </extensions>
      </trkpt>
      <trkpt lat="46.68357674963772296905517578125" lon="6.8735346011817455291748046875">
        <ele>715.4000244140625</ele>
        <time>2013-08-15T15:57:42.000Z</time>
        <extensions>
          <ns3:TrackPointExtension>
            <ns3:atemp>22.0</ns3:atemp>
            <ns3:hr>134</ns3:hr>
          </ns3:TrackPointExtension>
        </extensions>
      </trkpt>
      <trkpt lat="46.6835275478661060333251953125" lon="6.87346293590962886810302734375">
        <ele>715.4000244140625</ele>
        <time>2013-08-15T15:57:43.000Z</time>
        <extensions>
          <ns3:TrackPointExtension>
            <ns3:atemp>22.0</ns3:atemp>
            <ns3:hr>133</ns3:hr>
          </ns3:TrackPointExtension>
        </extensions>
      </trkpt>
      <trkpt lat="46.68347650207579135894775390625" lon="6.873388588428497314453125">
        <ele>715.20001220703125</ele>
        <time>2013-08-15T15:57:44.000Z</time>
        <extensions>
          <ns3:TrackPointExtension>
            <ns3:atemp>22.0</ns3:atemp>
            <ns3:hr>133</ns3:hr>
          </ns3:TrackPointExtension>
        </extensions>
      </trkpt>
      <trkpt lat="46.6834252886474132537841796875" lon="6.87331591732800006866455078125">
        <ele>715</ele>
        <time>2013-08-15T15:57:45.000Z</time>
        <extensions>
          <ns3:TrackPointExtension>
            <ns3:atemp>22.0</ns3:atemp>
            <ns3:hr>133</ns3:hr>
          </ns3:TrackPointExtension>
        </extensions>
      </trkpt>
      <trkpt lat="46.6833736561238765716552734375" lon="6.87323997728526592254638671875">
        <ele>714.5999755859375</ele>
        <time>2013-08-15T15:57:46.000Z</time>
        <extensions>
          <ns3:TrackPointExtension>
            <ns3:atemp>22.0</ns3:atemp>
            <ns3:hr>133</ns3:hr>
          </ns3:TrackPointExtension>
        </extensions>
      </trkpt>
      <trkpt lat="46.68331992812454700469970703125" lon="6.873160935938358306884765625">
        <ele>714.20001220703125</ele>
        <time>2013-08-15T15:57:47.000Z</time>
        <extensions>
          <ns3:TrackPointExtension>
            <ns3:atemp>22.0</ns3:atemp>
            <ns3:hr>132</ns3:hr>
          </ns3:TrackPointExtension>
        </extensions>
      </trkpt>
      <trkpt lat="46.68326611630618572235107421875" lon="6.87307946383953094482421875">
        <ele>713.5999755859375</ele>
        <time>2013-08-15T15:57:48.000Z</time>
        <extensions>
          <ns3:TrackPointExtension>
            <ns3:atemp>22.0</ns3:atemp>
            <ns3:hr>131</ns3:hr>
          </ns3:TrackPointExtension>
        </extensions>
      </trkpt>
      <trkpt lat="46.68321314267814159393310546875" lon="6.87299438752233982086181640625">
        <ele>713.20001220703125</ele>
        <time>2013-08-15T15:57:49.000Z</time>
        <extensions>
          <ns3:TrackPointExtension>
            <ns3:atemp>22.0</ns3:atemp>
            <ns3:hr>130</ns3:hr>
          </ns3:TrackPointExtension>
        </extensions>
      </trkpt>
      <trkpt lat="46.6831574030220508575439453125" lon="6.87290654517710208892822265625">
        <ele>712.79998779296875</ele>
        <time>2013-08-15T15:57:50.000Z</time>
        <extensions>
          <ns3:TrackPointExtension>
            <ns3:atemp>22.0</ns3:atemp>
            <ns3:hr>130</ns3:hr>
          </ns3:TrackPointExtension>
        </extensions>
      </trkpt>
      <trkpt lat="46.68309814296662807464599609375" lon="6.8728150986135005950927734375">
        <ele>712.79998779296875</ele>
        <time>2013-08-15T15:57:51.000Z</time>
        <extensions>
          <ns3:TrackPointExtension>
            <ns3:atemp>22.0</ns3:atemp>
            <ns3:hr>129</ns3:hr>
          </ns3:TrackPointExtension>
        </extensions>
      </trkpt>
      <trkpt lat="46.68303527869284152984619140625" lon="6.87272113747894763946533203125">
        <ele>712.79998779296875</ele>
        <time>2013-08-15T15:57:52.000Z</time>
        <extensions>
          <ns3:TrackPointExtension>
            <ns3:atemp>22.0</ns3:atemp>
            <ns3:hr>129</ns3:hr>
          </ns3:TrackPointExtension>
        </extensions>
      </trkpt>
      <trkpt lat="46.6829679720103740692138671875" lon="6.87262340448796749114990234375">
        <ele>712.79998779296875</ele>
        <time>2013-08-15T15:57:53.000Z</time>
        <extensions>
          <ns3:TrackPointExtension>
            <ns3:atemp>22.0</ns3:atemp>
            <ns3:hr>128</ns3:hr>
          </ns3:TrackPointExtension>
        </extensions>
      </trkpt>
      <trkpt lat="46.68289815075695514678955078125" lon="6.87252558767795562744140625">
        <ele>712.4000244140625</ele>
        <time>2013-08-15T15:57:54.000Z</time>
        <extensions>
          <ns3:TrackPointExtension>
            <ns3:atemp>22.0</ns3:atemp>
            <ns3:hr>128</ns3:hr>
          </ns3:TrackPointExtension>
        </extensions>
      </trkpt>
      <trkpt lat="46.6828264854848384857177734375" lon="6.87242575921118259429931640625">
        <ele>712</ele>
        <time>2013-08-15T15:57:55.000Z</time>
        <extensions>
          <ns3:TrackPointExtension>
            <ns3:atemp>22.0</ns3:atemp>
            <ns3:hr>128</ns3:hr>
          </ns3:TrackPointExtension>
        </extensions>
      </trkpt>
      <trkpt lat="46.68275289237499237060546875" lon="6.8723222427070140838623046875">
        <ele>711.4000244140625</ele>
        <time>2013-08-15T15:57:56.000Z</time>
        <extensions>
          <ns3:TrackPointExtension>
            <ns3:atemp>22.0</ns3:atemp>
            <ns3:hr>127</ns3:hr>
          </ns3:TrackPointExtension>
        </extensions>
      </trkpt>
      <trkpt lat="46.68267955072224140167236328125" lon="6.87221051193773746490478515625">
        <ele>710.79998779296875</ele>
        <time>2013-08-15T15:57:57.000Z</time>
        <extensions>
          <ns3:TrackPointExtension>
            <ns3:atemp>22.0</ns3:atemp>
            <ns3:hr>127</ns3:hr>
          </ns3:TrackPointExtension>
        </extensions>
      </trkpt>
      <trkpt lat="46.6826085560023784637451171875" lon="6.8720989488065242767333984375">
        <ele>709.79998779296875</ele>
        <time>2013-08-15T15:57:58.000Z</time>
        <extensions>
          <ns3:TrackPointExtension>
            <ns3:atemp>22.0</ns3:atemp>
            <ns3:hr>126</ns3:hr>
          </ns3:TrackPointExtension>
        </extensions>
      </trkpt>
      <trkpt lat="46.68254158459603786468505859375" lon="6.871995516121387481689453125">
        <ele>709</ele>
        <time>2013-08-15T15:57:59.000Z</time>
        <extensions>
          <ns3:TrackPointExtension>
            <ns3:atemp>22.0</ns3:atemp>
            <ns3:hr>125</ns3:hr>
          </ns3:TrackPointExtension>
        </extensions>
      </trkpt>
      <trkpt lat="46.68248425237834453582763671875" lon="6.8719122000038623809814453125">
        <ele>707.5999755859375</ele>
        <time>2013-08-15T15:58:00.000Z</time>
        <extensions>
          <ns3:TrackPointExtension>
            <ns3:atemp>22.0</ns3:atemp>
            <ns3:hr>125</ns3:hr>
          </ns3:TrackPointExtension>
        </extensions>
      </trkpt>
      <trkpt lat="46.68242432177066802978515625" lon="6.871870458126068115234375">
        <ele>706</ele>
        <time>2013-08-15T15:58:01.000Z</time>
        <extensions>
          <ns3:TrackPointExtension>
            <ns3:atemp>22.0</ns3:atemp>
            <ns3:hr>124</ns3:hr>
          </ns3:TrackPointExtension>
        </extensions>
      </trkpt>
      <trkpt lat="46.68235533870756626129150390625" lon="6.8718852102756500244140625">
        <ele>704.79998779296875</ele>
        <time>2013-08-15T15:58:02.000Z</time>
        <extensions>
          <ns3:TrackPointExtension>
            <ns3:atemp>22.0</ns3:atemp>
            <ns3:hr>122</ns3:hr>
          </ns3:TrackPointExtension>
        </extensions>
      </trkpt>
      <trkpt lat="46.68229750357568264007568359375" lon="6.871950589120388031005859375">
        <ele>704.4000244140625</ele>
        <time>2013-08-15T15:58:03.000Z</time>
        <extensions>
          <ns3:TrackPointExtension>
            <ns3:atemp>22.0</ns3:atemp>
            <ns3:hr>121</ns3:hr>
          </ns3:TrackPointExtension>
        </extensions>
      </trkpt>
      <trkpt lat="46.682254336774349212646484375" lon="6.8720265291631221771240234375">
        <ele>704.5999755859375</ele>
        <time>2013-08-15T15:58:04.000Z</time>
        <extensions>
          <ns3:TrackPointExtension>
            <ns3:atemp>22.0</ns3:atemp>
            <ns3:hr>120</ns3:hr>
          </ns3:TrackPointExtension>
        </extensions>
      </trkpt>
      <trkpt lat="46.68221016414463520050048828125" lon="6.872098781168460845947265625">
        <ele>705</ele>
        <time>2013-08-15T15:58:05.000Z</time>
        <extensions>
          <ns3:TrackPointExtension>
            <ns3:atemp>22.0</ns3:atemp>
            <ns3:hr>121</ns3:hr>
          </ns3:TrackPointExtension>
        </extensions>
      </trkpt>
      <trkpt lat="46.682163141667842864990234375" lon="6.872169189155101776123046875">
        <ele>705.4000244140625</ele>
        <time>2013-08-15T15:58:06.000Z</time>
        <extensions>
          <ns3:TrackPointExtension>
            <ns3:atemp>22.0</ns3:atemp>
            <ns3:hr>121</ns3:hr>
          </ns3:TrackPointExtension>
        </extensions>
      </trkpt>
      <trkpt lat="46.68211729265749454498291015625" lon="6.87223833985626697540283203125">
        <ele>705.5999755859375</ele>
        <time>2013-08-15T15:58:07.000Z</time>
        <extensions>
          <ns3:TrackPointExtension>
            <ns3:atemp>22.0</ns3:atemp>
            <ns3:hr>121</ns3:hr>
          </ns3:TrackPointExtension>
        </extensions>
      </trkpt>
      <trkpt lat="46.68207161128520965576171875" lon="6.87230824492871761322021484375">
        <ele>705.5999755859375</ele>
        <time>2013-08-15T15:58:08.000Z</time>
        <extensions>
          <ns3:TrackPointExtension>
            <ns3:atemp>22.0</ns3:atemp>
            <ns3:hr>121</ns3:hr>
          </ns3:TrackPointExtension>
        </extensions>
      </trkpt>
      <trkpt lat="46.68202442117035388946533203125" lon="6.872377060353755950927734375">
        <ele>705.79998779296875</ele>
        <time>2013-08-15T15:58:09.000Z</time>
        <extensions>
          <ns3:TrackPointExtension>
            <ns3:atemp>22.0</ns3:atemp>
            <ns3:hr>121</ns3:hr>
          </ns3:TrackPointExtension>
        </extensions>
      </trkpt>
      <trkpt lat="46.68197496794164180755615234375" lon="6.872442774474620819091796875">
        <ele>705.5999755859375</ele>
        <time>2013-08-15T15:58:10.000Z</time>
        <extensions>
          <ns3:TrackPointExtension>
            <ns3:atemp>22.0</ns3:atemp>
            <ns3:hr>121</ns3:hr>
          </ns3:TrackPointExtension>
        </extensions>
      </trkpt>
      <trkpt lat="46.68192869983613491058349609375" lon="6.87251058407127857208251953125">
        <ele>705.5999755859375</ele>
        <time>2013-08-15T15:58:11.000Z</time>
        <extensions>
          <ns3:TrackPointExtension>
            <ns3:atemp>22.0</ns3:atemp>
            <ns3:hr>122</ns3:hr>
          </ns3:TrackPointExtension>
        </extensions>
      </trkpt>
      <trkpt lat="46.68188360519707202911376953125" lon="6.872582249343395233154296875">
        <ele>705.5999755859375</ele>
        <time>2013-08-15T15:58:12.000Z</time>
        <extensions>
          <ns3:TrackPointExtension>
            <ns3:atemp>22.0</ns3:atemp>
            <ns3:hr>122</ns3:hr>
          </ns3:TrackPointExtension>
        </extensions>
      </trkpt>
      <trkpt lat="46.68183750472962856292724609375" lon="6.872649304568767547607421875">
        <ele>705.5999755859375</ele>
        <time>2013-08-15T15:58:13.000Z</time>
        <extensions>
          <ns3:TrackPointExtension>
            <ns3:atemp>22.0</ns3:atemp>
            <ns3:hr>122</ns3:hr>
          </ns3:TrackPointExtension>
        </extensions>
      </trkpt>
      <trkpt lat="46.68179039843380451202392578125" lon="6.87271744944155216217041015625">
        <ele>705.5999755859375</ele>
        <time>2013-08-15T15:58:14.000Z</time>
        <extensions>
          <ns3:TrackPointExtension>
            <ns3:atemp>22.0</ns3:atemp>
            <ns3:hr>122</ns3:hr>
          </ns3:TrackPointExtension>
        </extensions>
      </trkpt>
      <trkpt lat="46.681747734546661376953125" lon="6.87279087491333484649658203125">
        <ele>705.5999755859375</ele>
        <time>2013-08-15T15:58:15.000Z</time>
        <extensions>
          <ns3:TrackPointExtension>
            <ns3:atemp>22.0</ns3:atemp>
            <ns3:hr>122</ns3:hr>
          </ns3:TrackPointExtension>
        </extensions>
      </trkpt>
      <trkpt lat="46.68170548975467681884765625" lon="6.8728657253086566925048828125">
        <ele>705.5999755859375</ele>
        <time>2013-08-15T15:58:16.000Z</time>
        <extensions>
          <ns3:TrackPointExtension>
            <ns3:atemp>22.0</ns3:atemp>
            <ns3:hr>122</ns3:hr>
          </ns3:TrackPointExtension>
        </extensions>
      </trkpt>
      <trkpt lat="46.681662239134311676025390625" lon="6.87293923459947109222412109375">
        <ele>705.79998779296875</ele>
        <time>2013-08-15T15:58:17.000Z</time>
        <extensions>
          <ns3:TrackPointExtension>
            <ns3:atemp>22.0</ns3:atemp>
            <ns3:hr>122</ns3:hr>
          </ns3:TrackPointExtension>
        </extensions>
      </trkpt>
      <trkpt lat="46.681618653237819671630859375" lon="6.87301182188093662261962890625">
        <ele>706</ele>
        <time>2013-08-15T15:58:18.000Z</time>
        <extensions>
          <ns3:TrackPointExtension>
            <ns3:atemp>22.0</ns3:atemp>
            <ns3:hr>122</ns3:hr>
          </ns3:TrackPointExtension>
        </extensions>
      </trkpt>
      <trkpt lat="46.68157498352229595184326171875" lon="6.87308482825756072998046875">
        <ele>706.20001220703125</ele>
        <time>2013-08-15T15:58:19.000Z</time>
        <extensions>
          <ns3:TrackPointExtension>
            <ns3:atemp>22.0</ns3:atemp>
            <ns3:hr>122</ns3:hr>
          </ns3:TrackPointExtension>
        </extensions>
      </trkpt>
      <trkpt lat="46.68153005652129650115966796875" lon="6.8731577508151531219482421875">
        <ele>706.20001220703125</ele>
        <time>2013-08-15T15:58:20.000Z</time>
        <extensions>
          <ns3:TrackPointExtension>
            <ns3:atemp>22.0</ns3:atemp>
            <ns3:hr>122</ns3:hr>
          </ns3:TrackPointExtension>
        </extensions>
      </trkpt>
      <trkpt lat="46.68148663826286792755126953125" lon="6.87323092482984066009521484375">
        <ele>706</ele>
        <time>2013-08-15T15:58:21.000Z</time>
        <extensions>
          <ns3:TrackPointExtension>
            <ns3:atemp>22.0</ns3:atemp>
            <ns3:hr>123</ns3:hr>
          </ns3:TrackPointExtension>
        </extensions>
      </trkpt>
      <trkpt lat="46.68144221417605876922607421875" lon="6.8733035959303379058837890625">
        <ele>706.20001220703125</ele>
        <time>2013-08-15T15:58:22.000Z</time>
        <extensions>
          <ns3:TrackPointExtension>
            <ns3:atemp>22.0</ns3:atemp>
            <ns3:hr>123</ns3:hr>
          </ns3:TrackPointExtension>
        </extensions>
      </trkpt>
      <trkpt lat="46.68139703571796417236328125" lon="6.87337853014469146728515625">
        <ele>706</ele>
        <time>2013-08-15T15:58:23.000Z</time>
        <extensions>
          <ns3:TrackPointExtension>
            <ns3:atemp>22.0</ns3:atemp>
            <ns3:hr>123</ns3:hr>
          </ns3:TrackPointExtension>
        </extensions>
      </trkpt>
      <trkpt lat="46.68135219253599643707275390625" lon="6.8734531290829181671142578125">
        <ele>706</ele>
        <time>2013-08-15T15:58:24.000Z</time>
        <extensions>
          <ns3:TrackPointExtension>
            <ns3:atemp>22.0</ns3:atemp>
            <ns3:hr>124</ns3:hr>
          </ns3:TrackPointExtension>
        </extensions>
      </trkpt>
      <trkpt lat="46.68130810372531414031982421875" lon="6.8735299073159694671630859375">
        <ele>705.79998779296875</ele>
        <time>2013-08-15T15:58:25.000Z</time>
        <extensions>
          <ns3:TrackPointExtension>
            <ns3:atemp>22.0</ns3:atemp>
            <ns3:hr>124</ns3:hr>
          </ns3:TrackPointExtension>
        </extensions>
      </trkpt>
      <trkpt lat="46.68126426637172698974609375" lon="6.8736070208251476287841796875">
        <ele>705.79998779296875</ele>
        <time>2013-08-15T15:58:26.000Z</time>
        <extensions>
          <ns3:TrackPointExtension>
            <ns3:atemp>22.0</ns3:atemp>
            <ns3:hr>124</ns3:hr>
          </ns3:TrackPointExtension>
        </extensions>
      </trkpt>
      <trkpt lat="46.681218333542346954345703125" lon="6.87368438579142093658447265625">
        <ele>706</ele>
        <time>2013-08-15T15:58:27.000Z</time>
        <extensions>
          <ns3:TrackPointExtension>
            <ns3:atemp>22.0</ns3:atemp>
            <ns3:hr>125</ns3:hr>
          </ns3:TrackPointExtension>
        </extensions>
      </trkpt>
      <trkpt lat="46.68117147870361804962158203125" lon="6.87376267276704311370849609375">
        <ele>706</ele>
        <time>2013-08-15T15:58:28.000Z</time>
        <extensions>
          <ns3:TrackPointExtension>
            <ns3:atemp>22.0</ns3:atemp>
            <ns3:hr>125</ns3:hr>
          </ns3:TrackPointExtension>
        </extensions>
      </trkpt>
      <trkpt lat="46.68112772516906261444091796875" lon="6.8738464079797267913818359375">
        <ele>706.20001220703125</ele>
        <time>2013-08-15T15:58:29.000Z</time>
        <extensions>
          <ns3:TrackPointExtension>
            <ns3:atemp>22.0</ns3:atemp>
            <ns3:hr>125</ns3:hr>
          </ns3:TrackPointExtension>
        </extensions>
      </trkpt>
      <trkpt lat="46.68108413927257061004638671875" lon="6.873930394649505615234375">
        <ele>705.79998779296875</ele>
        <time>2013-08-15T15:58:30.000Z</time>
        <extensions>
          <ns3:TrackPointExtension>
            <ns3:atemp>22.0</ns3:atemp>
            <ns3:hr>125</ns3:hr>
          </ns3:TrackPointExtension>
        </extensions>
      </trkpt>
      <trkpt lat="46.68103954754769802093505859375" lon="6.8740184046328067779541015625">
        <ele>705.5999755859375</ele>
        <time>2013-08-15T15:58:31.000Z</time>
        <extensions>
          <ns3:TrackPointExtension>
            <ns3:atemp>22.0</ns3:atemp>
            <ns3:hr>125</ns3:hr>
          </ns3:TrackPointExtension>
        </extensions>
      </trkpt>
      <trkpt lat="46.6809965483844280242919921875" lon="6.87410683371126651763916015625">
        <ele>705.20001220703125</ele>
        <time>2013-08-15T15:58:32.000Z</time>
        <extensions>
          <ns3:TrackPointExtension>
            <ns3:atemp>22.0</ns3:atemp>
            <ns3:hr>125</ns3:hr>
          </ns3:TrackPointExtension>
        </extensions>
      </trkpt>
      <trkpt lat="46.6809576563537120819091796875" lon="6.874201297760009765625">
        <ele>705</ele>
        <time>2013-08-15T15:58:33.000Z</time>
        <extensions>
          <ns3:TrackPointExtension>
            <ns3:atemp>22.0</ns3:atemp>
            <ns3:hr>125</ns3:hr>
          </ns3:TrackPointExtension>
        </extensions>
      </trkpt>
      <trkpt lat="46.680919937789440155029296875" lon="6.87429626472294330596923828125">
        <ele>704.5999755859375</ele>
        <time>2013-08-15T15:58:34.000Z</time>
        <extensions>
          <ns3:TrackPointExtension>
            <ns3:atemp>22.0</ns3:atemp>
            <ns3:hr>125</ns3:hr>
          </ns3:TrackPointExtension>
        </extensions>
      </trkpt>
      <trkpt lat="46.68088741600513458251953125" lon="6.87439416535198688507080078125">
        <ele>704.4000244140625</ele>
        <time>2013-08-15T15:58:35.000Z</time>
        <extensions>
          <ns3:TrackPointExtension>
            <ns3:atemp>22.0</ns3:atemp>
            <ns3:hr>125</ns3:hr>
          </ns3:TrackPointExtension>
        </extensions>
      </trkpt>
      <trkpt lat="46.6808590851724147796630859375" lon="6.87448619864881038665771484375">
        <ele>704.20001220703125</ele>
        <time>2013-08-15T15:58:36.000Z</time>
        <extensions>
          <ns3:TrackPointExtension>
            <ns3:atemp>22.0</ns3:atemp>
            <ns3:hr>124</ns3:hr>
          </ns3:TrackPointExtension>
        </extensions>
      </trkpt>
      <trkpt lat="46.68082547374069690704345703125" lon="6.87455476261675357818603515625">
        <ele>703.79998779296875</ele>
        <time>2013-08-15T15:58:37.000Z</time>
        <extensions>
          <ns3:TrackPointExtension>
            <ns3:atemp>22.0</ns3:atemp>
            <ns3:hr>123</ns3:hr>
          </ns3:TrackPointExtension>
        </extensions>
      </trkpt>
      <trkpt lat="46.68078641407191753387451171875" lon="6.87457119114696979522705078125">
        <ele>703.20001220703125</ele>
        <time>2013-08-15T15:58:38.000Z</time>
        <extensions>
          <ns3:TrackPointExtension>
            <ns3:atemp>22.0</ns3:atemp>
            <ns3:hr>122</ns3:hr>
          </ns3:TrackPointExtension>
        </extensions>
      </trkpt>
      <trkpt lat="46.68076177127659320831298828125" lon="6.87454001046717166900634765625">
        <ele>702.20001220703125</ele>
        <time>2013-08-15T15:58:39.000Z</time>
        <extensions>
          <ns3:TrackPointExtension>
            <ns3:atemp>22.0</ns3:atemp>
            <ns3:hr>122</ns3:hr>
          </ns3:TrackPointExtension>
        </extensions>
      </trkpt>
      <trkpt lat="46.6807417385280132293701171875" lon="6.8745109252631664276123046875">
        <ele>701.5999755859375</ele>
        <time>2013-08-15T15:58:40.000Z</time>
        <extensions>
          <ns3:TrackPointExtension>
            <ns3:atemp>22.0</ns3:atemp>
            <ns3:hr>121</ns3:hr>
          </ns3:TrackPointExtension>
        </extensions>
      </trkpt>
      <trkpt lat="46.68072916567325592041015625" lon="6.87446893192827701568603515625">
        <ele>701.4000244140625</ele>
        <time>2013-08-15T15:58:41.000Z</time>
        <extensions>
          <ns3:TrackPointExtension>
            <ns3:atemp>22.0</ns3:atemp>
            <ns3:hr>122</ns3:hr>
          </ns3:TrackPointExtension>
        </extensions>
      </trkpt>
      <trkpt lat="46.6807175986468791961669921875" lon="6.8744126893579959869384765625">
        <ele>701.4000244140625</ele>
        <time>2013-08-15T15:58:42.000Z</time>
        <extensions>
          <ns3:TrackPointExtension>
            <ns3:atemp>22.0</ns3:atemp>
            <ns3:hr>121</ns3:hr>
          </ns3:TrackPointExtension>
        </extensions>
      </trkpt>
      <trkpt lat="46.68070477433502674102783203125" lon="6.87435125000774860382080078125">
        <ele>701.4000244140625</ele>
        <time>2013-08-15T15:58:43.000Z</time>
        <extensions>
          <ns3:TrackPointExtension>
            <ns3:atemp>22.0</ns3:atemp>
            <ns3:hr>121</ns3:hr>
          </ns3:TrackPointExtension>
        </extensions>
      </trkpt>
      <trkpt lat="46.68069706298410892486572265625" lon="6.8742809258401393890380859375">
        <ele>701.5999755859375</ele>
        <time>2013-08-15T15:58:44.000Z</time>
        <extensions>
          <ns3:TrackPointExtension>
            <ns3:atemp>22.0</ns3:atemp>
            <ns3:hr>121</ns3:hr>
          </ns3:TrackPointExtension>
        </extensions>
      </trkpt>
      <trkpt lat="46.68069035746157169342041015625" lon="6.87420104630291461944580078125">
        <ele>701.79998779296875</ele>
        <time>2013-08-15T15:58:45.000Z</time>
        <extensions>
          <ns3:TrackPointExtension>
            <ns3:atemp>22.0</ns3:atemp>
            <ns3:hr>121</ns3:hr>
          </ns3:TrackPointExtension>
        </extensions>
      </trkpt>
      <trkpt lat="46.68067811988294124603271484375" lon="6.87411873601377010345458984375">
        <ele>702</ele>
        <time>2013-08-15T15:58:46.000Z</time>
        <extensions>
          <ns3:TrackPointExtension>
            <ns3:atemp>22.0</ns3:atemp>
            <ns3:hr>120</ns3:hr>
          </ns3:TrackPointExtension>
        </extensions>
      </trkpt>
      <trkpt lat="46.68066613376140594482421875" lon="6.8740363419055938720703125">
        <ele>702.20001220703125</ele>
        <time>2013-08-15T15:58:47.000Z</time>
        <extensions>
          <ns3:TrackPointExtension>
            <ns3:atemp>22.0</ns3:atemp>
            <ns3:hr>120</ns3:hr>
          </ns3:TrackPointExtension>
        </extensions>
      </trkpt>
      <trkpt lat="46.6806471906602382659912109375" lon="6.87395646236836910247802734375">
        <ele>702.4000244140625</ele>
        <time>2013-08-15T15:58:48.000Z</time>
        <extensions>
          <ns3:TrackPointExtension>
            <ns3:atemp>22.0</ns3:atemp>
            <ns3:hr>120</ns3:hr>
          </ns3:TrackPointExtension>
        </extensions>
      </trkpt>
      <trkpt lat="46.6806220449507236480712890625" lon="6.8738789297640323638916015625">
        <ele>702.5999755859375</ele>
        <time>2013-08-15T15:58:49.000Z</time>
        <extensions>
          <ns3:TrackPointExtension>
            <ns3:atemp>22.0</ns3:atemp>
            <ns3:hr>120</ns3:hr>
          </ns3:TrackPointExtension>
        </extensions>
      </trkpt>
      <trkpt lat="46.6805958934128284454345703125" lon="6.8737991340458393096923828125">
        <ele>702.79998779296875</ele>
        <time>2013-08-15T15:58:50.000Z</time>
        <extensions>
          <ns3:TrackPointExtension>
            <ns3:atemp>22.0</ns3:atemp>
            <ns3:hr>121</ns3:hr>
          </ns3:TrackPointExtension>
        </extensions>
      </trkpt>
      <trkpt lat="46.68056848458945751190185546875" lon="6.8737186677753925323486328125">
        <ele>703</ele>
        <time>2013-08-15T15:58:51.000Z</time>
        <extensions>
          <ns3:TrackPointExtension>
            <ns3:atemp>22.0</ns3:atemp>
            <ns3:hr>121</ns3:hr>
          </ns3:TrackPointExtension>
        </extensions>
      </trkpt>
      <trkpt lat="46.6805395670235157012939453125" lon="6.873637028038501739501953125">
        <ele>703.5999755859375</ele>
        <time>2013-08-15T15:58:52.000Z</time>
        <extensions>
          <ns3:TrackPointExtension>
            <ns3:atemp>22.0</ns3:atemp>
            <ns3:hr>123</ns3:hr>
          </ns3:TrackPointExtension>
        </extensions>
      </trkpt>
      <trkpt lat="46.680510230362415313720703125" lon="6.87354826368391513824462890625">
        <ele>704</ele>
        <time>2013-08-15T15:58:53.000Z</time>
        <extensions>
          <ns3:TrackPointExtension>
            <ns3:atemp>22.0</ns3:atemp>
            <ns3:hr>124</ns3:hr>
          </ns3:TrackPointExtension>
        </extensions>
      </trkpt>
      <trkpt lat="46.68047863058745861053466796875" lon="6.8734598346054553985595703125">
        <ele>704.20001220703125</ele>
        <time>2013-08-15T15:58:54.000Z</time>
        <extensions>
          <ns3:TrackPointExtension>
            <ns3:atemp>22.0</ns3:atemp>
            <ns3:hr>126</ns3:hr>
          </ns3:TrackPointExtension>
        </extensions>
      </trkpt>
      <trkpt lat="46.68044392950832843780517578125" lon="6.8733713217079639434814453125">
        <ele>704</ele>
        <time>2013-08-15T15:58:55.000Z</time>
        <extensions>
          <ns3:TrackPointExtension>
            <ns3:atemp>22.0</ns3:atemp>
            <ns3:hr>126</ns3:hr>
          </ns3:TrackPointExtension>
        </extensions>
      </trkpt>
      <trkpt lat="46.6803913749754428863525390625" lon="6.87328758649528026580810546875">
        <ele>704.20001220703125</ele>
        <time>2013-08-15T15:58:56.000Z</time>
        <extensions>
          <ns3:TrackPointExtension>
            <ns3:atemp>22.0</ns3:atemp>
            <ns3:hr>127</ns3:hr>
          </ns3:TrackPointExtension>
        </extensions>
      </trkpt>
      <trkpt lat="46.68032457120716571807861328125" lon="6.8732177652418613433837890625">
        <ele>704.20001220703125</ele>
        <time>2013-08-15T15:58:57.000Z</time>
        <extensions>
          <ns3:TrackPointExtension>
            <ns3:atemp>22.0</ns3:atemp>
            <ns3:hr>128</ns3:hr>
          </ns3:TrackPointExtension>
        </extensions>
      </trkpt>
      <trkpt lat="46.68025718070566654205322265625" lon="6.87314626760780811309814453125">
        <ele>704.4000244140625</ele>
        <time>2013-08-15T15:58:58.000Z</time>
        <extensions>
          <ns3:TrackPointExtension>
            <ns3:atemp>22.0</ns3:atemp>
            <ns3:hr>129</ns3:hr>
          </ns3:TrackPointExtension>
        </extensions>
      </trkpt>
      <trkpt lat="46.680185683071613311767578125" lon="6.87307854183018207550048828125">
        <ele>704.20001220703125</ele>
        <time>2013-08-15T15:58:59.000Z</time>
        <extensions>
          <ns3:TrackPointExtension>
            <ns3:atemp>22.0</ns3:atemp>
            <ns3:hr>130</ns3:hr>
          </ns3:TrackPointExtension>
        </extensions>
      </trkpt>
      <trkpt lat="46.68011317960917949676513671875" lon="6.87300813384354114532470703125">
        <ele>704.20001220703125</ele>
        <time>2013-08-15T15:59:00.000Z</time>
        <extensions>
          <ns3:TrackPointExtension>
            <ns3:atemp>22.0</ns3:atemp>
            <ns3:hr>130</ns3:hr>
          </ns3:TrackPointExtension>
        </extensions>
      </trkpt>
      <trkpt lat="46.68004662729799747467041015625" lon="6.87293655239045619964599609375">
        <ele>704</ele>
        <time>2013-08-15T15:59:01.000Z</time>
        <extensions>
          <ns3:TrackPointExtension>
            <ns3:atemp>22.0</ns3:atemp>
            <ns3:hr>130</ns3:hr>
          </ns3:TrackPointExtension>
        </extensions>
      </trkpt>
      <trkpt lat="46.6799813322722911834716796875" lon="6.87286430038511753082275390625">
        <ele>704</ele>
        <time>2013-08-15T15:59:02.000Z</time>
        <extensions>
          <ns3:TrackPointExtension>
            <ns3:atemp>22.0</ns3:atemp>
            <ns3:hr>131</ns3:hr>
          </ns3:TrackPointExtension>
        </extensions>
      </trkpt>
      <trkpt lat="46.6799142770469188690185546875" lon="6.8727882765233516693115234375">
        <ele>703.79998779296875</ele>
        <time>2013-08-15T15:59:03.000Z</time>
        <extensions>
          <ns3:TrackPointExtension>
            <ns3:atemp>22.0</ns3:atemp>
            <ns3:hr>131</ns3:hr>
          </ns3:TrackPointExtension>
        </extensions>
      </trkpt>
      <trkpt lat="46.679848730564117431640625" lon="6.87271694652736186981201171875">
        <ele>704</ele>
        <time>2013-08-15T15:59:04.000Z</time>
        <extensions>
          <ns3:TrackPointExtension>
            <ns3:atemp>22.0</ns3:atemp>
            <ns3:hr>132</ns3:hr>
          </ns3:TrackPointExtension>
        </extensions>
      </trkpt>
      <trkpt lat="46.67978393845260143280029296875" lon="6.8726504780352115631103515625">
        <ele>703.79998779296875</ele>
        <time>2013-08-15T15:59:05.000Z</time>
        <extensions>
          <ns3:TrackPointExtension>
            <ns3:atemp>22.0</ns3:atemp>
            <ns3:hr>132</ns3:hr>
          </ns3:TrackPointExtension>
        </extensions>
      </trkpt>
      <trkpt lat="46.67972291819751262664794921875" lon="6.87258702702820301055908203125">
        <ele>703.79998779296875</ele>
        <time>2013-08-15T15:59:06.000Z</time>
        <extensions>
          <ns3:TrackPointExtension>
            <ns3:atemp>22.0</ns3:atemp>
            <ns3:hr>132</ns3:hr>
          </ns3:TrackPointExtension>
        </extensions>
      </trkpt>
      <trkpt lat="46.67966055683791637420654296875" lon="6.8725294433534145355224609375">
        <ele>703.5999755859375</ele>
        <time>2013-08-15T15:59:07.000Z</time>
        <extensions>
          <ns3:TrackPointExtension>
            <ns3:atemp>22.0</ns3:atemp>
            <ns3:hr>132</ns3:hr>
          </ns3:TrackPointExtension>
        </extensions>
      </trkpt>
      <trkpt lat="46.67959316633641719818115234375" lon="6.87248208560049533843994140625">
        <ele>703.79998779296875</ele>
        <time>2013-08-15T15:59:08.000Z</time>
        <extensions>
          <ns3:TrackPointExtension>
            <ns3:atemp>22.0</ns3:atemp>
            <ns3:hr>132</ns3:hr>
          </ns3:TrackPointExtension>
        </extensions>
      </trkpt>
      <trkpt lat="46.67952996678650379180908203125" lon="6.872428022325038909912109375">
        <ele>703.79998779296875</ele>
        <time>2013-08-15T15:59:09.000Z</time>
        <extensions>
          <ns3:TrackPointExtension>
            <ns3:atemp>22.0</ns3:atemp>
            <ns3:hr>133</ns3:hr>
          </ns3:TrackPointExtension>
        </extensions>
      </trkpt>
      <trkpt lat="46.679469533264636993408203125" lon="6.87236960045993328094482421875">
        <ele>704</ele>
        <time>2013-08-15T15:59:10.000Z</time>
        <extensions>
          <ns3:TrackPointExtension>
            <ns3:atemp>22.0</ns3:atemp>
            <ns3:hr>133</ns3:hr>
          </ns3:TrackPointExtension>
        </extensions>
      </trkpt>
      <trkpt lat="46.6794093511998653411865234375" lon="6.87231411226093769073486328125">
        <ele>704</ele>
        <time>2013-08-15T15:59:11.000Z</time>
        <extensions>
          <ns3:TrackPointExtension>
            <ns3:atemp>22.0</ns3:atemp>
            <ns3:hr>133</ns3:hr>
          </ns3:TrackPointExtension>
        </extensions>
      </trkpt>
      <trkpt lat="46.67935210280120372772216796875" lon="6.8722551874816417694091796875">
        <ele>704.20001220703125</ele>
        <time>2013-08-15T15:59:12.000Z</time>
        <extensions>
          <ns3:TrackPointExtension>
            <ns3:atemp>22.0</ns3:atemp>
            <ns3:hr>133</ns3:hr>
          </ns3:TrackPointExtension>
        </extensions>
      </trkpt>
      <trkpt lat="46.67929552495479583740234375" lon="6.8722012080252170562744140625">
        <ele>704.20001220703125</ele>
        <time>2013-08-15T15:59:13.000Z</time>
        <extensions>
          <ns3:TrackPointExtension>
            <ns3:atemp>22.0</ns3:atemp>
            <ns3:hr>133</ns3:hr>
          </ns3:TrackPointExtension>
        </extensions>
      </trkpt>
      <trkpt lat="46.67924188077449798583984375" lon="6.8721475638449192047119140625">
        <ele>704.5999755859375</ele>
        <time>2013-08-15T15:59:14.000Z</time>
        <extensions>
          <ns3:TrackPointExtension>
            <ns3:atemp>22.0</ns3:atemp>
            <ns3:hr>133</ns3:hr>
          </ns3:TrackPointExtension>
        </extensions>
      </trkpt>
      <trkpt lat="46.6791894100606441497802734375" lon="6.87208830378949642181396484375">
        <ele>704.4000244140625</ele>
        <time>2013-08-15T15:59:15.000Z</time>
        <extensions>
          <ns3:TrackPointExtension>
            <ns3:atemp>22.0</ns3:atemp>
            <ns3:hr>133</ns3:hr>
          </ns3:TrackPointExtension>
        </extensions>
      </trkpt>
      <trkpt lat="46.67913316749036312103271484375" lon="6.87203876674175262451171875">
        <ele>704.5999755859375</ele>
        <time>2013-08-15T15:59:16.000Z</time>
        <extensions>
          <ns3:TrackPointExtension>
            <ns3:atemp>22.0</ns3:atemp>
            <ns3:hr>132</ns3:hr>
          </ns3:TrackPointExtension>
        </extensions>
      </trkpt>
      <trkpt lat="46.6790775954723358154296875" lon="6.871994175016880035400390625">
        <ele>704.20001220703125</ele>
        <time>2013-08-15T15:59:17.000Z</time>
        <extensions>
          <ns3:TrackPointExtension>
            <ns3:atemp>22.0</ns3:atemp>
            <ns3:hr>132</ns3:hr>
          </ns3:TrackPointExtension>
        </extensions>
      </trkpt>
      <trkpt lat="46.67902286164462566375732421875" lon="6.87194849364459514617919921875">
        <ele>704.4000244140625</ele>
        <time>2013-08-15T15:59:18.000Z</time>
        <extensions>
          <ns3:TrackPointExtension>
            <ns3:atemp>22.0</ns3:atemp>
            <ns3:hr>132</ns3:hr>
          </ns3:TrackPointExtension>
        </extensions>
      </trkpt>
      <trkpt lat="46.67896636761724948883056640625" lon="6.8719039857387542724609375">
        <ele>704.20001220703125</ele>
        <time>2013-08-15T15:59:19.000Z</time>
        <extensions>
          <ns3:TrackPointExtension>
            <ns3:atemp>22.0</ns3:atemp>
            <ns3:hr>132</ns3:hr>
          </ns3:TrackPointExtension>
        </extensions>
      </trkpt>
      <trkpt lat="46.67891138233244419097900390625" lon="6.87186132185161113739013671875">
        <ele>703.79998779296875</ele>
        <time>2013-08-15T15:59:20.000Z</time>
        <extensions>
          <ns3:TrackPointExtension>
            <ns3:atemp>21.0</ns3:atemp>
            <ns3:hr>132</ns3:hr>
          </ns3:TrackPointExtension>
        </extensions>
      </trkpt>
      <trkpt lat="46.67885430157184600830078125" lon="6.8718176521360874176025390625">
        <ele>703.79998779296875</ele>
        <time>2013-08-15T15:59:21.000Z</time>
        <extensions>
          <ns3:TrackPointExtension>
            <ns3:atemp>21.0</ns3:atemp>
            <ns3:hr>132</ns3:hr>
          </ns3:TrackPointExtension>
        </extensions>
      </trkpt>
      <trkpt lat="46.67879688553512096405029296875" lon="6.87177314423024654388427734375">
        <ele>703.5999755859375</ele>
        <time>2013-08-15T15:59:22.000Z</time>
        <extensions>
          <ns3:TrackPointExtension>
            <ns3:atemp>21.0</ns3:atemp>
            <ns3:hr>132</ns3:hr>
          </ns3:TrackPointExtension>
        </extensions>
      </trkpt>
      <trkpt lat="46.67874164879322052001953125" lon="6.871729977428913116455078125">
        <ele>703.79998779296875</ele>
        <time>2013-08-15T15:59:23.000Z</time>
        <extensions>
          <ns3:TrackPointExtension>
            <ns3:atemp>21.0</ns3:atemp>
            <ns3:hr>132</ns3:hr>
          </ns3:TrackPointExtension>
        </extensions>
      </trkpt>
      <trkpt lat="46.67868725024163722991943359375" lon="6.87168412841856479644775390625">
        <ele>704</ele>
        <time>2013-08-15T15:59:24.000Z</time>
        <extensions>
          <ns3:TrackPointExtension>
            <ns3:atemp>21.0</ns3:atemp>
            <ns3:hr>132</ns3:hr>
          </ns3:TrackPointExtension>
        </extensions>
      </trkpt>
      <trkpt lat="46.67863176204264163970947265625" lon="6.8716376088559627532958984375">
        <ele>704.4000244140625</ele>
        <time>2013-08-15T15:59:25.000Z</time>
        <extensions>
          <ns3:TrackPointExtension>
            <ns3:atemp>21.0</ns3:atemp>
            <ns3:hr>132</ns3:hr>
          </ns3:TrackPointExtension>
        </extensions>
      </trkpt>
      <trkpt lat="46.678575016558170318603515625" lon="6.87158823944628238677978515625">
        <ele>704.20001220703125</ele>
        <time>2013-08-15T15:59:26.000Z</time>
        <extensions>
          <ns3:TrackPointExtension>
            <ns3:atemp>21.0</ns3:atemp>
            <ns3:hr>132</ns3:hr>
          </ns3:TrackPointExtension>
        </extensions>
      </trkpt>
      <trkpt lat="46.67851709760725498199462890625" lon="6.871548928320407867431640625">
        <ele>704.4000244140625</ele>
        <time>2013-08-15T15:59:27.000Z</time>
        <extensions>
          <ns3:TrackPointExtension>
            <ns3:atemp>21.0</ns3:atemp>
            <ns3:hr>132</ns3:hr>
          </ns3:TrackPointExtension>
        </extensions>
      </trkpt>
      <trkpt lat="46.6784606873989105224609375" lon="6.8715165741741657257080078125">
        <ele>704.5999755859375</ele>
        <time>2013-08-15T15:59:28.000Z</time>
        <extensions>
          <ns3:TrackPointExtension>
            <ns3:atemp>21.0</ns3:atemp>
            <ns3:hr>132</ns3:hr>
          </ns3:TrackPointExtension>
        </extensions>
      </trkpt>
      <trkpt lat="46.6784065403044223785400390625" lon="6.87149201519787311553955078125">
        <ele>704.5999755859375</ele>
        <time>2013-08-15T15:59:29.000Z</time>
        <extensions>
          <ns3:TrackPointExtension>
            <ns3:atemp>21.0</ns3:atemp>
            <ns3:hr>132</ns3:hr>
          </ns3:TrackPointExtension>
        </extensions>
      </trkpt>
      <trkpt lat="46.67835582979023456573486328125" lon="6.8714642710983753204345703125">
        <ele>704.4000244140625</ele>
        <time>2013-08-15T15:59:30.000Z</time>
        <extensions>
          <ns3:TrackPointExtension>
            <ns3:atemp>21.0</ns3:atemp>
            <ns3:hr>132</ns3:hr>
          </ns3:TrackPointExtension>
        </extensions>
      </trkpt>
      <trkpt lat="46.67830470018088817596435546875" lon="6.871438957750797271728515625">
        <ele>704.4000244140625</ele>
        <time>2013-08-15T15:59:31.000Z</time>
        <extensions>
          <ns3:TrackPointExtension>
            <ns3:atemp>21.0</ns3:atemp>
            <ns3:hr>132</ns3:hr>
          </ns3:TrackPointExtension>
        </extensions>
      </trkpt>
      <trkpt lat="46.67825139127671718597412109375" lon="6.87141389586031436920166015625">
        <ele>704.5999755859375</ele>
        <time>2013-08-15T15:59:32.000Z</time>
        <extensions>
          <ns3:TrackPointExtension>
            <ns3:atemp>21.0</ns3:atemp>
            <ns3:hr>133</ns3:hr>
          </ns3:TrackPointExtension>
        </extensions>
      </trkpt>
      <trkpt lat="46.67819825001060962677001953125" lon="6.8713955394923686981201171875">
        <ele>705.20001220703125</ele>
        <time>2013-08-15T15:59:33.000Z</time>
        <extensions>
          <ns3:TrackPointExtension>
            <ns3:atemp>21.0</ns3:atemp>
            <ns3:hr>133</ns3:hr>
          </ns3:TrackPointExtension>
        </extensions>
      </trkpt>
      <trkpt lat="46.67814628221094608306884765625" lon="6.8713811226189136505126953125">
        <ele>705.79998779296875</ele>
        <time>2013-08-15T15:59:34.000Z</time>
        <extensions>
          <ns3:TrackPointExtension>
            <ns3:atemp>21.0</ns3:atemp>
            <ns3:hr>133</ns3:hr>
          </ns3:TrackPointExtension>
        </extensions>
      </trkpt>
      <trkpt lat="46.67809314094483852386474609375" lon="6.871363185346126556396484375">
        <ele>705.79998779296875</ele>
        <time>2013-08-15T15:59:35.000Z</time>
        <extensions>
          <ns3:TrackPointExtension>
            <ns3:atemp>21.0</ns3:atemp>
            <ns3:hr>134</ns3:hr>
          </ns3:TrackPointExtension>
        </extensions>
      </trkpt>
      <trkpt lat="46.67804335243999958038330078125" lon="6.87134482897818088531494140625">
        <ele>705.79998779296875</ele>
        <time>2013-08-15T15:59:36.000Z</time>
        <extensions>
          <ns3:TrackPointExtension>
            <ns3:atemp>21.0</ns3:atemp>
            <ns3:hr>134</ns3:hr>
          </ns3:TrackPointExtension>
        </extensions>
      </trkpt>
      <trkpt lat="46.6779884509742259979248046875" lon="6.8713246285915374755859375">
        <ele>706</ele>
        <time>2013-08-15T15:59:37.000Z</time>
        <extensions>
          <ns3:TrackPointExtension>
            <ns3:atemp>21.0</ns3:atemp>
            <ns3:hr>134</ns3:hr>
          </ns3:TrackPointExtension>
        </extensions>
      </trkpt>
      <trkpt lat="46.67793505825102329254150390625" lon="6.87131146900355815887451171875">
        <ele>706.4000244140625</ele>
        <time>2013-08-15T15:59:38.000Z</time>
        <extensions>
          <ns3:TrackPointExtension>
            <ns3:atemp>21.0</ns3:atemp>
            <ns3:hr>134</ns3:hr>
          </ns3:TrackPointExtension>
        </extensions>
      </trkpt>
      <trkpt lat="46.67787957005202770233154296875" lon="6.871300153434276580810546875">
        <ele>706.5999755859375</ele>
        <time>2013-08-15T15:59:39.000Z</time>
        <extensions>
          <ns3:TrackPointExtension>
            <ns3:atemp>21.0</ns3:atemp>
            <ns3:hr>135</ns3:hr>
          </ns3:TrackPointExtension>
        </extensions>
      </trkpt>
      <trkpt lat="46.67782743461430072784423828125" lon="6.87129084952175617218017578125">
        <ele>706.4000244140625</ele>
        <time>2013-08-15T15:59:40.000Z</time>
        <extensions>
          <ns3:TrackPointExtension>
            <ns3:atemp>21.0</ns3:atemp>
            <ns3:hr>135</ns3:hr>
          </ns3:TrackPointExtension>
        </extensions>
      </trkpt>
      <trkpt lat="46.67777739465236663818359375" lon="6.87127768993377685546875">
        <ele>706.4000244140625</ele>
        <time>2013-08-15T15:59:41.000Z</time>
        <extensions>
          <ns3:TrackPointExtension>
            <ns3:atemp>21.0</ns3:atemp>
            <ns3:hr>135</ns3:hr>
          </ns3:TrackPointExtension>
        </extensions>
      </trkpt>
      <trkpt lat="46.677720062434673309326171875" lon="6.8712550587952136993408203125">
        <ele>706.4000244140625</ele>
        <time>2013-08-15T15:59:42.000Z</time>
        <extensions>
          <ns3:TrackPointExtension>
            <ns3:atemp>21.0</ns3:atemp>
            <ns3:hr>136</ns3:hr>
          </ns3:TrackPointExtension>
        </extensions>
      </trkpt>
      <trkpt lat="46.677668094635009765625" lon="6.87123955227434635162353515625">
        <ele>706.4000244140625</ele>
        <time>2013-08-15T15:59:43.000Z</time>
        <extensions>
          <ns3:TrackPointExtension>
            <ns3:atemp>21.0</ns3:atemp>
            <ns3:hr>136</ns3:hr>
          </ns3:TrackPointExtension>
        </extensions>
      </trkpt>
      <trkpt lat="46.67761914432048797607421875" lon="6.871219016611576080322265625">
        <ele>706</ele>
        <time>2013-08-15T15:59:44.000Z</time>
        <extensions>
          <ns3:TrackPointExtension>
            <ns3:atemp>21.0</ns3:atemp>
            <ns3:hr>136</ns3:hr>
          </ns3:TrackPointExtension>
        </extensions>
      </trkpt>
      <trkpt lat="46.67757430113852024078369140625" lon="6.87120384536683559417724609375">
        <ele>705.5999755859375</ele>
        <time>2013-08-15T15:59:45.000Z</time>
        <extensions>
          <ns3:TrackPointExtension>
            <ns3:atemp>21.0</ns3:atemp>
            <ns3:hr>136</ns3:hr>
          </ns3:TrackPointExtension>
        </extensions>
      </trkpt>
      <trkpt lat="46.6775277815759181976318359375" lon="6.87118791975080966949462890625">
        <ele>705.79998779296875</ele>
        <time>2013-08-15T15:59:46.000Z</time>
        <extensions>
          <ns3:TrackPointExtension>
            <ns3:atemp>21.0</ns3:atemp>
            <ns3:hr>136</ns3:hr>
          </ns3:TrackPointExtension>
        </extensions>
      </trkpt>
      <trkpt lat="46.67747472412884235382080078125" lon="6.871170066297054290771484375">
        <ele>705.5999755859375</ele>
        <time>2013-08-15T15:59:47.000Z</time>
        <extensions>
          <ns3:TrackPointExtension>
            <ns3:atemp>21.0</ns3:atemp>
            <ns3:hr>135</ns3:hr>
          </ns3:TrackPointExtension>
        </extensions>
      </trkpt>
      <trkpt lat="46.67742334306240081787109375" lon="6.87115003354847431182861328125">
        <ele>705.20001220703125</ele>
        <time>2013-08-15T15:59:48.000Z</time>
        <extensions>
          <ns3:TrackPointExtension>
            <ns3:atemp>21.0</ns3:atemp>
            <ns3:hr>135</ns3:hr>
          </ns3:TrackPointExtension>
        </extensions>
      </trkpt>
      <trkpt lat="46.6773816011846065521240234375" lon="6.871124804019927978515625">
        <ele>705</ele>
        <time>2013-08-15T15:59:49.000Z</time>
        <extensions>
          <ns3:TrackPointExtension>
            <ns3:atemp>21.0</ns3:atemp>
            <ns3:hr>135</ns3:hr>
          </ns3:TrackPointExtension>
        </extensions>
      </trkpt>
      <trkpt lat="46.6773470677435398101806640625" lon="6.87108348123729228973388671875">
        <ele>704.4000244140625</ele>
        <time>2013-08-15T15:59:50.000Z</time>
        <extensions>
          <ns3:TrackPointExtension>
            <ns3:atemp>21.0</ns3:atemp>
            <ns3:hr>135</ns3:hr>
          </ns3:TrackPointExtension>
        </extensions>
      </trkpt>
      <trkpt lat="46.67731697671115398406982421875" lon="6.871038973331451416015625">
        <ele>703.79998779296875</ele>
        <time>2013-08-15T15:59:51.000Z</time>
        <extensions>
          <ns3:TrackPointExtension>
            <ns3:atemp>21.0</ns3:atemp>
            <ns3:hr>135</ns3:hr>
          </ns3:TrackPointExtension>
        </extensions>
      </trkpt>
      <trkpt lat="46.67729585431516170501708984375" lon="6.87097149901092052459716796875">
        <ele>702.5999755859375</ele>
        <time>2013-08-15T15:59:52.000Z</time>
        <extensions>
          <ns3:TrackPointExtension>
            <ns3:atemp>21.0</ns3:atemp>
            <ns3:hr>135</ns3:hr>
          </ns3:TrackPointExtension>
        </extensions>
      </trkpt>
      <trkpt lat="46.6772816888988018035888671875" lon="6.87089572660624980926513671875">
        <ele>701.5999755859375</ele>
        <time>2013-08-15T15:59:53.000Z</time>
        <extensions>
          <ns3:TrackPointExtension>
            <ns3:atemp>21.0</ns3:atemp>
            <ns3:hr>134</ns3:hr>
          </ns3:TrackPointExtension>
        </extensions>
      </trkpt>
      <trkpt lat="46.6772699542343616485595703125" lon="6.87082531861960887908935546875">
        <ele>700.5999755859375</ele>
        <time>2013-08-15T15:59:54.000Z</time>
        <extensions>
          <ns3:TrackPointExtension>
            <ns3:atemp>21.0</ns3:atemp>
            <ns3:hr>134</ns3:hr>
          </ns3:TrackPointExtension>
        </extensions>
      </trkpt>
      <trkpt lat="46.67725763283669948577880859375" lon="6.8707615323364734649658203125">
        <ele>699.5999755859375</ele>
        <time>2013-08-15T15:59:55.000Z</time>
        <extensions>
          <ns3:TrackPointExtension>
            <ns3:atemp>21.0</ns3:atemp>
            <ns3:hr>133</ns3:hr>
          </ns3:TrackPointExtension>
        </extensions>
      </trkpt>
      <trkpt lat="46.6772280447185039520263671875" lon="6.87070730142295360565185546875">
        <ele>698.79998779296875</ele>
        <time>2013-08-15T15:59:56.000Z</time>
        <extensions>
          <ns3:TrackPointExtension>
            <ns3:atemp>21.0</ns3:atemp>
            <ns3:hr>132</ns3:hr>
          </ns3:TrackPointExtension>
        </extensions>
      </trkpt>
      <trkpt lat="46.67719711549580097198486328125" lon="6.87065416015684604644775390625">
        <ele>697.79998779296875</ele>
        <time>2013-08-15T15:59:57.000Z</time>
        <extensions>
          <ns3:TrackPointExtension>
            <ns3:atemp>21.0</ns3:atemp>
            <ns3:hr>132</ns3:hr>
          </ns3:TrackPointExtension>
        </extensions>
      </trkpt>
      <trkpt lat="46.67716559953987598419189453125" lon="6.87060135416686534881591796875">
        <ele>695.4000244140625</ele>
        <time>2013-08-15T15:59:58.000Z</time>
        <extensions>
          <ns3:TrackPointExtension>
            <ns3:atemp>21.0</ns3:atemp>
            <ns3:hr>131</ns3:hr>
          </ns3:TrackPointExtension>
        </extensions>
      </trkpt>
      <trkpt lat="46.67713508941233158111572265625" lon="6.87054787762463092803955078125">
        <ele>693.79998779296875</ele>
        <time>2013-08-15T15:59:59.000Z</time>
        <extensions>
          <ns3:TrackPointExtension>
            <ns3:atemp>21.0</ns3:atemp>
            <ns3:hr>131</ns3:hr>
          </ns3:TrackPointExtension>
        </extensions>
      </trkpt>
      <trkpt lat="46.67709410190582275390625" lon="6.87050320208072662353515625">
        <ele>692.5999755859375</ele>
        <time>2013-08-15T16:00:00.000Z</time>
        <extensions>
          <ns3:TrackPointExtension>
            <ns3:atemp>21.0</ns3:atemp>
            <ns3:hr>131</ns3:hr>
          </ns3:TrackPointExtension>
        </extensions>
      </trkpt>
      <trkpt lat="46.67705562897026538848876953125" lon="6.870467998087406158447265625">
        <ele>691.20001220703125</ele>
        <time>2013-08-15T16:00:01.000Z</time>
        <extensions>
          <ns3:TrackPointExtension>
            <ns3:atemp>21.0</ns3:atemp>
            <ns3:hr>131</ns3:hr>
          </ns3:TrackPointExtension>
        </extensions>
      </trkpt>
      <trkpt lat="46.6770096123218536376953125" lon="6.87044863589107990264892578125">
        <ele>690.20001220703125</ele>
        <time>2013-08-15T16:00:02.000Z</time>
        <extensions>
          <ns3:TrackPointExtension>
            <ns3:atemp>21.0</ns3:atemp>
            <ns3:hr>130</ns3:hr>
          </ns3:TrackPointExtension>
        </extensions>
      </trkpt>
      <trkpt lat="46.676960326731204986572265625" lon="6.87043421901762485504150390625">
        <ele>689.5999755859375</ele>
        <time>2013-08-15T16:00:03.000Z</time>
        <extensions>
          <ns3:TrackPointExtension>
            <ns3:atemp>21.0</ns3:atemp>
            <ns3:hr>129</ns3:hr>
          </ns3:TrackPointExtension>
        </extensions>
      </trkpt>
      <trkpt lat="46.6769088618457317352294921875" lon="6.87041896395385265350341796875">
        <ele>688.5999755859375</ele>
        <time>2013-08-15T16:00:04.000Z</time>
        <extensions>
          <ns3:TrackPointExtension>
            <ns3:atemp>21.0</ns3:atemp>
            <ns3:hr>129</ns3:hr>
          </ns3:TrackPointExtension>
        </extensions>
      </trkpt>
      <trkpt lat="46.6768669523298740386962890625" lon="6.8704064749181270599365234375">
        <ele>688</ele>
        <time>2013-08-15T16:00:05.000Z</time>
        <extensions>
          <ns3:TrackPointExtension>
            <ns3:atemp>21.0</ns3:atemp>
            <ns3:hr>128</ns3:hr>
          </ns3:TrackPointExtension>
        </extensions>
      </trkpt>
      <trkpt lat="46.6768394596874713897705078125" lon="6.87039214186370372772216796875">
        <ele>686.79998779296875</ele>
        <time>2013-08-15T16:00:06.000Z</time>
        <extensions>
          <ns3:TrackPointExtension>
            <ns3:atemp>21.0</ns3:atemp>
            <ns3:hr>127</ns3:hr>
          </ns3:TrackPointExtension>
        </extensions>
      </trkpt>
      <trkpt lat="46.67680266313254833221435546875" lon="6.87041074968874454498291015625">
        <ele>686</ele>
        <time>2013-08-15T16:00:07.000Z</time>
        <extensions>
          <ns3:TrackPointExtension>
            <ns3:atemp>21.0</ns3:atemp>
            <ns3:hr>126</ns3:hr>
          </ns3:TrackPointExtension>
        </extensions>
      </trkpt>
      <trkpt lat="46.67676351964473724365234375" lon="6.87043237499892711639404296875">
        <ele>685.20001220703125</ele>
        <time>2013-08-15T16:00:08.000Z</time>
        <extensions>
          <ns3:TrackPointExtension>
            <ns3:atemp>21.0</ns3:atemp>
            <ns3:hr>126</ns3:hr>
          </ns3:TrackPointExtension>
        </extensions>
      </trkpt>
      <trkpt lat="46.676723957061767578125" lon="6.87047302722930908203125">
        <ele>684.5999755859375</ele>
        <time>2013-08-15T16:00:09.000Z</time>
        <extensions>
          <ns3:TrackPointExtension>
            <ns3:atemp>21.0</ns3:atemp>
            <ns3:hr>125</ns3:hr>
          </ns3:TrackPointExtension>
        </extensions>
      </trkpt>
      <trkpt lat="46.6766855679452419281005859375" lon="6.87052021734416484832763671875">
        <ele>684.20001220703125</ele>
        <time>2013-08-15T16:00:10.000Z</time>
        <extensions>
          <ns3:TrackPointExtension>
            <ns3:atemp>21.0</ns3:atemp>
            <ns3:hr>124</ns3:hr>
          </ns3:TrackPointExtension>
        </extensions>
      </trkpt>
      <trkpt lat="46.6766537167131900787353515625" lon="6.8705469556152820587158203125">
        <ele>683.5999755859375</ele>
        <time>2013-08-15T16:00:11.000Z</time>
        <extensions>
          <ns3:TrackPointExtension>
            <ns3:atemp>21.0</ns3:atemp>
            <ns3:hr>124</ns3:hr>
          </ns3:TrackPointExtension>
        </extensions>
      </trkpt>
      <trkpt lat="46.6766319237649440765380859375" lon="6.87054569832980632781982421875">
        <ele>683</ele>
        <time>2013-08-15T16:00:12.000Z</time>
        <extensions>
          <ns3:TrackPointExtension>
            <ns3:atemp>21.0</ns3:atemp>
            <ns3:hr>123</ns3:hr>
          </ns3:TrackPointExtension>
        </extensions>
      </trkpt>
      <trkpt lat="46.67661775834858417510986328125" lon="6.87052734196186065673828125">
        <ele>682.20001220703125</ele>
        <time>2013-08-15T16:00:13.000Z</time>
        <extensions>
          <ns3:TrackPointExtension>
            <ns3:atemp>21.0</ns3:atemp>
            <ns3:hr>123</ns3:hr>
          </ns3:TrackPointExtension>
        </extensions>
      </trkpt>
      <trkpt lat="46.67661474086344242095947265625" lon="6.87049783766269683837890625">
        <ele>681.4000244140625</ele>
        <time>2013-08-15T16:00:14.000Z</time>
        <extensions>
          <ns3:TrackPointExtension>
            <ns3:atemp>21.0</ns3:atemp>
            <ns3:hr>123</ns3:hr>
          </ns3:TrackPointExtension>
        </extensions>
      </trkpt>
      <trkpt lat="46.67661054991185665130615234375" lon="6.8704537488520145416259765625">
        <ele>681.20001220703125</ele>
        <time>2013-08-15T16:00:15.000Z</time>
        <extensions>
          <ns3:TrackPointExtension>
            <ns3:atemp>21.0</ns3:atemp>
            <ns3:hr>122</ns3:hr>
          </ns3:TrackPointExtension>
        </extensions>
      </trkpt>
      <trkpt lat="46.67660258710384368896484375" lon="6.87039792537689208984375">
        <ele>681.20001220703125</ele>
        <time>2013-08-15T16:00:16.000Z</time>
        <extensions>
          <ns3:TrackPointExtension>
            <ns3:atemp>21.0</ns3:atemp>
            <ns3:hr>122</ns3:hr>
          </ns3:TrackPointExtension>
        </extensions>
      </trkpt>
      <trkpt lat="46.6765940375626087188720703125" lon="6.87032810412347316741943359375">
        <ele>681.4000244140625</ele>
        <time>2013-08-15T16:00:17.000Z</time>
        <extensions>
          <ns3:TrackPointExtension>
            <ns3:atemp>21.0</ns3:atemp>
            <ns3:hr>122</ns3:hr>
          </ns3:TrackPointExtension>
        </extensions>
      </trkpt>
      <trkpt lat="46.67658322490751743316650390625" lon="6.87023607082664966583251953125">
        <ele>681.4000244140625</ele>
        <time>2013-08-15T16:00:18.000Z</time>
        <extensions>
          <ns3:TrackPointExtension>
            <ns3:atemp>21.0</ns3:atemp>
            <ns3:hr>122</ns3:hr>
          </ns3:TrackPointExtension>
        </extensions>
      </trkpt>
      <trkpt lat="46.67657769285142421722412109375" lon="6.870141439139842987060546875">
        <ele>681.5999755859375</ele>
        <time>2013-08-15T16:00:19.000Z</time>
        <extensions>
          <ns3:TrackPointExtension>
            <ns3:atemp>21.0</ns3:atemp>
            <ns3:hr>122</ns3:hr>
          </ns3:TrackPointExtension>
        </extensions>
      </trkpt>
      <trkpt lat="46.67657366953790187835693359375" lon="6.870035827159881591796875">
        <ele>681.79998779296875</ele>
        <time>2013-08-15T16:00:20.000Z</time>
        <extensions>
          <ns3:TrackPointExtension>
            <ns3:atemp>21.0</ns3:atemp>
            <ns3:hr>122</ns3:hr>
          </ns3:TrackPointExtension>
        </extensions>
      </trkpt>
      <trkpt lat="46.67657467536628246307373046875" lon="6.8699283711612224578857421875">
        <ele>682</ele>
        <time>2013-08-15T16:00:21.000Z</time>
        <extensions>
          <ns3:TrackPointExtension>
            <ns3:atemp>21.0</ns3:atemp>
            <ns3:hr>122</ns3:hr>
          </ns3:TrackPointExtension>
        </extensions>
      </trkpt>
      <trkpt lat="46.676595211029052734375" lon="6.86982267536222934722900390625">
        <ele>681</ele>
        <time>2013-08-15T16:00:22.000Z</time>
        <extensions>
          <ns3:TrackPointExtension>
            <ns3:atemp>21.0</ns3:atemp>
            <ns3:hr>123</ns3:hr>
          </ns3:TrackPointExtension>
        </extensions>
      </trkpt>
      <trkpt lat="46.67663435451686382293701171875" lon="6.86971488408744335174560546875">
        <ele>680.20001220703125</ele>
        <time>2013-08-15T16:00:23.000Z</time>
        <extensions>
          <ns3:TrackPointExtension>
            <ns3:atemp>21.0</ns3:atemp>
            <ns3:hr>123</ns3:hr>
          </ns3:TrackPointExtension>
        </extensions>
      </trkpt>
      <trkpt lat="46.6766791976988315582275390625" lon="6.869615055620670318603515625">
        <ele>679.4000244140625</ele>
        <time>2013-08-15T16:00:24.000Z</time>
        <extensions>
          <ns3:TrackPointExtension>
            <ns3:atemp>21.0</ns3:atemp>
            <ns3:hr>122</ns3:hr>
          </ns3:TrackPointExtension>
        </extensions>
      </trkpt>
      <trkpt lat="46.67674466036260128021240234375" lon="6.86954339034855365753173828125">
        <ele>679</ele>
        <time>2013-08-15T16:00:25.000Z</time>
        <extensions>
          <ns3:TrackPointExtension>
            <ns3:atemp>21.0</ns3:atemp>
            <ns3:hr>122</ns3:hr>
          </ns3:TrackPointExtension>
        </extensions>
      </trkpt>
      <trkpt lat="46.67680635116994380950927734375" lon="6.86948471702635288238525390625">
        <ele>678</ele>
        <time>2013-08-15T16:00:26.000Z</time>
        <extensions>
          <ns3:TrackPointExtension>
            <ns3:atemp>21.0</ns3:atemp>
            <ns3:hr>122</ns3:hr>
          </ns3:TrackPointExtension>
        </extensions>
      </trkpt>
      <trkpt lat="46.67686183936893939971923828125" lon="6.86945521272718906402587890625">
        <ele>677</ele>
        <time>2013-08-15T16:00:27.000Z</time>
        <extensions>
          <ns3:TrackPointExtension>
            <ns3:atemp>21.0</ns3:atemp>
            <ns3:hr>122</ns3:hr>
          </ns3:TrackPointExtension>
        </extensions>
      </trkpt>
      <trkpt lat="46.67689628899097442626953125" lon="6.86942285858094692230224609375">
        <ele>675.5999755859375</ele>
        <time>2013-08-15T16:00:28.000Z</time>
        <extensions>
          <ns3:TrackPointExtension>
            <ns3:atemp>21.0</ns3:atemp>
            <ns3:hr>121</ns3:hr>
          </ns3:TrackPointExtension>
        </extensions>
      </trkpt>
      <trkpt lat="46.67691984213888645172119140625" lon="6.8693734891712665557861328125">
        <ele>674.79998779296875</ele>
        <time>2013-08-15T16:00:29.000Z</time>
        <extensions>
          <ns3:TrackPointExtension>
            <ns3:atemp>21.0</ns3:atemp>
            <ns3:hr>119</ns3:hr>
          </ns3:TrackPointExtension>
        </extensions>
      </trkpt>
      <trkpt lat="46.67691908776760101318359375" lon="6.86929210089147090911865234375">
        <ele>674.4000244140625</ele>
        <time>2013-08-15T16:00:30.000Z</time>
        <extensions>
          <ns3:TrackPointExtension>
            <ns3:atemp>21.0</ns3:atemp>
            <ns3:hr>118</ns3:hr>
          </ns3:TrackPointExtension>
        </extensions>
      </trkpt>
      <trkpt lat="46.6769157350063323974609375" lon="6.86921113170683383941650390625">
        <ele>673.4000244140625</ele>
        <time>2013-08-15T16:00:31.000Z</time>
        <extensions>
          <ns3:TrackPointExtension>
            <ns3:atemp>21.0</ns3:atemp>
            <ns3:hr>118</ns3:hr>
          </ns3:TrackPointExtension>
        </extensions>
      </trkpt>
      <trkpt lat="46.67690073139965534210205078125" lon="6.86913401819765567779541015625">
        <ele>672.79998779296875</ele>
        <time>2013-08-15T16:00:32.000Z</time>
        <extensions>
          <ns3:TrackPointExtension>
            <ns3:atemp>21.0</ns3:atemp>
            <ns3:hr>117</ns3:hr>
          </ns3:TrackPointExtension>
        </extensions>
      </trkpt>
      <trkpt lat="46.6768783517181873321533203125" lon="6.869061850011348724365234375">
        <ele>672</ele>
        <time>2013-08-15T16:00:33.000Z</time>
        <extensions>
          <ns3:TrackPointExtension>
            <ns3:atemp>21.0</ns3:atemp>
            <ns3:hr>116</ns3:hr>
          </ns3:TrackPointExtension>
        </extensions>
      </trkpt>
      <trkpt lat="46.67685228399932384490966796875" lon="6.8690046854317188262939453125">
        <ele>671.5999755859375</ele>
        <time>2013-08-15T16:00:34.000Z</time>
        <extensions>
          <ns3:TrackPointExtension>
            <ns3:atemp>21.0</ns3:atemp>
            <ns3:hr>116</ns3:hr>
          </ns3:TrackPointExtension>
        </extensions>
      </trkpt>
      <trkpt lat="46.67682680301368236541748046875" lon="6.868950538337230682373046875">
        <ele>671.4000244140625</ele>
        <time>2013-08-15T16:00:35.000Z</time>
        <extensions>
          <ns3:TrackPointExtension>
            <ns3:atemp>21.0</ns3:atemp>
            <ns3:hr>115</ns3:hr>
          </ns3:TrackPointExtension>
        </extensions>
      </trkpt>
      <trkpt lat="46.6768057644367218017578125" lon="6.86890569515526294708251953125">
        <ele>670.5999755859375</ele>
        <time>2013-08-15T16:00:36.000Z</time>
        <extensions>
          <ns3:TrackPointExtension>
            <ns3:atemp>21.0</ns3:atemp>
            <ns3:hr>115</ns3:hr>
          </ns3:TrackPointExtension>
        </extensions>
      </trkpt>
      <trkpt lat="46.67677885852754116058349609375" lon="6.868862695991992950439453125">
        <ele>670</ele>
        <time>2013-08-15T16:00:37.000Z</time>
        <extensions>
          <ns3:TrackPointExtension>
            <ns3:atemp>21.0</ns3:atemp>
            <ns3:hr>114</ns3:hr>
          </ns3:TrackPointExtension>
        </extensions>
      </trkpt>
      <trkpt lat="46.67674767784774303436279296875" lon="6.8688145838677883148193359375">
        <ele>669.20001220703125</ele>
        <time>2013-08-15T16:00:38.000Z</time>
        <extensions>
          <ns3:TrackPointExtension>
            <ns3:atemp>21.0</ns3:atemp>
            <ns3:hr>114</ns3:hr>
          </ns3:TrackPointExtension>
        </extensions>
      </trkpt>
      <trkpt lat="46.67670845054090023040771484375" lon="6.8687753565609455108642578125">
        <ele>668.4000244140625</ele>
        <time>2013-08-15T16:00:39.000Z</time>
        <extensions>
          <ns3:TrackPointExtension>
            <ns3:atemp>21.0</ns3:atemp>
            <ns3:hr>114</ns3:hr>
          </ns3:TrackPointExtension>
        </extensions>
      </trkpt>
      <trkpt lat="46.67666385881602764129638671875" lon="6.86872933991253376007080078125">
        <ele>668</ele>
        <time>2013-08-15T16:00:40.000Z</time>
        <extensions>
          <ns3:TrackPointExtension>
            <ns3:atemp>21.0</ns3:atemp>
            <ns3:hr>113</ns3:hr>
          </ns3:TrackPointExtension>
        </extensions>
      </trkpt>
      <trkpt lat="46.676615662872791290283203125" lon="6.86868131160736083984375">
        <ele>667.5999755859375</ele>
        <time>2013-08-15T16:00:41.000Z</time>
        <extensions>
          <ns3:TrackPointExtension>
            <ns3:atemp>21.0</ns3:atemp>
            <ns3:hr>113</ns3:hr>
          </ns3:TrackPointExtension>
        </extensions>
      </trkpt>
      <trkpt lat="46.67656595818698406219482421875" lon="6.8686425872147083282470703125">
        <ele>667.20001220703125</ele>
        <time>2013-08-15T16:00:42.000Z</time>
        <extensions>
          <ns3:TrackPointExtension>
            <ns3:atemp>21.0</ns3:atemp>
            <ns3:hr>113</ns3:hr>
          </ns3:TrackPointExtension>
        </extensions>
      </trkpt>
      <trkpt lat="46.67651063762605190277099609375" lon="6.868607215583324432373046875">
        <ele>666.20001220703125</ele>
        <time>2013-08-15T16:00:43.000Z</time>
        <extensions>
          <ns3:TrackPointExtension>
            <ns3:atemp>21.0</ns3:atemp>
            <ns3:hr>113</ns3:hr>
          </ns3:TrackPointExtension>
        </extensions>
      </trkpt>
      <trkpt lat="46.6764275729656219482421875" lon="6.86856639571487903594970703125">
        <ele>664.79998779296875</ele>
        <time>2013-08-15T16:00:44.000Z</time>
        <extensions>
          <ns3:TrackPointExtension>
            <ns3:atemp>21.0</ns3:atemp>
            <ns3:hr>113</ns3:hr>
          </ns3:TrackPointExtension>
        </extensions>
      </trkpt>
      <trkpt lat="46.67632305063307285308837890625" lon="6.868501603603363037109375">
        <ele>663.4000244140625</ele>
        <time>2013-08-15T16:00:45.000Z</time>
        <extensions>
          <ns3:TrackPointExtension>
            <ns3:atemp>21.0</ns3:atemp>
            <ns3:hr>113</ns3:hr>
          </ns3:TrackPointExtension>
        </extensions>
      </trkpt>
      <trkpt lat="46.67622012086212635040283203125" lon="6.868435554206371307373046875">
        <ele>661.20001220703125</ele>
        <time>2013-08-15T16:00:46.000Z</time>
        <extensions>
          <ns3:TrackPointExtension>
            <ns3:atemp>21.0</ns3:atemp>
            <ns3:hr>112</ns3:hr>
          </ns3:TrackPointExtension>
        </extensions>
      </trkpt>
      <trkpt lat="46.676144264638423919677734375" lon="6.8683636374771595001220703125">
        <ele>660.5999755859375</ele>
        <time>2013-08-15T16:00:47.000Z</time>
        <extensions>
          <ns3:TrackPointExtension>
            <ns3:atemp>21.0</ns3:atemp>
            <ns3:hr>112</ns3:hr>
          </ns3:TrackPointExtension>
        </extensions>
      </trkpt>
      <trkpt lat="46.676085926592350006103515625" lon="6.86829063110053539276123046875">
        <ele>659.4000244140625</ele>
        <time>2013-08-15T16:00:48.000Z</time>
        <extensions>
          <ns3:TrackPointExtension>
            <ns3:atemp>21.0</ns3:atemp>
            <ns3:hr>111</ns3:hr>
          </ns3:TrackPointExtension>
        </extensions>
      </trkpt>
      <trkpt lat="46.676053740084171295166015625" lon="6.86822307296097278594970703125">
        <ele>658.4000244140625</ele>
        <time>2013-08-15T16:00:49.000Z</time>
        <extensions>
          <ns3:TrackPointExtension>
            <ns3:atemp>21.0</ns3:atemp>
            <ns3:hr>110</ns3:hr>
          </ns3:TrackPointExtension>
        </extensions>
      </trkpt>
      <trkpt lat="46.67603127658367156982421875" lon="6.86814512126147747039794921875">
        <ele>657.5999755859375</ele>
        <time>2013-08-15T16:00:50.000Z</time>
        <extensions>
          <ns3:TrackPointExtension>
            <ns3:atemp>21.0</ns3:atemp>
            <ns3:hr>110</ns3:hr>
          </ns3:TrackPointExtension>
        </extensions>
      </trkpt>
      <trkpt lat="46.67601996101438999176025390625" lon="6.86806096695363521575927734375">
        <ele>657.20001220703125</ele>
        <time>2013-08-15T16:00:51.000Z</time>
        <extensions>
          <ns3:TrackPointExtension>
            <ns3:atemp>21.0</ns3:atemp>
            <ns3:hr>110</ns3:hr>
          </ns3:TrackPointExtension>
        </extensions>
      </trkpt>
      <trkpt lat="46.67603052221238613128662109375" lon="6.86796507798135280609130859375">
        <ele>656.5999755859375</ele>
        <time>2013-08-15T16:00:52.000Z</time>
        <extensions>
          <ns3:TrackPointExtension>
            <ns3:atemp>21.0</ns3:atemp>
            <ns3:hr>110</ns3:hr>
          </ns3:TrackPointExtension>
        </extensions>
      </trkpt>
      <trkpt lat="46.676049716770648956298828125" lon="6.86785644851624965667724609375">
        <ele>656</ele>
        <time>2013-08-15T16:00:53.000Z</time>
        <extensions>
          <ns3:TrackPointExtension>
            <ns3:atemp>21.0</ns3:atemp>
            <ns3:hr>110</ns3:hr>
          </ns3:TrackPointExtension>
        </extensions>
      </trkpt>
      <trkpt lat="46.67606505565345287322998046875" lon="6.86776466667652130126953125">
        <ele>655.4000244140625</ele>
        <time>2013-08-15T16:00:54.000Z</time>
        <extensions>
          <ns3:TrackPointExtension>
            <ns3:atemp>21.0</ns3:atemp>
            <ns3:hr>110</ns3:hr>
          </ns3:TrackPointExtension>
        </extensions>
      </trkpt>
      <trkpt lat="46.67608047835528850555419921875" lon="6.8676877208054065704345703125">
        <ele>654.4000244140625</ele>
        <time>2013-08-15T16:00:55.000Z</time>
        <extensions>
          <ns3:TrackPointExtension>
            <ns3:atemp>21.0</ns3:atemp>
            <ns3:hr>109</ns3:hr>
          </ns3:TrackPointExtension>
        </extensions>
      </trkpt>
      <trkpt lat="46.676084585487842559814453125" lon="6.8676176480948925018310546875">
        <ele>653.5999755859375</ele>
        <time>2013-08-15T16:00:56.000Z</time>
        <extensions>
          <ns3:TrackPointExtension>
            <ns3:atemp>21.0</ns3:atemp>
            <ns3:hr>109</ns3:hr>
          </ns3:TrackPointExtension>
        </extensions>
      </trkpt>
      <trkpt lat="46.67608617804944515228271484375" lon="6.8675743974745273590087890625">
        <ele>652.5999755859375</ele>
        <time>2013-08-15T16:00:57.000Z</time>
        <extensions>
          <ns3:TrackPointExtension>
            <ns3:atemp>21.0</ns3:atemp>
            <ns3:hr>109</ns3:hr>
          </ns3:TrackPointExtension>
        </extensions>
      </trkpt>
      <trkpt lat="46.67608265765011310577392578125" lon="6.86755168251693248748779296875">
        <ele>652.4000244140625</ele>
        <time>2013-08-15T16:00:58.000Z</time>
        <extensions>
          <ns3:TrackPointExtension>
            <ns3:atemp>21.0</ns3:atemp>
            <ns3:hr>108</ns3:hr>
          </ns3:TrackPointExtension>
        </extensions>
      </trkpt>
      <trkpt lat="46.67607461102306842803955078125" lon="6.8675432167947292327880859375">
        <ele>652</ele>
        <time>2013-08-15T16:00:59.000Z</time>
        <extensions>
          <ns3:TrackPointExtension>
            <ns3:atemp>21.0</ns3:atemp>
            <ns3:hr>107</ns3:hr>
          </ns3:TrackPointExtension>
        </extensions>
      </trkpt>
      <trkpt lat="46.67605801485478878021240234375" lon="6.86752486042678356170654296875">
        <ele>652</ele>
        <time>2013-08-15T16:01:00.000Z</time>
        <extensions>
          <ns3:TrackPointExtension>
            <ns3:atemp>21.0</ns3:atemp>
            <ns3:hr>106</ns3:hr>
          </ns3:TrackPointExtension>
        </extensions>
      </trkpt>
      <trkpt lat="46.67604326270520687103271484375" lon="6.86750239692628383636474609375">
        <ele>651.5999755859375</ele>
        <time>2013-08-15T16:01:01.000Z</time>
        <extensions>
          <ns3:TrackPointExtension>
            <ns3:atemp>21.0</ns3:atemp>
            <ns3:hr>106</ns3:hr>
          </ns3:TrackPointExtension>
        </extensions>
      </trkpt>
      <trkpt lat="46.67602063156664371490478515625" lon="6.8674999661743640899658203125">
        <ele>651.5999755859375</ele>
        <time>2013-08-15T16:01:02.000Z</time>
        <extensions>
          <ns3:TrackPointExtension>
            <ns3:atemp>21.0</ns3:atemp>
            <ns3:hr>107</ns3:hr>
          </ns3:TrackPointExtension>
        </extensions>
      </trkpt>
      <trkpt lat="46.675994731485843658447265625" lon="6.867507509887218475341796875">
        <ele>651.79998779296875</ele>
        <time>2013-08-15T16:01:03.000Z</time>
        <extensions>
          <ns3:TrackPointExtension>
            <ns3:atemp>21.0</ns3:atemp>
            <ns3:hr>108</ns3:hr>
          </ns3:TrackPointExtension>
        </extensions>
      </trkpt>
      <trkpt lat="46.67591191828250885009765625" lon="6.86752502806484699249267578125">
        <ele>651.79998779296875</ele>
        <time>2013-08-15T16:01:04.000Z</time>
        <extensions>
          <ns3:TrackPointExtension>
            <ns3:atemp>21.0</ns3:atemp>
            <ns3:hr>109</ns3:hr>
          </ns3:TrackPointExtension>
        </extensions>
      </trkpt>
      <trkpt lat="46.6758348047733306884765625" lon="6.86754631809890270233154296875">
        <ele>651.79998779296875</ele>
        <time>2013-08-15T16:01:05.000Z</time>
        <extensions>
          <ns3:TrackPointExtension>
            <ns3:atemp>21.0</ns3:atemp>
            <ns3:hr>110</ns3:hr>
          </ns3:TrackPointExtension>
        </extensions>
      </trkpt>
      <trkpt lat="46.67574235238134860992431640625" lon="6.8675834499299526214599609375">
        <ele>651.20001220703125</ele>
        <time>2013-08-15T16:01:06.000Z</time>
        <extensions>
          <ns3:TrackPointExtension>
            <ns3:atemp>21.0</ns3:atemp>
            <ns3:hr>110</ns3:hr>
          </ns3:TrackPointExtension>
        </extensions>
      </trkpt>
      <trkpt lat="46.67565652169287204742431640625" lon="6.86762728728353977203369140625">
        <ele>650.79998779296875</ele>
        <time>2013-08-15T16:01:07.000Z</time>
        <extensions>
          <ns3:TrackPointExtension>
            <ns3:atemp>21.0</ns3:atemp>
            <ns3:hr>111</ns3:hr>
          </ns3:TrackPointExtension>
        </extensions>
      </trkpt>
      <trkpt lat="46.6755737923085689544677734375" lon="6.86766517348587512969970703125">
        <ele>649.5999755859375</ele>
        <time>2013-08-15T16:01:08.000Z</time>
        <extensions>
          <ns3:TrackPointExtension>
            <ns3:atemp>21.0</ns3:atemp>
            <ns3:hr>110</ns3:hr>
          </ns3:TrackPointExtension>
        </extensions>
      </trkpt>
      <trkpt lat="46.67551185004413127899169921875" lon="6.8676850385963916778564453125">
        <ele>648.5999755859375</ele>
        <time>2013-08-15T16:01:09.000Z</time>
        <extensions>
          <ns3:TrackPointExtension>
            <ns3:atemp>21.0</ns3:atemp>
            <ns3:hr>110</ns3:hr>
          </ns3:TrackPointExtension>
        </extensions>
      </trkpt>
      <trkpt lat="46.675453595817089080810546875" lon="6.86769467778503894805908203125">
        <ele>647.4000244140625</ele>
        <time>2013-08-15T16:01:10.000Z</time>
        <extensions>
          <ns3:TrackPointExtension>
            <ns3:atemp>21.0</ns3:atemp>
            <ns3:hr>111</ns3:hr>
          </ns3:TrackPointExtension>
        </extensions>
      </trkpt>
      <trkpt lat="46.6753893904387950897216796875" lon="6.8676655925810337066650390625">
        <ele>647.20001220703125</ele>
        <time>2013-08-15T16:01:11.000Z</time>
        <extensions>
          <ns3:TrackPointExtension>
            <ns3:atemp>21.0</ns3:atemp>
            <ns3:hr>111</ns3:hr>
          </ns3:TrackPointExtension>
        </extensions>
      </trkpt>
      <trkpt lat="46.675340272486209869384765625" lon="6.8676374293863773345947265625">
        <ele>647</ele>
        <time>2013-08-15T16:01:12.000Z</time>
        <extensions>
          <ns3:TrackPointExtension>
            <ns3:atemp>21.0</ns3:atemp>
            <ns3:hr>111</ns3:hr>
          </ns3:TrackPointExtension>
        </extensions>
      </trkpt>
      <trkpt lat="46.675297357141971588134765625" lon="6.86760515905916690826416015625">
        <ele>647.4000244140625</ele>
        <time>2013-08-15T16:01:13.000Z</time>
        <extensions>
          <ns3:TrackPointExtension>
            <ns3:atemp>21.0</ns3:atemp>
            <ns3:hr>112</ns3:hr>
          </ns3:TrackPointExtension>
        </extensions>
      </trkpt>
      <trkpt lat="46.6752609796822071075439453125" lon="6.86757246963679790496826171875">
        <ele>647.4000244140625</ele>
        <time>2013-08-15T16:01:14.000Z</time>
        <extensions>
          <ns3:TrackPointExtension>
            <ns3:atemp>21.0</ns3:atemp>
            <ns3:hr>113</ns3:hr>
          </ns3:TrackPointExtension>
        </extensions>
      </trkpt>
      <trkpt lat="46.67523189447820186614990234375" lon="6.867532320320606231689453125">
        <ele>647.79998779296875</ele>
        <time>2013-08-15T16:01:15.000Z</time>
        <extensions>
          <ns3:TrackPointExtension>
            <ns3:atemp>21.0</ns3:atemp>
            <ns3:hr>113</ns3:hr>
          </ns3:TrackPointExtension>
        </extensions>
      </trkpt>
      <trkpt lat="46.67520557530224323272705078125" lon="6.86749082989990711212158203125">
        <ele>648</ele>
        <time>2013-08-15T16:01:16.000Z</time>
        <extensions>
          <ns3:TrackPointExtension>
            <ns3:atemp>21.0</ns3:atemp>
            <ns3:hr>114</ns3:hr>
          </ns3:TrackPointExtension>
        </extensions>
      </trkpt>
      <trkpt lat="46.67517640627920627593994140625" lon="6.86742796562612056732177734375">
        <ele>648.20001220703125</ele>
        <time>2013-08-15T16:01:17.000Z</time>
        <extensions>
          <ns3:TrackPointExtension>
            <ns3:atemp>21.0</ns3:atemp>
            <ns3:hr>116</ns3:hr>
          </ns3:TrackPointExtension>
        </extensions>
      </trkpt>
      <trkpt lat="46.6751614026725292205810546875" lon="6.867384128272533416748046875">
        <ele>648.4000244140625</ele>
        <time>2013-08-15T16:01:18.000Z</time>
        <extensions>
          <ns3:TrackPointExtension>
            <ns3:atemp>21.0</ns3:atemp>
            <ns3:hr>117</ns3:hr>
          </ns3:TrackPointExtension>
        </extensions>
      </trkpt>
      <trkpt lat="46.6751241870224475860595703125" lon="6.86734020709991455078125">
        <ele>648.4000244140625</ele>
        <time>2013-08-15T16:01:19.000Z</time>
        <extensions>
          <ns3:TrackPointExtension>
            <ns3:atemp>21.0</ns3:atemp>
            <ns3:hr>117</ns3:hr>
          </ns3:TrackPointExtension>
        </extensions>
      </trkpt>
      <trkpt lat="46.67509091086685657501220703125" lon="6.86733878217637538909912109375">
        <ele>648.79998779296875</ele>
        <time>2013-08-15T16:01:20.000Z</time>
        <extensions>
          <ns3:TrackPointExtension>
            <ns3:atemp>21.0</ns3:atemp>
            <ns3:hr>119</ns3:hr>
          </ns3:TrackPointExtension>
        </extensions>
      </trkpt>
      <trkpt lat="46.67506341822445392608642578125" lon="6.8673350103199481964111328125">
        <ele>649</ele>
        <time>2013-08-15T16:01:21.000Z</time>
        <extensions>
          <ns3:TrackPointExtension>
            <ns3:atemp>21.0</ns3:atemp>
            <ns3:hr>120</ns3:hr>
          </ns3:TrackPointExtension>
        </extensions>
      </trkpt>
      <trkpt lat="46.67502402327954769134521484375" lon="6.8673329986631870269775390625">
        <ele>649.5999755859375</ele>
        <time>2013-08-15T16:01:22.000Z</time>
        <extensions>
          <ns3:TrackPointExtension>
            <ns3:atemp>21.0</ns3:atemp>
            <ns3:hr>121</ns3:hr>
          </ns3:TrackPointExtension>
        </extensions>
      </trkpt>
      <trkpt lat="46.6749872267246246337890625" lon="6.8673390336334705352783203125">
        <ele>650</ele>
        <time>2013-08-15T16:01:23.000Z</time>
        <extensions>
          <ns3:TrackPointExtension>
            <ns3:atemp>21.0</ns3:atemp>
            <ns3:hr>122</ns3:hr>
          </ns3:TrackPointExtension>
        </extensions>
      </trkpt>
      <trkpt lat="46.6749496757984161376953125" lon="6.86736241914331912994384765625">
        <ele>650.79998779296875</ele>
        <time>2013-08-15T16:01:24.000Z</time>
        <extensions>
          <ns3:TrackPointExtension>
            <ns3:atemp>21.0</ns3:atemp>
            <ns3:hr>123</ns3:hr>
          </ns3:TrackPointExtension>
        </extensions>
      </trkpt>
      <trkpt lat="46.6749136336147785186767578125" lon="6.867375411093235015869140625">
        <ele>651.20001220703125</ele>
        <time>2013-08-15T16:01:25.000Z</time>
        <extensions>
          <ns3:TrackPointExtension>
            <ns3:atemp>21.0</ns3:atemp>
            <ns3:hr>124</ns3:hr>
          </ns3:TrackPointExtension>
        </extensions>
      </trkpt>
      <trkpt lat="46.67487633414566516876220703125" lon="6.8673819489777088165283203125">
        <ele>651.4000244140625</ele>
        <time>2013-08-15T16:01:26.000Z</time>
        <extensions>
          <ns3:TrackPointExtension>
            <ns3:atemp>21.0</ns3:atemp>
            <ns3:hr>126</ns3:hr>
          </ns3:TrackPointExtension>
        </extensions>
      </trkpt>
      <trkpt lat="46.674838028848171234130859375" lon="6.86739225871860980987548828125">
        <ele>651.79998779296875</ele>
        <time>2013-08-15T16:01:27.000Z</time>
        <extensions>
          <ns3:TrackPointExtension>
            <ns3:atemp>21.0</ns3:atemp>
            <ns3:hr>127</ns3:hr>
          </ns3:TrackPointExtension>
        </extensions>
      </trkpt>
      <trkpt lat="46.67480072937905788421630859375" lon="6.86740047298371791839599609375">
        <ele>652.20001220703125</ele>
        <time>2013-08-15T16:01:28.000Z</time>
        <extensions>
          <ns3:TrackPointExtension>
            <ns3:atemp>21.0</ns3:atemp>
            <ns3:hr>128</ns3:hr>
          </ns3:TrackPointExtension>
        </extensions>
      </trkpt>
      <trkpt lat="46.67476502247154712677001953125" lon="6.86740868724882602691650390625">
        <ele>652.79998779296875</ele>
        <time>2013-08-15T16:01:29.000Z</time>
        <extensions>
          <ns3:TrackPointExtension>
            <ns3:atemp>20.0</ns3:atemp>
            <ns3:hr>130</ns3:hr>
          </ns3:TrackPointExtension>
        </extensions>
      </trkpt>
      <trkpt lat="46.67472713626921176910400390625" lon="6.86742410995066165924072265625">
        <ele>653.20001220703125</ele>
        <time>2013-08-15T16:01:30.000Z</time>
        <extensions>
          <ns3:TrackPointExtension>
            <ns3:atemp>20.0</ns3:atemp>
            <ns3:hr>131</ns3:hr>
          </ns3:TrackPointExtension>
        </extensions>
      </trkpt>
      <trkpt lat="46.6746967099606990814208984375" lon="6.86743400059640407562255859375">
        <ele>653.4000244140625</ele>
        <time>2013-08-15T16:01:31.000Z</time>
        <extensions>
          <ns3:TrackPointExtension>
            <ns3:atemp>20.0</ns3:atemp>
            <ns3:hr>133</ns3:hr>
          </ns3:TrackPointExtension>
        </extensions>
      </trkpt>
      <trkpt lat="46.6746708936989307403564453125" lon="6.8674503453075885772705078125">
        <ele>653.79998779296875</ele>
        <time>2013-08-15T16:01:32.000Z</time>
        <extensions>
          <ns3:TrackPointExtension>
            <ns3:atemp>20.0</ns3:atemp>
            <ns3:hr>134</ns3:hr>
          </ns3:TrackPointExtension>
        </extensions>
      </trkpt>
      <trkpt lat="46.6746477596461772918701171875" lon="6.86746669001877307891845703125">
        <ele>653.79998779296875</ele>
        <time>2013-08-15T16:01:33.000Z</time>
        <extensions>
          <ns3:TrackPointExtension>
            <ns3:atemp>20.0</ns3:atemp>
            <ns3:hr>135</ns3:hr>
          </ns3:TrackPointExtension>
        </extensions>
      </trkpt>
      <trkpt lat="46.67462437413632869720458984375" lon="6.867476999759674072265625">
        <ele>654.4000244140625</ele>
        <time>2013-08-15T16:01:34.000Z</time>
        <extensions>
          <ns3:TrackPointExtension>
            <ns3:atemp>20.0</ns3:atemp>
            <ns3:hr>137</ns3:hr>
          </ns3:TrackPointExtension>
        </extensions>
      </trkpt>
      <trkpt lat="46.67459134943783283233642578125" lon="6.8674825318157672882080078125">
        <ele>654.79998779296875</ele>
        <time>2013-08-15T16:01:35.000Z</time>
        <extensions>
          <ns3:TrackPointExtension>
            <ns3:atemp>20.0</ns3:atemp>
            <ns3:hr>138</ns3:hr>
          </ns3:TrackPointExtension>
        </extensions>
      </trkpt>
      <trkpt lat="46.674559749662876129150390625" lon="6.86748982407152652740478515625">
        <ele>655.20001220703125</ele>
        <time>2013-08-15T16:01:36.000Z</time>
        <extensions>
          <ns3:TrackPointExtension>
            <ns3:atemp>20.0</ns3:atemp>
            <ns3:hr>140</ns3:hr>
          </ns3:TrackPointExtension>
        </extensions>
      </trkpt>
      <trkpt lat="46.67453418485820293426513671875" lon="6.8674949370324611663818359375">
        <ele>655.79998779296875</ele>
        <time>2013-08-15T16:01:37.000Z</time>
        <extensions>
          <ns3:TrackPointExtension>
            <ns3:atemp>20.0</ns3:atemp>
            <ns3:hr>141</ns3:hr>
          </ns3:TrackPointExtension>
        </extensions>
      </trkpt>
      <trkpt lat="46.67450987733900547027587890625" lon="6.86749451793730258941650390625">
        <ele>656.20001220703125</ele>
        <time>2013-08-15T16:01:38.000Z</time>
        <extensions>
          <ns3:TrackPointExtension>
            <ns3:atemp>20.0</ns3:atemp>
            <ns3:hr>142</ns3:hr>
          </ns3:TrackPointExtension>
        </extensions>
      </trkpt>
      <trkpt lat="46.6744871623814105987548828125" lon="6.86748596839606761932373046875">
        <ele>656.4000244140625</ele>
        <time>2013-08-15T16:01:39.000Z</time>
        <extensions>
          <ns3:TrackPointExtension>
            <ns3:atemp>20.0</ns3:atemp>
            <ns3:hr>144</ns3:hr>
          </ns3:TrackPointExtension>
        </extensions>
      </trkpt>
      <trkpt lat="46.67446511797606945037841796875" lon="6.86747993342578411102294921875">
        <ele>656.79998779296875</ele>
        <time>2013-08-15T16:01:40.000Z</time>
        <extensions>
          <ns3:TrackPointExtension>
            <ns3:atemp>20.0</ns3:atemp>
            <ns3:hr>145</ns3:hr>
          </ns3:TrackPointExtension>
        </extensions>
      </trkpt>
      <trkpt lat="46.67444349266588687896728515625" lon="6.8674734793603420257568359375">
        <ele>657</ele>
        <time>2013-08-15T16:01:41.000Z</time>
        <extensions>
          <ns3:TrackPointExtension>
            <ns3:atemp>20.0</ns3:atemp>
            <ns3:hr>146</ns3:hr>
          </ns3:TrackPointExtension>
        </extensions>
      </trkpt>
      <trkpt lat="46.6744159162044525146484375" lon="6.86746568419039249420166015625">
        <ele>657.4000244140625</ele>
        <time>2013-08-15T16:01:42.000Z</time>
        <extensions>
          <ns3:TrackPointExtension>
            <ns3:atemp>20.0</ns3:atemp>
            <ns3:hr>147</ns3:hr>
          </ns3:TrackPointExtension>
        </extensions>
      </trkpt>
      <trkpt lat="46.674390099942684173583984375" lon="6.8674543686211109161376953125">
        <ele>657.5999755859375</ele>
        <time>2013-08-15T16:01:43.000Z</time>
        <extensions>
          <ns3:TrackPointExtension>
            <ns3:atemp>20.0</ns3:atemp>
            <ns3:hr>148</ns3:hr>
          </ns3:TrackPointExtension>
        </extensions>
      </trkpt>
      <trkpt lat="46.67437073774635791778564453125" lon="6.86744682490825653076171875">
        <ele>657.79998779296875</ele>
        <time>2013-08-15T16:01:44.000Z</time>
        <extensions>
          <ns3:TrackPointExtension>
            <ns3:atemp>20.0</ns3:atemp>
            <ns3:hr>148</ns3:hr>
          </ns3:TrackPointExtension>
        </extensions>
      </trkpt>
      <trkpt lat="46.6743488609790802001953125" lon="6.86743567697703838348388671875">
        <ele>658</ele>
        <time>2013-08-15T16:01:45.000Z</time>
        <extensions>
          <ns3:TrackPointExtension>
            <ns3:atemp>20.0</ns3:atemp>
            <ns3:hr>149</ns3:hr>
          </ns3:TrackPointExtension>
        </extensions>
      </trkpt>
      <trkpt lat="46.67432161979377269744873046875" lon="6.8674161471426486968994140625">
        <ele>658</ele>
        <time>2013-08-15T16:01:46.000Z</time>
        <extensions>
          <ns3:TrackPointExtension>
            <ns3:atemp>20.0</ns3:atemp>
            <ns3:hr>150</ns3:hr>
          </ns3:TrackPointExtension>
        </extensions>
      </trkpt>
      <trkpt lat="46.6742978990077972412109375" lon="6.86739049851894378662109375">
        <ele>658.20001220703125</ele>
        <time>2013-08-15T16:01:47.000Z</time>
        <extensions>
          <ns3:TrackPointExtension>
            <ns3:atemp>20.0</ns3:atemp>
            <ns3:hr>150</ns3:hr>
          </ns3:TrackPointExtension>
        </extensions>
      </trkpt>
      <trkpt lat="46.67427199892699718475341796875" lon="6.86735470779240131378173828125">
        <ele>658.20001220703125</ele>
        <time>2013-08-15T16:01:48.000Z</time>
        <extensions>
          <ns3:TrackPointExtension>
            <ns3:atemp>20.0</ns3:atemp>
            <ns3:hr>150</ns3:hr>
          </ns3:TrackPointExtension>
        </extensions>
      </trkpt>
      <trkpt lat="46.6742467693984508514404296875" lon="6.86733123846352100372314453125">
        <ele>658</ele>
        <time>2013-08-15T16:01:49.000Z</time>
        <extensions>
          <ns3:TrackPointExtension>
            <ns3:atemp>20.0</ns3:atemp>
            <ns3:hr>150</ns3:hr>
          </ns3:TrackPointExtension>
        </extensions>
      </trkpt>
      <trkpt lat="46.67421902529895305633544921875" lon="6.86730072833597660064697265625">
        <ele>658</ele>
        <time>2013-08-15T16:01:50.000Z</time>
        <extensions>
          <ns3:TrackPointExtension>
            <ns3:atemp>20.0</ns3:atemp>
            <ns3:hr>151</ns3:hr>
          </ns3:TrackPointExtension>
        </extensions>
      </trkpt>
      <trkpt lat="46.674194298684597015380859375" lon="6.86726703308522701263427734375">
        <ele>657.79998779296875</ele>
        <time>2013-08-15T16:01:51.000Z</time>
        <extensions>
          <ns3:TrackPointExtension>
            <ns3:atemp>20.0</ns3:atemp>
            <ns3:hr>151</ns3:hr>
          </ns3:TrackPointExtension>
        </extensions>
      </trkpt>
      <trkpt lat="46.6741753555834293365478515625" lon="6.8672327511012554168701171875">
        <ele>658.20001220703125</ele>
        <time>2013-08-15T16:01:52.000Z</time>
        <extensions>
          <ns3:TrackPointExtension>
            <ns3:atemp>20.0</ns3:atemp>
            <ns3:hr>151</ns3:hr>
          </ns3:TrackPointExtension>
        </extensions>
      </trkpt>
      <trkpt lat="46.6741579212248325347900390625" lon="6.867210455238819122314453125">
        <ele>658.79998779296875</ele>
        <time>2013-08-15T16:01:53.000Z</time>
        <extensions>
          <ns3:TrackPointExtension>
            <ns3:atemp>20.0</ns3:atemp>
            <ns3:hr>151</ns3:hr>
          </ns3:TrackPointExtension>
        </extensions>
      </trkpt>
      <trkpt lat="46.6741435043513774871826171875" lon="6.86718522571027278900146484375">
        <ele>659.20001220703125</ele>
        <time>2013-08-15T16:01:54.000Z</time>
        <extensions>
          <ns3:TrackPointExtension>
            <ns3:atemp>20.0</ns3:atemp>
            <ns3:hr>151</ns3:hr>
          </ns3:TrackPointExtension>
        </extensions>
      </trkpt>
      <trkpt lat="46.6741334460675716400146484375" lon="6.8671636842191219329833984375">
        <ele>659.5999755859375</ele>
        <time>2013-08-15T16:01:55.000Z</time>
        <extensions>
          <ns3:TrackPointExtension>
            <ns3:atemp>20.0</ns3:atemp>
            <ns3:hr>151</ns3:hr>
          </ns3:TrackPointExtension>
        </extensions>
      </trkpt>
      <trkpt lat="46.67412447743117809295654296875" lon="6.86714247800409793853759765625">
        <ele>659.5999755859375</ele>
        <time>2013-08-15T16:01:56.000Z</time>
        <extensions>
          <ns3:TrackPointExtension>
            <ns3:atemp>20.0</ns3:atemp>
            <ns3:hr>151</ns3:hr>
          </ns3:TrackPointExtension>
        </extensions>
      </trkpt>
      <trkpt lat="46.67411861009895801544189453125" lon="6.8671264685690402984619140625">
        <ele>659.79998779296875</ele>
        <time>2013-08-15T16:01:57.000Z</time>
        <extensions>
          <ns3:TrackPointExtension>
            <ns3:atemp>20.0</ns3:atemp>
            <ns3:hr>151</ns3:hr>
          </ns3:TrackPointExtension>
        </extensions>
      </trkpt>
      <trkpt lat="46.6741096414625644683837890625" lon="6.86710216104984283447265625">
        <ele>660.20001220703125</ele>
        <time>2013-08-15T16:01:58.000Z</time>
        <extensions>
          <ns3:TrackPointExtension>
            <ns3:atemp>20.0</ns3:atemp>
            <ns3:hr>150</ns3:hr>
          </ns3:TrackPointExtension>
        </extensions>
      </trkpt>
      <trkpt lat="46.6741002537310123443603515625" lon="6.86707056127488613128662109375">
        <ele>660.4000244140625</ele>
        <time>2013-08-15T16:01:59.000Z</time>
        <extensions>
          <ns3:TrackPointExtension>
            <ns3:atemp>20.0</ns3:atemp>
            <ns3:hr>150</ns3:hr>
          </ns3:TrackPointExtension>
        </extensions>
      </trkpt>
      <trkpt lat="46.67408910579979419708251953125" lon="6.867047511041164398193359375">
        <ele>660.5999755859375</ele>
        <time>2013-08-15T16:02:00.000Z</time>
        <extensions>
          <ns3:TrackPointExtension>
            <ns3:atemp>20.0</ns3:atemp>
            <ns3:hr>150</ns3:hr>
          </ns3:TrackPointExtension>
        </extensions>
      </trkpt>
      <trkpt lat="46.6740771196782588958740234375" lon="6.8670225329697132110595703125">
        <ele>660.5999755859375</ele>
        <time>2013-08-15T16:02:01.000Z</time>
        <extensions>
          <ns3:TrackPointExtension>
            <ns3:atemp>20.0</ns3:atemp>
            <ns3:hr>150</ns3:hr>
          </ns3:TrackPointExtension>
        </extensions>
      </trkpt>
      <trkpt lat="46.67406597174704074859619140625" lon="6.8669980578124523162841796875">
        <ele>660.5999755859375</ele>
        <time>2013-08-15T16:02:02.000Z</time>
        <extensions>
          <ns3:TrackPointExtension>
            <ns3:atemp>20.0</ns3:atemp>
            <ns3:hr>150</ns3:hr>
          </ns3:TrackPointExtension>
        </extensions>
      </trkpt>
      <trkpt lat="46.67406119406223297119140625" lon="6.8669745884835720062255859375">
        <ele>660.5999755859375</ele>
        <time>2013-08-15T16:02:03.000Z</time>
        <extensions>
          <ns3:TrackPointExtension>
            <ns3:atemp>20.0</ns3:atemp>
            <ns3:hr>150</ns3:hr>
          </ns3:TrackPointExtension>
        </extensions>
      </trkpt>
      <trkpt lat="46.67404015548527240753173828125" lon="6.8669514544308185577392578125">
        <ele>660.79998779296875</ele>
        <time>2013-08-15T16:02:04.000Z</time>
        <extensions>
          <ns3:TrackPointExtension>
            <ns3:atemp>20.0</ns3:atemp>
            <ns3:hr>149</ns3:hr>
          </ns3:TrackPointExtension>
        </extensions>
      </trkpt>
      <trkpt lat="46.67403160594403743743896484375" lon="6.866938211023807525634765625">
        <ele>661</ele>
        <time>2013-08-15T16:02:05.000Z</time>
        <extensions>
          <ns3:TrackPointExtension>
            <ns3:atemp>20.0</ns3:atemp>
            <ns3:hr>149</ns3:hr>
          </ns3:TrackPointExtension>
        </extensions>
      </trkpt>
      <trkpt lat="46.6740006767213344573974609375" lon="6.86692169867455959320068359375">
        <ele>661.4000244140625</ele>
        <time>2013-08-15T16:02:06.000Z</time>
        <extensions>
          <ns3:TrackPointExtension>
            <ns3:atemp>20.0</ns3:atemp>
            <ns3:hr>149</ns3:hr>
          </ns3:TrackPointExtension>
        </extensions>
      </trkpt>
      <trkpt lat="46.6739664785563945770263671875" lon="6.86691080220043659210205078125">
        <ele>661.5999755859375</ele>
        <time>2013-08-15T16:02:07.000Z</time>
        <extensions>
          <ns3:TrackPointExtension>
            <ns3:atemp>20.0</ns3:atemp>
            <ns3:hr>148</ns3:hr>
          </ns3:TrackPointExtension>
        </extensions>
      </trkpt>
      <trkpt lat="46.6739356331527233123779296875" lon="6.86690979637205600738525390625">
        <ele>661.79998779296875</ele>
        <time>2013-08-15T16:02:08.000Z</time>
        <extensions>
          <ns3:TrackPointExtension>
            <ns3:atemp>20.0</ns3:atemp>
            <ns3:hr>148</ns3:hr>
          </ns3:TrackPointExtension>
        </extensions>
      </trkpt>
      <trkpt lat="46.67390420101583003997802734375" lon="6.86691172420978546142578125">
        <ele>662.20001220703125</ele>
        <time>2013-08-15T16:02:09.000Z</time>
        <extensions>
          <ns3:TrackPointExtension>
            <ns3:atemp>20.0</ns3:atemp>
            <ns3:hr>148</ns3:hr>
          </ns3:TrackPointExtension>
        </extensions>
      </trkpt>
      <trkpt lat="46.6738821566104888916015625" lon="6.86691599898040294647216796875">
        <ele>662.4000244140625</ele>
        <time>2013-08-15T16:02:10.000Z</time>
        <extensions>
          <ns3:TrackPointExtension>
            <ns3:atemp>20.0</ns3:atemp>
            <ns3:hr>148</ns3:hr>
          </ns3:TrackPointExtension>
        </extensions>
      </trkpt>
      <trkpt lat="46.67386363260447978973388671875" lon="6.8669172562658786773681640625">
        <ele>662.79998779296875</ele>
        <time>2013-08-15T16:02:11.000Z</time>
        <extensions>
          <ns3:TrackPointExtension>
            <ns3:atemp>20.0</ns3:atemp>
            <ns3:hr>148</ns3:hr>
          </ns3:TrackPointExtension>
        </extensions>
      </trkpt>
      <trkpt lat="46.67384217493236064910888671875" lon="6.8669177591800689697265625">
        <ele>662.79998779296875</ele>
        <time>2013-08-15T16:02:12.000Z</time>
        <extensions>
          <ns3:TrackPointExtension>
            <ns3:atemp>20.0</ns3:atemp>
            <ns3:hr>148</ns3:hr>
          </ns3:TrackPointExtension>
        </extensions>
      </trkpt>
      <trkpt lat="46.673814766108989715576171875" lon="6.86690275557339191436767578125">
        <ele>663</ele>
        <time>2013-08-15T16:02:13.000Z</time>
        <extensions>
          <ns3:TrackPointExtension>
            <ns3:atemp>20.0</ns3:atemp>
            <ns3:hr>148</ns3:hr>
          </ns3:TrackPointExtension>
        </extensions>
      </trkpt>
      <trkpt lat="46.67378383688628673553466796875" lon="6.8668790347874164581298828125">
        <ele>663.4000244140625</ele>
        <time>2013-08-15T16:02:14.000Z</time>
        <extensions>
          <ns3:TrackPointExtension>
            <ns3:atemp>20.0</ns3:atemp>
            <ns3:hr>148</ns3:hr>
          </ns3:TrackPointExtension>
        </extensions>
      </trkpt>
      <trkpt lat="46.67375416494905948638916015625" lon="6.86685581691563129425048828125">
        <ele>663.5999755859375</ele>
        <time>2013-08-15T16:02:15.000Z</time>
        <extensions>
          <ns3:TrackPointExtension>
            <ns3:atemp>20.0</ns3:atemp>
            <ns3:hr>148</ns3:hr>
          </ns3:TrackPointExtension>
        </extensions>
      </trkpt>
      <trkpt lat="46.67372298426926136016845703125" lon="6.8668220378458499908447265625">
        <ele>663.79998779296875</ele>
        <time>2013-08-15T16:02:16.000Z</time>
        <extensions>
          <ns3:TrackPointExtension>
            <ns3:atemp>20.0</ns3:atemp>
            <ns3:hr>149</ns3:hr>
          </ns3:TrackPointExtension>
        </extensions>
      </trkpt>
      <trkpt lat="46.67369465343654155731201171875" lon="6.866792701184749603271484375">
        <ele>663.79998779296875</ele>
        <time>2013-08-15T16:02:17.000Z</time>
        <extensions>
          <ns3:TrackPointExtension>
            <ns3:atemp>20.0</ns3:atemp>
            <ns3:hr>148</ns3:hr>
          </ns3:TrackPointExtension>
        </extensions>
      </trkpt>
      <trkpt lat="46.673668920993804931640625" lon="6.866760514676570892333984375">
        <ele>663.79998779296875</ele>
        <time>2013-08-15T16:02:18.000Z</time>
        <extensions>
          <ns3:TrackPointExtension>
            <ns3:atemp>20.0</ns3:atemp>
            <ns3:hr>148</ns3:hr>
          </ns3:TrackPointExtension>
        </extensions>
      </trkpt>
      <trkpt lat="46.67364084161818027496337890625" lon="6.86672606505453586578369140625">
        <ele>664</ele>
        <time>2013-08-15T16:02:19.000Z</time>
        <extensions>
          <ns3:TrackPointExtension>
            <ns3:atemp>20.0</ns3:atemp>
            <ns3:hr>148</ns3:hr>
          </ns3:TrackPointExtension>
        </extensions>
      </trkpt>
      <trkpt lat="46.6736107505857944488525390625" lon="6.8666896037757396697998046875">
        <ele>664.20001220703125</ele>
        <time>2013-08-15T16:02:20.000Z</time>
        <extensions>
          <ns3:TrackPointExtension>
            <ns3:atemp>20.0</ns3:atemp>
            <ns3:hr>149</ns3:hr>
          </ns3:TrackPointExtension>
        </extensions>
      </trkpt>
      <trkpt lat="46.67358200065791606903076171875" lon="6.86665666289627552032470703125">
        <ele>664.4000244140625</ele>
        <time>2013-08-15T16:02:21.000Z</time>
        <extensions>
          <ns3:TrackPointExtension>
            <ns3:atemp>20.0</ns3:atemp>
            <ns3:hr>148</ns3:hr>
          </ns3:TrackPointExtension>
        </extensions>
      </trkpt>
      <trkpt lat="46.67355693876743316650390625" lon="6.8666302599012851715087890625">
        <ele>664.79998779296875</ele>
        <time>2013-08-15T16:02:22.000Z</time>
        <extensions>
          <ns3:TrackPointExtension>
            <ns3:atemp>20.0</ns3:atemp>
            <ns3:hr>148</ns3:hr>
          </ns3:TrackPointExtension>
        </extensions>
      </trkpt>
      <trkpt lat="46.6735333018004894256591796875" lon="6.86660788021981716156005859375">
        <ele>665</ele>
        <time>2013-08-15T16:02:23.000Z</time>
        <extensions>
          <ns3:TrackPointExtension>
            <ns3:atemp>20.0</ns3:atemp>
            <ns3:hr>148</ns3:hr>
          </ns3:TrackPointExtension>
        </extensions>
      </trkpt>
      <trkpt lat="46.67350807227194309234619140625" lon="6.86658910475671291351318359375">
        <ele>665</ele>
        <time>2013-08-15T16:02:24.000Z</time>
        <extensions>
          <ns3:TrackPointExtension>
            <ns3:atemp>20.0</ns3:atemp>
            <ns3:hr>148</ns3:hr>
          </ns3:TrackPointExtension>
        </extensions>
      </trkpt>
      <trkpt lat="46.67348527349531650543212890625" lon="6.8665685690939426422119140625">
        <ele>665.20001220703125</ele>
        <time>2013-08-15T16:02:25.000Z</time>
        <extensions>
          <ns3:TrackPointExtension>
            <ns3:atemp>20.0</ns3:atemp>
            <ns3:hr>148</ns3:hr>
          </ns3:TrackPointExtension>
        </extensions>
      </trkpt>
      <trkpt lat="46.67346867732703685760498046875" lon="6.86654828488826751708984375">
        <ele>665.4000244140625</ele>
        <time>2013-08-15T16:02:26.000Z</time>
        <extensions>
          <ns3:TrackPointExtension>
            <ns3:atemp>20.0</ns3:atemp>
            <ns3:hr>148</ns3:hr>
          </ns3:TrackPointExtension>
        </extensions>
      </trkpt>
      <trkpt lat="46.6734541766345500946044921875" lon="6.86653713695704936981201171875">
        <ele>665.5999755859375</ele>
        <time>2013-08-15T16:02:27.000Z</time>
        <extensions>
          <ns3:TrackPointExtension>
            <ns3:atemp>20.0</ns3:atemp>
            <ns3:hr>148</ns3:hr>
          </ns3:TrackPointExtension>
        </extensions>
      </trkpt>
      <trkpt lat="46.67343883775174617767333984375" lon="6.86652439646422863006591796875">
        <ele>666</ele>
        <time>2013-08-15T16:02:28.000Z</time>
        <extensions>
          <ns3:TrackPointExtension>
            <ns3:atemp>20.0</ns3:atemp>
            <ns3:hr>148</ns3:hr>
          </ns3:TrackPointExtension>
        </extensions>
      </trkpt>
      <trkpt lat="46.67342106811702251434326171875" lon="6.8665088899433612823486328125">
        <ele>666.20001220703125</ele>
        <time>2013-08-15T16:02:29.000Z</time>
        <extensions>
          <ns3:TrackPointExtension>
            <ns3:atemp>20.0</ns3:atemp>
            <ns3:hr>149</ns3:hr>
          </ns3:TrackPointExtension>
        </extensions>
      </trkpt>
      <trkpt lat="46.6734022088348865509033203125" lon="6.86648952774703502655029296875">
        <ele>666.4000244140625</ele>
        <time>2013-08-15T16:02:30.000Z</time>
        <extensions>
          <ns3:TrackPointExtension>
            <ns3:atemp>20.0</ns3:atemp>
            <ns3:hr>148</ns3:hr>
          </ns3:TrackPointExtension>
        </extensions>
      </trkpt>
      <trkpt lat="46.6733824275434017181396484375" lon="6.866468489170074462890625">
        <ele>666.4000244140625</ele>
        <time>2013-08-15T16:02:31.000Z</time>
        <extensions>
          <ns3:TrackPointExtension>
            <ns3:atemp>20.0</ns3:atemp>
            <ns3:hr>149</ns3:hr>
          </ns3:TrackPointExtension>
        </extensions>
      </trkpt>
      <trkpt lat="46.6733633168041706085205078125" lon="6.866452060639858245849609375">
        <ele>666.79998779296875</ele>
        <time>2013-08-15T16:02:32.000Z</time>
        <extensions>
          <ns3:TrackPointExtension>
            <ns3:atemp>20.0</ns3:atemp>
            <ns3:hr>149</ns3:hr>
          </ns3:TrackPointExtension>
        </extensions>
      </trkpt>
      <trkpt lat="46.67334504425525665283203125" lon="6.86643387190997600555419921875">
        <ele>667</ele>
        <time>2013-08-15T16:02:33.000Z</time>
        <extensions>
          <ns3:TrackPointExtension>
            <ns3:atemp>20.0</ns3:atemp>
            <ns3:hr>148</ns3:hr>
          </ns3:TrackPointExtension>
        </extensions>
      </trkpt>
      <trkpt lat="46.67332584969699382781982421875" lon="6.86641819775104522705078125">
        <ele>667.20001220703125</ele>
        <time>2013-08-15T16:02:34.000Z</time>
        <extensions>
          <ns3:TrackPointExtension>
            <ns3:atemp>20.0</ns3:atemp>
            <ns3:hr>148</ns3:hr>
          </ns3:TrackPointExtension>
        </extensions>
      </trkpt>
      <trkpt lat="46.6733029671013355255126953125" lon="6.8664049543440341949462890625">
        <ele>667.5999755859375</ele>
        <time>2013-08-15T16:02:35.000Z</time>
        <extensions>
          <ns3:TrackPointExtension>
            <ns3:atemp>20.0</ns3:atemp>
            <ns3:hr>148</ns3:hr>
          </ns3:TrackPointExtension>
        </extensions>
      </trkpt>
      <trkpt lat="46.67328335344791412353515625" lon="6.86639565043151378631591796875">
        <ele>667.79998779296875</ele>
        <time>2013-08-15T16:02:36.000Z</time>
        <extensions>
          <ns3:TrackPointExtension>
            <ns3:atemp>20.0</ns3:atemp>
            <ns3:hr>148</ns3:hr>
          </ns3:TrackPointExtension>
        </extensions>
      </trkpt>
      <trkpt lat="46.67326583527028560638427734375" lon="6.8663866817951202392578125">
        <ele>668</ele>
        <time>2013-08-15T16:02:37.000Z</time>
        <extensions>
          <ns3:TrackPointExtension>
            <ns3:atemp>20.0</ns3:atemp>
            <ns3:hr>148</ns3:hr>
          </ns3:TrackPointExtension>
        </extensions>
      </trkpt>
      <trkpt lat="46.67324177920818328857421875" lon="6.86638307757675647735595703125">
        <ele>668.20001220703125</ele>
        <time>2013-08-15T16:02:38.000Z</time>
        <extensions>
          <ns3:TrackPointExtension>
            <ns3:atemp>20.0</ns3:atemp>
            <ns3:hr>148</ns3:hr>
          </ns3:TrackPointExtension>
        </extensions>
      </trkpt>
      <trkpt lat="46.67321772314608097076416015625" lon="6.86637653969228267669677734375">
        <ele>668.4000244140625</ele>
        <time>2013-08-15T16:02:39.000Z</time>
        <extensions>
          <ns3:TrackPointExtension>
            <ns3:atemp>20.0</ns3:atemp>
            <ns3:hr>148</ns3:hr>
          </ns3:TrackPointExtension>
        </extensions>
      </trkpt>
      <trkpt lat="46.67319123633205890655517578125" lon="6.866369582712650299072265625">
        <ele>668.5999755859375</ele>
        <time>2013-08-15T16:02:40.000Z</time>
        <extensions>
          <ns3:TrackPointExtension>
            <ns3:atemp>20.0</ns3:atemp>
            <ns3:hr>148</ns3:hr>
          </ns3:TrackPointExtension>
        </extensions>
      </trkpt>
      <trkpt lat="46.673166342079639434814453125" lon="6.8663590215146541595458984375">
        <ele>669</ele>
        <time>2013-08-15T16:02:41.000Z</time>
        <extensions>
          <ns3:TrackPointExtension>
            <ns3:atemp>20.0</ns3:atemp>
            <ns3:hr>148</ns3:hr>
          </ns3:TrackPointExtension>
        </extensions>
      </trkpt>
      <trkpt lat="46.67313893325626850128173828125" lon="6.86635105870664119720458984375">
        <ele>669.20001220703125</ele>
        <time>2013-08-15T16:02:42.000Z</time>
        <extensions>
          <ns3:TrackPointExtension>
            <ns3:atemp>20.0</ns3:atemp>
            <ns3:hr>148</ns3:hr>
          </ns3:TrackPointExtension>
        </extensions>
      </trkpt>
      <trkpt lat="46.673111021518707275390625" lon="6.8663412518799304962158203125">
        <ele>669.5999755859375</ele>
        <time>2013-08-15T16:02:43.000Z</time>
        <extensions>
          <ns3:TrackPointExtension>
            <ns3:atemp>20.0</ns3:atemp>
            <ns3:hr>148</ns3:hr>
          </ns3:TrackPointExtension>
        </extensions>
      </trkpt>
      <trkpt lat="46.67308545671403408050537109375" lon="6.86633764766156673431396484375">
        <ele>669.79998779296875</ele>
        <time>2013-08-15T16:02:44.000Z</time>
        <extensions>
          <ns3:TrackPointExtension>
            <ns3:atemp>20.0</ns3:atemp>
            <ns3:hr>148</ns3:hr>
          </ns3:TrackPointExtension>
        </extensions>
      </trkpt>
      <trkpt lat="46.6730615682899951934814453125" lon="6.86633580364286899566650390625">
        <ele>670</ele>
        <time>2013-08-15T16:02:45.000Z</time>
        <extensions>
          <ns3:TrackPointExtension>
            <ns3:atemp>20.0</ns3:atemp>
            <ns3:hr>149</ns3:hr>
          </ns3:TrackPointExtension>
        </extensions>
      </trkpt>
      <trkpt lat="46.6730374284088611602783203125" lon="6.86633228324353694915771484375">
        <ele>670.5999755859375</ele>
        <time>2013-08-15T16:02:46.000Z</time>
        <extensions>
          <ns3:TrackPointExtension>
            <ns3:atemp>20.0</ns3:atemp>
            <ns3:hr>149</ns3:hr>
          </ns3:TrackPointExtension>
        </extensions>
      </trkpt>
      <trkpt lat="46.67301622219383716583251953125" lon="6.86632842756807804107666015625">
        <ele>671</ele>
        <time>2013-08-15T16:02:47.000Z</time>
        <extensions>
          <ns3:TrackPointExtension>
            <ns3:atemp>20.0</ns3:atemp>
            <ns3:hr>150</ns3:hr>
          </ns3:TrackPointExtension>
        </extensions>
      </trkpt>
      <trkpt lat="46.6729941777884960174560546875" lon="6.86633345670998096466064453125">
        <ele>671.20001220703125</ele>
        <time>2013-08-15T16:02:48.000Z</time>
        <extensions>
          <ns3:TrackPointExtension>
            <ns3:atemp>20.0</ns3:atemp>
            <ns3:hr>150</ns3:hr>
          </ns3:TrackPointExtension>
        </extensions>
      </trkpt>
      <trkpt lat="46.67297129519283771514892578125" lon="6.86633949168026447296142578125">
        <ele>671.4000244140625</ele>
        <time>2013-08-15T16:02:49.000Z</time>
        <extensions>
          <ns3:TrackPointExtension>
            <ns3:atemp>20.0</ns3:atemp>
            <ns3:hr>150</ns3:hr>
          </ns3:TrackPointExtension>
        </extensions>
      </trkpt>
      <trkpt lat="46.67294941842555999755859375" lon="6.86633815057575702667236328125">
        <ele>671.5999755859375</ele>
        <time>2013-08-15T16:02:50.000Z</time>
        <extensions>
          <ns3:TrackPointExtension>
            <ns3:atemp>20.0</ns3:atemp>
            <ns3:hr>151</ns3:hr>
          </ns3:TrackPointExtension>
        </extensions>
      </trkpt>
      <trkpt lat="46.672926284372806549072265625" lon="6.86633848585188388824462890625">
        <ele>671.5999755859375</ele>
        <time>2013-08-15T16:02:51.000Z</time>
        <extensions>
          <ns3:TrackPointExtension>
            <ns3:atemp>20.0</ns3:atemp>
            <ns3:hr>151</ns3:hr>
          </ns3:TrackPointExtension>
        </extensions>
      </trkpt>
      <trkpt lat="46.67290113866329193115234375" lon="6.86633295379579067230224609375">
        <ele>672</ele>
        <time>2013-08-15T16:02:52.000Z</time>
        <extensions>
          <ns3:TrackPointExtension>
            <ns3:atemp>20.0</ns3:atemp>
            <ns3:hr>151</ns3:hr>
          </ns3:TrackPointExtension>
        </extensions>
      </trkpt>
      <trkpt lat="46.672878675162792205810546875" lon="6.86633362434804439544677734375">
        <ele>672</ele>
        <time>2013-08-15T16:02:53.000Z</time>
        <extensions>
          <ns3:TrackPointExtension>
            <ns3:atemp>20.0</ns3:atemp>
            <ns3:hr>152</ns3:hr>
          </ns3:TrackPointExtension>
        </extensions>
      </trkpt>
      <trkpt lat="46.67285797186195850372314453125" lon="6.8663330376148223876953125">
        <ele>672.4000244140625</ele>
        <time>2013-08-15T16:02:54.000Z</time>
        <extensions>
          <ns3:TrackPointExtension>
            <ns3:atemp>20.0</ns3:atemp>
            <ns3:hr>152</ns3:hr>
          </ns3:TrackPointExtension>
        </extensions>
      </trkpt>
      <trkpt lat="46.6728376038372516632080078125" lon="6.8663298524916172027587890625">
        <ele>672.5999755859375</ele>
        <time>2013-08-15T16:02:55.000Z</time>
        <extensions>
          <ns3:TrackPointExtension>
            <ns3:atemp>20.0</ns3:atemp>
            <ns3:hr>152</ns3:hr>
          </ns3:TrackPointExtension>
        </extensions>
      </trkpt>
      <trkpt lat="46.67281840927898883819580078125" lon="6.8663365580141544342041015625">
        <ele>673</ele>
        <time>2013-08-15T16:02:56.000Z</time>
        <extensions>
          <ns3:TrackPointExtension>
            <ns3:atemp>20.0</ns3:atemp>
            <ns3:hr>153</ns3:hr>
          </ns3:TrackPointExtension>
        </extensions>
      </trkpt>
      <trkpt lat="46.67279896326363086700439453125" lon="6.8663348816335201263427734375">
        <ele>673.20001220703125</ele>
        <time>2013-08-15T16:02:57.000Z</time>
        <extensions>
          <ns3:TrackPointExtension>
            <ns3:atemp>20.0</ns3:atemp>
            <ns3:hr>153</ns3:hr>
          </ns3:TrackPointExtension>
        </extensions>
      </trkpt>
      <trkpt lat="46.67277717031538486480712890625" lon="6.86632976867258548736572265625">
        <ele>673.5999755859375</ele>
        <time>2013-08-15T16:02:58.000Z</time>
        <extensions>
          <ns3:TrackPointExtension>
            <ns3:atemp>20.0</ns3:atemp>
            <ns3:hr>153</ns3:hr>
          </ns3:TrackPointExtension>
        </extensions>
      </trkpt>
      <trkpt lat="46.6727551259100437164306640625" lon="6.8663311935961246490478515625">
        <ele>673.5999755859375</ele>
        <time>2013-08-15T16:02:59.000Z</time>
        <extensions>
          <ns3:TrackPointExtension>
            <ns3:atemp>20.0</ns3:atemp>
            <ns3:hr>153</ns3:hr>
          </ns3:TrackPointExtension>
        </extensions>
      </trkpt>
      <trkpt lat="46.67273140512406826019287109375" lon="6.86632809229195117950439453125">
        <ele>674</ele>
        <time>2013-08-15T16:03:00.000Z</time>
        <extensions>
          <ns3:TrackPointExtension>
            <ns3:atemp>20.0</ns3:atemp>
            <ns3:hr>153</ns3:hr>
          </ns3:TrackPointExtension>
        </extensions>
      </trkpt>
      <trkpt lat="46.67270827107131481170654296875" lon="6.86632541008293628692626953125">
        <ele>674.20001220703125</ele>
        <time>2013-08-15T16:03:01.000Z</time>
        <extensions>
          <ns3:TrackPointExtension>
            <ns3:atemp>20.0</ns3:atemp>
            <ns3:hr>153</ns3:hr>
          </ns3:TrackPointExtension>
        </extensions>
      </trkpt>
      <trkpt lat="46.6726823709905147552490234375" lon="6.86631903983652591705322265625">
        <ele>674.4000244140625</ele>
        <time>2013-08-15T16:03:02.000Z</time>
        <extensions>
          <ns3:TrackPointExtension>
            <ns3:atemp>20.0</ns3:atemp>
            <ns3:hr>153</ns3:hr>
          </ns3:TrackPointExtension>
        </extensions>
      </trkpt>
      <trkpt lat="46.67265965603291988372802734375" lon="6.866310574114322662353515625">
        <ele>674.5999755859375</ele>
        <time>2013-08-15T16:03:03.000Z</time>
        <extensions>
          <ns3:TrackPointExtension>
            <ns3:atemp>20.0</ns3:atemp>
            <ns3:hr>153</ns3:hr>
          </ns3:TrackPointExtension>
        </extensions>
      </trkpt>
      <trkpt lat="46.6726377792656421661376953125" lon="6.8662963248789310455322265625">
        <ele>674.79998779296875</ele>
        <time>2013-08-15T16:03:04.000Z</time>
        <extensions>
          <ns3:TrackPointExtension>
            <ns3:atemp>20.0</ns3:atemp>
            <ns3:hr>154</ns3:hr>
          </ns3:TrackPointExtension>
        </extensions>
      </trkpt>
      <trkpt lat="46.67261506430804729461669921875" lon="6.86628115363419055938720703125">
        <ele>675</ele>
        <time>2013-08-15T16:03:05.000Z</time>
        <extensions>
          <ns3:TrackPointExtension>
            <ns3:atemp>20.0</ns3:atemp>
            <ns3:hr>154</ns3:hr>
          </ns3:TrackPointExtension>
        </extensions>
      </trkpt>
      <trkpt lat="46.6725920140743255615234375" lon="6.8662705086171627044677734375">
        <ele>675.20001220703125</ele>
        <time>2013-08-15T16:03:06.000Z</time>
        <extensions>
          <ns3:TrackPointExtension>
            <ns3:atemp>20.0</ns3:atemp>
            <ns3:hr>153</ns3:hr>
          </ns3:TrackPointExtension>
        </extensions>
      </trkpt>
      <trkpt lat="46.67256854474544525146484375" lon="6.86626120470464229583740234375">
        <ele>675.4000244140625</ele>
        <time>2013-08-15T16:03:07.000Z</time>
        <extensions>
          <ns3:TrackPointExtension>
            <ns3:atemp>20.0</ns3:atemp>
            <ns3:hr>154</ns3:hr>
          </ns3:TrackPointExtension>
        </extensions>
      </trkpt>
      <trkpt lat="46.67254247702658176422119140625" lon="6.8662547506392002105712890625">
        <ele>675.5999755859375</ele>
        <time>2013-08-15T16:03:08.000Z</time>
        <extensions>
          <ns3:TrackPointExtension>
            <ns3:atemp>20.0</ns3:atemp>
            <ns3:hr>153</ns3:hr>
          </ns3:TrackPointExtension>
        </extensions>
      </trkpt>
      <trkpt lat="46.6725164093077182769775390625" lon="6.8662560917437076568603515625">
        <ele>675.79998779296875</ele>
        <time>2013-08-15T16:03:09.000Z</time>
        <extensions>
          <ns3:TrackPointExtension>
            <ns3:atemp>20.0</ns3:atemp>
            <ns3:hr>153</ns3:hr>
          </ns3:TrackPointExtension>
        </extensions>
      </trkpt>
      <trkpt lat="46.67249050922691822052001953125" lon="6.86626723967492580413818359375">
        <ele>676.5999755859375</ele>
        <time>2013-08-15T16:03:10.000Z</time>
        <extensions>
          <ns3:TrackPointExtension>
            <ns3:atemp>20.0</ns3:atemp>
            <ns3:hr>153</ns3:hr>
          </ns3:TrackPointExtension>
        </extensions>
      </trkpt>
      <trkpt lat="46.672462932765483856201171875" lon="6.86627394519746303558349609375">
        <ele>676.79998779296875</ele>
        <time>2013-08-15T16:03:11.000Z</time>
        <extensions>
          <ns3:TrackPointExtension>
            <ns3:atemp>20.0</ns3:atemp>
            <ns3:hr>153</ns3:hr>
          </ns3:TrackPointExtension>
        </extensions>
      </trkpt>
      <trkpt lat="46.672438122332096099853515625" lon="6.86627813614904880523681640625">
        <ele>677</ele>
        <time>2013-08-15T16:03:12.000Z</time>
        <extensions>
          <ns3:TrackPointExtension>
            <ns3:atemp>20.0</ns3:atemp>
            <ns3:hr>152</ns3:hr>
          </ns3:TrackPointExtension>
        </extensions>
      </trkpt>
      <trkpt lat="46.67241523973643779754638671875" lon="6.866283081471920013427734375">
        <ele>677.4000244140625</ele>
        <time>2013-08-15T16:03:13.000Z</time>
        <extensions>
          <ns3:TrackPointExtension>
            <ns3:atemp>20.0</ns3:atemp>
            <ns3:hr>152</ns3:hr>
          </ns3:TrackPointExtension>
        </extensions>
      </trkpt>
      <trkpt lat="46.67238925583660602569580078125" lon="6.86628852970898151397705078125">
        <ele>677.5999755859375</ele>
        <time>2013-08-15T16:03:14.000Z</time>
        <extensions>
          <ns3:TrackPointExtension>
            <ns3:atemp>20.0</ns3:atemp>
            <ns3:hr>152</ns3:hr>
          </ns3:TrackPointExtension>
        </extensions>
      </trkpt>
      <trkpt lat="46.672363020479679107666015625" lon="6.86629749834537506103515625">
        <ele>678</ele>
        <time>2013-08-15T16:03:15.000Z</time>
        <extensions>
          <ns3:TrackPointExtension>
            <ns3:atemp>20.0</ns3:atemp>
            <ns3:hr>152</ns3:hr>
          </ns3:TrackPointExtension>
        </extensions>
      </trkpt>
      <trkpt lat="46.67233745567500591278076171875" lon="6.86630629934370517730712890625">
        <ele>678.4000244140625</ele>
        <time>2013-08-15T16:03:16.000Z</time>
        <extensions>
          <ns3:TrackPointExtension>
            <ns3:atemp>20.0</ns3:atemp>
            <ns3:hr>153</ns3:hr>
          </ns3:TrackPointExtension>
        </extensions>
      </trkpt>
      <trkpt lat="46.6723135672509670257568359375" lon="6.86631803400814533233642578125">
        <ele>678.5999755859375</ele>
        <time>2013-08-15T16:03:17.000Z</time>
        <extensions>
          <ns3:TrackPointExtension>
            <ns3:atemp>20.0</ns3:atemp>
            <ns3:hr>153</ns3:hr>
          </ns3:TrackPointExtension>
        </extensions>
      </trkpt>
      <trkpt lat="46.67228716425597667694091796875" lon="6.86633228324353694915771484375">
        <ele>678.79998779296875</ele>
        <time>2013-08-15T16:03:18.000Z</time>
        <extensions>
          <ns3:TrackPointExtension>
            <ns3:atemp>20.0</ns3:atemp>
            <ns3:hr>152</ns3:hr>
          </ns3:TrackPointExtension>
        </extensions>
      </trkpt>
      <trkpt lat="46.67226017452776432037353515625" lon="6.8663464486598968505859375">
        <ele>679</ele>
        <time>2013-08-15T16:03:19.000Z</time>
        <extensions>
          <ns3:TrackPointExtension>
            <ns3:atemp>20.0</ns3:atemp>
            <ns3:hr>153</ns3:hr>
          </ns3:TrackPointExtension>
        </extensions>
      </trkpt>
      <trkpt lat="46.67223620228469371795654296875" lon="6.86636413447558879852294921875">
        <ele>679.20001220703125</ele>
        <time>2013-08-15T16:03:20.000Z</time>
        <extensions>
          <ns3:TrackPointExtension>
            <ns3:atemp>20.0</ns3:atemp>
            <ns3:hr>153</ns3:hr>
          </ns3:TrackPointExtension>
        </extensions>
      </trkpt>
      <trkpt lat="46.67221189476549625396728515625" lon="6.8663799762725830078125">
        <ele>679.4000244140625</ele>
        <time>2013-08-15T16:03:21.000Z</time>
        <extensions>
          <ns3:TrackPointExtension>
            <ns3:atemp>20.0</ns3:atemp>
            <ns3:hr>153</ns3:hr>
          </ns3:TrackPointExtension>
        </extensions>
      </trkpt>
      <trkpt lat="46.6721851564943790435791015625" lon="6.86639699153602123260498046875">
        <ele>679.79998779296875</ele>
        <time>2013-08-15T16:03:22.000Z</time>
        <extensions>
          <ns3:TrackPointExtension>
            <ns3:atemp>20.0</ns3:atemp>
            <ns3:hr>153</ns3:hr>
          </ns3:TrackPointExtension>
        </extensions>
      </trkpt>
      <trkpt lat="46.6721623577177524566650390625" lon="6.866415180265903472900390625">
        <ele>680</ele>
        <time>2013-08-15T16:03:23.000Z</time>
        <extensions>
          <ns3:TrackPointExtension>
            <ns3:atemp>20.0</ns3:atemp>
            <ns3:hr>153</ns3:hr>
          </ns3:TrackPointExtension>
        </extensions>
      </trkpt>
      <trkpt lat="46.6721414029598236083984375" lon="6.866436302661895751953125">
        <ele>680.20001220703125</ele>
        <time>2013-08-15T16:03:24.000Z</time>
        <extensions>
          <ns3:TrackPointExtension>
            <ns3:atemp>20.0</ns3:atemp>
            <ns3:hr>153</ns3:hr>
          </ns3:TrackPointExtension>
        </extensions>
      </trkpt>
      <trkpt lat="46.67211399413645267486572265625" lon="6.8664575926959514617919921875">
        <ele>680.20001220703125</ele>
        <time>2013-08-15T16:03:25.000Z</time>
        <extensions>
          <ns3:TrackPointExtension>
            <ns3:atemp>20.0</ns3:atemp>
            <ns3:hr>153</ns3:hr>
          </ns3:TrackPointExtension>
        </extensions>
      </trkpt>
      <trkpt lat="46.6720904409885406494140625" lon="6.86647611670196056365966796875">
        <ele>680.4000244140625</ele>
        <time>2013-08-15T16:03:26.000Z</time>
        <extensions>
          <ns3:TrackPointExtension>
            <ns3:atemp>20.0</ns3:atemp>
            <ns3:hr>154</ns3:hr>
          </ns3:TrackPointExtension>
        </extensions>
      </trkpt>
      <trkpt lat="46.67206303216516971588134765625" lon="6.866486929357051849365234375">
        <ele>680.4000244140625</ele>
        <time>2013-08-15T16:03:27.000Z</time>
        <extensions>
          <ns3:TrackPointExtension>
            <ns3:atemp>20.0</ns3:atemp>
            <ns3:hr>153</ns3:hr>
          </ns3:TrackPointExtension>
        </extensions>
      </trkpt>
      <trkpt lat="46.672035790979862213134765625" lon="6.86649573035538196563720703125">
        <ele>680.4000244140625</ele>
        <time>2013-08-15T16:03:28.000Z</time>
        <extensions>
          <ns3:TrackPointExtension>
            <ns3:atemp>20.0</ns3:atemp>
            <ns3:hr>153</ns3:hr>
          </ns3:TrackPointExtension>
        </extensions>
      </trkpt>
      <trkpt lat="46.672010980546474456787109375" lon="6.86649807728826999664306640625">
        <ele>680.5999755859375</ele>
        <time>2013-08-15T16:03:29.000Z</time>
        <extensions>
          <ns3:TrackPointExtension>
            <ns3:atemp>20.0</ns3:atemp>
            <ns3:hr>153</ns3:hr>
          </ns3:TrackPointExtension>
        </extensions>
      </trkpt>
      <trkpt lat="46.67198491282761096954345703125" lon="6.86649799346923828125">
        <ele>681</ele>
        <time>2013-08-15T16:03:30.000Z</time>
        <extensions>
          <ns3:TrackPointExtension>
            <ns3:atemp>20.0</ns3:atemp>
            <ns3:hr>154</ns3:hr>
          </ns3:TrackPointExtension>
        </extensions>
      </trkpt>
      <trkpt lat="46.67196102440357208251953125" lon="6.86650159768760204315185546875">
        <ele>681.4000244140625</ele>
        <time>2013-08-15T16:03:31.000Z</time>
        <extensions>
          <ns3:TrackPointExtension>
            <ns3:atemp>20.0</ns3:atemp>
            <ns3:hr>154</ns3:hr>
          </ns3:TrackPointExtension>
        </extensions>
      </trkpt>
      <trkpt lat="46.67193311266601085662841796875" lon="6.86649472452700138092041015625">
        <ele>681.5999755859375</ele>
        <time>2013-08-15T16:03:32.000Z</time>
        <extensions>
          <ns3:TrackPointExtension>
            <ns3:atemp>20.0</ns3:atemp>
            <ns3:hr>154</ns3:hr>
          </ns3:TrackPointExtension>
        </extensions>
      </trkpt>
      <trkpt lat="46.67190897278487682342529296875" lon="6.86648030765354633331298828125">
        <ele>681.79998779296875</ele>
        <time>2013-08-15T16:03:33.000Z</time>
        <extensions>
          <ns3:TrackPointExtension>
            <ns3:atemp>20.0</ns3:atemp>
            <ns3:hr>154</ns3:hr>
          </ns3:TrackPointExtension>
        </extensions>
      </trkpt>
      <trkpt lat="46.67189254425466060638427734375" lon="6.866458095610141754150390625">
        <ele>682.4000244140625</ele>
        <time>2013-08-15T16:03:34.000Z</time>
        <extensions>
          <ns3:TrackPointExtension>
            <ns3:atemp>20.0</ns3:atemp>
            <ns3:hr>154</ns3:hr>
          </ns3:TrackPointExtension>
        </extensions>
      </trkpt>
      <trkpt lat="46.671876870095729827880859375" lon="6.8664324469864368438720703125">
        <ele>682.5999755859375</ele>
        <time>2013-08-15T16:03:35.000Z</time>
        <extensions>
          <ns3:TrackPointExtension>
            <ns3:atemp>20.0</ns3:atemp>
            <ns3:hr>154</ns3:hr>
          </ns3:TrackPointExtension>
        </extensions>
      </trkpt>
      <trkpt lat="46.6718592680990695953369140625" lon="6.8664054572582244873046875">
        <ele>683</ele>
        <time>2013-08-15T16:03:36.000Z</time>
        <extensions>
          <ns3:TrackPointExtension>
            <ns3:atemp>20.0</ns3:atemp>
            <ns3:hr>154</ns3:hr>
          </ns3:TrackPointExtension>
        </extensions>
      </trkpt>
      <trkpt lat="46.67184208519756793975830078125" lon="6.86637771315872669219970703125">
        <ele>683.4000244140625</ele>
        <time>2013-08-15T16:03:37.000Z</time>
        <extensions>
          <ns3:TrackPointExtension>
            <ns3:atemp>20.0</ns3:atemp>
            <ns3:hr>154</ns3:hr>
          </ns3:TrackPointExtension>
        </extensions>
      </trkpt>
      <trkpt lat="46.6718290932476520538330078125" lon="6.866350136697292327880859375">
        <ele>683.5999755859375</ele>
        <time>2013-08-15T16:03:38.000Z</time>
        <extensions>
          <ns3:TrackPointExtension>
            <ns3:atemp>20.0</ns3:atemp>
            <ns3:hr>153</ns3:hr>
          </ns3:TrackPointExtension>
        </extensions>
      </trkpt>
      <trkpt lat="46.6718123294413089752197265625" lon="6.86632423661649227142333984375">
        <ele>683.79998779296875</ele>
        <time>2013-08-15T16:03:39.000Z</time>
        <extensions>
          <ns3:TrackPointExtension>
            <ns3:atemp>20.0</ns3:atemp>
            <ns3:hr>153</ns3:hr>
          </ns3:TrackPointExtension>
        </extensions>
      </trkpt>
      <trkpt lat="46.67179682292044162750244140625" lon="6.8662980012595653533935546875">
        <ele>684</ele>
        <time>2013-08-15T16:03:40.000Z</time>
        <extensions>
          <ns3:TrackPointExtension>
            <ns3:atemp>20.0</ns3:atemp>
            <ns3:hr>153</ns3:hr>
          </ns3:TrackPointExtension>
        </extensions>
      </trkpt>
      <trkpt lat="46.6717801429331302642822265625" lon="6.86627210117876529693603515625">
        <ele>684.20001220703125</ele>
        <time>2013-08-15T16:03:41.000Z</time>
        <extensions>
          <ns3:TrackPointExtension>
            <ns3:atemp>20.0</ns3:atemp>
            <ns3:hr>153</ns3:hr>
          </ns3:TrackPointExtension>
        </extensions>
      </trkpt>
      <trkpt lat="46.671760194003582000732421875" lon="6.86624787747859954833984375">
        <ele>684.4000244140625</ele>
        <time>2013-08-15T16:03:42.000Z</time>
        <extensions>
          <ns3:TrackPointExtension>
            <ns3:atemp>20.0</ns3:atemp>
            <ns3:hr>153</ns3:hr>
          </ns3:TrackPointExtension>
        </extensions>
      </trkpt>
      <trkpt lat="46.67173781432211399078369140625" lon="6.86622382141649723052978515625">
        <ele>684.79998779296875</ele>
        <time>2013-08-15T16:03:43.000Z</time>
        <extensions>
          <ns3:TrackPointExtension>
            <ns3:atemp>20.0</ns3:atemp>
            <ns3:hr>153</ns3:hr>
          </ns3:TrackPointExtension>
        </extensions>
      </trkpt>
      <trkpt lat="46.6717149317264556884765625" lon="6.86619331128895282745361328125">
        <ele>685</ele>
        <time>2013-08-15T16:03:44.000Z</time>
        <extensions>
          <ns3:TrackPointExtension>
            <ns3:atemp>20.0</ns3:atemp>
            <ns3:hr>154</ns3:hr>
          </ns3:TrackPointExtension>
        </extensions>
      </trkpt>
      <trkpt lat="46.67169146239757537841796875" lon="6.86615877784788608551025390625">
        <ele>685</ele>
        <time>2013-08-15T16:03:45.000Z</time>
        <extensions>
          <ns3:TrackPointExtension>
            <ns3:atemp>20.0</ns3:atemp>
            <ns3:hr>154</ns3:hr>
          </ns3:TrackPointExtension>
        </extensions>
      </trkpt>
      <trkpt lat="46.67166455648839473724365234375" lon="6.8661219812929630279541015625">
        <ele>685.4000244140625</ele>
        <time>2013-08-15T16:03:46.000Z</time>
        <extensions>
          <ns3:TrackPointExtension>
            <ns3:atemp>20.0</ns3:atemp>
            <ns3:hr>154</ns3:hr>
          </ns3:TrackPointExtension>
        </extensions>
      </trkpt>
      <trkpt lat="46.67164058424532413482666015625" lon="6.8660787306725978851318359375">
        <ele>685.5999755859375</ele>
        <time>2013-08-15T16:03:47.000Z</time>
        <extensions>
          <ns3:TrackPointExtension>
            <ns3:atemp>20.0</ns3:atemp>
            <ns3:hr>153</ns3:hr>
          </ns3:TrackPointExtension>
        </extensions>
      </trkpt>
      <trkpt lat="46.67161677964031696319580078125" lon="6.8660351447761058807373046875">
        <ele>685.79998779296875</ele>
        <time>2013-08-15T16:03:48.000Z</time>
        <extensions>
          <ns3:TrackPointExtension>
            <ns3:atemp>20.0</ns3:atemp>
            <ns3:hr>153</ns3:hr>
          </ns3:TrackPointExtension>
        </extensions>
      </trkpt>
      <trkpt lat="46.6715943999588489532470703125" lon="6.86598694883286952972412109375">
        <ele>685.79998779296875</ele>
        <time>2013-08-15T16:03:49.000Z</time>
        <extensions>
          <ns3:TrackPointExtension>
            <ns3:atemp>20.0</ns3:atemp>
            <ns3:hr>153</ns3:hr>
          </ns3:TrackPointExtension>
        </extensions>
      </trkpt>
      <trkpt lat="46.6715692542493343353271484375" lon="6.86594235710799694061279296875">
        <ele>686</ele>
        <time>2013-08-15T16:03:50.000Z</time>
        <extensions>
          <ns3:TrackPointExtension>
            <ns3:atemp>20.0</ns3:atemp>
            <ns3:hr>153</ns3:hr>
          </ns3:TrackPointExtension>
        </extensions>
      </trkpt>
      <trkpt lat="46.6715405881404876708984375" lon="6.8658958375453948974609375">
        <ele>686.20001220703125</ele>
        <time>2013-08-15T16:03:51.000Z</time>
        <extensions>
          <ns3:TrackPointExtension>
            <ns3:atemp>20.0</ns3:atemp>
            <ns3:hr>152</ns3:hr>
          </ns3:TrackPointExtension>
        </extensions>
      </trkpt>
      <trkpt lat="46.6715089045464992523193359375" lon="6.8658423610031604766845703125">
        <ele>686.4000244140625</ele>
        <time>2013-08-15T16:03:52.000Z</time>
        <extensions>
          <ns3:TrackPointExtension>
            <ns3:atemp>20.0</ns3:atemp>
            <ns3:hr>152</ns3:hr>
          </ns3:TrackPointExtension>
        </extensions>
      </trkpt>
      <trkpt lat="46.67147462256252765655517578125" lon="6.8657860346138477325439453125">
        <ele>686.4000244140625</ele>
        <time>2013-08-15T16:03:53.000Z</time>
        <extensions>
          <ns3:TrackPointExtension>
            <ns3:atemp>20.0</ns3:atemp>
            <ns3:hr>152</ns3:hr>
          </ns3:TrackPointExtension>
        </extensions>
      </trkpt>
      <trkpt lat="46.67143531143665313720703125" lon="6.8657323904335498809814453125">
        <ele>686.5999755859375</ele>
        <time>2013-08-15T16:03:54.000Z</time>
        <extensions>
          <ns3:TrackPointExtension>
            <ns3:atemp>20.0</ns3:atemp>
            <ns3:hr>152</ns3:hr>
          </ns3:TrackPointExtension>
        </extensions>
      </trkpt>
      <trkpt lat="46.67139398865401744842529296875" lon="6.86568084172904491424560546875">
        <ele>686.5999755859375</ele>
        <time>2013-08-15T16:03:55.000Z</time>
        <extensions>
          <ns3:TrackPointExtension>
            <ns3:atemp>20.0</ns3:atemp>
            <ns3:hr>151</ns3:hr>
          </ns3:TrackPointExtension>
        </extensions>
      </trkpt>
      <trkpt lat="46.67135207913815975189208984375" lon="6.865633316338062286376953125">
        <ele>686.5999755859375</ele>
        <time>2013-08-15T16:03:56.000Z</time>
        <extensions>
          <ns3:TrackPointExtension>
            <ns3:atemp>21.0</ns3:atemp>
            <ns3:hr>151</ns3:hr>
          </ns3:TrackPointExtension>
        </extensions>
      </trkpt>
      <trkpt lat="46.67130983434617519378662109375" lon="6.86558377929031848907470703125">
        <ele>686.5999755859375</ele>
        <time>2013-08-15T16:03:57.000Z</time>
        <extensions>
          <ns3:TrackPointExtension>
            <ns3:atemp>21.0</ns3:atemp>
            <ns3:hr>151</ns3:hr>
          </ns3:TrackPointExtension>
        </extensions>
      </trkpt>
      <trkpt lat="46.67126767337322235107421875" lon="6.86552694998681545257568359375">
        <ele>686.5999755859375</ele>
        <time>2013-08-15T16:03:58.000Z</time>
        <extensions>
          <ns3:TrackPointExtension>
            <ns3:atemp>21.0</ns3:atemp>
            <ns3:hr>151</ns3:hr>
          </ns3:TrackPointExtension>
        </extensions>
      </trkpt>
      <trkpt lat="46.671227775514125823974609375" lon="6.86547481454908847808837890625">
        <ele>687</ele>
        <time>2013-08-15T16:03:59.000Z</time>
        <extensions>
          <ns3:TrackPointExtension>
            <ns3:atemp>21.0</ns3:atemp>
            <ns3:hr>151</ns3:hr>
          </ns3:TrackPointExtension>
        </extensions>
      </trkpt>
      <trkpt lat="46.67118729092180728912353515625" lon="6.8654239363968372344970703125">
        <ele>687</ele>
        <time>2013-08-15T16:04:00.000Z</time>
        <extensions>
          <ns3:TrackPointExtension>
            <ns3:atemp>21.0</ns3:atemp>
            <ns3:hr>150</ns3:hr>
          </ns3:TrackPointExtension>
        </extensions>
      </trkpt>
      <trkpt lat="46.67114538140594959259033203125" lon="6.86537750065326690673828125">
        <ele>687.20001220703125</ele>
        <time>2013-08-15T16:04:01.000Z</time>
        <extensions>
          <ns3:TrackPointExtension>
            <ns3:atemp>21.0</ns3:atemp>
            <ns3:hr>150</ns3:hr>
          </ns3:TrackPointExtension>
        </extensions>
      </trkpt>
      <trkpt lat="46.67110330425202846527099609375" lon="6.86533064581453800201416015625">
        <ele>687.4000244140625</ele>
        <time>2013-08-15T16:04:02.000Z</time>
        <extensions>
          <ns3:TrackPointExtension>
            <ns3:atemp>21.0</ns3:atemp>
            <ns3:hr>150</ns3:hr>
          </ns3:TrackPointExtension>
        </extensions>
      </trkpt>
      <trkpt lat="46.671056449413299560546875" lon="6.86529208905994892120361328125">
        <ele>687.4000244140625</ele>
        <time>2013-08-15T16:04:03.000Z</time>
        <extensions>
          <ns3:TrackPointExtension>
            <ns3:atemp>21.0</ns3:atemp>
            <ns3:hr>150</ns3:hr>
          </ns3:TrackPointExtension>
        </extensions>
      </trkpt>
      <trkpt lat="46.6710080020129680633544921875" lon="6.86525487340986728668212890625">
        <ele>687.4000244140625</ele>
        <time>2013-08-15T16:04:04.000Z</time>
        <extensions>
          <ns3:TrackPointExtension>
            <ns3:atemp>21.0</ns3:atemp>
            <ns3:hr>150</ns3:hr>
          </ns3:TrackPointExtension>
        </extensions>
      </trkpt>
      <trkpt lat="46.670959889888763427734375" lon="6.86521547846496105194091796875">
        <ele>687.5999755859375</ele>
        <time>2013-08-15T16:04:05.000Z</time>
        <extensions>
          <ns3:TrackPointExtension>
            <ns3:atemp>21.0</ns3:atemp>
            <ns3:hr>150</ns3:hr>
          </ns3:TrackPointExtension>
        </extensions>
      </trkpt>
      <trkpt lat="46.670912615954875946044921875" lon="6.86517038382589817047119140625">
        <ele>687.5999755859375</ele>
        <time>2013-08-15T16:04:06.000Z</time>
        <extensions>
          <ns3:TrackPointExtension>
            <ns3:atemp>21.0</ns3:atemp>
            <ns3:hr>149</ns3:hr>
          </ns3:TrackPointExtension>
        </extensions>
      </trkpt>
      <trkpt lat="46.6708658449351787567138671875" lon="6.86512478627264499664306640625">
        <ele>687.79998779296875</ele>
        <time>2013-08-15T16:04:07.000Z</time>
        <extensions>
          <ns3:TrackPointExtension>
            <ns3:atemp>21.0</ns3:atemp>
            <ns3:hr>149</ns3:hr>
          </ns3:TrackPointExtension>
        </extensions>
      </trkpt>
      <trkpt lat="46.670818738639354705810546875" lon="6.86507642269134521484375">
        <ele>687.79998779296875</ele>
        <time>2013-08-15T16:04:08.000Z</time>
        <extensions>
          <ns3:TrackPointExtension>
            <ns3:atemp>21.0</ns3:atemp>
            <ns3:hr>149</ns3:hr>
          </ns3:TrackPointExtension>
        </extensions>
      </trkpt>
      <trkpt lat="46.67077322490513324737548828125" lon="6.86502839438617229461669921875">
        <ele>688</ele>
        <time>2013-08-15T16:04:09.000Z</time>
        <extensions>
          <ns3:TrackPointExtension>
            <ns3:atemp>21.0</ns3:atemp>
            <ns3:hr>148</ns3:hr>
          </ns3:TrackPointExtension>
        </extensions>
      </trkpt>
      <trkpt lat="46.6707280464470386505126953125" lon="6.8649812042713165283203125">
        <ele>688.20001220703125</ele>
        <time>2013-08-15T16:04:10.000Z</time>
        <extensions>
          <ns3:TrackPointExtension>
            <ns3:atemp>21.0</ns3:atemp>
            <ns3:hr>148</ns3:hr>
          </ns3:TrackPointExtension>
        </extensions>
      </trkpt>
      <trkpt lat="46.67068270035088062286376953125" lon="6.86494122259318828582763671875">
        <ele>688.20001220703125</ele>
        <time>2013-08-15T16:04:11.000Z</time>
        <extensions>
          <ns3:TrackPointExtension>
            <ns3:atemp>21.0</ns3:atemp>
            <ns3:hr>148</ns3:hr>
          </ns3:TrackPointExtension>
        </extensions>
      </trkpt>
      <trkpt lat="46.6706393659114837646484375" lon="6.86489780433475971221923828125">
        <ele>688.20001220703125</ele>
        <time>2013-08-15T16:04:12.000Z</time>
        <extensions>
          <ns3:TrackPointExtension>
            <ns3:atemp>21.0</ns3:atemp>
            <ns3:hr>147</ns3:hr>
          </ns3:TrackPointExtension>
        </extensions>
      </trkpt>
      <trkpt lat="46.67059452272951602935791015625" lon="6.86485581099987030029296875">
        <ele>688.4000244140625</ele>
        <time>2013-08-15T16:04:13.000Z</time>
        <extensions>
          <ns3:TrackPointExtension>
            <ns3:atemp>21.0</ns3:atemp>
            <ns3:hr>147</ns3:hr>
          </ns3:TrackPointExtension>
        </extensions>
      </trkpt>
      <trkpt lat="46.67054993100464344024658203125" lon="6.86481499113142490386962890625">
        <ele>688.5999755859375</ele>
        <time>2013-08-15T16:04:14.000Z</time>
        <extensions>
          <ns3:TrackPointExtension>
            <ns3:atemp>21.0</ns3:atemp>
            <ns3:hr>147</ns3:hr>
          </ns3:TrackPointExtension>
        </extensions>
      </trkpt>
      <trkpt lat="46.67050466872751712799072265625" lon="6.864776350557804107666015625">
        <ele>688.79998779296875</ele>
        <time>2013-08-15T16:04:15.000Z</time>
        <extensions>
          <ns3:TrackPointExtension>
            <ns3:atemp>21.0</ns3:atemp>
            <ns3:hr>147</ns3:hr>
          </ns3:TrackPointExtension>
        </extensions>
      </trkpt>
      <trkpt lat="46.67046032845973968505859375" lon="6.864739470183849334716796875">
        <ele>689</ele>
        <time>2013-08-15T16:04:16.000Z</time>
        <extensions>
          <ns3:TrackPointExtension>
            <ns3:atemp>21.0</ns3:atemp>
            <ns3:hr>147</ns3:hr>
          </ns3:TrackPointExtension>
        </extensions>
      </trkpt>
      <trkpt lat="46.67041967622935771942138671875" lon="6.86469630338251590728759765625">
        <ele>689</ele>
        <time>2013-08-15T16:04:17.000Z</time>
        <extensions>
          <ns3:TrackPointExtension>
            <ns3:atemp>21.0</ns3:atemp>
            <ns3:hr>146</ns3:hr>
          </ns3:TrackPointExtension>
        </extensions>
      </trkpt>
      <trkpt lat="46.6703750006854534149169921875" lon="6.8646551482379436492919921875">
        <ele>689.20001220703125</ele>
        <time>2013-08-15T16:04:18.000Z</time>
        <extensions>
          <ns3:TrackPointExtension>
            <ns3:atemp>21.0</ns3:atemp>
            <ns3:hr>146</ns3:hr>
          </ns3:TrackPointExtension>
        </extensions>
      </trkpt>
      <trkpt lat="46.67033149860799312591552734375" lon="6.8646115623414516448974609375">
        <ele>689.4000244140625</ele>
        <time>2013-08-15T16:04:19.000Z</time>
        <extensions>
          <ns3:TrackPointExtension>
            <ns3:atemp>21.0</ns3:atemp>
            <ns3:hr>146</ns3:hr>
          </ns3:TrackPointExtension>
        </extensions>
      </trkpt>
      <trkpt lat="46.67029000818729400634765625" lon="6.8645679764449596405029296875">
        <ele>689.5999755859375</ele>
        <time>2013-08-15T16:04:20.000Z</time>
        <extensions>
          <ns3:TrackPointExtension>
            <ns3:atemp>21.0</ns3:atemp>
            <ns3:hr>145</ns3:hr>
          </ns3:TrackPointExtension>
        </extensions>
      </trkpt>
      <trkpt lat="46.67024533264338970184326171875" lon="6.8645284138619899749755859375">
        <ele>689.79998779296875</ele>
        <time>2013-08-15T16:04:21.000Z</time>
        <extensions>
          <ns3:TrackPointExtension>
            <ns3:atemp>21.0</ns3:atemp>
            <ns3:hr>145</ns3:hr>
          </ns3:TrackPointExtension>
        </extensions>
      </trkpt>
      <trkpt lat="46.67020292021334171295166015625" lon="6.86448574997484683990478515625">
        <ele>689.79998779296875</ele>
        <time>2013-08-15T16:04:22.000Z</time>
        <extensions>
          <ns3:TrackPointExtension>
            <ns3:atemp>21.0</ns3:atemp>
            <ns3:hr>144</ns3:hr>
          </ns3:TrackPointExtension>
        </extensions>
      </trkpt>
      <trkpt lat="46.67016117833554744720458984375" lon="6.86444032005965709686279296875">
        <ele>690</ele>
        <time>2013-08-15T16:04:23.000Z</time>
        <extensions>
          <ns3:TrackPointExtension>
            <ns3:atemp>21.0</ns3:atemp>
            <ns3:hr>144</ns3:hr>
          </ns3:TrackPointExtension>
        </extensions>
      </trkpt>
      <trkpt lat="46.670118682086467742919921875" lon="6.8643959797918796539306640625">
        <ele>690.20001220703125</ele>
        <time>2013-08-15T16:04:24.000Z</time>
        <extensions>
          <ns3:TrackPointExtension>
            <ns3:atemp>21.0</ns3:atemp>
            <ns3:hr>144</ns3:hr>
          </ns3:TrackPointExtension>
        </extensions>
      </trkpt>
      <trkpt lat="46.67007618583738803863525390625" lon="6.86434728093445301055908203125">
        <ele>690.20001220703125</ele>
        <time>2013-08-15T16:04:25.000Z</time>
        <extensions>
          <ns3:TrackPointExtension>
            <ns3:atemp>21.0</ns3:atemp>
            <ns3:hr>144</ns3:hr>
          </ns3:TrackPointExtension>
        </extensions>
      </trkpt>
      <trkpt lat="46.67003092356026172637939453125" lon="6.86430185101926326751708984375">
        <ele>690.20001220703125</ele>
        <time>2013-08-15T16:04:26.000Z</time>
        <extensions>
          <ns3:TrackPointExtension>
            <ns3:atemp>21.0</ns3:atemp>
            <ns3:hr>143</ns3:hr>
          </ns3:TrackPointExtension>
        </extensions>
      </trkpt>
      <trkpt lat="46.6699840687215328216552734375" lon="6.86425642110407352447509765625">
        <ele>690.20001220703125</ele>
        <time>2013-08-15T16:04:27.000Z</time>
        <extensions>
          <ns3:TrackPointExtension>
            <ns3:atemp>21.0</ns3:atemp>
            <ns3:hr>143</ns3:hr>
          </ns3:TrackPointExtension>
        </extensions>
      </trkpt>
      <trkpt lat="46.66993436403572559356689453125" lon="6.864211745560169219970703125">
        <ele>690.20001220703125</ele>
        <time>2013-08-15T16:04:28.000Z</time>
        <extensions>
          <ns3:TrackPointExtension>
            <ns3:atemp>21.0</ns3:atemp>
            <ns3:hr>143</ns3:hr>
          </ns3:TrackPointExtension>
        </extensions>
      </trkpt>
      <trkpt lat="46.66987904347479343414306640625" lon="6.86416505835950374603271484375">
        <ele>690</ele>
        <time>2013-08-15T16:04:29.000Z</time>
        <extensions>
          <ns3:TrackPointExtension>
            <ns3:atemp>21.0</ns3:atemp>
            <ns3:hr>143</ns3:hr>
          </ns3:TrackPointExtension>
        </extensions>
      </trkpt>
      <trkpt lat="46.66982070542871952056884765625" lon="6.864113174378871917724609375">
        <ele>690</ele>
        <time>2013-08-15T16:04:30.000Z</time>
        <extensions>
          <ns3:TrackPointExtension>
            <ns3:atemp>21.0</ns3:atemp>
            <ns3:hr>142</ns3:hr>
          </ns3:TrackPointExtension>
        </extensions>
      </trkpt>
      <trkpt lat="46.669757924973964691162109375" lon="6.86406682245433330535888671875">
        <ele>690</ele>
        <time>2013-08-15T16:04:31.000Z</time>
        <extensions>
          <ns3:TrackPointExtension>
            <ns3:atemp>21.0</ns3:atemp>
            <ns3:hr>142</ns3:hr>
          </ns3:TrackPointExtension>
        </extensions>
      </trkpt>
      <trkpt lat="46.6696923784911632537841796875" lon="6.86402432620525360107421875">
        <ele>689.79998779296875</ele>
        <time>2013-08-15T16:04:32.000Z</time>
        <extensions>
          <ns3:TrackPointExtension>
            <ns3:atemp>21.0</ns3:atemp>
            <ns3:hr>141</ns3:hr>
          </ns3:TrackPointExtension>
        </extensions>
      </trkpt>
      <trkpt lat="46.66962641291320323944091796875" lon="6.86398149468004703521728515625">
        <ele>689.5999755859375</ele>
        <time>2013-08-15T16:04:33.000Z</time>
        <extensions>
          <ns3:TrackPointExtension>
            <ns3:atemp>21.0</ns3:atemp>
            <ns3:hr>141</ns3:hr>
          </ns3:TrackPointExtension>
        </extensions>
      </trkpt>
      <trkpt lat="46.66955566965043544769287109375" lon="6.86394712887704372406005859375">
        <ele>689.4000244140625</ele>
        <time>2013-08-15T16:04:34.000Z</time>
        <extensions>
          <ns3:TrackPointExtension>
            <ns3:atemp>21.0</ns3:atemp>
            <ns3:hr>141</ns3:hr>
          </ns3:TrackPointExtension>
        </extensions>
      </trkpt>
      <trkpt lat="46.66948936879634857177734375" lon="6.8639158643782138824462890625">
        <ele>689.4000244140625</ele>
        <time>2013-08-15T16:04:35.000Z</time>
        <extensions>
          <ns3:TrackPointExtension>
            <ns3:atemp>21.0</ns3:atemp>
            <ns3:hr>140</ns3:hr>
          </ns3:TrackPointExtension>
        </extensions>
      </trkpt>
      <trkpt lat="46.66942943818867206573486328125" lon="6.8638742901384830474853515625">
        <ele>689.5999755859375</ele>
        <time>2013-08-15T16:04:36.000Z</time>
        <extensions>
          <ns3:TrackPointExtension>
            <ns3:atemp>21.0</ns3:atemp>
            <ns3:hr>140</ns3:hr>
          </ns3:TrackPointExtension>
        </extensions>
      </trkpt>
      <trkpt lat="46.669377051293849945068359375" lon="6.86382852494716644287109375">
        <ele>689.79998779296875</ele>
        <time>2013-08-15T16:04:37.000Z</time>
        <extensions>
          <ns3:TrackPointExtension>
            <ns3:atemp>21.0</ns3:atemp>
            <ns3:hr>140</ns3:hr>
          </ns3:TrackPointExtension>
        </extensions>
      </trkpt>
      <trkpt lat="46.66933136992156505584716796875" lon="6.863781251013278961181640625">
        <ele>689.5999755859375</ele>
        <time>2013-08-15T16:04:38.000Z</time>
        <extensions>
          <ns3:TrackPointExtension>
            <ns3:atemp>21.0</ns3:atemp>
            <ns3:hr>140</ns3:hr>
          </ns3:TrackPointExtension>
        </extensions>
      </trkpt>
      <trkpt lat="46.6692982614040374755859375" lon="6.8637173809111118316650390625">
        <ele>689.5999755859375</ele>
        <time>2013-08-15T16:04:39.000Z</time>
        <extensions>
          <ns3:TrackPointExtension>
            <ns3:atemp>21.0</ns3:atemp>
            <ns3:hr>139</ns3:hr>
          </ns3:TrackPointExtension>
        </extensions>
      </trkpt>
      <trkpt lat="46.66928845457732677459716796875" lon="6.8636392615735530853271484375">
        <ele>690</ele>
        <time>2013-08-15T16:04:40.000Z</time>
        <extensions>
          <ns3:TrackPointExtension>
            <ns3:atemp>21.0</ns3:atemp>
            <ns3:hr>139</ns3:hr>
          </ns3:TrackPointExtension>
        </extensions>
      </trkpt>
      <trkpt lat="46.6693027876317501068115234375" lon="6.86355938203632831573486328125">
        <ele>690.4000244140625</ele>
        <time>2013-08-15T16:04:41.000Z</time>
        <extensions>
          <ns3:TrackPointExtension>
            <ns3:atemp>21.0</ns3:atemp>
            <ns3:hr>139</ns3:hr>
          </ns3:TrackPointExtension>
        </extensions>
      </trkpt>
      <trkpt lat="46.66932516731321811676025390625" lon="6.863479502499103546142578125">
        <ele>691</ele>
        <time>2013-08-15T16:04:42.000Z</time>
        <extensions>
          <ns3:TrackPointExtension>
            <ns3:atemp>21.0</ns3:atemp>
            <ns3:hr>139</ns3:hr>
          </ns3:TrackPointExtension>
        </extensions>
      </trkpt>
      <trkpt lat="46.6693416796624660491943359375" lon="6.86339241452515125274658203125">
        <ele>691.20001220703125</ele>
        <time>2013-08-15T16:04:43.000Z</time>
        <extensions>
          <ns3:TrackPointExtension>
            <ns3:atemp>21.0</ns3:atemp>
            <ns3:hr>139</ns3:hr>
          </ns3:TrackPointExtension>
        </extensions>
      </trkpt>
      <trkpt lat="46.66935383342206478118896484375" lon="6.8632945977151393890380859375">
        <ele>691.20001220703125</ele>
        <time>2013-08-15T16:04:44.000Z</time>
        <extensions>
          <ns3:TrackPointExtension>
            <ns3:atemp>21.0</ns3:atemp>
            <ns3:hr>139</ns3:hr>
          </ns3:TrackPointExtension>
        </extensions>
      </trkpt>
      <trkpt lat="46.66936732828617095947265625" lon="6.86318747699260711669921875">
        <ele>690.79998779296875</ele>
        <time>2013-08-15T16:04:45.000Z</time>
        <extensions>
          <ns3:TrackPointExtension>
            <ns3:atemp>21.0</ns3:atemp>
            <ns3:hr>139</ns3:hr>
          </ns3:TrackPointExtension>
        </extensions>
      </trkpt>
      <trkpt lat="46.6693822480738162994384765625" lon="6.8630692921578884124755859375">
        <ele>690.4000244140625</ele>
        <time>2013-08-15T16:04:46.000Z</time>
        <extensions>
          <ns3:TrackPointExtension>
            <ns3:atemp>21.0</ns3:atemp>
            <ns3:hr>138</ns3:hr>
          </ns3:TrackPointExtension>
        </extensions>
      </trkpt>
      <trkpt lat="46.66939574293792247772216796875" lon="6.862941049039363861083984375">
        <ele>689.4000244140625</ele>
        <time>2013-08-15T16:04:47.000Z</time>
        <extensions>
          <ns3:TrackPointExtension>
            <ns3:atemp>21.0</ns3:atemp>
            <ns3:hr>138</ns3:hr>
          </ns3:TrackPointExtension>
        </extensions>
      </trkpt>
      <trkpt lat="46.6694060526788234710693359375" lon="6.8628005683422088623046875">
        <ele>688.79998779296875</ele>
        <time>2013-08-15T16:04:48.000Z</time>
        <extensions>
          <ns3:TrackPointExtension>
            <ns3:atemp>21.0</ns3:atemp>
            <ns3:hr>137</ns3:hr>
          </ns3:TrackPointExtension>
        </extensions>
      </trkpt>
      <trkpt lat="46.669419296085834503173828125" lon="6.86264893971383571624755859375">
        <ele>687.79998779296875</ele>
        <time>2013-08-15T16:04:49.000Z</time>
        <extensions>
          <ns3:TrackPointExtension>
            <ns3:atemp>21.0</ns3:atemp>
            <ns3:hr>137</ns3:hr>
          </ns3:TrackPointExtension>
        </extensions>
      </trkpt>
      <trkpt lat="46.669437400996685028076171875" lon="6.86249756254255771636962890625">
        <ele>686.5999755859375</ele>
        <time>2013-08-15T16:04:50.000Z</time>
        <extensions>
          <ns3:TrackPointExtension>
            <ns3:atemp>21.0</ns3:atemp>
            <ns3:hr>136</ns3:hr>
          </ns3:TrackPointExtension>
        </extensions>
      </trkpt>
      <trkpt lat="46.669451482594013214111328125" lon="6.862348616123199462890625">
        <ele>685.20001220703125</ele>
        <time>2013-08-15T16:04:51.000Z</time>
        <extensions>
          <ns3:TrackPointExtension>
            <ns3:atemp>21.0</ns3:atemp>
            <ns3:hr>135</ns3:hr>
          </ns3:TrackPointExtension>
        </extensions>
      </trkpt>
      <trkpt lat="46.66946925222873687744140625" lon="6.86219950206577777862548828125">
        <ele>683.79998779296875</ele>
        <time>2013-08-15T16:04:52.000Z</time>
        <extensions>
          <ns3:TrackPointExtension>
            <ns3:atemp>21.0</ns3:atemp>
            <ns3:hr>134</ns3:hr>
          </ns3:TrackPointExtension>
        </extensions>
      </trkpt>
      <trkpt lat="46.66949741542339324951171875" lon="6.86204292811453342437744140625">
        <ele>682.5999755859375</ele>
        <time>2013-08-15T16:04:53.000Z</time>
        <extensions>
          <ns3:TrackPointExtension>
            <ns3:atemp>21.0</ns3:atemp>
            <ns3:hr>133</ns3:hr>
          </ns3:TrackPointExtension>
        </extensions>
      </trkpt>
      <trkpt lat="46.6695508919656276702880859375" lon="6.8618861027061939239501953125">
        <ele>681.5999755859375</ele>
        <time>2013-08-15T16:04:54.000Z</time>
        <extensions>
          <ns3:TrackPointExtension>
            <ns3:atemp>21.0</ns3:atemp>
            <ns3:hr>133</ns3:hr>
          </ns3:TrackPointExtension>
        </extensions>
      </trkpt>
      <trkpt lat="46.669624485075473785400390625" lon="6.86173531226813793182373046875">
        <ele>680.79998779296875</ele>
        <time>2013-08-15T16:04:55.000Z</time>
        <extensions>
          <ns3:TrackPointExtension>
            <ns3:atemp>21.0</ns3:atemp>
            <ns3:hr>132</ns3:hr>
          </ns3:TrackPointExtension>
        </extensions>
      </trkpt>
      <trkpt lat="46.6697005927562713623046875" lon="6.8615793250501155853271484375">
        <ele>679.5999755859375</ele>
        <time>2013-08-15T16:04:56.000Z</time>
        <extensions>
          <ns3:TrackPointExtension>
            <ns3:atemp>21.0</ns3:atemp>
            <ns3:hr>132</ns3:hr>
          </ns3:TrackPointExtension>
        </extensions>
      </trkpt>
      <trkpt lat="46.66978063993155956268310546875" lon="6.8614214099943637847900390625">
        <ele>678.4000244140625</ele>
        <time>2013-08-15T16:04:57.000Z</time>
        <extensions>
          <ns3:TrackPointExtension>
            <ns3:atemp>21.0</ns3:atemp>
            <ns3:hr>132</ns3:hr>
          </ns3:TrackPointExtension>
        </extensions>
      </trkpt>
      <trkpt lat="46.6698615252971649169921875" lon="6.86125922016799449920654296875">
        <ele>677</ele>
        <time>2013-08-15T16:04:58.000Z</time>
        <extensions>
          <ns3:TrackPointExtension>
            <ns3:atemp>21.0</ns3:atemp>
            <ns3:hr>131</ns3:hr>
          </ns3:TrackPointExtension>
        </extensions>
      </trkpt>
      <trkpt lat="46.66993956081569194793701171875" lon="6.8610945157706737518310546875">
        <ele>675.4000244140625</ele>
        <time>2013-08-15T16:04:59.000Z</time>
        <extensions>
          <ns3:TrackPointExtension>
            <ns3:atemp>21.0</ns3:atemp>
            <ns3:hr>130</ns3:hr>
          </ns3:TrackPointExtension>
        </extensions>
      </trkpt>
      <trkpt lat="46.6700206138193607330322265625" lon="6.86092712916433811187744140625">
        <ele>674</ele>
        <time>2013-08-15T16:05:00.000Z</time>
        <extensions>
          <ns3:TrackPointExtension>
            <ns3:atemp>21.0</ns3:atemp>
            <ns3:hr>129</ns3:hr>
          </ns3:TrackPointExtension>
        </extensions>
      </trkpt>
      <trkpt lat="46.67009596712887287139892578125" lon="6.86077759601175785064697265625">
        <ele>672.4000244140625</ele>
        <time>2013-08-15T16:05:01.000Z</time>
        <extensions>
          <ns3:TrackPointExtension>
            <ns3:atemp>21.0</ns3:atemp>
            <ns3:hr>128</ns3:hr>
          </ns3:TrackPointExtension>
        </extensions>
      </trkpt>
      <trkpt lat="46.6701594181358814239501953125" lon="6.86065035872161388397216796875">
        <ele>670.4000244140625</ele>
        <time>2013-08-15T16:05:02.000Z</time>
        <extensions>
          <ns3:TrackPointExtension>
            <ns3:atemp>21.0</ns3:atemp>
            <ns3:hr>128</ns3:hr>
          </ns3:TrackPointExtension>
        </extensions>
      </trkpt>
      <trkpt lat="46.67021130211651325225830078125" lon="6.86053183861076831817626953125">
        <ele>668.4000244140625</ele>
        <time>2013-08-15T16:05:03.000Z</time>
        <extensions>
          <ns3:TrackPointExtension>
            <ns3:atemp>21.0</ns3:atemp>
            <ns3:hr>127</ns3:hr>
          </ns3:TrackPointExtension>
        </extensions>
      </trkpt>
      <trkpt lat="46.67024432681500911712646484375" lon="6.86042002402245998382568359375">
        <ele>666.79998779296875</ele>
        <time>2013-08-15T16:05:04.000Z</time>
        <extensions>
          <ns3:TrackPointExtension>
            <ns3:atemp>21.0</ns3:atemp>
            <ns3:hr>126</ns3:hr>
          </ns3:TrackPointExtension>
        </extensions>
      </trkpt>
      <trkpt lat="46.6702529601752758026123046875" lon="6.86031256802380084991455078125">
        <ele>665.20001220703125</ele>
        <time>2013-08-15T16:05:05.000Z</time>
        <extensions>
          <ns3:TrackPointExtension>
            <ns3:atemp>21.0</ns3:atemp>
            <ns3:hr>125</ns3:hr>
          </ns3:TrackPointExtension>
        </extensions>
      </trkpt>
      <trkpt lat="46.67023745365440845489501953125" lon="6.86019756831228733062744140625">
        <ele>664</ele>
        <time>2013-08-15T16:05:06.000Z</time>
        <extensions>
          <ns3:TrackPointExtension>
            <ns3:atemp>21.0</ns3:atemp>
            <ns3:hr>123</ns3:hr>
          </ns3:TrackPointExtension>
        </extensions>
      </trkpt>
      <trkpt lat="46.670190431177616119384765625" lon="6.860085166990756988525390625">
        <ele>663.20001220703125</ele>
        <time>2013-08-15T16:05:07.000Z</time>
        <extensions>
          <ns3:TrackPointExtension>
            <ns3:atemp>21.0</ns3:atemp>
            <ns3:hr>123</ns3:hr>
          </ns3:TrackPointExtension>
        </extensions>
      </trkpt>
      <trkpt lat="46.6701232083141803741455078125" lon="6.85998567380011081695556640625">
        <ele>663</ele>
        <time>2013-08-15T16:05:08.000Z</time>
        <extensions>
          <ns3:TrackPointExtension>
            <ns3:atemp>21.0</ns3:atemp>
            <ns3:hr>122</ns3:hr>
          </ns3:TrackPointExtension>
        </extensions>
      </trkpt>
      <trkpt lat="46.67004232294857501983642578125" lon="6.85989799909293651580810546875">
        <ele>663</ele>
        <time>2013-08-15T16:05:09.000Z</time>
        <extensions>
          <ns3:TrackPointExtension>
            <ns3:atemp>21.0</ns3:atemp>
            <ns3:hr>121</ns3:hr>
          </ns3:TrackPointExtension>
        </extensions>
      </trkpt>
      <trkpt lat="46.669958420097827911376953125" lon="6.85980412177741527557373046875">
        <ele>662.79998779296875</ele>
        <time>2013-08-15T16:05:10.000Z</time>
        <extensions>
          <ns3:TrackPointExtension>
            <ns3:atemp>21.0</ns3:atemp>
            <ns3:hr>121</ns3:hr>
          </ns3:TrackPointExtension>
        </extensions>
      </trkpt>
      <trkpt lat="46.66987694799900054931640625" lon="6.85968853533267974853515625">
        <ele>661</ele>
        <time>2013-08-15T16:05:11.000Z</time>
        <extensions>
          <ns3:TrackPointExtension>
            <ns3:atemp>21.0</ns3:atemp>
            <ns3:hr>121</ns3:hr>
          </ns3:TrackPointExtension>
        </extensions>
      </trkpt>
      <trkpt lat="46.66980695910751819610595703125" lon="6.8595555983483791351318359375">
        <ele>660.20001220703125</ele>
        <time>2013-08-15T16:05:12.000Z</time>
        <extensions>
          <ns3:TrackPointExtension>
            <ns3:atemp>21.0</ns3:atemp>
            <ns3:hr>120</ns3:hr>
          </ns3:TrackPointExtension>
        </extensions>
      </trkpt>
      <trkpt lat="46.66973923332989215850830078125" lon="6.8594174645841121673583984375">
        <ele>659.79998779296875</ele>
        <time>2013-08-15T16:05:13.000Z</time>
        <extensions>
          <ns3:TrackPointExtension>
            <ns3:atemp>21.0</ns3:atemp>
            <ns3:hr>120</ns3:hr>
          </ns3:TrackPointExtension>
        </extensions>
      </trkpt>
      <trkpt lat="46.6696736030280590057373046875" lon="6.8592679314315319061279296875">
        <ele>659.79998779296875</ele>
        <time>2013-08-15T16:05:14.000Z</time>
        <extensions>
          <ns3:TrackPointExtension>
            <ns3:atemp>21.0</ns3:atemp>
            <ns3:hr>120</ns3:hr>
          </ns3:TrackPointExtension>
        </extensions>
      </trkpt>
      <trkpt lat="46.66960344649851322174072265625" lon="6.85911588370800018310546875">
        <ele>659</ele>
        <time>2013-08-15T16:05:15.000Z</time>
        <extensions>
          <ns3:TrackPointExtension>
            <ns3:atemp>21.0</ns3:atemp>
            <ns3:hr>120</ns3:hr>
          </ns3:TrackPointExtension>
        </extensions>
      </trkpt>
      <trkpt lat="46.66952968575060367584228515625" lon="6.85896123759448528289794921875">
        <ele>657.79998779296875</ele>
        <time>2013-08-15T16:05:16.000Z</time>
        <extensions>
          <ns3:TrackPointExtension>
            <ns3:atemp>21.0</ns3:atemp>
            <ns3:hr>120</ns3:hr>
          </ns3:TrackPointExtension>
        </extensions>
      </trkpt>
      <trkpt lat="46.6694486327469348907470703125" lon="6.85881371609866619110107421875">
        <ele>656.5999755859375</ele>
        <time>2013-08-15T16:05:17.000Z</time>
        <extensions>
          <ns3:TrackPointExtension>
            <ns3:atemp>21.0</ns3:atemp>
            <ns3:hr>120</ns3:hr>
          </ns3:TrackPointExtension>
        </extensions>
      </trkpt>
      <trkpt lat="46.6693621315062046051025390625" lon="6.858659572899341583251953125">
        <ele>655.4000244140625</ele>
        <time>2013-08-15T16:05:18.000Z</time>
        <extensions>
          <ns3:TrackPointExtension>
            <ns3:atemp>21.0</ns3:atemp>
            <ns3:hr>120</ns3:hr>
          </ns3:TrackPointExtension>
        </extensions>
      </trkpt>
      <trkpt lat="46.66926884092390537261962890625" lon="6.85852604918181896209716796875">
        <ele>654.4000244140625</ele>
        <time>2013-08-15T16:05:19.000Z</time>
        <extensions>
          <ns3:TrackPointExtension>
            <ns3:atemp>21.0</ns3:atemp>
            <ns3:hr>119</ns3:hr>
          </ns3:TrackPointExtension>
        </extensions>
      </trkpt>
      <trkpt lat="46.6691683419048786163330078125" lon="6.8584015779197216033935546875">
        <ele>653.79998779296875</ele>
        <time>2013-08-15T16:05:20.000Z</time>
        <extensions>
          <ns3:TrackPointExtension>
            <ns3:atemp>21.0</ns3:atemp>
            <ns3:hr>118</ns3:hr>
          </ns3:TrackPointExtension>
        </extensions>
      </trkpt>
      <trkpt lat="46.6690649092197418212890625" lon="6.85829370282590389251708984375">
        <ele>653.79998779296875</ele>
        <time>2013-08-15T16:05:21.000Z</time>
        <extensions>
          <ns3:TrackPointExtension>
            <ns3:atemp>21.0</ns3:atemp>
            <ns3:hr>117</ns3:hr>
          </ns3:TrackPointExtension>
        </extensions>
      </trkpt>
      <trkpt lat="46.66896424256265163421630859375" lon="6.85819094069302082061767578125">
        <ele>653.5999755859375</ele>
        <time>2013-08-15T16:05:22.000Z</time>
        <extensions>
          <ns3:TrackPointExtension>
            <ns3:atemp>21.0</ns3:atemp>
            <ns3:hr>116</ns3:hr>
          </ns3:TrackPointExtension>
        </extensions>
      </trkpt>
      <trkpt lat="46.668868772685527801513671875" lon="6.8580894358456134796142578125">
        <ele>653.20001220703125</ele>
        <time>2013-08-15T16:05:23.000Z</time>
        <extensions>
          <ns3:TrackPointExtension>
            <ns3:atemp>21.0</ns3:atemp>
            <ns3:hr>115</ns3:hr>
          </ns3:TrackPointExtension>
        </extensions>
      </trkpt>
      <trkpt lat="46.66877615265548229217529296875" lon="6.85798801481723785400390625">
        <ele>652.4000244140625</ele>
        <time>2013-08-15T16:05:24.000Z</time>
        <extensions>
          <ns3:TrackPointExtension>
            <ns3:atemp>21.0</ns3:atemp>
            <ns3:hr>115</ns3:hr>
          </ns3:TrackPointExtension>
        </extensions>
      </trkpt>
      <trkpt lat="46.66869702748954296112060546875" lon="6.85786664485931396484375">
        <ele>652</ele>
        <time>2013-08-15T16:05:25.000Z</time>
        <extensions>
          <ns3:TrackPointExtension>
            <ns3:atemp>21.0</ns3:atemp>
            <ns3:hr>115</ns3:hr>
          </ns3:TrackPointExtension>
        </extensions>
      </trkpt>
      <trkpt lat="46.6686379350721836090087890625" lon="6.85773161239922046661376953125">
        <ele>651.5999755859375</ele>
        <time>2013-08-15T16:05:26.000Z</time>
        <extensions>
          <ns3:TrackPointExtension>
            <ns3:atemp>21.0</ns3:atemp>
            <ns3:hr>116</ns3:hr>
          </ns3:TrackPointExtension>
        </extensions>
      </trkpt>
      <trkpt lat="46.66859460063278675079345703125" lon="6.85758073814213275909423828125">
        <ele>651.20001220703125</ele>
        <time>2013-08-15T16:05:27.000Z</time>
        <extensions>
          <ns3:TrackPointExtension>
            <ns3:atemp>21.0</ns3:atemp>
            <ns3:hr>116</ns3:hr>
          </ns3:TrackPointExtension>
        </extensions>
      </trkpt>
      <trkpt lat="46.66856828145682811737060546875" lon="6.85742047615349292755126953125">
        <ele>651</ele>
        <time>2013-08-15T16:05:28.000Z</time>
        <extensions>
          <ns3:TrackPointExtension>
            <ns3:atemp>21.0</ns3:atemp>
            <ns3:hr>115</ns3:hr>
          </ns3:TrackPointExtension>
        </extensions>
      </trkpt>
      <trkpt lat="46.668562330305576324462890625" lon="6.85726742260158061981201171875">
        <ele>650.4000244140625</ele>
        <time>2013-08-15T16:05:29.000Z</time>
        <extensions>
          <ns3:TrackPointExtension>
            <ns3:atemp>21.0</ns3:atemp>
            <ns3:hr>114</ns3:hr>
          </ns3:TrackPointExtension>
        </extensions>
      </trkpt>
      <trkpt lat="46.668566353619098663330078125" lon="6.85712258331477642059326171875">
        <ele>650.20001220703125</ele>
        <time>2013-08-15T16:05:30.000Z</time>
        <extensions>
          <ns3:TrackPointExtension>
            <ns3:atemp>21.0</ns3:atemp>
            <ns3:hr>114</ns3:hr>
          </ns3:TrackPointExtension>
        </extensions>
      </trkpt>
      <trkpt lat="46.66854497976601123809814453125" lon="6.8569843657314777374267578125">
        <ele>650.4000244140625</ele>
        <time>2013-08-15T16:05:31.000Z</time>
        <extensions>
          <ns3:TrackPointExtension>
            <ns3:atemp>21.0</ns3:atemp>
            <ns3:hr>114</ns3:hr>
          </ns3:TrackPointExtension>
        </extensions>
      </trkpt>
      <trkpt lat="46.6685152240097522735595703125" lon="6.85686140321195125579833984375">
        <ele>650.5999755859375</ele>
        <time>2013-08-15T16:05:32.000Z</time>
        <extensions>
          <ns3:TrackPointExtension>
            <ns3:atemp>21.0</ns3:atemp>
            <ns3:hr>113</ns3:hr>
          </ns3:TrackPointExtension>
        </extensions>
      </trkpt>
      <trkpt lat="46.6684739850461483001708984375" lon="6.8567583896219730377197265625">
        <ele>650.20001220703125</ele>
        <time>2013-08-15T16:05:33.000Z</time>
        <extensions>
          <ns3:TrackPointExtension>
            <ns3:atemp>21.0</ns3:atemp>
            <ns3:hr>113</ns3:hr>
          </ns3:TrackPointExtension>
        </extensions>
      </trkpt>
      <trkpt lat="46.668433248996734619140625" lon="6.85666593722999095916748046875">
        <ele>649.79998779296875</ele>
        <time>2013-08-15T16:05:34.000Z</time>
        <extensions>
          <ns3:TrackPointExtension>
            <ns3:atemp>21.0</ns3:atemp>
            <ns3:hr>114</ns3:hr>
          </ns3:TrackPointExtension>
        </extensions>
      </trkpt>
      <trkpt lat="46.6683918423950672149658203125" lon="6.85657641850411891937255859375">
        <ele>649.79998779296875</ele>
        <time>2013-08-15T16:05:35.000Z</time>
        <extensions>
          <ns3:TrackPointExtension>
            <ns3:atemp>21.0</ns3:atemp>
            <ns3:hr>115</ns3:hr>
          </ns3:TrackPointExtension>
        </extensions>
      </trkpt>
      <trkpt lat="46.66835538111627101898193359375" lon="6.85649109072983264923095703125">
        <ele>650</ele>
        <time>2013-08-15T16:05:36.000Z</time>
        <extensions>
          <ns3:TrackPointExtension>
            <ns3:atemp>21.0</ns3:atemp>
            <ns3:hr>116</ns3:hr>
          </ns3:TrackPointExtension>
        </extensions>
      </trkpt>
      <trkpt lat="46.66831456124782562255859375" lon="6.85640777461230754852294921875">
        <ele>650.20001220703125</ele>
        <time>2013-08-15T16:05:37.000Z</time>
        <extensions>
          <ns3:TrackPointExtension>
            <ns3:atemp>21.0</ns3:atemp>
            <ns3:hr>116</ns3:hr>
          </ns3:TrackPointExtension>
        </extensions>
      </trkpt>
      <trkpt lat="46.66827323846518993377685546875" lon="6.85632596723735332489013671875">
        <ele>650.20001220703125</ele>
        <time>2013-08-15T16:05:38.000Z</time>
        <extensions>
          <ns3:TrackPointExtension>
            <ns3:atemp>21.0</ns3:atemp>
            <ns3:hr>117</ns3:hr>
          </ns3:TrackPointExtension>
        </extensions>
      </trkpt>
      <trkpt lat="46.6682302393019199371337890625" lon="6.8562480993568897247314453125">
        <ele>650.20001220703125</ele>
        <time>2013-08-15T16:05:39.000Z</time>
        <extensions>
          <ns3:TrackPointExtension>
            <ns3:atemp>21.0</ns3:atemp>
            <ns3:hr>118</ns3:hr>
          </ns3:TrackPointExtension>
        </extensions>
      </trkpt>
      <trkpt lat="46.66818673722445964813232421875" lon="6.8561746738851070404052734375">
        <ele>650.20001220703125</ele>
        <time>2013-08-15T16:05:40.000Z</time>
        <extensions>
          <ns3:TrackPointExtension>
            <ns3:atemp>21.0</ns3:atemp>
            <ns3:hr>118</ns3:hr>
          </ns3:TrackPointExtension>
        </extensions>
      </trkpt>
      <trkpt lat="46.66814080439507961273193359375" lon="6.85610334388911724090576171875">
        <ele>650.20001220703125</ele>
        <time>2013-08-15T16:05:41.000Z</time>
        <extensions>
          <ns3:TrackPointExtension>
            <ns3:atemp>21.0</ns3:atemp>
            <ns3:hr>118</ns3:hr>
          </ns3:TrackPointExtension>
        </extensions>
      </trkpt>
      <trkpt lat="46.66809252463281154632568359375" lon="6.856037713587284088134765625">
        <ele>650.20001220703125</ele>
        <time>2013-08-15T16:05:42.000Z</time>
        <extensions>
          <ns3:TrackPointExtension>
            <ns3:atemp>21.0</ns3:atemp>
            <ns3:hr>119</ns3:hr>
          </ns3:TrackPointExtension>
        </extensions>
      </trkpt>
      <trkpt lat="46.6680491901934146881103515625" lon="6.85596697032451629638671875">
        <ele>650.4000244140625</ele>
        <time>2013-08-15T16:05:43.000Z</time>
        <extensions>
          <ns3:TrackPointExtension>
            <ns3:atemp>21.0</ns3:atemp>
            <ns3:hr>119</ns3:hr>
          </ns3:TrackPointExtension>
        </extensions>
      </trkpt>
      <trkpt lat="46.66800468228757381439208984375" lon="6.85589597560465335845947265625">
        <ele>650.5999755859375</ele>
        <time>2013-08-15T16:05:44.000Z</time>
        <extensions>
          <ns3:TrackPointExtension>
            <ns3:atemp>21.0</ns3:atemp>
            <ns3:hr>120</ns3:hr>
          </ns3:TrackPointExtension>
        </extensions>
      </trkpt>
      <trkpt lat="46.66796243749558925628662109375" lon="6.8558253161609172821044921875">
        <ele>650.79998779296875</ele>
        <time>2013-08-15T16:05:45.000Z</time>
        <extensions>
          <ns3:TrackPointExtension>
            <ns3:atemp>21.0</ns3:atemp>
            <ns3:hr>120</ns3:hr>
          </ns3:TrackPointExtension>
        </extensions>
      </trkpt>
      <trkpt lat="46.6679211147129535675048828125" lon="6.85575532726943492889404296875">
        <ele>650.79998779296875</ele>
        <time>2013-08-15T16:05:46.000Z</time>
        <extensions>
          <ns3:TrackPointExtension>
            <ns3:atemp>21.0</ns3:atemp>
            <ns3:hr>121</ns3:hr>
          </ns3:TrackPointExtension>
        </extensions>
      </trkpt>
      <trkpt lat="46.66787677444517612457275390625" lon="6.8556846678256988525390625">
        <ele>651</ele>
        <time>2013-08-15T16:05:47.000Z</time>
        <extensions>
          <ns3:TrackPointExtension>
            <ns3:atemp>21.0</ns3:atemp>
            <ns3:hr>121</ns3:hr>
          </ns3:TrackPointExtension>
        </extensions>
      </trkpt>
      <trkpt lat="46.6678309254348278045654296875" lon="6.85561291873455047607421875">
        <ele>651</ele>
        <time>2013-08-15T16:05:48.000Z</time>
        <extensions>
          <ns3:TrackPointExtension>
            <ns3:atemp>21.0</ns3:atemp>
            <ns3:hr>122</ns3:hr>
          </ns3:TrackPointExtension>
        </extensions>
      </trkpt>
      <trkpt lat="46.66778574697673320770263671875" lon="6.85554184019565582275390625">
        <ele>651</ele>
        <time>2013-08-15T16:05:49.000Z</time>
        <extensions>
          <ns3:TrackPointExtension>
            <ns3:atemp>21.0</ns3:atemp>
            <ns3:hr>122</ns3:hr>
          </ns3:TrackPointExtension>
        </extensions>
      </trkpt>
      <trkpt lat="46.66773813776671886444091796875" lon="6.85547134838998317718505859375">
        <ele>651</ele>
        <time>2013-08-15T16:05:50.000Z</time>
        <extensions>
          <ns3:TrackPointExtension>
            <ns3:atemp>21.0</ns3:atemp>
            <ns3:hr>123</ns3:hr>
          </ns3:TrackPointExtension>
        </extensions>
      </trkpt>
      <trkpt lat="46.66768466122448444366455078125" lon="6.85540999285876750946044921875">
        <ele>651.20001220703125</ele>
        <time>2013-08-15T16:05:51.000Z</time>
        <extensions>
          <ns3:TrackPointExtension>
            <ns3:atemp>21.0</ns3:atemp>
            <ns3:hr>123</ns3:hr>
          </ns3:TrackPointExtension>
        </extensions>
      </trkpt>
      <trkpt lat="46.66762833483517169952392578125" lon="6.8553562648594379425048828125">
        <ele>651.4000244140625</ele>
        <time>2013-08-15T16:05:52.000Z</time>
        <extensions>
          <ns3:TrackPointExtension>
            <ns3:atemp>21.0</ns3:atemp>
            <ns3:hr>124</ns3:hr>
          </ns3:TrackPointExtension>
        </extensions>
      </trkpt>
      <trkpt lat="46.6675704158842563629150390625" lon="6.85531024821102619171142578125">
        <ele>651.4000244140625</ele>
        <time>2013-08-15T16:05:53.000Z</time>
        <extensions>
          <ns3:TrackPointExtension>
            <ns3:atemp>21.0</ns3:atemp>
            <ns3:hr>124</ns3:hr>
          </ns3:TrackPointExtension>
        </extensions>
      </trkpt>
      <trkpt lat="46.66750998236238956451416015625" lon="6.8552724458277225494384765625">
        <ele>651.5999755859375</ele>
        <time>2013-08-15T16:05:54.000Z</time>
        <extensions>
          <ns3:TrackPointExtension>
            <ns3:atemp>21.0</ns3:atemp>
            <ns3:hr>124</ns3:hr>
          </ns3:TrackPointExtension>
        </extensions>
      </trkpt>
      <trkpt lat="46.66745013557374477386474609375" lon="6.85523430816829204559326171875">
        <ele>651.5999755859375</ele>
        <time>2013-08-15T16:05:55.000Z</time>
        <extensions>
          <ns3:TrackPointExtension>
            <ns3:atemp>21.0</ns3:atemp>
            <ns3:hr>124</ns3:hr>
          </ns3:TrackPointExtension>
        </extensions>
      </trkpt>
      <trkpt lat="46.667392216622829437255859375" lon="6.8551913090050220489501953125">
        <ele>651.79998779296875</ele>
        <time>2013-08-15T16:05:56.000Z</time>
        <extensions>
          <ns3:TrackPointExtension>
            <ns3:atemp>21.0</ns3:atemp>
            <ns3:hr>125</ns3:hr>
          </ns3:TrackPointExtension>
        </extensions>
      </trkpt>
      <trkpt lat="46.667333208024501800537109375" lon="6.85514931567013263702392578125">
        <ele>652</ele>
        <time>2013-08-15T16:05:57.000Z</time>
        <extensions>
          <ns3:TrackPointExtension>
            <ns3:atemp>21.0</ns3:atemp>
            <ns3:hr>125</ns3:hr>
          </ns3:TrackPointExtension>
        </extensions>
      </trkpt>
      <trkpt lat="46.6672777198255062103271484375" lon="6.8551024608314037322998046875">
        <ele>652</ele>
        <time>2013-08-15T16:05:58.000Z</time>
        <extensions>
          <ns3:TrackPointExtension>
            <ns3:atemp>21.0</ns3:atemp>
            <ns3:hr>125</ns3:hr>
          </ns3:TrackPointExtension>
        </extensions>
      </trkpt>
      <trkpt lat="46.6672249138355255126953125" lon="6.8550602160394191741943359375">
        <ele>652.20001220703125</ele>
        <time>2013-08-15T16:05:59.000Z</time>
        <extensions>
          <ns3:TrackPointExtension>
            <ns3:atemp>21.0</ns3:atemp>
            <ns3:hr>125</ns3:hr>
          </ns3:TrackPointExtension>
        </extensions>
      </trkpt>
      <trkpt lat="46.66717386804521083831787109375" lon="6.855020821094512939453125">
        <ele>652.20001220703125</ele>
        <time>2013-08-15T16:06:00.000Z</time>
        <extensions>
          <ns3:TrackPointExtension>
            <ns3:atemp>21.0</ns3:atemp>
            <ns3:hr>125</ns3:hr>
          </ns3:TrackPointExtension>
        </extensions>
      </trkpt>
      <trkpt lat="46.667132712900638580322265625" lon="6.85496726073324680328369140625">
        <ele>652.4000244140625</ele>
        <time>2013-08-15T16:06:01.000Z</time>
        <extensions>
          <ns3:TrackPointExtension>
            <ns3:atemp>21.0</ns3:atemp>
            <ns3:hr>125</ns3:hr>
          </ns3:TrackPointExtension>
        </extensions>
      </trkpt>
      <trkpt lat="46.66710396297276020050048828125" lon="6.8549029715359210968017578125">
        <ele>652.5999755859375</ele>
        <time>2013-08-15T16:06:02.000Z</time>
        <extensions>
          <ns3:TrackPointExtension>
            <ns3:atemp>21.0</ns3:atemp>
            <ns3:hr>125</ns3:hr>
          </ns3:TrackPointExtension>
        </extensions>
      </trkpt>
      <trkpt lat="46.66708610951900482177734375" lon="6.85483046807348728179931640625">
        <ele>652.5999755859375</ele>
        <time>2013-08-15T16:06:03.000Z</time>
        <extensions>
          <ns3:TrackPointExtension>
            <ns3:atemp>21.0</ns3:atemp>
            <ns3:hr>125</ns3:hr>
          </ns3:TrackPointExtension>
        </extensions>
      </trkpt>
      <trkpt lat="46.667070351541042327880859375" lon="6.854750253260135650634765625">
        <ele>652.4000244140625</ele>
        <time>2013-08-15T16:06:04.000Z</time>
        <extensions>
          <ns3:TrackPointExtension>
            <ns3:atemp>21.0</ns3:atemp>
            <ns3:hr>125</ns3:hr>
          </ns3:TrackPointExtension>
        </extensions>
      </trkpt>
      <trkpt lat="46.6670554317533969879150390625" lon="6.8546676076948642730712890625">
        <ele>652.20001220703125</ele>
        <time>2013-08-15T16:06:05.000Z</time>
        <extensions>
          <ns3:TrackPointExtension>
            <ns3:atemp>21.0</ns3:atemp>
            <ns3:hr>125</ns3:hr>
          </ns3:TrackPointExtension>
        </extensions>
      </trkpt>
      <trkpt lat="46.66703254915773868560791015625" lon="6.85458605177700519561767578125">
        <ele>651.79998779296875</ele>
        <time>2013-08-15T16:06:06.000Z</time>
        <extensions>
          <ns3:TrackPointExtension>
            <ns3:atemp>21.0</ns3:atemp>
            <ns3:hr>124</ns3:hr>
          </ns3:TrackPointExtension>
        </extensions>
      </trkpt>
      <trkpt lat="46.6669934056699275970458984375" lon="6.85450525023043155670166015625">
        <ele>651.4000244140625</ele>
        <time>2013-08-15T16:06:07.000Z</time>
        <extensions>
          <ns3:TrackPointExtension>
            <ns3:atemp>21.0</ns3:atemp>
            <ns3:hr>124</ns3:hr>
          </ns3:TrackPointExtension>
        </extensions>
      </trkpt>
      <trkpt lat="46.6669548489153385162353515625" lon="6.854417324066162109375">
        <ele>650.79998779296875</ele>
        <time>2013-08-15T16:06:08.000Z</time>
        <extensions>
          <ns3:TrackPointExtension>
            <ns3:atemp>21.0</ns3:atemp>
            <ns3:hr>124</ns3:hr>
          </ns3:TrackPointExtension>
        </extensions>
      </trkpt>
      <trkpt lat="46.6668950021266937255859375" lon="6.85433073900640010833740234375">
        <ele>650.4000244140625</ele>
        <time>2013-08-15T16:06:09.000Z</time>
        <extensions>
          <ns3:TrackPointExtension>
            <ns3:atemp>21.0</ns3:atemp>
            <ns3:hr>124</ns3:hr>
          </ns3:TrackPointExtension>
        </extensions>
      </trkpt>
      <trkpt lat="46.66683406569063663482666015625" lon="6.854243315756320953369140625">
        <ele>650.20001220703125</ele>
        <time>2013-08-15T16:06:10.000Z</time>
        <extensions>
          <ns3:TrackPointExtension>
            <ns3:atemp>21.0</ns3:atemp>
            <ns3:hr>124</ns3:hr>
          </ns3:TrackPointExtension>
        </extensions>
      </trkpt>
      <trkpt lat="46.6667664237320423126220703125" lon="6.85415304265916347503662109375">
        <ele>649</ele>
        <time>2013-08-15T16:06:11.000Z</time>
        <extensions>
          <ns3:TrackPointExtension>
            <ns3:atemp>21.0</ns3:atemp>
            <ns3:hr>124</ns3:hr>
          </ns3:TrackPointExtension>
        </extensions>
      </trkpt>
      <trkpt lat="46.66670112870633602142333984375" lon="6.854058913886547088623046875">
        <ele>647.79998779296875</ele>
        <time>2013-08-15T16:06:12.000Z</time>
        <extensions>
          <ns3:TrackPointExtension>
            <ns3:atemp>21.0</ns3:atemp>
            <ns3:hr>124</ns3:hr>
          </ns3:TrackPointExtension>
        </extensions>
      </trkpt>
      <trkpt lat="46.66664010845124721527099609375" lon="6.85396444983780384063720703125">
        <ele>646</ele>
        <time>2013-08-15T16:06:13.000Z</time>
        <extensions>
          <ns3:TrackPointExtension>
            <ns3:atemp>21.0</ns3:atemp>
            <ns3:hr>123</ns3:hr>
          </ns3:TrackPointExtension>
        </extensions>
      </trkpt>
      <trkpt lat="46.666594259440898895263671875" lon="6.85385883785784244537353515625">
        <ele>644.20001220703125</ele>
        <time>2013-08-15T16:06:14.000Z</time>
        <extensions>
          <ns3:TrackPointExtension>
            <ns3:atemp>21.0</ns3:atemp>
            <ns3:hr>123</ns3:hr>
          </ns3:TrackPointExtension>
        </extensions>
      </trkpt>
      <trkpt lat="46.6665779985487461090087890625" lon="6.85374568216502666473388671875">
        <ele>642.4000244140625</ele>
        <time>2013-08-15T16:06:15.000Z</time>
        <extensions>
          <ns3:TrackPointExtension>
            <ns3:atemp>21.0</ns3:atemp>
            <ns3:hr>123</ns3:hr>
          </ns3:TrackPointExtension>
        </extensions>
      </trkpt>
      <trkpt lat="46.66658445261418819427490234375" lon="6.853657923638820648193359375">
        <ele>641.20001220703125</ele>
        <time>2013-08-15T16:06:16.000Z</time>
        <extensions>
          <ns3:TrackPointExtension>
            <ns3:atemp>21.0</ns3:atemp>
            <ns3:hr>122</ns3:hr>
          </ns3:TrackPointExtension>
        </extensions>
      </trkpt>
      <trkpt lat="46.666593588888645172119140625" lon="6.85359614901244640350341796875">
        <ele>640.4000244140625</ele>
        <time>2013-08-15T16:06:17.000Z</time>
        <extensions>
          <ns3:TrackPointExtension>
            <ns3:atemp>21.0</ns3:atemp>
            <ns3:hr>122</ns3:hr>
          </ns3:TrackPointExtension>
        </extensions>
      </trkpt>
      <trkpt lat="46.66661261580884456634521484375" lon="6.85356438159942626953125">
        <ele>640</ele>
        <time>2013-08-15T16:06:18.000Z</time>
        <extensions>
          <ns3:TrackPointExtension>
            <ns3:atemp>21.0</ns3:atemp>
            <ns3:hr>121</ns3:hr>
          </ns3:TrackPointExtension>
        </extensions>
      </trkpt>
      <trkpt lat="46.66664815507829189300537109375" lon="6.85355558060109615325927734375">
        <ele>639.79998779296875</ele>
        <time>2013-08-15T16:06:19.000Z</time>
        <extensions>
          <ns3:TrackPointExtension>
            <ns3:atemp>21.0</ns3:atemp>
            <ns3:hr>120</ns3:hr>
          </ns3:TrackPointExtension>
        </extensions>
      </trkpt>
      <trkpt lat="46.66668972931802272796630859375" lon="6.85354686342179775238037109375">
        <ele>639.79998779296875</ele>
        <time>2013-08-15T16:06:20.000Z</time>
        <extensions>
          <ns3:TrackPointExtension>
            <ns3:atemp>21.0</ns3:atemp>
            <ns3:hr>120</ns3:hr>
          </ns3:TrackPointExtension>
        </extensions>
      </trkpt>
      <trkpt lat="46.66675326414406299591064453125" lon="6.85355306603014469146728515625">
        <ele>639.79998779296875</ele>
        <time>2013-08-15T16:06:21.000Z</time>
        <extensions>
          <ns3:TrackPointExtension>
            <ns3:atemp>21.0</ns3:atemp>
            <ns3:hr>120</ns3:hr>
          </ns3:TrackPointExtension>
        </extensions>
      </trkpt>
      <trkpt lat="46.66681897826492786407470703125" lon="6.853555329144001007080078125">
        <ele>640</ele>
        <time>2013-08-15T16:06:22.000Z</time>
        <extensions>
          <ns3:TrackPointExtension>
            <ns3:atemp>21.0</ns3:atemp>
            <ns3:hr>120</ns3:hr>
          </ns3:TrackPointExtension>
        </extensions>
      </trkpt>
      <trkpt lat="46.6668884642422199249267578125" lon="6.85355256311595439910888671875">
        <ele>640.20001220703125</ele>
        <time>2013-08-15T16:06:23.000Z</time>
        <extensions>
          <ns3:TrackPointExtension>
            <ns3:atemp>21.0</ns3:atemp>
            <ns3:hr>121</ns3:hr>
          </ns3:TrackPointExtension>
        </extensions>
      </trkpt>
      <trkpt lat="46.66695694439113140106201171875" lon="6.85355088673532009124755859375">
        <ele>640.4000244140625</ele>
        <time>2013-08-15T16:06:24.000Z</time>
        <extensions>
          <ns3:TrackPointExtension>
            <ns3:atemp>21.0</ns3:atemp>
            <ns3:hr>121</ns3:hr>
          </ns3:TrackPointExtension>
        </extensions>
      </trkpt>
      <trkpt lat="46.66702517308294773101806640625" lon="6.85355440713465213775634765625">
        <ele>640.4000244140625</ele>
        <time>2013-08-15T16:06:25.000Z</time>
        <extensions>
          <ns3:TrackPointExtension>
            <ns3:atemp>21.0</ns3:atemp>
            <ns3:hr>122</ns3:hr>
          </ns3:TrackPointExtension>
        </extensions>
      </trkpt>
      <trkpt lat="46.66708610951900482177734375" lon="6.853562705218791961669921875">
        <ele>640.5999755859375</ele>
        <time>2013-08-15T16:06:26.000Z</time>
        <extensions>
          <ns3:TrackPointExtension>
            <ns3:atemp>21.0</ns3:atemp>
            <ns3:hr>122</ns3:hr>
          </ns3:TrackPointExtension>
        </extensions>
      </trkpt>
      <trkpt lat="46.667153500020503997802734375" lon="6.8535960651934146881103515625">
        <ele>640.79998779296875</ele>
        <time>2013-08-15T16:06:27.000Z</time>
        <extensions>
          <ns3:TrackPointExtension>
            <ns3:atemp>21.0</ns3:atemp>
            <ns3:hr>122</ns3:hr>
          </ns3:TrackPointExtension>
        </extensions>
      </trkpt>
      <trkpt lat="46.66722290217876434326171875" lon="6.8536275811493396759033203125">
        <ele>641</ele>
        <time>2013-08-15T16:06:28.000Z</time>
        <extensions>
          <ns3:TrackPointExtension>
            <ns3:atemp>21.0</ns3:atemp>
            <ns3:hr>122</ns3:hr>
          </ns3:TrackPointExtension>
        </extensions>
      </trkpt>
      <trkpt lat="46.66728551499545574188232421875" lon="6.85365892946720123291015625">
        <ele>641.4000244140625</ele>
        <time>2013-08-15T16:06:29.000Z</time>
        <extensions>
          <ns3:TrackPointExtension>
            <ns3:atemp>21.0</ns3:atemp>
            <ns3:hr>123</ns3:hr>
          </ns3:TrackPointExtension>
        </extensions>
      </trkpt>
      <trkpt lat="46.66734083555638790130615234375" lon="6.85367762111127376556396484375">
        <ele>641.79998779296875</ele>
        <time>2013-08-15T16:06:30.000Z</time>
        <extensions>
          <ns3:TrackPointExtension>
            <ns3:atemp>21.0</ns3:atemp>
            <ns3:hr>123</ns3:hr>
          </ns3:TrackPointExtension>
        </extensions>
      </trkpt>
      <trkpt lat="46.6673880256712436676025390625" lon="6.853693462908267974853515625">
        <ele>642.20001220703125</ele>
        <time>2013-08-15T16:06:31.000Z</time>
        <extensions>
          <ns3:TrackPointExtension>
            <ns3:atemp>21.0</ns3:atemp>
            <ns3:hr>122</ns3:hr>
          </ns3:TrackPointExtension>
        </extensions>
      </trkpt>
      <trkpt lat="46.6674314439296722412109375" lon="6.85370586812496185302734375">
        <ele>642.4000244140625</ele>
        <time>2013-08-15T16:06:32.000Z</time>
        <extensions>
          <ns3:TrackPointExtension>
            <ns3:atemp>21.0</ns3:atemp>
            <ns3:hr>123</ns3:hr>
          </ns3:TrackPointExtension>
        </extensions>
      </trkpt>
      <trkpt lat="46.6674718447029590606689453125" lon="6.85371232219040393829345703125">
        <ele>642.5999755859375</ele>
        <time>2013-08-15T16:06:33.000Z</time>
        <extensions>
          <ns3:TrackPointExtension>
            <ns3:atemp>21.0</ns3:atemp>
            <ns3:hr>123</ns3:hr>
          </ns3:TrackPointExtension>
        </extensions>
      </trkpt>
      <trkpt lat="46.667512245476245880126953125" lon="6.85372204519808292388916015625">
        <ele>642.5999755859375</ele>
        <time>2013-08-15T16:06:34.000Z</time>
        <extensions>
          <ns3:TrackPointExtension>
            <ns3:atemp>21.0</ns3:atemp>
            <ns3:hr>123</ns3:hr>
          </ns3:TrackPointExtension>
        </extensions>
      </trkpt>
      <trkpt lat="46.667550466954708099365234375" lon="6.8537308461964130401611328125">
        <ele>642.79998779296875</ele>
        <time>2013-08-15T16:06:35.000Z</time>
        <extensions>
          <ns3:TrackPointExtension>
            <ns3:atemp>21.0</ns3:atemp>
            <ns3:hr>124</ns3:hr>
          </ns3:TrackPointExtension>
        </extensions>
      </trkpt>
      <trkpt lat="46.6675848327577114105224609375" lon="6.8537372164428234100341796875">
        <ele>643</ele>
        <time>2013-08-15T16:06:36.000Z</time>
        <extensions>
          <ns3:TrackPointExtension>
            <ns3:atemp>21.0</ns3:atemp>
            <ns3:hr>124</ns3:hr>
          </ns3:TrackPointExtension>
        </extensions>
      </trkpt>
      <trkpt lat="46.6676191985607147216796875" lon="6.85374450869858264923095703125">
        <ele>643.20001220703125</ele>
        <time>2013-08-15T16:06:37.000Z</time>
        <extensions>
          <ns3:TrackPointExtension>
            <ns3:atemp>21.0</ns3:atemp>
            <ns3:hr>125</ns3:hr>
          </ns3:TrackPointExtension>
        </extensions>
      </trkpt>
      <trkpt lat="46.66765633039176464080810546875" lon="6.853755153715610504150390625">
        <ele>643.5999755859375</ele>
        <time>2013-08-15T16:06:38.000Z</time>
        <extensions>
          <ns3:TrackPointExtension>
            <ns3:atemp>21.0</ns3:atemp>
            <ns3:hr>125</ns3:hr>
          </ns3:TrackPointExtension>
        </extensions>
      </trkpt>
      <trkpt lat="46.66769036091864109039306640625" lon="6.853759177029132843017578125">
        <ele>643.79998779296875</ele>
        <time>2013-08-15T16:06:39.000Z</time>
        <extensions>
          <ns3:TrackPointExtension>
            <ns3:atemp>21.0</ns3:atemp>
            <ns3:hr>125</ns3:hr>
          </ns3:TrackPointExtension>
        </extensions>
      </trkpt>
      <trkpt lat="46.6677253134548664093017578125" lon="6.85375976376235485076904296875">
        <ele>644</ele>
        <time>2013-08-15T16:06:40.000Z</time>
        <extensions>
          <ns3:TrackPointExtension>
            <ns3:atemp>21.0</ns3:atemp>
            <ns3:hr>126</ns3:hr>
          </ns3:TrackPointExtension>
        </extensions>
      </trkpt>
      <trkpt lat="46.6677595116198062896728515625" lon="6.8537546508014202117919921875">
        <ele>644.4000244140625</ele>
        <time>2013-08-15T16:06:41.000Z</time>
        <extensions>
          <ns3:TrackPointExtension>
            <ns3:atemp>21.0</ns3:atemp>
            <ns3:hr>126</ns3:hr>
          </ns3:TrackPointExtension>
        </extensions>
      </trkpt>
      <trkpt lat="46.66779245249927043914794921875" lon="6.8537593446671962738037109375">
        <ele>644.5999755859375</ele>
        <time>2013-08-15T16:06:42.000Z</time>
        <extensions>
          <ns3:TrackPointExtension>
            <ns3:atemp>21.0</ns3:atemp>
            <ns3:hr>126</ns3:hr>
          </ns3:TrackPointExtension>
        </extensions>
      </trkpt>
      <trkpt lat="46.66782564483582973480224609375" lon="6.85376160778105258941650390625">
        <ele>645</ele>
        <time>2013-08-15T16:06:43.000Z</time>
        <extensions>
          <ns3:TrackPointExtension>
            <ns3:atemp>21.0</ns3:atemp>
            <ns3:hr>127</ns3:hr>
          </ns3:TrackPointExtension>
        </extensions>
      </trkpt>
      <trkpt lat="46.66785833425819873809814453125" lon="6.85376278124749660491943359375">
        <ele>645.4000244140625</ele>
        <time>2013-08-15T16:06:44.000Z</time>
        <extensions>
          <ns3:TrackPointExtension>
            <ns3:atemp>21.0</ns3:atemp>
            <ns3:hr>127</ns3:hr>
          </ns3:TrackPointExtension>
        </extensions>
      </trkpt>
      <trkpt lat="46.6678855754435062408447265625" lon="6.85376026667654514312744140625">
        <ele>645.5999755859375</ele>
        <time>2013-08-15T16:06:45.000Z</time>
        <extensions>
          <ns3:TrackPointExtension>
            <ns3:atemp>21.0</ns3:atemp>
            <ns3:hr>128</ns3:hr>
          </ns3:TrackPointExtension>
        </extensions>
      </trkpt>
      <trkpt lat="46.66791348718106746673583984375" lon="6.8537640385329723358154296875">
        <ele>646</ele>
        <time>2013-08-15T16:06:46.000Z</time>
        <extensions>
          <ns3:TrackPointExtension>
            <ns3:atemp>21.0</ns3:atemp>
            <ns3:hr>128</ns3:hr>
          </ns3:TrackPointExtension>
        </extensions>
      </trkpt>
      <trkpt lat="46.66794030927121639251708984375" lon="6.853767894208431243896484375">
        <ele>646.4000244140625</ele>
        <time>2013-08-15T16:06:47.000Z</time>
        <extensions>
          <ns3:TrackPointExtension>
            <ns3:atemp>21.0</ns3:atemp>
            <ns3:hr>129</ns3:hr>
          </ns3:TrackPointExtension>
        </extensions>
      </trkpt>
      <trkpt lat="46.66796989738941192626953125" lon="6.8537722527980804443359375">
        <ele>646.5999755859375</ele>
        <time>2013-08-15T16:06:48.000Z</time>
        <extensions>
          <ns3:TrackPointExtension>
            <ns3:atemp>21.0</ns3:atemp>
            <ns3:hr>130</ns3:hr>
          </ns3:TrackPointExtension>
        </extensions>
      </trkpt>
      <trkpt lat="46.66799847967922687530517578125" lon="6.85376697219908237457275390625">
        <ele>647.20001220703125</ele>
        <time>2013-08-15T16:06:49.000Z</time>
        <extensions>
          <ns3:TrackPointExtension>
            <ns3:atemp>21.0</ns3:atemp>
            <ns3:hr>130</ns3:hr>
          </ns3:TrackPointExtension>
        </extensions>
      </trkpt>
      <trkpt lat="46.66802647523581981658935546875" lon="6.85375414788722991943359375">
        <ele>647.4000244140625</ele>
        <time>2013-08-15T16:06:50.000Z</time>
        <extensions>
          <ns3:TrackPointExtension>
            <ns3:atemp>21.0</ns3:atemp>
            <ns3:hr>131</ns3:hr>
          </ns3:TrackPointExtension>
        </extensions>
      </trkpt>
      <trkpt lat="46.6680528782308101654052734375" lon="6.853747107088565826416015625">
        <ele>647.79998779296875</ele>
        <time>2013-08-15T16:06:51.000Z</time>
        <extensions>
          <ns3:TrackPointExtension>
            <ns3:atemp>21.0</ns3:atemp>
            <ns3:hr>132</ns3:hr>
          </ns3:TrackPointExtension>
        </extensions>
      </trkpt>
      <trkpt lat="46.66807995177805423736572265625" lon="6.85374702326953411102294921875">
        <ele>648.20001220703125</ele>
        <time>2013-08-15T16:06:52.000Z</time>
        <extensions>
          <ns3:TrackPointExtension>
            <ns3:atemp>21.0</ns3:atemp>
            <ns3:hr>132</ns3:hr>
          </ns3:TrackPointExtension>
        </extensions>
      </trkpt>
      <trkpt lat="46.66810677386820316314697265625" lon="6.85374685563147068023681640625">
        <ele>648.5999755859375</ele>
        <time>2013-08-15T16:06:53.000Z</time>
        <extensions>
          <ns3:TrackPointExtension>
            <ns3:atemp>21.0</ns3:atemp>
            <ns3:hr>133</ns3:hr>
          </ns3:TrackPointExtension>
        </extensions>
      </trkpt>
      <trkpt lat="46.66813275776803493499755859375" lon="6.85374878346920013427734375">
        <ele>649</ele>
        <time>2013-08-15T16:06:54.000Z</time>
        <extensions>
          <ns3:TrackPointExtension>
            <ns3:atemp>21.0</ns3:atemp>
            <ns3:hr>135</ns3:hr>
          </ns3:TrackPointExtension>
        </extensions>
      </trkpt>
      <trkpt lat="46.66815698146820068359375" lon="6.85375138185918331146240234375">
        <ele>649.4000244140625</ele>
        <time>2013-08-15T16:06:55.000Z</time>
        <extensions>
          <ns3:TrackPointExtension>
            <ns3:atemp>21.0</ns3:atemp>
            <ns3:hr>136</ns3:hr>
          </ns3:TrackPointExtension>
        </extensions>
      </trkpt>
      <trkpt lat="46.6681809537112712860107421875" lon="6.85375305823981761932373046875">
        <ele>649.79998779296875</ele>
        <time>2013-08-15T16:06:56.000Z</time>
        <extensions>
          <ns3:TrackPointExtension>
            <ns3:atemp>21.0</ns3:atemp>
            <ns3:hr>137</ns3:hr>
          </ns3:TrackPointExtension>
        </extensions>
      </trkpt>
      <trkpt lat="46.66820819489657878875732421875" lon="6.85375138185918331146240234375">
        <ele>650.20001220703125</ele>
        <time>2013-08-15T16:06:57.000Z</time>
        <extensions>
          <ns3:TrackPointExtension>
            <ns3:atemp>21.0</ns3:atemp>
            <ns3:hr>138</ns3:hr>
          </ns3:TrackPointExtension>
        </extensions>
      </trkpt>
      <trkpt lat="46.66823677718639373779296875" lon="6.85374886728823184967041015625">
        <ele>650.5999755859375</ele>
        <time>2013-08-15T16:06:58.000Z</time>
        <extensions>
          <ns3:TrackPointExtension>
            <ns3:atemp>21.0</ns3:atemp>
            <ns3:hr>139</ns3:hr>
          </ns3:TrackPointExtension>
        </extensions>
      </trkpt>
      <trkpt lat="46.66826452128589153289794921875" lon="6.8537415750324726104736328125">
        <ele>651</ele>
        <time>2013-08-15T16:06:59.000Z</time>
        <extensions>
          <ns3:TrackPointExtension>
            <ns3:atemp>21.0</ns3:atemp>
            <ns3:hr>140</ns3:hr>
          </ns3:TrackPointExtension>
        </extensions>
      </trkpt>
      <trkpt lat="46.6682939417660236358642578125" lon="6.85373662970960140228271484375">
        <ele>651.5999755859375</ele>
        <time>2013-08-15T16:07:00.000Z</time>
        <extensions>
          <ns3:TrackPointExtension>
            <ns3:atemp>21.0</ns3:atemp>
            <ns3:hr>142</ns3:hr>
          </ns3:TrackPointExtension>
        </extensions>
      </trkpt>
      <trkpt lat="46.66831632144749164581298828125" lon="6.85372858308255672454833984375">
        <ele>651.79998779296875</ele>
        <time>2013-08-15T16:07:01.000Z</time>
        <extensions>
          <ns3:TrackPointExtension>
            <ns3:atemp>21.0</ns3:atemp>
            <ns3:hr>142</ns3:hr>
          </ns3:TrackPointExtension>
        </extensions>
      </trkpt>
      <trkpt lat="46.66833962313830852508544921875" lon="6.85372221283614635467529296875">
        <ele>652</ele>
        <time>2013-08-15T16:07:02.000Z</time>
        <extensions>
          <ns3:TrackPointExtension>
            <ns3:atemp>21.0</ns3:atemp>
            <ns3:hr>143</ns3:hr>
          </ns3:TrackPointExtension>
        </extensions>
      </trkpt>
      <trkpt lat="46.66836141608655452728271484375" lon="6.85371131636202335357666015625">
        <ele>652.20001220703125</ele>
        <time>2013-08-15T16:07:03.000Z</time>
        <extensions>
          <ns3:TrackPointExtension>
            <ns3:atemp>21.0</ns3:atemp>
            <ns3:hr>144</ns3:hr>
          </ns3:TrackPointExtension>
        </extensions>
      </trkpt>
      <trkpt lat="46.66838421486318111419677734375" lon="6.8537063710391521453857421875">
        <ele>652.5999755859375</ele>
        <time>2013-08-15T16:07:04.000Z</time>
        <extensions>
          <ns3:TrackPointExtension>
            <ns3:atemp>21.0</ns3:atemp>
            <ns3:hr>144</ns3:hr>
          </ns3:TrackPointExtension>
        </extensions>
      </trkpt>
      <trkpt lat="46.66840516962110996246337890625" lon="6.85369539074599742889404296875">
        <ele>653</ele>
        <time>2013-08-15T16:07:05.000Z</time>
        <extensions>
          <ns3:TrackPointExtension>
            <ns3:atemp>21.0</ns3:atemp>
            <ns3:hr>145</ns3:hr>
          </ns3:TrackPointExtension>
        </extensions>
      </trkpt>
      <trkpt lat="46.6684230230748653411865234375" lon="6.85368868522346019744873046875">
        <ele>653.4000244140625</ele>
        <time>2013-08-15T16:07:06.000Z</time>
        <extensions>
          <ns3:TrackPointExtension>
            <ns3:atemp>21.0</ns3:atemp>
            <ns3:hr>145</ns3:hr>
          </ns3:TrackPointExtension>
        </extensions>
      </trkpt>
      <trkpt lat="46.66844330728054046630859375" lon="6.853674352169036865234375">
        <ele>653.5999755859375</ele>
        <time>2013-08-15T16:07:07.000Z</time>
        <extensions>
          <ns3:TrackPointExtension>
            <ns3:atemp>21.0</ns3:atemp>
            <ns3:hr>145</ns3:hr>
          </ns3:TrackPointExtension>
        </extensions>
      </trkpt>
      <trkpt lat="46.66846116073429584503173828125" lon="6.8536584265530109405517578125">
        <ele>654</ele>
        <time>2013-08-15T16:07:08.000Z</time>
        <extensions>
          <ns3:TrackPointExtension>
            <ns3:atemp>21.0</ns3:atemp>
            <ns3:hr>145</ns3:hr>
          </ns3:TrackPointExtension>
        </extensions>
      </trkpt>
      <trkpt lat="46.6684801876544952392578125" lon="6.85364107601344585418701171875">
        <ele>654.4000244140625</ele>
        <time>2013-08-15T16:07:09.000Z</time>
        <extensions>
          <ns3:TrackPointExtension>
            <ns3:atemp>21.0</ns3:atemp>
            <ns3:hr>146</ns3:hr>
          </ns3:TrackPointExtension>
        </extensions>
      </trkpt>
      <trkpt lat="46.668498627841472625732421875" lon="6.85362406075000762939453125">
        <ele>654.79998779296875</ele>
        <time>2013-08-15T16:07:10.000Z</time>
        <extensions>
          <ns3:TrackPointExtension>
            <ns3:atemp>21.0</ns3:atemp>
            <ns3:hr>146</ns3:hr>
          </ns3:TrackPointExtension>
        </extensions>
      </trkpt>
      <trkpt lat="46.668518073856830596923828125" lon="6.8536074645817279815673828125">
        <ele>655.4000244140625</ele>
        <time>2013-08-15T16:07:11.000Z</time>
        <extensions>
          <ns3:TrackPointExtension>
            <ns3:atemp>21.0</ns3:atemp>
            <ns3:hr>146</ns3:hr>
          </ns3:TrackPointExtension>
        </extensions>
      </trkpt>
      <trkpt lat="46.66853760369122028350830078125" lon="6.85358994640409946441650390625">
        <ele>655.79998779296875</ele>
        <time>2013-08-15T16:07:12.000Z</time>
        <extensions>
          <ns3:TrackPointExtension>
            <ns3:atemp>21.0</ns3:atemp>
            <ns3:hr>146</ns3:hr>
          </ns3:TrackPointExtension>
        </extensions>
      </trkpt>
      <trkpt lat="46.6685557924211025238037109375" lon="6.853569410741329193115234375">
        <ele>656</ele>
        <time>2013-08-15T16:07:13.000Z</time>
        <extensions>
          <ns3:TrackPointExtension>
            <ns3:atemp>21.0</ns3:atemp>
            <ns3:hr>146</ns3:hr>
          </ns3:TrackPointExtension>
        </extensions>
      </trkpt>
      <trkpt lat="46.668571047484874725341796875" lon="6.853547282516956329345703125">
        <ele>656.4000244140625</ele>
        <time>2013-08-15T16:07:14.000Z</time>
        <extensions>
          <ns3:TrackPointExtension>
            <ns3:atemp>21.0</ns3:atemp>
            <ns3:hr>146</ns3:hr>
          </ns3:TrackPointExtension>
        </extensions>
      </trkpt>
      <trkpt lat="46.6685863025486469268798828125" lon="6.85353345237672328948974609375">
        <ele>656.79998779296875</ele>
        <time>2013-08-15T16:07:15.000Z</time>
        <extensions>
          <ns3:TrackPointExtension>
            <ns3:atemp>21.0</ns3:atemp>
            <ns3:hr>146</ns3:hr>
          </ns3:TrackPointExtension>
        </extensions>
      </trkpt>
      <trkpt lat="46.66860214434564113616943359375" lon="6.853517107665538787841796875">
        <ele>657.20001220703125</ele>
        <time>2013-08-15T16:07:16.000Z</time>
        <extensions>
          <ns3:TrackPointExtension>
            <ns3:atemp>21.0</ns3:atemp>
            <ns3:hr>146</ns3:hr>
          </ns3:TrackPointExtension>
        </extensions>
      </trkpt>
      <trkpt lat="46.66861907579004764556884765625" lon="6.8535031937062740325927734375">
        <ele>657.4000244140625</ele>
        <time>2013-08-15T16:07:17.000Z</time>
        <extensions>
          <ns3:TrackPointExtension>
            <ns3:atemp>21.0</ns3:atemp>
            <ns3:hr>146</ns3:hr>
          </ns3:TrackPointExtension>
        </extensions>
      </trkpt>
      <trkpt lat="46.66863567195832729339599609375" lon="6.8534864298999309539794921875">
        <ele>657.79998779296875</ele>
        <time>2013-08-15T16:07:18.000Z</time>
        <extensions>
          <ns3:TrackPointExtension>
            <ns3:atemp>21.0</ns3:atemp>
            <ns3:hr>146</ns3:hr>
          </ns3:TrackPointExtension>
        </extensions>
      </trkpt>
      <trkpt lat="46.6686530224978923797607421875" lon="6.85346438549458980560302734375">
        <ele>658</ele>
        <time>2013-08-15T16:07:19.000Z</time>
        <extensions>
          <ns3:TrackPointExtension>
            <ns3:atemp>21.0</ns3:atemp>
            <ns3:hr>147</ns3:hr>
          </ns3:TrackPointExtension>
        </extensions>
      </trkpt>
      <trkpt lat="46.66867188178002834320068359375" lon="6.85344309546053409576416015625">
        <ele>658.20001220703125</ele>
        <time>2013-08-15T16:07:20.000Z</time>
        <extensions>
          <ns3:TrackPointExtension>
            <ns3:atemp>21.0</ns3:atemp>
            <ns3:hr>147</ns3:hr>
          </ns3:TrackPointExtension>
        </extensions>
      </trkpt>
      <trkpt lat="46.66869266889989376068115234375" lon="6.85342633165419101715087890625">
        <ele>658.4000244140625</ele>
        <time>2013-08-15T16:07:21.000Z</time>
        <extensions>
          <ns3:TrackPointExtension>
            <ns3:atemp>21.0</ns3:atemp>
            <ns3:hr>147</ns3:hr>
          </ns3:TrackPointExtension>
        </extensions>
      </trkpt>
      <trkpt lat="46.66871245019137859344482421875" lon="6.853411495685577392578125">
        <ele>658.79998779296875</ele>
        <time>2013-08-15T16:07:22.000Z</time>
        <extensions>
          <ns3:TrackPointExtension>
            <ns3:atemp>21.0</ns3:atemp>
            <ns3:hr>147</ns3:hr>
          </ns3:TrackPointExtension>
        </extensions>
      </trkpt>
      <trkpt lat="46.66873256675899028778076171875" lon="6.85339950956404209136962890625">
        <ele>659</ele>
        <time>2013-08-15T16:07:23.000Z</time>
        <extensions>
          <ns3:TrackPointExtension>
            <ns3:atemp>21.0</ns3:atemp>
            <ns3:hr>147</ns3:hr>
          </ns3:TrackPointExtension>
        </extensions>
      </trkpt>
      <trkpt lat="46.6687532700598239898681640625" lon="6.8533835001289844512939453125">
        <ele>659.4000244140625</ele>
        <time>2013-08-15T16:07:24.000Z</time>
        <extensions>
          <ns3:TrackPointExtension>
            <ns3:atemp>21.0</ns3:atemp>
            <ns3:hr>147</ns3:hr>
          </ns3:TrackPointExtension>
        </extensions>
      </trkpt>
      <trkpt lat="46.6687707044184207916259765625" lon="6.853364892303943634033203125">
        <ele>659.79998779296875</ele>
        <time>2013-08-15T16:07:25.000Z</time>
        <extensions>
          <ns3:TrackPointExtension>
            <ns3:atemp>21.0</ns3:atemp>
            <ns3:hr>147</ns3:hr>
          </ns3:TrackPointExtension>
        </extensions>
      </trkpt>
      <trkpt lat="46.668786965310573577880859375" lon="6.85334469191730022430419921875">
        <ele>660</ele>
        <time>2013-08-15T16:07:26.000Z</time>
        <extensions>
          <ns3:TrackPointExtension>
            <ns3:atemp>21.0</ns3:atemp>
            <ns3:hr>148</ns3:hr>
          </ns3:TrackPointExtension>
        </extensions>
      </trkpt>
      <trkpt lat="46.66879895143210887908935546875" lon="6.85331820510327816009521484375">
        <ele>660</ele>
        <time>2013-08-15T16:07:27.000Z</time>
        <extensions>
          <ns3:TrackPointExtension>
            <ns3:atemp>21.0</ns3:atemp>
            <ns3:hr>148</ns3:hr>
          </ns3:TrackPointExtension>
        </extensions>
      </trkpt>
      <trkpt lat="46.6688127815723419189453125" lon="6.85329683125019073486328125">
        <ele>660.4000244140625</ele>
        <time>2013-08-15T16:07:28.000Z</time>
        <extensions>
          <ns3:TrackPointExtension>
            <ns3:atemp>21.0</ns3:atemp>
            <ns3:hr>148</ns3:hr>
          </ns3:TrackPointExtension>
        </extensions>
      </trkpt>
      <trkpt lat="46.668827868998050689697265625" lon="6.85327545739710330963134765625">
        <ele>660.5999755859375</ele>
        <time>2013-08-15T16:07:29.000Z</time>
        <extensions>
          <ns3:TrackPointExtension>
            <ns3:atemp>21.0</ns3:atemp>
            <ns3:hr>148</ns3:hr>
          </ns3:TrackPointExtension>
        </extensions>
      </trkpt>
      <trkpt lat="46.66884572245180606842041015625" lon="6.85325500555336475372314453125">
        <ele>661</ele>
        <time>2013-08-15T16:07:30.000Z</time>
        <extensions>
          <ns3:TrackPointExtension>
            <ns3:atemp>21.0</ns3:atemp>
            <ns3:hr>148</ns3:hr>
          </ns3:TrackPointExtension>
        </extensions>
      </trkpt>
      <trkpt lat="46.66886583901941776275634765625" lon="6.8532353080809116363525390625">
        <ele>661.20001220703125</ele>
        <time>2013-08-15T16:07:31.000Z</time>
        <extensions>
          <ns3:TrackPointExtension>
            <ns3:atemp>21.0</ns3:atemp>
            <ns3:hr>149</ns3:hr>
          </ns3:TrackPointExtension>
        </extensions>
      </trkpt>
      <trkpt lat="46.66888344101607799530029296875" lon="6.853221394121646881103515625">
        <ele>661.79998779296875</ele>
        <time>2013-08-15T16:07:32.000Z</time>
        <extensions>
          <ns3:TrackPointExtension>
            <ns3:atemp>21.0</ns3:atemp>
            <ns3:hr>149</ns3:hr>
          </ns3:TrackPointExtension>
        </extensions>
      </trkpt>
      <trkpt lat="46.66889986954629421234130859375" lon="6.85320136137306690216064453125">
        <ele>662</ele>
        <time>2013-08-15T16:07:33.000Z</time>
        <extensions>
          <ns3:TrackPointExtension>
            <ns3:atemp>21.0</ns3:atemp>
            <ns3:hr>149</ns3:hr>
          </ns3:TrackPointExtension>
        </extensions>
      </trkpt>
      <trkpt lat="46.66892015375196933746337890625" lon="6.85318761505186557769775390625">
        <ele>662.4000244140625</ele>
        <time>2013-08-15T16:07:34.000Z</time>
        <extensions>
          <ns3:TrackPointExtension>
            <ns3:atemp>21.0</ns3:atemp>
            <ns3:hr>149</ns3:hr>
          </ns3:TrackPointExtension>
        </extensions>
      </trkpt>
      <trkpt lat="46.6689388453960418701171875" lon="6.85316934250295162200927734375">
        <ele>663</ele>
        <time>2013-08-15T16:07:35.000Z</time>
        <extensions>
          <ns3:TrackPointExtension>
            <ns3:atemp>21.0</ns3:atemp>
            <ns3:hr>149</ns3:hr>
          </ns3:TrackPointExtension>
        </extensions>
      </trkpt>
      <trkpt lat="46.6689534299075603485107421875" lon="6.85314989648759365081787109375">
        <ele>663.4000244140625</ele>
        <time>2013-08-15T16:07:36.000Z</time>
        <extensions>
          <ns3:TrackPointExtension>
            <ns3:atemp>21.0</ns3:atemp>
            <ns3:hr>149</ns3:hr>
          </ns3:TrackPointExtension>
        </extensions>
      </trkpt>
      <trkpt lat="46.6689644940197467803955078125" lon="6.85312516987323760986328125">
        <ele>663.79998779296875</ele>
        <time>2013-08-15T16:07:37.000Z</time>
        <extensions>
          <ns3:TrackPointExtension>
            <ns3:atemp>21.0</ns3:atemp>
            <ns3:hr>150</ns3:hr>
          </ns3:TrackPointExtension>
        </extensions>
      </trkpt>
      <trkpt lat="46.6689722053706645965576171875" lon="6.8530971743166446685791015625">
        <ele>664</ele>
        <time>2013-08-15T16:07:38.000Z</time>
        <extensions>
          <ns3:TrackPointExtension>
            <ns3:atemp>21.0</ns3:atemp>
            <ns3:hr>150</ns3:hr>
          </ns3:TrackPointExtension>
        </extensions>
      </trkpt>
      <trkpt lat="46.66898435913026332855224609375" lon="6.853073537349700927734375">
        <ele>664.4000244140625</ele>
        <time>2013-08-15T16:07:39.000Z</time>
        <extensions>
          <ns3:TrackPointExtension>
            <ns3:atemp>21.0</ns3:atemp>
            <ns3:hr>150</ns3:hr>
          </ns3:TrackPointExtension>
        </extensions>
      </trkpt>
      <trkpt lat="46.66899718344211578369140625" lon="6.85304696671664714813232421875">
        <ele>664.5999755859375</ele>
        <time>2013-08-15T16:07:40.000Z</time>
        <extensions>
          <ns3:TrackPointExtension>
            <ns3:atemp>21.0</ns3:atemp>
            <ns3:hr>150</ns3:hr>
          </ns3:TrackPointExtension>
        </extensions>
      </trkpt>
      <trkpt lat="46.66901336051523685455322265625" lon="6.8530281074345111846923828125">
        <ele>665</ele>
        <time>2013-08-15T16:07:41.000Z</time>
        <extensions>
          <ns3:TrackPointExtension>
            <ns3:atemp>21.0</ns3:atemp>
            <ns3:hr>150</ns3:hr>
          </ns3:TrackPointExtension>
        </extensions>
      </trkpt>
      <trkpt lat="46.66902878321707248687744140625" lon="6.8530083261430263519287109375">
        <ele>665.20001220703125</ele>
        <time>2013-08-15T16:07:42.000Z</time>
        <extensions>
          <ns3:TrackPointExtension>
            <ns3:atemp>21.0</ns3:atemp>
            <ns3:hr>151</ns3:hr>
          </ns3:TrackPointExtension>
        </extensions>
      </trkpt>
      <trkpt lat="46.66904420591890811920166015625" lon="6.85298577882349491119384765625">
        <ele>665.5999755859375</ele>
        <time>2013-08-15T16:07:43.000Z</time>
        <extensions>
          <ns3:TrackPointExtension>
            <ns3:atemp>21.0</ns3:atemp>
            <ns3:hr>151</ns3:hr>
          </ns3:TrackPointExtension>
        </extensions>
      </trkpt>
      <trkpt lat="46.6690573655068874359130859375" lon="6.85296582989394664764404296875">
        <ele>666</ele>
        <time>2013-08-15T16:07:44.000Z</time>
        <extensions>
          <ns3:TrackPointExtension>
            <ns3:atemp>21.0</ns3:atemp>
            <ns3:hr>151</ns3:hr>
          </ns3:TrackPointExtension>
        </extensions>
      </trkpt>
      <trkpt lat="46.6690737940371036529541015625" lon="6.85295124538242816925048828125">
        <ele>666.20001220703125</ele>
        <time>2013-08-15T16:07:45.000Z</time>
        <extensions>
          <ns3:TrackPointExtension>
            <ns3:atemp>21.0</ns3:atemp>
            <ns3:hr>151</ns3:hr>
          </ns3:TrackPointExtension>
        </extensions>
      </trkpt>
      <trkpt lat="46.6690922342240810394287109375" lon="6.85293582268059253692626953125">
        <ele>666.5999755859375</ele>
        <time>2013-08-15T16:07:46.000Z</time>
        <extensions>
          <ns3:TrackPointExtension>
            <ns3:atemp>21.0</ns3:atemp>
            <ns3:hr>152</ns3:hr>
          </ns3:TrackPointExtension>
        </extensions>
      </trkpt>
      <trkpt lat="46.66911209933459758758544921875" lon="6.85292375274002552032470703125">
        <ele>666.79998779296875</ele>
        <time>2013-08-15T16:07:47.000Z</time>
        <extensions>
          <ns3:TrackPointExtension>
            <ns3:atemp>21.0</ns3:atemp>
            <ns3:hr>152</ns3:hr>
          </ns3:TrackPointExtension>
        </extensions>
      </trkpt>
      <trkpt lat="46.6691324673593044281005859375" lon="6.8529167957603931427001953125">
        <ele>667.20001220703125</ele>
        <time>2013-08-15T16:07:48.000Z</time>
        <extensions>
          <ns3:TrackPointExtension>
            <ns3:atemp>21.0</ns3:atemp>
            <ns3:hr>152</ns3:hr>
          </ns3:TrackPointExtension>
        </extensions>
      </trkpt>
      <trkpt lat="46.66915384121239185333251953125" lon="6.85291252098977565765380859375">
        <ele>667.4000244140625</ele>
        <time>2013-08-15T16:07:49.000Z</time>
        <extensions>
          <ns3:TrackPointExtension>
            <ns3:atemp>21.0</ns3:atemp>
            <ns3:hr>153</ns3:hr>
          </ns3:TrackPointExtension>
        </extensions>
      </trkpt>
      <trkpt lat="46.6691753827035427093505859375" lon="6.85290992259979248046875">
        <ele>667.79998779296875</ele>
        <time>2013-08-15T16:07:50.000Z</time>
        <extensions>
          <ns3:TrackPointExtension>
            <ns3:atemp>21.0</ns3:atemp>
            <ns3:hr>153</ns3:hr>
          </ns3:TrackPointExtension>
        </extensions>
      </trkpt>
      <trkpt lat="46.6691941581666469573974609375" lon="6.8528970144689083099365234375">
        <ele>668.20001220703125</ele>
        <time>2013-08-15T16:07:51.000Z</time>
        <extensions>
          <ns3:TrackPointExtension>
            <ns3:atemp>21.0</ns3:atemp>
            <ns3:hr>153</ns3:hr>
          </ns3:TrackPointExtension>
        </extensions>
      </trkpt>
      <trkpt lat="46.66921310126781463623046875" lon="6.852892152965068817138671875">
        <ele>668.5999755859375</ele>
        <time>2013-08-15T16:07:52.000Z</time>
        <extensions>
          <ns3:TrackPointExtension>
            <ns3:atemp>21.0</ns3:atemp>
            <ns3:hr>153</ns3:hr>
          </ns3:TrackPointExtension>
        </extensions>
      </trkpt>
      <trkpt lat="46.66923564858734607696533203125" lon="6.852890811860561370849609375">
        <ele>669</ele>
        <time>2013-08-15T16:07:53.000Z</time>
        <extensions>
          <ns3:TrackPointExtension>
            <ns3:atemp>21.0</ns3:atemp>
            <ns3:hr>153</ns3:hr>
          </ns3:TrackPointExtension>
        </extensions>
      </trkpt>
      <trkpt lat="46.669259369373321533203125" lon="6.8528946675360202789306640625">
        <ele>669.4000244140625</ele>
        <time>2013-08-15T16:07:54.000Z</time>
        <extensions>
          <ns3:TrackPointExtension>
            <ns3:atemp>21.0</ns3:atemp>
            <ns3:hr>153</ns3:hr>
          </ns3:TrackPointExtension>
        </extensions>
      </trkpt>
      <trkpt lat="46.6692873649299144744873046875" lon="6.8529040552675724029541015625">
        <ele>669.5999755859375</ele>
        <time>2013-08-15T16:07:55.000Z</time>
        <extensions>
          <ns3:TrackPointExtension>
            <ns3:atemp>21.0</ns3:atemp>
            <ns3:hr>153</ns3:hr>
          </ns3:TrackPointExtension>
        </extensions>
      </trkpt>
      <trkpt lat="46.66931460611522197723388671875" lon="6.85291084460914134979248046875">
        <ele>669.79998779296875</ele>
        <time>2013-08-15T16:07:56.000Z</time>
        <extensions>
          <ns3:TrackPointExtension>
            <ns3:atemp>21.0</ns3:atemp>
            <ns3:hr>153</ns3:hr>
          </ns3:TrackPointExtension>
        </extensions>
      </trkpt>
      <trkpt lat="46.66934109292924404144287109375" lon="6.85292459093034267425537109375">
        <ele>669.79998779296875</ele>
        <time>2013-08-15T16:07:57.000Z</time>
        <extensions>
          <ns3:TrackPointExtension>
            <ns3:atemp>21.0</ns3:atemp>
            <ns3:hr>152</ns3:hr>
          </ns3:TrackPointExtension>
        </extensions>
      </trkpt>
      <trkpt lat="46.66936741210520267486572265625" lon="6.85294219292700290679931640625">
        <ele>669.79998779296875</ele>
        <time>2013-08-15T16:07:58.000Z</time>
        <extensions>
          <ns3:TrackPointExtension>
            <ns3:atemp>21.0</ns3:atemp>
            <ns3:hr>152</ns3:hr>
          </ns3:TrackPointExtension>
        </extensions>
      </trkpt>
      <trkpt lat="46.66939188726246356964111328125" lon="6.8529600463807582855224609375">
        <ele>670.20001220703125</ele>
        <time>2013-08-15T16:07:59.000Z</time>
        <extensions>
          <ns3:TrackPointExtension>
            <ns3:atemp>21.0</ns3:atemp>
            <ns3:hr>152</ns3:hr>
          </ns3:TrackPointExtension>
        </extensions>
      </trkpt>
      <trkpt lat="46.6694191284477710723876953125" lon="6.852977983653545379638671875">
        <ele>670.20001220703125</ele>
        <time>2013-08-15T16:08:00.000Z</time>
        <extensions>
          <ns3:TrackPointExtension>
            <ns3:atemp>21.0</ns3:atemp>
            <ns3:hr>152</ns3:hr>
          </ns3:TrackPointExtension>
        </extensions>
      </trkpt>
      <trkpt lat="46.66944569908082485198974609375" lon="6.853000111877918243408203125">
        <ele>670.4000244140625</ele>
        <time>2013-08-15T16:08:01.000Z</time>
        <extensions>
          <ns3:TrackPointExtension>
            <ns3:atemp>21.0</ns3:atemp>
            <ns3:hr>152</ns3:hr>
          </ns3:TrackPointExtension>
        </extensions>
      </trkpt>
      <trkpt lat="46.66947059333324432373046875" lon="6.853021569550037384033203125">
        <ele>670.5999755859375</ele>
        <time>2013-08-15T16:08:02.000Z</time>
        <extensions>
          <ns3:TrackPointExtension>
            <ns3:atemp>21.0</ns3:atemp>
            <ns3:hr>152</ns3:hr>
          </ns3:TrackPointExtension>
        </extensions>
      </trkpt>
      <trkpt lat="46.66949733160436153411865234375" lon="6.85304059647023677825927734375">
        <ele>670.79998779296875</ele>
        <time>2013-08-15T16:08:03.000Z</time>
        <extensions>
          <ns3:TrackPointExtension>
            <ns3:atemp>21.0</ns3:atemp>
            <ns3:hr>152</ns3:hr>
          </ns3:TrackPointExtension>
        </extensions>
      </trkpt>
      <trkpt lat="46.6695240698754787445068359375" lon="6.85306079685688018798828125">
        <ele>671</ele>
        <time>2013-08-15T16:08:04.000Z</time>
        <extensions>
          <ns3:TrackPointExtension>
            <ns3:atemp>21.0</ns3:atemp>
            <ns3:hr>151</ns3:hr>
          </ns3:TrackPointExtension>
        </extensions>
      </trkpt>
      <trkpt lat="46.66955013759434223175048828125" lon="6.8530829250812530517578125">
        <ele>671</ele>
        <time>2013-08-15T16:08:05.000Z</time>
        <extensions>
          <ns3:TrackPointExtension>
            <ns3:atemp>21.0</ns3:atemp>
            <ns3:hr>151</ns3:hr>
          </ns3:TrackPointExtension>
        </extensions>
      </trkpt>
      <trkpt lat="46.66957855224609375" lon="6.85309876687824726104736328125">
        <ele>671.20001220703125</ele>
        <time>2013-08-15T16:08:06.000Z</time>
        <extensions>
          <ns3:TrackPointExtension>
            <ns3:atemp>21.0</ns3:atemp>
            <ns3:hr>151</ns3:hr>
          </ns3:TrackPointExtension>
        </extensions>
      </trkpt>
      <trkpt lat="46.66960260830819606781005859375" lon="6.85311385430395603179931640625">
        <ele>671.4000244140625</ele>
        <time>2013-08-15T16:08:07.000Z</time>
        <extensions>
          <ns3:TrackPointExtension>
            <ns3:atemp>21.0</ns3:atemp>
            <ns3:hr>150</ns3:hr>
          </ns3:TrackPointExtension>
        </extensions>
      </trkpt>
      <trkpt lat="46.66962590999901294708251953125" lon="6.85312827117741107940673828125">
        <ele>671.20001220703125</ele>
        <time>2013-08-15T16:08:08.000Z</time>
        <extensions>
          <ns3:TrackPointExtension>
            <ns3:atemp>21.0</ns3:atemp>
            <ns3:hr>150</ns3:hr>
          </ns3:TrackPointExtension>
        </extensions>
      </trkpt>
      <trkpt lat="46.669645272195339202880859375" lon="6.85313765890896320343017578125">
        <ele>671</ele>
        <time>2013-08-15T16:08:09.000Z</time>
        <extensions>
          <ns3:TrackPointExtension>
            <ns3:atemp>21.0</ns3:atemp>
            <ns3:hr>149</ns3:hr>
          </ns3:TrackPointExtension>
        </extensions>
      </trkpt>
      <trkpt lat="46.669658012688159942626953125" lon="6.85314930975437164306640625">
        <ele>671</ele>
        <time>2013-08-15T16:08:10.000Z</time>
        <extensions>
          <ns3:TrackPointExtension>
            <ns3:atemp>21.0</ns3:atemp>
            <ns3:hr>149</ns3:hr>
          </ns3:TrackPointExtension>
        </extensions>
      </trkpt>
      <trkpt lat="46.669645942747592926025390625" lon="6.853138916194438934326171875">
        <ele>670.79998779296875</ele>
        <time>2013-08-15T16:08:11.000Z</time>
        <extensions>
          <ns3:TrackPointExtension>
            <ns3:atemp>21.0</ns3:atemp>
            <ns3:hr>148</ns3:hr>
          </ns3:TrackPointExtension>
        </extensions>
      </trkpt>
      <trkpt lat="46.669656001031398773193359375" lon="6.8531260080635547637939453125">
        <ele>670.5999755859375</ele>
        <time>2013-08-15T16:08:12.000Z</time>
        <extensions>
          <ns3:TrackPointExtension>
            <ns3:atemp>21.0</ns3:atemp>
            <ns3:hr>148</ns3:hr>
          </ns3:TrackPointExtension>
        </extensions>
      </trkpt>
      <trkpt lat="46.66965876705944538116455078125" lon="6.85313497669994831085205078125">
        <ele>670.5999755859375</ele>
        <time>2013-08-15T16:08:13.000Z</time>
        <extensions>
          <ns3:TrackPointExtension>
            <ns3:atemp>21.0</ns3:atemp>
            <ns3:hr>147</ns3:hr>
          </ns3:TrackPointExtension>
        </extensions>
      </trkpt>
      <trkpt lat="46.66965574957430362701416015625" lon="6.85310681350529193878173828125">
        <ele>670.5999755859375</ele>
        <time>2013-08-15T16:08:14.000Z</time>
        <extensions>
          <ns3:TrackPointExtension>
            <ns3:atemp>21.0</ns3:atemp>
            <ns3:hr>147</ns3:hr>
          </ns3:TrackPointExtension>
        </extensions>
      </trkpt>
      <trkpt lat="46.6696504689753055572509765625" lon="6.85309206135571002960205078125">
        <ele>670.5999755859375</ele>
        <time>2013-08-15T16:08:15.000Z</time>
        <extensions>
          <ns3:TrackPointExtension>
            <ns3:atemp>21.0</ns3:atemp>
            <ns3:hr>147</ns3:hr>
          </ns3:TrackPointExtension>
        </extensions>
      </trkpt>
      <trkpt lat="46.66964451782405376434326171875" lon="6.85308384709060192108154296875">
        <ele>670.79998779296875</ele>
        <time>2013-08-15T16:08:16.000Z</time>
        <extensions>
          <ns3:TrackPointExtension>
            <ns3:atemp>21.0</ns3:atemp>
            <ns3:hr>147</ns3:hr>
          </ns3:TrackPointExtension>
        </extensions>
      </trkpt>
      <trkpt lat="46.6696494631469249725341796875" lon="6.853089630603790283203125">
        <ele>670.79998779296875</ele>
        <time>2013-08-15T16:08:17.000Z</time>
        <extensions>
          <ns3:TrackPointExtension>
            <ns3:atemp>21.0</ns3:atemp>
            <ns3:hr>146</ns3:hr>
          </ns3:TrackPointExtension>
        </extensions>
      </trkpt>
      <trkpt lat="46.66964367963373661041259765625" lon="6.853077895939350128173828125">
        <ele>670.79998779296875</ele>
        <time>2013-08-15T16:08:18.000Z</time>
        <extensions>
          <ns3:TrackPointExtension>
            <ns3:atemp>21.0</ns3:atemp>
            <ns3:hr>146</ns3:hr>
          </ns3:TrackPointExtension>
        </extensions>
      </trkpt>
      <trkpt lat="46.66964367963373661041259765625" lon="6.853077895939350128173828125">
        <ele>670.79998779296875</ele>
        <time>2013-08-15T16:08:19.000Z</time>
        <extensions>
          <ns3:TrackPointExtension>
            <ns3:atemp>21.0</ns3:atemp>
            <ns3:hr>145</ns3:hr>
          </ns3:TrackPointExtension>
        </extensions>
      </trkpt>
      <trkpt lat="46.66964367963373661041259765625" lon="6.853077895939350128173828125">
        <ele>670.79998779296875</ele>
        <time>2013-08-15T16:08:20.000Z</time>
        <extensions>
          <ns3:TrackPointExtension>
            <ns3:atemp>21.0</ns3:atemp>
            <ns3:hr>145</ns3:hr>
          </ns3:TrackPointExtension>
        </extensions>
      </trkpt>
      <trkpt lat="46.66964367963373661041259765625" lon="6.853077895939350128173828125">
        <ele>670.79998779296875</ele>
        <time>2013-08-15T16:08:21.000Z</time>
        <extensions>
          <ns3:TrackPointExtension>
            <ns3:atemp>21.0</ns3:atemp>
            <ns3:hr>144</ns3:hr>
          </ns3:TrackPointExtension>
        </extensions>
      </trkpt>
      <trkpt lat="46.66964367963373661041259765625" lon="6.853077895939350128173828125">
        <ele>670.79998779296875</ele>
        <time>2013-08-15T16:08:22.000Z</time>
        <extensions>
          <ns3:TrackPointExtension>
            <ns3:atemp>21.0</ns3:atemp>
            <ns3:hr>143</ns3:hr>
          </ns3:TrackPointExtension>
        </extensions>
      </trkpt>
      <trkpt lat="46.66964367963373661041259765625" lon="6.853077895939350128173828125">
        <ele>670.79998779296875</ele>
        <time>2013-08-15T16:08:23.000Z</time>
        <extensions>
          <ns3:TrackPointExtension>
            <ns3:atemp>21.0</ns3:atemp>
            <ns3:hr>143</ns3:hr>
          </ns3:TrackPointExtension>
        </extensions>
      </trkpt>
      <trkpt lat="46.66964367963373661041259765625" lon="6.853077895939350128173828125">
        <ele>670.79998779296875</ele>
        <time>2013-08-15T16:08:24.000Z</time>
        <extensions>
          <ns3:TrackPointExtension>
            <ns3:atemp>21.0</ns3:atemp>
            <ns3:hr>142</ns3:hr>
          </ns3:TrackPointExtension>
        </extensions>
      </trkpt>
      <trkpt lat="46.66964367963373661041259765625" lon="6.853077895939350128173828125">
        <ele>670.79998779296875</ele>
        <time>2013-08-15T16:08:25.000Z</time>
        <extensions>
          <ns3:TrackPointExtension>
            <ns3:atemp>21.0</ns3:atemp>
            <ns3:hr>141</ns3:hr>
          </ns3:TrackPointExtension>
        </extensions>
      </trkpt>
      <trkpt lat="46.66964367963373661041259765625" lon="6.853077895939350128173828125">
        <ele>670.79998779296875</ele>
        <time>2013-08-15T16:08:26.000Z</time>
        <extensions>
          <ns3:TrackPointExtension>
            <ns3:atemp>21.0</ns3:atemp>
            <ns3:hr>141</ns3:hr>
          </ns3:TrackPointExtension>
        </extensions>
      </trkpt>
      <trkpt lat="46.66964367963373661041259765625" lon="6.853077895939350128173828125">
        <ele>670.79998779296875</ele>
        <time>2013-08-15T16:08:27.000Z</time>
        <extensions>
          <ns3:TrackPointExtension>
            <ns3:atemp>21.0</ns3:atemp>
            <ns3:hr>141</ns3:hr>
          </ns3:TrackPointExtension>
        </extensions>
      </trkpt>
      <trkpt lat="46.66964367963373661041259765625" lon="6.853077895939350128173828125">
        <ele>670.79998779296875</ele>
        <time>2013-08-15T16:08:28.000Z</time>
        <extensions>
          <ns3:TrackPointExtension>
            <ns3:atemp>21.0</ns3:atemp>
            <ns3:hr>140</ns3:hr>
          </ns3:TrackPointExtension>
        </extensions>
      </trkpt>
      <trkpt lat="46.669640578329563140869140625" lon="6.853080578148365020751953125">
        <ele>670.79998779296875</ele>
        <time>2013-08-15T16:08:29.000Z</time>
        <extensions>
          <ns3:TrackPointExtension>
            <ns3:atemp>21.0</ns3:atemp>
            <ns3:hr>140</ns3:hr>
          </ns3:TrackPointExtension>
        </extensions>
      </trkpt>
      <trkpt lat="46.66964367963373661041259765625" lon="6.853077895939350128173828125">
        <ele>670.79998779296875</ele>
        <time>2013-08-15T16:08:30.000Z</time>
        <extensions>
          <ns3:TrackPointExtension>
            <ns3:atemp>21.0</ns3:atemp>
            <ns3:hr>140</ns3:hr>
          </ns3:TrackPointExtension>
        </extensions>
      </trkpt>
      <trkpt lat="46.66963412426412105560302734375" lon="6.85306926257908344268798828125">
        <ele>670.79998779296875</ele>
        <time>2013-08-15T16:08:31.000Z</time>
        <extensions>
          <ns3:TrackPointExtension>
            <ns3:atemp>21.0</ns3:atemp>
            <ns3:hr>140</ns3:hr>
          </ns3:TrackPointExtension>
        </extensions>
      </trkpt>
      <trkpt lat="46.6696189530193805694580078125" lon="6.8530512414872646331787109375">
        <ele>670.79998779296875</ele>
        <time>2013-08-15T16:08:32.000Z</time>
        <extensions>
          <ns3:TrackPointExtension>
            <ns3:atemp>21.0</ns3:atemp>
            <ns3:hr>139</ns3:hr>
          </ns3:TrackPointExtension>
        </extensions>
      </trkpt>
      <trkpt lat="46.669597662985324859619140625" lon="6.8530264310538768768310546875">
        <ele>670.79998779296875</ele>
        <time>2013-08-15T16:08:33.000Z</time>
        <extensions>
          <ns3:TrackPointExtension>
            <ns3:atemp>21.0</ns3:atemp>
            <ns3:hr>139</ns3:hr>
          </ns3:TrackPointExtension>
        </extensions>
      </trkpt>
      <trkpt lat="46.669574864208698272705078125" lon="6.8529872037470340728759765625">
        <ele>670.79998779296875</ele>
        <time>2013-08-15T16:08:34.000Z</time>
        <extensions>
          <ns3:TrackPointExtension>
            <ns3:atemp>21.0</ns3:atemp>
            <ns3:hr>139</ns3:hr>
          </ns3:TrackPointExtension>
        </extensions>
      </trkpt>
      <trkpt lat="46.66955634020268917083740234375" lon="6.8529359064996242523193359375">
        <ele>671</ele>
        <time>2013-08-15T16:08:35.000Z</time>
        <extensions>
          <ns3:TrackPointExtension>
            <ns3:atemp>21.0</ns3:atemp>
            <ns3:hr>139</ns3:hr>
          </ns3:TrackPointExtension>
        </extensions>
      </trkpt>
      <trkpt lat="46.66954678483307361602783203125" lon="6.85288670472800731658935546875">
        <ele>671.20001220703125</ele>
        <time>2013-08-15T16:08:36.000Z</time>
        <extensions>
          <ns3:TrackPointExtension>
            <ns3:atemp>21.0</ns3:atemp>
            <ns3:hr>138</ns3:hr>
          </ns3:TrackPointExtension>
        </extensions>
      </trkpt>
      <trkpt lat="46.66953739710152149200439453125" lon="6.852842532098293304443359375">
        <ele>671.4000244140625</ele>
        <time>2013-08-15T16:08:37.000Z</time>
        <extensions>
          <ns3:TrackPointExtension>
            <ns3:atemp>21.0</ns3:atemp>
            <ns3:hr>137</ns3:hr>
          </ns3:TrackPointExtension>
        </extensions>
      </trkpt>
      <trkpt lat="46.6695317812263965606689453125" lon="6.85279768891632556915283203125">
        <ele>671.79998779296875</ele>
        <time>2013-08-15T16:08:38.000Z</time>
        <extensions>
          <ns3:TrackPointExtension>
            <ns3:atemp>21.0</ns3:atemp>
            <ns3:hr>136</ns3:hr>
          </ns3:TrackPointExtension>
        </extensions>
      </trkpt>
      <trkpt lat="46.6695230640470981597900390625" lon="6.852758042514324188232421875">
        <ele>672</ele>
        <time>2013-08-15T16:08:39.000Z</time>
        <extensions>
          <ns3:TrackPointExtension>
            <ns3:atemp>21.0</ns3:atemp>
            <ns3:hr>136</ns3:hr>
          </ns3:TrackPointExtension>
        </extensions>
      </trkpt>
      <trkpt lat="46.669512502849102020263671875" lon="6.852719485759735107421875">
        <ele>672.4000244140625</ele>
        <time>2013-08-15T16:08:40.000Z</time>
        <extensions>
          <ns3:TrackPointExtension>
            <ns3:atemp>21.0</ns3:atemp>
            <ns3:hr>135</ns3:hr>
          </ns3:TrackPointExtension>
        </extensions>
      </trkpt>
      <trkpt lat="46.66950386948883533477783203125" lon="6.8526805937290191650390625">
        <ele>672.79998779296875</ele>
        <time>2013-08-15T16:08:41.000Z</time>
        <extensions>
          <ns3:TrackPointExtension>
            <ns3:atemp>21.0</ns3:atemp>
            <ns3:hr>135</ns3:hr>
          </ns3:TrackPointExtension>
        </extensions>
      </trkpt>
      <trkpt lat="46.66949339210987091064453125" lon="6.85264094732701778411865234375">
        <ele>673.20001220703125</ele>
        <time>2013-08-15T16:08:42.000Z</time>
        <extensions>
          <ns3:TrackPointExtension>
            <ns3:atemp>21.0</ns3:atemp>
            <ns3:hr>135</ns3:hr>
          </ns3:TrackPointExtension>
        </extensions>
      </trkpt>
      <trkpt lat="46.66948174126446247100830078125" lon="6.8526013009250164031982421875">
        <ele>673.5999755859375</ele>
        <time>2013-08-15T16:08:43.000Z</time>
        <extensions>
          <ns3:TrackPointExtension>
            <ns3:atemp>21.0</ns3:atemp>
            <ns3:hr>134</ns3:hr>
          </ns3:TrackPointExtension>
        </extensions>
      </trkpt>
      <trkpt lat="46.66946631856262683868408203125" lon="6.8525667674839496612548828125">
        <ele>673.79998779296875</ele>
        <time>2013-08-15T16:08:44.000Z</time>
        <extensions>
          <ns3:TrackPointExtension>
            <ns3:atemp>21.0</ns3:atemp>
            <ns3:hr>134</ns3:hr>
          </ns3:TrackPointExtension>
        </extensions>
      </trkpt>
      <trkpt lat="46.66945056058466434478759765625" lon="6.85253382660448551177978515625">
        <ele>674.20001220703125</ele>
        <time>2013-08-15T16:08:45.000Z</time>
        <extensions>
          <ns3:TrackPointExtension>
            <ns3:atemp>21.0</ns3:atemp>
            <ns3:hr>135</ns3:hr>
          </ns3:TrackPointExtension>
        </extensions>
      </trkpt>
      <trkpt lat="46.66943983174860477447509765625" lon="6.8524903245270252227783203125">
        <ele>674.4000244140625</ele>
        <time>2013-08-15T16:08:46.000Z</time>
        <extensions>
          <ns3:TrackPointExtension>
            <ns3:atemp>21.0</ns3:atemp>
            <ns3:hr>134</ns3:hr>
          </ns3:TrackPointExtension>
        </extensions>
      </trkpt>
      <trkpt lat="46.66943295858800411224365234375" lon="6.85244749300181865692138671875">
        <ele>674.79998779296875</ele>
        <time>2013-08-15T16:08:47.000Z</time>
        <extensions>
          <ns3:TrackPointExtension>
            <ns3:atemp>21.0</ns3:atemp>
            <ns3:hr>134</ns3:hr>
          </ns3:TrackPointExtension>
        </extensions>
      </trkpt>
      <trkpt lat="46.66942491196095943450927734375" lon="6.85240860097110271453857421875">
        <ele>675</ele>
        <time>2013-08-15T16:08:48.000Z</time>
        <extensions>
          <ns3:TrackPointExtension>
            <ns3:atemp>21.0</ns3:atemp>
            <ns3:hr>134</ns3:hr>
          </ns3:TrackPointExtension>
        </extensions>
      </trkpt>
      <trkpt lat="46.66941602714359760284423828125" lon="6.8523763306438922882080078125">
        <ele>675</ele>
        <time>2013-08-15T16:08:49.000Z</time>
        <extensions>
          <ns3:TrackPointExtension>
            <ns3:atemp>21.0</ns3:atemp>
            <ns3:hr>134</ns3:hr>
          </ns3:TrackPointExtension>
        </extensions>
      </trkpt>
      <trkpt lat="46.66940043680369853973388671875" lon="6.85235847719013690948486328125">
        <ele>675</ele>
        <time>2013-08-15T16:08:50.000Z</time>
        <extensions>
          <ns3:TrackPointExtension>
            <ns3:atemp>21.0</ns3:atemp>
            <ns3:hr>133</ns3:hr>
          </ns3:TrackPointExtension>
        </extensions>
      </trkpt>
      <trkpt lat="46.66938501410186290740966796875" lon="6.8523444794118404388427734375">
        <ele>675.20001220703125</ele>
        <time>2013-08-15T16:08:51.000Z</time>
        <extensions>
          <ns3:TrackPointExtension>
            <ns3:atemp>21.0</ns3:atemp>
            <ns3:hr>133</ns3:hr>
          </ns3:TrackPointExtension>
        </extensions>
      </trkpt>
      <trkpt lat="46.66936892084777355194091796875" lon="6.852329559624195098876953125">
        <ele>675.20001220703125</ele>
        <time>2013-08-15T16:08:52.000Z</time>
        <extensions>
          <ns3:TrackPointExtension>
            <ns3:atemp>21.0</ns3:atemp>
            <ns3:hr>132</ns3:hr>
          </ns3:TrackPointExtension>
        </extensions>
      </trkpt>
      <trkpt lat="46.6693470440804958343505859375" lon="6.852317489683628082275390625">
        <ele>675.4000244140625</ele>
        <time>2013-08-15T16:08:53.000Z</time>
        <extensions>
          <ns3:TrackPointExtension>
            <ns3:atemp>21.0</ns3:atemp>
            <ns3:hr>132</ns3:hr>
          </ns3:TrackPointExtension>
        </extensions>
      </trkpt>
      <trkpt lat="46.66932214982807636260986328125" lon="6.8523029051721096038818359375">
        <ele>675.79998779296875</ele>
        <time>2013-08-15T16:08:54.000Z</time>
        <extensions>
          <ns3:TrackPointExtension>
            <ns3:atemp>21.0</ns3:atemp>
            <ns3:hr>132</ns3:hr>
          </ns3:TrackPointExtension>
        </extensions>
      </trkpt>
      <trkpt lat="46.669301278889179229736328125" lon="6.85227490961551666259765625">
        <ele>676.20001220703125</ele>
        <time>2013-08-15T16:08:55.000Z</time>
        <extensions>
          <ns3:TrackPointExtension>
            <ns3:atemp>21.0</ns3:atemp>
            <ns3:hr>132</ns3:hr>
          </ns3:TrackPointExtension>
        </extensions>
      </trkpt>
      <trkpt lat="46.66928057558834552764892578125" lon="6.85223643667995929718017578125">
        <ele>676.4000244140625</ele>
        <time>2013-08-15T16:08:56.000Z</time>
        <extensions>
          <ns3:TrackPointExtension>
            <ns3:atemp>21.0</ns3:atemp>
            <ns3:hr>132</ns3:hr>
          </ns3:TrackPointExtension>
        </extensions>
      </trkpt>
      <trkpt lat="46.6692638956010341644287109375" lon="6.85219486244022846221923828125">
        <ele>676.4000244140625</ele>
        <time>2013-08-15T16:08:57.000Z</time>
        <extensions>
          <ns3:TrackPointExtension>
            <ns3:atemp>21.0</ns3:atemp>
            <ns3:hr>132</ns3:hr>
          </ns3:TrackPointExtension>
        </extensions>
      </trkpt>
      <trkpt lat="46.66924486868083477020263671875" lon="6.85215286910533905029296875">
        <ele>676.5999755859375</ele>
        <time>2013-08-15T16:08:58.000Z</time>
        <extensions>
          <ns3:TrackPointExtension>
            <ns3:atemp>21.0</ns3:atemp>
            <ns3:hr>132</ns3:hr>
          </ns3:TrackPointExtension>
        </extensions>
      </trkpt>
      <trkpt lat="46.66922592557966709136962890625" lon="6.852108277380466461181640625">
        <ele>676.5999755859375</ele>
        <time>2013-08-15T16:08:59.000Z</time>
        <extensions>
          <ns3:TrackPointExtension>
            <ns3:atemp>21.0</ns3:atemp>
            <ns3:hr>133</ns3:hr>
          </ns3:TrackPointExtension>
        </extensions>
      </trkpt>
      <trkpt lat="46.66920497082173824310302734375" lon="6.852064020931720733642578125">
        <ele>676.79998779296875</ele>
        <time>2013-08-15T16:09:00.000Z</time>
        <extensions>
          <ns3:TrackPointExtension>
            <ns3:atemp>21.0</ns3:atemp>
            <ns3:hr>133</ns3:hr>
          </ns3:TrackPointExtension>
        </extensions>
      </trkpt>
      <trkpt lat="46.669183932244777679443359375" lon="6.85202118940651416778564453125">
        <ele>677</ele>
        <time>2013-08-15T16:09:01.000Z</time>
        <extensions>
          <ns3:TrackPointExtension>
            <ns3:atemp>21.0</ns3:atemp>
            <ns3:hr>133</ns3:hr>
          </ns3:TrackPointExtension>
        </extensions>
      </trkpt>
      <trkpt lat="46.66916549205780029296875" lon="6.851976178586483001708984375">
        <ele>677.4000244140625</ele>
        <time>2013-08-15T16:09:02.000Z</time>
        <extensions>
          <ns3:TrackPointExtension>
            <ns3:atemp>21.0</ns3:atemp>
            <ns3:hr>133</ns3:hr>
          </ns3:TrackPointExtension>
        </extensions>
      </trkpt>
      <trkpt lat="46.6691485606133937835693359375" lon="6.85192747972905635833740234375">
        <ele>677.5999755859375</ele>
        <time>2013-08-15T16:09:03.000Z</time>
        <extensions>
          <ns3:TrackPointExtension>
            <ns3:atemp>21.0</ns3:atemp>
            <ns3:hr>133</ns3:hr>
          </ns3:TrackPointExtension>
        </extensions>
      </trkpt>
      <trkpt lat="46.66913263499736785888671875" lon="6.85187919996678829193115234375">
        <ele>677.5999755859375</ele>
        <time>2013-08-15T16:09:04.000Z</time>
        <extensions>
          <ns3:TrackPointExtension>
            <ns3:atemp>21.0</ns3:atemp>
            <ns3:hr>133</ns3:hr>
          </ns3:TrackPointExtension>
        </extensions>
      </trkpt>
      <trkpt lat="46.66911444626748561859130859375" lon="6.8518294952809810638427734375">
        <ele>677.79998779296875</ele>
        <time>2013-08-15T16:09:05.000Z</time>
        <extensions>
          <ns3:TrackPointExtension>
            <ns3:atemp>21.0</ns3:atemp>
            <ns3:hr>133</ns3:hr>
          </ns3:TrackPointExtension>
        </extensions>
      </trkpt>
      <trkpt lat="46.6690957546234130859375" lon="6.8517785333096981048583984375">
        <ele>678</ele>
        <time>2013-08-15T16:09:06.000Z</time>
        <extensions>
          <ns3:TrackPointExtension>
            <ns3:atemp>21.0</ns3:atemp>
            <ns3:hr>133</ns3:hr>
          </ns3:TrackPointExtension>
        </extensions>
      </trkpt>
      <trkpt lat="46.6690744645893573760986328125" lon="6.8517284095287322998046875">
        <ele>678.20001220703125</ele>
        <time>2013-08-15T16:09:07.000Z</time>
        <extensions>
          <ns3:TrackPointExtension>
            <ns3:atemp>21.0</ns3:atemp>
            <ns3:hr>133</ns3:hr>
          </ns3:TrackPointExtension>
        </extensions>
      </trkpt>
      <trkpt lat="46.6690528392791748046875" lon="6.85167686082422733306884765625">
        <ele>678.4000244140625</ele>
        <time>2013-08-15T16:09:08.000Z</time>
        <extensions>
          <ns3:TrackPointExtension>
            <ns3:atemp>21.0</ns3:atemp>
            <ns3:hr>134</ns3:hr>
          </ns3:TrackPointExtension>
        </extensions>
      </trkpt>
      <trkpt lat="46.66903716512024402618408203125" lon="6.85162723995745182037353515625">
        <ele>678.5999755859375</ele>
        <time>2013-08-15T16:09:09.000Z</time>
        <extensions>
          <ns3:TrackPointExtension>
            <ns3:atemp>21.0</ns3:atemp>
            <ns3:hr>134</ns3:hr>
          </ns3:TrackPointExtension>
        </extensions>
      </trkpt>
      <trkpt lat="46.669023334980010986328125" lon="6.8515807203948497772216796875">
        <ele>678.79998779296875</ele>
        <time>2013-08-15T16:09:10.000Z</time>
        <extensions>
          <ns3:TrackPointExtension>
            <ns3:atemp>21.0</ns3:atemp>
            <ns3:hr>134</ns3:hr>
          </ns3:TrackPointExtension>
        </extensions>
      </trkpt>
      <trkpt lat="46.6690104268491268157958984375" lon="6.851537637412548065185546875">
        <ele>679.4000244140625</ele>
        <time>2013-08-15T16:09:11.000Z</time>
        <extensions>
          <ns3:TrackPointExtension>
            <ns3:atemp>21.0</ns3:atemp>
            <ns3:hr>134</ns3:hr>
          </ns3:TrackPointExtension>
        </extensions>
      </trkpt>
      <trkpt lat="46.668998189270496368408203125" lon="6.8514958955347537994384765625">
        <ele>679.5999755859375</ele>
        <time>2013-08-15T16:09:12.000Z</time>
        <extensions>
          <ns3:TrackPointExtension>
            <ns3:atemp>21.0</ns3:atemp>
            <ns3:hr>133</ns3:hr>
          </ns3:TrackPointExtension>
        </extensions>
      </trkpt>
      <trkpt lat="46.66898804716765880584716796875" lon="6.85145021416246891021728515625">
        <ele>679.5999755859375</ele>
        <time>2013-08-15T16:09:13.000Z</time>
        <extensions>
          <ns3:TrackPointExtension>
            <ns3:atemp>21.0</ns3:atemp>
            <ns3:hr>133</ns3:hr>
          </ns3:TrackPointExtension>
        </extensions>
      </trkpt>
      <trkpt lat="46.6689777374267578125" lon="6.851405538618564605712890625">
        <ele>679.79998779296875</ele>
        <time>2013-08-15T16:09:14.000Z</time>
        <extensions>
          <ns3:TrackPointExtension>
            <ns3:atemp>21.0</ns3:atemp>
            <ns3:hr>134</ns3:hr>
          </ns3:TrackPointExtension>
        </extensions>
      </trkpt>
      <trkpt lat="46.66896675713360309600830078125" lon="6.85136337764561176300048828125">
        <ele>680.20001220703125</ele>
        <time>2013-08-15T16:09:15.000Z</time>
        <extensions>
          <ns3:TrackPointExtension>
            <ns3:atemp>21.0</ns3:atemp>
            <ns3:hr>134</ns3:hr>
          </ns3:TrackPointExtension>
        </extensions>
      </trkpt>
      <trkpt lat="46.6689601354300975799560546875" lon="6.85131828300654888153076171875">
        <ele>680.4000244140625</ele>
        <time>2013-08-15T16:09:16.000Z</time>
        <extensions>
          <ns3:TrackPointExtension>
            <ns3:atemp>21.0</ns3:atemp>
            <ns3:hr>134</ns3:hr>
          </ns3:TrackPointExtension>
        </extensions>
      </trkpt>
      <trkpt lat="46.66895653121173381805419921875" lon="6.851275451481342315673828125">
        <ele>680.5999755859375</ele>
        <time>2013-08-15T16:09:17.000Z</time>
        <extensions>
          <ns3:TrackPointExtension>
            <ns3:atemp>21.0</ns3:atemp>
            <ns3:hr>134</ns3:hr>
          </ns3:TrackPointExtension>
        </extensions>
      </trkpt>
      <trkpt lat="46.66895938105881214141845703125" lon="6.85123178176581859588623046875">
        <ele>680.79998779296875</ele>
        <time>2013-08-15T16:09:18.000Z</time>
        <extensions>
          <ns3:TrackPointExtension>
            <ns3:atemp>21.0</ns3:atemp>
            <ns3:hr>134</ns3:hr>
          </ns3:TrackPointExtension>
        </extensions>
      </trkpt>
      <trkpt lat="46.6689638234674930572509765625" lon="6.85118601657450199127197265625">
        <ele>681.20001220703125</ele>
        <time>2013-08-15T16:09:19.000Z</time>
        <extensions>
          <ns3:TrackPointExtension>
            <ns3:atemp>21.0</ns3:atemp>
            <ns3:hr>134</ns3:hr>
          </ns3:TrackPointExtension>
        </extensions>
      </trkpt>
      <trkpt lat="46.66896290145814418792724609375" lon="6.8511436879634857177734375">
        <ele>681.5999755859375</ele>
        <time>2013-08-15T16:09:20.000Z</time>
        <extensions>
          <ns3:TrackPointExtension>
            <ns3:atemp>21.0</ns3:atemp>
            <ns3:hr>134</ns3:hr>
          </ns3:TrackPointExtension>
        </extensions>
      </trkpt>
      <trkpt lat="46.66895887814462184906005859375" lon="6.8510982580482959747314453125">
        <ele>682</ele>
        <time>2013-08-15T16:09:21.000Z</time>
        <extensions>
          <ns3:TrackPointExtension>
            <ns3:atemp>21.0</ns3:atemp>
            <ns3:hr>134</ns3:hr>
          </ns3:TrackPointExtension>
        </extensions>
      </trkpt>
      <trkpt lat="46.6689527593553066253662109375" lon="6.85105442069470882415771484375">
        <ele>682.20001220703125</ele>
        <time>2013-08-15T16:09:22.000Z</time>
        <extensions>
          <ns3:TrackPointExtension>
            <ns3:atemp>21.0</ns3:atemp>
            <ns3:hr>134</ns3:hr>
          </ns3:TrackPointExtension>
        </extensions>
      </trkpt>
      <trkpt lat="46.66894488036632537841796875" lon="6.851015947759151458740234375">
        <ele>682.4000244140625</ele>
        <time>2013-08-15T16:09:23.000Z</time>
        <extensions>
          <ns3:TrackPointExtension>
            <ns3:atemp>21.0</ns3:atemp>
            <ns3:hr>134</ns3:hr>
          </ns3:TrackPointExtension>
        </extensions>
      </trkpt>
      <trkpt lat="46.668932475149631500244140625" lon="6.8509735353291034698486328125">
        <ele>682.5999755859375</ele>
        <time>2013-08-15T16:09:24.000Z</time>
        <extensions>
          <ns3:TrackPointExtension>
            <ns3:atemp>21.0</ns3:atemp>
            <ns3:hr>134</ns3:hr>
          </ns3:TrackPointExtension>
        </extensions>
      </trkpt>
      <trkpt lat="46.66891998611390590667724609375" lon="6.8509296141564846038818359375">
        <ele>682.79998779296875</ele>
        <time>2013-08-15T16:09:25.000Z</time>
        <extensions>
          <ns3:TrackPointExtension>
            <ns3:atemp>21.0</ns3:atemp>
            <ns3:hr>135</ns3:hr>
          </ns3:TrackPointExtension>
        </extensions>
      </trkpt>
      <trkpt lat="46.668908335268497467041015625" lon="6.850888542830944061279296875">
        <ele>683</ele>
        <time>2013-08-15T16:09:26.000Z</time>
        <extensions>
          <ns3:TrackPointExtension>
            <ns3:atemp>21.0</ns3:atemp>
            <ns3:hr>135</ns3:hr>
          </ns3:TrackPointExtension>
        </extensions>
      </trkpt>
      <trkpt lat="46.66889215819537639617919921875" lon="6.85084587894380092620849609375">
        <ele>683.4000244140625</ele>
        <time>2013-08-15T16:09:27.000Z</time>
        <extensions>
          <ns3:TrackPointExtension>
            <ns3:atemp>21.0</ns3:atemp>
            <ns3:hr>136</ns3:hr>
          </ns3:TrackPointExtension>
        </extensions>
      </trkpt>
      <trkpt lat="46.66886801831424236297607421875" lon="6.8508110940456390380859375">
        <ele>683.5999755859375</ele>
        <time>2013-08-15T16:09:28.000Z</time>
        <extensions>
          <ns3:TrackPointExtension>
            <ns3:atemp>21.0</ns3:atemp>
            <ns3:hr>137</ns3:hr>
          </ns3:TrackPointExtension>
        </extensions>
      </trkpt>
      <trkpt lat="46.6688458062708377838134765625" lon="6.85078066773712635040283203125">
        <ele>684</ele>
        <time>2013-08-15T16:09:29.000Z</time>
        <extensions>
          <ns3:TrackPointExtension>
            <ns3:atemp>21.0</ns3:atemp>
            <ns3:hr>137</ns3:hr>
          </ns3:TrackPointExtension>
        </extensions>
      </trkpt>
      <trkpt lat="46.66882191784679889678955078125" lon="6.8507485650479793548583984375">
        <ele>684.4000244140625</ele>
        <time>2013-08-15T16:09:30.000Z</time>
        <extensions>
          <ns3:TrackPointExtension>
            <ns3:atemp>21.0</ns3:atemp>
            <ns3:hr>138</ns3:hr>
          </ns3:TrackPointExtension>
        </extensions>
      </trkpt>
      <trkpt lat="46.66879744268953800201416015625" lon="6.8507177196443080902099609375">
        <ele>684.5999755859375</ele>
        <time>2013-08-15T16:09:31.000Z</time>
        <extensions>
          <ns3:TrackPointExtension>
            <ns3:atemp>21.0</ns3:atemp>
            <ns3:hr>139</ns3:hr>
          </ns3:TrackPointExtension>
        </extensions>
      </trkpt>
      <trkpt lat="46.66877447627484798431396484375" lon="6.8506872095167636871337890625">
        <ele>684.79998779296875</ele>
        <time>2013-08-15T16:09:32.000Z</time>
        <extensions>
          <ns3:TrackPointExtension>
            <ns3:atemp>21.0</ns3:atemp>
            <ns3:hr>139</ns3:hr>
          </ns3:TrackPointExtension>
        </extensions>
      </trkpt>
      <trkpt lat="46.6687524318695068359375" lon="6.85065158642828464508056640625">
        <ele>685</ele>
        <time>2013-08-15T16:09:33.000Z</time>
        <extensions>
          <ns3:TrackPointExtension>
            <ns3:atemp>21.0</ns3:atemp>
            <ns3:hr>139</ns3:hr>
          </ns3:TrackPointExtension>
        </extensions>
      </trkpt>
      <trkpt lat="46.66873089037835597991943359375" lon="6.8506171368062496185302734375">
        <ele>685.20001220703125</ele>
        <time>2013-08-15T16:09:34.000Z</time>
        <extensions>
          <ns3:TrackPointExtension>
            <ns3:atemp>21.0</ns3:atemp>
            <ns3:hr>140</ns3:hr>
          </ns3:TrackPointExtension>
        </extensions>
      </trkpt>
      <trkpt lat="46.66870909743010997772216796875" lon="6.85057732276618480682373046875">
        <ele>685.79998779296875</ele>
        <time>2013-08-15T16:09:35.000Z</time>
        <extensions>
          <ns3:TrackPointExtension>
            <ns3:atemp>21.0</ns3:atemp>
            <ns3:hr>140</ns3:hr>
          </ns3:TrackPointExtension>
        </extensions>
      </trkpt>
      <trkpt lat="46.66868696920573711395263671875" lon="6.8505373410880565643310546875">
        <ele>685.79998779296875</ele>
        <time>2013-08-15T16:09:36.000Z</time>
        <extensions>
          <ns3:TrackPointExtension>
            <ns3:atemp>21.0</ns3:atemp>
            <ns3:hr>140</ns3:hr>
          </ns3:TrackPointExtension>
        </extensions>
      </trkpt>
      <trkpt lat="46.668665595352649688720703125" lon="6.8504977785050868988037109375">
        <ele>686</ele>
        <time>2013-08-15T16:09:37.000Z</time>
        <extensions>
          <ns3:TrackPointExtension>
            <ns3:atemp>21.0</ns3:atemp>
            <ns3:hr>141</ns3:hr>
          </ns3:TrackPointExtension>
        </extensions>
      </trkpt>
      <trkpt lat="46.66864489205181598663330078125" lon="6.85045192949473857879638671875">
        <ele>686.20001220703125</ele>
        <time>2013-08-15T16:09:38.000Z</time>
        <extensions>
          <ns3:TrackPointExtension>
            <ns3:atemp>21.0</ns3:atemp>
            <ns3:hr>140</ns3:hr>
          </ns3:TrackPointExtension>
        </extensions>
      </trkpt>
      <trkpt lat="46.66862301528453826904296875" lon="6.850407086312770843505859375">
        <ele>686.20001220703125</ele>
        <time>2013-08-15T16:09:39.000Z</time>
        <extensions>
          <ns3:TrackPointExtension>
            <ns3:atemp>21.0</ns3:atemp>
            <ns3:hr>141</ns3:hr>
          </ns3:TrackPointExtension>
        </extensions>
      </trkpt>
      <trkpt lat="46.6686023958027362823486328125" lon="6.8503623269498348236083984375">
        <ele>686.4000244140625</ele>
        <time>2013-08-15T16:09:40.000Z</time>
        <extensions>
          <ns3:TrackPointExtension>
            <ns3:atemp>21.0</ns3:atemp>
            <ns3:hr>141</ns3:hr>
          </ns3:TrackPointExtension>
        </extensions>
      </trkpt>
      <trkpt lat="46.66858152486383914947509765625" lon="6.85031631030142307281494140625">
        <ele>686.5999755859375</ele>
        <time>2013-08-15T16:09:41.000Z</time>
        <extensions>
          <ns3:TrackPointExtension>
            <ns3:atemp>21.0</ns3:atemp>
            <ns3:hr>141</ns3:hr>
          </ns3:TrackPointExtension>
        </extensions>
      </trkpt>
      <trkpt lat="46.66856291703879833221435546875" lon="6.850270293653011322021484375">
        <ele>686.79998779296875</ele>
        <time>2013-08-15T16:09:42.000Z</time>
        <extensions>
          <ns3:TrackPointExtension>
            <ns3:atemp>21.0</ns3:atemp>
            <ns3:hr>141</ns3:hr>
          </ns3:TrackPointExtension>
        </extensions>
      </trkpt>
      <trkpt lat="46.6685427166521549224853515625" lon="6.85022511519491672515869140625">
        <ele>686.79998779296875</ele>
        <time>2013-08-15T16:09:43.000Z</time>
        <extensions>
          <ns3:TrackPointExtension>
            <ns3:atemp>21.0</ns3:atemp>
            <ns3:hr>140</ns3:hr>
          </ns3:TrackPointExtension>
        </extensions>
      </trkpt>
      <trkpt lat="46.6685242764651775360107421875" lon="6.85017951764166355133056640625">
        <ele>687</ele>
        <time>2013-08-15T16:09:44.000Z</time>
        <extensions>
          <ns3:TrackPointExtension>
            <ns3:atemp>21.0</ns3:atemp>
            <ns3:hr>140</ns3:hr>
          </ns3:TrackPointExtension>
        </extensions>
      </trkpt>
      <trkpt lat="46.66850357316434383392333984375" lon="6.85013987123966217041015625">
        <ele>687.20001220703125</ele>
        <time>2013-08-15T16:09:45.000Z</time>
        <extensions>
          <ns3:TrackPointExtension>
            <ns3:atemp>21.0</ns3:atemp>
            <ns3:hr>140</ns3:hr>
          </ns3:TrackPointExtension>
        </extensions>
      </trkpt>
      <trkpt lat="46.66848479770123958587646484375" lon="6.8501001410186290740966796875">
        <ele>687.4000244140625</ele>
        <time>2013-08-15T16:09:46.000Z</time>
        <extensions>
          <ns3:TrackPointExtension>
            <ns3:atemp>21.0</ns3:atemp>
            <ns3:hr>140</ns3:hr>
          </ns3:TrackPointExtension>
        </extensions>
      </trkpt>
      <trkpt lat="46.66846082545816898345947265625" lon="6.8500654399394989013671875">
        <ele>687.79998779296875</ele>
        <time>2013-08-15T16:09:47.000Z</time>
        <extensions>
          <ns3:TrackPointExtension>
            <ns3:atemp>21.0</ns3:atemp>
            <ns3:hr>140</ns3:hr>
          </ns3:TrackPointExtension>
        </extensions>
      </trkpt>
      <trkpt lat="46.66843534447252750396728515625" lon="6.8500364385545253753662109375">
        <ele>688</ele>
        <time>2013-08-15T16:09:48.000Z</time>
        <extensions>
          <ns3:TrackPointExtension>
            <ns3:atemp>21.0</ns3:atemp>
            <ns3:hr>141</ns3:hr>
          </ns3:TrackPointExtension>
        </extensions>
      </trkpt>
      <trkpt lat="46.66841338388621807098388671875" lon="6.8500025756657123565673828125">
        <ele>688.4000244140625</ele>
        <time>2013-08-15T16:09:49.000Z</time>
        <extensions>
          <ns3:TrackPointExtension>
            <ns3:atemp>21.0</ns3:atemp>
            <ns3:hr>141</ns3:hr>
          </ns3:TrackPointExtension>
        </extensions>
      </trkpt>
      <trkpt lat="46.66839301586151123046875" lon="6.849969215691089630126953125">
        <ele>688.79998779296875</ele>
        <time>2013-08-15T16:09:50.000Z</time>
        <extensions>
          <ns3:TrackPointExtension>
            <ns3:atemp>21.0</ns3:atemp>
            <ns3:hr>141</ns3:hr>
          </ns3:TrackPointExtension>
        </extensions>
      </trkpt>
      <trkpt lat="46.66837080381810665130615234375" lon="6.84993811883032321929931640625">
        <ele>689.20001220703125</ele>
        <time>2013-08-15T16:09:51.000Z</time>
        <extensions>
          <ns3:TrackPointExtension>
            <ns3:atemp>21.0</ns3:atemp>
            <ns3:hr>141</ns3:hr>
          </ns3:TrackPointExtension>
        </extensions>
      </trkpt>
      <trkpt lat="46.66835119016468524932861328125" lon="6.849904842674732208251953125">
        <ele>689.4000244140625</ele>
        <time>2013-08-15T16:09:52.000Z</time>
        <extensions>
          <ns3:TrackPointExtension>
            <ns3:atemp>21.0</ns3:atemp>
            <ns3:hr>142</ns3:hr>
          </ns3:TrackPointExtension>
        </extensions>
      </trkpt>
      <trkpt lat="46.668334342539310455322265625" lon="6.84986838139593601226806640625">
        <ele>689.79998779296875</ele>
        <time>2013-08-15T16:09:53.000Z</time>
        <extensions>
          <ns3:TrackPointExtension>
            <ns3:atemp>21.0</ns3:atemp>
            <ns3:hr>142</ns3:hr>
          </ns3:TrackPointExtension>
        </extensions>
      </trkpt>
      <trkpt lat="46.6683170758187770843505859375" lon="6.8498312495648860931396484375">
        <ele>690.20001220703125</ele>
        <time>2013-08-15T16:09:54.000Z</time>
        <extensions>
          <ns3:TrackPointExtension>
            <ns3:atemp>21.0</ns3:atemp>
            <ns3:hr>143</ns3:hr>
          </ns3:TrackPointExtension>
        </extensions>
      </trkpt>
      <trkpt lat="46.6682966239750385284423828125" lon="6.84979713521897792816162109375">
        <ele>690.5999755859375</ele>
        <time>2013-08-15T16:09:55.000Z</time>
        <extensions>
          <ns3:TrackPointExtension>
            <ns3:atemp>21.0</ns3:atemp>
            <ns3:hr>143</ns3:hr>
          </ns3:TrackPointExtension>
        </extensions>
      </trkpt>
      <trkpt lat="46.6682763397693634033203125" lon="6.849762015044689178466796875">
        <ele>690.79998779296875</ele>
        <time>2013-08-15T16:09:56.000Z</time>
        <extensions>
          <ns3:TrackPointExtension>
            <ns3:atemp>21.0</ns3:atemp>
            <ns3:hr>144</ns3:hr>
          </ns3:TrackPointExtension>
        </extensions>
      </trkpt>
      <trkpt lat="46.66825848631560802459716796875" lon="6.8497226200997829437255859375">
        <ele>691.20001220703125</ele>
        <time>2013-08-15T16:09:57.000Z</time>
        <extensions>
          <ns3:TrackPointExtension>
            <ns3:atemp>21.0</ns3:atemp>
            <ns3:hr>144</ns3:hr>
          </ns3:TrackPointExtension>
        </extensions>
      </trkpt>
      <trkpt lat="46.66824021376669406890869140625" lon="6.84968121349811553955078125">
        <ele>691.4000244140625</ele>
        <time>2013-08-15T16:09:58.000Z</time>
        <extensions>
          <ns3:TrackPointExtension>
            <ns3:atemp>21.0</ns3:atemp>
            <ns3:hr>144</ns3:hr>
          </ns3:TrackPointExtension>
        </extensions>
      </trkpt>
      <trkpt lat="46.66822194121778011322021484375" lon="6.8496398068964481353759765625">
        <ele>691.79998779296875</ele>
        <time>2013-08-15T16:09:59.000Z</time>
        <extensions>
          <ns3:TrackPointExtension>
            <ns3:atemp>21.0</ns3:atemp>
            <ns3:hr>145</ns3:hr>
          </ns3:TrackPointExtension>
        </extensions>
      </trkpt>
      <trkpt lat="46.6682014055550098419189453125" lon="6.849599070847034454345703125">
        <ele>692</ele>
        <time>2013-08-15T16:10:00.000Z</time>
        <extensions>
          <ns3:TrackPointExtension>
            <ns3:atemp>21.0</ns3:atemp>
            <ns3:hr>145</ns3:hr>
          </ns3:TrackPointExtension>
        </extensions>
      </trkpt>
      <trkpt lat="46.66817885823547840118408203125" lon="6.84956185519695281982421875">
        <ele>692.20001220703125</ele>
        <time>2013-08-15T16:10:01.000Z</time>
        <extensions>
          <ns3:TrackPointExtension>
            <ns3:atemp>21.0</ns3:atemp>
            <ns3:hr>145</ns3:hr>
          </ns3:TrackPointExtension>
        </extensions>
      </trkpt>
      <trkpt lat="46.6681564785540103912353515625" lon="6.8495238013565540313720703125">
        <ele>692.4000244140625</ele>
        <time>2013-08-15T16:10:02.000Z</time>
        <extensions>
          <ns3:TrackPointExtension>
            <ns3:atemp>21.0</ns3:atemp>
            <ns3:hr>145</ns3:hr>
          </ns3:TrackPointExtension>
        </extensions>
      </trkpt>
      <trkpt lat="46.668132841587066650390625" lon="6.84948666952550411224365234375">
        <ele>692.5999755859375</ele>
        <time>2013-08-15T16:10:03.000Z</time>
        <extensions>
          <ns3:TrackPointExtension>
            <ns3:atemp>21.0</ns3:atemp>
            <ns3:hr>145</ns3:hr>
          </ns3:TrackPointExtension>
        </extensions>
      </trkpt>
      <trkpt lat="46.6681061871349811553955078125" lon="6.84945532120764255523681640625">
        <ele>692.5999755859375</ele>
        <time>2013-08-15T16:10:04.000Z</time>
        <extensions>
          <ns3:TrackPointExtension>
            <ns3:atemp>21.0</ns3:atemp>
            <ns3:hr>146</ns3:hr>
          </ns3:TrackPointExtension>
        </extensions>
      </trkpt>
      <trkpt lat="46.6680763475596904754638671875" lon="6.84942564927041530609130859375">
        <ele>692.79998779296875</ele>
        <time>2013-08-15T16:10:05.000Z</time>
        <extensions>
          <ns3:TrackPointExtension>
            <ns3:atemp>21.0</ns3:atemp>
            <ns3:hr>146</ns3:hr>
          </ns3:TrackPointExtension>
        </extensions>
      </trkpt>
      <trkpt lat="46.66804625652730464935302734375" lon="6.84939849190413951873779296875">
        <ele>693</ele>
        <time>2013-08-15T16:10:06.000Z</time>
        <extensions>
          <ns3:TrackPointExtension>
            <ns3:atemp>21.0</ns3:atemp>
            <ns3:hr>146</ns3:hr>
          </ns3:TrackPointExtension>
        </extensions>
      </trkpt>
      <trkpt lat="46.66801507584750652313232421875" lon="6.8493719212710857391357421875">
        <ele>693.20001220703125</ele>
        <time>2013-08-15T16:10:07.000Z</time>
        <extensions>
          <ns3:TrackPointExtension>
            <ns3:atemp>21.0</ns3:atemp>
            <ns3:hr>146</ns3:hr>
          </ns3:TrackPointExtension>
        </extensions>
      </trkpt>
      <trkpt lat="46.66798406280577182769775390625" lon="6.84934417717158794403076171875">
        <ele>693.4000244140625</ele>
        <time>2013-08-15T16:10:08.000Z</time>
        <extensions>
          <ns3:TrackPointExtension>
            <ns3:atemp>21.0</ns3:atemp>
            <ns3:hr>146</ns3:hr>
          </ns3:TrackPointExtension>
        </extensions>
      </trkpt>
      <trkpt lat="46.667950116097927093505859375" lon="6.8493192829191684722900390625">
        <ele>693.4000244140625</ele>
        <time>2013-08-15T16:10:09.000Z</time>
        <extensions>
          <ns3:TrackPointExtension>
            <ns3:atemp>21.0</ns3:atemp>
            <ns3:hr>146</ns3:hr>
          </ns3:TrackPointExtension>
        </extensions>
      </trkpt>
      <trkpt lat="46.66791616939008235931396484375" lon="6.849297992885112762451171875">
        <ele>693.5999755859375</ele>
        <time>2013-08-15T16:10:10.000Z</time>
        <extensions>
          <ns3:TrackPointExtension>
            <ns3:atemp>21.0</ns3:atemp>
            <ns3:hr>146</ns3:hr>
          </ns3:TrackPointExtension>
        </extensions>
      </trkpt>
      <trkpt lat="46.6678820550441741943359375" lon="6.8492770381271839141845703125">
        <ele>693.5999755859375</ele>
        <time>2013-08-15T16:10:11.000Z</time>
        <extensions>
          <ns3:TrackPointExtension>
            <ns3:atemp>21.0</ns3:atemp>
            <ns3:hr>145</ns3:hr>
          </ns3:TrackPointExtension>
        </extensions>
      </trkpt>
      <trkpt lat="46.66785045526921749114990234375" lon="6.8492500483989715576171875">
        <ele>693.5999755859375</ele>
        <time>2013-08-15T16:10:12.000Z</time>
        <extensions>
          <ns3:TrackPointExtension>
            <ns3:atemp>21.0</ns3:atemp>
            <ns3:hr>146</ns3:hr>
          </ns3:TrackPointExtension>
        </extensions>
      </trkpt>
      <trkpt lat="46.66781726293265819549560546875" lon="6.84922766871750354766845703125">
        <ele>693.5999755859375</ele>
        <time>2013-08-15T16:10:13.000Z</time>
        <extensions>
          <ns3:TrackPointExtension>
            <ns3:atemp>21.0</ns3:atemp>
            <ns3:hr>146</ns3:hr>
          </ns3:TrackPointExtension>
        </extensions>
      </trkpt>
      <trkpt lat="46.66778440587222576141357421875" lon="6.8492073006927967071533203125">
        <ele>693.79998779296875</ele>
        <time>2013-08-15T16:10:14.000Z</time>
        <extensions>
          <ns3:TrackPointExtension>
            <ns3:atemp>21.0</ns3:atemp>
            <ns3:hr>145</ns3:hr>
          </ns3:TrackPointExtension>
        </extensions>
      </trkpt>
      <trkpt lat="46.66775087825953960418701171875" lon="6.84918726794421672821044921875">
        <ele>694</ele>
        <time>2013-08-15T16:10:15.000Z</time>
        <extensions>
          <ns3:TrackPointExtension>
            <ns3:atemp>21.0</ns3:atemp>
            <ns3:hr>146</ns3:hr>
          </ns3:TrackPointExtension>
        </extensions>
      </trkpt>
      <trkpt lat="46.66771718300879001617431640625" lon="6.84916798956692218780517578125">
        <ele>694.20001220703125</ele>
        <time>2013-08-15T16:10:16.000Z</time>
        <extensions>
          <ns3:TrackPointExtension>
            <ns3:atemp>21.0</ns3:atemp>
            <ns3:hr>146</ns3:hr>
          </ns3:TrackPointExtension>
        </extensions>
      </trkpt>
      <trkpt lat="46.66768298484385013580322265625" lon="6.84915038757026195526123046875">
        <ele>694.4000244140625</ele>
        <time>2013-08-15T16:10:17.000Z</time>
        <extensions>
          <ns3:TrackPointExtension>
            <ns3:atemp>21.0</ns3:atemp>
            <ns3:hr>146</ns3:hr>
          </ns3:TrackPointExtension>
        </extensions>
      </trkpt>
      <trkpt lat="46.66765096597373485565185546875" lon="6.84913094155490398406982421875">
        <ele>694.5999755859375</ele>
        <time>2013-08-15T16:10:18.000Z</time>
        <extensions>
          <ns3:TrackPointExtension>
            <ns3:atemp>21.0</ns3:atemp>
            <ns3:hr>146</ns3:hr>
          </ns3:TrackPointExtension>
        </extensions>
      </trkpt>
      <trkpt lat="46.66762045584619045257568359375" lon="6.84910831041634082794189453125">
        <ele>694.79998779296875</ele>
        <time>2013-08-15T16:10:19.000Z</time>
        <extensions>
          <ns3:TrackPointExtension>
            <ns3:atemp>21.0</ns3:atemp>
            <ns3:hr>145</ns3:hr>
          </ns3:TrackPointExtension>
        </extensions>
      </trkpt>
      <trkpt lat="46.66759128682315349578857421875" lon="6.8490842543542385101318359375">
        <ele>695</ele>
        <time>2013-08-15T16:10:20.000Z</time>
        <extensions>
          <ns3:TrackPointExtension>
            <ns3:atemp>21.0</ns3:atemp>
            <ns3:hr>146</ns3:hr>
          </ns3:TrackPointExtension>
        </extensions>
      </trkpt>
      <trkpt lat="46.667564548552036285400390625" lon="6.84905500151216983795166015625">
        <ele>695.4000244140625</ele>
        <time>2013-08-15T16:10:21.000Z</time>
        <extensions>
          <ns3:TrackPointExtension>
            <ns3:atemp>21.0</ns3:atemp>
            <ns3:hr>146</ns3:hr>
          </ns3:TrackPointExtension>
        </extensions>
      </trkpt>
      <trkpt lat="46.66753940284252166748046875" lon="6.849026419222354888916015625">
        <ele>695.5999755859375</ele>
        <time>2013-08-15T16:10:22.000Z</time>
        <extensions>
          <ns3:TrackPointExtension>
            <ns3:atemp>21.0</ns3:atemp>
            <ns3:hr>146</ns3:hr>
          </ns3:TrackPointExtension>
        </extensions>
      </trkpt>
      <trkpt lat="46.6675124131143093109130859375" lon="6.8490024469792842864990234375">
        <ele>696.4000244140625</ele>
        <time>2013-08-15T16:10:23.000Z</time>
        <extensions>
          <ns3:TrackPointExtension>
            <ns3:atemp>21.0</ns3:atemp>
            <ns3:hr>146</ns3:hr>
          </ns3:TrackPointExtension>
        </extensions>
      </trkpt>
      <trkpt lat="46.66748584248125553131103515625" lon="6.84897654689848423004150390625">
        <ele>696.79998779296875</ele>
        <time>2013-08-15T16:10:24.000Z</time>
        <extensions>
          <ns3:TrackPointExtension>
            <ns3:atemp>21.0</ns3:atemp>
            <ns3:hr>146</ns3:hr>
          </ns3:TrackPointExtension>
        </extensions>
      </trkpt>
      <trkpt lat="46.667457260191440582275390625" lon="6.8489571847021579742431640625">
        <ele>697.20001220703125</ele>
        <time>2013-08-15T16:10:25.000Z</time>
        <extensions>
          <ns3:TrackPointExtension>
            <ns3:atemp>21.0</ns3:atemp>
            <ns3:hr>147</ns3:hr>
          </ns3:TrackPointExtension>
        </extensions>
      </trkpt>
      <trkpt lat="46.66742633096873760223388671875" lon="6.84894452802836894989013671875">
        <ele>697.5999755859375</ele>
        <time>2013-08-15T16:10:26.000Z</time>
        <extensions>
          <ns3:TrackPointExtension>
            <ns3:atemp>21.0</ns3:atemp>
            <ns3:hr>147</ns3:hr>
          </ns3:TrackPointExtension>
        </extensions>
      </trkpt>
      <trkpt lat="46.66739632375538349151611328125" lon="6.84892390854656696319580078125">
        <ele>698</ele>
        <time>2013-08-15T16:10:27.000Z</time>
        <extensions>
          <ns3:TrackPointExtension>
            <ns3:atemp>21.0</ns3:atemp>
            <ns3:hr>147</ns3:hr>
          </ns3:TrackPointExtension>
        </extensions>
      </trkpt>
      <trkpt lat="46.667368747293949127197265625" lon="6.84890178032219409942626953125">
        <ele>698.20001220703125</ele>
        <time>2013-08-15T16:10:28.000Z</time>
        <extensions>
          <ns3:TrackPointExtension>
            <ns3:atemp>21.0</ns3:atemp>
            <ns3:hr>147</ns3:hr>
          </ns3:TrackPointExtension>
        </extensions>
      </trkpt>
      <trkpt lat="46.66734117083251476287841796875" lon="6.8488794006407260894775390625">
        <ele>698.5999755859375</ele>
        <time>2013-08-15T16:10:29.000Z</time>
        <extensions>
          <ns3:TrackPointExtension>
            <ns3:atemp>21.0</ns3:atemp>
            <ns3:hr>148</ns3:hr>
          </ns3:TrackPointExtension>
        </extensions>
      </trkpt>
      <trkpt lat="46.6673134267330169677734375" lon="6.848857104778289794921875">
        <ele>698.79998779296875</ele>
        <time>2013-08-15T16:10:30.000Z</time>
        <extensions>
          <ns3:TrackPointExtension>
            <ns3:atemp>21.0</ns3:atemp>
            <ns3:hr>148</ns3:hr>
          </ns3:TrackPointExtension>
        </extensions>
      </trkpt>
      <trkpt lat="46.66728467680513858795166015625" lon="6.84883908368647098541259765625">
        <ele>699.20001220703125</ele>
        <time>2013-08-15T16:10:31.000Z</time>
        <extensions>
          <ns3:TrackPointExtension>
            <ns3:atemp>21.0</ns3:atemp>
            <ns3:hr>148</ns3:hr>
          </ns3:TrackPointExtension>
        </extensions>
      </trkpt>
      <trkpt lat="46.6672539152204990386962890625" lon="6.84882483445107936859130859375">
        <ele>699.4000244140625</ele>
        <time>2013-08-15T16:10:32.000Z</time>
        <extensions>
          <ns3:TrackPointExtension>
            <ns3:atemp>21.0</ns3:atemp>
            <ns3:hr>149</ns3:hr>
          </ns3:TrackPointExtension>
        </extensions>
      </trkpt>
      <trkpt lat="46.66722265072166919708251953125" lon="6.8488126806914806365966796875">
        <ele>699.79998779296875</ele>
        <time>2013-08-15T16:10:33.000Z</time>
        <extensions>
          <ns3:TrackPointExtension>
            <ns3:atemp>21.0</ns3:atemp>
            <ns3:hr>149</ns3:hr>
          </ns3:TrackPointExtension>
        </extensions>
      </trkpt>
      <trkpt lat="46.6671915538609027862548828125" lon="6.84879767708480358123779296875">
        <ele>700</ele>
        <time>2013-08-15T16:10:34.000Z</time>
        <extensions>
          <ns3:TrackPointExtension>
            <ns3:atemp>21.0</ns3:atemp>
            <ns3:hr>149</ns3:hr>
          </ns3:TrackPointExtension>
        </extensions>
      </trkpt>
      <trkpt lat="46.66715995408594608306884765625" lon="6.84879030101001262664794921875">
        <ele>700.20001220703125</ele>
        <time>2013-08-15T16:10:35.000Z</time>
        <extensions>
          <ns3:TrackPointExtension>
            <ns3:atemp>21.0</ns3:atemp>
            <ns3:hr>149</ns3:hr>
          </ns3:TrackPointExtension>
        </extensions>
      </trkpt>
      <trkpt lat="46.66712743230164051055908203125" lon="6.84878828935325145721435546875">
        <ele>700.4000244140625</ele>
        <time>2013-08-15T16:10:36.000Z</time>
        <extensions>
          <ns3:TrackPointExtension>
            <ns3:atemp>21.0</ns3:atemp>
            <ns3:hr>149</ns3:hr>
          </ns3:TrackPointExtension>
        </extensions>
      </trkpt>
      <trkpt lat="46.66709549725055694580078125" lon="6.84878275729715824127197265625">
        <ele>700.79998779296875</ele>
        <time>2013-08-15T16:10:37.000Z</time>
        <extensions>
          <ns3:TrackPointExtension>
            <ns3:atemp>21.0</ns3:atemp>
            <ns3:hr>150</ns3:hr>
          </ns3:TrackPointExtension>
        </extensions>
      </trkpt>
      <trkpt lat="46.66706440038979053497314453125" lon="6.84878208674490451812744140625">
        <ele>701</ele>
        <time>2013-08-15T16:10:38.000Z</time>
        <extensions>
          <ns3:TrackPointExtension>
            <ns3:atemp>21.0</ns3:atemp>
            <ns3:hr>150</ns3:hr>
          </ns3:TrackPointExtension>
        </extensions>
      </trkpt>
      <trkpt lat="46.66703439317643642425537109375" lon="6.84877865016460418701171875">
        <ele>701.20001220703125</ele>
        <time>2013-08-15T16:10:39.000Z</time>
        <extensions>
          <ns3:TrackPointExtension>
            <ns3:atemp>21.0</ns3:atemp>
            <ns3:hr>150</ns3:hr>
          </ns3:TrackPointExtension>
        </extensions>
      </trkpt>
      <trkpt lat="46.66700254194438457489013671875" lon="6.84877655468881130218505859375">
        <ele>701.4000244140625</ele>
        <time>2013-08-15T16:10:40.000Z</time>
        <extensions>
          <ns3:TrackPointExtension>
            <ns3:atemp>21.0</ns3:atemp>
            <ns3:hr>150</ns3:hr>
          </ns3:TrackPointExtension>
        </extensions>
      </trkpt>
      <trkpt lat="46.6669719479978084564208984375" lon="6.8487664125859737396240234375">
        <ele>701.79998779296875</ele>
        <time>2013-08-15T16:10:41.000Z</time>
        <extensions>
          <ns3:TrackPointExtension>
            <ns3:atemp>21.0</ns3:atemp>
            <ns3:hr>150</ns3:hr>
          </ns3:TrackPointExtension>
        </extensions>
      </trkpt>
      <trkpt lat="46.666941605508327484130859375" lon="6.8487580306828022003173828125">
        <ele>702</ele>
        <time>2013-08-15T16:10:42.000Z</time>
        <extensions>
          <ns3:TrackPointExtension>
            <ns3:atemp>21.0</ns3:atemp>
            <ns3:hr>150</ns3:hr>
          </ns3:TrackPointExtension>
        </extensions>
      </trkpt>
      <trkpt lat="46.66691235266625881195068359375" lon="6.84874889440834522247314453125">
        <ele>702.4000244140625</ele>
        <time>2013-08-15T16:10:43.000Z</time>
        <extensions>
          <ns3:TrackPointExtension>
            <ns3:atemp>21.0</ns3:atemp>
            <ns3:hr>150</ns3:hr>
          </ns3:TrackPointExtension>
        </extensions>
      </trkpt>
      <trkpt lat="46.66688050143420696258544921875" lon="6.848743446171283721923828125">
        <ele>702.5999755859375</ele>
        <time>2013-08-15T16:10:44.000Z</time>
        <extensions>
          <ns3:TrackPointExtension>
            <ns3:atemp>21.0</ns3:atemp>
            <ns3:hr>149</ns3:hr>
          </ns3:TrackPointExtension>
        </extensions>
      </trkpt>
      <trkpt lat="46.66685166768729686737060546875" lon="6.848729364573955535888671875">
        <ele>703</ele>
        <time>2013-08-15T16:10:45.000Z</time>
        <extensions>
          <ns3:TrackPointExtension>
            <ns3:atemp>21.0</ns3:atemp>
            <ns3:hr>149</ns3:hr>
          </ns3:TrackPointExtension>
        </extensions>
      </trkpt>
      <trkpt lat="46.66682300157845020294189453125" lon="6.84871201403439044952392578125">
        <ele>703.4000244140625</ele>
        <time>2013-08-15T16:10:46.000Z</time>
        <extensions>
          <ns3:TrackPointExtension>
            <ns3:atemp>21.0</ns3:atemp>
            <ns3:hr>149</ns3:hr>
          </ns3:TrackPointExtension>
        </extensions>
      </trkpt>
      <trkpt lat="46.66679718531668186187744140625" lon="6.84869709424674510955810546875">
        <ele>704.20001220703125</ele>
        <time>2013-08-15T16:10:47.000Z</time>
        <extensions>
          <ns3:TrackPointExtension>
            <ns3:atemp>21.0</ns3:atemp>
            <ns3:hr>149</ns3:hr>
          </ns3:TrackPointExtension>
        </extensions>
      </trkpt>
      <trkpt lat="46.6667717881500720977783203125" lon="6.84867731295526027679443359375">
        <ele>704.5999755859375</ele>
        <time>2013-08-15T16:10:48.000Z</time>
        <extensions>
          <ns3:TrackPointExtension>
            <ns3:atemp>21.0</ns3:atemp>
            <ns3:hr>149</ns3:hr>
          </ns3:TrackPointExtension>
        </extensions>
      </trkpt>
      <trkpt lat="46.66674823500216007232666015625" lon="6.8486567772924900054931640625">
        <ele>704.79998779296875</ele>
        <time>2013-08-15T16:10:49.000Z</time>
        <extensions>
          <ns3:TrackPointExtension>
            <ns3:atemp>21.0</ns3:atemp>
            <ns3:hr>148</ns3:hr>
          </ns3:TrackPointExtension>
        </extensions>
      </trkpt>
      <trkpt lat="46.666724346578121185302734375" lon="6.84863791801035404205322265625">
        <ele>705</ele>
        <time>2013-08-15T16:10:50.000Z</time>
        <extensions>
          <ns3:TrackPointExtension>
            <ns3:atemp>21.0</ns3:atemp>
            <ns3:hr>149</ns3:hr>
          </ns3:TrackPointExtension>
        </extensions>
      </trkpt>
      <trkpt lat="46.6667040623724460601806640625" lon="6.84862819500267505645751953125">
        <ele>705.20001220703125</ele>
        <time>2013-08-15T16:10:51.000Z</time>
        <extensions>
          <ns3:TrackPointExtension>
            <ns3:atemp>21.0</ns3:atemp>
            <ns3:hr>148</ns3:hr>
          </ns3:TrackPointExtension>
        </extensions>
      </trkpt>
      <trkpt lat="46.666682101786136627197265625" lon="6.848610676825046539306640625">
        <ele>705.4000244140625</ele>
        <time>2013-08-15T16:10:52.000Z</time>
        <extensions>
          <ns3:TrackPointExtension>
            <ns3:atemp>21.0</ns3:atemp>
            <ns3:hr>148</ns3:hr>
          </ns3:TrackPointExtension>
        </extensions>
      </trkpt>
      <trkpt lat="46.66666240431368350982666015625" lon="6.848585866391658782958984375">
        <ele>705.5999755859375</ele>
        <time>2013-08-15T16:10:53.000Z</time>
        <extensions>
          <ns3:TrackPointExtension>
            <ns3:atemp>21.0</ns3:atemp>
            <ns3:hr>148</ns3:hr>
          </ns3:TrackPointExtension>
        </extensions>
      </trkpt>
      <trkpt lat="46.6666470654308795928955078125" lon="6.84856398962438106536865234375">
        <ele>706</ele>
        <time>2013-08-15T16:10:54.000Z</time>
        <extensions>
          <ns3:TrackPointExtension>
            <ns3:atemp>21.0</ns3:atemp>
            <ns3:hr>148</ns3:hr>
          </ns3:TrackPointExtension>
        </extensions>
      </trkpt>
      <trkpt lat="46.66663021780550479888916015625" lon="6.8485404364764690399169921875">
        <ele>706.20001220703125</ele>
        <time>2013-08-15T16:10:55.000Z</time>
        <extensions>
          <ns3:TrackPointExtension>
            <ns3:atemp>21.0</ns3:atemp>
            <ns3:hr>149</ns3:hr>
          </ns3:TrackPointExtension>
        </extensions>
      </trkpt>
      <trkpt lat="46.66660691611468791961669921875" lon="6.84852208010852336883544921875">
        <ele>706.4000244140625</ele>
        <time>2013-08-15T16:10:56.000Z</time>
        <extensions>
          <ns3:TrackPointExtension>
            <ns3:atemp>21.0</ns3:atemp>
            <ns3:hr>149</ns3:hr>
          </ns3:TrackPointExtension>
        </extensions>
      </trkpt>
      <trkpt lat="46.66658696718513965606689453125" lon="6.84850112535059452056884765625">
        <ele>706.5999755859375</ele>
        <time>2013-08-15T16:10:57.000Z</time>
        <extensions>
          <ns3:TrackPointExtension>
            <ns3:atemp>21.0</ns3:atemp>
            <ns3:hr>149</ns3:hr>
          </ns3:TrackPointExtension>
        </extensions>
      </trkpt>
      <trkpt lat="46.6665665991604328155517578125" lon="6.848479248583316802978515625">
        <ele>707</ele>
        <time>2013-08-15T16:10:58.000Z</time>
        <extensions>
          <ns3:TrackPointExtension>
            <ns3:atemp>21.0</ns3:atemp>
            <ns3:hr>149</ns3:hr>
          </ns3:TrackPointExtension>
        </extensions>
      </trkpt>
      <trkpt lat="46.66654740460216999053955078125" lon="6.84845686890184879302978515625">
        <ele>707.4000244140625</ele>
        <time>2013-08-15T16:10:59.000Z</time>
        <extensions>
          <ns3:TrackPointExtension>
            <ns3:atemp>21.0</ns3:atemp>
            <ns3:hr>149</ns3:hr>
          </ns3:TrackPointExtension>
        </extensions>
      </trkpt>
      <trkpt lat="46.66652955114841461181640625" lon="6.848432309925556182861328125">
        <ele>707.79998779296875</ele>
        <time>2013-08-15T16:11:00.000Z</time>
        <extensions>
          <ns3:TrackPointExtension>
            <ns3:atemp>21.0</ns3:atemp>
            <ns3:hr>149</ns3:hr>
          </ns3:TrackPointExtension>
        </extensions>
      </trkpt>
      <trkpt lat="46.66651614010334014892578125" lon="6.84840221889317035675048828125">
        <ele>708</ele>
        <time>2013-08-15T16:11:01.000Z</time>
        <extensions>
          <ns3:TrackPointExtension>
            <ns3:atemp>21.0</ns3:atemp>
            <ns3:hr>149</ns3:hr>
          </ns3:TrackPointExtension>
        </extensions>
      </trkpt>
      <trkpt lat="46.66650583036243915557861328125" lon="6.848368942737579345703125">
        <ele>708.4000244140625</ele>
        <time>2013-08-15T16:11:02.000Z</time>
        <extensions>
          <ns3:TrackPointExtension>
            <ns3:atemp>22.0</ns3:atemp>
            <ns3:hr>150</ns3:hr>
          </ns3:TrackPointExtension>
        </extensions>
      </trkpt>
      <trkpt lat="46.66649308986961841583251953125" lon="6.8483399413526058197021484375">
        <ele>708.5999755859375</ele>
        <time>2013-08-15T16:11:03.000Z</time>
        <extensions>
          <ns3:TrackPointExtension>
            <ns3:atemp>22.0</ns3:atemp>
            <ns3:hr>150</ns3:hr>
          </ns3:TrackPointExtension>
        </extensions>
      </trkpt>
      <trkpt lat="46.66647515259683132171630859375" lon="6.8483166396617889404296875">
        <ele>709</ele>
        <time>2013-08-15T16:11:04.000Z</time>
        <extensions>
          <ns3:TrackPointExtension>
            <ns3:atemp>22.0</ns3:atemp>
            <ns3:hr>150</ns3:hr>
          </ns3:TrackPointExtension>
        </extensions>
      </trkpt>
      <trkpt lat="46.66645637713372707366943359375" lon="6.848298199474811553955078125">
        <ele>709.4000244140625</ele>
        <time>2013-08-15T16:11:05.000Z</time>
        <extensions>
          <ns3:TrackPointExtension>
            <ns3:atemp>22.0</ns3:atemp>
            <ns3:hr>150</ns3:hr>
          </ns3:TrackPointExtension>
        </extensions>
      </trkpt>
      <trkpt lat="46.66643441654741764068603515625" lon="6.84828084893524646759033203125">
        <ele>709.5999755859375</ele>
        <time>2013-08-15T16:11:06.000Z</time>
        <extensions>
          <ns3:TrackPointExtension>
            <ns3:atemp>22.0</ns3:atemp>
            <ns3:hr>151</ns3:hr>
          </ns3:TrackPointExtension>
        </extensions>
      </trkpt>
      <trkpt lat="46.666411198675632476806640625" lon="6.848266683518886566162109375">
        <ele>710</ele>
        <time>2013-08-15T16:11:07.000Z</time>
        <extensions>
          <ns3:TrackPointExtension>
            <ns3:atemp>22.0</ns3:atemp>
            <ns3:hr>151</ns3:hr>
          </ns3:TrackPointExtension>
        </extensions>
      </trkpt>
      <trkpt lat="46.66639016009867191314697265625" lon="6.84825000353157520294189453125">
        <ele>710.4000244140625</ele>
        <time>2013-08-15T16:11:08.000Z</time>
        <extensions>
          <ns3:TrackPointExtension>
            <ns3:atemp>22.0</ns3:atemp>
            <ns3:hr>151</ns3:hr>
          </ns3:TrackPointExtension>
        </extensions>
      </trkpt>
      <trkpt lat="46.6663687862455844879150390625" lon="6.84823215007781982421875">
        <ele>710.79998779296875</ele>
        <time>2013-08-15T16:11:09.000Z</time>
        <extensions>
          <ns3:TrackPointExtension>
            <ns3:atemp>22.0</ns3:atemp>
            <ns3:hr>151</ns3:hr>
          </ns3:TrackPointExtension>
        </extensions>
      </trkpt>
      <trkpt lat="46.666346825659275054931640625" lon="6.84820658527314662933349609375">
        <ele>711</ele>
        <time>2013-08-15T16:11:10.000Z</time>
        <extensions>
          <ns3:TrackPointExtension>
            <ns3:atemp>22.0</ns3:atemp>
            <ns3:hr>151</ns3:hr>
          </ns3:TrackPointExtension>
        </extensions>
      </trkpt>
      <trkpt lat="46.66633014567196369171142578125" lon="6.84818378649652004241943359375">
        <ele>711.5999755859375</ele>
        <time>2013-08-15T16:11:11.000Z</time>
        <extensions>
          <ns3:TrackPointExtension>
            <ns3:atemp>22.0</ns3:atemp>
            <ns3:hr>152</ns3:hr>
          </ns3:TrackPointExtension>
        </extensions>
      </trkpt>
      <trkpt lat="46.66631287895143032073974609375" lon="6.84815905988216400146484375">
        <ele>712</ele>
        <time>2013-08-15T16:11:12.000Z</time>
        <extensions>
          <ns3:TrackPointExtension>
            <ns3:atemp>22.0</ns3:atemp>
            <ns3:hr>152</ns3:hr>
          </ns3:TrackPointExtension>
        </extensions>
      </trkpt>
      <trkpt lat="46.6662936843931674957275390625" lon="6.84813584201037883758544921875">
        <ele>712.4000244140625</ele>
        <time>2013-08-15T16:11:13.000Z</time>
        <extensions>
          <ns3:TrackPointExtension>
            <ns3:atemp>22.0</ns3:atemp>
            <ns3:hr>152</ns3:hr>
          </ns3:TrackPointExtension>
        </extensions>
      </trkpt>
      <trkpt lat="46.66627733968198299407958984375" lon="6.8481079302728176116943359375">
        <ele>712.79998779296875</ele>
        <time>2013-08-15T16:11:14.000Z</time>
        <extensions>
          <ns3:TrackPointExtension>
            <ns3:atemp>22.0</ns3:atemp>
            <ns3:hr>152</ns3:hr>
          </ns3:TrackPointExtension>
        </extensions>
      </trkpt>
      <trkpt lat="46.6662618331611156463623046875" lon="6.8480787612497806549072265625">
        <ele>713</ele>
        <time>2013-08-15T16:11:15.000Z</time>
        <extensions>
          <ns3:TrackPointExtension>
            <ns3:atemp>22.0</ns3:atemp>
            <ns3:hr>152</ns3:hr>
          </ns3:TrackPointExtension>
        </extensions>
      </trkpt>
      <trkpt lat="46.66624431498348712921142578125" lon="6.8480516038835048675537109375">
        <ele>713.4000244140625</ele>
        <time>2013-08-15T16:11:16.000Z</time>
        <extensions>
          <ns3:TrackPointExtension>
            <ns3:atemp>22.0</ns3:atemp>
            <ns3:hr>153</ns3:hr>
          </ns3:TrackPointExtension>
        </extensions>
      </trkpt>
      <trkpt lat="46.6662296466529369354248046875" lon="6.8480190820991992950439453125">
        <ele>713.79998779296875</ele>
        <time>2013-08-15T16:11:17.000Z</time>
        <extensions>
          <ns3:TrackPointExtension>
            <ns3:atemp>22.0</ns3:atemp>
            <ns3:hr>153</ns3:hr>
          </ns3:TrackPointExtension>
        </extensions>
      </trkpt>
      <trkpt lat="46.6662202589213848114013671875" lon="6.8479875661432743072509765625">
        <ele>714.20001220703125</ele>
        <time>2013-08-15T16:11:18.000Z</time>
        <extensions>
          <ns3:TrackPointExtension>
            <ns3:atemp>22.0</ns3:atemp>
            <ns3:hr>153</ns3:hr>
          </ns3:TrackPointExtension>
        </extensions>
      </trkpt>
      <trkpt lat="46.666210032999515533447265625" lon="6.84795982204377651214599609375">
        <ele>714.5999755859375</ele>
        <time>2013-08-15T16:11:19.000Z</time>
        <extensions>
          <ns3:TrackPointExtension>
            <ns3:atemp>22.0</ns3:atemp>
            <ns3:hr>153</ns3:hr>
          </ns3:TrackPointExtension>
        </extensions>
      </trkpt>
      <trkpt lat="46.666202656924724578857421875" lon="6.84792730025947093963623046875">
        <ele>715</ele>
        <time>2013-08-15T16:11:20.000Z</time>
        <extensions>
          <ns3:TrackPointExtension>
            <ns3:atemp>22.0</ns3:atemp>
            <ns3:hr>153</ns3:hr>
          </ns3:TrackPointExtension>
        </extensions>
      </trkpt>
      <trkpt lat="46.66619737632572650909423828125" lon="6.8478928506374359130859375">
        <ele>715.4000244140625</ele>
        <time>2013-08-15T16:11:21.000Z</time>
        <extensions>
          <ns3:TrackPointExtension>
            <ns3:atemp>22.0</ns3:atemp>
            <ns3:hr>153</ns3:hr>
          </ns3:TrackPointExtension>
        </extensions>
      </trkpt>
      <trkpt lat="46.6661984659731388092041015625" lon="6.8478611670434474945068359375">
        <ele>715.79998779296875</ele>
        <time>2013-08-15T16:11:22.000Z</time>
        <extensions>
          <ns3:TrackPointExtension>
            <ns3:atemp>22.0</ns3:atemp>
            <ns3:hr>154</ns3:hr>
          </ns3:TrackPointExtension>
        </extensions>
      </trkpt>
      <trkpt lat="46.6662055067718029022216796875" lon="6.8478249572217464447021484375">
        <ele>716.20001220703125</ele>
        <time>2013-08-15T16:11:23.000Z</time>
        <extensions>
          <ns3:TrackPointExtension>
            <ns3:atemp>22.0</ns3:atemp>
            <ns3:hr>154</ns3:hr>
          </ns3:TrackPointExtension>
        </extensions>
      </trkpt>
      <trkpt lat="46.666213385760784149169921875" lon="6.84779754839837551116943359375">
        <ele>716.5999755859375</ele>
        <time>2013-08-15T16:11:24.000Z</time>
        <extensions>
          <ns3:TrackPointExtension>
            <ns3:atemp>22.0</ns3:atemp>
            <ns3:hr>155</ns3:hr>
          </ns3:TrackPointExtension>
        </extensions>
      </trkpt>
      <trkpt lat="46.66622671298682689666748046875" lon="6.8477783538401126861572265625">
        <ele>717</ele>
        <time>2013-08-15T16:11:25.000Z</time>
        <extensions>
          <ns3:TrackPointExtension>
            <ns3:atemp>22.0</ns3:atemp>
            <ns3:hr>155</ns3:hr>
          </ns3:TrackPointExtension>
        </extensions>
      </trkpt>
      <trkpt lat="46.66624255478382110595703125" lon="6.84775664471089839935302734375">
        <ele>717.20001220703125</ele>
        <time>2013-08-15T16:11:26.000Z</time>
        <extensions>
          <ns3:TrackPointExtension>
            <ns3:atemp>22.0</ns3:atemp>
            <ns3:hr>156</ns3:hr>
          </ns3:TrackPointExtension>
        </extensions>
      </trkpt>
      <trkpt lat="46.666264347732067108154296875" lon="6.8477434851229190826416015625">
        <ele>717.4000244140625</ele>
        <time>2013-08-15T16:11:27.000Z</time>
        <extensions>
          <ns3:TrackPointExtension>
            <ns3:atemp>22.0</ns3:atemp>
            <ns3:hr>156</ns3:hr>
          </ns3:TrackPointExtension>
        </extensions>
      </trkpt>
      <trkpt lat="46.666281111538410186767578125" lon="6.847720183432102203369140625">
        <ele>717.5999755859375</ele>
        <time>2013-08-15T16:11:28.000Z</time>
        <extensions>
          <ns3:TrackPointExtension>
            <ns3:atemp>22.0</ns3:atemp>
            <ns3:hr>156</ns3:hr>
          </ns3:TrackPointExtension>
        </extensions>
      </trkpt>
      <trkpt lat="46.66629611514508724212646484375" lon="6.84769026003777980804443359375">
        <ele>717.79998779296875</ele>
        <time>2013-08-15T16:11:29.000Z</time>
        <extensions>
          <ns3:TrackPointExtension>
            <ns3:atemp>22.0</ns3:atemp>
            <ns3:hr>157</ns3:hr>
          </ns3:TrackPointExtension>
        </extensions>
      </trkpt>
      <trkpt lat="46.66630131192505359649658203125" lon="6.847650445997714996337890625">
        <ele>718.20001220703125</ele>
        <time>2013-08-15T16:11:30.000Z</time>
        <extensions>
          <ns3:TrackPointExtension>
            <ns3:atemp>22.0</ns3:atemp>
            <ns3:hr>157</ns3:hr>
          </ns3:TrackPointExtension>
        </extensions>
      </trkpt>
      <trkpt lat="46.6662920080125331878662109375" lon="6.84761214070022106170654296875">
        <ele>718.4000244140625</ele>
        <time>2013-08-15T16:11:31.000Z</time>
        <extensions>
          <ns3:TrackPointExtension>
            <ns3:atemp>22.0</ns3:atemp>
            <ns3:hr>157</ns3:hr>
          </ns3:TrackPointExtension>
        </extensions>
      </trkpt>
      <trkpt lat="46.6662796027958393096923828125" lon="6.847579367458820343017578125">
        <ele>718.4000244140625</ele>
        <time>2013-08-15T16:11:32.000Z</time>
        <extensions>
          <ns3:TrackPointExtension>
            <ns3:atemp>22.0</ns3:atemp>
            <ns3:hr>157</ns3:hr>
          </ns3:TrackPointExtension>
        </extensions>
      </trkpt>
      <trkpt lat="46.6662702150642871856689453125" lon="6.8475520424544811248779296875">
        <ele>718.5999755859375</ele>
        <time>2013-08-15T16:11:33.000Z</time>
        <extensions>
          <ns3:TrackPointExtension>
            <ns3:atemp>22.0</ns3:atemp>
            <ns3:hr>157</ns3:hr>
          </ns3:TrackPointExtension>
        </extensions>
      </trkpt>
      <trkpt lat="46.66625504381954669952392578125" lon="6.84752848930656909942626953125">
        <ele>718.79998779296875</ele>
        <time>2013-08-15T16:11:34.000Z</time>
        <extensions>
          <ns3:TrackPointExtension>
            <ns3:atemp>22.0</ns3:atemp>
            <ns3:hr>157</ns3:hr>
          </ns3:TrackPointExtension>
        </extensions>
      </trkpt>
      <trkpt lat="46.6662423871457576751708984375" lon="6.84750468470156192779541015625">
        <ele>719.4000244140625</ele>
        <time>2013-08-15T16:11:35.000Z</time>
        <extensions>
          <ns3:TrackPointExtension>
            <ns3:atemp>22.0</ns3:atemp>
            <ns3:hr>157</ns3:hr>
          </ns3:TrackPointExtension>
        </extensions>
      </trkpt>
      <trkpt lat="46.66622520424425601959228515625" lon="6.84748406521975994110107421875">
        <ele>719.79998779296875</ele>
        <time>2013-08-15T16:11:36.000Z</time>
        <extensions>
          <ns3:TrackPointExtension>
            <ns3:atemp>22.0</ns3:atemp>
            <ns3:hr>158</ns3:hr>
          </ns3:TrackPointExtension>
        </extensions>
      </trkpt>
      <trkpt lat="46.66620391421020030975341796875" lon="6.84746378101408481597900390625">
        <ele>720</ele>
        <time>2013-08-15T16:11:37.000Z</time>
        <extensions>
          <ns3:TrackPointExtension>
            <ns3:atemp>22.0</ns3:atemp>
            <ns3:hr>158</ns3:hr>
          </ns3:TrackPointExtension>
        </extensions>
      </trkpt>
      <trkpt lat="46.6661863960325717926025390625" lon="6.84744634665548801422119140625">
        <ele>720.20001220703125</ele>
        <time>2013-08-15T16:11:38.000Z</time>
        <extensions>
          <ns3:TrackPointExtension>
            <ns3:atemp>22.0</ns3:atemp>
            <ns3:hr>158</ns3:hr>
          </ns3:TrackPointExtension>
        </extensions>
      </trkpt>
      <trkpt lat="46.6661706380546092987060546875" lon="6.847424469888210296630859375">
        <ele>720.20001220703125</ele>
        <time>2013-08-15T16:11:39.000Z</time>
        <extensions>
          <ns3:TrackPointExtension>
            <ns3:atemp>22.0</ns3:atemp>
            <ns3:hr>158</ns3:hr>
          </ns3:TrackPointExtension>
        </extensions>
      </trkpt>
      <trkpt lat="46.66615127585828304290771484375" lon="6.8473974801599979400634765625">
        <ele>720.5999755859375</ele>
        <time>2013-08-15T16:11:40.000Z</time>
        <extensions>
          <ns3:TrackPointExtension>
            <ns3:atemp>22.0</ns3:atemp>
            <ns3:hr>157</ns3:hr>
          </ns3:TrackPointExtension>
        </extensions>
      </trkpt>
      <trkpt lat="46.66613467969000339508056640625" lon="6.8473719991743564605712890625">
        <ele>720.79998779296875</ele>
        <time>2013-08-15T16:11:41.000Z</time>
        <extensions>
          <ns3:TrackPointExtension>
            <ns3:atemp>22.0</ns3:atemp>
            <ns3:hr>158</ns3:hr>
          </ns3:TrackPointExtension>
        </extensions>
      </trkpt>
      <trkpt lat="46.6661247052252292633056640625" lon="6.84734366834163665771484375">
        <ele>721.20001220703125</ele>
        <time>2013-08-15T16:11:42.000Z</time>
        <extensions>
          <ns3:TrackPointExtension>
            <ns3:atemp>22.0</ns3:atemp>
            <ns3:hr>158</ns3:hr>
          </ns3:TrackPointExtension>
        </extensions>
      </trkpt>
      <trkpt lat="46.66611506603658199310302734375" lon="6.8473190255463123321533203125">
        <ele>721.4000244140625</ele>
        <time>2013-08-15T16:11:43.000Z</time>
        <extensions>
          <ns3:TrackPointExtension>
            <ns3:atemp>22.0</ns3:atemp>
            <ns3:hr>158</ns3:hr>
          </ns3:TrackPointExtension>
        </extensions>
      </trkpt>
      <trkpt lat="46.666102074086666107177734375" lon="6.847292371094226837158203125">
        <ele>721.5999755859375</ele>
        <time>2013-08-15T16:11:44.000Z</time>
        <extensions>
          <ns3:TrackPointExtension>
            <ns3:atemp>22.0</ns3:atemp>
            <ns3:hr>158</ns3:hr>
          </ns3:TrackPointExtension>
        </extensions>
      </trkpt>
      <trkpt lat="46.66608874686062335968017578125" lon="6.84726588428020477294921875">
        <ele>721.79998779296875</ele>
        <time>2013-08-15T16:11:45.000Z</time>
        <extensions>
          <ns3:TrackPointExtension>
            <ns3:atemp>22.0</ns3:atemp>
            <ns3:hr>158</ns3:hr>
          </ns3:TrackPointExtension>
        </extensions>
      </trkpt>
      <trkpt lat="46.66607483290135860443115234375" lon="6.84724082238972187042236328125">
        <ele>722</ele>
        <time>2013-08-15T16:11:46.000Z</time>
        <extensions>
          <ns3:TrackPointExtension>
            <ns3:atemp>22.0</ns3:atemp>
            <ns3:hr>158</ns3:hr>
          </ns3:TrackPointExtension>
        </extensions>
      </trkpt>
      <trkpt lat="46.66606158949434757232666015625" lon="6.84722372330725193023681640625">
        <ele>722.20001220703125</ele>
        <time>2013-08-15T16:11:47.000Z</time>
        <extensions>
          <ns3:TrackPointExtension>
            <ns3:atemp>22.0</ns3:atemp>
            <ns3:hr>159</ns3:hr>
          </ns3:TrackPointExtension>
        </extensions>
      </trkpt>
      <trkpt lat="46.66604801081120967864990234375" lon="6.8472083844244480133056640625">
        <ele>722.5999755859375</ele>
        <time>2013-08-15T16:11:48.000Z</time>
        <extensions>
          <ns3:TrackPointExtension>
            <ns3:atemp>22.0</ns3:atemp>
            <ns3:hr>159</ns3:hr>
          </ns3:TrackPointExtension>
        </extensions>
      </trkpt>
      <trkpt lat="46.66603527031838893890380859375" lon="6.8471979908645153045654296875">
        <ele>723</ele>
        <time>2013-08-15T16:11:49.000Z</time>
        <extensions>
          <ns3:TrackPointExtension>
            <ns3:atemp>22.0</ns3:atemp>
            <ns3:hr>159</ns3:hr>
          </ns3:TrackPointExtension>
        </extensions>
      </trkpt>
      <trkpt lat="46.66602772660553455352783203125" lon="6.8471899442374706268310546875">
        <ele>723.20001220703125</ele>
        <time>2013-08-15T16:11:50.000Z</time>
        <extensions>
          <ns3:TrackPointExtension>
            <ns3:atemp>22.0</ns3:atemp>
            <ns3:hr>159</ns3:hr>
          </ns3:TrackPointExtension>
        </extensions>
      </trkpt>
      <trkpt lat="46.6660207696259021759033203125" lon="6.84718969278037548065185546875">
        <ele>723.4000244140625</ele>
        <time>2013-08-15T16:11:51.000Z</time>
        <extensions>
          <ns3:TrackPointExtension>
            <ns3:atemp>22.0</ns3:atemp>
            <ns3:hr>158</ns3:hr>
          </ns3:TrackPointExtension>
        </extensions>
      </trkpt>
      <trkpt lat="46.66601657867431640625" lon="6.847183741629123687744140625">
        <ele>723.4000244140625</ele>
        <time>2013-08-15T16:11:52.000Z</time>
        <extensions>
          <ns3:TrackPointExtension>
            <ns3:atemp>22.0</ns3:atemp>
            <ns3:hr>158</ns3:hr>
          </ns3:TrackPointExtension>
        </extensions>
      </trkpt>
      <trkpt lat="46.6660090349614620208740234375" lon="6.8471792154014110565185546875">
        <ele>723.5999755859375</ele>
        <time>2013-08-15T16:11:53.000Z</time>
        <extensions>
          <ns3:TrackPointExtension>
            <ns3:atemp>22.0</ns3:atemp>
            <ns3:hr>158</ns3:hr>
          </ns3:TrackPointExtension>
        </extensions>
      </trkpt>
      <trkpt lat="46.6660019941627979278564453125" lon="6.8471721746027469635009765625">
        <ele>723.5999755859375</ele>
        <time>2013-08-15T16:11:54.000Z</time>
        <extensions>
          <ns3:TrackPointExtension>
            <ns3:atemp>22.0</ns3:atemp>
            <ns3:hr>158</ns3:hr>
          </ns3:TrackPointExtension>
        </extensions>
      </trkpt>
      <trkpt lat="46.66599654592573642730712890625" lon="6.8471701629459857940673828125">
        <ele>723.79998779296875</ele>
        <time>2013-08-15T16:11:55.000Z</time>
        <extensions>
          <ns3:TrackPointExtension>
            <ns3:atemp>22.0</ns3:atemp>
            <ns3:hr>157</ns3:hr>
          </ns3:TrackPointExtension>
        </extensions>
      </trkpt>
      <trkpt lat="46.66598103940486907958984375" lon="6.8471644632518291473388671875">
        <ele>723.79998779296875</ele>
        <time>2013-08-15T16:11:56.000Z</time>
        <extensions>
          <ns3:TrackPointExtension>
            <ns3:atemp>22.0</ns3:atemp>
            <ns3:hr>157</ns3:hr>
          </ns3:TrackPointExtension>
        </extensions>
      </trkpt>
      <trkpt lat="46.66596519760787487030029296875" lon="6.84715725481510162353515625">
        <ele>724</ele>
        <time>2013-08-15T16:11:57.000Z</time>
        <extensions>
          <ns3:TrackPointExtension>
            <ns3:atemp>22.0</ns3:atemp>
            <ns3:hr>156</ns3:hr>
          </ns3:TrackPointExtension>
        </extensions>
      </trkpt>
      <trkpt lat="46.66594960726797580718994140625" lon="6.84715013019740581512451171875">
        <ele>724.20001220703125</ele>
        <time>2013-08-15T16:11:58.000Z</time>
        <extensions>
          <ns3:TrackPointExtension>
            <ns3:atemp>22.0</ns3:atemp>
            <ns3:hr>156</ns3:hr>
          </ns3:TrackPointExtension>
        </extensions>
      </trkpt>
      <trkpt lat="46.66593468748033046722412109375" lon="6.84714241884648799896240234375">
        <ele>724.4000244140625</ele>
        <time>2013-08-15T16:11:59.000Z</time>
        <extensions>
          <ns3:TrackPointExtension>
            <ns3:atemp>22.0</ns3:atemp>
            <ns3:hr>155</ns3:hr>
          </ns3:TrackPointExtension>
        </extensions>
      </trkpt>
      <trkpt lat="46.665917672216892242431640625" lon="6.84713822789490222930908203125">
        <ele>724.5999755859375</ele>
        <time>2013-08-15T16:12:00.000Z</time>
        <extensions>
          <ns3:TrackPointExtension>
            <ns3:atemp>22.0</ns3:atemp>
            <ns3:hr>155</ns3:hr>
          </ns3:TrackPointExtension>
        </extensions>
      </trkpt>
      <trkpt lat="46.6658973880112171173095703125" lon="6.84713118709623813629150390625">
        <ele>724.79998779296875</ele>
        <time>2013-08-15T16:12:01.000Z</time>
        <extensions>
          <ns3:TrackPointExtension>
            <ns3:atemp>21.0</ns3:atemp>
            <ns3:hr>154</ns3:hr>
          </ns3:TrackPointExtension>
        </extensions>
      </trkpt>
      <trkpt lat="46.6658796183764934539794921875" lon="6.8471259064972400665283203125">
        <ele>725</ele>
        <time>2013-08-15T16:12:02.000Z</time>
        <extensions>
          <ns3:TrackPointExtension>
            <ns3:atemp>21.0</ns3:atemp>
            <ns3:hr>154</ns3:hr>
          </ns3:TrackPointExtension>
        </extensions>
      </trkpt>
      <trkpt lat="46.665862686932086944580078125" lon="6.8471124954521656036376953125">
        <ele>725.4000244140625</ele>
        <time>2013-08-15T16:12:03.000Z</time>
        <extensions>
          <ns3:TrackPointExtension>
            <ns3:atemp>21.0</ns3:atemp>
            <ns3:hr>154</ns3:hr>
          </ns3:TrackPointExtension>
        </extensions>
      </trkpt>
      <trkpt lat="46.665848605334758758544921875" lon="6.8471027724444866180419921875">
        <ele>725.5999755859375</ele>
        <time>2013-08-15T16:12:04.000Z</time>
        <extensions>
          <ns3:TrackPointExtension>
            <ns3:atemp>21.0</ns3:atemp>
            <ns3:hr>153</ns3:hr>
          </ns3:TrackPointExtension>
        </extensions>
      </trkpt>
      <trkpt lat="46.6658340208232402801513671875" lon="6.8470967374742031097412109375">
        <ele>726</ele>
        <time>2013-08-15T16:12:05.000Z</time>
        <extensions>
          <ns3:TrackPointExtension>
            <ns3:atemp>21.0</ns3:atemp>
            <ns3:hr>153</ns3:hr>
          </ns3:TrackPointExtension>
        </extensions>
      </trkpt>
      <trkpt lat="46.66582253761589527130126953125" lon="6.84709019958972930908203125">
        <ele>726.20001220703125</ele>
        <time>2013-08-15T16:12:06.000Z</time>
        <extensions>
          <ns3:TrackPointExtension>
            <ns3:atemp>21.0</ns3:atemp>
            <ns3:hr>153</ns3:hr>
          </ns3:TrackPointExtension>
        </extensions>
      </trkpt>
      <trkpt lat="46.66580745019018650054931640625" lon="6.84707871638238430023193359375">
        <ele>726.4000244140625</ele>
        <time>2013-08-15T16:12:07.000Z</time>
        <extensions>
          <ns3:TrackPointExtension>
            <ns3:atemp>21.0</ns3:atemp>
            <ns3:hr>153</ns3:hr>
          </ns3:TrackPointExtension>
        </extensions>
      </trkpt>
      <trkpt lat="46.66579336859285831451416015625" lon="6.847067736089229583740234375">
        <ele>726.5999755859375</ele>
        <time>2013-08-15T16:12:08.000Z</time>
        <extensions>
          <ns3:TrackPointExtension>
            <ns3:atemp>21.0</ns3:atemp>
            <ns3:hr>152</ns3:hr>
          </ns3:TrackPointExtension>
        </extensions>
      </trkpt>
      <trkpt lat="46.6657740063965320587158203125" lon="6.8470538221299648284912109375">
        <ele>726.79998779296875</ele>
        <time>2013-08-15T16:12:09.000Z</time>
        <extensions>
          <ns3:TrackPointExtension>
            <ns3:atemp>21.0</ns3:atemp>
            <ns3:hr>152</ns3:hr>
          </ns3:TrackPointExtension>
        </extensions>
      </trkpt>
      <trkpt lat="46.66576168499886989593505859375" lon="6.84704485349357128143310546875">
        <ele>727</ele>
        <time>2013-08-15T16:12:10.000Z</time>
        <extensions>
          <ns3:TrackPointExtension>
            <ns3:atemp>21.0</ns3:atemp>
            <ns3:hr>152</ns3:hr>
          </ns3:TrackPointExtension>
        </extensions>
      </trkpt>
      <trkpt lat="46.66574425064027309417724609375" lon="6.84702448546886444091796875">
        <ele>727.20001220703125</ele>
        <time>2013-08-15T16:12:11.000Z</time>
        <extensions>
          <ns3:TrackPointExtension>
            <ns3:atemp>21.0</ns3:atemp>
            <ns3:hr>152</ns3:hr>
          </ns3:TrackPointExtension>
        </extensions>
      </trkpt>
      <trkpt lat="46.6657280735671520233154296875" lon="6.84701819904148578643798828125">
        <ele>727.4000244140625</ele>
        <time>2013-08-15T16:12:12.000Z</time>
        <extensions>
          <ns3:TrackPointExtension>
            <ns3:atemp>21.0</ns3:atemp>
            <ns3:hr>152</ns3:hr>
          </ns3:TrackPointExtension>
        </extensions>
      </trkpt>
      <trkpt lat="46.665709130465984344482421875" lon="6.8470075540244579315185546875">
        <ele>727.79998779296875</ele>
        <time>2013-08-15T16:12:13.000Z</time>
        <extensions>
          <ns3:TrackPointExtension>
            <ns3:atemp>21.0</ns3:atemp>
            <ns3:hr>152</ns3:hr>
          </ns3:TrackPointExtension>
        </extensions>
      </trkpt>
      <trkpt lat="46.6656898520886898040771484375" lon="6.847000680863857269287109375">
        <ele>728</ele>
        <time>2013-08-15T16:12:14.000Z</time>
        <extensions>
          <ns3:TrackPointExtension>
            <ns3:atemp>21.0</ns3:atemp>
            <ns3:hr>152</ns3:hr>
          </ns3:TrackPointExtension>
        </extensions>
      </trkpt>
      <trkpt lat="46.665668897330760955810546875" lon="6.84698785655200481414794921875">
        <ele>728.20001220703125</ele>
        <time>2013-08-15T16:12:15.000Z</time>
        <extensions>
          <ns3:TrackPointExtension>
            <ns3:atemp>21.0</ns3:atemp>
            <ns3:hr>152</ns3:hr>
          </ns3:TrackPointExtension>
        </extensions>
      </trkpt>
      <trkpt lat="46.66564635001122951507568359375" lon="6.8469770438969135284423828125">
        <ele>728.20001220703125</ele>
        <time>2013-08-15T16:12:16.000Z</time>
        <extensions>
          <ns3:TrackPointExtension>
            <ns3:atemp>21.0</ns3:atemp>
            <ns3:hr>153</ns3:hr>
          </ns3:TrackPointExtension>
        </extensions>
      </trkpt>
      <trkpt lat="46.66562296450138092041015625" lon="6.84697226621210575103759765625">
        <ele>728.4000244140625</ele>
        <time>2013-08-15T16:12:17.000Z</time>
        <extensions>
          <ns3:TrackPointExtension>
            <ns3:atemp>21.0</ns3:atemp>
            <ns3:hr>153</ns3:hr>
          </ns3:TrackPointExtension>
        </extensions>
      </trkpt>
      <trkpt lat="46.66560276411473751068115234375" lon="6.846963129937648773193359375">
        <ele>728.5999755859375</ele>
        <time>2013-08-15T16:12:18.000Z</time>
        <extensions>
          <ns3:TrackPointExtension>
            <ns3:atemp>21.0</ns3:atemp>
            <ns3:hr>153</ns3:hr>
          </ns3:TrackPointExtension>
        </extensions>
      </trkpt>
      <trkpt lat="46.66557845659554004669189453125" lon="6.84695248492062091827392578125">
        <ele>728.79998779296875</ele>
        <time>2013-08-15T16:12:19.000Z</time>
        <extensions>
          <ns3:TrackPointExtension>
            <ns3:atemp>21.0</ns3:atemp>
            <ns3:hr>153</ns3:hr>
          </ns3:TrackPointExtension>
        </extensions>
      </trkpt>
      <trkpt lat="46.6655533947050571441650390625" lon="6.84693857096135616302490234375">
        <ele>729.20001220703125</ele>
        <time>2013-08-15T16:12:20.000Z</time>
        <extensions>
          <ns3:TrackPointExtension>
            <ns3:atemp>21.0</ns3:atemp>
            <ns3:hr>153</ns3:hr>
          </ns3:TrackPointExtension>
        </extensions>
      </trkpt>
      <trkpt lat="46.66552850045263767242431640625" lon="6.8469254113733768463134765625">
        <ele>729.4000244140625</ele>
        <time>2013-08-15T16:12:21.000Z</time>
        <extensions>
          <ns3:TrackPointExtension>
            <ns3:atemp>21.0</ns3:atemp>
            <ns3:hr>153</ns3:hr>
          </ns3:TrackPointExtension>
        </extensions>
      </trkpt>
      <trkpt lat="46.66550134308636188507080078125" lon="6.84691409580409526824951171875">
        <ele>729.5999755859375</ele>
        <time>2013-08-15T16:12:22.000Z</time>
        <extensions>
          <ns3:TrackPointExtension>
            <ns3:atemp>21.0</ns3:atemp>
            <ns3:hr>153</ns3:hr>
          </ns3:TrackPointExtension>
        </extensions>
      </trkpt>
      <trkpt lat="46.665476448833942413330078125" lon="6.8469012714922428131103515625">
        <ele>730</ele>
        <time>2013-08-15T16:12:23.000Z</time>
        <extensions>
          <ns3:TrackPointExtension>
            <ns3:atemp>21.0</ns3:atemp>
            <ns3:hr>153</ns3:hr>
          </ns3:TrackPointExtension>
        </extensions>
      </trkpt>
      <trkpt lat="46.66545323096215724945068359375" lon="6.84688844718039035797119140625">
        <ele>730.20001220703125</ele>
        <time>2013-08-15T16:12:24.000Z</time>
        <extensions>
          <ns3:TrackPointExtension>
            <ns3:atemp>21.0</ns3:atemp>
            <ns3:hr>153</ns3:hr>
          </ns3:TrackPointExtension>
        </extensions>
      </trkpt>
      <trkpt lat="46.66544166393578052520751953125" lon="6.84688291512429714202880859375">
        <ele>730.5999755859375</ele>
        <time>2013-08-15T16:12:25.000Z</time>
        <extensions>
          <ns3:TrackPointExtension>
            <ns3:atemp>21.0</ns3:atemp>
            <ns3:hr>153</ns3:hr>
          </ns3:TrackPointExtension>
        </extensions>
      </trkpt>
      <trkpt lat="46.66541769169270992279052734375" lon="6.846872270107269287109375">
        <ele>730.5999755859375</ele>
        <time>2013-08-15T16:12:26.000Z</time>
        <extensions>
          <ns3:TrackPointExtension>
            <ns3:atemp>21.0</ns3:atemp>
            <ns3:hr>153</ns3:hr>
          </ns3:TrackPointExtension>
        </extensions>
      </trkpt>
      <trkpt lat="46.665391288697719573974609375" lon="6.846859864890575408935546875">
        <ele>730.79998779296875</ele>
        <time>2013-08-15T16:12:27.000Z</time>
        <extensions>
          <ns3:TrackPointExtension>
            <ns3:atemp>21.0</ns3:atemp>
            <ns3:hr>153</ns3:hr>
          </ns3:TrackPointExtension>
        </extensions>
      </trkpt>
      <trkpt lat="46.6653715074062347412109375" lon="6.8468462862074375152587890625">
        <ele>731.20001220703125</ele>
        <time>2013-08-15T16:12:28.000Z</time>
        <extensions>
          <ns3:TrackPointExtension>
            <ns3:atemp>21.0</ns3:atemp>
            <ns3:hr>153</ns3:hr>
          </ns3:TrackPointExtension>
        </extensions>
      </trkpt>
      <trkpt lat="46.6653465293347835540771484375" lon="6.8468412570655345916748046875">
        <ele>731.4000244140625</ele>
        <time>2013-08-15T16:12:29.000Z</time>
        <extensions>
          <ns3:TrackPointExtension>
            <ns3:atemp>21.0</ns3:atemp>
            <ns3:hr>153</ns3:hr>
          </ns3:TrackPointExtension>
        </extensions>
      </trkpt>
      <trkpt lat="46.66532532311975955963134765625" lon="6.846829690039157867431640625">
        <ele>731.5999755859375</ele>
        <time>2013-08-15T16:12:30.000Z</time>
        <extensions>
          <ns3:TrackPointExtension>
            <ns3:atemp>21.0</ns3:atemp>
            <ns3:hr>153</ns3:hr>
          </ns3:TrackPointExtension>
        </extensions>
      </trkpt>
      <trkpt lat="46.66530805639922618865966796875" lon="6.84681988321244716644287109375">
        <ele>731.79998779296875</ele>
        <time>2013-08-15T16:12:31.000Z</time>
        <extensions>
          <ns3:TrackPointExtension>
            <ns3:atemp>21.0</ns3:atemp>
            <ns3:hr>153</ns3:hr>
          </ns3:TrackPointExtension>
        </extensions>
      </trkpt>
      <trkpt lat="46.665285341441631317138671875" lon="6.846813261508941650390625">
        <ele>732</ele>
        <time>2013-08-15T16:12:32.000Z</time>
        <extensions>
          <ns3:TrackPointExtension>
            <ns3:atemp>21.0</ns3:atemp>
            <ns3:hr>153</ns3:hr>
          </ns3:TrackPointExtension>
        </extensions>
      </trkpt>
      <trkpt lat="46.66526178829371929168701171875" lon="6.8468070589005947113037109375">
        <ele>732.20001220703125</ele>
        <time>2013-08-15T16:12:33.000Z</time>
        <extensions>
          <ns3:TrackPointExtension>
            <ns3:atemp>21.0</ns3:atemp>
            <ns3:hr>153</ns3:hr>
          </ns3:TrackPointExtension>
        </extensions>
      </trkpt>
      <trkpt lat="46.6652395762503147125244140625" lon="6.846800856292247772216796875">
        <ele>732.4000244140625</ele>
        <time>2013-08-15T16:12:34.000Z</time>
        <extensions>
          <ns3:TrackPointExtension>
            <ns3:atemp>21.0</ns3:atemp>
            <ns3:hr>153</ns3:hr>
          </ns3:TrackPointExtension>
        </extensions>
      </trkpt>
      <trkpt lat="46.66522356681525707244873046875" lon="6.84678618796169757843017578125">
        <ele>732.5999755859375</ele>
        <time>2013-08-15T16:12:35.000Z</time>
        <extensions>
          <ns3:TrackPointExtension>
            <ns3:atemp>21.0</ns3:atemp>
            <ns3:hr>153</ns3:hr>
          </ns3:TrackPointExtension>
        </extensions>
      </trkpt>
      <trkpt lat="46.66521283797919750213623046875" lon="6.84677361510694026947021484375">
        <ele>732.79998779296875</ele>
        <time>2013-08-15T16:12:36.000Z</time>
        <extensions>
          <ns3:TrackPointExtension>
            <ns3:atemp>21.0</ns3:atemp>
            <ns3:hr>154</ns3:hr>
          </ns3:TrackPointExtension>
        </extensions>
      </trkpt>
      <trkpt lat="46.6651963256299495697021484375" lon="6.8467611260712146759033203125">
        <ele>733.20001220703125</ele>
        <time>2013-08-15T16:12:37.000Z</time>
        <extensions>
          <ns3:TrackPointExtension>
            <ns3:atemp>21.0</ns3:atemp>
            <ns3:hr>154</ns3:hr>
          </ns3:TrackPointExtension>
        </extensions>
      </trkpt>
      <trkpt lat="46.66518249548971652984619140625" lon="6.8467473797500133514404296875">
        <ele>733.4000244140625</ele>
        <time>2013-08-15T16:12:38.000Z</time>
        <extensions>
          <ns3:TrackPointExtension>
            <ns3:atemp>21.0</ns3:atemp>
            <ns3:hr>154</ns3:hr>
          </ns3:TrackPointExtension>
        </extensions>
      </trkpt>
      <trkpt lat="46.66516522876918315887451171875" lon="6.846727430820465087890625">
        <ele>733.5999755859375</ele>
        <time>2013-08-15T16:12:39.000Z</time>
        <extensions>
          <ns3:TrackPointExtension>
            <ns3:atemp>21.0</ns3:atemp>
            <ns3:hr>154</ns3:hr>
          </ns3:TrackPointExtension>
        </extensions>
      </trkpt>
      <trkpt lat="46.6651488840579986572265625" lon="6.84671125374734401702880859375">
        <ele>733.79998779296875</ele>
        <time>2013-08-15T16:12:40.000Z</time>
        <extensions>
          <ns3:TrackPointExtension>
            <ns3:atemp>21.0</ns3:atemp>
            <ns3:hr>154</ns3:hr>
          </ns3:TrackPointExtension>
        </extensions>
      </trkpt>
      <trkpt lat="46.66513052769005298614501953125" lon="6.84668862260878086090087890625">
        <ele>734.20001220703125</ele>
        <time>2013-08-15T16:12:41.000Z</time>
        <extensions>
          <ns3:TrackPointExtension>
            <ns3:atemp>21.0</ns3:atemp>
            <ns3:hr>154</ns3:hr>
          </ns3:TrackPointExtension>
        </extensions>
      </trkpt>
      <trkpt lat="46.66511711664497852325439453125" lon="6.84668007306754589080810546875">
        <ele>734.20001220703125</ele>
        <time>2013-08-15T16:12:42.000Z</time>
        <extensions>
          <ns3:TrackPointExtension>
            <ns3:atemp>21.0</ns3:atemp>
            <ns3:hr>155</ns3:hr>
          </ns3:TrackPointExtension>
        </extensions>
      </trkpt>
      <trkpt lat="46.66509783826768398284912109375" lon="6.846660710871219635009765625">
        <ele>734.5999755859375</ele>
        <time>2013-08-15T16:12:43.000Z</time>
        <extensions>
          <ns3:TrackPointExtension>
            <ns3:atemp>21.0</ns3:atemp>
            <ns3:hr>155</ns3:hr>
          </ns3:TrackPointExtension>
        </extensions>
      </trkpt>
      <trkpt lat="46.665078140795230865478515625" lon="6.8466451205313205718994140625">
        <ele>735</ele>
        <time>2013-08-15T16:12:44.000Z</time>
        <extensions>
          <ns3:TrackPointExtension>
            <ns3:atemp>21.0</ns3:atemp>
            <ns3:hr>155</ns3:hr>
          </ns3:TrackPointExtension>
        </extensions>
      </trkpt>
      <trkpt lat="46.66506506502628326416015625" lon="6.8466300331056118011474609375">
        <ele>735.20001220703125</ele>
        <time>2013-08-15T16:12:45.000Z</time>
        <extensions>
          <ns3:TrackPointExtension>
            <ns3:atemp>21.0</ns3:atemp>
            <ns3:hr>155</ns3:hr>
          </ns3:TrackPointExtension>
        </extensions>
      </trkpt>
      <trkpt lat="46.6650504805147647857666015625" lon="6.8466162867844104766845703125">
        <ele>735.20001220703125</ele>
        <time>2013-08-15T16:12:46.000Z</time>
        <extensions>
          <ns3:TrackPointExtension>
            <ns3:atemp>21.0</ns3:atemp>
            <ns3:hr>155</ns3:hr>
          </ns3:TrackPointExtension>
        </extensions>
      </trkpt>
      <trkpt lat="46.66502927429974079132080078125" lon="6.84659843333065509796142578125">
        <ele>735.4000244140625</ele>
        <time>2013-08-15T16:12:47.000Z</time>
        <extensions>
          <ns3:TrackPointExtension>
            <ns3:atemp>21.0</ns3:atemp>
            <ns3:hr>156</ns3:hr>
          </ns3:TrackPointExtension>
        </extensions>
      </trkpt>
      <trkpt lat="46.66501033119857311248779296875" lon="6.84657923877239227294921875">
        <ele>735.5999755859375</ele>
        <time>2013-08-15T16:12:48.000Z</time>
        <extensions>
          <ns3:TrackPointExtension>
            <ns3:atemp>21.0</ns3:atemp>
            <ns3:hr>156</ns3:hr>
          </ns3:TrackPointExtension>
        </extensions>
      </trkpt>
      <trkpt lat="46.6649834252893924713134765625" lon="6.846558116376399993896484375">
        <ele>735.79998779296875</ele>
        <time>2013-08-15T16:12:49.000Z</time>
        <extensions>
          <ns3:TrackPointExtension>
            <ns3:atemp>21.0</ns3:atemp>
            <ns3:hr>156</ns3:hr>
          </ns3:TrackPointExtension>
        </extensions>
      </trkpt>
      <trkpt lat="46.66495383717119693756103515625" lon="6.84654344804584980010986328125">
        <ele>736</ele>
        <time>2013-08-15T16:12:50.000Z</time>
        <extensions>
          <ns3:TrackPointExtension>
            <ns3:atemp>21.0</ns3:atemp>
            <ns3:hr>156</ns3:hr>
          </ns3:TrackPointExtension>
        </extensions>
      </trkpt>
      <trkpt lat="46.66493288241326808929443359375" lon="6.84652819298207759857177734375">
        <ele>736.4000244140625</ele>
        <time>2013-08-15T16:12:51.000Z</time>
        <extensions>
          <ns3:TrackPointExtension>
            <ns3:atemp>21.0</ns3:atemp>
            <ns3:hr>156</ns3:hr>
          </ns3:TrackPointExtension>
        </extensions>
      </trkpt>
      <trkpt lat="46.6649126820266246795654296875" lon="6.8465086631476879119873046875">
        <ele>736.5999755859375</ele>
        <time>2013-08-15T16:12:52.000Z</time>
        <extensions>
          <ns3:TrackPointExtension>
            <ns3:atemp>21.0</ns3:atemp>
            <ns3:hr>156</ns3:hr>
          </ns3:TrackPointExtension>
        </extensions>
      </trkpt>
      <trkpt lat="46.6648965887725353240966796875" lon="6.84649340808391571044921875">
        <ele>736.79998779296875</ele>
        <time>2013-08-15T16:12:53.000Z</time>
        <extensions>
          <ns3:TrackPointExtension>
            <ns3:atemp>21.0</ns3:atemp>
            <ns3:hr>156</ns3:hr>
          </ns3:TrackPointExtension>
        </extensions>
      </trkpt>
      <trkpt lat="46.6648860275745391845703125" lon="6.84647555463016033172607421875">
        <ele>737</ele>
        <time>2013-08-15T16:12:54.000Z</time>
        <extensions>
          <ns3:TrackPointExtension>
            <ns3:atemp>21.0</ns3:atemp>
            <ns3:hr>156</ns3:hr>
          </ns3:TrackPointExtension>
        </extensions>
      </trkpt>
      <trkpt lat="46.66487521491944789886474609375" lon="6.84646214358508586883544921875">
        <ele>737.4000244140625</ele>
        <time>2013-08-15T16:12:55.000Z</time>
        <extensions>
          <ns3:TrackPointExtension>
            <ns3:atemp>21.0</ns3:atemp>
            <ns3:hr>157</ns3:hr>
          </ns3:TrackPointExtension>
        </extensions>
      </trkpt>
      <trkpt lat="46.66485987603664398193359375" lon="6.8464417755603790283203125">
        <ele>737.79998779296875</ele>
        <time>2013-08-15T16:12:56.000Z</time>
        <extensions>
          <ns3:TrackPointExtension>
            <ns3:atemp>21.0</ns3:atemp>
            <ns3:hr>157</ns3:hr>
          </ns3:TrackPointExtension>
        </extensions>
      </trkpt>
      <trkpt lat="46.6648452915251255035400390625" lon="6.846418641507625579833984375">
        <ele>738</ele>
        <time>2013-08-15T16:12:57.000Z</time>
        <extensions>
          <ns3:TrackPointExtension>
            <ns3:atemp>21.0</ns3:atemp>
            <ns3:hr>157</ns3:hr>
          </ns3:TrackPointExtension>
        </extensions>
      </trkpt>
      <trkpt lat="46.664831377565860748291015625" lon="6.846394836902618408203125">
        <ele>738.5999755859375</ele>
        <time>2013-08-15T16:12:58.000Z</time>
        <extensions>
          <ns3:TrackPointExtension>
            <ns3:atemp>21.0</ns3:atemp>
            <ns3:hr>157</ns3:hr>
          </ns3:TrackPointExtension>
        </extensions>
      </trkpt>
      <trkpt lat="46.66482375003397464752197265625" lon="6.846371702849864959716796875">
        <ele>738.79998779296875</ele>
        <time>2013-08-15T16:12:59.000Z</time>
        <extensions>
          <ns3:TrackPointExtension>
            <ns3:atemp>21.0</ns3:atemp>
            <ns3:hr>157</ns3:hr>
          </ns3:TrackPointExtension>
        </extensions>
      </trkpt>
      <trkpt lat="46.66481520049273967742919921875" lon="6.84634856879711151123046875">
        <ele>739.20001220703125</ele>
        <time>2013-08-15T16:13:00.000Z</time>
        <extensions>
          <ns3:TrackPointExtension>
            <ns3:atemp>21.0</ns3:atemp>
            <ns3:hr>157</ns3:hr>
          </ns3:TrackPointExtension>
        </extensions>
      </trkpt>
      <trkpt lat="46.6648057289421558380126953125" lon="6.84632702730596065521240234375">
        <ele>739.4000244140625</ele>
        <time>2013-08-15T16:13:01.000Z</time>
        <extensions>
          <ns3:TrackPointExtension>
            <ns3:atemp>21.0</ns3:atemp>
            <ns3:hr>157</ns3:hr>
          </ns3:TrackPointExtension>
        </extensions>
      </trkpt>
      <trkpt lat="46.6647882945835590362548828125" lon="6.84630590490996837615966796875">
        <ele>739.79998779296875</ele>
        <time>2013-08-15T16:13:02.000Z</time>
        <extensions>
          <ns3:TrackPointExtension>
            <ns3:atemp>21.0</ns3:atemp>
            <ns3:hr>157</ns3:hr>
          </ns3:TrackPointExtension>
        </extensions>
      </trkpt>
      <trkpt lat="46.66477094404399394989013671875" lon="6.846282519400119781494140625">
        <ele>740</ele>
        <time>2013-08-15T16:13:03.000Z</time>
        <extensions>
          <ns3:TrackPointExtension>
            <ns3:atemp>21.0</ns3:atemp>
            <ns3:hr>158</ns3:hr>
          </ns3:TrackPointExtension>
        </extensions>
      </trkpt>
      <trkpt lat="46.66474998928606510162353515625" lon="6.846266426146030426025390625">
        <ele>740.20001220703125</ele>
        <time>2013-08-15T16:13:04.000Z</time>
        <extensions>
          <ns3:TrackPointExtension>
            <ns3:atemp>21.0</ns3:atemp>
            <ns3:hr>158</ns3:hr>
          </ns3:TrackPointExtension>
        </extensions>
      </trkpt>
      <trkpt lat="46.66473791934549808502197265625" lon="6.84625242836773395538330078125">
        <ele>740.5999755859375</ele>
        <time>2013-08-15T16:13:05.000Z</time>
        <extensions>
          <ns3:TrackPointExtension>
            <ns3:atemp>21.0</ns3:atemp>
            <ns3:hr>158</ns3:hr>
          </ns3:TrackPointExtension>
        </extensions>
      </trkpt>
      <trkpt lat="46.66472232900559902191162109375" lon="6.8462417833507061004638671875">
        <ele>740.79998779296875</ele>
        <time>2013-08-15T16:13:06.000Z</time>
        <extensions>
          <ns3:TrackPointExtension>
            <ns3:atemp>21.0</ns3:atemp>
            <ns3:hr>157</ns3:hr>
          </ns3:TrackPointExtension>
        </extensions>
      </trkpt>
      <trkpt lat="46.6647118516266345977783203125" lon="6.84623180888593196868896484375">
        <ele>741.20001220703125</ele>
        <time>2013-08-15T16:13:07.000Z</time>
        <extensions>
          <ns3:TrackPointExtension>
            <ns3:atemp>21.0</ns3:atemp>
            <ns3:hr>158</ns3:hr>
          </ns3:TrackPointExtension>
        </extensions>
      </trkpt>
      <trkpt lat="46.664698608219623565673828125" lon="6.846223175525665283203125">
        <ele>741.4000244140625</ele>
        <time>2013-08-15T16:13:08.000Z</time>
        <extensions>
          <ns3:TrackPointExtension>
            <ns3:atemp>21.0</ns3:atemp>
            <ns3:hr>157</ns3:hr>
          </ns3:TrackPointExtension>
        </extensions>
      </trkpt>
      <trkpt lat="46.6646793298423290252685546875" lon="6.8462095968425273895263671875">
        <ele>741.79998779296875</ele>
        <time>2013-08-15T16:13:09.000Z</time>
        <extensions>
          <ns3:TrackPointExtension>
            <ns3:atemp>21.0</ns3:atemp>
            <ns3:hr>158</ns3:hr>
          </ns3:TrackPointExtension>
        </extensions>
      </trkpt>
      <trkpt lat="46.6646632365882396697998046875" lon="6.84619777835905551910400390625">
        <ele>742</ele>
        <time>2013-08-15T16:13:10.000Z</time>
        <extensions>
          <ns3:TrackPointExtension>
            <ns3:atemp>21.0</ns3:atemp>
            <ns3:hr>158</ns3:hr>
          </ns3:TrackPointExtension>
        </extensions>
      </trkpt>
      <trkpt lat="46.6646474786102771759033203125" lon="6.84618755243718624114990234375">
        <ele>742</ele>
        <time>2013-08-15T16:13:11.000Z</time>
        <extensions>
          <ns3:TrackPointExtension>
            <ns3:atemp>21.0</ns3:atemp>
            <ns3:hr>158</ns3:hr>
          </ns3:TrackPointExtension>
        </extensions>
      </trkpt>
      <trkpt lat="46.6646548546850681304931640625" lon="6.8461935035884380340576171875">
        <ele>742.20001220703125</ele>
        <time>2013-08-15T16:13:12.000Z</time>
        <extensions>
          <ns3:TrackPointExtension>
            <ns3:atemp>21.0</ns3:atemp>
            <ns3:hr>157</ns3:hr>
          </ns3:TrackPointExtension>
        </extensions>
      </trkpt>
      <trkpt lat="46.66462308727204799652099609375" lon="6.8461789190769195556640625">
        <ele>742.4000244140625</ele>
        <time>2013-08-15T16:13:13.000Z</time>
        <extensions>
          <ns3:TrackPointExtension>
            <ns3:atemp>21.0</ns3:atemp>
            <ns3:hr>157</ns3:hr>
          </ns3:TrackPointExtension>
        </extensions>
      </trkpt>
      <trkpt lat="46.6646082513034343719482421875" lon="6.84617179445922374725341796875">
        <ele>742.4000244140625</ele>
        <time>2013-08-15T16:13:14.000Z</time>
        <extensions>
          <ns3:TrackPointExtension>
            <ns3:atemp>21.0</ns3:atemp>
            <ns3:hr>157</ns3:hr>
          </ns3:TrackPointExtension>
        </extensions>
      </trkpt>
      <trkpt lat="46.664582602679729461669921875" lon="6.84616609476506710052490234375">
        <ele>742.5999755859375</ele>
        <time>2013-08-15T16:13:15.000Z</time>
        <extensions>
          <ns3:TrackPointExtension>
            <ns3:atemp>21.0</ns3:atemp>
            <ns3:hr>156</ns3:hr>
          </ns3:TrackPointExtension>
        </extensions>
      </trkpt>
      <trkpt lat="46.6645643301308155059814453125" lon="6.846158802509307861328125">
        <ele>742.79998779296875</ele>
        <time>2013-08-15T16:13:16.000Z</time>
        <extensions>
          <ns3:TrackPointExtension>
            <ns3:atemp>21.0</ns3:atemp>
            <ns3:hr>156</ns3:hr>
          </ns3:TrackPointExtension>
        </extensions>
      </trkpt>
      <trkpt lat="46.66452686302363872528076171875" lon="6.84613927267491817474365234375">
        <ele>743</ele>
        <time>2013-08-15T16:13:17.000Z</time>
        <extensions>
          <ns3:TrackPointExtension>
            <ns3:atemp>21.0</ns3:atemp>
            <ns3:hr>155</ns3:hr>
          </ns3:TrackPointExtension>
        </extensions>
      </trkpt>
      <trkpt lat="46.66448579169809818267822265625" lon="6.846121586859226226806640625">
        <ele>743</ele>
        <time>2013-08-15T16:13:18.000Z</time>
        <extensions>
          <ns3:TrackPointExtension>
            <ns3:atemp>21.0</ns3:atemp>
            <ns3:hr>154</ns3:hr>
          </ns3:TrackPointExtension>
        </extensions>
      </trkpt>
      <trkpt lat="46.664449162781238555908203125" lon="6.84610582888126373291015625">
        <ele>743</ele>
        <time>2013-08-15T16:13:19.000Z</time>
        <extensions>
          <ns3:TrackPointExtension>
            <ns3:atemp>21.0</ns3:atemp>
            <ns3:hr>154</ns3:hr>
          </ns3:TrackPointExtension>
        </extensions>
      </trkpt>
      <trkpt lat="46.66441974230110645294189453125" lon="6.84609736315906047821044921875">
        <ele>743.20001220703125</ele>
        <time>2013-08-15T16:13:20.000Z</time>
        <extensions>
          <ns3:TrackPointExtension>
            <ns3:atemp>21.0</ns3:atemp>
            <ns3:hr>153</ns3:hr>
          </ns3:TrackPointExtension>
        </extensions>
      </trkpt>
      <trkpt lat="46.6643950156867504119873046875" lon="6.84608797542750835418701171875">
        <ele>743.4000244140625</ele>
        <time>2013-08-15T16:13:21.000Z</time>
        <extensions>
          <ns3:TrackPointExtension>
            <ns3:atemp>21.0</ns3:atemp>
            <ns3:hr>153</ns3:hr>
          </ns3:TrackPointExtension>
        </extensions>
      </trkpt>
      <trkpt lat="46.664373390376567840576171875" lon="6.8460862152278423309326171875">
        <ele>743.79998779296875</ele>
        <time>2013-08-15T16:13:22.000Z</time>
        <extensions>
          <ns3:TrackPointExtension>
            <ns3:atemp>21.0</ns3:atemp>
            <ns3:hr>153</ns3:hr>
          </ns3:TrackPointExtension>
        </extensions>
      </trkpt>
      <trkpt lat="46.66434816084802150726318359375" lon="6.84607909061014652252197265625">
        <ele>744</ele>
        <time>2013-08-15T16:13:23.000Z</time>
        <extensions>
          <ns3:TrackPointExtension>
            <ns3:atemp>21.0</ns3:atemp>
            <ns3:hr>152</ns3:hr>
          </ns3:TrackPointExtension>
        </extensions>
      </trkpt>
      <trkpt lat="46.664325110614299774169921875" lon="6.8460704572498798370361328125">
        <ele>744.20001220703125</ele>
        <time>2013-08-15T16:13:24.000Z</time>
        <extensions>
          <ns3:TrackPointExtension>
            <ns3:atemp>21.0</ns3:atemp>
            <ns3:hr>152</ns3:hr>
          </ns3:TrackPointExtension>
        </extensions>
      </trkpt>
      <trkpt lat="46.6643101908266544342041015625" lon="6.84605595655739307403564453125">
        <ele>744.20001220703125</ele>
        <time>2013-08-15T16:13:25.000Z</time>
        <extensions>
          <ns3:TrackPointExtension>
            <ns3:atemp>21.0</ns3:atemp>
            <ns3:hr>151</ns3:hr>
          </ns3:TrackPointExtension>
        </extensions>
      </trkpt>
      <trkpt lat="46.66429753415286540985107421875" lon="6.846041791141033172607421875">
        <ele>744.4000244140625</ele>
        <time>2013-08-15T16:13:26.000Z</time>
        <extensions>
          <ns3:TrackPointExtension>
            <ns3:atemp>21.0</ns3:atemp>
            <ns3:hr>151</ns3:hr>
          </ns3:TrackPointExtension>
        </extensions>
      </trkpt>
      <trkpt lat="46.66428185999393463134765625" lon="6.8460245244204998016357421875">
        <ele>744.4000244140625</ele>
        <time>2013-08-15T16:13:27.000Z</time>
        <extensions>
          <ns3:TrackPointExtension>
            <ns3:atemp>21.0</ns3:atemp>
            <ns3:hr>151</ns3:hr>
          </ns3:TrackPointExtension>
        </extensions>
      </trkpt>
      <trkpt lat="46.66426442563533782958984375" lon="6.846002899110317230224609375">
        <ele>744.5999755859375</ele>
        <time>2013-08-15T16:13:28.000Z</time>
        <extensions>
          <ns3:TrackPointExtension>
            <ns3:atemp>21.0</ns3:atemp>
            <ns3:hr>151</ns3:hr>
          </ns3:TrackPointExtension>
        </extensions>
      </trkpt>
      <trkpt lat="46.66424757800996303558349609375" lon="6.84599007479846477508544921875">
        <ele>744.79998779296875</ele>
        <time>2013-08-15T16:13:29.000Z</time>
        <extensions>
          <ns3:TrackPointExtension>
            <ns3:atemp>21.0</ns3:atemp>
            <ns3:hr>151</ns3:hr>
          </ns3:TrackPointExtension>
        </extensions>
      </trkpt>
      <trkpt lat="46.66422980837523937225341796875" lon="6.8459641747176647186279296875">
        <ele>745</ele>
        <time>2013-08-15T16:13:30.000Z</time>
        <extensions>
          <ns3:TrackPointExtension>
            <ns3:atemp>21.0</ns3:atemp>
            <ns3:hr>151</ns3:hr>
          </ns3:TrackPointExtension>
        </extensions>
      </trkpt>
      <trkpt lat="46.66420265100896358489990234375" lon="6.84593550860881805419921875">
        <ele>745.20001220703125</ele>
        <time>2013-08-15T16:13:31.000Z</time>
        <extensions>
          <ns3:TrackPointExtension>
            <ns3:atemp>21.0</ns3:atemp>
            <ns3:hr>151</ns3:hr>
          </ns3:TrackPointExtension>
        </extensions>
      </trkpt>
      <trkpt lat="46.6641834564507007598876953125" lon="6.84591329656541347503662109375">
        <ele>745.20001220703125</ele>
        <time>2013-08-15T16:13:32.000Z</time>
        <extensions>
          <ns3:TrackPointExtension>
            <ns3:atemp>21.0</ns3:atemp>
            <ns3:hr>151</ns3:hr>
          </ns3:TrackPointExtension>
        </extensions>
      </trkpt>
      <trkpt lat="46.66416384279727935791015625" lon="6.8458796851336956024169921875">
        <ele>745.4000244140625</ele>
        <time>2013-08-15T16:13:33.000Z</time>
        <extensions>
          <ns3:TrackPointExtension>
            <ns3:atemp>21.0</ns3:atemp>
            <ns3:hr>151</ns3:hr>
          </ns3:TrackPointExtension>
        </extensions>
      </trkpt>
      <trkpt lat="46.6641345061361789703369140625" lon="6.8458515219390392303466796875">
        <ele>745.5999755859375</ele>
        <time>2013-08-15T16:13:34.000Z</time>
        <extensions>
          <ns3:TrackPointExtension>
            <ns3:atemp>21.0</ns3:atemp>
            <ns3:hr>151</ns3:hr>
          </ns3:TrackPointExtension>
        </extensions>
      </trkpt>
      <trkpt lat="46.66411078535020351409912109375" lon="6.8458337523043155670166015625">
        <ele>746</ele>
        <time>2013-08-15T16:13:35.000Z</time>
        <extensions>
          <ns3:TrackPointExtension>
            <ns3:atemp>21.0</ns3:atemp>
            <ns3:hr>151</ns3:hr>
          </ns3:TrackPointExtension>
        </extensions>
      </trkpt>
      <trkpt lat="46.6640899144113063812255859375" lon="6.8458253704011440277099609375">
        <ele>746</ele>
        <time>2013-08-15T16:13:36.000Z</time>
        <extensions>
          <ns3:TrackPointExtension>
            <ns3:atemp>21.0</ns3:atemp>
            <ns3:hr>151</ns3:hr>
          </ns3:TrackPointExtension>
        </extensions>
      </trkpt>
      <trkpt lat="46.664066947996616363525390625" lon="6.84581187553703784942626953125">
        <ele>746</ele>
        <time>2013-08-15T16:13:37.000Z</time>
        <extensions>
          <ns3:TrackPointExtension>
            <ns3:atemp>21.0</ns3:atemp>
            <ns3:hr>151</ns3:hr>
          </ns3:TrackPointExtension>
        </extensions>
      </trkpt>
      <trkpt lat="46.66403819806873798370361328125" lon="6.84580265544354915618896484375">
        <ele>746.4000244140625</ele>
        <time>2013-08-15T16:13:38.000Z</time>
        <extensions>
          <ns3:TrackPointExtension>
            <ns3:atemp>21.0</ns3:atemp>
            <ns3:hr>150</ns3:hr>
          </ns3:TrackPointExtension>
        </extensions>
      </trkpt>
      <trkpt lat="46.66401238180696964263916015625" lon="6.845797710120677947998046875">
        <ele>746.4000244140625</ele>
        <time>2013-08-15T16:13:39.000Z</time>
        <extensions>
          <ns3:TrackPointExtension>
            <ns3:atemp>21.0</ns3:atemp>
            <ns3:hr>151</ns3:hr>
          </ns3:TrackPointExtension>
        </extensions>
      </trkpt>
      <trkpt lat="46.6639863140881061553955078125" lon="6.84578605927526950836181640625">
        <ele>746.5999755859375</ele>
        <time>2013-08-15T16:13:40.000Z</time>
        <extensions>
          <ns3:TrackPointExtension>
            <ns3:atemp>21.0</ns3:atemp>
            <ns3:hr>151</ns3:hr>
          </ns3:TrackPointExtension>
        </extensions>
      </trkpt>
      <trkpt lat="46.663959324359893798828125" lon="6.84577323496341705322265625">
        <ele>746.79998779296875</ele>
        <time>2013-08-15T16:13:41.000Z</time>
        <extensions>
          <ns3:TrackPointExtension>
            <ns3:atemp>21.0</ns3:atemp>
            <ns3:hr>151</ns3:hr>
          </ns3:TrackPointExtension>
        </extensions>
      </trkpt>
      <trkpt lat="46.66393308900296688079833984375" lon="6.8457578122615814208984375">
        <ele>747</ele>
        <time>2013-08-15T16:13:42.000Z</time>
        <extensions>
          <ns3:TrackPointExtension>
            <ns3:atemp>21.0</ns3:atemp>
            <ns3:hr>150</ns3:hr>
          </ns3:TrackPointExtension>
        </extensions>
      </trkpt>
      <trkpt lat="46.66390861384570598602294921875" lon="6.84574331156909465789794921875">
        <ele>747.20001220703125</ele>
        <time>2013-08-15T16:13:43.000Z</time>
        <extensions>
          <ns3:TrackPointExtension>
            <ns3:atemp>21.0</ns3:atemp>
            <ns3:hr>150</ns3:hr>
          </ns3:TrackPointExtension>
        </extensions>
      </trkpt>
      <trkpt lat="46.663889251649379730224609375" lon="6.84573241509497165679931640625">
        <ele>747.4000244140625</ele>
        <time>2013-08-15T16:13:44.000Z</time>
        <extensions>
          <ns3:TrackPointExtension>
            <ns3:atemp>21.0</ns3:atemp>
            <ns3:hr>150</ns3:hr>
          </ns3:TrackPointExtension>
        </extensions>
      </trkpt>
      <trkpt lat="46.6638656146824359893798828125" lon="6.84572897851467132568359375">
        <ele>747.5999755859375</ele>
        <time>2013-08-15T16:13:45.000Z</time>
        <extensions>
          <ns3:TrackPointExtension>
            <ns3:atemp>21.0</ns3:atemp>
            <ns3:hr>150</ns3:hr>
          </ns3:TrackPointExtension>
        </extensions>
      </trkpt>
      <trkpt lat="46.66383770294487476348876953125" lon="6.84571917168796062469482421875">
        <ele>747.5999755859375</ele>
        <time>2013-08-15T16:13:46.000Z</time>
        <extensions>
          <ns3:TrackPointExtension>
            <ns3:atemp>21.0</ns3:atemp>
            <ns3:hr>150</ns3:hr>
          </ns3:TrackPointExtension>
        </extensions>
      </trkpt>
      <trkpt lat="46.66380576789379119873046875" lon="6.8457117117941379547119140625">
        <ele>747.5999755859375</ele>
        <time>2013-08-15T16:13:47.000Z</time>
        <extensions>
          <ns3:TrackPointExtension>
            <ns3:atemp>21.0</ns3:atemp>
            <ns3:hr>149</ns3:hr>
          </ns3:TrackPointExtension>
        </extensions>
      </trkpt>
      <trkpt lat="46.66377961635589599609375" lon="6.845692433416843414306640625">
        <ele>747.79998779296875</ele>
        <time>2013-08-15T16:13:48.000Z</time>
        <extensions>
          <ns3:TrackPointExtension>
            <ns3:atemp>21.0</ns3:atemp>
            <ns3:hr>149</ns3:hr>
          </ns3:TrackPointExtension>
        </extensions>
      </trkpt>
      <trkpt lat="46.66375388391315937042236328125" lon="6.8456719815731048583984375">
        <ele>747.79998779296875</ele>
        <time>2013-08-15T16:13:49.000Z</time>
        <extensions>
          <ns3:TrackPointExtension>
            <ns3:atemp>21.0</ns3:atemp>
            <ns3:hr>149</ns3:hr>
          </ns3:TrackPointExtension>
        </extensions>
      </trkpt>
      <trkpt lat="46.66373443789780139923095703125" lon="6.84565194882452487945556640625">
        <ele>748</ele>
        <time>2013-08-15T16:13:50.000Z</time>
        <extensions>
          <ns3:TrackPointExtension>
            <ns3:atemp>21.0</ns3:atemp>
            <ns3:hr>149</ns3:hr>
          </ns3:TrackPointExtension>
        </extensions>
      </trkpt>
      <trkpt lat="46.66371650062501430511474609375" lon="6.84563233517110347747802734375">
        <ele>748.20001220703125</ele>
        <time>2013-08-15T16:13:51.000Z</time>
        <extensions>
          <ns3:TrackPointExtension>
            <ns3:atemp>21.0</ns3:atemp>
            <ns3:hr>149</ns3:hr>
          </ns3:TrackPointExtension>
        </extensions>
      </trkpt>
      <trkpt lat="46.66369437240064144134521484375" lon="6.84560786001384258270263671875">
        <ele>748.20001220703125</ele>
        <time>2013-08-15T16:13:52.000Z</time>
        <extensions>
          <ns3:TrackPointExtension>
            <ns3:atemp>21.0</ns3:atemp>
            <ns3:hr>148</ns3:hr>
          </ns3:TrackPointExtension>
        </extensions>
      </trkpt>
      <trkpt lat="46.6636721603572368621826171875" lon="6.8455900065600872039794921875">
        <ele>748.5999755859375</ele>
        <time>2013-08-15T16:13:53.000Z</time>
        <extensions>
          <ns3:TrackPointExtension>
            <ns3:atemp>21.0</ns3:atemp>
            <ns3:hr>148</ns3:hr>
          </ns3:TrackPointExtension>
        </extensions>
      </trkpt>
      <trkpt lat="46.6636436618864536285400390625" lon="6.84557869099080562591552734375">
        <ele>748.5999755859375</ele>
        <time>2013-08-15T16:13:54.000Z</time>
        <extensions>
          <ns3:TrackPointExtension>
            <ns3:atemp>21.0</ns3:atemp>
            <ns3:hr>148</ns3:hr>
          </ns3:TrackPointExtension>
        </extensions>
      </trkpt>
      <trkpt lat="46.66361474432051181793212890625" lon="6.84556125663220882415771484375">
        <ele>748.79998779296875</ele>
        <time>2013-08-15T16:13:55.000Z</time>
        <extensions>
          <ns3:TrackPointExtension>
            <ns3:atemp>21.0</ns3:atemp>
            <ns3:hr>148</ns3:hr>
          </ns3:TrackPointExtension>
        </extensions>
      </trkpt>
      <trkpt lat="46.6635826416313648223876953125" lon="6.8455410562455654144287109375">
        <ele>749</ele>
        <time>2013-08-15T16:13:56.000Z</time>
        <extensions>
          <ns3:TrackPointExtension>
            <ns3:atemp>21.0</ns3:atemp>
            <ns3:hr>148</ns3:hr>
          </ns3:TrackPointExtension>
        </extensions>
      </trkpt>
      <trkpt lat="46.663549281656742095947265625" lon="6.84552689082920551300048828125">
        <ele>749.20001220703125</ele>
        <time>2013-08-15T16:13:57.000Z</time>
        <extensions>
          <ns3:TrackPointExtension>
            <ns3:atemp>21.0</ns3:atemp>
            <ns3:hr>147</ns3:hr>
          </ns3:TrackPointExtension>
        </extensions>
      </trkpt>
      <trkpt lat="46.6635179333388805389404296875" lon="6.84551381506025791168212890625">
        <ele>749.20001220703125</ele>
        <time>2013-08-15T16:13:58.000Z</time>
        <extensions>
          <ns3:TrackPointExtension>
            <ns3:atemp>21.0</ns3:atemp>
            <ns3:hr>147</ns3:hr>
          </ns3:TrackPointExtension>
        </extensions>
      </trkpt>
      <trkpt lat="46.66348784230649471282958984375" lon="6.84549638070166110992431640625">
        <ele>749.20001220703125</ele>
        <time>2013-08-15T16:13:59.000Z</time>
        <extensions>
          <ns3:TrackPointExtension>
            <ns3:atemp>20.0</ns3:atemp>
            <ns3:hr>147</ns3:hr>
          </ns3:TrackPointExtension>
        </extensions>
      </trkpt>
      <trkpt lat="46.6634562425315380096435546875" lon="6.8454800359904766082763671875">
        <ele>749.4000244140625</ele>
        <time>2013-08-15T16:14:00.000Z</time>
        <extensions>
          <ns3:TrackPointExtension>
            <ns3:atemp>20.0</ns3:atemp>
            <ns3:hr>147</ns3:hr>
          </ns3:TrackPointExtension>
        </extensions>
      </trkpt>
      <trkpt lat="46.6634304262697696685791015625" lon="6.8454740010201930999755859375">
        <ele>749.4000244140625</ele>
        <time>2013-08-15T16:14:01.000Z</time>
        <extensions>
          <ns3:TrackPointExtension>
            <ns3:atemp>20.0</ns3:atemp>
            <ns3:hr>146</ns3:hr>
          </ns3:TrackPointExtension>
        </extensions>
      </trkpt>
      <trkpt lat="46.6634022630751132965087890625" lon="6.8454686366021633148193359375">
        <ele>749.4000244140625</ele>
        <time>2013-08-15T16:14:02.000Z</time>
        <extensions>
          <ns3:TrackPointExtension>
            <ns3:atemp>20.0</ns3:atemp>
            <ns3:hr>146</ns3:hr>
          </ns3:TrackPointExtension>
        </extensions>
      </trkpt>
      <trkpt lat="46.663370244204998016357421875" lon="6.845463775098323822021484375">
        <ele>749.5999755859375</ele>
        <time>2013-08-15T16:14:03.000Z</time>
        <extensions>
          <ns3:TrackPointExtension>
            <ns3:atemp>20.0</ns3:atemp>
            <ns3:hr>146</ns3:hr>
          </ns3:TrackPointExtension>
        </extensions>
      </trkpt>
      <trkpt lat="46.6633385606110095977783203125" lon="6.8454562313854694366455078125">
        <ele>749.5999755859375</ele>
        <time>2013-08-15T16:14:04.000Z</time>
        <extensions>
          <ns3:TrackPointExtension>
            <ns3:atemp>20.0</ns3:atemp>
            <ns3:hr>145</ns3:hr>
          </ns3:TrackPointExtension>
        </extensions>
      </trkpt>
      <trkpt lat="46.66331165470182895660400390625" lon="6.84544860385358333587646484375">
        <ele>749.5999755859375</ele>
        <time>2013-08-15T16:14:05.000Z</time>
        <extensions>
          <ns3:TrackPointExtension>
            <ns3:atemp>20.0</ns3:atemp>
            <ns3:hr>145</ns3:hr>
          </ns3:TrackPointExtension>
        </extensions>
      </trkpt>
      <trkpt lat="46.663281060755252838134765625" lon="6.8454394675791263580322265625">
        <ele>749.5999755859375</ele>
        <time>2013-08-15T16:14:06.000Z</time>
        <extensions>
          <ns3:TrackPointExtension>
            <ns3:atemp>20.0</ns3:atemp>
            <ns3:hr>144</ns3:hr>
          </ns3:TrackPointExtension>
        </extensions>
      </trkpt>
      <trkpt lat="46.6632399894297122955322265625" lon="6.84542966075241565704345703125">
        <ele>749.5999755859375</ele>
        <time>2013-08-15T16:14:07.000Z</time>
        <extensions>
          <ns3:TrackPointExtension>
            <ns3:atemp>20.0</ns3:atemp>
            <ns3:hr>144</ns3:hr>
          </ns3:TrackPointExtension>
        </extensions>
      </trkpt>
      <trkpt lat="46.66319564916193485260009765625" lon="6.84541256166994571685791015625">
        <ele>749.5999755859375</ele>
        <time>2013-08-15T16:14:08.000Z</time>
        <extensions>
          <ns3:TrackPointExtension>
            <ns3:atemp>20.0</ns3:atemp>
            <ns3:hr>144</ns3:hr>
          </ns3:TrackPointExtension>
        </extensions>
      </trkpt>
      <trkpt lat="46.66314820758998394012451171875" lon="6.84539428912103176116943359375">
        <ele>749.5999755859375</ele>
        <time>2013-08-15T16:14:09.000Z</time>
        <extensions>
          <ns3:TrackPointExtension>
            <ns3:atemp>20.0</ns3:atemp>
            <ns3:hr>143</ns3:hr>
          </ns3:TrackPointExtension>
        </extensions>
      </trkpt>
      <trkpt lat="46.66311048902571201324462890625" lon="6.84538255445659160614013671875">
        <ele>749.5999755859375</ele>
        <time>2013-08-15T16:14:10.000Z</time>
        <extensions>
          <ns3:TrackPointExtension>
            <ns3:atemp>20.0</ns3:atemp>
            <ns3:hr>143</ns3:hr>
          </ns3:TrackPointExtension>
        </extensions>
      </trkpt>
      <trkpt lat="46.66306522674858570098876953125" lon="6.8453554809093475341796875">
        <ele>749.4000244140625</ele>
        <time>2013-08-15T16:14:11.000Z</time>
        <extensions>
          <ns3:TrackPointExtension>
            <ns3:atemp>20.0</ns3:atemp>
            <ns3:hr>143</ns3:hr>
          </ns3:TrackPointExtension>
        </extensions>
      </trkpt>
      <trkpt lat="46.66301677934825420379638671875" lon="6.8453268148005008697509765625">
        <ele>749.4000244140625</ele>
        <time>2013-08-15T16:14:12.000Z</time>
        <extensions>
          <ns3:TrackPointExtension>
            <ns3:atemp>20.0</ns3:atemp>
            <ns3:hr>142</ns3:hr>
          </ns3:TrackPointExtension>
        </extensions>
      </trkpt>
      <trkpt lat="46.662977300584316253662109375" lon="6.84530250728130340576171875">
        <ele>749.20001220703125</ele>
        <time>2013-08-15T16:14:13.000Z</time>
        <extensions>
          <ns3:TrackPointExtension>
            <ns3:atemp>20.0</ns3:atemp>
            <ns3:hr>142</ns3:hr>
          </ns3:TrackPointExtension>
        </extensions>
      </trkpt>
      <trkpt lat="46.6629127599298954010009765625" lon="6.845269314944744110107421875">
        <ele>749</ele>
        <time>2013-08-15T16:14:14.000Z</time>
        <extensions>
          <ns3:TrackPointExtension>
            <ns3:atemp>20.0</ns3:atemp>
            <ns3:hr>142</ns3:hr>
          </ns3:TrackPointExtension>
        </extensions>
      </trkpt>
      <trkpt lat="46.66285718791186809539794921875" lon="6.84523838572204113006591796875">
        <ele>749</ele>
        <time>2013-08-15T16:14:15.000Z</time>
        <extensions>
          <ns3:TrackPointExtension>
            <ns3:atemp>20.0</ns3:atemp>
            <ns3:hr>141</ns3:hr>
          </ns3:TrackPointExtension>
        </extensions>
      </trkpt>
      <trkpt lat="46.66280806995928287506103515625" lon="6.84520720504224300384521484375">
        <ele>749</ele>
        <time>2013-08-15T16:14:16.000Z</time>
        <extensions>
          <ns3:TrackPointExtension>
            <ns3:atemp>20.0</ns3:atemp>
            <ns3:hr>141</ns3:hr>
          </ns3:TrackPointExtension>
        </extensions>
      </trkpt>
      <trkpt lat="46.66274738498032093048095703125" lon="6.84516931883990764617919921875">
        <ele>749</ele>
        <time>2013-08-15T16:14:17.000Z</time>
        <extensions>
          <ns3:TrackPointExtension>
            <ns3:atemp>20.0</ns3:atemp>
            <ns3:hr>141</ns3:hr>
          </ns3:TrackPointExtension>
        </extensions>
      </trkpt>
      <trkpt lat="46.66269022040069103240966796875" lon="6.8451400659978389739990234375">
        <ele>749</ele>
        <time>2013-08-15T16:14:18.000Z</time>
        <extensions>
          <ns3:TrackPointExtension>
            <ns3:atemp>20.0</ns3:atemp>
            <ns3:hr>140</ns3:hr>
          </ns3:TrackPointExtension>
        </extensions>
      </trkpt>
      <trkpt lat="46.66264143772423267364501953125" lon="6.84511349536478519439697265625">
        <ele>749.20001220703125</ele>
        <time>2013-08-15T16:14:19.000Z</time>
        <extensions>
          <ns3:TrackPointExtension>
            <ns3:atemp>20.0</ns3:atemp>
            <ns3:hr>140</ns3:hr>
          </ns3:TrackPointExtension>
        </extensions>
      </trkpt>
      <trkpt lat="46.6625945828855037689208984375" lon="6.845086924731731414794921875">
        <ele>749.20001220703125</ele>
        <time>2013-08-15T16:14:20.000Z</time>
        <extensions>
          <ns3:TrackPointExtension>
            <ns3:atemp>20.0</ns3:atemp>
            <ns3:hr>140</ns3:hr>
          </ns3:TrackPointExtension>
        </extensions>
      </trkpt>
      <trkpt lat="46.66254873387515544891357421875" lon="6.8450622819364070892333984375">
        <ele>749</ele>
        <time>2013-08-15T16:14:21.000Z</time>
        <extensions>
          <ns3:TrackPointExtension>
            <ns3:atemp>20.0</ns3:atemp>
            <ns3:hr>140</ns3:hr>
          </ns3:TrackPointExtension>
        </extensions>
      </trkpt>
      <trkpt lat="46.662498526275157928466796875" lon="6.84504878707230091094970703125">
        <ele>748.79998779296875</ele>
        <time>2013-08-15T16:14:22.000Z</time>
        <extensions>
          <ns3:TrackPointExtension>
            <ns3:atemp>20.0</ns3:atemp>
            <ns3:hr>140</ns3:hr>
          </ns3:TrackPointExtension>
        </extensions>
      </trkpt>
      <trkpt lat="46.66245150379836559295654296875" lon="6.8450277484953403472900390625">
        <ele>749.20001220703125</ele>
        <time>2013-08-15T16:14:23.000Z</time>
        <extensions>
          <ns3:TrackPointExtension>
            <ns3:atemp>20.0</ns3:atemp>
            <ns3:hr>139</ns3:hr>
          </ns3:TrackPointExtension>
        </extensions>
      </trkpt>
      <trkpt lat="46.66240305639803409576416015625" lon="6.845006458461284637451171875">
        <ele>749.4000244140625</ele>
        <time>2013-08-15T16:14:24.000Z</time>
        <extensions>
          <ns3:TrackPointExtension>
            <ns3:atemp>20.0</ns3:atemp>
            <ns3:hr>139</ns3:hr>
          </ns3:TrackPointExtension>
        </extensions>
      </trkpt>
      <trkpt lat="46.66235066950321197509765625" lon="6.84498659335076808929443359375">
        <ele>749.4000244140625</ele>
        <time>2013-08-15T16:14:25.000Z</time>
        <extensions>
          <ns3:TrackPointExtension>
            <ns3:atemp>20.0</ns3:atemp>
            <ns3:hr>140</ns3:hr>
          </ns3:TrackPointExtension>
        </extensions>
      </trkpt>
      <trkpt lat="46.66229962371289730072021484375" lon="6.84495650231838226318359375">
        <ele>749.5999755859375</ele>
        <time>2013-08-15T16:14:26.000Z</time>
        <extensions>
          <ns3:TrackPointExtension>
            <ns3:atemp>20.0</ns3:atemp>
            <ns3:hr>139</ns3:hr>
          </ns3:TrackPointExtension>
        </extensions>
      </trkpt>
      <trkpt lat="46.6622529365122318267822265625" lon="6.844928003847599029541015625">
        <ele>749.4000244140625</ele>
        <time>2013-08-15T16:14:27.000Z</time>
        <extensions>
          <ns3:TrackPointExtension>
            <ns3:atemp>20.0</ns3:atemp>
            <ns3:hr>139</ns3:hr>
          </ns3:TrackPointExtension>
        </extensions>
      </trkpt>
      <trkpt lat="46.66220356710255146026611328125" lon="6.84490730054676532745361328125">
        <ele>749.5999755859375</ele>
        <time>2013-08-15T16:14:28.000Z</time>
        <extensions>
          <ns3:TrackPointExtension>
            <ns3:atemp>20.0</ns3:atemp>
            <ns3:hr>139</ns3:hr>
          </ns3:TrackPointExtension>
        </extensions>
      </trkpt>
      <trkpt lat="46.6621664352715015411376953125" lon="6.8448793888092041015625">
        <ele>749.5999755859375</ele>
        <time>2013-08-15T16:14:29.000Z</time>
        <extensions>
          <ns3:TrackPointExtension>
            <ns3:atemp>20.0</ns3:atemp>
            <ns3:hr>139</ns3:hr>
          </ns3:TrackPointExtension>
        </extensions>
      </trkpt>
      <trkpt lat="46.66213366203010082244873046875" lon="6.8448363058269023895263671875">
        <ele>749.79998779296875</ele>
        <time>2013-08-15T16:14:30.000Z</time>
        <extensions>
          <ns3:TrackPointExtension>
            <ns3:atemp>20.0</ns3:atemp>
            <ns3:hr>139</ns3:hr>
          </ns3:TrackPointExtension>
        </extensions>
      </trkpt>
      <trkpt lat="46.66211421601474285125732421875" lon="6.84478090144693851470947265625">
        <ele>749.5999755859375</ele>
        <time>2013-08-15T16:14:31.000Z</time>
        <extensions>
          <ns3:TrackPointExtension>
            <ns3:atemp>20.0</ns3:atemp>
            <ns3:hr>139</ns3:hr>
          </ns3:TrackPointExtension>
        </extensions>
      </trkpt>
      <trkpt lat="46.66210583411157131195068359375" lon="6.8447280116379261016845703125">
        <ele>749.5999755859375</ele>
        <time>2013-08-15T16:14:32.000Z</time>
        <extensions>
          <ns3:TrackPointExtension>
            <ns3:atemp>20.0</ns3:atemp>
            <ns3:hr>139</ns3:hr>
          </ns3:TrackPointExtension>
        </extensions>
      </trkpt>
      <trkpt lat="46.66208990849554538726806640625" lon="6.8446767143905162811279296875">
        <ele>749.5999755859375</ele>
        <time>2013-08-15T16:14:33.000Z</time>
        <extensions>
          <ns3:TrackPointExtension>
            <ns3:atemp>20.0</ns3:atemp>
            <ns3:hr>139</ns3:hr>
          </ns3:TrackPointExtension>
        </extensions>
      </trkpt>
      <trkpt lat="46.66206769645214080810546875" lon="6.844633631408214569091796875">
        <ele>749.5999755859375</ele>
        <time>2013-08-15T16:14:34.000Z</time>
        <extensions>
          <ns3:TrackPointExtension>
            <ns3:atemp>20.0</ns3:atemp>
            <ns3:hr>139</ns3:hr>
          </ns3:TrackPointExtension>
        </extensions>
      </trkpt>
      <trkpt lat="46.66204146109521389007568359375" lon="6.844598762691020965576171875">
        <ele>750</ele>
        <time>2013-08-15T16:14:35.000Z</time>
        <extensions>
          <ns3:TrackPointExtension>
            <ns3:atemp>20.0</ns3:atemp>
            <ns3:hr>140</ns3:hr>
          </ns3:TrackPointExtension>
        </extensions>
      </trkpt>
      <trkpt lat="46.6620125435292720794677734375" lon="6.84457504190504550933837890625">
        <ele>750.20001220703125</ele>
        <time>2013-08-15T16:14:36.000Z</time>
        <extensions>
          <ns3:TrackPointExtension>
            <ns3:atemp>20.0</ns3:atemp>
            <ns3:hr>140</ns3:hr>
          </ns3:TrackPointExtension>
        </extensions>
      </trkpt>
      <trkpt lat="46.6619733162224292755126953125" lon="6.8445576913654804229736328125">
        <ele>750.5999755859375</ele>
        <time>2013-08-15T16:14:37.000Z</time>
        <extensions>
          <ns3:TrackPointExtension>
            <ns3:atemp>20.0</ns3:atemp>
            <ns3:hr>140</ns3:hr>
          </ns3:TrackPointExtension>
        </extensions>
      </trkpt>
      <trkpt lat="46.66193434037268161773681640625" lon="6.84453849680721759796142578125">
        <ele>750.5999755859375</ele>
        <time>2013-08-15T16:14:38.000Z</time>
        <extensions>
          <ns3:TrackPointExtension>
            <ns3:atemp>20.0</ns3:atemp>
            <ns3:hr>140</ns3:hr>
          </ns3:TrackPointExtension>
        </extensions>
      </trkpt>
      <trkpt lat="46.661894358694553375244140625" lon="6.84451838023960590362548828125">
        <ele>750.4000244140625</ele>
        <time>2013-08-15T16:14:39.000Z</time>
        <extensions>
          <ns3:TrackPointExtension>
            <ns3:atemp>20.0</ns3:atemp>
            <ns3:hr>140</ns3:hr>
          </ns3:TrackPointExtension>
        </extensions>
      </trkpt>
      <trkpt lat="46.66185588575899600982666015625" lon="6.844503879547119140625">
        <ele>750.4000244140625</ele>
        <time>2013-08-15T16:14:40.000Z</time>
        <extensions>
          <ns3:TrackPointExtension>
            <ns3:atemp>20.0</ns3:atemp>
            <ns3:hr>140</ns3:hr>
          </ns3:TrackPointExtension>
        </extensions>
      </trkpt>
      <trkpt lat="46.66181623935699462890625" lon="6.84448049403727054595947265625">
        <ele>750.20001220703125</ele>
        <time>2013-08-15T16:14:41.000Z</time>
        <extensions>
          <ns3:TrackPointExtension>
            <ns3:atemp>20.0</ns3:atemp>
            <ns3:hr>140</ns3:hr>
          </ns3:TrackPointExtension>
        </extensions>
      </trkpt>
      <trkpt lat="46.66177860461175441741943359375" lon="6.84446356259286403656005859375">
        <ele>750.20001220703125</ele>
        <time>2013-08-15T16:14:42.000Z</time>
        <extensions>
          <ns3:TrackPointExtension>
            <ns3:atemp>20.0</ns3:atemp>
            <ns3:hr>140</ns3:hr>
          </ns3:TrackPointExtension>
        </extensions>
      </trkpt>
      <trkpt lat="46.661749184131622314453125" lon="6.844433136284351348876953125">
        <ele>750.4000244140625</ele>
        <time>2013-08-15T16:14:43.000Z</time>
        <extensions>
          <ns3:TrackPointExtension>
            <ns3:atemp>20.0</ns3:atemp>
            <ns3:hr>139</ns3:hr>
          </ns3:TrackPointExtension>
        </extensions>
      </trkpt>
      <trkpt lat="46.6617332585155963897705078125" lon="6.8443818390369415283203125">
        <ele>750.4000244140625</ele>
        <time>2013-08-15T16:14:44.000Z</time>
        <extensions>
          <ns3:TrackPointExtension>
            <ns3:atemp>20.0</ns3:atemp>
            <ns3:hr>139</ns3:hr>
          </ns3:TrackPointExtension>
        </extensions>
      </trkpt>
      <trkpt lat="46.66171406395733356475830078125" lon="6.844340600073337554931640625">
        <ele>750.20001220703125</ele>
        <time>2013-08-15T16:14:45.000Z</time>
        <extensions>
          <ns3:TrackPointExtension>
            <ns3:atemp>20.0</ns3:atemp>
            <ns3:hr>139</ns3:hr>
          </ns3:TrackPointExtension>
        </extensions>
      </trkpt>
      <trkpt lat="46.66169445030391216278076171875" lon="6.84429508633911609649658203125">
        <ele>750.20001220703125</ele>
        <time>2013-08-15T16:14:46.000Z</time>
        <extensions>
          <ns3:TrackPointExtension>
            <ns3:atemp>20.0</ns3:atemp>
            <ns3:hr>138</ns3:hr>
          </ns3:TrackPointExtension>
        </extensions>
      </trkpt>
      <trkpt lat="46.66167517192661762237548828125" lon="6.844234652817249298095703125">
        <ele>749.5999755859375</ele>
        <time>2013-08-15T16:14:47.000Z</time>
        <extensions>
          <ns3:TrackPointExtension>
            <ns3:atemp>20.0</ns3:atemp>
            <ns3:hr>138</ns3:hr>
          </ns3:TrackPointExtension>
        </extensions>
      </trkpt>
      <trkpt lat="46.66165874339640140533447265625" lon="6.84417120181024074554443359375">
        <ele>749.20001220703125</ele>
        <time>2013-08-15T16:14:48.000Z</time>
        <extensions>
          <ns3:TrackPointExtension>
            <ns3:atemp>20.0</ns3:atemp>
            <ns3:hr>137</ns3:hr>
          </ns3:TrackPointExtension>
        </extensions>
      </trkpt>
      <trkpt lat="46.6616410575807094573974609375" lon="6.84409953653812408447265625">
        <ele>748.4000244140625</ele>
        <time>2013-08-15T16:14:49.000Z</time>
        <extensions>
          <ns3:TrackPointExtension>
            <ns3:atemp>20.0</ns3:atemp>
            <ns3:hr>136</ns3:hr>
          </ns3:TrackPointExtension>
        </extensions>
      </trkpt>
      <trkpt lat="46.66161901317536830902099609375" lon="6.84402300976216793060302734375">
        <ele>747.5999755859375</ele>
        <time>2013-08-15T16:14:50.000Z</time>
        <extensions>
          <ns3:TrackPointExtension>
            <ns3:atemp>20.0</ns3:atemp>
            <ns3:hr>135</ns3:hr>
          </ns3:TrackPointExtension>
        </extensions>
      </trkpt>
      <trkpt lat="46.66159504093229770660400390625" lon="6.84396131895482540130615234375">
        <ele>746.4000244140625</ele>
        <time>2013-08-15T16:14:51.000Z</time>
        <extensions>
          <ns3:TrackPointExtension>
            <ns3:atemp>20.0</ns3:atemp>
            <ns3:hr>135</ns3:hr>
          </ns3:TrackPointExtension>
        </extensions>
      </trkpt>
      <trkpt lat="46.6615652851760387420654296875" lon="6.84389895759522914886474609375">
        <ele>745.20001220703125</ele>
        <time>2013-08-15T16:14:52.000Z</time>
        <extensions>
          <ns3:TrackPointExtension>
            <ns3:atemp>20.0</ns3:atemp>
            <ns3:hr>135</ns3:hr>
          </ns3:TrackPointExtension>
        </extensions>
      </trkpt>
      <trkpt lat="46.66152647696435451507568359375" lon="6.84384246356785297393798828125">
        <ele>743.5999755859375</ele>
        <time>2013-08-15T16:14:53.000Z</time>
        <extensions>
          <ns3:TrackPointExtension>
            <ns3:atemp>20.0</ns3:atemp>
            <ns3:hr>134</ns3:hr>
          </ns3:TrackPointExtension>
        </extensions>
      </trkpt>
      <trkpt lat="46.661479957401752471923828125" lon="6.84379401616752147674560546875">
        <ele>742.20001220703125</ele>
        <time>2013-08-15T16:14:54.000Z</time>
        <extensions>
          <ns3:TrackPointExtension>
            <ns3:atemp>20.0</ns3:atemp>
            <ns3:hr>134</ns3:hr>
          </ns3:TrackPointExtension>
        </extensions>
      </trkpt>
      <trkpt lat="46.6614244692027568817138671875" lon="6.84375981800258159637451171875">
        <ele>741</ele>
        <time>2013-08-15T16:14:55.000Z</time>
        <extensions>
          <ns3:TrackPointExtension>
            <ns3:atemp>20.0</ns3:atemp>
            <ns3:hr>133</ns3:hr>
          </ns3:TrackPointExtension>
        </extensions>
      </trkpt>
      <trkpt lat="46.6613704897463321685791015625" lon="6.84374422766268253326416015625">
        <ele>740.20001220703125</ele>
        <time>2013-08-15T16:14:56.000Z</time>
        <extensions>
          <ns3:TrackPointExtension>
            <ns3:atemp>20.0</ns3:atemp>
            <ns3:hr>132</ns3:hr>
          </ns3:TrackPointExtension>
        </extensions>
      </trkpt>
      <trkpt lat="46.66132070124149322509765625" lon="6.8437248654663562774658203125">
        <ele>739.4000244140625</ele>
        <time>2013-08-15T16:14:57.000Z</time>
        <extensions>
          <ns3:TrackPointExtension>
            <ns3:atemp>20.0</ns3:atemp>
            <ns3:hr>132</ns3:hr>
          </ns3:TrackPointExtension>
        </extensions>
      </trkpt>
      <trkpt lat="46.6612838208675384521484375" lon="6.843723356723785400390625">
        <ele>738.79998779296875</ele>
        <time>2013-08-15T16:14:58.000Z</time>
        <extensions>
          <ns3:TrackPointExtension>
            <ns3:atemp>20.0</ns3:atemp>
            <ns3:hr>132</ns3:hr>
          </ns3:TrackPointExtension>
        </extensions>
      </trkpt>
      <trkpt lat="46.66125305928289890289306640625" lon="6.84373986907303333282470703125">
        <ele>738.4000244140625</ele>
        <time>2013-08-15T16:14:59.000Z</time>
        <extensions>
          <ns3:TrackPointExtension>
            <ns3:atemp>20.0</ns3:atemp>
            <ns3:hr>131</ns3:hr>
          </ns3:TrackPointExtension>
        </extensions>
      </trkpt>
      <trkpt lat="46.661221124231815338134765625" lon="6.84375621378421783447265625">
        <ele>738.20001220703125</ele>
        <time>2013-08-15T16:15:00.000Z</time>
        <extensions>
          <ns3:TrackPointExtension>
            <ns3:atemp>20.0</ns3:atemp>
            <ns3:hr>131</ns3:hr>
          </ns3:TrackPointExtension>
        </extensions>
      </trkpt>
      <trkpt lat="46.66117988526821136474609375" lon="6.84378513135015964508056640625">
        <ele>737.79998779296875</ele>
        <time>2013-08-15T16:15:01.000Z</time>
        <extensions>
          <ns3:TrackPointExtension>
            <ns3:atemp>20.0</ns3:atemp>
            <ns3:hr>131</ns3:hr>
          </ns3:TrackPointExtension>
        </extensions>
      </trkpt>
      <trkpt lat="46.661148704588413238525390625" lon="6.84381832368671894073486328125">
        <ele>737.4000244140625</ele>
        <time>2013-08-15T16:15:02.000Z</time>
        <extensions>
          <ns3:TrackPointExtension>
            <ns3:atemp>20.0</ns3:atemp>
            <ns3:hr>131</ns3:hr>
          </ns3:TrackPointExtension>
        </extensions>
      </trkpt>
      <trkpt lat="46.6611213795840740203857421875" lon="6.84385805390775203704833984375">
        <ele>737</ele>
        <time>2013-08-15T16:15:03.000Z</time>
        <extensions>
          <ns3:TrackPointExtension>
            <ns3:atemp>20.0</ns3:atemp>
            <ns3:hr>131</ns3:hr>
          </ns3:TrackPointExtension>
        </extensions>
      </trkpt>
      <trkpt lat="46.66109003126621246337890625" lon="6.8438878096640110015869140625">
        <ele>736.5999755859375</ele>
        <time>2013-08-15T16:15:04.000Z</time>
        <extensions>
          <ns3:TrackPointExtension>
            <ns3:atemp>20.0</ns3:atemp>
            <ns3:hr>131</ns3:hr>
          </ns3:TrackPointExtension>
        </extensions>
      </trkpt>
      <trkpt lat="46.66106128133833408355712890625" lon="6.84392561204731464385986328125">
        <ele>736.4000244140625</ele>
        <time>2013-08-15T16:15:05.000Z</time>
        <extensions>
          <ns3:TrackPointExtension>
            <ns3:atemp>20.0</ns3:atemp>
            <ns3:hr>131</ns3:hr>
          </ns3:TrackPointExtension>
        </extensions>
      </trkpt>
      <trkpt lat="46.66102875955402851104736328125" lon="6.84396450407803058624267578125">
        <ele>736</ele>
        <time>2013-08-15T16:15:06.000Z</time>
        <extensions>
          <ns3:TrackPointExtension>
            <ns3:atemp>20.0</ns3:atemp>
            <ns3:hr>131</ns3:hr>
          </ns3:TrackPointExtension>
        </extensions>
      </trkpt>
      <trkpt lat="46.66100109927356243133544921875" lon="6.8440071679651737213134765625">
        <ele>736</ele>
        <time>2013-08-15T16:15:07.000Z</time>
        <extensions>
          <ns3:TrackPointExtension>
            <ns3:atemp>20.0</ns3:atemp>
            <ns3:hr>130</ns3:hr>
          </ns3:TrackPointExtension>
        </extensions>
      </trkpt>
      <trkpt lat="46.66096924804151058197021484375" lon="6.84404714964330196380615234375">
        <ele>735.79998779296875</ele>
        <time>2013-08-15T16:15:08.000Z</time>
        <extensions>
          <ns3:TrackPointExtension>
            <ns3:atemp>20.0</ns3:atemp>
            <ns3:hr>130</ns3:hr>
          </ns3:TrackPointExtension>
        </extensions>
      </trkpt>
      <trkpt lat="46.660931445658206939697265625" lon="6.8440554477274417877197265625">
        <ele>736.20001220703125</ele>
        <time>2013-08-15T16:15:09.000Z</time>
        <extensions>
          <ns3:TrackPointExtension>
            <ns3:atemp>20.0</ns3:atemp>
            <ns3:hr>130</ns3:hr>
          </ns3:TrackPointExtension>
        </extensions>
      </trkpt>
      <trkpt lat="46.6608920507133007049560546875" lon="6.8440465629100799560546875">
        <ele>735.5999755859375</ele>
        <time>2013-08-15T16:15:10.000Z</time>
        <extensions>
          <ns3:TrackPointExtension>
            <ns3:atemp>20.0</ns3:atemp>
            <ns3:hr>129</ns3:hr>
          </ns3:TrackPointExtension>
        </extensions>
      </trkpt>
      <trkpt lat="46.66085961274802684783935546875" lon="6.8440292961895465850830078125">
        <ele>735</ele>
        <time>2013-08-15T16:15:11.000Z</time>
        <extensions>
          <ns3:TrackPointExtension>
            <ns3:atemp>20.0</ns3:atemp>
            <ns3:hr>130</ns3:hr>
          </ns3:TrackPointExtension>
        </extensions>
      </trkpt>
      <trkpt lat="46.66082424111664295196533203125" lon="6.84401513077318668365478515625">
        <ele>735</ele>
        <time>2013-08-15T16:15:12.000Z</time>
        <extensions>
          <ns3:TrackPointExtension>
            <ns3:atemp>20.0</ns3:atemp>
            <ns3:hr>129</ns3:hr>
          </ns3:TrackPointExtension>
        </extensions>
      </trkpt>
      <trkpt lat="46.66078518144786357879638671875" lon="6.84398059733211994171142578125">
        <ele>734.79998779296875</ele>
        <time>2013-08-15T16:15:13.000Z</time>
        <extensions>
          <ns3:TrackPointExtension>
            <ns3:atemp>20.0</ns3:atemp>
            <ns3:hr>129</ns3:hr>
          </ns3:TrackPointExtension>
        </extensions>
      </trkpt>
      <trkpt lat="46.6607428528368473052978515625" lon="6.84394623152911663055419921875">
        <ele>734.79998779296875</ele>
        <time>2013-08-15T16:15:14.000Z</time>
        <extensions>
          <ns3:TrackPointExtension>
            <ns3:atemp>20.0</ns3:atemp>
            <ns3:hr>128</ns3:hr>
          </ns3:TrackPointExtension>
        </extensions>
      </trkpt>
      <trkpt lat="46.66069717146456241607666015625" lon="6.8439142964780330657958984375">
        <ele>734.79998779296875</ele>
        <time>2013-08-15T16:15:15.000Z</time>
        <extensions>
          <ns3:TrackPointExtension>
            <ns3:atemp>20.0</ns3:atemp>
            <ns3:hr>128</ns3:hr>
          </ns3:TrackPointExtension>
        </extensions>
      </trkpt>
      <trkpt lat="46.6606462933123111724853515625" lon="6.843873225152492523193359375">
        <ele>735</ele>
        <time>2013-08-15T16:15:16.000Z</time>
        <extensions>
          <ns3:TrackPointExtension>
            <ns3:atemp>20.0</ns3:atemp>
            <ns3:hr>127</ns3:hr>
          </ns3:TrackPointExtension>
        </extensions>
      </trkpt>
      <trkpt lat="46.660596169531345367431640625" lon="6.84383668005466461181640625">
        <ele>735</ele>
        <time>2013-08-15T16:15:17.000Z</time>
        <extensions>
          <ns3:TrackPointExtension>
            <ns3:atemp>20.0</ns3:atemp>
            <ns3:hr>127</ns3:hr>
          </ns3:TrackPointExtension>
        </extensions>
      </trkpt>
      <trkpt lat="46.66054814122617244720458984375" lon="6.8437912501394748687744140625">
        <ele>735</ele>
        <time>2013-08-15T16:15:18.000Z</time>
        <extensions>
          <ns3:TrackPointExtension>
            <ns3:atemp>20.0</ns3:atemp>
            <ns3:hr>127</ns3:hr>
          </ns3:TrackPointExtension>
        </extensions>
      </trkpt>
      <trkpt lat="46.66050187312066555023193359375" lon="6.8437422998249530792236328125">
        <ele>735</ele>
        <time>2013-08-15T16:15:19.000Z</time>
        <extensions>
          <ns3:TrackPointExtension>
            <ns3:atemp>20.0</ns3:atemp>
            <ns3:hr>127</ns3:hr>
          </ns3:TrackPointExtension>
        </extensions>
      </trkpt>
      <trkpt lat="46.6604603826999664306640625" lon="6.84369125403463840484619140625">
        <ele>735</ele>
        <time>2013-08-15T16:15:20.000Z</time>
        <extensions>
          <ns3:TrackPointExtension>
            <ns3:atemp>20.0</ns3:atemp>
            <ns3:hr>127</ns3:hr>
          </ns3:TrackPointExtension>
        </extensions>
      </trkpt>
      <trkpt lat="46.66042224504053592681884765625" lon="6.84364750050008296966552734375">
        <ele>735</ele>
        <time>2013-08-15T16:15:21.000Z</time>
        <extensions>
          <ns3:TrackPointExtension>
            <ns3:atemp>20.0</ns3:atemp>
            <ns3:hr>127</ns3:hr>
          </ns3:TrackPointExtension>
        </extensions>
      </trkpt>
      <trkpt lat="46.66037128306925296783447265625" lon="6.84359821490943431854248046875">
        <ele>735</ele>
        <time>2013-08-15T16:15:22.000Z</time>
        <extensions>
          <ns3:TrackPointExtension>
            <ns3:atemp>20.0</ns3:atemp>
            <ns3:hr>128</ns3:hr>
          </ns3:TrackPointExtension>
        </extensions>
      </trkpt>
      <trkpt lat="46.6603209078311920166015625" lon="6.84354188852012157440185546875">
        <ele>734.5999755859375</ele>
        <time>2013-08-15T16:15:23.000Z</time>
        <extensions>
          <ns3:TrackPointExtension>
            <ns3:atemp>20.0</ns3:atemp>
            <ns3:hr>128</ns3:hr>
          </ns3:TrackPointExtension>
        </extensions>
      </trkpt>
      <trkpt lat="46.66027866303920745849609375" lon="6.84348271228373050689697265625">
        <ele>734.4000244140625</ele>
        <time>2013-08-15T16:15:24.000Z</time>
        <extensions>
          <ns3:TrackPointExtension>
            <ns3:atemp>20.0</ns3:atemp>
            <ns3:hr>128</ns3:hr>
          </ns3:TrackPointExtension>
        </extensions>
      </trkpt>
      <trkpt lat="46.660243459045886993408203125" lon="6.84342035092413425445556640625">
        <ele>734</ele>
        <time>2013-08-15T16:15:25.000Z</time>
        <extensions>
          <ns3:TrackPointExtension>
            <ns3:atemp>20.0</ns3:atemp>
            <ns3:hr>128</ns3:hr>
          </ns3:TrackPointExtension>
        </extensions>
      </trkpt>
      <trkpt lat="46.6602111048996448516845703125" lon="6.84335681609809398651123046875">
        <ele>734.20001220703125</ele>
        <time>2013-08-15T16:15:26.000Z</time>
        <extensions>
          <ns3:TrackPointExtension>
            <ns3:atemp>20.0</ns3:atemp>
            <ns3:hr>128</ns3:hr>
          </ns3:TrackPointExtension>
        </extensions>
      </trkpt>
      <trkpt lat="46.66018009185791015625" lon="6.843278110027313232421875">
        <ele>734.20001220703125</ele>
        <time>2013-08-15T16:15:27.000Z</time>
        <extensions>
          <ns3:TrackPointExtension>
            <ns3:atemp>20.0</ns3:atemp>
            <ns3:hr>129</ns3:hr>
          </ns3:TrackPointExtension>
        </extensions>
      </trkpt>
      <trkpt lat="46.6601531021296977996826171875" lon="6.84319672174751758575439453125">
        <ele>734.20001220703125</ele>
        <time>2013-08-15T16:15:28.000Z</time>
        <extensions>
          <ns3:TrackPointExtension>
            <ns3:atemp>20.0</ns3:atemp>
            <ns3:hr>129</ns3:hr>
          </ns3:TrackPointExtension>
        </extensions>
      </trkpt>
      <trkpt lat="46.66013189591467380523681640625" lon="6.84311944060027599334716796875">
        <ele>733.79998779296875</ele>
        <time>2013-08-15T16:15:29.000Z</time>
        <extensions>
          <ns3:TrackPointExtension>
            <ns3:atemp>20.0</ns3:atemp>
            <ns3:hr>128</ns3:hr>
          </ns3:TrackPointExtension>
        </extensions>
      </trkpt>
      <trkpt lat="46.66012535803020000457763671875" lon="6.84303377754986286163330078125">
        <ele>733.5999755859375</ele>
        <time>2013-08-15T16:15:30.000Z</time>
        <extensions>
          <ns3:TrackPointExtension>
            <ns3:atemp>20.0</ns3:atemp>
            <ns3:hr>129</ns3:hr>
          </ns3:TrackPointExtension>
        </extensions>
      </trkpt>
      <trkpt lat="46.66011446155607700347900390625" lon="6.842951215803623199462890625">
        <ele>733.20001220703125</ele>
        <time>2013-08-15T16:15:31.000Z</time>
        <extensions>
          <ns3:TrackPointExtension>
            <ns3:atemp>20.0</ns3:atemp>
            <ns3:hr>128</ns3:hr>
          </ns3:TrackPointExtension>
        </extensions>
      </trkpt>
      <trkpt lat="46.6601049900054931640625" lon="6.8428744375705718994140625">
        <ele>732.79998779296875</ele>
        <time>2013-08-15T16:15:32.000Z</time>
        <extensions>
          <ns3:TrackPointExtension>
            <ns3:atemp>20.0</ns3:atemp>
            <ns3:hr>127</ns3:hr>
          </ns3:TrackPointExtension>
        </extensions>
      </trkpt>
      <trkpt lat="46.66010624729096889495849609375" lon="6.84282037429511547088623046875">
        <ele>732.20001220703125</ele>
        <time>2013-08-15T16:15:33.000Z</time>
        <extensions>
          <ns3:TrackPointExtension>
            <ns3:atemp>20.0</ns3:atemp>
            <ns3:hr>127</ns3:hr>
          </ns3:TrackPointExtension>
        </extensions>
      </trkpt>
      <trkpt lat="46.660103313624858856201171875" lon="6.84278600849211215972900390625">
        <ele>731.4000244140625</ele>
        <time>2013-08-15T16:15:34.000Z</time>
        <extensions>
          <ns3:TrackPointExtension>
            <ns3:atemp>19.0</ns3:atemp>
            <ns3:hr>127</ns3:hr>
          </ns3:TrackPointExtension>
        </extensions>
      </trkpt>
      <trkpt lat="46.66009753011167049407958984375" lon="6.8427673168480396270751953125">
        <ele>730.79998779296875</ele>
        <time>2013-08-15T16:15:35.000Z</time>
        <extensions>
          <ns3:TrackPointExtension>
            <ns3:atemp>19.0</ns3:atemp>
            <ns3:hr>127</ns3:hr>
          </ns3:TrackPointExtension>
        </extensions>
      </trkpt>
      <trkpt lat="46.66009099222719669342041015625" lon="6.8427515588700771331787109375">
        <ele>730.5999755859375</ele>
        <time>2013-08-15T16:15:36.000Z</time>
        <extensions>
          <ns3:TrackPointExtension>
            <ns3:atemp>19.0</ns3:atemp>
            <ns3:hr>126</ns3:hr>
          </ns3:TrackPointExtension>
        </extensions>
      </trkpt>
      <trkpt lat="46.66008646599948406219482421875" lon="6.84273756109178066253662109375">
        <ele>730.5999755859375</ele>
        <time>2013-08-15T16:15:37.000Z</time>
        <extensions>
          <ns3:TrackPointExtension>
            <ns3:atemp>19.0</ns3:atemp>
            <ns3:hr>125</ns3:hr>
          </ns3:TrackPointExtension>
        </extensions>
      </trkpt>
      <trkpt lat="46.66009032167494297027587890625" lon="6.8427478708326816558837890625">
        <ele>730.5999755859375</ele>
        <time>2013-08-15T16:15:38.000Z</time>
        <extensions>
          <ns3:TrackPointExtension>
            <ns3:atemp>19.0</ns3:atemp>
            <ns3:hr>124</ns3:hr>
          </ns3:TrackPointExtension>
        </extensions>
      </trkpt>
      <trkpt lat="46.66008445434272289276123046875" lon="6.842720545828342437744140625">
        <ele>730.5999755859375</ele>
        <time>2013-08-15T16:15:39.000Z</time>
        <extensions>
          <ns3:TrackPointExtension>
            <ns3:atemp>19.0</ns3:atemp>
            <ns3:hr>124</ns3:hr>
          </ns3:TrackPointExtension>
        </extensions>
      </trkpt>
      <trkpt lat="46.66008395142853260040283203125" lon="6.84271677397191524505615234375">
        <ele>730.79998779296875</ele>
        <time>2013-08-15T16:15:40.000Z</time>
        <extensions>
          <ns3:TrackPointExtension>
            <ns3:atemp>19.0</ns3:atemp>
            <ns3:hr>125</ns3:hr>
          </ns3:TrackPointExtension>
        </extensions>
      </trkpt>
      <trkpt lat="46.66008395142853260040283203125" lon="6.84271677397191524505615234375">
        <ele>731</ele>
        <time>2013-08-15T16:15:41.000Z</time>
        <extensions>
          <ns3:TrackPointExtension>
            <ns3:atemp>19.0</ns3:atemp>
            <ns3:hr>125</ns3:hr>
          </ns3:TrackPointExtension>
        </extensions>
      </trkpt>
      <trkpt lat="46.66008110158145427703857421875" lon="6.84272197075188159942626953125">
        <ele>731.20001220703125</ele>
        <time>2013-08-15T16:15:42.000Z</time>
        <extensions>
          <ns3:TrackPointExtension>
            <ns3:atemp>19.0</ns3:atemp>
            <ns3:hr>125</ns3:hr>
          </ns3:TrackPointExtension>
        </extensions>
      </trkpt>
      <trkpt lat="46.6600780002772808074951171875" lon="6.842727921903133392333984375">
        <ele>731.4000244140625</ele>
        <time>2013-08-15T16:15:43.000Z</time>
        <extensions>
          <ns3:TrackPointExtension>
            <ns3:atemp>19.0</ns3:atemp>
            <ns3:hr>125</ns3:hr>
          </ns3:TrackPointExtension>
        </extensions>
      </trkpt>
      <trkpt lat="46.660073138773441314697265625" lon="6.84273504652082920074462890625">
        <ele>731.4000244140625</ele>
        <time>2013-08-15T16:15:44.000Z</time>
        <extensions>
          <ns3:TrackPointExtension>
            <ns3:atemp>19.0</ns3:atemp>
            <ns3:hr>125</ns3:hr>
          </ns3:TrackPointExtension>
        </extensions>
      </trkpt>
      <trkpt lat="46.66006584651768207550048828125" lon="6.8427431769669055938720703125">
        <ele>731.79998779296875</ele>
        <time>2013-08-15T16:15:45.000Z</time>
        <extensions>
          <ns3:TrackPointExtension>
            <ns3:atemp>19.0</ns3:atemp>
            <ns3:hr>125</ns3:hr>
          </ns3:TrackPointExtension>
        </extensions>
      </trkpt>
      <trkpt lat="46.66006140410900115966796875" lon="6.8427515588700771331787109375">
        <ele>731.79998779296875</ele>
        <time>2013-08-15T16:15:46.000Z</time>
        <extensions>
          <ns3:TrackPointExtension>
            <ns3:atemp>19.0</ns3:atemp>
            <ns3:hr>125</ns3:hr>
          </ns3:TrackPointExtension>
        </extensions>
      </trkpt>
      <trkpt lat="46.66005981154739856719970703125" lon="6.84275734238326549530029296875">
        <ele>732</ele>
        <time>2013-08-15T16:15:47.000Z</time>
        <extensions>
          <ns3:TrackPointExtension>
            <ns3:atemp>19.0</ns3:atemp>
            <ns3:hr>125</ns3:hr>
          </ns3:TrackPointExtension>
        </extensions>
      </trkpt>
      <trkpt lat="46.66005930863320827484130859375" lon="6.84276505373418331146240234375">
        <ele>732.20001220703125</ele>
        <time>2013-08-15T16:15:48.000Z</time>
        <extensions>
          <ns3:TrackPointExtension>
            <ns3:atemp>19.0</ns3:atemp>
            <ns3:hr>125</ns3:hr>
          </ns3:TrackPointExtension>
        </extensions>
      </trkpt>
      <trkpt lat="46.66005779989063739776611328125" lon="6.8427760340273380279541015625">
        <ele>732.20001220703125</ele>
        <time>2013-08-15T16:15:49.000Z</time>
        <extensions>
          <ns3:TrackPointExtension>
            <ns3:atemp>19.0</ns3:atemp>
            <ns3:hr>125</ns3:hr>
          </ns3:TrackPointExtension>
        </extensions>
      </trkpt>
      <trkpt lat="46.66005411185324192047119140625" lon="6.84278885833919048309326171875">
        <ele>732.20001220703125</ele>
        <time>2013-08-15T16:15:50.000Z</time>
        <extensions>
          <ns3:TrackPointExtension>
            <ns3:atemp>19.0</ns3:atemp>
            <ns3:hr>124</ns3:hr>
          </ns3:TrackPointExtension>
        </extensions>
      </trkpt>
      <trkpt lat="46.660051681101322174072265625" lon="6.842806376516819000244140625">
        <ele>732.4000244140625</ele>
        <time>2013-08-15T16:15:51.000Z</time>
        <extensions>
          <ns3:TrackPointExtension>
            <ns3:atemp>19.0</ns3:atemp>
            <ns3:hr>123</ns3:hr>
          </ns3:TrackPointExtension>
        </extensions>
      </trkpt>
      <trkpt lat="46.66005109436810016632080078125" lon="6.84282221831381320953369140625">
        <ele>732.4000244140625</ele>
        <time>2013-08-15T16:15:52.000Z</time>
        <extensions>
          <ns3:TrackPointExtension>
            <ns3:atemp>19.0</ns3:atemp>
            <ns3:hr>123</ns3:hr>
          </ns3:TrackPointExtension>
        </extensions>
      </trkpt>
      <trkpt lat="46.6600484959781169891357421875" lon="6.84283361770212650299072265625">
        <ele>732.4000244140625</ele>
        <time>2013-08-15T16:15:53.000Z</time>
        <extensions>
          <ns3:TrackPointExtension>
            <ns3:atemp>19.0</ns3:atemp>
            <ns3:hr>122</ns3:hr>
          </ns3:TrackPointExtension>
        </extensions>
      </trkpt>
      <trkpt lat="46.6600495018064975738525390625" lon="6.84284434653818607330322265625">
        <ele>732.4000244140625</ele>
        <time>2013-08-15T16:15:54.000Z</time>
        <extensions>
          <ns3:TrackPointExtension>
            <ns3:atemp>19.0</ns3:atemp>
            <ns3:hr>120</ns3:hr>
          </ns3:TrackPointExtension>
        </extensions>
      </trkpt>
      <trkpt lat="46.66004958562552928924560546875" lon="6.8428531475365161895751953125">
        <ele>732.5999755859375</ele>
        <time>2013-08-15T16:15:55.000Z</time>
        <extensions>
          <ns3:TrackPointExtension>
            <ns3:atemp>19.0</ns3:atemp>
            <ns3:hr>120</ns3:hr>
          </ns3:TrackPointExtension>
        </extensions>
      </trkpt>
      <trkpt lat="46.66004824452102184295654296875" lon="6.8428615294396877288818359375">
        <ele>732.5999755859375</ele>
        <time>2013-08-15T16:15:56.000Z</time>
        <extensions>
          <ns3:TrackPointExtension>
            <ns3:atemp>19.0</ns3:atemp>
            <ns3:hr>119</ns3:hr>
          </ns3:TrackPointExtension>
        </extensions>
      </trkpt>
      <trkpt lat="46.66004824452102184295654296875" lon="6.8428615294396877288818359375">
        <ele>732.5999755859375</ele>
        <time>2013-08-15T16:15:57.000Z</time>
        <extensions>
          <ns3:TrackPointExtension>
            <ns3:atemp>19.0</ns3:atemp>
            <ns3:hr>119</ns3:hr>
          </ns3:TrackPointExtension>
        </extensions>
      </trkpt>
      <trkpt lat="46.66004690341651439666748046875" lon="6.8428771197795867919921875">
        <ele>732.79998779296875</ele>
        <time>2013-08-15T16:15:58.000Z</time>
        <extensions>
          <ns3:TrackPointExtension>
            <ns3:atemp>19.0</ns3:atemp>
            <ns3:hr>118</ns3:hr>
          </ns3:TrackPointExtension>
        </extensions>
      </trkpt>
      <trkpt lat="46.66004589758813381195068359375" lon="6.8428851664066314697265625">
        <ele>732.5999755859375</ele>
        <time>2013-08-15T16:15:59.000Z</time>
        <extensions>
          <ns3:TrackPointExtension>
            <ns3:atemp>19.0</ns3:atemp>
            <ns3:hr>118</ns3:hr>
          </ns3:TrackPointExtension>
        </extensions>
      </trkpt>
      <trkpt lat="46.66004589758813381195068359375" lon="6.8428851664066314697265625">
        <ele>732.5999755859375</ele>
        <time>2013-08-15T16:16:00.000Z</time>
        <extensions>
          <ns3:TrackPointExtension>
            <ns3:atemp>19.0</ns3:atemp>
            <ns3:hr>119</ns3:hr>
          </ns3:TrackPointExtension>
        </extensions>
      </trkpt>
      <trkpt lat="46.66004589758813381195068359375" lon="6.8428851664066314697265625">
        <ele>732.5999755859375</ele>
        <time>2013-08-15T16:16:01.000Z</time>
        <extensions>
          <ns3:TrackPointExtension>
            <ns3:atemp>19.0</ns3:atemp>
            <ns3:hr>119</ns3:hr>
          </ns3:TrackPointExtension>
        </extensions>
      </trkpt>
      <trkpt lat="46.6600501723587512969970703125" lon="6.8428957276046276092529296875">
        <ele>732.5999755859375</ele>
        <time>2013-08-15T16:16:02.000Z</time>
        <extensions>
          <ns3:TrackPointExtension>
            <ns3:atemp>19.0</ns3:atemp>
            <ns3:hr>119</ns3:hr>
          </ns3:TrackPointExtension>
        </extensions>
      </trkpt>
      <trkpt lat="46.660055033862590789794921875" lon="6.84292741119861602783203125">
        <ele>732.79998779296875</ele>
        <time>2013-08-15T16:16:03.000Z</time>
        <extensions>
          <ns3:TrackPointExtension>
            <ns3:atemp>19.0</ns3:atemp>
            <ns3:hr>120</ns3:hr>
          </ns3:TrackPointExtension>
        </extensions>
      </trkpt>
      <trkpt lat="46.66005210019648075103759765625" lon="6.84291626326739788055419921875">
        <ele>732.79998779296875</ele>
        <time>2013-08-15T16:16:04.000Z</time>
        <extensions>
          <ns3:TrackPointExtension>
            <ns3:atemp>19.0</ns3:atemp>
            <ns3:hr>120</ns3:hr>
          </ns3:TrackPointExtension>
        </extensions>
      </trkpt>
      <trkpt lat="46.6600468195974826812744140625" lon="6.84295448474586009979248046875">
        <ele>732.79998779296875</ele>
        <time>2013-08-15T16:16:05.000Z</time>
        <extensions>
          <ns3:TrackPointExtension>
            <ns3:atemp>19.0</ns3:atemp>
            <ns3:hr>120</ns3:hr>
          </ns3:TrackPointExtension>
        </extensions>
      </trkpt>
      <trkpt lat="46.66004422120749950408935546875" lon="6.84297543950378894805908203125">
        <ele>732.79998779296875</ele>
        <time>2013-08-15T16:16:06.000Z</time>
        <extensions>
          <ns3:TrackPointExtension>
            <ns3:atemp>19.0</ns3:atemp>
            <ns3:hr>120</ns3:hr>
          </ns3:TrackPointExtension>
        </extensions>
      </trkpt>
      <trkpt lat="46.66004355065524578094482421875" lon="6.84299287386238574981689453125">
        <ele>732.79998779296875</ele>
        <time>2013-08-15T16:16:07.000Z</time>
        <extensions>
          <ns3:TrackPointExtension>
            <ns3:atemp>19.0</ns3:atemp>
            <ns3:hr>120</ns3:hr>
          </ns3:TrackPointExtension>
        </extensions>
      </trkpt>
      <trkpt lat="46.6600444726645946502685546875" lon="6.8430056981742382049560546875">
        <ele>732.79998779296875</ele>
        <time>2013-08-15T16:16:08.000Z</time>
        <extensions>
          <ns3:TrackPointExtension>
            <ns3:atemp>19.0</ns3:atemp>
            <ns3:hr>121</ns3:hr>
          </ns3:TrackPointExtension>
        </extensions>
      </trkpt>
      <trkpt lat="46.6600474901497364044189453125" lon="6.84301852248609066009521484375">
        <ele>732.79998779296875</ele>
        <time>2013-08-15T16:16:09.000Z</time>
        <extensions>
          <ns3:TrackPointExtension>
            <ns3:atemp>19.0</ns3:atemp>
            <ns3:hr>121</ns3:hr>
          </ns3:TrackPointExtension>
        </extensions>
      </trkpt>
      <trkpt lat="46.66005226783454418182373046875" lon="6.843033023178577423095703125">
        <ele>732.79998779296875</ele>
        <time>2013-08-15T16:16:10.000Z</time>
        <extensions>
          <ns3:TrackPointExtension>
            <ns3:atemp>19.0</ns3:atemp>
            <ns3:hr>120</ns3:hr>
          </ns3:TrackPointExtension>
        </extensions>
      </trkpt>
      <trkpt lat="46.66006098501384258270263671875" lon="6.84306143783032894134521484375">
        <ele>732.79998779296875</ele>
        <time>2013-08-15T16:16:11.000Z</time>
        <extensions>
          <ns3:TrackPointExtension>
            <ns3:atemp>19.0</ns3:atemp>
            <ns3:hr>120</ns3:hr>
          </ns3:TrackPointExtension>
        </extensions>
      </trkpt>
      <trkpt lat="46.66007121093571186065673828125" lon="6.84308591298758983612060546875">
        <ele>733</ele>
        <time>2013-08-15T16:16:12.000Z</time>
        <extensions>
          <ns3:TrackPointExtension>
            <ns3:atemp>19.0</ns3:atemp>
            <ns3:hr>120</ns3:hr>
          </ns3:TrackPointExtension>
        </extensions>
      </trkpt>
      <trkpt lat="46.66007607243955135345458984375" lon="6.84310770593583583831787109375">
        <ele>733</ele>
        <time>2013-08-15T16:16:13.000Z</time>
        <extensions>
          <ns3:TrackPointExtension>
            <ns3:atemp>19.0</ns3:atemp>
            <ns3:hr>120</ns3:hr>
          </ns3:TrackPointExtension>
        </extensions>
      </trkpt>
      <trkpt lat="46.66008244268596172332763671875" lon="6.84314441867172718048095703125">
        <ele>733</ele>
        <time>2013-08-15T16:16:14.000Z</time>
        <extensions>
          <ns3:TrackPointExtension>
            <ns3:atemp>19.0</ns3:atemp>
            <ns3:hr>120</ns3:hr>
          </ns3:TrackPointExtension>
        </extensions>
      </trkpt>
      <trkpt lat="46.66009183041751384735107421875" lon="6.84318398125469684600830078125">
        <ele>733</ele>
        <time>2013-08-15T16:16:15.000Z</time>
        <extensions>
          <ns3:TrackPointExtension>
            <ns3:atemp>19.0</ns3:atemp>
            <ns3:hr>120</ns3:hr>
          </ns3:TrackPointExtension>
        </extensions>
      </trkpt>
      <trkpt lat="46.66010440327227115631103515625" lon="6.84322538785636425018310546875">
        <ele>733.20001220703125</ele>
        <time>2013-08-15T16:16:16.000Z</time>
        <extensions>
          <ns3:TrackPointExtension>
            <ns3:atemp>19.0</ns3:atemp>
            <ns3:hr>120</ns3:hr>
          </ns3:TrackPointExtension>
        </extensions>
      </trkpt>
      <trkpt lat="46.66011915542185306549072265625" lon="6.84326712973415851593017578125">
        <ele>733.20001220703125</ele>
        <time>2013-08-15T16:16:17.000Z</time>
        <extensions>
          <ns3:TrackPointExtension>
            <ns3:atemp>19.0</ns3:atemp>
            <ns3:hr>120</ns3:hr>
          </ns3:TrackPointExtension>
        </extensions>
      </trkpt>
      <trkpt lat="46.6601360030472278594970703125" lon="6.84330769814550876617431640625">
        <ele>733.5999755859375</ele>
        <time>2013-08-15T16:16:18.000Z</time>
        <extensions>
          <ns3:TrackPointExtension>
            <ns3:atemp>19.0</ns3:atemp>
            <ns3:hr>120</ns3:hr>
          </ns3:TrackPointExtension>
        </extensions>
      </trkpt>
      <trkpt lat="46.66014815680682659149169921875" lon="6.84334139339625835418701171875">
        <ele>733.5999755859375</ele>
        <time>2013-08-15T16:16:19.000Z</time>
        <extensions>
          <ns3:TrackPointExtension>
            <ns3:atemp>19.0</ns3:atemp>
            <ns3:hr>120</ns3:hr>
          </ns3:TrackPointExtension>
        </extensions>
      </trkpt>
      <trkpt lat="46.66016072966158390045166015625" lon="6.84336503036320209503173828125">
        <ele>733.79998779296875</ele>
        <time>2013-08-15T16:16:20.000Z</time>
        <extensions>
          <ns3:TrackPointExtension>
            <ns3:atemp>19.0</ns3:atemp>
            <ns3:hr>120</ns3:hr>
          </ns3:TrackPointExtension>
        </extensions>
      </trkpt>
      <trkpt lat="46.66017095558345317840576171875" lon="6.843392439186573028564453125">
        <ele>733.79998779296875</ele>
        <time>2013-08-15T16:16:21.000Z</time>
        <extensions>
          <ns3:TrackPointExtension>
            <ns3:atemp>19.0</ns3:atemp>
            <ns3:hr>120</ns3:hr>
          </ns3:TrackPointExtension>
        </extensions>
      </trkpt>
      <trkpt lat="46.6601802594959735870361328125" lon="6.8434189260005950927734375">
        <ele>733.79998779296875</ele>
        <time>2013-08-15T16:16:22.000Z</time>
        <extensions>
          <ns3:TrackPointExtension>
            <ns3:atemp>19.0</ns3:atemp>
            <ns3:hr>120</ns3:hr>
          </ns3:TrackPointExtension>
        </extensions>
      </trkpt>
      <trkpt lat="46.6601913236081600189208984375" lon="6.843432672321796417236328125">
        <ele>734</ele>
        <time>2013-08-15T16:16:23.000Z</time>
        <extensions>
          <ns3:TrackPointExtension>
            <ns3:atemp>19.0</ns3:atemp>
            <ns3:hr>120</ns3:hr>
          </ns3:TrackPointExtension>
        </extensions>
      </trkpt>
      <trkpt lat="46.66018453426659107208251953125" lon="6.84342303313314914703369140625">
        <ele>734</ele>
        <time>2013-08-15T16:16:24.000Z</time>
        <extensions>
          <ns3:TrackPointExtension>
            <ns3:atemp>19.0</ns3:atemp>
            <ns3:hr>119</ns3:hr>
          </ns3:TrackPointExtension>
        </extensions>
      </trkpt>
      <trkpt lat="46.66020280681550502777099609375" lon="6.8434378691017627716064453125">
        <ele>734</ele>
        <time>2013-08-15T16:16:25.000Z</time>
        <extensions>
          <ns3:TrackPointExtension>
            <ns3:atemp>19.0</ns3:atemp>
            <ns3:hr>119</ns3:hr>
          </ns3:TrackPointExtension>
        </extensions>
      </trkpt>
      <trkpt lat="46.66020934469997882843017578125" lon="6.84343745000660419464111328125">
        <ele>734</ele>
        <time>2013-08-15T16:16:26.000Z</time>
        <extensions>
          <ns3:TrackPointExtension>
            <ns3:atemp>19.0</ns3:atemp>
            <ns3:hr>118</ns3:hr>
          </ns3:TrackPointExtension>
        </extensions>
      </trkpt>
      <trkpt lat="46.66021336801350116729736328125" lon="6.8434341810643672943115234375">
        <ele>734</ele>
        <time>2013-08-15T16:16:27.000Z</time>
        <extensions>
          <ns3:TrackPointExtension>
            <ns3:atemp>19.0</ns3:atemp>
            <ns3:hr>117</ns3:hr>
          </ns3:TrackPointExtension>
        </extensions>
      </trkpt>
      <trkpt lat="46.66021336801350116729736328125" lon="6.8434341810643672943115234375">
        <ele>734</ele>
        <time>2013-08-15T16:16:28.000Z</time>
        <extensions>
          <ns3:TrackPointExtension>
            <ns3:atemp>19.0</ns3:atemp>
            <ns3:hr>117</ns3:hr>
          </ns3:TrackPointExtension>
        </extensions>
      </trkpt>
      <trkpt lat="46.6602030582726001739501953125" lon="6.8434204347431659698486328125">
        <ele>734</ele>
        <time>2013-08-15T16:16:29.000Z</time>
        <extensions>
          <ns3:TrackPointExtension>
            <ns3:atemp>19.0</ns3:atemp>
            <ns3:hr>117</ns3:hr>
          </ns3:TrackPointExtension>
        </extensions>
      </trkpt>
      <trkpt lat="46.66020213626325130462646484375" lon="6.84340744279325008392333984375">
        <ele>734</ele>
        <time>2013-08-15T16:16:30.000Z</time>
        <extensions>
          <ns3:TrackPointExtension>
            <ns3:atemp>19.0</ns3:atemp>
            <ns3:hr>117</ns3:hr>
          </ns3:TrackPointExtension>
        </extensions>
      </trkpt>
      <trkpt lat="46.6601997055113315582275390625" lon="6.84338699094951152801513671875">
        <ele>734</ele>
        <time>2013-08-15T16:16:31.000Z</time>
        <extensions>
          <ns3:TrackPointExtension>
            <ns3:atemp>19.0</ns3:atemp>
            <ns3:hr>118</ns3:hr>
          </ns3:TrackPointExtension>
        </extensions>
      </trkpt>
      <trkpt lat="46.66018738411366939544677734375" lon="6.8433597497642040252685546875">
        <ele>733.79998779296875</ele>
        <time>2013-08-15T16:16:32.000Z</time>
        <extensions>
          <ns3:TrackPointExtension>
            <ns3:atemp>19.0</ns3:atemp>
            <ns3:hr>118</ns3:hr>
          </ns3:TrackPointExtension>
        </extensions>
      </trkpt>
      <trkpt lat="46.660174392163753509521484375" lon="6.8433181755244731903076171875">
        <ele>733.79998779296875</ele>
        <time>2013-08-15T16:16:33.000Z</time>
        <extensions>
          <ns3:TrackPointExtension>
            <ns3:atemp>19.0</ns3:atemp>
            <ns3:hr>118</ns3:hr>
          </ns3:TrackPointExtension>
        </extensions>
      </trkpt>
      <trkpt lat="46.660161651670932769775390625" lon="6.84326595626771450042724609375">
        <ele>734</ele>
        <time>2013-08-15T16:16:34.000Z</time>
        <extensions>
          <ns3:TrackPointExtension>
            <ns3:atemp>19.0</ns3:atemp>
            <ns3:hr>118</ns3:hr>
          </ns3:TrackPointExtension>
        </extensions>
      </trkpt>
      <trkpt lat="46.660148911178112030029296875" lon="6.8432209454476833343505859375">
        <ele>733.79998779296875</ele>
        <time>2013-08-15T16:16:35.000Z</time>
        <extensions>
          <ns3:TrackPointExtension>
            <ns3:atemp>19.0</ns3:atemp>
            <ns3:hr>118</ns3:hr>
          </ns3:TrackPointExtension>
        </extensions>
      </trkpt>
      <trkpt lat="46.66013977490365505218505859375" lon="6.84316839091479778289794921875">
        <ele>733.79998779296875</ele>
        <time>2013-08-15T16:16:36.000Z</time>
        <extensions>
          <ns3:TrackPointExtension>
            <ns3:atemp>19.0</ns3:atemp>
            <ns3:hr>118</ns3:hr>
          </ns3:TrackPointExtension>
        </extensions>
      </trkpt>
      <trkpt lat="46.66013357229530811309814453125" lon="6.84311659075319766998291015625">
        <ele>733.5999755859375</ele>
        <time>2013-08-15T16:16:37.000Z</time>
        <extensions>
          <ns3:TrackPointExtension>
            <ns3:atemp>19.0</ns3:atemp>
            <ns3:hr>118</ns3:hr>
          </ns3:TrackPointExtension>
        </extensions>
      </trkpt>
      <trkpt lat="46.66012351401150226593017578125" lon="6.84306479059159755706787109375">
        <ele>733.4000244140625</ele>
        <time>2013-08-15T16:16:38.000Z</time>
        <extensions>
          <ns3:TrackPointExtension>
            <ns3:atemp>19.0</ns3:atemp>
            <ns3:hr>118</ns3:hr>
          </ns3:TrackPointExtension>
        </extensions>
      </trkpt>
      <trkpt lat="46.660118736326694488525390625" lon="6.84300720691680908203125">
        <ele>733.4000244140625</ele>
        <time>2013-08-15T16:16:39.000Z</time>
        <extensions>
          <ns3:TrackPointExtension>
            <ns3:atemp>19.0</ns3:atemp>
            <ns3:hr>117</ns3:hr>
          </ns3:TrackPointExtension>
        </extensions>
      </trkpt>
      <trkpt lat="46.66011949069797992706298828125" lon="6.84295431710779666900634765625">
        <ele>733.20001220703125</ele>
        <time>2013-08-15T16:16:40.000Z</time>
        <extensions>
          <ns3:TrackPointExtension>
            <ns3:atemp>19.0</ns3:atemp>
            <ns3:hr>117</ns3:hr>
          </ns3:TrackPointExtension>
        </extensions>
      </trkpt>
      <trkpt lat="46.66011630557477474212646484375" lon="6.84290989302098751068115234375">
        <ele>733</ele>
        <time>2013-08-15T16:16:41.000Z</time>
        <extensions>
          <ns3:TrackPointExtension>
            <ns3:atemp>19.0</ns3:atemp>
            <ns3:hr>117</ns3:hr>
          </ns3:TrackPointExtension>
        </extensions>
      </trkpt>
      <trkpt lat="46.6601138748228549957275390625" lon="6.84287016279995441436767578125">
        <ele>732.79998779296875</ele>
        <time>2013-08-15T16:16:42.000Z</time>
        <extensions>
          <ns3:TrackPointExtension>
            <ns3:atemp>19.0</ns3:atemp>
            <ns3:hr>116</ns3:hr>
          </ns3:TrackPointExtension>
        </extensions>
      </trkpt>
      <trkpt lat="46.66011479683220386505126953125" lon="6.84283160604536533355712890625">
        <ele>732.4000244140625</ele>
        <time>2013-08-15T16:16:43.000Z</time>
        <extensions>
          <ns3:TrackPointExtension>
            <ns3:atemp>19.0</ns3:atemp>
            <ns3:hr>115</ns3:hr>
          </ns3:TrackPointExtension>
        </extensions>
      </trkpt>
      <trkpt lat="46.660120747983455657958984375" lon="6.84279338456690311431884765625">
        <ele>731.79998779296875</ele>
        <time>2013-08-15T16:16:44.000Z</time>
        <extensions>
          <ns3:TrackPointExtension>
            <ns3:atemp>19.0</ns3:atemp>
            <ns3:hr>116</ns3:hr>
          </ns3:TrackPointExtension>
        </extensions>
      </trkpt>
      <trkpt lat="46.66012619622051715850830078125" lon="6.84274862520396709442138671875">
        <ele>731.20001220703125</ele>
        <time>2013-08-15T16:16:45.000Z</time>
        <extensions>
          <ns3:TrackPointExtension>
            <ns3:atemp>19.0</ns3:atemp>
            <ns3:hr>116</ns3:hr>
          </ns3:TrackPointExtension>
        </extensions>
      </trkpt>
      <trkpt lat="46.66013407520949840545654296875" lon="6.8427036143839359283447265625">
        <ele>730.4000244140625</ele>
        <time>2013-08-15T16:16:46.000Z</time>
        <extensions>
          <ns3:TrackPointExtension>
            <ns3:atemp>19.0</ns3:atemp>
            <ns3:hr>116</ns3:hr>
          </ns3:TrackPointExtension>
        </extensions>
      </trkpt>
      <trkpt lat="46.6601457260549068450927734375" lon="6.842646785080432891845703125">
        <ele>728.79998779296875</ele>
        <time>2013-08-15T16:16:47.000Z</time>
        <extensions>
          <ns3:TrackPointExtension>
            <ns3:atemp>19.0</ns3:atemp>
            <ns3:hr>116</ns3:hr>
          </ns3:TrackPointExtension>
        </extensions>
      </trkpt>
      <trkpt lat="46.66017196141183376312255859375" lon="6.8425644747912883758544921875">
        <ele>728.20001220703125</ele>
        <time>2013-08-15T16:16:48.000Z</time>
        <extensions>
          <ns3:TrackPointExtension>
            <ns3:atemp>19.0</ns3:atemp>
            <ns3:hr>117</ns3:hr>
          </ns3:TrackPointExtension>
        </extensions>
      </trkpt>
      <trkpt lat="46.66019526310265064239501953125" lon="6.8424756266176700592041015625">
        <ele>727.20001220703125</ele>
        <time>2013-08-15T16:16:49.000Z</time>
        <extensions>
          <ns3:TrackPointExtension>
            <ns3:atemp>19.0</ns3:atemp>
            <ns3:hr>117</ns3:hr>
          </ns3:TrackPointExtension>
        </extensions>
      </trkpt>
      <trkpt lat="46.66021755896508693695068359375" lon="6.8423830904066562652587890625">
        <ele>726.5999755859375</ele>
        <time>2013-08-15T16:16:50.000Z</time>
        <extensions>
          <ns3:TrackPointExtension>
            <ns3:atemp>19.0</ns3:atemp>
            <ns3:hr>116</ns3:hr>
          </ns3:TrackPointExtension>
        </extensions>
      </trkpt>
      <trkpt lat="46.66024379432201385498046875" lon="6.842301785945892333984375">
        <ele>725.5999755859375</ele>
        <time>2013-08-15T16:16:51.000Z</time>
        <extensions>
          <ns3:TrackPointExtension>
            <ns3:atemp>19.0</ns3:atemp>
            <ns3:hr>115</ns3:hr>
          </ns3:TrackPointExtension>
        </extensions>
      </trkpt>
      <trkpt lat="46.6602520085871219635009765625" lon="6.8422419391572475433349609375">
        <ele>725.20001220703125</ele>
        <time>2013-08-15T16:16:52.000Z</time>
        <extensions>
          <ns3:TrackPointExtension>
            <ns3:atemp>19.0</ns3:atemp>
            <ns3:hr>115</ns3:hr>
          </ns3:TrackPointExtension>
        </extensions>
      </trkpt>
      <trkpt lat="46.660260222852230072021484375" lon="6.8421963416039943695068359375">
        <ele>724.79998779296875</ele>
        <time>2013-08-15T16:16:53.000Z</time>
        <extensions>
          <ns3:TrackPointExtension>
            <ns3:atemp>19.0</ns3:atemp>
            <ns3:hr>114</ns3:hr>
          </ns3:TrackPointExtension>
        </extensions>
      </trkpt>
      <trkpt lat="46.66026734746992588043212890625" lon="6.84216071851551532745361328125">
        <ele>724.5999755859375</ele>
        <time>2013-08-15T16:16:54.000Z</time>
        <extensions>
          <ns3:TrackPointExtension>
            <ns3:atemp>19.0</ns3:atemp>
            <ns3:hr>113</ns3:hr>
          </ns3:TrackPointExtension>
        </extensions>
      </trkpt>
      <trkpt lat="46.6602570377290248870849609375" lon="6.842135824263095855712890625">
        <ele>724.5999755859375</ele>
        <time>2013-08-15T16:16:55.000Z</time>
        <extensions>
          <ns3:TrackPointExtension>
            <ns3:atemp>19.0</ns3:atemp>
            <ns3:hr>113</ns3:hr>
          </ns3:TrackPointExtension>
        </extensions>
      </trkpt>
      <trkpt lat="46.66025075130164623260498046875" lon="6.84210757724940776824951171875">
        <ele>724.79998779296875</ele>
        <time>2013-08-15T16:16:56.000Z</time>
        <extensions>
          <ns3:TrackPointExtension>
            <ns3:atemp>19.0</ns3:atemp>
            <ns3:hr>112</ns3:hr>
          </ns3:TrackPointExtension>
        </extensions>
      </trkpt>
      <trkpt lat="46.66025326587259769439697265625" lon="6.842119395732879638671875">
        <ele>724.79998779296875</ele>
        <time>2013-08-15T16:16:57.000Z</time>
        <extensions>
          <ns3:TrackPointExtension>
            <ns3:atemp>19.0</ns3:atemp>
            <ns3:hr>111</ns3:hr>
          </ns3:TrackPointExtension>
        </extensions>
      </trkpt>
      <trkpt lat="46.6602456383407115936279296875" lon="6.84208880178630352020263671875">
        <ele>724.79998779296875</ele>
        <time>2013-08-15T16:16:58.000Z</time>
        <extensions>
          <ns3:TrackPointExtension>
            <ns3:atemp>19.0</ns3:atemp>
            <ns3:hr>111</ns3:hr>
          </ns3:TrackPointExtension>
        </extensions>
      </trkpt>
      <trkpt lat="46.6602456383407115936279296875" lon="6.84208880178630352020263671875">
        <ele>724.79998779296875</ele>
        <time>2013-08-15T16:16:59.000Z</time>
        <extensions>
          <ns3:TrackPointExtension>
            <ns3:atemp>19.0</ns3:atemp>
            <ns3:hr>111</ns3:hr>
          </ns3:TrackPointExtension>
        </extensions>
      </trkpt>
      <trkpt lat="46.6602456383407115936279296875" lon="6.84208880178630352020263671875">
        <ele>725</ele>
        <time>2013-08-15T16:17:00.000Z</time>
        <extensions>
          <ns3:TrackPointExtension>
            <ns3:atemp>19.0</ns3:atemp>
            <ns3:hr>112</ns3:hr>
          </ns3:TrackPointExtension>
        </extensions>
      </trkpt>
      <trkpt lat="46.6602456383407115936279296875" lon="6.84208880178630352020263671875">
        <ele>725</ele>
        <time>2013-08-15T16:17:01.000Z</time>
        <extensions>
          <ns3:TrackPointExtension>
            <ns3:atemp>19.0</ns3:atemp>
            <ns3:hr>112</ns3:hr>
          </ns3:TrackPointExtension>
        </extensions>
      </trkpt>
      <trkpt lat="46.6602456383407115936279296875" lon="6.84208880178630352020263671875">
        <ele>725</ele>
        <time>2013-08-15T16:17:02.000Z</time>
        <extensions>
          <ns3:TrackPointExtension>
            <ns3:atemp>19.0</ns3:atemp>
            <ns3:hr>113</ns3:hr>
          </ns3:TrackPointExtension>
        </extensions>
      </trkpt>
      <trkpt lat="46.6602456383407115936279296875" lon="6.84208880178630352020263671875">
        <ele>725.20001220703125</ele>
        <time>2013-08-15T16:17:03.000Z</time>
        <extensions>
          <ns3:TrackPointExtension>
            <ns3:atemp>19.0</ns3:atemp>
            <ns3:hr>113</ns3:hr>
          </ns3:TrackPointExtension>
        </extensions>
      </trkpt>
      <trkpt lat="46.6602456383407115936279296875" lon="6.84208880178630352020263671875">
        <ele>725.20001220703125</ele>
        <time>2013-08-15T16:17:04.000Z</time>
        <extensions>
          <ns3:TrackPointExtension>
            <ns3:atemp>19.0</ns3:atemp>
            <ns3:hr>113</ns3:hr>
          </ns3:TrackPointExtension>
        </extensions>
      </trkpt>
      <trkpt lat="46.6602456383407115936279296875" lon="6.84208880178630352020263671875">
        <ele>725.20001220703125</ele>
        <time>2013-08-15T16:17:05.000Z</time>
        <extensions>
          <ns3:TrackPointExtension>
            <ns3:atemp>19.0</ns3:atemp>
            <ns3:hr>113</ns3:hr>
          </ns3:TrackPointExtension>
        </extensions>
      </trkpt>
      <trkpt lat="46.6602456383407115936279296875" lon="6.84208880178630352020263671875">
        <ele>725.20001220703125</ele>
        <time>2013-08-15T16:17:06.000Z</time>
        <extensions>
          <ns3:TrackPointExtension>
            <ns3:atemp>19.0</ns3:atemp>
            <ns3:hr>113</ns3:hr>
          </ns3:TrackPointExtension>
        </extensions>
      </trkpt>
      <trkpt lat="46.6602456383407115936279296875" lon="6.84208880178630352020263671875">
        <ele>725</ele>
        <time>2013-08-15T16:17:07.000Z</time>
        <extensions>
          <ns3:TrackPointExtension>
            <ns3:atemp>19.0</ns3:atemp>
            <ns3:hr>112</ns3:hr>
          </ns3:TrackPointExtension>
        </extensions>
      </trkpt>
      <trkpt lat="46.6602456383407115936279296875" lon="6.84208880178630352020263671875">
        <ele>725</ele>
        <time>2013-08-15T16:17:08.000Z</time>
        <extensions>
          <ns3:TrackPointExtension>
            <ns3:atemp>19.0</ns3:atemp>
            <ns3:hr>113</ns3:hr>
          </ns3:TrackPointExtension>
        </extensions>
      </trkpt>
      <trkpt lat="46.6602456383407115936279296875" lon="6.84208880178630352020263671875">
        <ele>725.20001220703125</ele>
        <time>2013-08-15T16:17:09.000Z</time>
        <extensions>
          <ns3:TrackPointExtension>
            <ns3:atemp>19.0</ns3:atemp>
            <ns3:hr>112</ns3:hr>
          </ns3:TrackPointExtension>
        </extensions>
      </trkpt>
      <trkpt lat="46.6602456383407115936279296875" lon="6.84208880178630352020263671875">
        <ele>725</ele>
        <time>2013-08-15T16:17:10.000Z</time>
        <extensions>
          <ns3:TrackPointExtension>
            <ns3:atemp>19.0</ns3:atemp>
            <ns3:hr>112</ns3:hr>
          </ns3:TrackPointExtension>
        </extensions>
      </trkpt>
      <trkpt lat="46.6602456383407115936279296875" lon="6.84208880178630352020263671875">
        <ele>725</ele>
        <time>2013-08-15T16:17:11.000Z</time>
        <extensions>
          <ns3:TrackPointExtension>
            <ns3:atemp>19.0</ns3:atemp>
            <ns3:hr>112</ns3:hr>
          </ns3:TrackPointExtension>
        </extensions>
      </trkpt>
      <trkpt lat="46.6602456383407115936279296875" lon="6.84208880178630352020263671875">
        <ele>725.20001220703125</ele>
        <time>2013-08-15T16:17:12.000Z</time>
        <extensions>
          <ns3:TrackPointExtension>
            <ns3:atemp>19.0</ns3:atemp>
            <ns3:hr>111</ns3:hr>
          </ns3:TrackPointExtension>
        </extensions>
      </trkpt>
      <trkpt lat="46.6602456383407115936279296875" lon="6.84208880178630352020263671875">
        <ele>725</ele>
        <time>2013-08-15T16:17:13.000Z</time>
        <extensions>
          <ns3:TrackPointExtension>
            <ns3:atemp>19.0</ns3:atemp>
            <ns3:hr>111</ns3:hr>
          </ns3:TrackPointExtension>
        </extensions>
      </trkpt>
      <trkpt lat="46.6602456383407115936279296875" lon="6.84208880178630352020263671875">
        <ele>725</ele>
        <time>2013-08-15T16:17:14.000Z</time>
        <extensions>
          <ns3:TrackPointExtension>
            <ns3:atemp>19.0</ns3:atemp>
            <ns3:hr>110</ns3:hr>
          </ns3:TrackPointExtension>
        </extensions>
      </trkpt>
      <trkpt lat="46.6602456383407115936279296875" lon="6.84208880178630352020263671875">
        <ele>725</ele>
        <time>2013-08-15T16:17:15.000Z</time>
        <extensions>
          <ns3:TrackPointExtension>
            <ns3:atemp>19.0</ns3:atemp>
            <ns3:hr>109</ns3:hr>
          </ns3:TrackPointExtension>
        </extensions>
      </trkpt>
      <trkpt lat="46.6602456383407115936279296875" lon="6.84208880178630352020263671875">
        <ele>725.20001220703125</ele>
        <time>2013-08-15T16:17:16.000Z</time>
        <extensions>
          <ns3:TrackPointExtension>
            <ns3:atemp>19.0</ns3:atemp>
            <ns3:hr>108</ns3:hr>
          </ns3:TrackPointExtension>
        </extensions>
      </trkpt>
      <trkpt lat="46.6602456383407115936279296875" lon="6.84208880178630352020263671875">
        <ele>725.20001220703125</ele>
        <time>2013-08-15T16:17:17.000Z</time>
        <extensions>
          <ns3:TrackPointExtension>
            <ns3:atemp>19.0</ns3:atemp>
            <ns3:hr>108</ns3:hr>
          </ns3:TrackPointExtension>
        </extensions>
      </trkpt>
      <trkpt lat="46.6602456383407115936279296875" lon="6.84208880178630352020263671875">
        <ele>725.4000244140625</ele>
        <time>2013-08-15T16:17:18.000Z</time>
        <extensions>
          <ns3:TrackPointExtension>
            <ns3:atemp>19.0</ns3:atemp>
            <ns3:hr>108</ns3:hr>
          </ns3:TrackPointExtension>
        </extensions>
      </trkpt>
      <trkpt lat="46.6602456383407115936279296875" lon="6.84208880178630352020263671875">
        <ele>725.4000244140625</ele>
        <time>2013-08-15T16:17:19.000Z</time>
        <extensions>
          <ns3:TrackPointExtension>
            <ns3:atemp>19.0</ns3:atemp>
            <ns3:hr>108</ns3:hr>
          </ns3:TrackPointExtension>
        </extensions>
      </trkpt>
      <trkpt lat="46.6602456383407115936279296875" lon="6.84208880178630352020263671875">
        <ele>725.4000244140625</ele>
        <time>2013-08-15T16:17:20.000Z</time>
        <extensions>
          <ns3:TrackPointExtension>
            <ns3:atemp>19.0</ns3:atemp>
            <ns3:hr>109</ns3:hr>
          </ns3:TrackPointExtension>
        </extensions>
      </trkpt>
      <trkpt lat="46.6602456383407115936279296875" lon="6.84208880178630352020263671875">
        <ele>725.4000244140625</ele>
        <time>2013-08-15T16:17:21.000Z</time>
        <extensions>
          <ns3:TrackPointExtension>
            <ns3:atemp>19.0</ns3:atemp>
            <ns3:hr>109</ns3:hr>
          </ns3:TrackPointExtension>
        </extensions>
      </trkpt>
      <trkpt lat="46.6602456383407115936279296875" lon="6.84208880178630352020263671875">
        <ele>725.4000244140625</ele>
        <time>2013-08-15T16:17:22.000Z</time>
        <extensions>
          <ns3:TrackPointExtension>
            <ns3:atemp>19.0</ns3:atemp>
            <ns3:hr>109</ns3:hr>
          </ns3:TrackPointExtension>
        </extensions>
      </trkpt>
      <trkpt lat="46.6602456383407115936279296875" lon="6.84208880178630352020263671875">
        <ele>725.4000244140625</ele>
        <time>2013-08-15T16:17:23.000Z</time>
        <extensions>
          <ns3:TrackPointExtension>
            <ns3:atemp>19.0</ns3:atemp>
            <ns3:hr>109</ns3:hr>
          </ns3:TrackPointExtension>
        </extensions>
      </trkpt>
      <trkpt lat="46.6602456383407115936279296875" lon="6.84208880178630352020263671875">
        <ele>725.4000244140625</ele>
        <time>2013-08-15T16:17:24.000Z</time>
        <extensions>
          <ns3:TrackPointExtension>
            <ns3:atemp>19.0</ns3:atemp>
            <ns3:hr>109</ns3:hr>
          </ns3:TrackPointExtension>
        </extensions>
      </trkpt>
      <trkpt lat="46.6602456383407115936279296875" lon="6.84208880178630352020263671875">
        <ele>725.4000244140625</ele>
        <time>2013-08-15T16:17:25.000Z</time>
        <extensions>
          <ns3:TrackPointExtension>
            <ns3:atemp>19.0</ns3:atemp>
            <ns3:hr>109</ns3:hr>
          </ns3:TrackPointExtension>
        </extensions>
      </trkpt>
      <trkpt lat="46.6602456383407115936279296875" lon="6.84208880178630352020263671875">
        <ele>725.4000244140625</ele>
        <time>2013-08-15T16:17:26.000Z</time>
        <extensions>
          <ns3:TrackPointExtension>
            <ns3:atemp>19.0</ns3:atemp>
            <ns3:hr>109</ns3:hr>
          </ns3:TrackPointExtension>
        </extensions>
      </trkpt>
      <trkpt lat="46.6602456383407115936279296875" lon="6.84208880178630352020263671875">
        <ele>725.4000244140625</ele>
        <time>2013-08-15T16:17:27.000Z</time>
        <extensions>
          <ns3:TrackPointExtension>
            <ns3:atemp>19.0</ns3:atemp>
            <ns3:hr>110</ns3:hr>
          </ns3:TrackPointExtension>
        </extensions>
      </trkpt>
      <trkpt lat="46.6602456383407115936279296875" lon="6.84208880178630352020263671875">
        <ele>725.5999755859375</ele>
        <time>2013-08-15T16:17:28.000Z</time>
        <extensions>
          <ns3:TrackPointExtension>
            <ns3:atemp>19.0</ns3:atemp>
            <ns3:hr>111</ns3:hr>
          </ns3:TrackPointExtension>
        </extensions>
      </trkpt>
      <trkpt lat="46.6602456383407115936279296875" lon="6.84208880178630352020263671875">
        <ele>725.5999755859375</ele>
        <time>2013-08-15T16:17:29.000Z</time>
        <extensions>
          <ns3:TrackPointExtension>
            <ns3:atemp>19.0</ns3:atemp>
            <ns3:hr>112</ns3:hr>
          </ns3:TrackPointExtension>
        </extensions>
      </trkpt>
      <trkpt lat="46.6602456383407115936279296875" lon="6.84208880178630352020263671875">
        <ele>725.5999755859375</ele>
        <time>2013-08-15T16:17:30.000Z</time>
        <extensions>
          <ns3:TrackPointExtension>
            <ns3:atemp>19.0</ns3:atemp>
            <ns3:hr>113</ns3:hr>
          </ns3:TrackPointExtension>
        </extensions>
      </trkpt>
      <trkpt lat="46.6602456383407115936279296875" lon="6.84208880178630352020263671875">
        <ele>725.5999755859375</ele>
        <time>2013-08-15T16:17:31.000Z</time>
        <extensions>
          <ns3:TrackPointExtension>
            <ns3:atemp>19.0</ns3:atemp>
            <ns3:hr>114</ns3:hr>
          </ns3:TrackPointExtension>
        </extensions>
      </trkpt>
      <trkpt lat="46.6602456383407115936279296875" lon="6.84208880178630352020263671875">
        <ele>725.5999755859375</ele>
        <time>2013-08-15T16:17:32.000Z</time>
        <extensions>
          <ns3:TrackPointExtension>
            <ns3:atemp>19.0</ns3:atemp>
            <ns3:hr>114</ns3:hr>
          </ns3:TrackPointExtension>
        </extensions>
      </trkpt>
      <trkpt lat="46.6602456383407115936279296875" lon="6.84208880178630352020263671875">
        <ele>725.4000244140625</ele>
        <time>2013-08-15T16:17:33.000Z</time>
        <extensions>
          <ns3:TrackPointExtension>
            <ns3:atemp>19.0</ns3:atemp>
            <ns3:hr>114</ns3:hr>
          </ns3:TrackPointExtension>
        </extensions>
      </trkpt>
      <trkpt lat="46.6602456383407115936279296875" lon="6.84208880178630352020263671875">
        <ele>725.5999755859375</ele>
        <time>2013-08-15T16:17:34.000Z</time>
        <extensions>
          <ns3:TrackPointExtension>
            <ns3:atemp>19.0</ns3:atemp>
            <ns3:hr>113</ns3:hr>
          </ns3:TrackPointExtension>
        </extensions>
      </trkpt>
      <trkpt lat="46.6602456383407115936279296875" lon="6.84208880178630352020263671875">
        <ele>725.5999755859375</ele>
        <time>2013-08-15T16:17:35.000Z</time>
        <extensions>
          <ns3:TrackPointExtension>
            <ns3:atemp>19.0</ns3:atemp>
            <ns3:hr>113</ns3:hr>
          </ns3:TrackPointExtension>
        </extensions>
      </trkpt>
      <trkpt lat="46.6602456383407115936279296875" lon="6.84208880178630352020263671875">
        <ele>725.5999755859375</ele>
        <time>2013-08-15T16:17:36.000Z</time>
        <extensions>
          <ns3:TrackPointExtension>
            <ns3:atemp>19.0</ns3:atemp>
            <ns3:hr>113</ns3:hr>
          </ns3:TrackPointExtension>
        </extensions>
      </trkpt>
      <trkpt lat="46.6602456383407115936279296875" lon="6.84208880178630352020263671875">
        <ele>725.5999755859375</ele>
        <time>2013-08-15T16:17:37.000Z</time>
        <extensions>
          <ns3:TrackPointExtension>
            <ns3:atemp>19.0</ns3:atemp>
            <ns3:hr>112</ns3:hr>
          </ns3:TrackPointExtension>
        </extensions>
      </trkpt>
      <trkpt lat="46.660246141254901885986328125" lon="6.84209064580500125885009765625">
        <ele>725.5999755859375</ele>
        <time>2013-08-15T16:17:38.000Z</time>
        <extensions>
          <ns3:TrackPointExtension>
            <ns3:atemp>19.0</ns3:atemp>
            <ns3:hr>111</ns3:hr>
          </ns3:TrackPointExtension>
        </extensions>
      </trkpt>
      <trkpt lat="46.660246141254901885986328125" lon="6.84209064580500125885009765625">
        <ele>725.4000244140625</ele>
        <time>2013-08-15T16:17:39.000Z</time>
        <extensions>
          <ns3:TrackPointExtension>
            <ns3:atemp>19.0</ns3:atemp>
            <ns3:hr>111</ns3:hr>
          </ns3:TrackPointExtension>
        </extensions>
      </trkpt>
      <trkpt lat="46.660246141254901885986328125" lon="6.84209064580500125885009765625">
        <ele>725.4000244140625</ele>
        <time>2013-08-15T16:17:40.000Z</time>
        <extensions>
          <ns3:TrackPointExtension>
            <ns3:atemp>19.0</ns3:atemp>
            <ns3:hr>111</ns3:hr>
          </ns3:TrackPointExtension>
        </extensions>
      </trkpt>
      <trkpt lat="46.660246141254901885986328125" lon="6.84209064580500125885009765625">
        <ele>725.5999755859375</ele>
        <time>2013-08-15T16:17:41.000Z</time>
        <extensions>
          <ns3:TrackPointExtension>
            <ns3:atemp>19.0</ns3:atemp>
            <ns3:hr>111</ns3:hr>
          </ns3:TrackPointExtension>
        </extensions>
      </trkpt>
      <trkpt lat="46.660246141254901885986328125" lon="6.84209064580500125885009765625">
        <ele>725.5999755859375</ele>
        <time>2013-08-15T16:17:42.000Z</time>
        <extensions>
          <ns3:TrackPointExtension>
            <ns3:atemp>19.0</ns3:atemp>
            <ns3:hr>111</ns3:hr>
          </ns3:TrackPointExtension>
        </extensions>
      </trkpt>
      <trkpt lat="46.660246141254901885986328125" lon="6.84209064580500125885009765625">
        <ele>725.5999755859375</ele>
        <time>2013-08-15T16:17:43.000Z</time>
        <extensions>
          <ns3:TrackPointExtension>
            <ns3:atemp>19.0</ns3:atemp>
            <ns3:hr>111</ns3:hr>
          </ns3:TrackPointExtension>
        </extensions>
      </trkpt>
      <trkpt lat="46.660246141254901885986328125" lon="6.84209064580500125885009765625">
        <ele>725.5999755859375</ele>
        <time>2013-08-15T16:17:44.000Z</time>
        <extensions>
          <ns3:TrackPointExtension>
            <ns3:atemp>19.0</ns3:atemp>
            <ns3:hr>111</ns3:hr>
          </ns3:TrackPointExtension>
        </extensions>
      </trkpt>
      <trkpt lat="46.660246141254901885986328125" lon="6.84209064580500125885009765625">
        <ele>725.5999755859375</ele>
        <time>2013-08-15T16:17:45.000Z</time>
        <extensions>
          <ns3:TrackPointExtension>
            <ns3:atemp>19.0</ns3:atemp>
            <ns3:hr>112</ns3:hr>
          </ns3:TrackPointExtension>
        </extensions>
      </trkpt>
      <trkpt lat="46.660246141254901885986328125" lon="6.84209064580500125885009765625">
        <ele>725.5999755859375</ele>
        <time>2013-08-15T16:17:46.000Z</time>
        <extensions>
          <ns3:TrackPointExtension>
            <ns3:atemp>19.0</ns3:atemp>
            <ns3:hr>113</ns3:hr>
          </ns3:TrackPointExtension>
        </extensions>
      </trkpt>
      <trkpt lat="46.660246141254901885986328125" lon="6.84209064580500125885009765625">
        <ele>725.5999755859375</ele>
        <time>2013-08-15T16:17:47.000Z</time>
        <extensions>
          <ns3:TrackPointExtension>
            <ns3:atemp>19.0</ns3:atemp>
            <ns3:hr>114</ns3:hr>
          </ns3:TrackPointExtension>
        </extensions>
      </trkpt>
      <trkpt lat="46.660246141254901885986328125" lon="6.84209064580500125885009765625">
        <ele>725.5999755859375</ele>
        <time>2013-08-15T16:17:48.000Z</time>
        <extensions>
          <ns3:TrackPointExtension>
            <ns3:atemp>19.0</ns3:atemp>
            <ns3:hr>114</ns3:hr>
          </ns3:TrackPointExtension>
        </extensions>
      </trkpt>
      <trkpt lat="46.660246141254901885986328125" lon="6.84209064580500125885009765625">
        <ele>725.5999755859375</ele>
        <time>2013-08-15T16:17:49.000Z</time>
        <extensions>
          <ns3:TrackPointExtension>
            <ns3:atemp>19.0</ns3:atemp>
            <ns3:hr>113</ns3:hr>
          </ns3:TrackPointExtension>
        </extensions>
      </trkpt>
      <trkpt lat="46.660246141254901885986328125" lon="6.84209064580500125885009765625">
        <ele>725.79998779296875</ele>
        <time>2013-08-15T16:17:50.000Z</time>
        <extensions>
          <ns3:TrackPointExtension>
            <ns3:atemp>19.0</ns3:atemp>
            <ns3:hr>113</ns3:hr>
          </ns3:TrackPointExtension>
        </extensions>
      </trkpt>
      <trkpt lat="46.660246141254901885986328125" lon="6.84209064580500125885009765625">
        <ele>725.79998779296875</ele>
        <time>2013-08-15T16:17:51.000Z</time>
        <extensions>
          <ns3:TrackPointExtension>
            <ns3:atemp>19.0</ns3:atemp>
            <ns3:hr>111</ns3:hr>
          </ns3:TrackPointExtension>
        </extensions>
      </trkpt>
      <trkpt lat="46.660246141254901885986328125" lon="6.84209064580500125885009765625">
        <ele>725.79998779296875</ele>
        <time>2013-08-15T16:17:52.000Z</time>
        <extensions>
          <ns3:TrackPointExtension>
            <ns3:atemp>19.0</ns3:atemp>
            <ns3:hr>110</ns3:hr>
          </ns3:TrackPointExtension>
        </extensions>
      </trkpt>
      <trkpt lat="46.66024957783520221710205078125" lon="6.84212501160800457000732421875">
        <ele>726</ele>
        <time>2013-08-15T16:17:53.000Z</time>
        <extensions>
          <ns3:TrackPointExtension>
            <ns3:atemp>19.0</ns3:atemp>
            <ns3:hr>109</ns3:hr>
          </ns3:TrackPointExtension>
        </extensions>
      </trkpt>
      <trkpt lat="46.6602431237697601318359375" lon="6.84214890003204345703125">
        <ele>726</ele>
        <time>2013-08-15T16:17:54.000Z</time>
        <extensions>
          <ns3:TrackPointExtension>
            <ns3:atemp>19.0</ns3:atemp>
            <ns3:hr>109</ns3:hr>
          </ns3:TrackPointExtension>
        </extensions>
      </trkpt>
      <trkpt lat="46.66022979654371738433837890625" lon="6.84218385256826877593994140625">
        <ele>726.20001220703125</ele>
        <time>2013-08-15T16:17:55.000Z</time>
        <extensions>
          <ns3:TrackPointExtension>
            <ns3:atemp>19.0</ns3:atemp>
            <ns3:hr>109</ns3:hr>
          </ns3:TrackPointExtension>
        </extensions>
      </trkpt>
      <trkpt lat="46.6602188162505626678466796875" lon="6.84220455586910247802734375">
        <ele>726.4000244140625</ele>
        <time>2013-08-15T16:17:56.000Z</time>
        <extensions>
          <ns3:TrackPointExtension>
            <ns3:atemp>19.0</ns3:atemp>
            <ns3:hr>109</ns3:hr>
          </ns3:TrackPointExtension>
        </extensions>
      </trkpt>
      <trkpt lat="46.6602064110338687896728515625" lon="6.84222207404673099517822265625">
        <ele>726.79998779296875</ele>
        <time>2013-08-15T16:17:57.000Z</time>
        <extensions>
          <ns3:TrackPointExtension>
            <ns3:atemp>19.0</ns3:atemp>
            <ns3:hr>109</ns3:hr>
          </ns3:TrackPointExtension>
        </extensions>
      </trkpt>
      <trkpt lat="46.660190485417842864990234375" lon="6.84224688448011875152587890625">
        <ele>727</ele>
        <time>2013-08-15T16:17:58.000Z</time>
        <extensions>
          <ns3:TrackPointExtension>
            <ns3:atemp>19.0</ns3:atemp>
            <ns3:hr>110</ns3:hr>
          </ns3:TrackPointExtension>
        </extensions>
      </trkpt>
      <trkpt lat="46.66017808020114898681640625" lon="6.84227907098829746246337890625">
        <ele>727.4000244140625</ele>
        <time>2013-08-15T16:17:59.000Z</time>
        <extensions>
          <ns3:TrackPointExtension>
            <ns3:atemp>19.0</ns3:atemp>
            <ns3:hr>110</ns3:hr>
          </ns3:TrackPointExtension>
        </extensions>
      </trkpt>
      <trkpt lat="46.6601653397083282470703125" lon="6.8423234112560749053955078125">
        <ele>728</ele>
        <time>2013-08-15T16:18:00.000Z</time>
        <extensions>
          <ns3:TrackPointExtension>
            <ns3:atemp>19.0</ns3:atemp>
            <ns3:hr>111</ns3:hr>
          </ns3:TrackPointExtension>
        </extensions>
      </trkpt>
      <trkpt lat="46.66015486232936382293701171875" lon="6.84235283173620700836181640625">
        <ele>728.20001220703125</ele>
        <time>2013-08-15T16:18:01.000Z</time>
        <extensions>
          <ns3:TrackPointExtension>
            <ns3:atemp>19.0</ns3:atemp>
            <ns3:hr>112</ns3:hr>
          </ns3:TrackPointExtension>
        </extensions>
      </trkpt>
      <trkpt lat="46.66014480404555797576904296875" lon="6.84238024055957794189453125">
        <ele>728.5999755859375</ele>
        <time>2013-08-15T16:18:02.000Z</time>
        <extensions>
          <ns3:TrackPointExtension>
            <ns3:atemp>19.0</ns3:atemp>
            <ns3:hr>113</ns3:hr>
          </ns3:TrackPointExtension>
        </extensions>
      </trkpt>
      <trkpt lat="46.66013306938111782073974609375" lon="6.84240848757326602935791015625">
        <ele>729</ele>
        <time>2013-08-15T16:18:03.000Z</time>
        <extensions>
          <ns3:TrackPointExtension>
            <ns3:atemp>19.0</ns3:atemp>
            <ns3:hr>114</ns3:hr>
          </ns3:TrackPointExtension>
        </extensions>
      </trkpt>
      <trkpt lat="46.660121418535709381103515625" lon="6.842436231672763824462890625">
        <ele>729.4000244140625</ele>
        <time>2013-08-15T16:18:04.000Z</time>
        <extensions>
          <ns3:TrackPointExtension>
            <ns3:atemp>19.0</ns3:atemp>
            <ns3:hr>116</ns3:hr>
          </ns3:TrackPointExtension>
        </extensions>
      </trkpt>
      <trkpt lat="46.66011412627995014190673828125" lon="6.842456348240375518798828125">
        <ele>729.79998779296875</ele>
        <time>2013-08-15T16:18:05.000Z</time>
        <extensions>
          <ns3:TrackPointExtension>
            <ns3:atemp>19.0</ns3:atemp>
            <ns3:hr>117</ns3:hr>
          </ns3:TrackPointExtension>
        </extensions>
      </trkpt>
      <trkpt lat="46.66010943241417407989501953125" lon="6.842477135360240936279296875">
        <ele>730.20001220703125</ele>
        <time>2013-08-15T16:18:06.000Z</time>
        <extensions>
          <ns3:TrackPointExtension>
            <ns3:atemp>19.0</ns3:atemp>
            <ns3:hr>118</ns3:hr>
          </ns3:TrackPointExtension>
        </extensions>
      </trkpt>
      <trkpt lat="46.66010591201484203338623046875" lon="6.84249348007142543792724609375">
        <ele>730.4000244140625</ele>
        <time>2013-08-15T16:18:07.000Z</time>
        <extensions>
          <ns3:TrackPointExtension>
            <ns3:atemp>19.0</ns3:atemp>
            <ns3:hr>119</ns3:hr>
          </ns3:TrackPointExtension>
        </extensions>
      </trkpt>
      <trkpt lat="46.66009652428328990936279296875" lon="6.8425148539245128631591796875">
        <ele>730.79998779296875</ele>
        <time>2013-08-15T16:18:08.000Z</time>
        <extensions>
          <ns3:TrackPointExtension>
            <ns3:atemp>19.0</ns3:atemp>
            <ns3:hr>120</ns3:hr>
          </ns3:TrackPointExtension>
        </extensions>
      </trkpt>
      <trkpt lat="46.660090573132038116455078125" lon="6.8425413407385349273681640625">
        <ele>731.20001220703125</ele>
        <time>2013-08-15T16:18:09.000Z</time>
        <extensions>
          <ns3:TrackPointExtension>
            <ns3:atemp>19.0</ns3:atemp>
            <ns3:hr>121</ns3:hr>
          </ns3:TrackPointExtension>
        </extensions>
      </trkpt>
      <trkpt lat="46.66008688509464263916015625" lon="6.84256405569612979888916015625">
        <ele>731.5999755859375</ele>
        <time>2013-08-15T16:18:10.000Z</time>
        <extensions>
          <ns3:TrackPointExtension>
            <ns3:atemp>18.0</ns3:atemp>
            <ns3:hr>122</ns3:hr>
          </ns3:TrackPointExtension>
        </extensions>
      </trkpt>
      <trkpt lat="46.6600860469043254852294921875" lon="6.842593811452388763427734375">
        <ele>732</ele>
        <time>2013-08-15T16:18:11.000Z</time>
        <extensions>
          <ns3:TrackPointExtension>
            <ns3:atemp>18.0</ns3:atemp>
            <ns3:hr>123</ns3:hr>
          </ns3:TrackPointExtension>
        </extensions>
      </trkpt>
      <trkpt lat="46.66008193977177143096923828125" lon="6.84262298047542572021484375">
        <ele>732.4000244140625</ele>
        <time>2013-08-15T16:18:12.000Z</time>
        <extensions>
          <ns3:TrackPointExtension>
            <ns3:atemp>18.0</ns3:atemp>
            <ns3:hr>124</ns3:hr>
          </ns3:TrackPointExtension>
        </extensions>
      </trkpt>
      <trkpt lat="46.66007473133504390716552734375" lon="6.84266145341098308563232421875">
        <ele>732.5999755859375</ele>
        <time>2013-08-15T16:18:13.000Z</time>
        <extensions>
          <ns3:TrackPointExtension>
            <ns3:atemp>18.0</ns3:atemp>
            <ns3:hr>125</ns3:hr>
          </ns3:TrackPointExtension>
        </extensions>
      </trkpt>
      <trkpt lat="46.66007473133504390716552734375" lon="6.8426606990396976470947265625">
        <ele>733</ele>
        <time>2013-08-15T16:18:14.000Z</time>
        <extensions>
          <ns3:TrackPointExtension>
            <ns3:atemp>18.0</ns3:atemp>
            <ns3:hr>126</ns3:hr>
          </ns3:TrackPointExtension>
        </extensions>
      </trkpt>
      <trkpt lat="46.6600709594786167144775390625" lon="6.84271174483001232147216796875">
        <ele>733.20001220703125</ele>
        <time>2013-08-15T16:18:15.000Z</time>
        <extensions>
          <ns3:TrackPointExtension>
            <ns3:atemp>18.0</ns3:atemp>
            <ns3:hr>127</ns3:hr>
          </ns3:TrackPointExtension>
        </extensions>
      </trkpt>
      <trkpt lat="46.66006668470799922943115234375" lon="6.8427401594817638397216796875">
        <ele>733.4000244140625</ele>
        <time>2013-08-15T16:18:16.000Z</time>
        <extensions>
          <ns3:TrackPointExtension>
            <ns3:atemp>18.0</ns3:atemp>
            <ns3:hr>128</ns3:hr>
          </ns3:TrackPointExtension>
        </extensions>
      </trkpt>
      <trkpt lat="46.6600602306425571441650390625" lon="6.8427743576467037200927734375">
        <ele>733.5999755859375</ele>
        <time>2013-08-15T16:18:17.000Z</time>
        <extensions>
          <ns3:TrackPointExtension>
            <ns3:atemp>18.0</ns3:atemp>
            <ns3:hr>128</ns3:hr>
          </ns3:TrackPointExtension>
        </extensions>
      </trkpt>
      <trkpt lat="46.660054363310337066650390625" lon="6.84281081892549991607666015625">
        <ele>733.79998779296875</ele>
        <time>2013-08-15T16:18:18.000Z</time>
        <extensions>
          <ns3:TrackPointExtension>
            <ns3:atemp>18.0</ns3:atemp>
            <ns3:hr>129</ns3:hr>
          </ns3:TrackPointExtension>
        </extensions>
      </trkpt>
      <trkpt lat="46.66004723869264125823974609375" lon="6.8428556621074676513671875">
        <ele>733.79998779296875</ele>
        <time>2013-08-15T16:18:19.000Z</time>
        <extensions>
          <ns3:TrackPointExtension>
            <ns3:atemp>18.0</ns3:atemp>
            <ns3:hr>130</ns3:hr>
          </ns3:TrackPointExtension>
        </extensions>
      </trkpt>
      <trkpt lat="46.6600461490452289581298828125" lon="6.84290151111781597137451171875">
        <ele>734</ele>
        <time>2013-08-15T16:18:20.000Z</time>
        <extensions>
          <ns3:TrackPointExtension>
            <ns3:atemp>18.0</ns3:atemp>
            <ns3:hr>130</ns3:hr>
          </ns3:TrackPointExtension>
        </extensions>
      </trkpt>
      <trkpt lat="46.66004438884556293487548828125" lon="6.8429302610456943511962890625">
        <ele>733.79998779296875</ele>
        <time>2013-08-15T16:18:21.000Z</time>
        <extensions>
          <ns3:TrackPointExtension>
            <ns3:atemp>18.0</ns3:atemp>
            <ns3:hr>131</ns3:hr>
          </ns3:TrackPointExtension>
        </extensions>
      </trkpt>
      <trkpt lat="46.6600454784929752349853515625" lon="6.8429601006209850311279296875">
        <ele>734</ele>
        <time>2013-08-15T16:18:22.000Z</time>
        <extensions>
          <ns3:TrackPointExtension>
            <ns3:atemp>18.0</ns3:atemp>
            <ns3:hr>131</ns3:hr>
          </ns3:TrackPointExtension>
        </extensions>
      </trkpt>
      <trkpt lat="46.66005545295774936676025390625" lon="6.84300947003066539764404296875">
        <ele>734</ele>
        <time>2013-08-15T16:18:23.000Z</time>
        <extensions>
          <ns3:TrackPointExtension>
            <ns3:atemp>18.0</ns3:atemp>
            <ns3:hr>132</ns3:hr>
          </ns3:TrackPointExtension>
        </extensions>
      </trkpt>
      <trkpt lat="46.6600592248141765594482421875" lon="6.8430407345294952392578125">
        <ele>734.20001220703125</ele>
        <time>2013-08-15T16:18:24.000Z</time>
        <extensions>
          <ns3:TrackPointExtension>
            <ns3:atemp>18.0</ns3:atemp>
            <ns3:hr>132</ns3:hr>
          </ns3:TrackPointExtension>
        </extensions>
      </trkpt>
      <trkpt lat="46.66006383486092090606689453125" lon="6.843061856925487518310546875">
        <ele>734.20001220703125</ele>
        <time>2013-08-15T16:18:25.000Z</time>
        <extensions>
          <ns3:TrackPointExtension>
            <ns3:atemp>18.0</ns3:atemp>
            <ns3:hr>133</ns3:hr>
          </ns3:TrackPointExtension>
        </extensions>
      </trkpt>
      <trkpt lat="46.660067103803157806396484375" lon="6.8430905230343341827392578125">
        <ele>734.20001220703125</ele>
        <time>2013-08-15T16:18:26.000Z</time>
        <extensions>
          <ns3:TrackPointExtension>
            <ns3:atemp>18.0</ns3:atemp>
            <ns3:hr>133</ns3:hr>
          </ns3:TrackPointExtension>
        </extensions>
      </trkpt>
      <trkpt lat="46.6600800119340419769287109375" lon="6.84313721023499965667724609375">
        <ele>734.4000244140625</ele>
        <time>2013-08-15T16:18:27.000Z</time>
        <extensions>
          <ns3:TrackPointExtension>
            <ns3:atemp>18.0</ns3:atemp>
            <ns3:hr>133</ns3:hr>
          </ns3:TrackPointExtension>
        </extensions>
      </trkpt>
      <trkpt lat="46.6600890643894672393798828125" lon="6.84318364597856998443603515625">
        <ele>734.5999755859375</ele>
        <time>2013-08-15T16:18:28.000Z</time>
        <extensions>
          <ns3:TrackPointExtension>
            <ns3:atemp>18.0</ns3:atemp>
            <ns3:hr>133</ns3:hr>
          </ns3:TrackPointExtension>
        </extensions>
      </trkpt>
      <trkpt lat="46.66009736247360706329345703125" lon="6.84322957880795001983642578125">
        <ele>734.79998779296875</ele>
        <time>2013-08-15T16:18:29.000Z</time>
        <extensions>
          <ns3:TrackPointExtension>
            <ns3:atemp>18.0</ns3:atemp>
            <ns3:hr>134</ns3:hr>
          </ns3:TrackPointExtension>
        </extensions>
      </trkpt>
      <trkpt lat="46.66011211462318897247314453125" lon="6.8432802893221378326416015625">
        <ele>735</ele>
        <time>2013-08-15T16:18:30.000Z</time>
        <extensions>
          <ns3:TrackPointExtension>
            <ns3:atemp>18.0</ns3:atemp>
            <ns3:hr>134</ns3:hr>
          </ns3:TrackPointExtension>
        </extensions>
      </trkpt>
      <trkpt lat="46.66015368886291980743408203125" lon="6.8433627672493457794189453125">
        <ele>735</ele>
        <time>2013-08-15T16:18:31.000Z</time>
        <extensions>
          <ns3:TrackPointExtension>
            <ns3:atemp>18.0</ns3:atemp>
            <ns3:hr>134</ns3:hr>
          </ns3:TrackPointExtension>
        </extensions>
      </trkpt>
      <trkpt lat="46.66017715819180011749267578125" lon="6.84341146610677242279052734375">
        <ele>735.20001220703125</ele>
        <time>2013-08-15T16:18:32.000Z</time>
        <extensions>
          <ns3:TrackPointExtension>
            <ns3:atemp>18.0</ns3:atemp>
            <ns3:hr>135</ns3:hr>
          </ns3:TrackPointExtension>
        </extensions>
      </trkpt>
      <trkpt lat="46.6602017171680927276611328125" lon="6.84344700537621974945068359375">
        <ele>735</ele>
        <time>2013-08-15T16:18:33.000Z</time>
        <extensions>
          <ns3:TrackPointExtension>
            <ns3:atemp>18.0</ns3:atemp>
            <ns3:hr>135</ns3:hr>
          </ns3:TrackPointExtension>
        </extensions>
      </trkpt>
      <trkpt lat="46.6602241806685924530029296875" lon="6.843472234904766082763671875">
        <ele>735.20001220703125</ele>
        <time>2013-08-15T16:18:34.000Z</time>
        <extensions>
          <ns3:TrackPointExtension>
            <ns3:atemp>18.0</ns3:atemp>
            <ns3:hr>135</ns3:hr>
          </ns3:TrackPointExtension>
        </extensions>
      </trkpt>
      <trkpt lat="46.66024806909263134002685546875" lon="6.84349796734750270843505859375">
        <ele>735.20001220703125</ele>
        <time>2013-08-15T16:18:35.000Z</time>
        <extensions>
          <ns3:TrackPointExtension>
            <ns3:atemp>18.0</ns3:atemp>
            <ns3:hr>135</ns3:hr>
          </ns3:TrackPointExtension>
        </extensions>
      </trkpt>
      <trkpt lat="46.66027405299246311187744140625" lon="6.8435270525515079498291015625">
        <ele>735.20001220703125</ele>
        <time>2013-08-15T16:18:36.000Z</time>
        <extensions>
          <ns3:TrackPointExtension>
            <ns3:atemp>18.0</ns3:atemp>
            <ns3:hr>136</ns3:hr>
          </ns3:TrackPointExtension>
        </extensions>
      </trkpt>
      <trkpt lat="46.66029609739780426025390625" lon="6.843554712831974029541015625">
        <ele>735.4000244140625</ele>
        <time>2013-08-15T16:18:37.000Z</time>
        <extensions>
          <ns3:TrackPointExtension>
            <ns3:atemp>18.0</ns3:atemp>
            <ns3:hr>136</ns3:hr>
          </ns3:TrackPointExtension>
        </extensions>
      </trkpt>
      <trkpt lat="46.6603155434131622314453125" lon="6.84357784688472747802734375">
        <ele>735.4000244140625</ele>
        <time>2013-08-15T16:18:38.000Z</time>
        <extensions>
          <ns3:TrackPointExtension>
            <ns3:atemp>18.0</ns3:atemp>
            <ns3:hr>135</ns3:hr>
          </ns3:TrackPointExtension>
        </extensions>
      </trkpt>
      <trkpt lat="46.66033767163753509521484375" lon="6.8436085246503353118896484375">
        <ele>735.5999755859375</ele>
        <time>2013-08-15T16:18:39.000Z</time>
        <extensions>
          <ns3:TrackPointExtension>
            <ns3:atemp>18.0</ns3:atemp>
            <ns3:hr>135</ns3:hr>
          </ns3:TrackPointExtension>
        </extensions>
      </trkpt>
      <trkpt lat="46.66036088950932025909423828125" lon="6.84364951215684413909912109375">
        <ele>735.5999755859375</ele>
        <time>2013-08-15T16:18:40.000Z</time>
        <extensions>
          <ns3:TrackPointExtension>
            <ns3:atemp>18.0</ns3:atemp>
            <ns3:hr>136</ns3:hr>
          </ns3:TrackPointExtension>
        </extensions>
      </trkpt>
      <trkpt lat="46.6603837721049785614013671875" lon="6.8436923436820507049560546875">
        <ele>735.79998779296875</ele>
        <time>2013-08-15T16:18:41.000Z</time>
        <extensions>
          <ns3:TrackPointExtension>
            <ns3:atemp>18.0</ns3:atemp>
            <ns3:hr>136</ns3:hr>
          </ns3:TrackPointExtension>
        </extensions>
      </trkpt>
      <trkpt lat="46.66040204465389251708984375" lon="6.843718998134136199951171875">
        <ele>735.79998779296875</ele>
        <time>2013-08-15T16:18:42.000Z</time>
        <extensions>
          <ns3:TrackPointExtension>
            <ns3:atemp>18.0</ns3:atemp>
            <ns3:hr>136</ns3:hr>
          </ns3:TrackPointExtension>
        </extensions>
      </trkpt>
      <trkpt lat="46.6604320518672466278076171875" lon="6.843761913478374481201171875">
        <ele>736</ele>
        <time>2013-08-15T16:18:43.000Z</time>
        <extensions>
          <ns3:TrackPointExtension>
            <ns3:atemp>18.0</ns3:atemp>
            <ns3:hr>136</ns3:hr>
          </ns3:TrackPointExtension>
        </extensions>
      </trkpt>
      <trkpt lat="46.660467423498630523681640625" lon="6.8438093550503253936767578125">
        <ele>736.20001220703125</ele>
        <time>2013-08-15T16:18:44.000Z</time>
        <extensions>
          <ns3:TrackPointExtension>
            <ns3:atemp>18.0</ns3:atemp>
            <ns3:hr>136</ns3:hr>
          </ns3:TrackPointExtension>
        </extensions>
      </trkpt>
      <trkpt lat="46.6604912281036376953125" lon="6.84384204447269439697265625">
        <ele>736.20001220703125</ele>
        <time>2013-08-15T16:18:45.000Z</time>
        <extensions>
          <ns3:TrackPointExtension>
            <ns3:atemp>18.0</ns3:atemp>
            <ns3:hr>136</ns3:hr>
          </ns3:TrackPointExtension>
        </extensions>
      </trkpt>
      <trkpt lat="46.66051863692700862884521484375" lon="6.843873560428619384765625">
        <ele>736.20001220703125</ele>
        <time>2013-08-15T16:18:46.000Z</time>
        <extensions>
          <ns3:TrackPointExtension>
            <ns3:atemp>18.0</ns3:atemp>
            <ns3:hr>137</ns3:hr>
          </ns3:TrackPointExtension>
        </extensions>
      </trkpt>
      <trkpt lat="46.66054646484553813934326171875" lon="6.84389946050941944122314453125">
        <ele>736</ele>
        <time>2013-08-15T16:18:47.000Z</time>
        <extensions>
          <ns3:TrackPointExtension>
            <ns3:atemp>18.0</ns3:atemp>
            <ns3:hr>136</ns3:hr>
          </ns3:TrackPointExtension>
        </extensions>
      </trkpt>
      <trkpt lat="46.66057630442082881927490234375" lon="6.843926198780536651611328125">
        <ele>735.79998779296875</ele>
        <time>2013-08-15T16:18:48.000Z</time>
        <extensions>
          <ns3:TrackPointExtension>
            <ns3:atemp>18.0</ns3:atemp>
            <ns3:hr>136</ns3:hr>
          </ns3:TrackPointExtension>
        </extensions>
      </trkpt>
      <trkpt lat="46.6606017015874385833740234375" lon="6.84395142830908298492431640625">
        <ele>735.79998779296875</ele>
        <time>2013-08-15T16:18:49.000Z</time>
        <extensions>
          <ns3:TrackPointExtension>
            <ns3:atemp>18.0</ns3:atemp>
            <ns3:hr>136</ns3:hr>
          </ns3:TrackPointExtension>
        </extensions>
      </trkpt>
      <trkpt lat="46.66062475182116031646728515625" lon="6.84397355653345584869384765625">
        <ele>736</ele>
        <time>2013-08-15T16:18:50.000Z</time>
        <extensions>
          <ns3:TrackPointExtension>
            <ns3:atemp>18.0</ns3:atemp>
            <ns3:hr>136</ns3:hr>
          </ns3:TrackPointExtension>
        </extensions>
      </trkpt>
      <trkpt lat="46.66064738295972347259521484375" lon="6.8439964391291141510009765625">
        <ele>736.20001220703125</ele>
        <time>2013-08-15T16:18:51.000Z</time>
        <extensions>
          <ns3:TrackPointExtension>
            <ns3:atemp>18.0</ns3:atemp>
            <ns3:hr>136</ns3:hr>
          </ns3:TrackPointExtension>
        </extensions>
      </trkpt>
      <trkpt lat="46.66066867299377918243408203125" lon="6.84401747770607471466064453125">
        <ele>736.4000244140625</ele>
        <time>2013-08-15T16:18:52.000Z</time>
        <extensions>
          <ns3:TrackPointExtension>
            <ns3:atemp>18.0</ns3:atemp>
            <ns3:hr>136</ns3:hr>
          </ns3:TrackPointExtension>
        </extensions>
      </trkpt>
      <trkpt lat="46.66068895719945430755615234375" lon="6.8440353311598300933837890625">
        <ele>736.4000244140625</ele>
        <time>2013-08-15T16:18:53.000Z</time>
        <extensions>
          <ns3:TrackPointExtension>
            <ns3:atemp>18.0</ns3:atemp>
            <ns3:hr>136</ns3:hr>
          </ns3:TrackPointExtension>
        </extensions>
      </trkpt>
      <trkpt lat="46.66070781648159027099609375" lon="6.84404832310974597930908203125">
        <ele>736.4000244140625</ele>
        <time>2013-08-15T16:18:54.000Z</time>
        <extensions>
          <ns3:TrackPointExtension>
            <ns3:atemp>18.0</ns3:atemp>
            <ns3:hr>136</ns3:hr>
          </ns3:TrackPointExtension>
        </extensions>
      </trkpt>
      <trkpt lat="46.6607244126498699188232421875" lon="6.844062320888042449951171875">
        <ele>736.4000244140625</ele>
        <time>2013-08-15T16:18:55.000Z</time>
        <extensions>
          <ns3:TrackPointExtension>
            <ns3:atemp>18.0</ns3:atemp>
            <ns3:hr>136</ns3:hr>
          </ns3:TrackPointExtension>
        </extensions>
      </trkpt>
      <trkpt lat="46.6607388295233249664306640625" lon="6.8440799228847026824951171875">
        <ele>736.4000244140625</ele>
        <time>2013-08-15T16:18:56.000Z</time>
        <extensions>
          <ns3:TrackPointExtension>
            <ns3:atemp>18.0</ns3:atemp>
            <ns3:hr>135</ns3:hr>
          </ns3:TrackPointExtension>
        </extensions>
      </trkpt>
      <trkpt lat="46.66074997745454311370849609375" lon="6.84409593231976032257080078125">
        <ele>736.5999755859375</ele>
        <time>2013-08-15T16:18:57.000Z</time>
        <extensions>
          <ns3:TrackPointExtension>
            <ns3:atemp>18.0</ns3:atemp>
            <ns3:hr>135</ns3:hr>
          </ns3:TrackPointExtension>
        </extensions>
      </trkpt>
      <trkpt lat="46.66076489724218845367431640625" lon="6.84412325732409954071044921875">
        <ele>736.79998779296875</ele>
        <time>2013-08-15T16:18:58.000Z</time>
        <extensions>
          <ns3:TrackPointExtension>
            <ns3:atemp>18.0</ns3:atemp>
            <ns3:hr>134</ns3:hr>
          </ns3:TrackPointExtension>
        </extensions>
      </trkpt>
      <trkpt lat="46.6607800684869289398193359375" lon="6.844153515994548797607421875">
        <ele>736.79998779296875</ele>
        <time>2013-08-15T16:18:59.000Z</time>
        <extensions>
          <ns3:TrackPointExtension>
            <ns3:atemp>18.0</ns3:atemp>
            <ns3:hr>134</ns3:hr>
          </ns3:TrackPointExtension>
        </extensions>
      </trkpt>
      <trkpt lat="46.6607901267707347869873046875" lon="6.84417991898953914642333984375">
        <ele>737</ele>
        <time>2013-08-15T16:19:00.000Z</time>
        <extensions>
          <ns3:TrackPointExtension>
            <ns3:atemp>18.0</ns3:atemp>
            <ns3:hr>133</ns3:hr>
          </ns3:TrackPointExtension>
        </extensions>
      </trkpt>
      <trkpt lat="46.66080211289227008819580078125" lon="6.844199113547801971435546875">
        <ele>737</ele>
        <time>2013-08-15T16:19:01.000Z</time>
        <extensions>
          <ns3:TrackPointExtension>
            <ns3:atemp>18.0</ns3:atemp>
            <ns3:hr>133</ns3:hr>
          </ns3:TrackPointExtension>
        </extensions>
      </trkpt>
      <trkpt lat="46.66081602685153484344482421875" lon="6.84422736056149005889892578125">
        <ele>737.20001220703125</ele>
        <time>2013-08-15T16:19:02.000Z</time>
        <extensions>
          <ns3:TrackPointExtension>
            <ns3:atemp>18.0</ns3:atemp>
            <ns3:hr>133</ns3:hr>
          </ns3:TrackPointExtension>
        </extensions>
      </trkpt>
      <trkpt lat="46.66082407347857952117919921875" lon="6.84425376355648040771484375">
        <ele>737.20001220703125</ele>
        <time>2013-08-15T16:19:03.000Z</time>
        <extensions>
          <ns3:TrackPointExtension>
            <ns3:atemp>18.0</ns3:atemp>
            <ns3:hr>133</ns3:hr>
          </ns3:TrackPointExtension>
        </extensions>
      </trkpt>
      <trkpt lat="46.660829521715641021728515625" lon="6.84428997337818145751953125">
        <ele>737.4000244140625</ele>
        <time>2013-08-15T16:19:04.000Z</time>
        <extensions>
          <ns3:TrackPointExtension>
            <ns3:atemp>18.0</ns3:atemp>
            <ns3:hr>133</ns3:hr>
          </ns3:TrackPointExtension>
        </extensions>
      </trkpt>
      <trkpt lat="46.66083413176238536834716796875" lon="6.8443250097334384918212890625">
        <ele>737.5999755859375</ele>
        <time>2013-08-15T16:19:05.000Z</time>
        <extensions>
          <ns3:TrackPointExtension>
            <ns3:atemp>18.0</ns3:atemp>
            <ns3:hr>133</ns3:hr>
          </ns3:TrackPointExtension>
        </extensions>
      </trkpt>
      <trkpt lat="46.66083631105720996856689453125" lon="6.8443655781447887420654296875">
        <ele>737.5999755859375</ele>
        <time>2013-08-15T16:19:06.000Z</time>
        <extensions>
          <ns3:TrackPointExtension>
            <ns3:atemp>18.0</ns3:atemp>
            <ns3:hr>132</ns3:hr>
          </ns3:TrackPointExtension>
        </extensions>
      </trkpt>
      <trkpt lat="46.66084150783717632293701171875" lon="6.844411678612232208251953125">
        <ele>737.79998779296875</ele>
        <time>2013-08-15T16:19:07.000Z</time>
        <extensions>
          <ns3:TrackPointExtension>
            <ns3:atemp>18.0</ns3:atemp>
            <ns3:hr>132</ns3:hr>
          </ns3:TrackPointExtension>
        </extensions>
      </trkpt>
      <trkpt lat="46.66084150783717632293701171875" lon="6.84445492923259735107421875">
        <ele>737.79998779296875</ele>
        <time>2013-08-15T16:19:08.000Z</time>
        <extensions>
          <ns3:TrackPointExtension>
            <ns3:atemp>18.0</ns3:atemp>
            <ns3:hr>132</ns3:hr>
          </ns3:TrackPointExtension>
        </extensions>
      </trkpt>
      <trkpt lat="46.66083647869527339935302734375" lon="6.84449382126331329345703125">
        <ele>737.79998779296875</ele>
        <time>2013-08-15T16:19:09.000Z</time>
        <extensions>
          <ns3:TrackPointExtension>
            <ns3:atemp>18.0</ns3:atemp>
            <ns3:hr>131</ns3:hr>
          </ns3:TrackPointExtension>
        </extensions>
      </trkpt>
      <trkpt lat="46.6608306951820850372314453125" lon="6.84451527893543243408203125">
        <ele>737.5999755859375</ele>
        <time>2013-08-15T16:19:10.000Z</time>
        <extensions>
          <ns3:TrackPointExtension>
            <ns3:atemp>18.0</ns3:atemp>
            <ns3:hr>131</ns3:hr>
          </ns3:TrackPointExtension>
        </extensions>
      </trkpt>
      <trkpt lat="46.660816110670566558837890625" lon="6.8445159494876861572265625">
        <ele>737.4000244140625</ele>
        <time>2013-08-15T16:19:11.000Z</time>
        <extensions>
          <ns3:TrackPointExtension>
            <ns3:atemp>18.0</ns3:atemp>
            <ns3:hr>130</ns3:hr>
          </ns3:TrackPointExtension>
        </extensions>
      </trkpt>
      <trkpt lat="46.660800687968730926513671875" lon="6.844503879547119140625">
        <ele>736.79998779296875</ele>
        <time>2013-08-15T16:19:12.000Z</time>
        <extensions>
          <ns3:TrackPointExtension>
            <ns3:atemp>18.0</ns3:atemp>
            <ns3:hr>130</ns3:hr>
          </ns3:TrackPointExtension>
        </extensions>
      </trkpt>
      <trkpt lat="46.66078157722949981689453125" lon="6.84447865001857280731201171875">
        <ele>736.79998779296875</ele>
        <time>2013-08-15T16:19:13.000Z</time>
        <extensions>
          <ns3:TrackPointExtension>
            <ns3:atemp>18.0</ns3:atemp>
            <ns3:hr>129</ns3:hr>
          </ns3:TrackPointExtension>
        </extensions>
      </trkpt>
      <trkpt lat="46.66076481342315673828125" lon="6.84445048682391643524169921875">
        <ele>737</ele>
        <time>2013-08-15T16:19:14.000Z</time>
        <extensions>
          <ns3:TrackPointExtension>
            <ns3:atemp>18.0</ns3:atemp>
            <ns3:hr>129</ns3:hr>
          </ns3:TrackPointExtension>
        </extensions>
      </trkpt>
      <trkpt lat="46.66074695996940135955810546875" lon="6.8444229103624820709228515625">
        <ele>737</ele>
        <time>2013-08-15T16:19:15.000Z</time>
        <extensions>
          <ns3:TrackPointExtension>
            <ns3:atemp>18.0</ns3:atemp>
            <ns3:hr>129</ns3:hr>
          </ns3:TrackPointExtension>
        </extensions>
      </trkpt>
      <trkpt lat="46.66072064079344272613525390625" lon="6.844399273395538330078125">
        <ele>737</ele>
        <time>2013-08-15T16:19:16.000Z</time>
        <extensions>
          <ns3:TrackPointExtension>
            <ns3:atemp>18.0</ns3:atemp>
            <ns3:hr>128</ns3:hr>
          </ns3:TrackPointExtension>
        </extensions>
      </trkpt>
      <trkpt lat="46.66069163940846920013427734375" lon="6.84437722899019718170166015625">
        <ele>736.79998779296875</ele>
        <time>2013-08-15T16:19:17.000Z</time>
        <extensions>
          <ns3:TrackPointExtension>
            <ns3:atemp>18.0</ns3:atemp>
            <ns3:hr>128</ns3:hr>
          </ns3:TrackPointExtension>
        </extensions>
      </trkpt>
      <trkpt lat="46.660655178129673004150390625" lon="6.84434831142425537109375">
        <ele>736.79998779296875</ele>
        <time>2013-08-15T16:19:18.000Z</time>
        <extensions>
          <ns3:TrackPointExtension>
            <ns3:atemp>18.0</ns3:atemp>
            <ns3:hr>128</ns3:hr>
          </ns3:TrackPointExtension>
        </extensions>
      </trkpt>
      <trkpt lat="46.66061234660446643829345703125" lon="6.84432107023894786834716796875">
        <ele>736.79998779296875</ele>
        <time>2013-08-15T16:19:19.000Z</time>
        <extensions>
          <ns3:TrackPointExtension>
            <ns3:atemp>18.0</ns3:atemp>
            <ns3:hr>128</ns3:hr>
          </ns3:TrackPointExtension>
        </extensions>
      </trkpt>
      <trkpt lat="46.6605493985116481781005859375" lon="6.844286620616912841796875">
        <ele>736.79998779296875</ele>
        <time>2013-08-15T16:19:20.000Z</time>
        <extensions>
          <ns3:TrackPointExtension>
            <ns3:atemp>18.0</ns3:atemp>
            <ns3:hr>127</ns3:hr>
          </ns3:TrackPointExtension>
        </extensions>
      </trkpt>
      <trkpt lat="46.660491563379764556884765625" lon="6.84425376355648040771484375">
        <ele>737.20001220703125</ele>
        <time>2013-08-15T16:19:21.000Z</time>
        <extensions>
          <ns3:TrackPointExtension>
            <ns3:atemp>18.0</ns3:atemp>
            <ns3:hr>128</ns3:hr>
          </ns3:TrackPointExtension>
        </extensions>
      </trkpt>
      <trkpt lat="46.66043783538043498992919921875" lon="6.84422199614346027374267578125">
        <ele>737.20001220703125</ele>
        <time>2013-08-15T16:19:22.000Z</time>
        <extensions>
          <ns3:TrackPointExtension>
            <ns3:atemp>18.0</ns3:atemp>
            <ns3:hr>127</ns3:hr>
          </ns3:TrackPointExtension>
        </extensions>
      </trkpt>
      <trkpt lat="46.660386621952056884765625" lon="6.8441935814917087554931640625">
        <ele>737</ele>
        <time>2013-08-15T16:19:23.000Z</time>
        <extensions>
          <ns3:TrackPointExtension>
            <ns3:atemp>18.0</ns3:atemp>
            <ns3:hr>128</ns3:hr>
          </ns3:TrackPointExtension>
        </extensions>
      </trkpt>
      <trkpt lat="46.66033959947526454925537109375" lon="6.84416734613478183746337890625">
        <ele>737</ele>
        <time>2013-08-15T16:19:24.000Z</time>
        <extensions>
          <ns3:TrackPointExtension>
            <ns3:atemp>18.0</ns3:atemp>
            <ns3:hr>127</ns3:hr>
          </ns3:TrackPointExtension>
        </extensions>
      </trkpt>
      <trkpt lat="46.66030305437743663787841796875" lon="6.84414387680590152740478515625">
        <ele>736.5999755859375</ele>
        <time>2013-08-15T16:19:25.000Z</time>
        <extensions>
          <ns3:TrackPointExtension>
            <ns3:atemp>18.0</ns3:atemp>
            <ns3:hr>127</ns3:hr>
          </ns3:TrackPointExtension>
        </extensions>
      </trkpt>
      <trkpt lat="46.66026198305189609527587890625" lon="6.84411420486867427825927734375">
        <ele>736.79998779296875</ele>
        <time>2013-08-15T16:19:26.000Z</time>
        <extensions>
          <ns3:TrackPointExtension>
            <ns3:atemp>18.0</ns3:atemp>
            <ns3:hr>127</ns3:hr>
          </ns3:TrackPointExtension>
        </extensions>
      </trkpt>
      <trkpt lat="46.66022024117410182952880859375" lon="6.8440789170563220977783203125">
        <ele>737</ele>
        <time>2013-08-15T16:19:27.000Z</time>
        <extensions>
          <ns3:TrackPointExtension>
            <ns3:atemp>18.0</ns3:atemp>
            <ns3:hr>127</ns3:hr>
          </ns3:TrackPointExtension>
        </extensions>
      </trkpt>
      <trkpt lat="46.66017808020114898681640625" lon="6.84404346160590648651123046875">
        <ele>737.20001220703125</ele>
        <time>2013-08-15T16:19:28.000Z</time>
        <extensions>
          <ns3:TrackPointExtension>
            <ns3:atemp>18.0</ns3:atemp>
            <ns3:hr>127</ns3:hr>
          </ns3:TrackPointExtension>
        </extensions>
      </trkpt>
      <trkpt lat="46.66013206355273723602294921875" lon="6.84401127509772777557373046875">
        <ele>737.4000244140625</ele>
        <time>2013-08-15T16:19:29.000Z</time>
        <extensions>
          <ns3:TrackPointExtension>
            <ns3:atemp>18.0</ns3:atemp>
            <ns3:hr>127</ns3:hr>
          </ns3:TrackPointExtension>
        </extensions>
      </trkpt>
      <trkpt lat="46.66009048931300640106201171875" lon="6.84397791512310504913330078125">
        <ele>737.4000244140625</ele>
        <time>2013-08-15T16:19:30.000Z</time>
        <extensions>
          <ns3:TrackPointExtension>
            <ns3:atemp>18.0</ns3:atemp>
            <ns3:hr>127</ns3:hr>
          </ns3:TrackPointExtension>
        </extensions>
      </trkpt>
      <trkpt lat="46.6600419580936431884765625" lon="6.84394103474915027618408203125">
        <ele>737.5999755859375</ele>
        <time>2013-08-15T16:19:31.000Z</time>
        <extensions>
          <ns3:TrackPointExtension>
            <ns3:atemp>18.0</ns3:atemp>
            <ns3:hr>128</ns3:hr>
          </ns3:TrackPointExtension>
        </extensions>
      </trkpt>
      <trkpt lat="46.6599928401410579681396484375" lon="6.84390448965132236480712890625">
        <ele>737.79998779296875</ele>
        <time>2013-08-15T16:19:32.000Z</time>
        <extensions>
          <ns3:TrackPointExtension>
            <ns3:atemp>18.0</ns3:atemp>
            <ns3:hr>128</ns3:hr>
          </ns3:TrackPointExtension>
        </extensions>
      </trkpt>
      <trkpt lat="46.6599425487220287322998046875" lon="6.84387012384831905364990234375">
        <ele>738</ele>
        <time>2013-08-15T16:19:33.000Z</time>
        <extensions>
          <ns3:TrackPointExtension>
            <ns3:atemp>18.0</ns3:atemp>
            <ns3:hr>128</ns3:hr>
          </ns3:TrackPointExtension>
        </extensions>
      </trkpt>
      <trkpt lat="46.6598959453403949737548828125" lon="6.8438395299017429351806640625">
        <ele>738.20001220703125</ele>
        <time>2013-08-15T16:19:34.000Z</time>
        <extensions>
          <ns3:TrackPointExtension>
            <ns3:atemp>18.0</ns3:atemp>
            <ns3:hr>128</ns3:hr>
          </ns3:TrackPointExtension>
        </extensions>
      </trkpt>
      <trkpt lat="46.6598483361303806304931640625" lon="6.843812875449657440185546875">
        <ele>737.79998779296875</ele>
        <time>2013-08-15T16:19:35.000Z</time>
        <extensions>
          <ns3:TrackPointExtension>
            <ns3:atemp>18.0</ns3:atemp>
            <ns3:hr>128</ns3:hr>
          </ns3:TrackPointExtension>
        </extensions>
      </trkpt>
      <trkpt lat="46.65980231948196887969970703125" lon="6.8437858857214450836181640625">
        <ele>737.5999755859375</ele>
        <time>2013-08-15T16:19:36.000Z</time>
        <extensions>
          <ns3:TrackPointExtension>
            <ns3:atemp>18.0</ns3:atemp>
            <ns3:hr>128</ns3:hr>
          </ns3:TrackPointExtension>
        </extensions>
      </trkpt>
      <trkpt lat="46.6597576439380645751953125" lon="6.84376585297286510467529296875">
        <ele>738</ele>
        <time>2013-08-15T16:19:37.000Z</time>
        <extensions>
          <ns3:TrackPointExtension>
            <ns3:atemp>18.0</ns3:atemp>
            <ns3:hr>128</ns3:hr>
          </ns3:TrackPointExtension>
        </extensions>
      </trkpt>
      <trkpt lat="46.65971028618514537811279296875" lon="6.843748502433300018310546875">
        <ele>738</ele>
        <time>2013-08-15T16:19:38.000Z</time>
        <extensions>
          <ns3:TrackPointExtension>
            <ns3:atemp>18.0</ns3:atemp>
            <ns3:hr>128</ns3:hr>
          </ns3:TrackPointExtension>
        </extensions>
      </trkpt>
      <trkpt lat="46.6596610844135284423828125" lon="6.84373215772211551666259765625">
        <ele>738</ele>
        <time>2013-08-15T16:19:39.000Z</time>
        <extensions>
          <ns3:TrackPointExtension>
            <ns3:atemp>18.0</ns3:atemp>
            <ns3:hr>128</ns3:hr>
          </ns3:TrackPointExtension>
        </extensions>
      </trkpt>
      <trkpt lat="46.659610457718372344970703125" lon="6.84371732175350189208984375">
        <ele>738</ele>
        <time>2013-08-15T16:19:40.000Z</time>
        <extensions>
          <ns3:TrackPointExtension>
            <ns3:atemp>18.0</ns3:atemp>
            <ns3:hr>128</ns3:hr>
          </ns3:TrackPointExtension>
        </extensions>
      </trkpt>
      <trkpt lat="46.65955790318548679351806640625" lon="6.8437054194509983062744140625">
        <ele>737.79998779296875</ele>
        <time>2013-08-15T16:19:41.000Z</time>
        <extensions>
          <ns3:TrackPointExtension>
            <ns3:atemp>18.0</ns3:atemp>
            <ns3:hr>128</ns3:hr>
          </ns3:TrackPointExtension>
        </extensions>
      </trkpt>
      <trkpt lat="46.6595003195106983184814453125" lon="6.84369008056819438934326171875">
        <ele>737.79998779296875</ele>
        <time>2013-08-15T16:19:42.000Z</time>
        <extensions>
          <ns3:TrackPointExtension>
            <ns3:atemp>18.0</ns3:atemp>
            <ns3:hr>128</ns3:hr>
          </ns3:TrackPointExtension>
        </extensions>
      </trkpt>
      <trkpt lat="46.65944608859717845916748046875" lon="6.8436708860099315643310546875">
        <ele>737.4000244140625</ele>
        <time>2013-08-15T16:19:43.000Z</time>
        <extensions>
          <ns3:TrackPointExtension>
            <ns3:atemp>18.0</ns3:atemp>
            <ns3:hr>129</ns3:hr>
          </ns3:TrackPointExtension>
        </extensions>
      </trkpt>
      <trkpt lat="46.65939026512205600738525390625" lon="6.84365353547036647796630859375">
        <ele>737.5999755859375</ele>
        <time>2013-08-15T16:19:44.000Z</time>
        <extensions>
          <ns3:TrackPointExtension>
            <ns3:atemp>18.0</ns3:atemp>
            <ns3:hr>128</ns3:hr>
          </ns3:TrackPointExtension>
        </extensions>
      </trkpt>
      <trkpt lat="46.6593338549137115478515625" lon="6.8436333350837230682373046875">
        <ele>737.20001220703125</ele>
        <time>2013-08-15T16:19:45.000Z</time>
        <extensions>
          <ns3:TrackPointExtension>
            <ns3:atemp>18.0</ns3:atemp>
            <ns3:hr>129</ns3:hr>
          </ns3:TrackPointExtension>
        </extensions>
      </trkpt>
      <trkpt lat="46.6592776961624622344970703125" lon="6.84360844083130359649658203125">
        <ele>737.20001220703125</ele>
        <time>2013-08-15T16:19:46.000Z</time>
        <extensions>
          <ns3:TrackPointExtension>
            <ns3:atemp>18.0</ns3:atemp>
            <ns3:hr>129</ns3:hr>
          </ns3:TrackPointExtension>
        </extensions>
      </trkpt>
      <trkpt lat="46.659226231276988983154296875" lon="6.84358321130275726318359375">
        <ele>736.5999755859375</ele>
        <time>2013-08-15T16:19:47.000Z</time>
        <extensions>
          <ns3:TrackPointExtension>
            <ns3:atemp>18.0</ns3:atemp>
            <ns3:hr>128</ns3:hr>
          </ns3:TrackPointExtension>
        </extensions>
      </trkpt>
      <trkpt lat="46.65917954407632350921630859375" lon="6.843560077250003814697265625">
        <ele>736.4000244140625</ele>
        <time>2013-08-15T16:19:48.000Z</time>
        <extensions>
          <ns3:TrackPointExtension>
            <ns3:atemp>18.0</ns3:atemp>
            <ns3:hr>128</ns3:hr>
          </ns3:TrackPointExtension>
        </extensions>
      </trkpt>
      <trkpt lat="46.65913193486630916595458984375" lon="6.84353384189307689666748046875">
        <ele>736.4000244140625</ele>
        <time>2013-08-15T16:19:49.000Z</time>
        <extensions>
          <ns3:TrackPointExtension>
            <ns3:atemp>18.0</ns3:atemp>
            <ns3:hr>128</ns3:hr>
          </ns3:TrackPointExtension>
        </extensions>
      </trkpt>
      <trkpt lat="46.659083068370819091796875" lon="6.84350349940359592437744140625">
        <ele>736.4000244140625</ele>
        <time>2013-08-15T16:19:50.000Z</time>
        <extensions>
          <ns3:TrackPointExtension>
            <ns3:atemp>18.0</ns3:atemp>
            <ns3:hr>128</ns3:hr>
          </ns3:TrackPointExtension>
        </extensions>
      </trkpt>
      <trkpt lat="46.65902875363826751708984375" lon="6.843474917113780975341796875">
        <ele>736.5999755859375</ele>
        <time>2013-08-15T16:19:51.000Z</time>
        <extensions>
          <ns3:TrackPointExtension>
            <ns3:atemp>18.0</ns3:atemp>
            <ns3:hr>128</ns3:hr>
          </ns3:TrackPointExtension>
        </extensions>
      </trkpt>
      <trkpt lat="46.65897418744862079620361328125" lon="6.84345454908907413482666015625">
        <ele>736.79998779296875</ele>
        <time>2013-08-15T16:19:52.000Z</time>
        <extensions>
          <ns3:TrackPointExtension>
            <ns3:atemp>18.0</ns3:atemp>
            <ns3:hr>128</ns3:hr>
          </ns3:TrackPointExtension>
        </extensions>
      </trkpt>
      <trkpt lat="46.658918447792530059814453125" lon="6.843438036739826202392578125">
        <ele>736.4000244140625</ele>
        <time>2013-08-15T16:19:53.000Z</time>
        <extensions>
          <ns3:TrackPointExtension>
            <ns3:atemp>18.0</ns3:atemp>
            <ns3:hr>127</ns3:hr>
          </ns3:TrackPointExtension>
        </extensions>
      </trkpt>
      <trkpt lat="46.6588602773845195770263671875" lon="6.84342605061829090118408203125">
        <ele>736</ele>
        <time>2013-08-15T16:19:54.000Z</time>
        <extensions>
          <ns3:TrackPointExtension>
            <ns3:atemp>18.0</ns3:atemp>
            <ns3:hr>127</ns3:hr>
          </ns3:TrackPointExtension>
        </extensions>
      </trkpt>
      <trkpt lat="46.658802442252635955810546875" lon="6.8434150703251361846923828125">
        <ele>735.4000244140625</ele>
        <time>2013-08-15T16:19:55.000Z</time>
        <extensions>
          <ns3:TrackPointExtension>
            <ns3:atemp>18.0</ns3:atemp>
            <ns3:hr>126</ns3:hr>
          </ns3:TrackPointExtension>
        </extensions>
      </trkpt>
      <trkpt lat="46.658750474452972412109375" lon="6.8434043414890766143798828125">
        <ele>735</ele>
        <time>2013-08-15T16:19:56.000Z</time>
        <extensions>
          <ns3:TrackPointExtension>
            <ns3:atemp>18.0</ns3:atemp>
            <ns3:hr>126</ns3:hr>
          </ns3:TrackPointExtension>
        </extensions>
      </trkpt>
      <trkpt lat="46.65870328433811664581298828125" lon="6.84339009225368499755859375">
        <ele>734.5999755859375</ele>
        <time>2013-08-15T16:19:57.000Z</time>
        <extensions>
          <ns3:TrackPointExtension>
            <ns3:atemp>18.0</ns3:atemp>
            <ns3:hr>125</ns3:hr>
          </ns3:TrackPointExtension>
        </extensions>
      </trkpt>
      <trkpt lat="46.65865751914680004119873046875" lon="6.84337307699024677276611328125">
        <ele>734</ele>
        <time>2013-08-15T16:19:58.000Z</time>
        <extensions>
          <ns3:TrackPointExtension>
            <ns3:atemp>18.0</ns3:atemp>
            <ns3:hr>125</ns3:hr>
          </ns3:TrackPointExtension>
        </extensions>
      </trkpt>
      <trkpt lat="46.65861460380256175994873046875" lon="6.84335430152714252471923828125">
        <ele>733.5999755859375</ele>
        <time>2013-08-15T16:19:59.000Z</time>
        <extensions>
          <ns3:TrackPointExtension>
            <ns3:atemp>18.0</ns3:atemp>
            <ns3:hr>125</ns3:hr>
          </ns3:TrackPointExtension>
        </extensions>
      </trkpt>
      <trkpt lat="46.65857990272343158721923828125" lon="6.8433389626443386077880859375">
        <ele>733.4000244140625</ele>
        <time>2013-08-15T16:20:00.000Z</time>
        <extensions>
          <ns3:TrackPointExtension>
            <ns3:atemp>18.0</ns3:atemp>
            <ns3:hr>124</ns3:hr>
          </ns3:TrackPointExtension>
        </extensions>
      </trkpt>
      <trkpt lat="46.6585555113852024078369140625" lon="6.84332563541829586029052734375">
        <ele>733.20001220703125</ele>
        <time>2013-08-15T16:20:01.000Z</time>
        <extensions>
          <ns3:TrackPointExtension>
            <ns3:atemp>18.0</ns3:atemp>
            <ns3:hr>124</ns3:hr>
          </ns3:TrackPointExtension>
        </extensions>
      </trkpt>
      <trkpt lat="46.65853598155081272125244140625" lon="6.8433114700019359588623046875">
        <ele>733</ele>
        <time>2013-08-15T16:20:02.000Z</time>
        <extensions>
          <ns3:TrackPointExtension>
            <ns3:atemp>18.0</ns3:atemp>
            <ns3:hr>124</ns3:hr>
          </ns3:TrackPointExtension>
        </extensions>
      </trkpt>
      <trkpt lat="46.6585171222686767578125" lon="6.843296550214290618896484375">
        <ele>732.79998779296875</ele>
        <time>2013-08-15T16:20:03.000Z</time>
        <extensions>
          <ns3:TrackPointExtension>
            <ns3:atemp>18.0</ns3:atemp>
            <ns3:hr>124</ns3:hr>
          </ns3:TrackPointExtension>
        </extensions>
      </trkpt>
      <trkpt lat="46.6584991849958896636962890625" lon="6.84327735565602779388427734375">
        <ele>733</ele>
        <time>2013-08-15T16:20:04.000Z</time>
        <extensions>
          <ns3:TrackPointExtension>
            <ns3:atemp>18.0</ns3:atemp>
            <ns3:hr>124</ns3:hr>
          </ns3:TrackPointExtension>
        </extensions>
      </trkpt>
      <trkpt lat="46.65847890079021453857421875" lon="6.843250952661037445068359375">
        <ele>733</ele>
        <time>2013-08-15T16:20:05.000Z</time>
        <extensions>
          <ns3:TrackPointExtension>
            <ns3:atemp>18.0</ns3:atemp>
            <ns3:hr>124</ns3:hr>
          </ns3:TrackPointExtension>
        </extensions>
      </trkpt>
      <trkpt lat="46.6584656573832035064697265625" lon="6.84320929460227489471435546875">
        <ele>733.20001220703125</ele>
        <time>2013-08-15T16:20:06.000Z</time>
        <extensions>
          <ns3:TrackPointExtension>
            <ns3:atemp>18.0</ns3:atemp>
            <ns3:hr>124</ns3:hr>
          </ns3:TrackPointExtension>
        </extensions>
      </trkpt>
      <trkpt lat="46.6584472171962261199951171875" lon="6.84316202066838741302490234375">
        <ele>733.4000244140625</ele>
        <time>2013-08-15T16:20:07.000Z</time>
        <extensions>
          <ns3:TrackPointExtension>
            <ns3:atemp>18.0</ns3:atemp>
            <ns3:hr>124</ns3:hr>
          </ns3:TrackPointExtension>
        </extensions>
      </trkpt>
      <trkpt lat="46.65842031128704547882080078125" lon="6.843118183314800262451171875">
        <ele>733.4000244140625</ele>
        <time>2013-08-15T16:20:08.000Z</time>
        <extensions>
          <ns3:TrackPointExtension>
            <ns3:atemp>18.0</ns3:atemp>
            <ns3:hr>123</ns3:hr>
          </ns3:TrackPointExtension>
        </extensions>
      </trkpt>
      <trkpt lat="46.65839843451976776123046875" lon="6.8430804647505283355712890625">
        <ele>733.4000244140625</ele>
        <time>2013-08-15T16:20:09.000Z</time>
        <extensions>
          <ns3:TrackPointExtension>
            <ns3:atemp>18.0</ns3:atemp>
            <ns3:hr>124</ns3:hr>
          </ns3:TrackPointExtension>
        </extensions>
      </trkpt>
      <trkpt lat="46.6583644039928913116455078125" lon="6.84304366819560527801513671875">
        <ele>733.5999755859375</ele>
        <time>2013-08-15T16:20:10.000Z</time>
        <extensions>
          <ns3:TrackPointExtension>
            <ns3:atemp>18.0</ns3:atemp>
            <ns3:hr>124</ns3:hr>
          </ns3:TrackPointExtension>
        </extensions>
      </trkpt>
      <trkpt lat="46.65832492522895336151123046875" lon="6.84300896711647510528564453125">
        <ele>734</ele>
        <time>2013-08-15T16:20:11.000Z</time>
        <extensions>
          <ns3:TrackPointExtension>
            <ns3:atemp>18.0</ns3:atemp>
            <ns3:hr>125</ns3:hr>
          </ns3:TrackPointExtension>
        </extensions>
      </trkpt>
      <trkpt lat="46.65828150697052478790283203125" lon="6.8429758585989475250244140625">
        <ele>734.4000244140625</ele>
        <time>2013-08-15T16:20:12.000Z</time>
        <extensions>
          <ns3:TrackPointExtension>
            <ns3:atemp>18.0</ns3:atemp>
            <ns3:hr>125</ns3:hr>
          </ns3:TrackPointExtension>
        </extensions>
      </trkpt>
      <trkpt lat="46.65822987444698810577392578125" lon="6.84294979088008403778076171875">
        <ele>734</ele>
        <time>2013-08-15T16:20:13.000Z</time>
        <extensions>
          <ns3:TrackPointExtension>
            <ns3:atemp>18.0</ns3:atemp>
            <ns3:hr>125</ns3:hr>
          </ns3:TrackPointExtension>
        </extensions>
      </trkpt>
      <trkpt lat="46.65817136876285076141357421875" lon="6.84292565099895000457763671875">
        <ele>733.5999755859375</ele>
        <time>2013-08-15T16:20:14.000Z</time>
        <extensions>
          <ns3:TrackPointExtension>
            <ns3:atemp>18.0</ns3:atemp>
            <ns3:hr>126</ns3:hr>
          </ns3:TrackPointExtension>
        </extensions>
      </trkpt>
      <trkpt lat="46.6581094264984130859375" lon="6.842902936041355133056640625">
        <ele>733.20001220703125</ele>
        <time>2013-08-15T16:20:15.000Z</time>
        <extensions>
          <ns3:TrackPointExtension>
            <ns3:atemp>18.0</ns3:atemp>
            <ns3:hr>126</ns3:hr>
          </ns3:TrackPointExtension>
        </extensions>
      </trkpt>
      <trkpt lat="46.6580422036349773406982421875" lon="6.84287787415087223052978515625">
        <ele>732.79998779296875</ele>
        <time>2013-08-15T16:20:16.000Z</time>
        <extensions>
          <ns3:TrackPointExtension>
            <ns3:atemp>18.0</ns3:atemp>
            <ns3:hr>126</ns3:hr>
          </ns3:TrackPointExtension>
        </extensions>
      </trkpt>
      <trkpt lat="46.6579714603722095489501953125" lon="6.84285021387040615081787109375">
        <ele>732.20001220703125</ele>
        <time>2013-08-15T16:20:17.000Z</time>
        <extensions>
          <ns3:TrackPointExtension>
            <ns3:atemp>18.0</ns3:atemp>
            <ns3:hr>125</ns3:hr>
          </ns3:TrackPointExtension>
        </extensions>
      </trkpt>
      <trkpt lat="46.6578948497772216796875" lon="6.8428229726850986480712890625">
        <ele>731.4000244140625</ele>
        <time>2013-08-15T16:20:18.000Z</time>
        <extensions>
          <ns3:TrackPointExtension>
            <ns3:atemp>18.0</ns3:atemp>
            <ns3:hr>125</ns3:hr>
          </ns3:TrackPointExtension>
        </extensions>
      </trkpt>
      <trkpt lat="46.65782268159091472625732421875" lon="6.842793636023998260498046875">
        <ele>730.79998779296875</ele>
        <time>2013-08-15T16:20:19.000Z</time>
        <extensions>
          <ns3:TrackPointExtension>
            <ns3:atemp>18.0</ns3:atemp>
            <ns3:hr>125</ns3:hr>
          </ns3:TrackPointExtension>
        </extensions>
      </trkpt>
      <trkpt lat="46.65775931440293788909912109375" lon="6.842758767306804656982421875">
        <ele>730.20001220703125</ele>
        <time>2013-08-15T16:20:20.000Z</time>
        <extensions>
          <ns3:TrackPointExtension>
            <ns3:atemp>18.0</ns3:atemp>
            <ns3:hr>124</ns3:hr>
          </ns3:TrackPointExtension>
        </extensions>
      </trkpt>
      <trkpt lat="46.6577039100229740142822265625" lon="6.8427307717502117156982421875">
        <ele>729.5999755859375</ele>
        <time>2013-08-15T16:20:21.000Z</time>
        <extensions>
          <ns3:TrackPointExtension>
            <ns3:atemp>18.0</ns3:atemp>
            <ns3:hr>124</ns3:hr>
          </ns3:TrackPointExtension>
        </extensions>
      </trkpt>
      <trkpt lat="46.6576569713652133941650390625" lon="6.84271425940096378326416015625">
        <ele>729</ele>
        <time>2013-08-15T16:20:22.000Z</time>
        <extensions>
          <ns3:TrackPointExtension>
            <ns3:atemp>18.0</ns3:atemp>
            <ns3:hr>124</ns3:hr>
          </ns3:TrackPointExtension>
        </extensions>
      </trkpt>
      <trkpt lat="46.65761179290711879730224609375" lon="6.84270269237458705902099609375">
        <ele>728.4000244140625</ele>
        <time>2013-08-15T16:20:23.000Z</time>
        <extensions>
          <ns3:TrackPointExtension>
            <ns3:atemp>18.0</ns3:atemp>
            <ns3:hr>123</ns3:hr>
          </ns3:TrackPointExtension>
        </extensions>
      </trkpt>
      <trkpt lat="46.65756694972515106201171875" lon="6.84268777258694171905517578125">
        <ele>727.5999755859375</ele>
        <time>2013-08-15T16:20:24.000Z</time>
        <extensions>
          <ns3:TrackPointExtension>
            <ns3:atemp>18.0</ns3:atemp>
            <ns3:hr>123</ns3:hr>
          </ns3:TrackPointExtension>
        </extensions>
      </trkpt>
      <trkpt lat="46.65751934051513671875" lon="6.84267369098961353302001953125">
        <ele>727.4000244140625</ele>
        <time>2013-08-15T16:20:25.000Z</time>
        <extensions>
          <ns3:TrackPointExtension>
            <ns3:atemp>18.0</ns3:atemp>
            <ns3:hr>123</ns3:hr>
          </ns3:TrackPointExtension>
        </extensions>
      </trkpt>
      <trkpt lat="46.65746913291513919830322265625" lon="6.84265650808811187744140625">
        <ele>727.20001220703125</ele>
        <time>2013-08-15T16:20:26.000Z</time>
        <extensions>
          <ns3:TrackPointExtension>
            <ns3:atemp>18.0</ns3:atemp>
            <ns3:hr>122</ns3:hr>
          </ns3:TrackPointExtension>
        </extensions>
      </trkpt>
      <trkpt lat="46.65741632692515850067138671875" lon="6.84263329021632671356201171875">
        <ele>727</ele>
        <time>2013-08-15T16:20:27.000Z</time>
        <extensions>
          <ns3:TrackPointExtension>
            <ns3:atemp>18.0</ns3:atemp>
            <ns3:hr>122</ns3:hr>
          </ns3:TrackPointExtension>
        </extensions>
      </trkpt>
      <trkpt lat="46.65736444294452667236328125" lon="6.8426040373742580413818359375">
        <ele>726.79998779296875</ele>
        <time>2013-08-15T16:20:28.000Z</time>
        <extensions>
          <ns3:TrackPointExtension>
            <ns3:atemp>18.0</ns3:atemp>
            <ns3:hr>121</ns3:hr>
          </ns3:TrackPointExtension>
        </extensions>
      </trkpt>
      <trkpt lat="46.65731121785938739776611328125" lon="6.84257377870380878448486328125">
        <ele>726.20001220703125</ele>
        <time>2013-08-15T16:20:29.000Z</time>
        <extensions>
          <ns3:TrackPointExtension>
            <ns3:atemp>18.0</ns3:atemp>
            <ns3:hr>121</ns3:hr>
          </ns3:TrackPointExtension>
        </extensions>
      </trkpt>
      <trkpt lat="46.6572603397071361541748046875" lon="6.8425399996340274810791015625">
        <ele>726</ele>
        <time>2013-08-15T16:20:30.000Z</time>
        <extensions>
          <ns3:TrackPointExtension>
            <ns3:atemp>18.0</ns3:atemp>
            <ns3:hr>120</ns3:hr>
          </ns3:TrackPointExtension>
        </extensions>
      </trkpt>
      <trkpt lat="46.65720711462199687957763671875" lon="6.84249934740364551544189453125">
        <ele>725.79998779296875</ele>
        <time>2013-08-15T16:20:31.000Z</time>
        <extensions>
          <ns3:TrackPointExtension>
            <ns3:atemp>18.0</ns3:atemp>
            <ns3:hr>120</ns3:hr>
          </ns3:TrackPointExtension>
        </extensions>
      </trkpt>
      <trkpt lat="46.65714777074754238128662109375" lon="6.84245936572551727294921875">
        <ele>725.5999755859375</ele>
        <time>2013-08-15T16:20:32.000Z</time>
        <extensions>
          <ns3:TrackPointExtension>
            <ns3:atemp>18.0</ns3:atemp>
            <ns3:hr>119</ns3:hr>
          </ns3:TrackPointExtension>
        </extensions>
      </trkpt>
      <trkpt lat="46.65708607994019985198974609375" lon="6.842425167560577392578125">
        <ele>724.79998779296875</ele>
        <time>2013-08-15T16:20:33.000Z</time>
        <extensions>
          <ns3:TrackPointExtension>
            <ns3:atemp>18.0</ns3:atemp>
            <ns3:hr>119</ns3:hr>
          </ns3:TrackPointExtension>
        </extensions>
      </trkpt>
      <trkpt lat="46.657023131847381591796875" lon="6.84240094386041164398193359375">
        <ele>723.79998779296875</ele>
        <time>2013-08-15T16:20:34.000Z</time>
        <extensions>
          <ns3:TrackPointExtension>
            <ns3:atemp>18.0</ns3:atemp>
            <ns3:hr>118</ns3:hr>
          </ns3:TrackPointExtension>
        </extensions>
      </trkpt>
      <trkpt lat="46.656961776316165924072265625" lon="6.8423743732273578643798828125">
        <ele>723</ele>
        <time>2013-08-15T16:20:35.000Z</time>
        <extensions>
          <ns3:TrackPointExtension>
            <ns3:atemp>18.0</ns3:atemp>
            <ns3:hr>118</ns3:hr>
          </ns3:TrackPointExtension>
        </extensions>
      </trkpt>
      <trkpt lat="46.65690352208912372589111328125" lon="6.8423351459205150604248046875">
        <ele>722.4000244140625</ele>
        <time>2013-08-15T16:20:36.000Z</time>
        <extensions>
          <ns3:TrackPointExtension>
            <ns3:atemp>18.0</ns3:atemp>
            <ns3:hr>118</ns3:hr>
          </ns3:TrackPointExtension>
        </extensions>
      </trkpt>
      <trkpt lat="46.65684870444238185882568359375" lon="6.8422808311879634857177734375">
        <ele>721.79998779296875</ele>
        <time>2013-08-15T16:20:37.000Z</time>
        <extensions>
          <ns3:TrackPointExtension>
            <ns3:atemp>18.0</ns3:atemp>
            <ns3:hr>117</ns3:hr>
          </ns3:TrackPointExtension>
        </extensions>
      </trkpt>
      <trkpt lat="46.6567953117191791534423828125" lon="6.8422157876193523406982421875">
        <ele>721</ele>
        <time>2013-08-15T16:20:38.000Z</time>
        <extensions>
          <ns3:TrackPointExtension>
            <ns3:atemp>18.0</ns3:atemp>
            <ns3:hr>117</ns3:hr>
          </ns3:TrackPointExtension>
        </extensions>
      </trkpt>
      <trkpt lat="46.6567403264343738555908203125" lon="6.8421433679759502410888671875">
        <ele>720.5999755859375</ele>
        <time>2013-08-15T16:20:39.000Z</time>
        <extensions>
          <ns3:TrackPointExtension>
            <ns3:atemp>18.0</ns3:atemp>
            <ns3:hr>116</ns3:hr>
          </ns3:TrackPointExtension>
        </extensions>
      </trkpt>
      <trkpt lat="46.65668291039764881134033203125" lon="6.8420649133622646331787109375">
        <ele>720.20001220703125</ele>
        <time>2013-08-15T16:20:40.000Z</time>
        <extensions>
          <ns3:TrackPointExtension>
            <ns3:atemp>18.0</ns3:atemp>
            <ns3:hr>116</ns3:hr>
          </ns3:TrackPointExtension>
        </extensions>
      </trkpt>
      <trkpt lat="46.65662415325641632080078125" lon="6.84198134578764438629150390625">
        <ele>720</ele>
        <time>2013-08-15T16:20:41.000Z</time>
        <extensions>
          <ns3:TrackPointExtension>
            <ns3:atemp>18.0</ns3:atemp>
            <ns3:hr>116</ns3:hr>
          </ns3:TrackPointExtension>
        </extensions>
      </trkpt>
      <trkpt lat="46.65656975470483303070068359375" lon="6.84188914485275745391845703125">
        <ele>719.4000244140625</ele>
        <time>2013-08-15T16:20:42.000Z</time>
        <extensions>
          <ns3:TrackPointExtension>
            <ns3:atemp>18.0</ns3:atemp>
            <ns3:hr>117</ns3:hr>
          </ns3:TrackPointExtension>
        </extensions>
      </trkpt>
      <trkpt lat="46.65651627816259860992431640625" lon="6.84179778210818767547607421875">
        <ele>718.20001220703125</ele>
        <time>2013-08-15T16:20:43.000Z</time>
        <extensions>
          <ns3:TrackPointExtension>
            <ns3:atemp>18.0</ns3:atemp>
            <ns3:hr>117</ns3:hr>
          </ns3:TrackPointExtension>
        </extensions>
      </trkpt>
      <trkpt lat="46.6564585268497467041015625" lon="6.84170373715460300445556640625">
        <ele>717</ele>
        <time>2013-08-15T16:20:44.000Z</time>
        <extensions>
          <ns3:TrackPointExtension>
            <ns3:atemp>18.0</ns3:atemp>
            <ns3:hr>117</ns3:hr>
          </ns3:TrackPointExtension>
        </extensions>
      </trkpt>
      <trkpt lat="46.6563949920237064361572265625" lon="6.84160617180168628692626953125">
        <ele>715.79998779296875</ele>
        <time>2013-08-15T16:20:45.000Z</time>
        <extensions>
          <ns3:TrackPointExtension>
            <ns3:atemp>18.0</ns3:atemp>
            <ns3:hr>118</ns3:hr>
          </ns3:TrackPointExtension>
        </extensions>
      </trkpt>
      <trkpt lat="46.65633103810250759124755859375" lon="6.841511540114879608154296875">
        <ele>714.4000244140625</ele>
        <time>2013-08-15T16:20:46.000Z</time>
        <extensions>
          <ns3:TrackPointExtension>
            <ns3:atemp>18.0</ns3:atemp>
            <ns3:hr>117</ns3:hr>
          </ns3:TrackPointExtension>
        </extensions>
      </trkpt>
      <trkpt lat="46.65626733563840389251708984375" lon="6.84142143465578556060791015625">
        <ele>712.4000244140625</ele>
        <time>2013-08-15T16:20:47.000Z</time>
        <extensions>
          <ns3:TrackPointExtension>
            <ns3:atemp>18.0</ns3:atemp>
            <ns3:hr>117</ns3:hr>
          </ns3:TrackPointExtension>
        </extensions>
      </trkpt>
      <trkpt lat="46.65619910694658756256103515625" lon="6.84134247712790966033935546875">
        <ele>709.5999755859375</ele>
        <time>2013-08-15T16:20:48.000Z</time>
        <extensions>
          <ns3:TrackPointExtension>
            <ns3:atemp>18.0</ns3:atemp>
            <ns3:hr>116</ns3:hr>
          </ns3:TrackPointExtension>
        </extensions>
      </trkpt>
      <trkpt lat="46.6561224125325679779052734375" lon="6.84128480963408946990966796875">
        <ele>709.4000244140625</ele>
        <time>2013-08-15T16:20:49.000Z</time>
        <extensions>
          <ns3:TrackPointExtension>
            <ns3:atemp>18.0</ns3:atemp>
            <ns3:hr>116</ns3:hr>
          </ns3:TrackPointExtension>
        </extensions>
      </trkpt>
      <trkpt lat="46.6560352407395839691162109375" lon="6.841242648661136627197265625">
        <ele>708.79998779296875</ele>
        <time>2013-08-15T16:20:50.000Z</time>
        <extensions>
          <ns3:TrackPointExtension>
            <ns3:atemp>18.0</ns3:atemp>
            <ns3:hr>115</ns3:hr>
          </ns3:TrackPointExtension>
        </extensions>
      </trkpt>
      <trkpt lat="46.65594731457531452178955078125" lon="6.84122093953192234039306640625">
        <ele>708</ele>
        <time>2013-08-15T16:20:51.000Z</time>
        <extensions>
          <ns3:TrackPointExtension>
            <ns3:atemp>18.0</ns3:atemp>
            <ns3:hr>114</ns3:hr>
          </ns3:TrackPointExtension>
        </extensions>
      </trkpt>
      <trkpt lat="46.6558608971536159515380859375" lon="6.84121272526681423187255859375">
        <ele>707.4000244140625</ele>
        <time>2013-08-15T16:20:52.000Z</time>
        <extensions>
          <ns3:TrackPointExtension>
            <ns3:atemp>18.0</ns3:atemp>
            <ns3:hr>113</ns3:hr>
          </ns3:TrackPointExtension>
        </extensions>
      </trkpt>
      <trkpt lat="46.65578034706413745880126953125" lon="6.84121792204678058624267578125">
        <ele>707</ele>
        <time>2013-08-15T16:20:53.000Z</time>
        <extensions>
          <ns3:TrackPointExtension>
            <ns3:atemp>18.0</ns3:atemp>
            <ns3:hr>113</ns3:hr>
          </ns3:TrackPointExtension>
        </extensions>
      </trkpt>
      <trkpt lat="46.655705831944942474365234375" lon="6.84122622013092041015625">
        <ele>707</ele>
        <time>2013-08-15T16:20:54.000Z</time>
        <extensions>
          <ns3:TrackPointExtension>
            <ns3:atemp>18.0</ns3:atemp>
            <ns3:hr>113</ns3:hr>
          </ns3:TrackPointExtension>
        </extensions>
      </trkpt>
      <trkpt lat="46.65563802234828472137451171875" lon="6.841246001422405242919921875">
        <ele>706.5999755859375</ele>
        <time>2013-08-15T16:20:55.000Z</time>
        <extensions>
          <ns3:TrackPointExtension>
            <ns3:atemp>18.0</ns3:atemp>
            <ns3:hr>113</ns3:hr>
          </ns3:TrackPointExtension>
        </extensions>
      </trkpt>
      <trkpt lat="46.6555692069232463836669921875" lon="6.841262765228748321533203125">
        <ele>706.4000244140625</ele>
        <time>2013-08-15T16:20:56.000Z</time>
        <extensions>
          <ns3:TrackPointExtension>
            <ns3:atemp>18.0</ns3:atemp>
            <ns3:hr>113</ns3:hr>
          </ns3:TrackPointExtension>
        </extensions>
      </trkpt>
      <trkpt lat="46.6554957814514636993408203125" lon="6.8412793613970279693603515625">
        <ele>705.79998779296875</ele>
        <time>2013-08-15T16:20:57.000Z</time>
        <extensions>
          <ns3:TrackPointExtension>
            <ns3:atemp>18.0</ns3:atemp>
            <ns3:hr>113</ns3:hr>
          </ns3:TrackPointExtension>
        </extensions>
      </trkpt>
      <trkpt lat="46.6554133035242557525634765625" lon="6.84129050932824611663818359375">
        <ele>705.4000244140625</ele>
        <time>2013-08-15T16:20:58.000Z</time>
        <extensions>
          <ns3:TrackPointExtension>
            <ns3:atemp>18.0</ns3:atemp>
            <ns3:hr>113</ns3:hr>
          </ns3:TrackPointExtension>
        </extensions>
      </trkpt>
      <trkpt lat="46.65532722137868404388427734375" lon="6.8412971310317516326904296875">
        <ele>705.20001220703125</ele>
        <time>2013-08-15T16:20:59.000Z</time>
        <extensions>
          <ns3:TrackPointExtension>
            <ns3:atemp>18.0</ns3:atemp>
            <ns3:hr>113</ns3:hr>
          </ns3:TrackPointExtension>
        </extensions>
      </trkpt>
      <trkpt lat="46.65523585863411426544189453125" lon="6.84130375273525714874267578125">
        <ele>704.5999755859375</ele>
        <time>2013-08-15T16:21:00.000Z</time>
        <extensions>
          <ns3:TrackPointExtension>
            <ns3:atemp>18.0</ns3:atemp>
            <ns3:hr>112</ns3:hr>
          </ns3:TrackPointExtension>
        </extensions>
      </trkpt>
      <trkpt lat="46.65514298714697360992431640625" lon="6.84130945242941379547119140625">
        <ele>703.79998779296875</ele>
        <time>2013-08-15T16:21:01.000Z</time>
        <extensions>
          <ns3:TrackPointExtension>
            <ns3:atemp>18.0</ns3:atemp>
            <ns3:hr>112</ns3:hr>
          </ns3:TrackPointExtension>
        </extensions>
      </trkpt>
      <trkpt lat="46.65505112148821353912353515625" lon="6.84131674468517303466796875">
        <ele>702.79998779296875</ele>
        <time>2013-08-15T16:21:02.000Z</time>
        <extensions>
          <ns3:TrackPointExtension>
            <ns3:atemp>18.0</ns3:atemp>
            <ns3:hr>111</ns3:hr>
          </ns3:TrackPointExtension>
        </extensions>
      </trkpt>
      <trkpt lat="46.65495892055332660675048828125" lon="6.8413008190691471099853515625">
        <ele>702.79998779296875</ele>
        <time>2013-08-15T16:21:03.000Z</time>
        <extensions>
          <ns3:TrackPointExtension>
            <ns3:atemp>18.0</ns3:atemp>
            <ns3:hr>111</ns3:hr>
          </ns3:TrackPointExtension>
        </extensions>
      </trkpt>
      <trkpt lat="46.6548704914748668670654296875" lon="6.84126888401806354522705078125">
        <ele>702.20001220703125</ele>
        <time>2013-08-15T16:21:04.000Z</time>
        <extensions>
          <ns3:TrackPointExtension>
            <ns3:atemp>18.0</ns3:atemp>
            <ns3:hr>111</ns3:hr>
          </ns3:TrackPointExtension>
        </extensions>
      </trkpt>
      <trkpt lat="46.65478223003447055816650390625" lon="6.84124072082340717315673828125">
        <ele>701.79998779296875</ele>
        <time>2013-08-15T16:21:05.000Z</time>
        <extensions>
          <ns3:TrackPointExtension>
            <ns3:atemp>18.0</ns3:atemp>
            <ns3:hr>111</ns3:hr>
          </ns3:TrackPointExtension>
        </extensions>
      </trkpt>
      <trkpt lat="46.6546901129186153411865234375" lon="6.84122730977833271026611328125">
        <ele>700.5999755859375</ele>
        <time>2013-08-15T16:21:06.000Z</time>
        <extensions>
          <ns3:TrackPointExtension>
            <ns3:atemp>18.0</ns3:atemp>
            <ns3:hr>110</ns3:hr>
          </ns3:TrackPointExtension>
        </extensions>
      </trkpt>
      <trkpt lat="46.65459179319441318511962890625" lon="6.8412176705896854400634765625">
        <ele>700</ele>
        <time>2013-08-15T16:21:07.000Z</time>
        <extensions>
          <ns3:TrackPointExtension>
            <ns3:atemp>18.0</ns3:atemp>
            <ns3:hr>110</ns3:hr>
          </ns3:TrackPointExtension>
        </extensions>
      </trkpt>
      <trkpt lat="46.65448869578540325164794921875" lon="6.84121456928551197052001953125">
        <ele>699.20001220703125</ele>
        <time>2013-08-15T16:21:08.000Z</time>
        <extensions>
          <ns3:TrackPointExtension>
            <ns3:atemp>18.0</ns3:atemp>
            <ns3:hr>109</ns3:hr>
          </ns3:TrackPointExtension>
        </extensions>
      </trkpt>
      <trkpt lat="46.654379479587078094482421875" lon="6.84120920486748218536376953125">
        <ele>698.20001220703125</ele>
        <time>2013-08-15T16:21:09.000Z</time>
        <extensions>
          <ns3:TrackPointExtension>
            <ns3:atemp>18.0</ns3:atemp>
            <ns3:hr>109</ns3:hr>
          </ns3:TrackPointExtension>
        </extensions>
      </trkpt>
      <trkpt lat="46.65426657535135746002197265625" lon="6.84120954014360904693603515625">
        <ele>696.79998779296875</ele>
        <time>2013-08-15T16:21:10.000Z</time>
        <extensions>
          <ns3:TrackPointExtension>
            <ns3:atemp>18.0</ns3:atemp>
            <ns3:hr>109</ns3:hr>
          </ns3:TrackPointExtension>
        </extensions>
      </trkpt>
      <trkpt lat="46.6541530005633831024169921875" lon="6.84120970778167247772216796875">
        <ele>695.4000244140625</ele>
        <time>2013-08-15T16:21:11.000Z</time>
        <extensions>
          <ns3:TrackPointExtension>
            <ns3:atemp>18.0</ns3:atemp>
            <ns3:hr>109</ns3:hr>
          </ns3:TrackPointExtension>
        </extensions>
      </trkpt>
      <trkpt lat="46.65404328145086765289306640625" lon="6.84120434336364269256591796875">
        <ele>693.5999755859375</ele>
        <time>2013-08-15T16:21:12.000Z</time>
        <extensions>
          <ns3:TrackPointExtension>
            <ns3:atemp>18.0</ns3:atemp>
            <ns3:hr>109</ns3:hr>
          </ns3:TrackPointExtension>
        </extensions>
      </trkpt>
      <trkpt lat="46.6539451293647289276123046875" lon="6.8411978892982006072998046875">
        <ele>692.79998779296875</ele>
        <time>2013-08-15T16:21:13.000Z</time>
        <extensions>
          <ns3:TrackPointExtension>
            <ns3:atemp>18.0</ns3:atemp>
            <ns3:hr>109</ns3:hr>
          </ns3:TrackPointExtension>
        </extensions>
      </trkpt>
      <trkpt lat="46.65386910550296306610107421875" lon="6.8411854840815067291259765625">
        <ele>691.4000244140625</ele>
        <time>2013-08-15T16:21:14.000Z</time>
        <extensions>
          <ns3:TrackPointExtension>
            <ns3:atemp>18.0</ns3:atemp>
            <ns3:hr>109</ns3:hr>
          </ns3:TrackPointExtension>
        </extensions>
      </trkpt>
      <trkpt lat="46.65380917489528656005859375" lon="6.84117316268384456634521484375">
        <ele>690</ele>
        <time>2013-08-15T16:21:15.000Z</time>
        <extensions>
          <ns3:TrackPointExtension>
            <ns3:atemp>18.0</ns3:atemp>
            <ns3:hr>109</ns3:hr>
          </ns3:TrackPointExtension>
        </extensions>
      </trkpt>
      <trkpt lat="46.65376064367592334747314453125" lon="6.84117701835930347442626953125">
        <ele>688.5999755859375</ele>
        <time>2013-08-15T16:21:16.000Z</time>
        <extensions>
          <ns3:TrackPointExtension>
            <ns3:atemp>18.0</ns3:atemp>
            <ns3:hr>109</ns3:hr>
          </ns3:TrackPointExtension>
        </extensions>
      </trkpt>
      <trkpt lat="46.65372057817876338958740234375" lon="6.8412056006491184234619140625">
        <ele>687.79998779296875</ele>
        <time>2013-08-15T16:21:17.000Z</time>
        <extensions>
          <ns3:TrackPointExtension>
            <ns3:atemp>18.0</ns3:atemp>
            <ns3:hr>109</ns3:hr>
          </ns3:TrackPointExtension>
        </extensions>
      </trkpt>
      <trkpt lat="46.65369920432567596435546875" lon="6.841260753571987152099609375">
        <ele>687.20001220703125</ele>
        <time>2013-08-15T16:21:18.000Z</time>
        <extensions>
          <ns3:TrackPointExtension>
            <ns3:atemp>18.0</ns3:atemp>
            <ns3:hr>109</ns3:hr>
          </ns3:TrackPointExtension>
        </extensions>
      </trkpt>
      <trkpt lat="46.65369543246924877166748046875" lon="6.8413326703011989593505859375">
        <ele>687.20001220703125</ele>
        <time>2013-08-15T16:21:19.000Z</time>
        <extensions>
          <ns3:TrackPointExtension>
            <ns3:atemp>18.0</ns3:atemp>
            <ns3:hr>108</ns3:hr>
          </ns3:TrackPointExtension>
        </extensions>
      </trkpt>
      <trkpt lat="46.65370448492467403411865234375" lon="6.84141472913324832916259765625">
        <ele>687.4000244140625</ele>
        <time>2013-08-15T16:21:20.000Z</time>
        <extensions>
          <ns3:TrackPointExtension>
            <ns3:atemp>18.0</ns3:atemp>
            <ns3:hr>108</ns3:hr>
          </ns3:TrackPointExtension>
        </extensions>
      </trkpt>
      <trkpt lat="46.65371722541749477386474609375" lon="6.84151128865778446197509765625">
        <ele>687.5999755859375</ele>
        <time>2013-08-15T16:21:21.000Z</time>
        <extensions>
          <ns3:TrackPointExtension>
            <ns3:atemp>18.0</ns3:atemp>
            <ns3:hr>109</ns3:hr>
          </ns3:TrackPointExtension>
        </extensions>
      </trkpt>
      <trkpt lat="46.6537292115390300750732421875" lon="6.8416119553148746490478515625">
        <ele>687.79998779296875</ele>
        <time>2013-08-15T16:21:22.000Z</time>
        <extensions>
          <ns3:TrackPointExtension>
            <ns3:atemp>18.0</ns3:atemp>
            <ns3:hr>109</ns3:hr>
          </ns3:TrackPointExtension>
        </extensions>
      </trkpt>
      <trkpt lat="46.65373750962316989898681640625" lon="6.841721422970294952392578125">
        <ele>687.79998779296875</ele>
        <time>2013-08-15T16:21:23.000Z</time>
        <extensions>
          <ns3:TrackPointExtension>
            <ns3:atemp>18.0</ns3:atemp>
            <ns3:hr>110</ns3:hr>
          </ns3:TrackPointExtension>
        </extensions>
      </trkpt>
      <trkpt lat="46.65374488569796085357666015625" lon="6.84183516539633274078369140625">
        <ele>688</ele>
        <time>2013-08-15T16:21:24.000Z</time>
        <extensions>
          <ns3:TrackPointExtension>
            <ns3:atemp>18.0</ns3:atemp>
            <ns3:hr>111</ns3:hr>
          </ns3:TrackPointExtension>
        </extensions>
      </trkpt>
      <trkpt lat="46.65375393815338611602783203125" lon="6.84194982983171939849853515625">
        <ele>688</ele>
        <time>2013-08-15T16:21:25.000Z</time>
        <extensions>
          <ns3:TrackPointExtension>
            <ns3:atemp>18.0</ns3:atemp>
            <ns3:hr>112</ns3:hr>
          </ns3:TrackPointExtension>
        </extensions>
      </trkpt>
      <trkpt lat="46.65376349352300167083740234375" lon="6.8420662544667720794677734375">
        <ele>687.79998779296875</ele>
        <time>2013-08-15T16:21:26.000Z</time>
        <extensions>
          <ns3:TrackPointExtension>
            <ns3:atemp>18.0</ns3:atemp>
            <ns3:hr>113</ns3:hr>
          </ns3:TrackPointExtension>
        </extensions>
      </trkpt>
      <trkpt lat="46.6537731327116489410400390625" lon="6.84218452312052249908447265625">
        <ele>687.20001220703125</ele>
        <time>2013-08-15T16:21:27.000Z</time>
        <extensions>
          <ns3:TrackPointExtension>
            <ns3:atemp>18.0</ns3:atemp>
            <ns3:hr>114</ns3:hr>
          </ns3:TrackPointExtension>
        </extensions>
      </trkpt>
      <trkpt lat="46.653783358633518218994140625" lon="6.842302121222019195556640625">
        <ele>686.79998779296875</ele>
        <time>2013-08-15T16:21:28.000Z</time>
        <extensions>
          <ns3:TrackPointExtension>
            <ns3:atemp>18.0</ns3:atemp>
            <ns3:hr>114</ns3:hr>
          </ns3:TrackPointExtension>
        </extensions>
      </trkpt>
      <trkpt lat="46.65379450656473636627197265625" lon="6.84242038987576961517333984375">
        <ele>686.5999755859375</ele>
        <time>2013-08-15T16:21:29.000Z</time>
        <extensions>
          <ns3:TrackPointExtension>
            <ns3:atemp>18.0</ns3:atemp>
            <ns3:hr>115</ns3:hr>
          </ns3:TrackPointExtension>
        </extensions>
      </trkpt>
      <trkpt lat="46.65380557067692279815673828125" lon="6.84253823943436145782470703125">
        <ele>686.4000244140625</ele>
        <time>2013-08-15T16:21:30.000Z</time>
        <extensions>
          <ns3:TrackPointExtension>
            <ns3:atemp>18.0</ns3:atemp>
            <ns3:hr>115</ns3:hr>
          </ns3:TrackPointExtension>
        </extensions>
      </trkpt>
      <trkpt lat="46.65382082574069499969482421875" lon="6.84265273623168468475341796875">
        <ele>686.20001220703125</ele>
        <time>2013-08-15T16:21:31.000Z</time>
        <extensions>
          <ns3:TrackPointExtension>
            <ns3:atemp>18.0</ns3:atemp>
            <ns3:hr>116</ns3:hr>
          </ns3:TrackPointExtension>
        </extensions>
      </trkpt>
      <trkpt lat="46.653841026127338409423828125" lon="6.84276371262967586517333984375">
        <ele>686</ele>
        <time>2013-08-15T16:21:32.000Z</time>
        <extensions>
          <ns3:TrackPointExtension>
            <ns3:atemp>18.0</ns3:atemp>
            <ns3:hr>116</ns3:hr>
          </ns3:TrackPointExtension>
        </extensions>
      </trkpt>
      <trkpt lat="46.6538670100271701812744140625" lon="6.842873431742191314697265625">
        <ele>685.79998779296875</ele>
        <time>2013-08-15T16:21:33.000Z</time>
        <extensions>
          <ns3:TrackPointExtension>
            <ns3:atemp>18.0</ns3:atemp>
            <ns3:hr>116</ns3:hr>
          </ns3:TrackPointExtension>
        </extensions>
      </trkpt>
      <trkpt lat="46.65389810688793659210205078125" lon="6.8429782055318355560302734375">
        <ele>685.5999755859375</ele>
        <time>2013-08-15T16:21:34.000Z</time>
        <extensions>
          <ns3:TrackPointExtension>
            <ns3:atemp>18.0</ns3:atemp>
            <ns3:hr>117</ns3:hr>
          </ns3:TrackPointExtension>
        </extensions>
      </trkpt>
      <trkpt lat="46.65393347851932048797607421875" lon="6.84307937510311603546142578125">
        <ele>685.5999755859375</ele>
        <time>2013-08-15T16:21:35.000Z</time>
        <extensions>
          <ns3:TrackPointExtension>
            <ns3:atemp>18.0</ns3:atemp>
            <ns3:hr>117</ns3:hr>
          </ns3:TrackPointExtension>
        </extensions>
      </trkpt>
      <trkpt lat="46.65397354401648044586181640625" lon="6.84317643754184246063232421875">
        <ele>685.79998779296875</ele>
        <time>2013-08-15T16:21:36.000Z</time>
        <extensions>
          <ns3:TrackPointExtension>
            <ns3:atemp>18.0</ns3:atemp>
            <ns3:hr>118</ns3:hr>
          </ns3:TrackPointExtension>
        </extensions>
      </trkpt>
      <trkpt lat="46.6540150344371795654296875" lon="6.8432715721428394317626953125">
        <ele>685.5999755859375</ele>
        <time>2013-08-15T16:21:37.000Z</time>
        <extensions>
          <ns3:TrackPointExtension>
            <ns3:atemp>18.0</ns3:atemp>
            <ns3:hr>118</ns3:hr>
          </ns3:TrackPointExtension>
        </extensions>
      </trkpt>
      <trkpt lat="46.65405862033367156982421875" lon="6.8433627672493457794189453125">
        <ele>685.5999755859375</ele>
        <time>2013-08-15T16:21:38.000Z</time>
        <extensions>
          <ns3:TrackPointExtension>
            <ns3:atemp>18.0</ns3:atemp>
            <ns3:hr>119</ns3:hr>
          </ns3:TrackPointExtension>
        </extensions>
      </trkpt>
      <trkpt lat="46.65410547517240047454833984375" lon="6.8434484302997589111328125">
        <ele>685.5999755859375</ele>
        <time>2013-08-15T16:21:39.000Z</time>
        <extensions>
          <ns3:TrackPointExtension>
            <ns3:atemp>18.0</ns3:atemp>
            <ns3:hr>119</ns3:hr>
          </ns3:TrackPointExtension>
        </extensions>
      </trkpt>
      <trkpt lat="46.6541540063917636871337890625" lon="6.84352780692279338836669921875">
        <ele>685.4000244140625</ele>
        <time>2013-08-15T16:21:40.000Z</time>
        <extensions>
          <ns3:TrackPointExtension>
            <ns3:atemp>18.0</ns3:atemp>
            <ns3:hr>120</ns3:hr>
          </ns3:TrackPointExtension>
        </extensions>
      </trkpt>
      <trkpt lat="46.654205806553363800048828125" lon="6.84360307641327381134033203125">
        <ele>685</ele>
        <time>2013-08-15T16:21:41.000Z</time>
        <extensions>
          <ns3:TrackPointExtension>
            <ns3:atemp>18.0</ns3:atemp>
            <ns3:hr>120</ns3:hr>
          </ns3:TrackPointExtension>
        </extensions>
      </trkpt>
      <trkpt lat="46.654261462390422821044921875" lon="6.84367264620959758758544921875">
        <ele>684.79998779296875</ele>
        <time>2013-08-15T16:21:42.000Z</time>
        <extensions>
          <ns3:TrackPointExtension>
            <ns3:atemp>18.0</ns3:atemp>
            <ns3:hr>120</ns3:hr>
          </ns3:TrackPointExtension>
        </extensions>
      </trkpt>
      <trkpt lat="46.654319800436496734619140625" lon="6.84373752214014530181884765625">
        <ele>684.5999755859375</ele>
        <time>2013-08-15T16:21:43.000Z</time>
        <extensions>
          <ns3:TrackPointExtension>
            <ns3:atemp>18.0</ns3:atemp>
            <ns3:hr>121</ns3:hr>
          </ns3:TrackPointExtension>
        </extensions>
      </trkpt>
      <trkpt lat="46.65438241325318813323974609375" lon="6.84379954822361469268798828125">
        <ele>684.79998779296875</ele>
        <time>2013-08-15T16:21:44.000Z</time>
        <extensions>
          <ns3:TrackPointExtension>
            <ns3:atemp>18.0</ns3:atemp>
            <ns3:hr>121</ns3:hr>
          </ns3:TrackPointExtension>
        </extensions>
      </trkpt>
      <trkpt lat="46.65444594807922840118408203125" lon="6.8438616581261157989501953125">
        <ele>684.79998779296875</ele>
        <time>2013-08-15T16:21:45.000Z</time>
        <extensions>
          <ns3:TrackPointExtension>
            <ns3:atemp>18.0</ns3:atemp>
            <ns3:hr>121</ns3:hr>
          </ns3:TrackPointExtension>
        </extensions>
      </trkpt>
      <trkpt lat="46.65450965054333209991455078125" lon="6.843922175467014312744140625">
        <ele>684.79998779296875</ele>
        <time>2013-08-15T16:21:46.000Z</time>
        <extensions>
          <ns3:TrackPointExtension>
            <ns3:atemp>18.0</ns3:atemp>
            <ns3:hr>122</ns3:hr>
          </ns3:TrackPointExtension>
        </extensions>
      </trkpt>
      <trkpt lat="46.65457452647387981414794921875" lon="6.8439816869795322418212890625">
        <ele>684.4000244140625</ele>
        <time>2013-08-15T16:21:47.000Z</time>
        <extensions>
          <ns3:TrackPointExtension>
            <ns3:atemp>18.0</ns3:atemp>
            <ns3:hr>122</ns3:hr>
          </ns3:TrackPointExtension>
        </extensions>
      </trkpt>
      <trkpt lat="46.65463931858539581298828125" lon="6.8440396897494792938232421875">
        <ele>684.20001220703125</ele>
        <time>2013-08-15T16:21:48.000Z</time>
        <extensions>
          <ns3:TrackPointExtension>
            <ns3:atemp>18.0</ns3:atemp>
            <ns3:hr>123</ns3:hr>
          </ns3:TrackPointExtension>
        </extensions>
      </trkpt>
      <trkpt lat="46.65470377542078495025634765625" lon="6.84409710578620433807373046875">
        <ele>683.79998779296875</ele>
        <time>2013-08-15T16:21:49.000Z</time>
        <extensions>
          <ns3:TrackPointExtension>
            <ns3:atemp>18.0</ns3:atemp>
            <ns3:hr>123</ns3:hr>
          </ns3:TrackPointExtension>
        </extensions>
      </trkpt>
      <trkpt lat="46.65476814843714237213134765625" lon="6.84415494091808795928955078125">
        <ele>683.5999755859375</ele>
        <time>2013-08-15T16:21:50.000Z</time>
        <extensions>
          <ns3:TrackPointExtension>
            <ns3:atemp>18.0</ns3:atemp>
            <ns3:hr>123</ns3:hr>
          </ns3:TrackPointExtension>
        </extensions>
      </trkpt>
      <trkpt lat="46.654832772910594940185546875" lon="6.84421487152576446533203125">
        <ele>683.4000244140625</ele>
        <time>2013-08-15T16:21:51.000Z</time>
        <extensions>
          <ns3:TrackPointExtension>
            <ns3:atemp>18.0</ns3:atemp>
            <ns3:hr>124</ns3:hr>
          </ns3:TrackPointExtension>
        </extensions>
      </trkpt>
      <trkpt lat="46.65489639155566692352294921875" lon="6.84427731670439243316650390625">
        <ele>683.20001220703125</ele>
        <time>2013-08-15T16:21:52.000Z</time>
        <extensions>
          <ns3:TrackPointExtension>
            <ns3:atemp>18.0</ns3:atemp>
            <ns3:hr>124</ns3:hr>
          </ns3:TrackPointExtension>
        </extensions>
      </trkpt>
      <trkpt lat="46.65495808236300945281982421875" lon="6.8443397618830204010009765625">
        <ele>683.5999755859375</ele>
        <time>2013-08-15T16:21:53.000Z</time>
        <extensions>
          <ns3:TrackPointExtension>
            <ns3:atemp>18.0</ns3:atemp>
            <ns3:hr>124</ns3:hr>
          </ns3:TrackPointExtension>
        </extensions>
      </trkpt>
      <trkpt lat="46.65501725859940052032470703125" lon="6.84440321289002895355224609375">
        <ele>683.4000244140625</ele>
        <time>2013-08-15T16:21:54.000Z</time>
        <extensions>
          <ns3:TrackPointExtension>
            <ns3:atemp>18.0</ns3:atemp>
            <ns3:hr>125</ns3:hr>
          </ns3:TrackPointExtension>
        </extensions>
      </trkpt>
      <trkpt lat="46.6550736688077449798583984375" lon="6.84446708299219608306884765625">
        <ele>683.79998779296875</ele>
        <time>2013-08-15T16:21:55.000Z</time>
        <extensions>
          <ns3:TrackPointExtension>
            <ns3:atemp>18.0</ns3:atemp>
            <ns3:hr>125</ns3:hr>
          </ns3:TrackPointExtension>
        </extensions>
      </trkpt>
      <trkpt lat="46.6551263071596622467041015625" lon="6.84453061781823635101318359375">
        <ele>683.79998779296875</ele>
        <time>2013-08-15T16:21:56.000Z</time>
        <extensions>
          <ns3:TrackPointExtension>
            <ns3:atemp>18.0</ns3:atemp>
            <ns3:hr>125</ns3:hr>
          </ns3:TrackPointExtension>
        </extensions>
      </trkpt>
      <trkpt lat="46.655174084007740020751953125" lon="6.8445892073214054107666015625">
        <ele>683.5999755859375</ele>
        <time>2013-08-15T16:21:57.000Z</time>
        <extensions>
          <ns3:TrackPointExtension>
            <ns3:atemp>18.0</ns3:atemp>
            <ns3:hr>125</ns3:hr>
          </ns3:TrackPointExtension>
        </extensions>
      </trkpt>
      <trkpt lat="46.655215322971343994140625" lon="6.8446408398449420928955078125">
        <ele>683</ele>
        <time>2013-08-15T16:21:58.000Z</time>
        <extensions>
          <ns3:TrackPointExtension>
            <ns3:atemp>18.0</ns3:atemp>
            <ns3:hr>124</ns3:hr>
          </ns3:TrackPointExtension>
        </extensions>
      </trkpt>
      <trkpt lat="46.65524893440306186676025390625" lon="6.84468333609402179718017578125">
        <ele>682.4000244140625</ele>
        <time>2013-08-15T16:21:59.000Z</time>
        <extensions>
          <ns3:TrackPointExtension>
            <ns3:atemp>18.0</ns3:atemp>
            <ns3:hr>123</ns3:hr>
          </ns3:TrackPointExtension>
        </extensions>
      </trkpt>
      <trkpt lat="46.65527190081775188446044921875" lon="6.84471602551639080047607421875">
        <ele>681.20001220703125</ele>
        <time>2013-08-15T16:22:00.000Z</time>
        <extensions>
          <ns3:TrackPointExtension>
            <ns3:atemp>18.0</ns3:atemp>
            <ns3:hr>122</ns3:hr>
          </ns3:TrackPointExtension>
        </extensions>
      </trkpt>
      <trkpt lat="46.6552885808050632476806640625" lon="6.84473832137882709503173828125">
        <ele>680.5999755859375</ele>
        <time>2013-08-15T16:22:01.000Z</time>
        <extensions>
          <ns3:TrackPointExtension>
            <ns3:atemp>18.0</ns3:atemp>
            <ns3:hr>122</ns3:hr>
          </ns3:TrackPointExtension>
        </extensions>
      </trkpt>
      <trkpt lat="46.65530190803110599517822265625" lon="6.8447548337280750274658203125">
        <ele>680.5999755859375</ele>
        <time>2013-08-15T16:22:02.000Z</time>
        <extensions>
          <ns3:TrackPointExtension>
            <ns3:atemp>18.0</ns3:atemp>
            <ns3:hr>121</ns3:hr>
          </ns3:TrackPointExtension>
        </extensions>
      </trkpt>
      <trkpt lat="46.65530039928853511810302734375" lon="6.84475290589034557342529296875">
        <ele>680.20001220703125</ele>
        <time>2013-08-15T16:22:03.000Z</time>
        <extensions>
          <ns3:TrackPointExtension>
            <ns3:atemp>18.0</ns3:atemp>
            <ns3:hr>120</ns3:hr>
          </ns3:TrackPointExtension>
        </extensions>
      </trkpt>
      <trkpt lat="46.65531096048653125762939453125" lon="6.84475793503224849700927734375">
        <ele>680.20001220703125</ele>
        <time>2013-08-15T16:22:04.000Z</time>
        <extensions>
          <ns3:TrackPointExtension>
            <ns3:atemp>18.0</ns3:atemp>
            <ns3:hr>120</ns3:hr>
          </ns3:TrackPointExtension>
        </extensions>
      </trkpt>
      <trkpt lat="46.65531096048653125762939453125" lon="6.84475793503224849700927734375">
        <ele>680.20001220703125</ele>
        <time>2013-08-15T16:22:05.000Z</time>
        <extensions>
          <ns3:TrackPointExtension>
            <ns3:atemp>18.0</ns3:atemp>
            <ns3:hr>120</ns3:hr>
          </ns3:TrackPointExtension>
        </extensions>
      </trkpt>
      <trkpt lat="46.65531096048653125762939453125" lon="6.84475793503224849700927734375">
        <ele>680.20001220703125</ele>
        <time>2013-08-15T16:22:06.000Z</time>
        <extensions>
          <ns3:TrackPointExtension>
            <ns3:atemp>18.0</ns3:atemp>
            <ns3:hr>120</ns3:hr>
          </ns3:TrackPointExtension>
        </extensions>
      </trkpt>
      <trkpt lat="46.65531330741941928863525390625" lon="6.8447612039744853973388671875">
        <ele>680.5999755859375</ele>
        <time>2013-08-15T16:22:07.000Z</time>
        <extensions>
          <ns3:TrackPointExtension>
            <ns3:atemp>18.0</ns3:atemp>
            <ns3:hr>120</ns3:hr>
          </ns3:TrackPointExtension>
        </extensions>
      </trkpt>
      <trkpt lat="46.65531330741941928863525390625" lon="6.8447612039744853973388671875">
        <ele>680.5999755859375</ele>
        <time>2013-08-15T16:22:08.000Z</time>
        <extensions>
          <ns3:TrackPointExtension>
            <ns3:atemp>18.0</ns3:atemp>
            <ns3:hr>120</ns3:hr>
          </ns3:TrackPointExtension>
        </extensions>
      </trkpt>
      <trkpt lat="46.65531330741941928863525390625" lon="6.8447612039744853973388671875">
        <ele>680.4000244140625</ele>
        <time>2013-08-15T16:22:09.000Z</time>
        <extensions>
          <ns3:TrackPointExtension>
            <ns3:atemp>18.0</ns3:atemp>
            <ns3:hr>120</ns3:hr>
          </ns3:TrackPointExtension>
        </extensions>
      </trkpt>
      <trkpt lat="46.65531330741941928863525390625" lon="6.8447612039744853973388671875">
        <ele>680.20001220703125</ele>
        <time>2013-08-15T16:22:10.000Z</time>
        <extensions>
          <ns3:TrackPointExtension>
            <ns3:atemp>18.0</ns3:atemp>
            <ns3:hr>120</ns3:hr>
          </ns3:TrackPointExtension>
        </extensions>
      </trkpt>
      <trkpt lat="46.65531330741941928863525390625" lon="6.8447612039744853973388671875">
        <ele>680</ele>
        <time>2013-08-15T16:22:11.000Z</time>
        <extensions>
          <ns3:TrackPointExtension>
            <ns3:atemp>18.0</ns3:atemp>
            <ns3:hr>121</ns3:hr>
          </ns3:TrackPointExtension>
        </extensions>
      </trkpt>
      <trkpt lat="46.65531330741941928863525390625" lon="6.8447612039744853973388671875">
        <ele>680.20001220703125</ele>
        <time>2013-08-15T16:22:12.000Z</time>
        <extensions>
          <ns3:TrackPointExtension>
            <ns3:atemp>18.0</ns3:atemp>
            <ns3:hr>121</ns3:hr>
          </ns3:TrackPointExtension>
        </extensions>
      </trkpt>
      <trkpt lat="46.65531330741941928863525390625" lon="6.8447612039744853973388671875">
        <ele>680.20001220703125</ele>
        <time>2013-08-15T16:22:13.000Z</time>
        <extensions>
          <ns3:TrackPointExtension>
            <ns3:atemp>18.0</ns3:atemp>
            <ns3:hr>120</ns3:hr>
          </ns3:TrackPointExtension>
        </extensions>
      </trkpt>
      <trkpt lat="46.65531330741941928863525390625" lon="6.8447612039744853973388671875">
        <ele>680.20001220703125</ele>
        <time>2013-08-15T16:22:14.000Z</time>
        <extensions>
          <ns3:TrackPointExtension>
            <ns3:atemp>18.0</ns3:atemp>
            <ns3:hr>121</ns3:hr>
          </ns3:TrackPointExtension>
        </extensions>
      </trkpt>
      <trkpt lat="46.65531330741941928863525390625" lon="6.8447612039744853973388671875">
        <ele>680.20001220703125</ele>
        <time>2013-08-15T16:22:15.000Z</time>
        <extensions>
          <ns3:TrackPointExtension>
            <ns3:atemp>18.0</ns3:atemp>
            <ns3:hr>120</ns3:hr>
          </ns3:TrackPointExtension>
        </extensions>
      </trkpt>
      <trkpt lat="46.65531330741941928863525390625" lon="6.8447612039744853973388671875">
        <ele>680.20001220703125</ele>
        <time>2013-08-15T16:22:16.000Z</time>
        <extensions>
          <ns3:TrackPointExtension>
            <ns3:atemp>18.0</ns3:atemp>
            <ns3:hr>120</ns3:hr>
          </ns3:TrackPointExtension>
        </extensions>
      </trkpt>
      <trkpt lat="46.65531330741941928863525390625" lon="6.8447612039744853973388671875">
        <ele>680.20001220703125</ele>
        <time>2013-08-15T16:22:17.000Z</time>
        <extensions>
          <ns3:TrackPointExtension>
            <ns3:atemp>18.0</ns3:atemp>
            <ns3:hr>121</ns3:hr>
          </ns3:TrackPointExtension>
        </extensions>
      </trkpt>
      <trkpt lat="46.65531414560973644256591796875" lon="6.84476279653608798980712890625">
        <ele>680.20001220703125</ele>
        <time>2013-08-15T16:22:18.000Z</time>
        <extensions>
          <ns3:TrackPointExtension>
            <ns3:atemp>18.0</ns3:atemp>
            <ns3:hr>121</ns3:hr>
          </ns3:TrackPointExtension>
        </extensions>
      </trkpt>
      <trkpt lat="46.6553221084177494049072265625" lon="6.844780482351779937744140625">
        <ele>680.20001220703125</ele>
        <time>2013-08-15T16:22:19.000Z</time>
        <extensions>
          <ns3:TrackPointExtension>
            <ns3:atemp>18.0</ns3:atemp>
            <ns3:hr>120</ns3:hr>
          </ns3:TrackPointExtension>
        </extensions>
      </trkpt>
      <trkpt lat="46.6553294844925403594970703125" lon="6.8448047898709774017333984375">
        <ele>680.20001220703125</ele>
        <time>2013-08-15T16:22:20.000Z</time>
        <extensions>
          <ns3:TrackPointExtension>
            <ns3:atemp>18.0</ns3:atemp>
            <ns3:hr>120</ns3:hr>
          </ns3:TrackPointExtension>
        </extensions>
      </trkpt>
      <trkpt lat="46.6553358547389507293701171875" lon="6.84483136050403118133544921875">
        <ele>680.20001220703125</ele>
        <time>2013-08-15T16:22:21.000Z</time>
        <extensions>
          <ns3:TrackPointExtension>
            <ns3:atemp>18.0</ns3:atemp>
            <ns3:hr>120</ns3:hr>
          </ns3:TrackPointExtension>
        </extensions>
      </trkpt>
      <trkpt lat="46.65534465573728084564208984375" lon="6.8448594398796558380126953125">
        <ele>680.20001220703125</ele>
        <time>2013-08-15T16:22:22.000Z</time>
        <extensions>
          <ns3:TrackPointExtension>
            <ns3:atemp>18.0</ns3:atemp>
            <ns3:hr>119</ns3:hr>
          </ns3:TrackPointExtension>
        </extensions>
      </trkpt>
      <trkpt lat="46.6553559713065624237060546875" lon="6.84489212930202484130859375">
        <ele>680.20001220703125</ele>
        <time>2013-08-15T16:22:23.000Z</time>
        <extensions>
          <ns3:TrackPointExtension>
            <ns3:atemp>18.0</ns3:atemp>
            <ns3:hr>119</ns3:hr>
          </ns3:TrackPointExtension>
        </extensions>
      </trkpt>
      <trkpt lat="46.6553667001426219940185546875" lon="6.84492708183825016021728515625">
        <ele>680.4000244140625</ele>
        <time>2013-08-15T16:22:24.000Z</time>
        <extensions>
          <ns3:TrackPointExtension>
            <ns3:atemp>18.0</ns3:atemp>
            <ns3:hr>119</ns3:hr>
          </ns3:TrackPointExtension>
        </extensions>
      </trkpt>
      <trkpt lat="46.65537700988352298736572265625" lon="6.844966225326061248779296875">
        <ele>680.79998779296875</ele>
        <time>2013-08-15T16:22:25.000Z</time>
        <extensions>
          <ns3:TrackPointExtension>
            <ns3:atemp>18.0</ns3:atemp>
            <ns3:hr>119</ns3:hr>
          </ns3:TrackPointExtension>
        </extensions>
      </trkpt>
      <trkpt lat="46.655387319624423980712890625" lon="6.84501542709767818450927734375">
        <ele>681</ele>
        <time>2013-08-15T16:22:26.000Z</time>
        <extensions>
          <ns3:TrackPointExtension>
            <ns3:atemp>18.0</ns3:atemp>
            <ns3:hr>119</ns3:hr>
          </ns3:TrackPointExtension>
        </extensions>
      </trkpt>
      <trkpt lat="46.6553998924791812896728515625" lon="6.84506773017346858978271484375">
        <ele>681.20001220703125</ele>
        <time>2013-08-15T16:22:27.000Z</time>
        <extensions>
          <ns3:TrackPointExtension>
            <ns3:atemp>18.0</ns3:atemp>
            <ns3:hr>119</ns3:hr>
          </ns3:TrackPointExtension>
        </extensions>
      </trkpt>
      <trkpt lat="46.655413471162319183349609375" lon="6.84511751867830753326416015625">
        <ele>681.4000244140625</ele>
        <time>2013-08-15T16:22:28.000Z</time>
        <extensions>
          <ns3:TrackPointExtension>
            <ns3:atemp>18.0</ns3:atemp>
            <ns3:hr>119</ns3:hr>
          </ns3:TrackPointExtension>
        </extensions>
      </trkpt>
      <trkpt lat="46.6554257087409496307373046875" lon="6.84516948647797107696533203125">
        <ele>681.5999755859375</ele>
        <time>2013-08-15T16:22:29.000Z</time>
        <extensions>
          <ns3:TrackPointExtension>
            <ns3:atemp>18.0</ns3:atemp>
            <ns3:hr>119</ns3:hr>
          </ns3:TrackPointExtension>
        </extensions>
      </trkpt>
      <trkpt lat="46.65543467737734317779541015625" lon="6.8452186882495880126953125">
        <ele>681.5999755859375</ele>
        <time>2013-08-15T16:22:30.000Z</time>
        <extensions>
          <ns3:TrackPointExtension>
            <ns3:atemp>18.0</ns3:atemp>
            <ns3:hr>120</ns3:hr>
          </ns3:TrackPointExtension>
        </extensions>
      </trkpt>
      <trkpt lat="46.65544264018535614013671875" lon="6.845263279974460601806640625">
        <ele>681.79998779296875</ele>
        <time>2013-08-15T16:22:31.000Z</time>
        <extensions>
          <ns3:TrackPointExtension>
            <ns3:atemp>18.0</ns3:atemp>
            <ns3:hr>120</ns3:hr>
          </ns3:TrackPointExtension>
        </extensions>
      </trkpt>
      <trkpt lat="46.65544892661273479461669921875" lon="6.84530694968998432159423828125">
        <ele>682.20001220703125</ele>
        <time>2013-08-15T16:22:32.000Z</time>
        <extensions>
          <ns3:TrackPointExtension>
            <ns3:atemp>18.0</ns3:atemp>
            <ns3:hr>120</ns3:hr>
          </ns3:TrackPointExtension>
        </extensions>
      </trkpt>
      <trkpt lat="46.65545395575463771820068359375" lon="6.845351792871952056884765625">
        <ele>682.4000244140625</ele>
        <time>2013-08-15T16:22:33.000Z</time>
        <extensions>
          <ns3:TrackPointExtension>
            <ns3:atemp>18.0</ns3:atemp>
            <ns3:hr>121</ns3:hr>
          </ns3:TrackPointExtension>
        </extensions>
      </trkpt>
      <trkpt lat="46.655461080372333526611328125" lon="6.8453930318355560302734375">
        <ele>682.5999755859375</ele>
        <time>2013-08-15T16:22:34.000Z</time>
        <extensions>
          <ns3:TrackPointExtension>
            <ns3:atemp>18.0</ns3:atemp>
            <ns3:hr>122</ns3:hr>
          </ns3:TrackPointExtension>
        </extensions>
      </trkpt>
      <trkpt lat="46.65546678006649017333984375" lon="6.8454347737133502960205078125">
        <ele>682.5999755859375</ele>
        <time>2013-08-15T16:22:35.000Z</time>
        <extensions>
          <ns3:TrackPointExtension>
            <ns3:atemp>18.0</ns3:atemp>
            <ns3:hr>123</ns3:hr>
          </ns3:TrackPointExtension>
        </extensions>
      </trkpt>
      <trkpt lat="46.6554723121225833892822265625" lon="6.84547492302954196929931640625">
        <ele>682.79998779296875</ele>
        <time>2013-08-15T16:22:36.000Z</time>
        <extensions>
          <ns3:TrackPointExtension>
            <ns3:atemp>18.0</ns3:atemp>
            <ns3:hr>123</ns3:hr>
          </ns3:TrackPointExtension>
        </extensions>
      </trkpt>
      <trkpt lat="46.6554806940257549285888671875" lon="6.84551364742219448089599609375">
        <ele>683.20001220703125</ele>
        <time>2013-08-15T16:22:37.000Z</time>
        <extensions>
          <ns3:TrackPointExtension>
            <ns3:atemp>18.0</ns3:atemp>
            <ns3:hr>124</ns3:hr>
          </ns3:TrackPointExtension>
        </extensions>
      </trkpt>
      <trkpt lat="46.655493937432765960693359375" lon="6.8455507792532444000244140625">
        <ele>683.4000244140625</ele>
        <time>2013-08-15T16:22:38.000Z</time>
        <extensions>
          <ns3:TrackPointExtension>
            <ns3:atemp>18.0</ns3:atemp>
            <ns3:hr>125</ns3:hr>
          </ns3:TrackPointExtension>
        </extensions>
      </trkpt>
      <trkpt lat="46.655507348477840423583984375" lon="6.84558606706559658050537109375">
        <ele>684</ele>
        <time>2013-08-15T16:22:39.000Z</time>
        <extensions>
          <ns3:TrackPointExtension>
            <ns3:atemp>18.0</ns3:atemp>
            <ns3:hr>126</ns3:hr>
          </ns3:TrackPointExtension>
        </extensions>
      </trkpt>
      <trkpt lat="46.6555222682654857635498046875" lon="6.84561858884990215301513671875">
        <ele>684.20001220703125</ele>
        <time>2013-08-15T16:22:40.000Z</time>
        <extensions>
          <ns3:TrackPointExtension>
            <ns3:atemp>18.0</ns3:atemp>
            <ns3:hr>127</ns3:hr>
          </ns3:TrackPointExtension>
        </extensions>
      </trkpt>
      <trkpt lat="46.6555340029299259185791015625" lon="6.8456510268151760101318359375">
        <ele>684</ele>
        <time>2013-08-15T16:22:41.000Z</time>
        <extensions>
          <ns3:TrackPointExtension>
            <ns3:atemp>18.0</ns3:atemp>
            <ns3:hr>128</ns3:hr>
          </ns3:TrackPointExtension>
        </extensions>
      </trkpt>
      <trkpt lat="46.65554733015596866607666015625" lon="6.8456862308084964752197265625">
        <ele>684</ele>
        <time>2013-08-15T16:22:42.000Z</time>
        <extensions>
          <ns3:TrackPointExtension>
            <ns3:atemp>18.0</ns3:atemp>
            <ns3:hr>128</ns3:hr>
          </ns3:TrackPointExtension>
        </extensions>
      </trkpt>
      <trkpt lat="46.65556342341005802154541015625" lon="6.8457274697721004486083984375">
        <ele>684</ele>
        <time>2013-08-15T16:22:43.000Z</time>
        <extensions>
          <ns3:TrackPointExtension>
            <ns3:atemp>18.0</ns3:atemp>
            <ns3:hr>129</ns3:hr>
          </ns3:TrackPointExtension>
        </extensions>
      </trkpt>
      <trkpt lat="46.6555802710354328155517578125" lon="6.8457653559744358062744140625">
        <ele>684.20001220703125</ele>
        <time>2013-08-15T16:22:44.000Z</time>
        <extensions>
          <ns3:TrackPointExtension>
            <ns3:atemp>18.0</ns3:atemp>
            <ns3:hr>130</ns3:hr>
          </ns3:TrackPointExtension>
        </extensions>
      </trkpt>
      <trkpt lat="46.6555940173566341400146484375" lon="6.84580768458545207977294921875">
        <ele>684.20001220703125</ele>
        <time>2013-08-15T16:22:45.000Z</time>
        <extensions>
          <ns3:TrackPointExtension>
            <ns3:atemp>18.0</ns3:atemp>
            <ns3:hr>130</ns3:hr>
          </ns3:TrackPointExtension>
        </extensions>
      </trkpt>
      <trkpt lat="46.655610613524913787841796875" lon="6.8458521924912929534912109375">
        <ele>684.20001220703125</ele>
        <time>2013-08-15T16:22:46.000Z</time>
        <extensions>
          <ns3:TrackPointExtension>
            <ns3:atemp>18.0</ns3:atemp>
            <ns3:hr>130</ns3:hr>
          </ns3:TrackPointExtension>
        </extensions>
      </trkpt>
      <trkpt lat="46.65563349612057209014892578125" lon="6.8458972871303558349609375">
        <ele>684</ele>
        <time>2013-08-15T16:22:47.000Z</time>
        <extensions>
          <ns3:TrackPointExtension>
            <ns3:atemp>18.0</ns3:atemp>
            <ns3:hr>131</ns3:hr>
          </ns3:TrackPointExtension>
        </extensions>
      </trkpt>
      <trkpt lat="46.6556500084698200225830078125" lon="6.845936514437198638916015625">
        <ele>684</ele>
        <time>2013-08-15T16:22:48.000Z</time>
        <extensions>
          <ns3:TrackPointExtension>
            <ns3:atemp>18.0</ns3:atemp>
            <ns3:hr>131</ns3:hr>
          </ns3:TrackPointExtension>
        </extensions>
      </trkpt>
      <trkpt lat="46.655670292675495147705078125" lon="6.84597817249596118927001953125">
        <ele>684.20001220703125</ele>
        <time>2013-08-15T16:22:49.000Z</time>
        <extensions>
          <ns3:TrackPointExtension>
            <ns3:atemp>18.0</ns3:atemp>
            <ns3:hr>131</ns3:hr>
          </ns3:TrackPointExtension>
        </extensions>
      </trkpt>
      <trkpt lat="46.65567867457866668701171875" lon="6.8460097722709178924560546875">
        <ele>684.5999755859375</ele>
        <time>2013-08-15T16:22:50.000Z</time>
        <extensions>
          <ns3:TrackPointExtension>
            <ns3:atemp>18.0</ns3:atemp>
            <ns3:hr>131</ns3:hr>
          </ns3:TrackPointExtension>
        </extensions>
      </trkpt>
      <trkpt lat="46.65569183416664600372314453125" lon="6.8460421264171600341796875">
        <ele>685</ele>
        <time>2013-08-15T16:22:51.000Z</time>
        <extensions>
          <ns3:TrackPointExtension>
            <ns3:atemp>18.0</ns3:atemp>
            <ns3:hr>131</ns3:hr>
          </ns3:TrackPointExtension>
        </extensions>
      </trkpt>
      <trkpt lat="46.6557080112397670745849609375" lon="6.8460734747350215911865234375">
        <ele>685</ele>
        <time>2013-08-15T16:22:52.000Z</time>
        <extensions>
          <ns3:TrackPointExtension>
            <ns3:atemp>18.0</ns3:atemp>
            <ns3:hr>131</ns3:hr>
          </ns3:TrackPointExtension>
        </extensions>
      </trkpt>
      <trkpt lat="46.65573139674961566925048828125" lon="6.8461225926876068115234375">
        <ele>685</ele>
        <time>2013-08-15T16:22:53.000Z</time>
        <extensions>
          <ns3:TrackPointExtension>
            <ns3:atemp>18.0</ns3:atemp>
            <ns3:hr>132</ns3:hr>
          </ns3:TrackPointExtension>
        </extensions>
      </trkpt>
      <trkpt lat="46.65575285442173480987548828125" lon="6.8461683578789234161376953125">
        <ele>684.79998779296875</ele>
        <time>2013-08-15T16:22:54.000Z</time>
        <extensions>
          <ns3:TrackPointExtension>
            <ns3:atemp>18.0</ns3:atemp>
            <ns3:hr>131</ns3:hr>
          </ns3:TrackPointExtension>
        </extensions>
      </trkpt>
      <trkpt lat="46.655767858028411865234375" lon="6.8462082557380199432373046875">
        <ele>684.79998779296875</ele>
        <time>2013-08-15T16:22:55.000Z</time>
        <extensions>
          <ns3:TrackPointExtension>
            <ns3:atemp>18.0</ns3:atemp>
            <ns3:hr>131</ns3:hr>
          </ns3:TrackPointExtension>
        </extensions>
      </trkpt>
      <trkpt lat="46.6557878069579601287841796875" lon="6.8462548591196537017822265625">
        <ele>684.79998779296875</ele>
        <time>2013-08-15T16:22:56.000Z</time>
        <extensions>
          <ns3:TrackPointExtension>
            <ns3:atemp>18.0</ns3:atemp>
            <ns3:hr>131</ns3:hr>
          </ns3:TrackPointExtension>
        </extensions>
      </trkpt>
      <trkpt lat="46.655806414783000946044921875" lon="6.84629970230162143707275390625">
        <ele>685</ele>
        <time>2013-08-15T16:22:57.000Z</time>
        <extensions>
          <ns3:TrackPointExtension>
            <ns3:atemp>18.0</ns3:atemp>
            <ns3:hr>131</ns3:hr>
          </ns3:TrackPointExtension>
        </extensions>
      </trkpt>
      <trkpt lat="46.6558260284364223480224609375" lon="6.84634027071297168731689453125">
        <ele>685</ele>
        <time>2013-08-15T16:22:58.000Z</time>
        <extensions>
          <ns3:TrackPointExtension>
            <ns3:atemp>18.0</ns3:atemp>
            <ns3:hr>132</ns3:hr>
          </ns3:TrackPointExtension>
        </extensions>
      </trkpt>
      <trkpt lat="46.65584589354693889617919921875" lon="6.8463779054582118988037109375">
        <ele>685.20001220703125</ele>
        <time>2013-08-15T16:22:59.000Z</time>
        <extensions>
          <ns3:TrackPointExtension>
            <ns3:atemp>18.0</ns3:atemp>
            <ns3:hr>131</ns3:hr>
          </ns3:TrackPointExtension>
        </extensions>
      </trkpt>
      <trkpt lat="46.65586601011455059051513671875" lon="6.84641906060278415679931640625">
        <ele>685.20001220703125</ele>
        <time>2013-08-15T16:23:00.000Z</time>
        <extensions>
          <ns3:TrackPointExtension>
            <ns3:atemp>18.0</ns3:atemp>
            <ns3:hr>132</ns3:hr>
          </ns3:TrackPointExtension>
        </extensions>
      </trkpt>
      <trkpt lat="46.65588109754025936126708984375" lon="6.84645795263350009918212890625">
        <ele>685.4000244140625</ele>
        <time>2013-08-15T16:23:01.000Z</time>
        <extensions>
          <ns3:TrackPointExtension>
            <ns3:atemp>18.0</ns3:atemp>
            <ns3:hr>132</ns3:hr>
          </ns3:TrackPointExtension>
        </extensions>
      </trkpt>
      <trkpt lat="46.6558967716991901397705078125" lon="6.84650623239576816558837890625">
        <ele>685.5999755859375</ele>
        <time>2013-08-15T16:23:02.000Z</time>
        <extensions>
          <ns3:TrackPointExtension>
            <ns3:atemp>18.0</ns3:atemp>
            <ns3:hr>132</ns3:hr>
          </ns3:TrackPointExtension>
        </extensions>
      </trkpt>
      <trkpt lat="46.65591697208583354949951171875" lon="6.84655602090060710906982421875">
        <ele>686</ele>
        <time>2013-08-15T16:23:03.000Z</time>
        <extensions>
          <ns3:TrackPointExtension>
            <ns3:atemp>18.0</ns3:atemp>
            <ns3:hr>132</ns3:hr>
          </ns3:TrackPointExtension>
        </extensions>
      </trkpt>
      <trkpt lat="46.65593675337731838226318359375" lon="6.84660614468157291412353515625">
        <ele>686.20001220703125</ele>
        <time>2013-08-15T16:23:04.000Z</time>
        <extensions>
          <ns3:TrackPointExtension>
            <ns3:atemp>18.0</ns3:atemp>
            <ns3:hr>132</ns3:hr>
          </ns3:TrackPointExtension>
        </extensions>
      </trkpt>
      <trkpt lat="46.655955612659454345703125" lon="6.8466612137854099273681640625">
        <ele>686.4000244140625</ele>
        <time>2013-08-15T16:23:05.000Z</time>
        <extensions>
          <ns3:TrackPointExtension>
            <ns3:atemp>18.0</ns3:atemp>
            <ns3:hr>133</ns3:hr>
          </ns3:TrackPointExtension>
        </extensions>
      </trkpt>
      <trkpt lat="46.65597614832222461700439453125" lon="6.846719719469547271728515625">
        <ele>686.4000244140625</ele>
        <time>2013-08-15T16:23:06.000Z</time>
        <extensions>
          <ns3:TrackPointExtension>
            <ns3:atemp>18.0</ns3:atemp>
            <ns3:hr>133</ns3:hr>
          </ns3:TrackPointExtension>
        </extensions>
      </trkpt>
      <trkpt lat="46.65599651634693145751953125" lon="6.84677327983081340789794921875">
        <ele>686.5999755859375</ele>
        <time>2013-08-15T16:23:07.000Z</time>
        <extensions>
          <ns3:TrackPointExtension>
            <ns3:atemp>18.0</ns3:atemp>
            <ns3:hr>133</ns3:hr>
          </ns3:TrackPointExtension>
        </extensions>
      </trkpt>
      <trkpt lat="46.6560161300003528594970703125" lon="6.84682960622012615203857421875">
        <ele>686.5999755859375</ele>
        <time>2013-08-15T16:23:08.000Z</time>
        <extensions>
          <ns3:TrackPointExtension>
            <ns3:atemp>18.0</ns3:atemp>
            <ns3:hr>133</ns3:hr>
          </ns3:TrackPointExtension>
        </extensions>
      </trkpt>
      <trkpt lat="46.656034402549266815185546875" lon="6.84688366949558258056640625">
        <ele>686.5999755859375</ele>
        <time>2013-08-15T16:23:09.000Z</time>
        <extensions>
          <ns3:TrackPointExtension>
            <ns3:atemp>18.0</ns3:atemp>
            <ns3:hr>133</ns3:hr>
          </ns3:TrackPointExtension>
        </extensions>
      </trkpt>
      <trkpt lat="46.6560459695756435394287109375" lon="6.84692566283047199249267578125">
        <ele>686.79998779296875</ele>
        <time>2013-08-15T16:23:10.000Z</time>
        <extensions>
          <ns3:TrackPointExtension>
            <ns3:atemp>18.0</ns3:atemp>
            <ns3:hr>134</ns3:hr>
          </ns3:TrackPointExtension>
        </extensions>
      </trkpt>
      <trkpt lat="46.65605477057397365570068359375" lon="6.84696975164115428924560546875">
        <ele>687.20001220703125</ele>
        <time>2013-08-15T16:23:11.000Z</time>
        <extensions>
          <ns3:TrackPointExtension>
            <ns3:atemp>18.0</ns3:atemp>
            <ns3:hr>134</ns3:hr>
          </ns3:TrackPointExtension>
        </extensions>
      </trkpt>
      <trkpt lat="46.65606197901070117950439453125" lon="6.84701241552829742431640625">
        <ele>687.4000244140625</ele>
        <time>2013-08-15T16:23:12.000Z</time>
        <extensions>
          <ns3:TrackPointExtension>
            <ns3:atemp>18.0</ns3:atemp>
            <ns3:hr>135</ns3:hr>
          </ns3:TrackPointExtension>
        </extensions>
      </trkpt>
      <trkpt lat="46.65607388131320476531982421875" lon="6.847054995596408843994140625">
        <ele>687.4000244140625</ele>
        <time>2013-08-15T16:23:13.000Z</time>
        <extensions>
          <ns3:TrackPointExtension>
            <ns3:atemp>18.0</ns3:atemp>
            <ns3:hr>135</ns3:hr>
          </ns3:TrackPointExtension>
        </extensions>
      </trkpt>
      <trkpt lat="46.6560845263302326202392578125" lon="6.8470943905413150787353515625">
        <ele>687.79998779296875</ele>
        <time>2013-08-15T16:23:14.000Z</time>
        <extensions>
          <ns3:TrackPointExtension>
            <ns3:atemp>18.0</ns3:atemp>
            <ns3:hr>135</ns3:hr>
          </ns3:TrackPointExtension>
        </extensions>
      </trkpt>
      <trkpt lat="46.656096763908863067626953125" lon="6.84713487513363361358642578125">
        <ele>688.20001220703125</ele>
        <time>2013-08-15T16:23:15.000Z</time>
        <extensions>
          <ns3:TrackPointExtension>
            <ns3:atemp>18.0</ns3:atemp>
            <ns3:hr>136</ns3:hr>
          </ns3:TrackPointExtension>
        </extensions>
      </trkpt>
      <trkpt lat="46.6561103425920009613037109375" lon="6.84718164615333080291748046875">
        <ele>688.5999755859375</ele>
        <time>2013-08-15T16:23:16.000Z</time>
        <extensions>
          <ns3:TrackPointExtension>
            <ns3:atemp>18.0</ns3:atemp>
            <ns3:hr>136</ns3:hr>
          </ns3:TrackPointExtension>
        </extensions>
      </trkpt>
      <trkpt lat="46.65612400509417057037353515625" lon="6.84722431004047393798828125">
        <ele>688.5999755859375</ele>
        <time>2013-08-15T16:23:17.000Z</time>
        <extensions>
          <ns3:TrackPointExtension>
            <ns3:atemp>18.0</ns3:atemp>
            <ns3:hr>136</ns3:hr>
          </ns3:TrackPointExtension>
        </extensions>
      </trkpt>
      <trkpt lat="46.65613842196762561798095703125" lon="6.8472751043736934661865234375">
        <ele>688.79998779296875</ele>
        <time>2013-08-15T16:23:18.000Z</time>
        <extensions>
          <ns3:TrackPointExtension>
            <ns3:atemp>18.0</ns3:atemp>
            <ns3:hr>136</ns3:hr>
          </ns3:TrackPointExtension>
        </extensions>
      </trkpt>
      <trkpt lat="46.656157113611698150634765625" lon="6.84732682071626186370849609375">
        <ele>689.20001220703125</ele>
        <time>2013-08-15T16:23:19.000Z</time>
        <extensions>
          <ns3:TrackPointExtension>
            <ns3:atemp>18.0</ns3:atemp>
            <ns3:hr>137</ns3:hr>
          </ns3:TrackPointExtension>
        </extensions>
      </trkpt>
      <trkpt lat="46.65617429651319980621337890625" lon="6.84737627394497394561767578125">
        <ele>689.5999755859375</ele>
        <time>2013-08-15T16:23:20.000Z</time>
        <extensions>
          <ns3:TrackPointExtension>
            <ns3:atemp>18.0</ns3:atemp>
            <ns3:hr>137</ns3:hr>
          </ns3:TrackPointExtension>
        </extensions>
      </trkpt>
      <trkpt lat="46.65619089268147945404052734375" lon="6.8474273197352886199951171875">
        <ele>689.79998779296875</ele>
        <time>2013-08-15T16:23:21.000Z</time>
        <extensions>
          <ns3:TrackPointExtension>
            <ns3:atemp>18.0</ns3:atemp>
            <ns3:hr>138</ns3:hr>
          </ns3:TrackPointExtension>
        </extensions>
      </trkpt>
      <trkpt lat="46.65621888823807239532470703125" lon="6.8474972248077392578125">
        <ele>690</ele>
        <time>2013-08-15T16:23:22.000Z</time>
        <extensions>
          <ns3:TrackPointExtension>
            <ns3:atemp>18.0</ns3:atemp>
            <ns3:hr>138</ns3:hr>
          </ns3:TrackPointExtension>
        </extensions>
      </trkpt>
      <trkpt lat="46.6562454588711261749267578125" lon="6.84755447320640087127685546875">
        <ele>690</ele>
        <time>2013-08-15T16:23:23.000Z</time>
        <extensions>
          <ns3:TrackPointExtension>
            <ns3:atemp>18.0</ns3:atemp>
            <ns3:hr>138</ns3:hr>
          </ns3:TrackPointExtension>
        </extensions>
      </trkpt>
      <trkpt lat="46.65628795512020587921142578125" lon="6.84763896279036998748779296875">
        <ele>690.4000244140625</ele>
        <time>2013-08-15T16:23:24.000Z</time>
        <extensions>
          <ns3:TrackPointExtension>
            <ns3:atemp>18.0</ns3:atemp>
            <ns3:hr>139</ns3:hr>
          </ns3:TrackPointExtension>
        </extensions>
      </trkpt>
      <trkpt lat="46.65632466785609722137451171875" lon="6.847708784043788909912109375">
        <ele>690.5999755859375</ele>
        <time>2013-08-15T16:23:25.000Z</time>
        <extensions>
          <ns3:TrackPointExtension>
            <ns3:atemp>18.0</ns3:atemp>
            <ns3:hr>139</ns3:hr>
          </ns3:TrackPointExtension>
        </extensions>
      </trkpt>
      <trkpt lat="46.65635299868881702423095703125" lon="6.84776569716632366180419921875">
        <ele>690.79998779296875</ele>
        <time>2013-08-15T16:23:26.000Z</time>
        <extensions>
          <ns3:TrackPointExtension>
            <ns3:atemp>18.0</ns3:atemp>
            <ns3:hr>139</ns3:hr>
          </ns3:TrackPointExtension>
        </extensions>
      </trkpt>
      <trkpt lat="46.65637596510350704193115234375" lon="6.8478065170347690582275390625">
        <ele>690.79998779296875</ele>
        <time>2013-08-15T16:23:27.000Z</time>
        <extensions>
          <ns3:TrackPointExtension>
            <ns3:atemp>18.0</ns3:atemp>
            <ns3:hr>140</ns3:hr>
          </ns3:TrackPointExtension>
        </extensions>
      </trkpt>
      <trkpt lat="46.6563939861953258514404296875" lon="6.847843565046787261962890625">
        <ele>691.20001220703125</ele>
        <time>2013-08-15T16:23:28.000Z</time>
        <extensions>
          <ns3:TrackPointExtension>
            <ns3:atemp>18.0</ns3:atemp>
            <ns3:hr>140</ns3:hr>
          </ns3:TrackPointExtension>
        </extensions>
      </trkpt>
      <trkpt lat="46.6564075648784637451171875" lon="6.84787617065012454986572265625">
        <ele>691.20001220703125</ele>
        <time>2013-08-15T16:23:29.000Z</time>
        <extensions>
          <ns3:TrackPointExtension>
            <ns3:atemp>18.0</ns3:atemp>
            <ns3:hr>140</ns3:hr>
          </ns3:TrackPointExtension>
        </extensions>
      </trkpt>
      <trkpt lat="46.65641703642904758453369140625" lon="6.8479057587683200836181640625">
        <ele>691.4000244140625</ele>
        <time>2013-08-15T16:23:30.000Z</time>
        <extensions>
          <ns3:TrackPointExtension>
            <ns3:atemp>18.0</ns3:atemp>
            <ns3:hr>140</ns3:hr>
          </ns3:TrackPointExtension>
        </extensions>
      </trkpt>
      <trkpt lat="46.6564298607409000396728515625" lon="6.84793283231556415557861328125">
        <ele>691.5999755859375</ele>
        <time>2013-08-15T16:23:31.000Z</time>
        <extensions>
          <ns3:TrackPointExtension>
            <ns3:atemp>18.0</ns3:atemp>
            <ns3:hr>140</ns3:hr>
          </ns3:TrackPointExtension>
        </extensions>
      </trkpt>
      <trkpt lat="46.65644310414791107177734375" lon="6.8479573912918567657470703125">
        <ele>692</ele>
        <time>2013-08-15T16:23:32.000Z</time>
        <extensions>
          <ns3:TrackPointExtension>
            <ns3:atemp>18.0</ns3:atemp>
            <ns3:hr>140</ns3:hr>
          </ns3:TrackPointExtension>
        </extensions>
      </trkpt>
      <trkpt lat="46.65646011941134929656982421875" lon="6.84798697941005229949951171875">
        <ele>692.20001220703125</ele>
        <time>2013-08-15T16:23:33.000Z</time>
        <extensions>
          <ns3:TrackPointExtension>
            <ns3:atemp>18.0</ns3:atemp>
            <ns3:hr>140</ns3:hr>
          </ns3:TrackPointExtension>
        </extensions>
      </trkpt>
      <trkpt lat="46.65647386573255062103271484375" lon="6.84801816008985042572021484375">
        <ele>692.4000244140625</ele>
        <time>2013-08-15T16:23:34.000Z</time>
        <extensions>
          <ns3:TrackPointExtension>
            <ns3:atemp>18.0</ns3:atemp>
            <ns3:hr>141</ns3:hr>
          </ns3:TrackPointExtension>
        </extensions>
      </trkpt>
      <trkpt lat="46.65647931396961212158203125" lon="6.84804640710353851318359375">
        <ele>692.5999755859375</ele>
        <time>2013-08-15T16:23:35.000Z</time>
        <extensions>
          <ns3:TrackPointExtension>
            <ns3:atemp>18.0</ns3:atemp>
            <ns3:hr>140</ns3:hr>
          </ns3:TrackPointExtension>
        </extensions>
      </trkpt>
      <trkpt lat="46.65648526512086391448974609375" lon="6.84807348065078258514404296875">
        <ele>693</ele>
        <time>2013-08-15T16:23:36.000Z</time>
        <extensions>
          <ns3:TrackPointExtension>
            <ns3:atemp>18.0</ns3:atemp>
            <ns3:hr>141</ns3:hr>
          </ns3:TrackPointExtension>
        </extensions>
      </trkpt>
      <trkpt lat="46.65649130009114742279052734375" lon="6.848099716007709503173828125">
        <ele>693.20001220703125</ele>
        <time>2013-08-15T16:23:37.000Z</time>
        <extensions>
          <ns3:TrackPointExtension>
            <ns3:atemp>18.0</ns3:atemp>
            <ns3:hr>141</ns3:hr>
          </ns3:TrackPointExtension>
        </extensions>
      </trkpt>
      <trkpt lat="46.65649465285241603851318359375" lon="6.84812695719301700592041015625">
        <ele>693.5999755859375</ele>
        <time>2013-08-15T16:23:38.000Z</time>
        <extensions>
          <ns3:TrackPointExtension>
            <ns3:atemp>18.0</ns3:atemp>
            <ns3:hr>141</ns3:hr>
          </ns3:TrackPointExtension>
        </extensions>
      </trkpt>
      <trkpt lat="46.65650303475558757781982421875" lon="6.84815126471221446990966796875">
        <ele>693.79998779296875</ele>
        <time>2013-08-15T16:23:39.000Z</time>
        <extensions>
          <ns3:TrackPointExtension>
            <ns3:atemp>18.0</ns3:atemp>
            <ns3:hr>141</ns3:hr>
          </ns3:TrackPointExtension>
        </extensions>
      </trkpt>
      <trkpt lat="46.6565126739442348480224609375" lon="6.84817607514560222625732421875">
        <ele>694</ele>
        <time>2013-08-15T16:23:40.000Z</time>
        <extensions>
          <ns3:TrackPointExtension>
            <ns3:atemp>18.0</ns3:atemp>
            <ns3:hr>141</ns3:hr>
          </ns3:TrackPointExtension>
        </extensions>
      </trkpt>
      <trkpt lat="46.656517870724201202392578125" lon="6.84819904156029224395751953125">
        <ele>694.20001220703125</ele>
        <time>2013-08-15T16:23:41.000Z</time>
        <extensions>
          <ns3:TrackPointExtension>
            <ns3:atemp>18.0</ns3:atemp>
            <ns3:hr>141</ns3:hr>
          </ns3:TrackPointExtension>
        </extensions>
      </trkpt>
      <trkpt lat="46.65652398951351642608642578125" lon="6.8482239358127117156982421875">
        <ele>694.4000244140625</ele>
        <time>2013-08-15T16:23:42.000Z</time>
        <extensions>
          <ns3:TrackPointExtension>
            <ns3:atemp>18.0</ns3:atemp>
            <ns3:hr>141</ns3:hr>
          </ns3:TrackPointExtension>
        </extensions>
      </trkpt>
      <trkpt lat="46.6565314494073390960693359375" lon="6.84825159609317779541015625">
        <ele>694.5999755859375</ele>
        <time>2013-08-15T16:23:43.000Z</time>
        <extensions>
          <ns3:TrackPointExtension>
            <ns3:atemp>18.0</ns3:atemp>
            <ns3:hr>141</ns3:hr>
          </ns3:TrackPointExtension>
        </extensions>
      </trkpt>
      <trkpt lat="46.6565384902060031890869140625" lon="6.84827665798366069793701171875">
        <ele>695</ele>
        <time>2013-08-15T16:23:44.000Z</time>
        <extensions>
          <ns3:TrackPointExtension>
            <ns3:atemp>18.0</ns3:atemp>
            <ns3:hr>141</ns3:hr>
          </ns3:TrackPointExtension>
        </extensions>
      </trkpt>
      <trkpt lat="46.65654729120433330535888671875" lon="6.84830230660736560821533203125">
        <ele>695.20001220703125</ele>
        <time>2013-08-15T16:23:45.000Z</time>
        <extensions>
          <ns3:TrackPointExtension>
            <ns3:atemp>18.0</ns3:atemp>
            <ns3:hr>141</ns3:hr>
          </ns3:TrackPointExtension>
        </extensions>
      </trkpt>
      <trkpt lat="46.65655349381268024444580078125" lon="6.8483278714120388031005859375">
        <ele>695.4000244140625</ele>
        <time>2013-08-15T16:23:46.000Z</time>
        <extensions>
          <ns3:TrackPointExtension>
            <ns3:atemp>18.0</ns3:atemp>
            <ns3:hr>142</ns3:hr>
          </ns3:TrackPointExtension>
        </extensions>
      </trkpt>
      <trkpt lat="46.65655533783137798309326171875" lon="6.848351843655109405517578125">
        <ele>695.4000244140625</ele>
        <time>2013-08-15T16:23:47.000Z</time>
        <extensions>
          <ns3:TrackPointExtension>
            <ns3:atemp>18.0</ns3:atemp>
            <ns3:hr>142</ns3:hr>
          </ns3:TrackPointExtension>
        </extensions>
      </trkpt>
      <trkpt lat="46.65655433200299739837646484375" lon="6.84837455861270427703857421875">
        <ele>695.79998779296875</ele>
        <time>2013-08-15T16:23:48.000Z</time>
        <extensions>
          <ns3:TrackPointExtension>
            <ns3:atemp>18.0</ns3:atemp>
            <ns3:hr>143</ns3:hr>
          </ns3:TrackPointExtension>
        </extensions>
      </trkpt>
      <trkpt lat="46.6565532423555850982666015625" lon="6.8483979441225528717041015625">
        <ele>696</ele>
        <time>2013-08-15T16:23:49.000Z</time>
        <extensions>
          <ns3:TrackPointExtension>
            <ns3:atemp>18.0</ns3:atemp>
            <ns3:hr>143</ns3:hr>
          </ns3:TrackPointExtension>
        </extensions>
      </trkpt>
      <trkpt lat="46.6565545834600925445556640625" lon="6.84841915033757686614990234375">
        <ele>696</ele>
        <time>2013-08-15T16:23:50.000Z</time>
        <extensions>
          <ns3:TrackPointExtension>
            <ns3:atemp>18.0</ns3:atemp>
            <ns3:hr>143</ns3:hr>
          </ns3:TrackPointExtension>
        </extensions>
      </trkpt>
      <trkpt lat="46.65655248798429965972900390625" lon="6.84844044037163257598876953125">
        <ele>696</ele>
        <time>2013-08-15T16:23:51.000Z</time>
        <extensions>
          <ns3:TrackPointExtension>
            <ns3:atemp>18.0</ns3:atemp>
            <ns3:hr>143</ns3:hr>
          </ns3:TrackPointExtension>
        </extensions>
      </trkpt>
      <trkpt lat="46.65654963813722133636474609375" lon="6.8484559468924999237060546875">
        <ele>696.4000244140625</ele>
        <time>2013-08-15T16:23:52.000Z</time>
        <extensions>
          <ns3:TrackPointExtension>
            <ns3:atemp>18.0</ns3:atemp>
            <ns3:hr>144</ns3:hr>
          </ns3:TrackPointExtension>
        </extensions>
      </trkpt>
      <trkpt lat="46.65654997341334819793701171875" lon="6.84847480617463588714599609375">
        <ele>696.5999755859375</ele>
        <time>2013-08-15T16:23:53.000Z</time>
        <extensions>
          <ns3:TrackPointExtension>
            <ns3:atemp>18.0</ns3:atemp>
            <ns3:hr>144</ns3:hr>
          </ns3:TrackPointExtension>
        </extensions>
      </trkpt>
      <trkpt lat="46.65655315853655338287353515625" lon="6.8484936654567718505859375">
        <ele>696.79998779296875</ele>
        <time>2013-08-15T16:23:54.000Z</time>
        <extensions>
          <ns3:TrackPointExtension>
            <ns3:atemp>18.0</ns3:atemp>
            <ns3:hr>144</ns3:hr>
          </ns3:TrackPointExtension>
        </extensions>
      </trkpt>
      <trkpt lat="46.65655718185007572174072265625" lon="6.84851001016795635223388671875">
        <ele>696.79998779296875</ele>
        <time>2013-08-15T16:23:55.000Z</time>
        <extensions>
          <ns3:TrackPointExtension>
            <ns3:atemp>18.0</ns3:atemp>
            <ns3:hr>144</ns3:hr>
          </ns3:TrackPointExtension>
        </extensions>
      </trkpt>
      <trkpt lat="46.65655952878296375274658203125" lon="6.8485250137746334075927734375">
        <ele>697.20001220703125</ele>
        <time>2013-08-15T16:23:56.000Z</time>
        <extensions>
          <ns3:TrackPointExtension>
            <ns3:atemp>18.0</ns3:atemp>
            <ns3:hr>145</ns3:hr>
          </ns3:TrackPointExtension>
        </extensions>
      </trkpt>
      <trkpt lat="46.65655919350683689117431640625" lon="6.848522834479808807373046875">
        <ele>697.4000244140625</ele>
        <time>2013-08-15T16:23:57.000Z</time>
        <extensions>
          <ns3:TrackPointExtension>
            <ns3:atemp>18.0</ns3:atemp>
            <ns3:hr>145</ns3:hr>
          </ns3:TrackPointExtension>
        </extensions>
      </trkpt>
      <trkpt lat="46.65655952878296375274658203125" lon="6.84856005012989044189453125">
        <ele>697.79998779296875</ele>
        <time>2013-08-15T16:23:58.000Z</time>
        <extensions>
          <ns3:TrackPointExtension>
            <ns3:atemp>18.0</ns3:atemp>
            <ns3:hr>145</ns3:hr>
          </ns3:TrackPointExtension>
        </extensions>
      </trkpt>
      <trkpt lat="46.65655785240232944488525390625" lon="6.84858125634491443634033203125">
        <ele>698.20001220703125</ele>
        <time>2013-08-15T16:23:59.000Z</time>
        <extensions>
          <ns3:TrackPointExtension>
            <ns3:atemp>18.0</ns3:atemp>
            <ns3:hr>145</ns3:hr>
          </ns3:TrackPointExtension>
        </extensions>
      </trkpt>
      <trkpt lat="46.656557433307170867919921875" lon="6.84860137291252613067626953125">
        <ele>698.4000244140625</ele>
        <time>2013-08-15T16:24:00.000Z</time>
        <extensions>
          <ns3:TrackPointExtension>
            <ns3:atemp>18.0</ns3:atemp>
            <ns3:hr>146</ns3:hr>
          </ns3:TrackPointExtension>
        </extensions>
      </trkpt>
      <trkpt lat="46.65655500255525112152099609375" lon="6.8486192263662815093994140625">
        <ele>698.79998779296875</ele>
        <time>2013-08-15T16:24:01.000Z</time>
        <extensions>
          <ns3:TrackPointExtension>
            <ns3:atemp>18.0</ns3:atemp>
            <ns3:hr>146</ns3:hr>
          </ns3:TrackPointExtension>
        </extensions>
      </trkpt>
      <trkpt lat="46.6565525718033313751220703125" lon="6.848636828362941741943359375">
        <ele>699</ele>
        <time>2013-08-15T16:24:02.000Z</time>
        <extensions>
          <ns3:TrackPointExtension>
            <ns3:atemp>18.0</ns3:atemp>
            <ns3:hr>146</ns3:hr>
          </ns3:TrackPointExtension>
        </extensions>
      </trkpt>
      <trkpt lat="46.65654913522303104400634765625" lon="6.84865853749215602874755859375">
        <ele>699.4000244140625</ele>
        <time>2013-08-15T16:24:03.000Z</time>
        <extensions>
          <ns3:TrackPointExtension>
            <ns3:atemp>18.0</ns3:atemp>
            <ns3:hr>146</ns3:hr>
          </ns3:TrackPointExtension>
        </extensions>
      </trkpt>
      <trkpt lat="46.65654527954757213592529296875" lon="6.84867848642170429229736328125">
        <ele>699.5999755859375</ele>
        <time>2013-08-15T16:24:04.000Z</time>
        <extensions>
          <ns3:TrackPointExtension>
            <ns3:atemp>18.0</ns3:atemp>
            <ns3:hr>145</ns3:hr>
          </ns3:TrackPointExtension>
        </extensions>
      </trkpt>
      <trkpt lat="46.656546033918857574462890625" lon="6.848701201379299163818359375">
        <ele>699.79998779296875</ele>
        <time>2013-08-15T16:24:05.000Z</time>
        <extensions>
          <ns3:TrackPointExtension>
            <ns3:atemp>18.0</ns3:atemp>
            <ns3:hr>146</ns3:hr>
          </ns3:TrackPointExtension>
        </extensions>
      </trkpt>
      <trkpt lat="46.6565492190420627593994140625" lon="6.8487224914133548736572265625">
        <ele>700.20001220703125</ele>
        <time>2013-08-15T16:24:06.000Z</time>
        <extensions>
          <ns3:TrackPointExtension>
            <ns3:atemp>18.0</ns3:atemp>
            <ns3:hr>146</ns3:hr>
          </ns3:TrackPointExtension>
        </extensions>
      </trkpt>
      <trkpt lat="46.6565508954226970672607421875" lon="6.8487449549138545989990234375">
        <ele>700.4000244140625</ele>
        <time>2013-08-15T16:24:07.000Z</time>
        <extensions>
          <ns3:TrackPointExtension>
            <ns3:atemp>18.0</ns3:atemp>
            <ns3:hr>146</ns3:hr>
          </ns3:TrackPointExtension>
        </extensions>
      </trkpt>
      <trkpt lat="46.65655307471752166748046875" lon="6.84876792132854461669921875">
        <ele>700.4000244140625</ele>
        <time>2013-08-15T16:24:08.000Z</time>
        <extensions>
          <ns3:TrackPointExtension>
            <ns3:atemp>18.0</ns3:atemp>
            <ns3:hr>146</ns3:hr>
          </ns3:TrackPointExtension>
        </extensions>
      </trkpt>
      <trkpt lat="46.65655483491718769073486328125" lon="6.8487915582954883575439453125">
        <ele>700.5999755859375</ele>
        <time>2013-08-15T16:24:09.000Z</time>
        <extensions>
          <ns3:TrackPointExtension>
            <ns3:atemp>18.0</ns3:atemp>
            <ns3:hr>146</ns3:hr>
          </ns3:TrackPointExtension>
        </extensions>
      </trkpt>
      <trkpt lat="46.65655684657394886016845703125" lon="6.8488150276243686676025390625">
        <ele>700.79998779296875</ele>
        <time>2013-08-15T16:24:10.000Z</time>
        <extensions>
          <ns3:TrackPointExtension>
            <ns3:atemp>18.0</ns3:atemp>
            <ns3:hr>146</ns3:hr>
          </ns3:TrackPointExtension>
        </extensions>
      </trkpt>
      <trkpt lat="46.6565576009452342987060546875" lon="6.84883522801101207733154296875">
        <ele>701</ele>
        <time>2013-08-15T16:24:11.000Z</time>
        <extensions>
          <ns3:TrackPointExtension>
            <ns3:atemp>18.0</ns3:atemp>
            <ns3:hr>147</ns3:hr>
          </ns3:TrackPointExtension>
        </extensions>
      </trkpt>
      <trkpt lat="46.6565577685832977294921875" lon="6.8488327972590923309326171875">
        <ele>701.20001220703125</ele>
        <time>2013-08-15T16:24:12.000Z</time>
        <extensions>
          <ns3:TrackPointExtension>
            <ns3:atemp>18.0</ns3:atemp>
            <ns3:hr>147</ns3:hr>
          </ns3:TrackPointExtension>
        </extensions>
      </trkpt>
      <trkpt lat="46.6565599478781223297119140625" lon="6.8488515727221965789794921875">
        <ele>701.20001220703125</ele>
        <time>2013-08-15T16:24:13.000Z</time>
        <extensions>
          <ns3:TrackPointExtension>
            <ns3:atemp>18.0</ns3:atemp>
            <ns3:hr>147</ns3:hr>
          </ns3:TrackPointExtension>
        </extensions>
      </trkpt>
      <trkpt lat="46.65656170807778835296630859375" lon="6.84885702095925807952880859375">
        <ele>701.20001220703125</ele>
        <time>2013-08-15T16:24:14.000Z</time>
        <extensions>
          <ns3:TrackPointExtension>
            <ns3:atemp>18.0</ns3:atemp>
            <ns3:hr>147</ns3:hr>
          </ns3:TrackPointExtension>
        </extensions>
      </trkpt>
      <trkpt lat="46.65656170807778835296630859375" lon="6.84885702095925807952880859375">
        <ele>701.20001220703125</ele>
        <time>2013-08-15T16:24:15.000Z</time>
        <extensions>
          <ns3:TrackPointExtension>
            <ns3:atemp>18.0</ns3:atemp>
            <ns3:hr>147</ns3:hr>
          </ns3:TrackPointExtension>
        </extensions>
      </trkpt>
      <trkpt lat="46.65656137280166149139404296875" lon="6.8488589487969875335693359375">
        <ele>701.4000244140625</ele>
        <time>2013-08-15T16:24:16.000Z</time>
        <extensions>
          <ns3:TrackPointExtension>
            <ns3:atemp>18.0</ns3:atemp>
            <ns3:hr>147</ns3:hr>
          </ns3:TrackPointExtension>
        </extensions>
      </trkpt>
      <trkpt lat="46.65656070224940776824951171875" lon="6.8488790653645992279052734375">
        <ele>701.4000244140625</ele>
        <time>2013-08-15T16:24:17.000Z</time>
        <extensions>
          <ns3:TrackPointExtension>
            <ns3:atemp>18.0</ns3:atemp>
            <ns3:hr>147</ns3:hr>
          </ns3:TrackPointExtension>
        </extensions>
      </trkpt>
      <trkpt lat="46.6565589420497417449951171875" lon="6.84889792464673519134521484375">
        <ele>701.5999755859375</ele>
        <time>2013-08-15T16:24:18.000Z</time>
        <extensions>
          <ns3:TrackPointExtension>
            <ns3:atemp>18.0</ns3:atemp>
            <ns3:hr>147</ns3:hr>
          </ns3:TrackPointExtension>
        </extensions>
      </trkpt>
      <trkpt lat="46.65655734948813915252685546875" lon="6.84891485609114170074462890625">
        <ele>701.79998779296875</ele>
        <time>2013-08-15T16:24:19.000Z</time>
        <extensions>
          <ns3:TrackPointExtension>
            <ns3:atemp>18.0</ns3:atemp>
            <ns3:hr>147</ns3:hr>
          </ns3:TrackPointExtension>
        </extensions>
      </trkpt>
      <trkpt lat="46.65655517019331455230712890625" lon="6.848931871354579925537109375">
        <ele>701.79998779296875</ele>
        <time>2013-08-15T16:24:20.000Z</time>
        <extensions>
          <ns3:TrackPointExtension>
            <ns3:atemp>18.0</ns3:atemp>
            <ns3:hr>147</ns3:hr>
          </ns3:TrackPointExtension>
        </extensions>
      </trkpt>
      <trkpt lat="46.6565515659749507904052734375" lon="6.8489511497318744659423828125">
        <ele>702</ele>
        <time>2013-08-15T16:24:21.000Z</time>
        <extensions>
          <ns3:TrackPointExtension>
            <ns3:atemp>18.0</ns3:atemp>
            <ns3:hr>146</ns3:hr>
          </ns3:TrackPointExtension>
        </extensions>
      </trkpt>
      <trkpt lat="46.65655064396560192108154296875" lon="6.84897000901401042938232421875">
        <ele>702.4000244140625</ele>
        <time>2013-08-15T16:24:22.000Z</time>
        <extensions>
          <ns3:TrackPointExtension>
            <ns3:atemp>18.0</ns3:atemp>
            <ns3:hr>146</ns3:hr>
          </ns3:TrackPointExtension>
        </extensions>
      </trkpt>
      <trkpt lat="46.65655114687979221343994140625" lon="6.848985850811004638671875">
        <ele>702.5999755859375</ele>
        <time>2013-08-15T16:24:23.000Z</time>
        <extensions>
          <ns3:TrackPointExtension>
            <ns3:atemp>18.0</ns3:atemp>
            <ns3:hr>146</ns3:hr>
          </ns3:TrackPointExtension>
        </extensions>
      </trkpt>
      <trkpt lat="46.65655097924172878265380859375" lon="6.84898392297327518463134765625">
        <ele>702.79998779296875</ele>
        <time>2013-08-15T16:24:24.000Z</time>
        <extensions>
          <ns3:TrackPointExtension>
            <ns3:atemp>18.0</ns3:atemp>
            <ns3:hr>146</ns3:hr>
          </ns3:TrackPointExtension>
        </extensions>
      </trkpt>
      <trkpt lat="46.65654963813722133636474609375" lon="6.8490128405392169952392578125">
        <ele>703</ele>
        <time>2013-08-15T16:24:25.000Z</time>
        <extensions>
          <ns3:TrackPointExtension>
            <ns3:atemp>18.0</ns3:atemp>
            <ns3:hr>146</ns3:hr>
          </ns3:TrackPointExtension>
        </extensions>
      </trkpt>
      <trkpt lat="46.65654896758496761322021484375" lon="6.8490262515842914581298828125">
        <ele>703.4000244140625</ele>
        <time>2013-08-15T16:24:26.000Z</time>
        <extensions>
          <ns3:TrackPointExtension>
            <ns3:atemp>18.0</ns3:atemp>
            <ns3:hr>146</ns3:hr>
          </ns3:TrackPointExtension>
        </extensions>
      </trkpt>
      <trkpt lat="46.656546704471111297607421875" lon="6.84903874062001705169677734375">
        <ele>703.4000244140625</ele>
        <time>2013-08-15T16:24:27.000Z</time>
        <extensions>
          <ns3:TrackPointExtension>
            <ns3:atemp>18.0</ns3:atemp>
            <ns3:hr>145</ns3:hr>
          </ns3:TrackPointExtension>
        </extensions>
      </trkpt>
      <trkpt lat="46.65654527954757213592529296875" lon="6.8490537442266941070556640625">
        <ele>703.79998779296875</ele>
        <time>2013-08-15T16:24:28.000Z</time>
        <extensions>
          <ns3:TrackPointExtension>
            <ns3:atemp>18.0</ns3:atemp>
            <ns3:hr>145</ns3:hr>
          </ns3:TrackPointExtension>
        </extensions>
      </trkpt>
      <trkpt lat="46.65654561482369899749755859375" lon="6.8490517325699329376220703125">
        <ele>704</ele>
        <time>2013-08-15T16:24:29.000Z</time>
        <extensions>
          <ns3:TrackPointExtension>
            <ns3:atemp>18.0</ns3:atemp>
            <ns3:hr>145</ns3:hr>
          </ns3:TrackPointExtension>
        </extensions>
      </trkpt>
      <trkpt lat="46.65654896758496761322021484375" lon="6.84908132068812847137451171875">
        <ele>704.20001220703125</ele>
        <time>2013-08-15T16:24:30.000Z</time>
        <extensions>
          <ns3:TrackPointExtension>
            <ns3:atemp>18.0</ns3:atemp>
            <ns3:hr>145</ns3:hr>
          </ns3:TrackPointExtension>
        </extensions>
      </trkpt>
      <trkpt lat="46.65654913522303104400634765625" lon="6.849079392850399017333984375">
        <ele>704.4000244140625</ele>
        <time>2013-08-15T16:24:31.000Z</time>
        <extensions>
          <ns3:TrackPointExtension>
            <ns3:atemp>18.0</ns3:atemp>
            <ns3:hr>145</ns3:hr>
          </ns3:TrackPointExtension>
        </extensions>
      </trkpt>
      <trkpt lat="46.656544692814350128173828125" lon="6.84910814277827739715576171875">
        <ele>704.5999755859375</ele>
        <time>2013-08-15T16:24:32.000Z</time>
        <extensions>
          <ns3:TrackPointExtension>
            <ns3:atemp>18.0</ns3:atemp>
            <ns3:hr>144</ns3:hr>
          </ns3:TrackPointExtension>
        </extensions>
      </trkpt>
      <trkpt lat="46.65654175914824008941650390625" lon="6.8491248227655887603759765625">
        <ele>705</ele>
        <time>2013-08-15T16:24:33.000Z</time>
        <extensions>
          <ns3:TrackPointExtension>
            <ns3:atemp>18.0</ns3:atemp>
            <ns3:hr>144</ns3:hr>
          </ns3:TrackPointExtension>
        </extensions>
      </trkpt>
      <trkpt lat="46.65653907693922519683837890625" lon="6.84914074838161468505859375">
        <ele>705.20001220703125</ele>
        <time>2013-08-15T16:24:34.000Z</time>
        <extensions>
          <ns3:TrackPointExtension>
            <ns3:atemp>18.0</ns3:atemp>
            <ns3:hr>144</ns3:hr>
          </ns3:TrackPointExtension>
        </extensions>
      </trkpt>
      <trkpt lat="46.65653429925441741943359375" lon="6.849157176911830902099609375">
        <ele>705.4000244140625</ele>
        <time>2013-08-15T16:24:35.000Z</time>
        <extensions>
          <ns3:TrackPointExtension>
            <ns3:atemp>18.0</ns3:atemp>
            <ns3:hr>144</ns3:hr>
          </ns3:TrackPointExtension>
        </extensions>
      </trkpt>
      <trkpt lat="46.65652818046510219573974609375" lon="6.84917167760431766510009765625">
        <ele>705.5999755859375</ele>
        <time>2013-08-15T16:24:36.000Z</time>
        <extensions>
          <ns3:TrackPointExtension>
            <ns3:atemp>18.0</ns3:atemp>
            <ns3:hr>144</ns3:hr>
          </ns3:TrackPointExtension>
        </extensions>
      </trkpt>
      <trkpt lat="46.6565240733325481414794921875" lon="6.84918642975389957427978515625">
        <ele>705.79998779296875</ele>
        <time>2013-08-15T16:24:37.000Z</time>
        <extensions>
          <ns3:TrackPointExtension>
            <ns3:atemp>18.0</ns3:atemp>
            <ns3:hr>144</ns3:hr>
          </ns3:TrackPointExtension>
        </extensions>
      </trkpt>
      <trkpt lat="46.65652449242770671844482421875" lon="6.84920269064605236053466796875">
        <ele>706</ele>
        <time>2013-08-15T16:24:38.000Z</time>
        <extensions>
          <ns3:TrackPointExtension>
            <ns3:atemp>18.0</ns3:atemp>
            <ns3:hr>143</ns3:hr>
          </ns3:TrackPointExtension>
        </extensions>
      </trkpt>
      <trkpt lat="46.656524576246738433837890625" lon="6.84920000843703746795654296875">
        <ele>706</ele>
        <time>2013-08-15T16:24:39.000Z</time>
        <extensions>
          <ns3:TrackPointExtension>
            <ns3:atemp>18.0</ns3:atemp>
            <ns3:hr>143</ns3:hr>
          </ns3:TrackPointExtension>
        </extensions>
      </trkpt>
      <trkpt lat="46.6565297730267047882080078125" lon="6.84922766871750354766845703125">
        <ele>706.20001220703125</ele>
        <time>2013-08-15T16:24:40.000Z</time>
        <extensions>
          <ns3:TrackPointExtension>
            <ns3:atemp>18.0</ns3:atemp>
            <ns3:hr>143</ns3:hr>
          </ns3:TrackPointExtension>
        </extensions>
      </trkpt>
      <trkpt lat="46.65653035975992679595947265625" lon="6.8492420017719268798828125">
        <ele>706.4000244140625</ele>
        <time>2013-08-15T16:24:41.000Z</time>
        <extensions>
          <ns3:TrackPointExtension>
            <ns3:atemp>18.0</ns3:atemp>
            <ns3:hr>142</ns3:hr>
          </ns3:TrackPointExtension>
        </extensions>
      </trkpt>
      <trkpt lat="46.6565317846834659576416015625" lon="6.849256418645381927490234375">
        <ele>706.5999755859375</ele>
        <time>2013-08-15T16:24:42.000Z</time>
        <extensions>
          <ns3:TrackPointExtension>
            <ns3:atemp>18.0</ns3:atemp>
            <ns3:hr>142</ns3:hr>
          </ns3:TrackPointExtension>
        </extensions>
      </trkpt>
      <trkpt lat="46.656531281769275665283203125" lon="6.84927293099462985992431640625">
        <ele>706.79998779296875</ele>
        <time>2013-08-15T16:24:43.000Z</time>
        <extensions>
          <ns3:TrackPointExtension>
            <ns3:atemp>18.0</ns3:atemp>
            <ns3:hr>142</ns3:hr>
          </ns3:TrackPointExtension>
        </extensions>
      </trkpt>
      <trkpt lat="46.65652893483638763427734375" lon="6.849288605153560638427734375">
        <ele>707</ele>
        <time>2013-08-15T16:24:44.000Z</time>
        <extensions>
          <ns3:TrackPointExtension>
            <ns3:atemp>18.0</ns3:atemp>
            <ns3:hr>143</ns3:hr>
          </ns3:TrackPointExtension>
        </extensions>
      </trkpt>
      <trkpt lat="46.656529270112514495849609375" lon="6.849286258220672607421875">
        <ele>707.20001220703125</ele>
        <time>2013-08-15T16:24:45.000Z</time>
        <extensions>
          <ns3:TrackPointExtension>
            <ns3:atemp>18.0</ns3:atemp>
            <ns3:hr>143</ns3:hr>
          </ns3:TrackPointExtension>
        </extensions>
      </trkpt>
      <trkpt lat="46.65652533061802387237548828125" lon="6.84931634925305843353271484375">
        <ele>707.4000244140625</ele>
        <time>2013-08-15T16:24:46.000Z</time>
        <extensions>
          <ns3:TrackPointExtension>
            <ns3:atemp>18.0</ns3:atemp>
            <ns3:hr>143</ns3:hr>
          </ns3:TrackPointExtension>
        </extensions>
      </trkpt>
      <trkpt lat="46.6565255820751190185546875" lon="6.849331520497798919677734375">
        <ele>707.5999755859375</ele>
        <time>2013-08-15T16:24:47.000Z</time>
        <extensions>
          <ns3:TrackPointExtension>
            <ns3:atemp>18.0</ns3:atemp>
            <ns3:hr>143</ns3:hr>
          </ns3:TrackPointExtension>
        </extensions>
      </trkpt>
      <trkpt lat="46.6565270908176898956298828125" lon="6.84934317134320735931396484375">
        <ele>708</ele>
        <time>2013-08-15T16:24:48.000Z</time>
        <extensions>
          <ns3:TrackPointExtension>
            <ns3:atemp>18.0</ns3:atemp>
            <ns3:hr>142</ns3:hr>
          </ns3:TrackPointExtension>
        </extensions>
      </trkpt>
      <trkpt lat="46.6565307788550853729248046875" lon="6.84935373254120349884033203125">
        <ele>708.20001220703125</ele>
        <time>2013-08-15T16:24:49.000Z</time>
        <extensions>
          <ns3:TrackPointExtension>
            <ns3:atemp>18.0</ns3:atemp>
            <ns3:hr>142</ns3:hr>
          </ns3:TrackPointExtension>
        </extensions>
      </trkpt>
      <trkpt lat="46.65653136558830738067626953125" lon="6.84936462901532649993896484375">
        <ele>708.4000244140625</ele>
        <time>2013-08-15T16:24:50.000Z</time>
        <extensions>
          <ns3:TrackPointExtension>
            <ns3:atemp>18.0</ns3:atemp>
            <ns3:hr>142</ns3:hr>
          </ns3:TrackPointExtension>
        </extensions>
      </trkpt>
      <trkpt lat="46.65653153322637081146240234375" lon="6.8493627011775970458984375">
        <ele>708.5999755859375</ele>
        <time>2013-08-15T16:24:51.000Z</time>
        <extensions>
          <ns3:TrackPointExtension>
            <ns3:atemp>18.0</ns3:atemp>
            <ns3:hr>142</ns3:hr>
          </ns3:TrackPointExtension>
        </extensions>
      </trkpt>
      <trkpt lat="46.6565324552357196807861328125" lon="6.84938658960163593292236328125">
        <ele>708.79998779296875</ele>
        <time>2013-08-15T16:24:52.000Z</time>
        <extensions>
          <ns3:TrackPointExtension>
            <ns3:atemp>18.0</ns3:atemp>
            <ns3:hr>142</ns3:hr>
          </ns3:TrackPointExtension>
        </extensions>
      </trkpt>
      <trkpt lat="46.6565336287021636962890625" lon="6.84939849190413951873779296875">
        <ele>709.20001220703125</ele>
        <time>2013-08-15T16:24:53.000Z</time>
        <extensions>
          <ns3:TrackPointExtension>
            <ns3:atemp>18.0</ns3:atemp>
            <ns3:hr>142</ns3:hr>
          </ns3:TrackPointExtension>
        </extensions>
      </trkpt>
      <trkpt lat="46.6565341316163539886474609375" lon="6.84941056184470653533935546875">
        <ele>709.4000244140625</ele>
        <time>2013-08-15T16:24:54.000Z</time>
        <extensions>
          <ns3:TrackPointExtension>
            <ns3:atemp>18.0</ns3:atemp>
            <ns3:hr>142</ns3:hr>
          </ns3:TrackPointExtension>
        </extensions>
      </trkpt>
      <trkpt lat="46.65653455071151256561279296875" lon="6.849408634006977081298828125">
        <ele>709.5999755859375</ele>
        <time>2013-08-15T16:24:55.000Z</time>
        <extensions>
          <ns3:TrackPointExtension>
            <ns3:atemp>18.0</ns3:atemp>
            <ns3:hr>141</ns3:hr>
          </ns3:TrackPointExtension>
        </extensions>
      </trkpt>
      <trkpt lat="46.6565321199595928192138671875" lon="6.84943168424069881439208984375">
        <ele>709.79998779296875</ele>
        <time>2013-08-15T16:24:56.000Z</time>
        <extensions>
          <ns3:TrackPointExtension>
            <ns3:atemp>18.0</ns3:atemp>
            <ns3:hr>141</ns3:hr>
          </ns3:TrackPointExtension>
        </extensions>
      </trkpt>
      <trkpt lat="46.656531952321529388427734375" lon="6.849447526037693023681640625">
        <ele>709.79998779296875</ele>
        <time>2013-08-15T16:24:57.000Z</time>
        <extensions>
          <ns3:TrackPointExtension>
            <ns3:atemp>18.0</ns3:atemp>
            <ns3:hr>141</ns3:hr>
          </ns3:TrackPointExtension>
        </extensions>
      </trkpt>
      <trkpt lat="46.6565307788550853729248046875" lon="6.8494641222059726715087890625">
        <ele>710.20001220703125</ele>
        <time>2013-08-15T16:24:58.000Z</time>
        <extensions>
          <ns3:TrackPointExtension>
            <ns3:atemp>18.0</ns3:atemp>
            <ns3:hr>141</ns3:hr>
          </ns3:TrackPointExtension>
        </extensions>
      </trkpt>
      <trkpt lat="46.6565301083028316497802734375" lon="6.849479041993618011474609375">
        <ele>710.20001220703125</ele>
        <time>2013-08-15T16:24:59.000Z</time>
        <extensions>
          <ns3:TrackPointExtension>
            <ns3:atemp>18.0</ns3:atemp>
            <ns3:hr>141</ns3:hr>
          </ns3:TrackPointExtension>
        </extensions>
      </trkpt>
      <trkpt lat="46.65653354488313198089599609375" lon="6.84949605725705623626708984375">
        <ele>710.4000244140625</ele>
        <time>2013-08-15T16:25:00.000Z</time>
        <extensions>
          <ns3:TrackPointExtension>
            <ns3:atemp>18.0</ns3:atemp>
            <ns3:hr>141</ns3:hr>
          </ns3:TrackPointExtension>
        </extensions>
      </trkpt>
      <trkpt lat="46.65653589181602001190185546875" lon="6.8495113961398601531982421875">
        <ele>710.5999755859375</ele>
        <time>2013-08-15T16:25:01.000Z</time>
        <extensions>
          <ns3:TrackPointExtension>
            <ns3:atemp>18.0</ns3:atemp>
            <ns3:hr>141</ns3:hr>
          </ns3:TrackPointExtension>
        </extensions>
      </trkpt>
      <trkpt lat="46.6565361432731151580810546875" lon="6.849524639546871185302734375">
        <ele>710.79998779296875</ele>
        <time>2013-08-15T16:25:02.000Z</time>
        <extensions>
          <ns3:TrackPointExtension>
            <ns3:atemp>18.0</ns3:atemp>
            <ns3:hr>141</ns3:hr>
          </ns3:TrackPointExtension>
        </extensions>
      </trkpt>
      <trkpt lat="46.6565337963402271270751953125" lon="6.849540062248706817626953125">
        <ele>711</ele>
        <time>2013-08-15T16:25:03.000Z</time>
        <extensions>
          <ns3:TrackPointExtension>
            <ns3:atemp>18.0</ns3:atemp>
            <ns3:hr>142</ns3:hr>
          </ns3:TrackPointExtension>
        </extensions>
      </trkpt>
      <trkpt lat="46.65653186850249767303466796875" lon="6.84955121017992496490478515625">
        <ele>711.4000244140625</ele>
        <time>2013-08-15T16:25:04.000Z</time>
        <extensions>
          <ns3:TrackPointExtension>
            <ns3:atemp>18.0</ns3:atemp>
            <ns3:hr>142</ns3:hr>
          </ns3:TrackPointExtension>
        </extensions>
      </trkpt>
      <trkpt lat="46.65653320960700511932373046875" lon="6.84955003671348094940185546875">
        <ele>711.5999755859375</ele>
        <time>2013-08-15T16:25:05.000Z</time>
        <extensions>
          <ns3:TrackPointExtension>
            <ns3:atemp>18.0</ns3:atemp>
            <ns3:hr>142</ns3:hr>
          </ns3:TrackPointExtension>
        </extensions>
      </trkpt>
      <trkpt lat="46.65652952156960964202880859375" lon="6.84956453740596771240234375">
        <ele>711.79998779296875</ele>
        <time>2013-08-15T16:25:06.000Z</time>
        <extensions>
          <ns3:TrackPointExtension>
            <ns3:atemp>18.0</ns3:atemp>
            <ns3:hr>142</ns3:hr>
          </ns3:TrackPointExtension>
        </extensions>
      </trkpt>
      <trkpt lat="46.6565230675041675567626953125" lon="6.8495707400143146514892578125">
        <ele>711.79998779296875</ele>
        <time>2013-08-15T16:25:07.000Z</time>
        <extensions>
          <ns3:TrackPointExtension>
            <ns3:atemp>18.0</ns3:atemp>
            <ns3:hr>142</ns3:hr>
          </ns3:TrackPointExtension>
        </extensions>
      </trkpt>
      <trkpt lat="46.656518876552581787109375" lon="6.84957501478493213653564453125">
        <ele>712.20001220703125</ele>
        <time>2013-08-15T16:25:08.000Z</time>
        <extensions>
          <ns3:TrackPointExtension>
            <ns3:atemp>18.0</ns3:atemp>
            <ns3:hr>142</ns3:hr>
          </ns3:TrackPointExtension>
        </extensions>
      </trkpt>
      <trkpt lat="46.656512506306171417236328125" lon="6.8495801277458667755126953125">
        <ele>712.4000244140625</ele>
        <time>2013-08-15T16:25:09.000Z</time>
        <extensions>
          <ns3:TrackPointExtension>
            <ns3:atemp>18.0</ns3:atemp>
            <ns3:hr>142</ns3:hr>
          </ns3:TrackPointExtension>
        </extensions>
      </trkpt>
      <trkpt lat="46.65651409886777400970458984375" lon="6.84957954101264476776123046875">
        <ele>712.5999755859375</ele>
        <time>2013-08-15T16:25:10.000Z</time>
        <extensions>
          <ns3:TrackPointExtension>
            <ns3:atemp>18.0</ns3:atemp>
            <ns3:hr>142</ns3:hr>
          </ns3:TrackPointExtension>
        </extensions>
      </trkpt>
      <trkpt lat="46.656501777470111846923828125" lon="6.84958540834486484527587890625">
        <ele>712.79998779296875</ele>
        <time>2013-08-15T16:25:11.000Z</time>
        <extensions>
          <ns3:TrackPointExtension>
            <ns3:atemp>18.0</ns3:atemp>
            <ns3:hr>141</ns3:hr>
          </ns3:TrackPointExtension>
        </extensions>
      </trkpt>
      <trkpt lat="46.656497083604335784912109375" lon="6.84958331286907196044921875">
        <ele>713.20001220703125</ele>
        <time>2013-08-15T16:25:12.000Z</time>
        <extensions>
          <ns3:TrackPointExtension>
            <ns3:atemp>18.0</ns3:atemp>
            <ns3:hr>141</ns3:hr>
          </ns3:TrackPointExtension>
        </extensions>
      </trkpt>
      <trkpt lat="46.65649599395692348480224609375" lon="6.84957652352750301361083984375">
        <ele>713.4000244140625</ele>
        <time>2013-08-15T16:25:13.000Z</time>
        <extensions>
          <ns3:TrackPointExtension>
            <ns3:atemp>18.0</ns3:atemp>
            <ns3:hr>141</ns3:hr>
          </ns3:TrackPointExtension>
        </extensions>
      </trkpt>
      <trkpt lat="46.65649767033755779266357421875" lon="6.8495697341859340667724609375">
        <ele>713.5999755859375</ele>
        <time>2013-08-15T16:25:14.000Z</time>
        <extensions>
          <ns3:TrackPointExtension>
            <ns3:atemp>18.0</ns3:atemp>
            <ns3:hr>141</ns3:hr>
          </ns3:TrackPointExtension>
        </extensions>
      </trkpt>
      <trkpt lat="46.65649683214724063873291015625" lon="6.84956495650112628936767578125">
        <ele>713.5999755859375</ele>
        <time>2013-08-15T16:25:15.000Z</time>
        <extensions>
          <ns3:TrackPointExtension>
            <ns3:atemp>18.0</ns3:atemp>
            <ns3:hr>141</ns3:hr>
          </ns3:TrackPointExtension>
        </extensions>
      </trkpt>
      <trkpt lat="46.65649674832820892333984375" lon="6.84955858625471591949462890625">
        <ele>713.79998779296875</ele>
        <time>2013-08-15T16:25:16.000Z</time>
        <extensions>
          <ns3:TrackPointExtension>
            <ns3:atemp>18.0</ns3:atemp>
            <ns3:hr>140</ns3:hr>
          </ns3:TrackPointExtension>
        </extensions>
      </trkpt>
      <trkpt lat="46.65649331174790859222412109375" lon="6.849556155502796173095703125">
        <ele>713.5999755859375</ele>
        <time>2013-08-15T16:25:17.000Z</time>
        <extensions>
          <ns3:TrackPointExtension>
            <ns3:atemp>18.0</ns3:atemp>
            <ns3:hr>140</ns3:hr>
          </ns3:TrackPointExtension>
        </extensions>
      </trkpt>
      <trkpt lat="46.65649331174790859222412109375" lon="6.849556155502796173095703125">
        <ele>713.79998779296875</ele>
        <time>2013-08-15T16:25:18.000Z</time>
        <extensions>
          <ns3:TrackPointExtension>
            <ns3:atemp>18.0</ns3:atemp>
            <ns3:hr>139</ns3:hr>
          </ns3:TrackPointExtension>
        </extensions>
      </trkpt>
      <trkpt lat="46.65649331174790859222412109375" lon="6.849556155502796173095703125">
        <ele>713.5999755859375</ele>
        <time>2013-08-15T16:25:19.000Z</time>
        <extensions>
          <ns3:TrackPointExtension>
            <ns3:atemp>18.0</ns3:atemp>
            <ns3:hr>139</ns3:hr>
          </ns3:TrackPointExtension>
        </extensions>
      </trkpt>
      <trkpt lat="46.65649331174790859222412109375" lon="6.849556155502796173095703125">
        <ele>713.5999755859375</ele>
        <time>2013-08-15T16:25:20.000Z</time>
        <extensions>
          <ns3:TrackPointExtension>
            <ns3:atemp>18.0</ns3:atemp>
            <ns3:hr>139</ns3:hr>
          </ns3:TrackPointExtension>
        </extensions>
      </trkpt>
      <trkpt lat="46.65649331174790859222412109375" lon="6.849556155502796173095703125">
        <ele>713.5999755859375</ele>
        <time>2013-08-15T16:25:21.000Z</time>
        <extensions>
          <ns3:TrackPointExtension>
            <ns3:atemp>18.0</ns3:atemp>
            <ns3:hr>139</ns3:hr>
          </ns3:TrackPointExtension>
        </extensions>
      </trkpt>
      <trkpt lat="46.65649331174790859222412109375" lon="6.849556155502796173095703125">
        <ele>713.5999755859375</ele>
        <time>2013-08-15T16:25:22.000Z</time>
        <extensions>
          <ns3:TrackPointExtension>
            <ns3:atemp>18.0</ns3:atemp>
            <ns3:hr>138</ns3:hr>
          </ns3:TrackPointExtension>
        </extensions>
      </trkpt>
      <trkpt lat="46.6564925573766231536865234375" lon="6.84955112636089324951171875">
        <ele>713.79998779296875</ele>
        <time>2013-08-15T16:25:23.000Z</time>
        <extensions>
          <ns3:TrackPointExtension>
            <ns3:atemp>18.0</ns3:atemp>
            <ns3:hr>138</ns3:hr>
          </ns3:TrackPointExtension>
        </extensions>
      </trkpt>
      <trkpt lat="46.65648937225341796875" lon="6.84954685159027576446533203125">
        <ele>713.79998779296875</ele>
        <time>2013-08-15T16:25:24.000Z</time>
        <extensions>
          <ns3:TrackPointExtension>
            <ns3:atemp>18.0</ns3:atemp>
            <ns3:hr>138</ns3:hr>
          </ns3:TrackPointExtension>
        </extensions>
      </trkpt>
      <trkpt lat="46.65648476220667362213134765625" lon="6.84954199008643627166748046875">
        <ele>714</ele>
        <time>2013-08-15T16:25:25.000Z</time>
        <extensions>
          <ns3:TrackPointExtension>
            <ns3:atemp>18.0</ns3:atemp>
            <ns3:hr>137</ns3:hr>
          </ns3:TrackPointExtension>
        </extensions>
      </trkpt>
      <trkpt lat="46.65647705085575580596923828125" lon="6.8495355360209941864013671875">
        <ele>714.20001220703125</ele>
        <time>2013-08-15T16:25:26.000Z</time>
        <extensions>
          <ns3:TrackPointExtension>
            <ns3:atemp>18.0</ns3:atemp>
            <ns3:hr>137</ns3:hr>
          </ns3:TrackPointExtension>
        </extensions>
      </trkpt>
      <trkpt lat="46.6564660705626010894775390625" lon="6.84952723793685436248779296875">
        <ele>714.20001220703125</ele>
        <time>2013-08-15T16:25:27.000Z</time>
        <extensions>
          <ns3:TrackPointExtension>
            <ns3:atemp>18.0</ns3:atemp>
            <ns3:hr>136</ns3:hr>
          </ns3:TrackPointExtension>
        </extensions>
      </trkpt>
      <trkpt lat="46.656449474394321441650390625" lon="6.8495140783488750457763671875">
        <ele>714.4000244140625</ele>
        <time>2013-08-15T16:25:28.000Z</time>
        <extensions>
          <ns3:TrackPointExtension>
            <ns3:atemp>18.0</ns3:atemp>
            <ns3:hr>136</ns3:hr>
          </ns3:TrackPointExtension>
        </extensions>
      </trkpt>
      <trkpt lat="46.6564318723976612091064453125" lon="6.84950108639895915985107421875">
        <ele>714.5999755859375</ele>
        <time>2013-08-15T16:25:29.000Z</time>
        <extensions>
          <ns3:TrackPointExtension>
            <ns3:atemp>18.0</ns3:atemp>
            <ns3:hr>136</ns3:hr>
          </ns3:TrackPointExtension>
        </extensions>
      </trkpt>
      <trkpt lat="46.65641284547746181488037109375" lon="6.84949018992483615875244140625">
        <ele>715</ele>
        <time>2013-08-15T16:25:30.000Z</time>
        <extensions>
          <ns3:TrackPointExtension>
            <ns3:atemp>18.0</ns3:atemp>
            <ns3:hr>136</ns3:hr>
          </ns3:TrackPointExtension>
        </extensions>
      </trkpt>
      <trkpt lat="46.65639189071953296661376953125" lon="6.8494713306427001953125">
        <ele>715</ele>
        <time>2013-08-15T16:25:31.000Z</time>
        <extensions>
          <ns3:TrackPointExtension>
            <ns3:atemp>18.0</ns3:atemp>
            <ns3:hr>136</ns3:hr>
          </ns3:TrackPointExtension>
        </extensions>
      </trkpt>
      <trkpt lat="46.656373701989650726318359375" lon="6.8494493700563907623291015625">
        <ele>715.20001220703125</ele>
        <time>2013-08-15T16:25:32.000Z</time>
        <extensions>
          <ns3:TrackPointExtension>
            <ns3:atemp>18.0</ns3:atemp>
            <ns3:hr>135</ns3:hr>
          </ns3:TrackPointExtension>
        </extensions>
      </trkpt>
      <trkpt lat="46.6563597880303859710693359375" lon="6.84942933730781078338623046875">
        <ele>715.4000244140625</ele>
        <time>2013-08-15T16:25:33.000Z</time>
        <extensions>
          <ns3:TrackPointExtension>
            <ns3:atemp>18.0</ns3:atemp>
            <ns3:hr>135</ns3:hr>
          </ns3:TrackPointExtension>
        </extensions>
      </trkpt>
      <trkpt lat="46.65635199286043643951416015625" lon="6.84941005893051624298095703125">
        <ele>715.5999755859375</ele>
        <time>2013-08-15T16:25:34.000Z</time>
        <extensions>
          <ns3:TrackPointExtension>
            <ns3:atemp>18.0</ns3:atemp>
            <ns3:hr>134</ns3:hr>
          </ns3:TrackPointExtension>
        </extensions>
      </trkpt>
      <trkpt lat="46.656347215175628662109375" lon="6.84939128346741199493408203125">
        <ele>715.79998779296875</ele>
        <time>2013-08-15T16:25:35.000Z</time>
        <extensions>
          <ns3:TrackPointExtension>
            <ns3:atemp>18.0</ns3:atemp>
            <ns3:hr>134</ns3:hr>
          </ns3:TrackPointExtension>
        </extensions>
      </trkpt>
      <trkpt lat="46.656347215175628662109375" lon="6.84939421713352203369140625">
        <ele>716</ele>
        <time>2013-08-15T16:25:36.000Z</time>
        <extensions>
          <ns3:TrackPointExtension>
            <ns3:atemp>18.0</ns3:atemp>
            <ns3:hr>134</ns3:hr>
          </ns3:TrackPointExtension>
        </extensions>
      </trkpt>
      <trkpt lat="46.65633321739733219146728515625" lon="6.849363707005977630615234375">
        <ele>716.20001220703125</ele>
        <time>2013-08-15T16:25:37.000Z</time>
        <extensions>
          <ns3:TrackPointExtension>
            <ns3:atemp>18.0</ns3:atemp>
            <ns3:hr>134</ns3:hr>
          </ns3:TrackPointExtension>
        </extensions>
      </trkpt>
      <trkpt lat="46.6563229076564311981201171875" lon="6.8493507988750934600830078125">
        <ele>716.5999755859375</ele>
        <time>2013-08-15T16:25:38.000Z</time>
        <extensions>
          <ns3:TrackPointExtension>
            <ns3:atemp>18.0</ns3:atemp>
            <ns3:hr>134</ns3:hr>
          </ns3:TrackPointExtension>
        </extensions>
      </trkpt>
      <trkpt lat="46.65631008334457874298095703125" lon="6.8493397347629070281982421875">
        <ele>716.79998779296875</ele>
        <time>2013-08-15T16:25:39.000Z</time>
        <extensions>
          <ns3:TrackPointExtension>
            <ns3:atemp>18.0</ns3:atemp>
            <ns3:hr>134</ns3:hr>
          </ns3:TrackPointExtension>
        </extensions>
      </trkpt>
      <trkpt lat="46.6562934033572673797607421875" lon="6.84932875446975231170654296875">
        <ele>716.79998779296875</ele>
        <time>2013-08-15T16:25:40.000Z</time>
        <extensions>
          <ns3:TrackPointExtension>
            <ns3:atemp>18.0</ns3:atemp>
            <ns3:hr>133</ns3:hr>
          </ns3:TrackPointExtension>
        </extensions>
      </trkpt>
      <trkpt lat="46.656278483569622039794921875" lon="6.849316768348217010498046875">
        <ele>717</ele>
        <time>2013-08-15T16:25:41.000Z</time>
        <extensions>
          <ns3:TrackPointExtension>
            <ns3:atemp>18.0</ns3:atemp>
            <ns3:hr>133</ns3:hr>
          </ns3:TrackPointExtension>
        </extensions>
      </trkpt>
      <trkpt lat="46.65626146830618381500244140625" lon="6.84930159710347652435302734375">
        <ele>717</ele>
        <time>2013-08-15T16:25:42.000Z</time>
        <extensions>
          <ns3:TrackPointExtension>
            <ns3:atemp>18.0</ns3:atemp>
            <ns3:hr>133</ns3:hr>
          </ns3:TrackPointExtension>
        </extensions>
      </trkpt>
      <trkpt lat="46.65624017827212810516357421875" lon="6.84929019771516323089599609375">
        <ele>717.4000244140625</ele>
        <time>2013-08-15T16:25:43.000Z</time>
        <extensions>
          <ns3:TrackPointExtension>
            <ns3:atemp>18.0</ns3:atemp>
            <ns3:hr>134</ns3:hr>
          </ns3:TrackPointExtension>
        </extensions>
      </trkpt>
      <trkpt lat="46.6562250070273876190185546875" lon="6.84928114525973796844482421875">
        <ele>717.5999755859375</ele>
        <time>2013-08-15T16:25:44.000Z</time>
        <extensions>
          <ns3:TrackPointExtension>
            <ns3:atemp>18.0</ns3:atemp>
            <ns3:hr>134</ns3:hr>
          </ns3:TrackPointExtension>
        </extensions>
      </trkpt>
      <trkpt lat="46.65620882995426654815673828125" lon="6.849269829690456390380859375">
        <ele>717.79998779296875</ele>
        <time>2013-08-15T16:25:45.000Z</time>
        <extensions>
          <ns3:TrackPointExtension>
            <ns3:atemp>18.0</ns3:atemp>
            <ns3:hr>134</ns3:hr>
          </ns3:TrackPointExtension>
        </extensions>
      </trkpt>
      <trkpt lat="46.6561924852430820465087890625" lon="6.84926371090114116668701171875">
        <ele>718.20001220703125</ele>
        <time>2013-08-15T16:25:46.000Z</time>
        <extensions>
          <ns3:TrackPointExtension>
            <ns3:atemp>18.0</ns3:atemp>
            <ns3:hr>135</ns3:hr>
          </ns3:TrackPointExtension>
        </extensions>
      </trkpt>
      <trkpt lat="46.656194664537906646728515625" lon="6.84926412999629974365234375">
        <ele>718.5999755859375</ele>
        <time>2013-08-15T16:25:47.000Z</time>
        <extensions>
          <ns3:TrackPointExtension>
            <ns3:atemp>18.0</ns3:atemp>
            <ns3:hr>135</ns3:hr>
          </ns3:TrackPointExtension>
        </extensions>
      </trkpt>
      <trkpt lat="46.6561567783355712890625" lon="6.84925247915089130401611328125">
        <ele>718.79998779296875</ele>
        <time>2013-08-15T16:25:48.000Z</time>
        <extensions>
          <ns3:TrackPointExtension>
            <ns3:atemp>18.0</ns3:atemp>
            <ns3:hr>135</ns3:hr>
          </ns3:TrackPointExtension>
        </extensions>
      </trkpt>
      <trkpt lat="46.6561374999582767486572265625" lon="6.84923999011516571044921875">
        <ele>719</ele>
        <time>2013-08-15T16:25:49.000Z</time>
        <extensions>
          <ns3:TrackPointExtension>
            <ns3:atemp>18.0</ns3:atemp>
            <ns3:hr>136</ns3:hr>
          </ns3:TrackPointExtension>
        </extensions>
      </trkpt>
      <trkpt lat="46.65611713193356990814208984375" lon="6.8492260761559009552001953125">
        <ele>719.20001220703125</ele>
        <time>2013-08-15T16:25:50.000Z</time>
        <extensions>
          <ns3:TrackPointExtension>
            <ns3:atemp>18.0</ns3:atemp>
            <ns3:hr>137</ns3:hr>
          </ns3:TrackPointExtension>
        </extensions>
      </trkpt>
      <trkpt lat="46.6560992784798145294189453125" lon="6.84921107254922389984130859375">
        <ele>719.4000244140625</ele>
        <time>2013-08-15T16:25:51.000Z</time>
        <extensions>
          <ns3:TrackPointExtension>
            <ns3:atemp>18.0</ns3:atemp>
            <ns3:hr>138</ns3:hr>
          </ns3:TrackPointExtension>
        </extensions>
      </trkpt>
      <trkpt lat="46.6560815088450908660888671875" lon="6.8491948954761028289794921875">
        <ele>719.5999755859375</ele>
        <time>2013-08-15T16:25:52.000Z</time>
        <extensions>
          <ns3:TrackPointExtension>
            <ns3:atemp>18.0</ns3:atemp>
            <ns3:hr>138</ns3:hr>
          </ns3:TrackPointExtension>
        </extensions>
      </trkpt>
      <trkpt lat="46.6560657508671283721923828125" lon="6.8491801433265209197998046875">
        <ele>719.79998779296875</ele>
        <time>2013-08-15T16:25:53.000Z</time>
        <extensions>
          <ns3:TrackPointExtension>
            <ns3:atemp>18.0</ns3:atemp>
            <ns3:hr>139</ns3:hr>
          </ns3:TrackPointExtension>
        </extensions>
      </trkpt>
      <trkpt lat="46.65604957379400730133056640625" lon="6.8491620384156703948974609375">
        <ele>720</ele>
        <time>2013-08-15T16:25:54.000Z</time>
        <extensions>
          <ns3:TrackPointExtension>
            <ns3:atemp>18.0</ns3:atemp>
            <ns3:hr>139</ns3:hr>
          </ns3:TrackPointExtension>
        </extensions>
      </trkpt>
      <trkpt lat="46.65603247471153736114501953125" lon="6.84914904646575450897216796875">
        <ele>720.20001220703125</ele>
        <time>2013-08-15T16:25:55.000Z</time>
        <extensions>
          <ns3:TrackPointExtension>
            <ns3:atemp>18.0</ns3:atemp>
            <ns3:hr>139</ns3:hr>
          </ns3:TrackPointExtension>
        </extensions>
      </trkpt>
      <trkpt lat="46.6560151241719722747802734375" lon="6.849135048687458038330078125">
        <ele>720.4000244140625</ele>
        <time>2013-08-15T16:25:56.000Z</time>
        <extensions>
          <ns3:TrackPointExtension>
            <ns3:atemp>18.0</ns3:atemp>
            <ns3:hr>140</ns3:hr>
          </ns3:TrackPointExtension>
        </extensions>
      </trkpt>
      <trkpt lat="46.6559976898133754730224609375" lon="6.849120296537876129150390625">
        <ele>720.4000244140625</ele>
        <time>2013-08-15T16:25:57.000Z</time>
        <extensions>
          <ns3:TrackPointExtension>
            <ns3:atemp>18.0</ns3:atemp>
            <ns3:hr>140</ns3:hr>
          </ns3:TrackPointExtension>
        </extensions>
      </trkpt>
      <trkpt lat="46.6559789143502712249755859375" lon="6.849105544388294219970703125">
        <ele>720.5999755859375</ele>
        <time>2013-08-15T16:25:58.000Z</time>
        <extensions>
          <ns3:TrackPointExtension>
            <ns3:atemp>18.0</ns3:atemp>
            <ns3:hr>140</ns3:hr>
          </ns3:TrackPointExtension>
        </extensions>
      </trkpt>
      <trkpt lat="46.65596407838165760040283203125" lon="6.8490882776677608489990234375">
        <ele>720.5999755859375</ele>
        <time>2013-08-15T16:25:59.000Z</time>
        <extensions>
          <ns3:TrackPointExtension>
            <ns3:atemp>18.0</ns3:atemp>
            <ns3:hr>140</ns3:hr>
          </ns3:TrackPointExtension>
        </extensions>
      </trkpt>
      <trkpt lat="46.65595351718366146087646484375" lon="6.84906908310949802398681640625">
        <ele>721</ele>
        <time>2013-08-15T16:26:00.000Z</time>
        <extensions>
          <ns3:TrackPointExtension>
            <ns3:atemp>18.0</ns3:atemp>
            <ns3:hr>140</ns3:hr>
          </ns3:TrackPointExtension>
        </extensions>
      </trkpt>
      <trkpt lat="46.65593893267214298248291015625" lon="6.84904661960899829864501953125">
        <ele>721.20001220703125</ele>
        <time>2013-08-15T16:26:01.000Z</time>
        <extensions>
          <ns3:TrackPointExtension>
            <ns3:atemp>18.0</ns3:atemp>
            <ns3:hr>140</ns3:hr>
          </ns3:TrackPointExtension>
        </extensions>
      </trkpt>
      <trkpt lat="46.655925773084163665771484375" lon="6.849023401737213134765625">
        <ele>721.4000244140625</ele>
        <time>2013-08-15T16:26:02.000Z</time>
        <extensions>
          <ns3:TrackPointExtension>
            <ns3:atemp>18.0</ns3:atemp>
            <ns3:hr>140</ns3:hr>
          </ns3:TrackPointExtension>
        </extensions>
      </trkpt>
      <trkpt lat="46.65591194294393062591552734375" lon="6.848996579647064208984375">
        <ele>721.5999755859375</ele>
        <time>2013-08-15T16:26:03.000Z</time>
        <extensions>
          <ns3:TrackPointExtension>
            <ns3:atemp>18.0</ns3:atemp>
            <ns3:hr>140</ns3:hr>
          </ns3:TrackPointExtension>
        </extensions>
      </trkpt>
      <trkpt lat="46.6558977775275707244873046875" lon="6.84897369705140590667724609375">
        <ele>721.79998779296875</ele>
        <time>2013-08-15T16:26:04.000Z</time>
        <extensions>
          <ns3:TrackPointExtension>
            <ns3:atemp>18.0</ns3:atemp>
            <ns3:hr>140</ns3:hr>
          </ns3:TrackPointExtension>
        </extensions>
      </trkpt>
      <trkpt lat="46.6558818519115447998046875" lon="6.84895626269280910491943359375">
        <ele>721.79998779296875</ele>
        <time>2013-08-15T16:26:05.000Z</time>
        <extensions>
          <ns3:TrackPointExtension>
            <ns3:atemp>18.0</ns3:atemp>
            <ns3:hr>140</ns3:hr>
          </ns3:TrackPointExtension>
        </extensions>
      </trkpt>
      <trkpt lat="46.655863411724567413330078125" lon="6.84893824160099029541015625">
        <ele>722</ele>
        <time>2013-08-15T16:26:06.000Z</time>
        <extensions>
          <ns3:TrackPointExtension>
            <ns3:atemp>18.0</ns3:atemp>
            <ns3:hr>140</ns3:hr>
          </ns3:TrackPointExtension>
        </extensions>
      </trkpt>
      <trkpt lat="46.6558469831943511962890625" lon="6.8489223159849643707275390625">
        <ele>722.20001220703125</ele>
        <time>2013-08-15T16:26:07.000Z</time>
        <extensions>
          <ns3:TrackPointExtension>
            <ns3:atemp>18.0</ns3:atemp>
            <ns3:hr>140</ns3:hr>
          </ns3:TrackPointExtension>
        </extensions>
      </trkpt>
      <trkpt lat="46.65582980029284954071044921875" lon="6.84890178032219409942626953125">
        <ele>722.5999755859375</ele>
        <time>2013-08-15T16:26:08.000Z</time>
        <extensions>
          <ns3:TrackPointExtension>
            <ns3:atemp>18.0</ns3:atemp>
            <ns3:hr>140</ns3:hr>
          </ns3:TrackPointExtension>
        </extensions>
      </trkpt>
      <trkpt lat="46.6558089293539524078369140625" lon="6.84888049028813838958740234375">
        <ele>722.79998779296875</ele>
        <time>2013-08-15T16:26:09.000Z</time>
        <extensions>
          <ns3:TrackPointExtension>
            <ns3:atemp>18.0</ns3:atemp>
            <ns3:hr>140</ns3:hr>
          </ns3:TrackPointExtension>
        </extensions>
      </trkpt>
      <trkpt lat="46.6557904891669750213623046875" lon="6.84886557050049304962158203125">
        <ele>723</ele>
        <time>2013-08-15T16:26:10.000Z</time>
        <extensions>
          <ns3:TrackPointExtension>
            <ns3:atemp>18.0</ns3:atemp>
            <ns3:hr>140</ns3:hr>
          </ns3:TrackPointExtension>
        </extensions>
      </trkpt>
      <trkpt lat="46.6557703725993633270263671875" lon="6.848850063979625701904296875">
        <ele>723.20001220703125</ele>
        <time>2013-08-15T16:26:11.000Z</time>
        <extensions>
          <ns3:TrackPointExtension>
            <ns3:atemp>18.0</ns3:atemp>
            <ns3:hr>140</ns3:hr>
          </ns3:TrackPointExtension>
        </extensions>
      </trkpt>
      <trkpt lat="46.65574849583208560943603515625" lon="6.84883296489715576171875">
        <ele>723.4000244140625</ele>
        <time>2013-08-15T16:26:12.000Z</time>
        <extensions>
          <ns3:TrackPointExtension>
            <ns3:atemp>18.0</ns3:atemp>
            <ns3:hr>140</ns3:hr>
          </ns3:TrackPointExtension>
        </extensions>
      </trkpt>
      <trkpt lat="46.65572452358901500701904296875" lon="6.84881343506276607513427734375">
        <ele>723.4000244140625</ele>
        <time>2013-08-15T16:26:13.000Z</time>
        <extensions>
          <ns3:TrackPointExtension>
            <ns3:atemp>18.0</ns3:atemp>
            <ns3:hr>140</ns3:hr>
          </ns3:TrackPointExtension>
        </extensions>
      </trkpt>
      <trkpt lat="46.65570474229753017425537109375" lon="6.84879004955291748046875">
        <ele>723.5999755859375</ele>
        <time>2013-08-15T16:26:14.000Z</time>
        <extensions>
          <ns3:TrackPointExtension>
            <ns3:atemp>18.0</ns3:atemp>
            <ns3:hr>140</ns3:hr>
          </ns3:TrackPointExtension>
        </extensions>
      </trkpt>
      <trkpt lat="46.65568613447248935699462890625" lon="6.84876984916627407073974609375">
        <ele>723.79998779296875</ele>
        <time>2013-08-15T16:26:15.000Z</time>
        <extensions>
          <ns3:TrackPointExtension>
            <ns3:atemp>18.0</ns3:atemp>
            <ns3:hr>141</ns3:hr>
          </ns3:TrackPointExtension>
        </extensions>
      </trkpt>
      <trkpt lat="46.655668951570987701416015625" lon="6.84875140897929668426513671875">
        <ele>724</ele>
        <time>2013-08-15T16:26:16.000Z</time>
        <extensions>
          <ns3:TrackPointExtension>
            <ns3:atemp>18.0</ns3:atemp>
            <ns3:hr>141</ns3:hr>
          </ns3:TrackPointExtension>
        </extensions>
      </trkpt>
      <trkpt lat="46.65565361268818378448486328125" lon="6.84873640537261962890625">
        <ele>724.20001220703125</ele>
        <time>2013-08-15T16:26:17.000Z</time>
        <extensions>
          <ns3:TrackPointExtension>
            <ns3:atemp>18.0</ns3:atemp>
            <ns3:hr>141</ns3:hr>
          </ns3:TrackPointExtension>
        </extensions>
      </trkpt>
      <trkpt lat="46.655635423958301544189453125" lon="6.84872173704206943511962890625">
        <ele>724.4000244140625</ele>
        <time>2013-08-15T16:26:18.000Z</time>
        <extensions>
          <ns3:TrackPointExtension>
            <ns3:atemp>18.0</ns3:atemp>
            <ns3:hr>141</ns3:hr>
          </ns3:TrackPointExtension>
        </extensions>
      </trkpt>
      <trkpt lat="46.6556107811629772186279296875" lon="6.84869910590350627899169921875">
        <ele>724.5999755859375</ele>
        <time>2013-08-15T16:26:19.000Z</time>
        <extensions>
          <ns3:TrackPointExtension>
            <ns3:atemp>18.0</ns3:atemp>
            <ns3:hr>141</ns3:hr>
          </ns3:TrackPointExtension>
        </extensions>
      </trkpt>
      <trkpt lat="46.655587814748287200927734375" lon="6.8486765585839748382568359375">
        <ele>724.79998779296875</ele>
        <time>2013-08-15T16:26:20.000Z</time>
        <extensions>
          <ns3:TrackPointExtension>
            <ns3:atemp>18.0</ns3:atemp>
            <ns3:hr>142</ns3:hr>
          </ns3:TrackPointExtension>
        </extensions>
      </trkpt>
      <trkpt lat="46.65556727908551692962646484375" lon="6.8486540950834751129150390625">
        <ele>725</ele>
        <time>2013-08-15T16:26:21.000Z</time>
        <extensions>
          <ns3:TrackPointExtension>
            <ns3:atemp>18.0</ns3:atemp>
            <ns3:hr>142</ns3:hr>
          </ns3:TrackPointExtension>
        </extensions>
      </trkpt>
      <trkpt lat="46.655546240508556365966796875" lon="6.84863037429749965667724609375">
        <ele>725.4000244140625</ele>
        <time>2013-08-15T16:26:22.000Z</time>
        <extensions>
          <ns3:TrackPointExtension>
            <ns3:atemp>18.0</ns3:atemp>
            <ns3:hr>142</ns3:hr>
          </ns3:TrackPointExtension>
        </extensions>
      </trkpt>
      <trkpt lat="46.65552687831223011016845703125" lon="6.84860506094992160797119140625">
        <ele>725.5999755859375</ele>
        <time>2013-08-15T16:26:23.000Z</time>
        <extensions>
          <ns3:TrackPointExtension>
            <ns3:atemp>18.0</ns3:atemp>
            <ns3:hr>142</ns3:hr>
          </ns3:TrackPointExtension>
        </extensions>
      </trkpt>
      <trkpt lat="46.655510030686855316162109375" lon="6.848579160869121551513671875">
        <ele>725.79998779296875</ele>
        <time>2013-08-15T16:26:24.000Z</time>
        <extensions>
          <ns3:TrackPointExtension>
            <ns3:atemp>18.0</ns3:atemp>
            <ns3:hr>142</ns3:hr>
          </ns3:TrackPointExtension>
        </extensions>
      </trkpt>
      <trkpt lat="46.65549536235630512237548828125" lon="6.8485592119395732879638671875">
        <ele>726.20001220703125</ele>
        <time>2013-08-15T16:26:25.000Z</time>
        <extensions>
          <ns3:TrackPointExtension>
            <ns3:atemp>18.0</ns3:atemp>
            <ns3:hr>143</ns3:hr>
          </ns3:TrackPointExtension>
        </extensions>
      </trkpt>
      <trkpt lat="46.65547792799770832061767578125" lon="6.84853767044842243194580078125">
        <ele>726.4000244140625</ele>
        <time>2013-08-15T16:26:26.000Z</time>
        <extensions>
          <ns3:TrackPointExtension>
            <ns3:atemp>18.0</ns3:atemp>
            <ns3:hr>143</ns3:hr>
          </ns3:TrackPointExtension>
        </extensions>
      </trkpt>
      <trkpt lat="46.6554615832865238189697265625" lon="6.84851772151887416839599609375">
        <ele>726.5999755859375</ele>
        <time>2013-08-15T16:26:27.000Z</time>
        <extensions>
          <ns3:TrackPointExtension>
            <ns3:atemp>18.0</ns3:atemp>
            <ns3:hr>144</ns3:hr>
          </ns3:TrackPointExtension>
        </extensions>
      </trkpt>
      <trkpt lat="46.65544557385146617889404296875" lon="6.84850037097930908203125">
        <ele>727</ele>
        <time>2013-08-15T16:26:28.000Z</time>
        <extensions>
          <ns3:TrackPointExtension>
            <ns3:atemp>18.0</ns3:atemp>
            <ns3:hr>144</ns3:hr>
          </ns3:TrackPointExtension>
        </extensions>
      </trkpt>
      <trkpt lat="46.65543367154896259307861328125" lon="6.84848067350685596466064453125">
        <ele>727.20001220703125</ele>
        <time>2013-08-15T16:26:29.000Z</time>
        <extensions>
          <ns3:TrackPointExtension>
            <ns3:atemp>18.0</ns3:atemp>
            <ns3:hr>144</ns3:hr>
          </ns3:TrackPointExtension>
        </extensions>
      </trkpt>
      <trkpt lat="46.655434928834438323974609375" lon="6.84848335571587085723876953125">
        <ele>727.4000244140625</ele>
        <time>2013-08-15T16:26:30.000Z</time>
        <extensions>
          <ns3:TrackPointExtension>
            <ns3:atemp>18.0</ns3:atemp>
            <ns3:hr>144</ns3:hr>
          </ns3:TrackPointExtension>
        </extensions>
      </trkpt>
      <trkpt lat="46.6554159857332706451416015625" lon="6.84844614006578922271728515625">
        <ele>727.5999755859375</ele>
        <time>2013-08-15T16:26:31.000Z</time>
        <extensions>
          <ns3:TrackPointExtension>
            <ns3:atemp>18.0</ns3:atemp>
            <ns3:hr>144</ns3:hr>
          </ns3:TrackPointExtension>
        </extensions>
      </trkpt>
      <trkpt lat="46.65540701709687709808349609375" lon="6.84842451475560665130615234375">
        <ele>727.79998779296875</ele>
        <time>2013-08-15T16:26:32.000Z</time>
        <extensions>
          <ns3:TrackPointExtension>
            <ns3:atemp>18.0</ns3:atemp>
            <ns3:hr>145</ns3:hr>
          </ns3:TrackPointExtension>
        </extensions>
      </trkpt>
      <trkpt lat="46.65539394132792949676513671875" lon="6.848397441208362579345703125">
        <ele>728</ele>
        <time>2013-08-15T16:26:33.000Z</time>
        <extensions>
          <ns3:TrackPointExtension>
            <ns3:atemp>18.0</ns3:atemp>
            <ns3:hr>145</ns3:hr>
          </ns3:TrackPointExtension>
        </extensions>
      </trkpt>
      <trkpt lat="46.65537768043577671051025390625" lon="6.848361231386661529541015625">
        <ele>728.20001220703125</ele>
        <time>2013-08-15T16:26:34.000Z</time>
        <extensions>
          <ns3:TrackPointExtension>
            <ns3:atemp>18.0</ns3:atemp>
            <ns3:hr>145</ns3:hr>
          </ns3:TrackPointExtension>
        </extensions>
      </trkpt>
      <trkpt lat="46.65536485612392425537109375" lon="6.84832946397364139556884765625">
        <ele>728.5999755859375</ele>
        <time>2013-08-15T16:26:35.000Z</time>
        <extensions>
          <ns3:TrackPointExtension>
            <ns3:atemp>18.0</ns3:atemp>
            <ns3:hr>145</ns3:hr>
          </ns3:TrackPointExtension>
        </extensions>
      </trkpt>
      <trkpt lat="46.65535672567784786224365234375" lon="6.84830197133123874664306640625">
        <ele>728.79998779296875</ele>
        <time>2013-08-15T16:26:36.000Z</time>
        <extensions>
          <ns3:TrackPointExtension>
            <ns3:atemp>18.0</ns3:atemp>
            <ns3:hr>145</ns3:hr>
          </ns3:TrackPointExtension>
        </extensions>
      </trkpt>
      <trkpt lat="46.65534649975597858428955078125" lon="6.84828051365911960601806640625">
        <ele>729</ele>
        <time>2013-08-15T16:26:37.000Z</time>
        <extensions>
          <ns3:TrackPointExtension>
            <ns3:atemp>18.0</ns3:atemp>
            <ns3:hr>145</ns3:hr>
          </ns3:TrackPointExtension>
        </extensions>
      </trkpt>
      <trkpt lat="46.6553321667015552520751953125" lon="6.84825570322573184967041015625">
        <ele>729</ele>
        <time>2013-08-15T16:26:38.000Z</time>
        <extensions>
          <ns3:TrackPointExtension>
            <ns3:atemp>18.0</ns3:atemp>
            <ns3:hr>145</ns3:hr>
          </ns3:TrackPointExtension>
        </extensions>
      </trkpt>
      <trkpt lat="46.6553200967609882354736328125" lon="6.84823625721037387847900390625">
        <ele>729.20001220703125</ele>
        <time>2013-08-15T16:26:39.000Z</time>
        <extensions>
          <ns3:TrackPointExtension>
            <ns3:atemp>18.0</ns3:atemp>
            <ns3:hr>146</ns3:hr>
          </ns3:TrackPointExtension>
        </extensions>
      </trkpt>
      <trkpt lat="46.65530727244913578033447265625" lon="6.84821345843374729156494140625">
        <ele>729.4000244140625</ele>
        <time>2013-08-15T16:26:40.000Z</time>
        <extensions>
          <ns3:TrackPointExtension>
            <ns3:atemp>18.0</ns3:atemp>
            <ns3:hr>146</ns3:hr>
          </ns3:TrackPointExtension>
        </extensions>
      </trkpt>
      <trkpt lat="46.65530852973461151123046875" lon="6.84821563772857189178466796875">
        <ele>729.79998779296875</ele>
        <time>2013-08-15T16:26:41.000Z</time>
        <extensions>
          <ns3:TrackPointExtension>
            <ns3:atemp>18.0</ns3:atemp>
            <ns3:hr>146</ns3:hr>
          </ns3:TrackPointExtension>
        </extensions>
      </trkpt>
      <trkpt lat="46.65528564713895320892333984375" lon="6.84818127192556858062744140625">
        <ele>730</ele>
        <time>2013-08-15T16:26:42.000Z</time>
        <extensions>
          <ns3:TrackPointExtension>
            <ns3:atemp>18.0</ns3:atemp>
            <ns3:hr>146</ns3:hr>
          </ns3:TrackPointExtension>
        </extensions>
      </trkpt>
      <trkpt lat="46.6552734933793544769287109375" lon="6.8481696210801601409912109375">
        <ele>730.20001220703125</ele>
        <time>2013-08-15T16:26:43.000Z</time>
        <extensions>
          <ns3:TrackPointExtension>
            <ns3:atemp>18.0</ns3:atemp>
            <ns3:hr>146</ns3:hr>
          </ns3:TrackPointExtension>
        </extensions>
      </trkpt>
      <trkpt lat="46.65526167489588260650634765625" lon="6.84815193526446819305419921875">
        <ele>730.4000244140625</ele>
        <time>2013-08-15T16:26:44.000Z</time>
        <extensions>
          <ns3:TrackPointExtension>
            <ns3:atemp>18.0</ns3:atemp>
            <ns3:hr>146</ns3:hr>
          </ns3:TrackPointExtension>
        </extensions>
      </trkpt>
      <trkpt lat="46.655247174203395843505859375" lon="6.848130561411380767822265625">
        <ele>730.5999755859375</ele>
        <time>2013-08-15T16:26:45.000Z</time>
        <extensions>
          <ns3:TrackPointExtension>
            <ns3:atemp>18.0</ns3:atemp>
            <ns3:hr>147</ns3:hr>
          </ns3:TrackPointExtension>
        </extensions>
      </trkpt>
      <trkpt lat="46.65522999130189418792724609375" lon="6.84811170212924480438232421875">
        <ele>731</ele>
        <time>2013-08-15T16:26:46.000Z</time>
        <extensions>
          <ns3:TrackPointExtension>
            <ns3:atemp>18.0</ns3:atemp>
            <ns3:hr>147</ns3:hr>
          </ns3:TrackPointExtension>
        </extensions>
      </trkpt>
      <trkpt lat="46.6552112996578216552734375" lon="6.84809275902807712554931640625">
        <ele>731.20001220703125</ele>
        <time>2013-08-15T16:26:47.000Z</time>
        <extensions>
          <ns3:TrackPointExtension>
            <ns3:atemp>18.0</ns3:atemp>
            <ns3:hr>147</ns3:hr>
          </ns3:TrackPointExtension>
        </extensions>
      </trkpt>
      <trkpt lat="46.65519051253795623779296875" lon="6.84807515703141689300537109375">
        <ele>732</ele>
        <time>2013-08-15T16:26:48.000Z</time>
        <extensions>
          <ns3:TrackPointExtension>
            <ns3:atemp>18.0</ns3:atemp>
            <ns3:hr>147</ns3:hr>
          </ns3:TrackPointExtension>
        </extensions>
      </trkpt>
      <trkpt lat="46.65517014451324939727783203125" lon="6.8480559624731540679931640625">
        <ele>732.20001220703125</ele>
        <time>2013-08-15T16:26:49.000Z</time>
        <extensions>
          <ns3:TrackPointExtension>
            <ns3:atemp>18.0</ns3:atemp>
            <ns3:hr>147</ns3:hr>
          </ns3:TrackPointExtension>
        </extensions>
      </trkpt>
      <trkpt lat="46.65515271015465259552001953125" lon="6.8480403721332550048828125">
        <ele>732.20001220703125</ele>
        <time>2013-08-15T16:26:50.000Z</time>
        <extensions>
          <ns3:TrackPointExtension>
            <ns3:atemp>18.0</ns3:atemp>
            <ns3:hr>148</ns3:hr>
          </ns3:TrackPointExtension>
        </extensions>
      </trkpt>
      <trkpt lat="46.655137538909912109375" lon="6.8480207584798336029052734375">
        <ele>732.4000244140625</ele>
        <time>2013-08-15T16:26:51.000Z</time>
        <extensions>
          <ns3:TrackPointExtension>
            <ns3:atemp>18.0</ns3:atemp>
            <ns3:hr>148</ns3:hr>
          </ns3:TrackPointExtension>
        </extensions>
      </trkpt>
      <trkpt lat="46.655125804245471954345703125" lon="6.8479986302554607391357421875">
        <ele>732.5999755859375</ele>
        <time>2013-08-15T16:26:52.000Z</time>
        <extensions>
          <ns3:TrackPointExtension>
            <ns3:atemp>18.0</ns3:atemp>
            <ns3:hr>148</ns3:hr>
          </ns3:TrackPointExtension>
        </extensions>
      </trkpt>
      <trkpt lat="46.65511541068553924560546875" lon="6.8479801900684833526611328125">
        <ele>733</ele>
        <time>2013-08-15T16:26:53.000Z</time>
        <extensions>
          <ns3:TrackPointExtension>
            <ns3:atemp>18.0</ns3:atemp>
            <ns3:hr>147</ns3:hr>
          </ns3:TrackPointExtension>
        </extensions>
      </trkpt>
      <trkpt lat="46.65510191582143306732177734375" lon="6.84795948676764965057373046875">
        <ele>733.20001220703125</ele>
        <time>2013-08-15T16:26:54.000Z</time>
        <extensions>
          <ns3:TrackPointExtension>
            <ns3:atemp>18.0</ns3:atemp>
            <ns3:hr>148</ns3:hr>
          </ns3:TrackPointExtension>
        </extensions>
      </trkpt>
      <trkpt lat="46.65508951060473918914794921875" lon="6.84794775210320949554443359375">
        <ele>733.4000244140625</ele>
        <time>2013-08-15T16:26:55.000Z</time>
        <extensions>
          <ns3:TrackPointExtension>
            <ns3:atemp>18.0</ns3:atemp>
            <ns3:hr>148</ns3:hr>
          </ns3:TrackPointExtension>
        </extensions>
      </trkpt>
      <trkpt lat="46.6550743393599987030029296875" lon="6.84793584980070590972900390625">
        <ele>733.5999755859375</ele>
        <time>2013-08-15T16:26:56.000Z</time>
        <extensions>
          <ns3:TrackPointExtension>
            <ns3:atemp>18.0</ns3:atemp>
            <ns3:hr>148</ns3:hr>
          </ns3:TrackPointExtension>
        </extensions>
      </trkpt>
      <trkpt lat="46.65505916811525821685791015625" lon="6.84792428277432918548583984375">
        <ele>733.79998779296875</ele>
        <time>2013-08-15T16:26:57.000Z</time>
        <extensions>
          <ns3:TrackPointExtension>
            <ns3:atemp>18.0</ns3:atemp>
            <ns3:hr>149</ns3:hr>
          </ns3:TrackPointExtension>
        </extensions>
      </trkpt>
      <trkpt lat="46.6550444997847080230712890625" lon="6.8479091115295886993408203125">
        <ele>733.79998779296875</ele>
        <time>2013-08-15T16:26:58.000Z</time>
        <extensions>
          <ns3:TrackPointExtension>
            <ns3:atemp>18.0</ns3:atemp>
            <ns3:hr>149</ns3:hr>
          </ns3:TrackPointExtension>
        </extensions>
      </trkpt>
      <trkpt lat="46.65503201074898242950439453125" lon="6.84789259918034076690673828125">
        <ele>734</ele>
        <time>2013-08-15T16:26:59.000Z</time>
        <extensions>
          <ns3:TrackPointExtension>
            <ns3:atemp>18.0</ns3:atemp>
            <ns3:hr>149</ns3:hr>
          </ns3:TrackPointExtension>
        </extensions>
      </trkpt>
      <trkpt lat="46.65502077899873256683349609375" lon="6.84787650592625141143798828125">
        <ele>734.20001220703125</ele>
        <time>2013-08-15T16:27:00.000Z</time>
        <extensions>
          <ns3:TrackPointExtension>
            <ns3:atemp>18.0</ns3:atemp>
            <ns3:hr>149</ns3:hr>
          </ns3:TrackPointExtension>
        </extensions>
      </trkpt>
      <trkpt lat="46.65500602684915065765380859375" lon="6.84785823337733745574951171875">
        <ele>734.4000244140625</ele>
        <time>2013-08-15T16:27:01.000Z</time>
        <extensions>
          <ns3:TrackPointExtension>
            <ns3:atemp>18.0</ns3:atemp>
            <ns3:hr>150</ns3:hr>
          </ns3:TrackPointExtension>
        </extensions>
      </trkpt>
      <trkpt lat="46.654987335205078125" lon="6.84783476404845714569091796875">
        <ele>734.4000244140625</ele>
        <time>2013-08-15T16:27:02.000Z</time>
        <extensions>
          <ns3:TrackPointExtension>
            <ns3:atemp>18.0</ns3:atemp>
            <ns3:hr>149</ns3:hr>
          </ns3:TrackPointExtension>
        </extensions>
      </trkpt>
      <trkpt lat="46.6549667157232761383056640625" lon="6.84780978597700595855712890625">
        <ele>734.20001220703125</ele>
        <time>2013-08-15T16:27:03.000Z</time>
        <extensions>
          <ns3:TrackPointExtension>
            <ns3:atemp>18.0</ns3:atemp>
            <ns3:hr>149</ns3:hr>
          </ns3:TrackPointExtension>
        </extensions>
      </trkpt>
      <trkpt lat="46.65494534187018871307373046875" lon="6.84778095223009586334228515625">
        <ele>734</ele>
        <time>2013-08-15T16:27:04.000Z</time>
        <extensions>
          <ns3:TrackPointExtension>
            <ns3:atemp>18.0</ns3:atemp>
            <ns3:hr>150</ns3:hr>
          </ns3:TrackPointExtension>
        </extensions>
      </trkpt>
      <trkpt lat="46.6549197770655155181884765625" lon="6.847737617790699005126953125">
        <ele>733.79998779296875</ele>
        <time>2013-08-15T16:27:05.000Z</time>
        <extensions>
          <ns3:TrackPointExtension>
            <ns3:atemp>18.0</ns3:atemp>
            <ns3:hr>149</ns3:hr>
          </ns3:TrackPointExtension>
        </extensions>
      </trkpt>
      <trkpt lat="46.65488096885383129119873046875" lon="6.847692690789699554443359375">
        <ele>733.79998779296875</ele>
        <time>2013-08-15T16:27:06.000Z</time>
        <extensions>
          <ns3:TrackPointExtension>
            <ns3:atemp>18.0</ns3:atemp>
            <ns3:hr>149</ns3:hr>
          </ns3:TrackPointExtension>
        </extensions>
      </trkpt>
      <trkpt lat="46.65481626056134700775146484375" lon="6.847642399370670318603515625">
        <ele>733.4000244140625</ele>
        <time>2013-08-15T16:27:07.000Z</time>
        <extensions>
          <ns3:TrackPointExtension>
            <ns3:atemp>18.0</ns3:atemp>
            <ns3:hr>148</ns3:hr>
          </ns3:TrackPointExtension>
        </extensions>
      </trkpt>
      <trkpt lat="46.6547756083309650421142578125" lon="6.84761524200439453125">
        <ele>733.4000244140625</ele>
        <time>2013-08-15T16:27:08.000Z</time>
        <extensions>
          <ns3:TrackPointExtension>
            <ns3:atemp>18.0</ns3:atemp>
            <ns3:hr>148</ns3:hr>
          </ns3:TrackPointExtension>
        </extensions>
      </trkpt>
      <trkpt lat="46.65471752174198627471923828125" lon="6.84757978655397891998291015625">
        <ele>733.4000244140625</ele>
        <time>2013-08-15T16:27:09.000Z</time>
        <extensions>
          <ns3:TrackPointExtension>
            <ns3:atemp>18.0</ns3:atemp>
            <ns3:hr>148</ns3:hr>
          </ns3:TrackPointExtension>
        </extensions>
      </trkpt>
      <trkpt lat="46.65466236881911754608154296875" lon="6.84755262918770313262939453125">
        <ele>733.4000244140625</ele>
        <time>2013-08-15T16:27:10.000Z</time>
        <extensions>
          <ns3:TrackPointExtension>
            <ns3:atemp>18.0</ns3:atemp>
            <ns3:hr>148</ns3:hr>
          </ns3:TrackPointExtension>
        </extensions>
      </trkpt>
      <trkpt lat="46.6546042822301387786865234375" lon="6.84752966277301311492919921875">
        <ele>733.4000244140625</ele>
        <time>2013-08-15T16:27:11.000Z</time>
        <extensions>
          <ns3:TrackPointExtension>
            <ns3:atemp>18.0</ns3:atemp>
            <ns3:hr>147</ns3:hr>
          </ns3:TrackPointExtension>
        </extensions>
      </trkpt>
      <trkpt lat="46.65454351343214511871337890625" lon="6.8475144915282726287841796875">
        <ele>733.5999755859375</ele>
        <time>2013-08-15T16:27:12.000Z</time>
        <extensions>
          <ns3:TrackPointExtension>
            <ns3:atemp>18.0</ns3:atemp>
            <ns3:hr>147</ns3:hr>
          </ns3:TrackPointExtension>
        </extensions>
      </trkpt>
      <trkpt lat="46.65448131971061229705810546875" lon="6.84749387204647064208984375">
        <ele>733.5999755859375</ele>
        <time>2013-08-15T16:27:13.000Z</time>
        <extensions>
          <ns3:TrackPointExtension>
            <ns3:atemp>18.0</ns3:atemp>
            <ns3:hr>146</ns3:hr>
          </ns3:TrackPointExtension>
        </extensions>
      </trkpt>
      <trkpt lat="46.65441812016069889068603515625" lon="6.8474769406020641326904296875">
        <ele>733.5999755859375</ele>
        <time>2013-08-15T16:27:14.000Z</time>
        <extensions>
          <ns3:TrackPointExtension>
            <ns3:atemp>18.0</ns3:atemp>
            <ns3:hr>145</ns3:hr>
          </ns3:TrackPointExtension>
        </extensions>
      </trkpt>
      <trkpt lat="46.65435500442981719970703125" lon="6.8474571593105792999267578125">
        <ele>733.4000244140625</ele>
        <time>2013-08-15T16:27:15.000Z</time>
        <extensions>
          <ns3:TrackPointExtension>
            <ns3:atemp>18.0</ns3:atemp>
            <ns3:hr>145</ns3:hr>
          </ns3:TrackPointExtension>
        </extensions>
      </trkpt>
      <trkpt lat="46.6542975045740604400634765625" lon="6.847436539828777313232421875">
        <ele>733.4000244140625</ele>
        <time>2013-08-15T16:27:16.000Z</time>
        <extensions>
          <ns3:TrackPointExtension>
            <ns3:atemp>18.0</ns3:atemp>
            <ns3:hr>144</ns3:hr>
          </ns3:TrackPointExtension>
        </extensions>
      </trkpt>
      <trkpt lat="46.6542425192892551422119140625" lon="6.84742623008787631988525390625">
        <ele>733.20001220703125</ele>
        <time>2013-08-15T16:27:17.000Z</time>
        <extensions>
          <ns3:TrackPointExtension>
            <ns3:atemp>18.0</ns3:atemp>
            <ns3:hr>144</ns3:hr>
          </ns3:TrackPointExtension>
        </extensions>
      </trkpt>
      <trkpt lat="46.654190383851528167724609375" lon="6.84742287732660770416259765625">
        <ele>733</ele>
        <time>2013-08-15T16:27:18.000Z</time>
        <extensions>
          <ns3:TrackPointExtension>
            <ns3:atemp>18.0</ns3:atemp>
            <ns3:hr>143</ns3:hr>
          </ns3:TrackPointExtension>
        </extensions>
      </trkpt>
      <trkpt lat="46.65414118207991123199462890625" lon="6.84742748737335205078125">
        <ele>733</ele>
        <time>2013-08-15T16:27:19.000Z</time>
        <extensions>
          <ns3:TrackPointExtension>
            <ns3:atemp>18.0</ns3:atemp>
            <ns3:hr>143</ns3:hr>
          </ns3:TrackPointExtension>
        </extensions>
      </trkpt>
      <trkpt lat="46.65409625507891178131103515625" lon="6.84743192978203296661376953125">
        <ele>732.79998779296875</ele>
        <time>2013-08-15T16:27:20.000Z</time>
        <extensions>
          <ns3:TrackPointExtension>
            <ns3:atemp>18.0</ns3:atemp>
            <ns3:hr>142</ns3:hr>
          </ns3:TrackPointExtension>
        </extensions>
      </trkpt>
      <trkpt lat="46.65405082516372203826904296875" lon="6.84744014404714107513427734375">
        <ele>732.79998779296875</ele>
        <time>2013-08-15T16:27:21.000Z</time>
        <extensions>
          <ns3:TrackPointExtension>
            <ns3:atemp>18.0</ns3:atemp>
            <ns3:hr>141</ns3:hr>
          </ns3:TrackPointExtension>
        </extensions>
      </trkpt>
      <trkpt lat="46.654004640877246856689453125" lon="6.847457326948642730712890625">
        <ele>732.79998779296875</ele>
        <time>2013-08-15T16:27:22.000Z</time>
        <extensions>
          <ns3:TrackPointExtension>
            <ns3:atemp>18.0</ns3:atemp>
            <ns3:hr>141</ns3:hr>
          </ns3:TrackPointExtension>
        </extensions>
      </trkpt>
      <trkpt lat="46.653958372771739959716796875" lon="6.8474757671356201171875">
        <ele>732.79998779296875</ele>
        <time>2013-08-15T16:27:23.000Z</time>
        <extensions>
          <ns3:TrackPointExtension>
            <ns3:atemp>18.0</ns3:atemp>
            <ns3:hr>140</ns3:hr>
          </ns3:TrackPointExtension>
        </extensions>
      </trkpt>
      <trkpt lat="46.6539102606475353240966796875" lon="6.84749295003712177276611328125">
        <ele>732.5999755859375</ele>
        <time>2013-08-15T16:27:24.000Z</time>
        <extensions>
          <ns3:TrackPointExtension>
            <ns3:atemp>18.0</ns3:atemp>
            <ns3:hr>139</ns3:hr>
          </ns3:TrackPointExtension>
        </extensions>
      </trkpt>
      <trkpt lat="46.65385686792433261871337890625" lon="6.84751289896667003631591796875">
        <ele>732.20001220703125</ele>
        <time>2013-08-15T16:27:25.000Z</time>
        <extensions>
          <ns3:TrackPointExtension>
            <ns3:atemp>18.0</ns3:atemp>
            <ns3:hr>139</ns3:hr>
          </ns3:TrackPointExtension>
        </extensions>
      </trkpt>
      <trkpt lat="46.65379802696406841278076171875" lon="6.847533769905567169189453125">
        <ele>731.79998779296875</ele>
        <time>2013-08-15T16:27:26.000Z</time>
        <extensions>
          <ns3:TrackPointExtension>
            <ns3:atemp>18.0</ns3:atemp>
            <ns3:hr>139</ns3:hr>
          </ns3:TrackPointExtension>
        </extensions>
      </trkpt>
      <trkpt lat="46.6537466458976268768310546875" lon="6.8475567363202571868896484375">
        <ele>731.20001220703125</ele>
        <time>2013-08-15T16:27:27.000Z</time>
        <extensions>
          <ns3:TrackPointExtension>
            <ns3:atemp>18.0</ns3:atemp>
            <ns3:hr>138</ns3:hr>
          </ns3:TrackPointExtension>
        </extensions>
      </trkpt>
      <trkpt lat="46.65369543246924877166748046875" lon="6.84758372604846954345703125">
        <ele>730.79998779296875</ele>
        <time>2013-08-15T16:27:28.000Z</time>
        <extensions>
          <ns3:TrackPointExtension>
            <ns3:atemp>18.0</ns3:atemp>
            <ns3:hr>138</ns3:hr>
          </ns3:TrackPointExtension>
        </extensions>
      </trkpt>
      <trkpt lat="46.65364396758377552032470703125" lon="6.84761683456599712371826171875">
        <ele>730.20001220703125</ele>
        <time>2013-08-15T16:27:29.000Z</time>
        <extensions>
          <ns3:TrackPointExtension>
            <ns3:atemp>18.0</ns3:atemp>
            <ns3:hr>137</ns3:hr>
          </ns3:TrackPointExtension>
        </extensions>
      </trkpt>
      <trkpt lat="46.6535930894315242767333984375" lon="6.84765690006315708160400390625">
        <ele>729.5999755859375</ele>
        <time>2013-08-15T16:27:30.000Z</time>
        <extensions>
          <ns3:TrackPointExtension>
            <ns3:atemp>18.0</ns3:atemp>
            <ns3:hr>137</ns3:hr>
          </ns3:TrackPointExtension>
        </extensions>
      </trkpt>
      <trkpt lat="46.65354053489863872528076171875" lon="6.84769570827484130859375">
        <ele>728.79998779296875</ele>
        <time>2013-08-15T16:27:31.000Z</time>
        <extensions>
          <ns3:TrackPointExtension>
            <ns3:atemp>18.0</ns3:atemp>
            <ns3:hr>136</ns3:hr>
          </ns3:TrackPointExtension>
        </extensions>
      </trkpt>
      <trkpt lat="46.6534841246902942657470703125" lon="6.8477280624210834503173828125">
        <ele>728.20001220703125</ele>
        <time>2013-08-15T16:27:32.000Z</time>
        <extensions>
          <ns3:TrackPointExtension>
            <ns3:atemp>18.0</ns3:atemp>
            <ns3:hr>135</ns3:hr>
          </ns3:TrackPointExtension>
        </extensions>
      </trkpt>
      <trkpt lat="46.6534281335771083831787109375" lon="6.8477560579776763916015625">
        <ele>728</ele>
        <time>2013-08-15T16:27:33.000Z</time>
        <extensions>
          <ns3:TrackPointExtension>
            <ns3:atemp>18.0</ns3:atemp>
            <ns3:hr>134</ns3:hr>
          </ns3:TrackPointExtension>
        </extensions>
      </trkpt>
      <trkpt lat="46.6533731482923030853271484375" lon="6.84777860529720783233642578125">
        <ele>728</ele>
        <time>2013-08-15T16:27:34.000Z</time>
        <extensions>
          <ns3:TrackPointExtension>
            <ns3:atemp>18.0</ns3:atemp>
            <ns3:hr>134</ns3:hr>
          </ns3:TrackPointExtension>
        </extensions>
      </trkpt>
      <trkpt lat="46.653318665921688079833984375" lon="6.84779218398034572601318359375">
        <ele>728</ele>
        <time>2013-08-15T16:27:35.000Z</time>
        <extensions>
          <ns3:TrackPointExtension>
            <ns3:atemp>18.0</ns3:atemp>
            <ns3:hr>133</ns3:hr>
          </ns3:TrackPointExtension>
        </extensions>
      </trkpt>
      <trkpt lat="46.65326736867427825927734375" lon="6.847806014120578765869140625">
        <ele>727.20001220703125</ele>
        <time>2013-08-15T16:27:36.000Z</time>
        <extensions>
          <ns3:TrackPointExtension>
            <ns3:atemp>18.0</ns3:atemp>
            <ns3:hr>133</ns3:hr>
          </ns3:TrackPointExtension>
        </extensions>
      </trkpt>
      <trkpt lat="46.653219759464263916015625" lon="6.8478175811469554901123046875">
        <ele>727</ele>
        <time>2013-08-15T16:27:37.000Z</time>
        <extensions>
          <ns3:TrackPointExtension>
            <ns3:atemp>18.0</ns3:atemp>
            <ns3:hr>132</ns3:hr>
          </ns3:TrackPointExtension>
        </extensions>
      </trkpt>
      <trkpt lat="46.65317290462553501129150390625" lon="6.8478195928037166595458984375">
        <ele>726.79998779296875</ele>
        <time>2013-08-15T16:27:38.000Z</time>
        <extensions>
          <ns3:TrackPointExtension>
            <ns3:atemp>18.0</ns3:atemp>
            <ns3:hr>131</ns3:hr>
          </ns3:TrackPointExtension>
        </extensions>
      </trkpt>
      <trkpt lat="46.6531280614435672760009765625" lon="6.84782068245112895965576171875">
        <ele>727</ele>
        <time>2013-08-15T16:27:39.000Z</time>
        <extensions>
          <ns3:TrackPointExtension>
            <ns3:atemp>18.0</ns3:atemp>
            <ns3:hr>131</ns3:hr>
          </ns3:TrackPointExtension>
        </extensions>
      </trkpt>
      <trkpt lat="46.653080284595489501953125" lon="6.847814731299877166748046875">
        <ele>727</ele>
        <time>2013-08-15T16:27:40.000Z</time>
        <extensions>
          <ns3:TrackPointExtension>
            <ns3:atemp>18.0</ns3:atemp>
            <ns3:hr>132</ns3:hr>
          </ns3:TrackPointExtension>
        </extensions>
      </trkpt>
      <trkpt lat="46.653025634586811065673828125" lon="6.847799308598041534423828125">
        <ele>727.20001220703125</ele>
        <time>2013-08-15T16:27:41.000Z</time>
        <extensions>
          <ns3:TrackPointExtension>
            <ns3:atemp>18.0</ns3:atemp>
            <ns3:hr>131</ns3:hr>
          </ns3:TrackPointExtension>
        </extensions>
      </trkpt>
      <trkpt lat="46.6529815457761287689208984375" lon="6.84778355062007904052734375">
        <ele>727.4000244140625</ele>
        <time>2013-08-15T16:27:42.000Z</time>
        <extensions>
          <ns3:TrackPointExtension>
            <ns3:atemp>18.0</ns3:atemp>
            <ns3:hr>131</ns3:hr>
          </ns3:TrackPointExtension>
        </extensions>
      </trkpt>
      <trkpt lat="46.65292203426361083984375" lon="6.84776267968118190765380859375">
        <ele>727.4000244140625</ele>
        <time>2013-08-15T16:27:43.000Z</time>
        <extensions>
          <ns3:TrackPointExtension>
            <ns3:atemp>18.0</ns3:atemp>
            <ns3:hr>131</ns3:hr>
          </ns3:TrackPointExtension>
        </extensions>
      </trkpt>
      <trkpt lat="46.65286797098815441131591796875" lon="6.8477511964738368988037109375">
        <ele>727.4000244140625</ele>
        <time>2013-08-15T16:27:44.000Z</time>
        <extensions>
          <ns3:TrackPointExtension>
            <ns3:atemp>18.0</ns3:atemp>
            <ns3:hr>131</ns3:hr>
          </ns3:TrackPointExtension>
        </extensions>
      </trkpt>
      <trkpt lat="46.6528031788766384124755859375" lon="6.8477357737720012664794921875">
        <ele>727.20001220703125</ele>
        <time>2013-08-15T16:27:45.000Z</time>
        <extensions>
          <ns3:TrackPointExtension>
            <ns3:atemp>18.0</ns3:atemp>
            <ns3:hr>132</ns3:hr>
          </ns3:TrackPointExtension>
        </extensions>
      </trkpt>
      <trkpt lat="46.6527374647557735443115234375" lon="6.8477166630327701568603515625">
        <ele>727</ele>
        <time>2013-08-15T16:27:46.000Z</time>
        <extensions>
          <ns3:TrackPointExtension>
            <ns3:atemp>18.0</ns3:atemp>
            <ns3:hr>131</ns3:hr>
          </ns3:TrackPointExtension>
        </extensions>
      </trkpt>
      <trkpt lat="46.6526658833026885986328125" lon="6.8476965464651584625244140625">
        <ele>727.20001220703125</ele>
        <time>2013-08-15T16:27:47.000Z</time>
        <extensions>
          <ns3:TrackPointExtension>
            <ns3:atemp>18.0</ns3:atemp>
            <ns3:hr>131</ns3:hr>
          </ns3:TrackPointExtension>
        </extensions>
      </trkpt>
      <trkpt lat="46.65259187109768390655517578125" lon="6.84767802245914936065673828125">
        <ele>727.20001220703125</ele>
        <time>2013-08-15T16:27:48.000Z</time>
        <extensions>
          <ns3:TrackPointExtension>
            <ns3:atemp>18.0</ns3:atemp>
            <ns3:hr>131</ns3:hr>
          </ns3:TrackPointExtension>
        </extensions>
      </trkpt>
      <trkpt lat="46.65252573788166046142578125" lon="6.84766511432826519012451171875">
        <ele>727.20001220703125</ele>
        <time>2013-08-15T16:27:49.000Z</time>
        <extensions>
          <ns3:TrackPointExtension>
            <ns3:atemp>18.0</ns3:atemp>
            <ns3:hr>131</ns3:hr>
          </ns3:TrackPointExtension>
        </extensions>
      </trkpt>
      <trkpt lat="46.65246538817882537841796875" lon="6.847658492624759674072265625">
        <ele>727.20001220703125</ele>
        <time>2013-08-15T16:27:50.000Z</time>
        <extensions>
          <ns3:TrackPointExtension>
            <ns3:atemp>18.0</ns3:atemp>
            <ns3:hr>131</ns3:hr>
          </ns3:TrackPointExtension>
        </extensions>
      </trkpt>
      <trkpt lat="46.6524062119424343109130859375" lon="6.847659163177013397216796875">
        <ele>727.20001220703125</ele>
        <time>2013-08-15T16:27:51.000Z</time>
        <extensions>
          <ns3:TrackPointExtension>
            <ns3:atemp>18.0</ns3:atemp>
            <ns3:hr>132</ns3:hr>
          </ns3:TrackPointExtension>
        </extensions>
      </trkpt>
      <trkpt lat="46.65234460495412349700927734375" lon="6.8476621806621551513671875">
        <ele>727.5999755859375</ele>
        <time>2013-08-15T16:27:52.000Z</time>
        <extensions>
          <ns3:TrackPointExtension>
            <ns3:atemp>18.0</ns3:atemp>
            <ns3:hr>131</ns3:hr>
          </ns3:TrackPointExtension>
        </extensions>
      </trkpt>
      <trkpt lat="46.652284674346446990966796875" lon="6.847672574222087860107421875">
        <ele>727.79998779296875</ele>
        <time>2013-08-15T16:27:53.000Z</time>
        <extensions>
          <ns3:TrackPointExtension>
            <ns3:atemp>18.0</ns3:atemp>
            <ns3:hr>131</ns3:hr>
          </ns3:TrackPointExtension>
        </extensions>
      </trkpt>
      <trkpt lat="46.6522251628339290618896484375" lon="6.84769746847450733184814453125">
        <ele>728</ele>
        <time>2013-08-15T16:27:54.000Z</time>
        <extensions>
          <ns3:TrackPointExtension>
            <ns3:atemp>18.0</ns3:atemp>
            <ns3:hr>132</ns3:hr>
          </ns3:TrackPointExtension>
        </extensions>
      </trkpt>
      <trkpt lat="46.652163304388523101806640625" lon="6.8477354384958744049072265625">
        <ele>727.4000244140625</ele>
        <time>2013-08-15T16:27:55.000Z</time>
        <extensions>
          <ns3:TrackPointExtension>
            <ns3:atemp>18.0</ns3:atemp>
            <ns3:hr>131</ns3:hr>
          </ns3:TrackPointExtension>
        </extensions>
      </trkpt>
      <trkpt lat="46.6521024517714977264404296875" lon="6.847768127918243408203125">
        <ele>727.20001220703125</ele>
        <time>2013-08-15T16:27:56.000Z</time>
        <extensions>
          <ns3:TrackPointExtension>
            <ns3:atemp>18.0</ns3:atemp>
            <ns3:hr>132</ns3:hr>
          </ns3:TrackPointExtension>
        </extensions>
      </trkpt>
      <trkpt lat="46.65204319171607494354248046875" lon="6.84779201634228229522705078125">
        <ele>726.79998779296875</ele>
        <time>2013-08-15T16:27:57.000Z</time>
        <extensions>
          <ns3:TrackPointExtension>
            <ns3:atemp>18.0</ns3:atemp>
            <ns3:hr>132</ns3:hr>
          </ns3:TrackPointExtension>
        </extensions>
      </trkpt>
      <trkpt lat="46.6519800759851932525634765625" lon="6.8478068523108959197998046875">
        <ele>727</ele>
        <time>2013-08-15T16:27:58.000Z</time>
        <extensions>
          <ns3:TrackPointExtension>
            <ns3:atemp>18.0</ns3:atemp>
            <ns3:hr>132</ns3:hr>
          </ns3:TrackPointExtension>
        </extensions>
      </trkpt>
      <trkpt lat="46.65191561914980411529541015625" lon="6.84781632386147975921630859375">
        <ele>727</ele>
        <time>2013-08-15T16:27:59.000Z</time>
        <extensions>
          <ns3:TrackPointExtension>
            <ns3:atemp>18.0</ns3:atemp>
            <ns3:hr>131</ns3:hr>
          </ns3:TrackPointExtension>
        </extensions>
      </trkpt>
      <trkpt lat="46.65185057558119297027587890625" lon="6.84782302938401699066162109375">
        <ele>727</ele>
        <time>2013-08-15T16:28:00.000Z</time>
        <extensions>
          <ns3:TrackPointExtension>
            <ns3:atemp>18.0</ns3:atemp>
            <ns3:hr>131</ns3:hr>
          </ns3:TrackPointExtension>
        </extensions>
      </trkpt>
      <trkpt lat="46.6517852805554866790771484375" lon="6.847828142344951629638671875">
        <ele>726.79998779296875</ele>
        <time>2013-08-15T16:28:01.000Z</time>
        <extensions>
          <ns3:TrackPointExtension>
            <ns3:atemp>18.0</ns3:atemp>
            <ns3:hr>131</ns3:hr>
          </ns3:TrackPointExtension>
        </extensions>
      </trkpt>
      <trkpt lat="46.65172317065298557281494140625" lon="6.8478353507816791534423828125">
        <ele>726.4000244140625</ele>
        <time>2013-08-15T16:28:02.000Z</time>
        <extensions>
          <ns3:TrackPointExtension>
            <ns3:atemp>18.0</ns3:atemp>
            <ns3:hr>131</ns3:hr>
          </ns3:TrackPointExtension>
        </extensions>
      </trkpt>
      <trkpt lat="46.6516605578362941741943359375" lon="6.84784566052258014678955078125">
        <ele>726.4000244140625</ele>
        <time>2013-08-15T16:28:03.000Z</time>
        <extensions>
          <ns3:TrackPointExtension>
            <ns3:atemp>18.0</ns3:atemp>
            <ns3:hr>131</ns3:hr>
          </ns3:TrackPointExtension>
        </extensions>
      </trkpt>
      <trkpt lat="46.651602722704410552978515625" lon="6.8478715606033802032470703125">
        <ele>726.4000244140625</ele>
        <time>2013-08-15T16:28:04.000Z</time>
        <extensions>
          <ns3:TrackPointExtension>
            <ns3:atemp>18.0</ns3:atemp>
            <ns3:hr>131</ns3:hr>
          </ns3:TrackPointExtension>
        </extensions>
      </trkpt>
      <trkpt lat="46.65155855007469654083251953125" lon="6.84792160056531429290771484375">
        <ele>726.5999755859375</ele>
        <time>2013-08-15T16:28:05.000Z</time>
        <extensions>
          <ns3:TrackPointExtension>
            <ns3:atemp>18.0</ns3:atemp>
            <ns3:hr>131</ns3:hr>
          </ns3:TrackPointExtension>
        </extensions>
      </trkpt>
      <trkpt lat="46.65152317844331264495849609375" lon="6.84798412956297397613525390625">
        <ele>726.5999755859375</ele>
        <time>2013-08-15T16:28:06.000Z</time>
        <extensions>
          <ns3:TrackPointExtension>
            <ns3:atemp>18.0</ns3:atemp>
            <ns3:hr>130</ns3:hr>
          </ns3:TrackPointExtension>
        </extensions>
      </trkpt>
      <trkpt lat="46.65149518288671970367431640625" lon="6.8480529449880123138427734375">
        <ele>726.79998779296875</ele>
        <time>2013-08-15T16:28:07.000Z</time>
        <extensions>
          <ns3:TrackPointExtension>
            <ns3:atemp>18.0</ns3:atemp>
            <ns3:hr>130</ns3:hr>
          </ns3:TrackPointExtension>
        </extensions>
      </trkpt>
      <trkpt lat="46.65146894752979278564453125" lon="6.8481267057359218597412109375">
        <ele>726.5999755859375</ele>
        <time>2013-08-15T16:28:08.000Z</time>
        <extensions>
          <ns3:TrackPointExtension>
            <ns3:atemp>18.0</ns3:atemp>
            <ns3:hr>130</ns3:hr>
          </ns3:TrackPointExtension>
        </extensions>
      </trkpt>
      <trkpt lat="46.65144707076251506805419921875" lon="6.848202645778656005859375">
        <ele>726.5999755859375</ele>
        <time>2013-08-15T16:28:09.000Z</time>
        <extensions>
          <ns3:TrackPointExtension>
            <ns3:atemp>18.0</ns3:atemp>
            <ns3:hr>130</ns3:hr>
          </ns3:TrackPointExtension>
        </extensions>
      </trkpt>
      <trkpt lat="46.65143298916518688201904296875" lon="6.84828110039234161376953125">
        <ele>726.5999755859375</ele>
        <time>2013-08-15T16:28:10.000Z</time>
        <extensions>
          <ns3:TrackPointExtension>
            <ns3:atemp>18.0</ns3:atemp>
            <ns3:hr>130</ns3:hr>
          </ns3:TrackPointExtension>
        </extensions>
      </trkpt>
      <trkpt lat="46.6514382697641849517822265625" lon="6.8483600579202175140380859375">
        <ele>726.5999755859375</ele>
        <time>2013-08-15T16:28:11.000Z</time>
        <extensions>
          <ns3:TrackPointExtension>
            <ns3:atemp>18.0</ns3:atemp>
            <ns3:hr>130</ns3:hr>
          </ns3:TrackPointExtension>
        </extensions>
      </trkpt>
      <trkpt lat="46.651459895074367523193359375" lon="6.848429627716541290283203125">
        <ele>726.5999755859375</ele>
        <time>2013-08-15T16:28:12.000Z</time>
        <extensions>
          <ns3:TrackPointExtension>
            <ns3:atemp>18.0</ns3:atemp>
            <ns3:hr>130</ns3:hr>
          </ns3:TrackPointExtension>
        </extensions>
      </trkpt>
      <trkpt lat="46.65149040520191192626953125" lon="6.8484891392290592193603515625">
        <ele>726.5999755859375</ele>
        <time>2013-08-15T16:28:13.000Z</time>
        <extensions>
          <ns3:TrackPointExtension>
            <ns3:atemp>18.0</ns3:atemp>
            <ns3:hr>131</ns3:hr>
          </ns3:TrackPointExtension>
        </extensions>
      </trkpt>
      <trkpt lat="46.65152669884264469146728515625" lon="6.84853968210518360137939453125">
        <ele>726.5999755859375</ele>
        <time>2013-08-15T16:28:14.000Z</time>
        <extensions>
          <ns3:TrackPointExtension>
            <ns3:atemp>18.0</ns3:atemp>
            <ns3:hr>131</ns3:hr>
          </ns3:TrackPointExtension>
        </extensions>
      </trkpt>
      <trkpt lat="46.65156575851142406463623046875" lon="6.84858645312488079071044921875">
        <ele>726.5999755859375</ele>
        <time>2013-08-15T16:28:15.000Z</time>
        <extensions>
          <ns3:TrackPointExtension>
            <ns3:atemp>18.0</ns3:atemp>
            <ns3:hr>131</ns3:hr>
          </ns3:TrackPointExtension>
        </extensions>
      </trkpt>
      <trkpt lat="46.65160532109439373016357421875" lon="6.84862685389816761016845703125">
        <ele>726.5999755859375</ele>
        <time>2013-08-15T16:28:16.000Z</time>
        <extensions>
          <ns3:TrackPointExtension>
            <ns3:atemp>18.0</ns3:atemp>
            <ns3:hr>131</ns3:hr>
          </ns3:TrackPointExtension>
        </extensions>
      </trkpt>
      <trkpt lat="46.65164521895349025726318359375" lon="6.84866054914891719818115234375">
        <ele>726.5999755859375</ele>
        <time>2013-08-15T16:28:17.000Z</time>
        <extensions>
          <ns3:TrackPointExtension>
            <ns3:atemp>18.0</ns3:atemp>
            <ns3:hr>131</ns3:hr>
          </ns3:TrackPointExtension>
        </extensions>
      </trkpt>
      <trkpt lat="46.6516870446503162384033203125" lon="6.848696507513523101806640625">
        <ele>726.79998779296875</ele>
        <time>2013-08-15T16:28:18.000Z</time>
        <extensions>
          <ns3:TrackPointExtension>
            <ns3:atemp>18.0</ns3:atemp>
            <ns3:hr>131</ns3:hr>
          </ns3:TrackPointExtension>
        </extensions>
      </trkpt>
      <trkpt lat="46.65172769688069820404052734375" lon="6.848739422857761383056640625">
        <ele>726.79998779296875</ele>
        <time>2013-08-15T16:28:19.000Z</time>
        <extensions>
          <ns3:TrackPointExtension>
            <ns3:atemp>18.0</ns3:atemp>
            <ns3:hr>132</ns3:hr>
          </ns3:TrackPointExtension>
        </extensions>
      </trkpt>
      <trkpt lat="46.65176876820623874664306640625" lon="6.84878694824874401092529296875">
        <ele>727.4000244140625</ele>
        <time>2013-08-15T16:28:20.000Z</time>
        <extensions>
          <ns3:TrackPointExtension>
            <ns3:atemp>17.0</ns3:atemp>
            <ns3:hr>132</ns3:hr>
          </ns3:TrackPointExtension>
        </extensions>
      </trkpt>
      <trkpt lat="46.65181101299822330474853515625" lon="6.84883438982069492340087890625">
        <ele>727.5999755859375</ele>
        <time>2013-08-15T16:28:21.000Z</time>
        <extensions>
          <ns3:TrackPointExtension>
            <ns3:atemp>17.0</ns3:atemp>
            <ns3:hr>132</ns3:hr>
          </ns3:TrackPointExtension>
        </extensions>
      </trkpt>
      <trkpt lat="46.651862226426601409912109375" lon="6.84889725409448146820068359375">
        <ele>727.79998779296875</ele>
        <time>2013-08-15T16:28:22.000Z</time>
        <extensions>
          <ns3:TrackPointExtension>
            <ns3:atemp>17.0</ns3:atemp>
            <ns3:hr>133</ns3:hr>
          </ns3:TrackPointExtension>
        </extensions>
      </trkpt>
      <trkpt lat="46.65191687643527984619140625" lon="6.84896565042436122894287109375">
        <ele>727.79998779296875</ele>
        <time>2013-08-15T16:28:23.000Z</time>
        <extensions>
          <ns3:TrackPointExtension>
            <ns3:atemp>17.0</ns3:atemp>
            <ns3:hr>133</ns3:hr>
          </ns3:TrackPointExtension>
        </extensions>
      </trkpt>
      <trkpt lat="46.6519604623317718505859375" lon="6.84901141561567783355712890625">
        <ele>728</ele>
        <time>2013-08-15T16:28:24.000Z</time>
        <extensions>
          <ns3:TrackPointExtension>
            <ns3:atemp>17.0</ns3:atemp>
            <ns3:hr>133</ns3:hr>
          </ns3:TrackPointExtension>
        </extensions>
      </trkpt>
      <trkpt lat="46.6520006954669952392578125" lon="6.84904913417994976043701171875">
        <ele>728.20001220703125</ele>
        <time>2013-08-15T16:28:25.000Z</time>
        <extensions>
          <ns3:TrackPointExtension>
            <ns3:atemp>17.0</ns3:atemp>
            <ns3:hr>133</ns3:hr>
          </ns3:TrackPointExtension>
        </extensions>
      </trkpt>
      <trkpt lat="46.65203430689871311187744140625" lon="6.84908769093453884124755859375">
        <ele>728.4000244140625</ele>
        <time>2013-08-15T16:28:26.000Z</time>
        <extensions>
          <ns3:TrackPointExtension>
            <ns3:atemp>17.0</ns3:atemp>
            <ns3:hr>134</ns3:hr>
          </ns3:TrackPointExtension>
        </extensions>
      </trkpt>
      <trkpt lat="46.65206766687333583831787109375" lon="6.849125325679779052734375">
        <ele>728.4000244140625</ele>
        <time>2013-08-15T16:28:27.000Z</time>
        <extensions>
          <ns3:TrackPointExtension>
            <ns3:atemp>17.0</ns3:atemp>
            <ns3:hr>134</ns3:hr>
          </ns3:TrackPointExtension>
        </extensions>
      </trkpt>
      <trkpt lat="46.6520997695624828338623046875" lon="6.8491570092737674713134765625">
        <ele>728.4000244140625</ele>
        <time>2013-08-15T16:28:28.000Z</time>
        <extensions>
          <ns3:TrackPointExtension>
            <ns3:atemp>17.0</ns3:atemp>
            <ns3:hr>134</ns3:hr>
          </ns3:TrackPointExtension>
        </extensions>
      </trkpt>
      <trkpt lat="46.652128435671329498291015625" lon="6.84918726794421672821044921875">
        <ele>728.5999755859375</ele>
        <time>2013-08-15T16:28:29.000Z</time>
        <extensions>
          <ns3:TrackPointExtension>
            <ns3:atemp>17.0</ns3:atemp>
            <ns3:hr>133</ns3:hr>
          </ns3:TrackPointExtension>
        </extensions>
      </trkpt>
      <trkpt lat="46.65215559303760528564453125" lon="6.84921626932919025421142578125">
        <ele>728.79998779296875</ele>
        <time>2013-08-15T16:28:30.000Z</time>
        <extensions>
          <ns3:TrackPointExtension>
            <ns3:atemp>17.0</ns3:atemp>
            <ns3:hr>134</ns3:hr>
          </ns3:TrackPointExtension>
        </extensions>
      </trkpt>
      <trkpt lat="46.6521825827658176422119140625" lon="6.84924392960965633392333984375">
        <ele>729.20001220703125</ele>
        <time>2013-08-15T16:28:31.000Z</time>
        <extensions>
          <ns3:TrackPointExtension>
            <ns3:atemp>17.0</ns3:atemp>
            <ns3:hr>134</ns3:hr>
          </ns3:TrackPointExtension>
        </extensions>
      </trkpt>
      <trkpt lat="46.652211584150791168212890625" lon="6.849274523556232452392578125">
        <ele>729.4000244140625</ele>
        <time>2013-08-15T16:28:32.000Z</time>
        <extensions>
          <ns3:TrackPointExtension>
            <ns3:atemp>17.0</ns3:atemp>
            <ns3:hr>134</ns3:hr>
          </ns3:TrackPointExtension>
        </extensions>
      </trkpt>
      <trkpt lat="46.6522429324686527252197265625" lon="6.849310398101806640625">
        <ele>729.5999755859375</ele>
        <time>2013-08-15T16:28:33.000Z</time>
        <extensions>
          <ns3:TrackPointExtension>
            <ns3:atemp>17.0</ns3:atemp>
            <ns3:hr>134</ns3:hr>
          </ns3:TrackPointExtension>
        </extensions>
      </trkpt>
      <trkpt lat="46.65227436460554599761962890625" lon="6.8493477813899517059326171875">
        <ele>730.20001220703125</ele>
        <time>2013-08-15T16:28:34.000Z</time>
        <extensions>
          <ns3:TrackPointExtension>
            <ns3:atemp>17.0</ns3:atemp>
            <ns3:hr>135</ns3:hr>
          </ns3:TrackPointExtension>
        </extensions>
      </trkpt>
      <trkpt lat="46.65230571292340755462646484375" lon="6.84938273392617702484130859375">
        <ele>730.5999755859375</ele>
        <time>2013-08-15T16:28:35.000Z</time>
        <extensions>
          <ns3:TrackPointExtension>
            <ns3:atemp>17.0</ns3:atemp>
            <ns3:hr>135</ns3:hr>
          </ns3:TrackPointExtension>
        </extensions>
      </trkpt>
      <trkpt lat="46.652336306869983673095703125" lon="6.84941743500530719757080078125">
        <ele>730.79998779296875</ele>
        <time>2013-08-15T16:28:36.000Z</time>
        <extensions>
          <ns3:TrackPointExtension>
            <ns3:atemp>17.0</ns3:atemp>
            <ns3:hr>136</ns3:hr>
          </ns3:TrackPointExtension>
        </extensions>
      </trkpt>
      <trkpt lat="46.65236748754978179931640625" lon="6.8494513817131519317626953125">
        <ele>731</ele>
        <time>2013-08-15T16:28:37.000Z</time>
        <extensions>
          <ns3:TrackPointExtension>
            <ns3:atemp>17.0</ns3:atemp>
            <ns3:hr>136</ns3:hr>
          </ns3:TrackPointExtension>
        </extensions>
      </trkpt>
      <trkpt lat="46.65239523164927959442138671875" lon="6.84948675334453582763671875">
        <ele>731</ele>
        <time>2013-08-15T16:28:38.000Z</time>
        <extensions>
          <ns3:TrackPointExtension>
            <ns3:atemp>17.0</ns3:atemp>
            <ns3:hr>137</ns3:hr>
          </ns3:TrackPointExtension>
        </extensions>
      </trkpt>
      <trkpt lat="46.652427501976490020751953125" lon="6.8495160900056362152099609375">
        <ele>731.4000244140625</ele>
        <time>2013-08-15T16:28:39.000Z</time>
        <extensions>
          <ns3:TrackPointExtension>
            <ns3:atemp>17.0</ns3:atemp>
            <ns3:hr>137</ns3:hr>
          </ns3:TrackPointExtension>
        </extensions>
      </trkpt>
      <trkpt lat="46.65245893411338329315185546875" lon="6.84954601339995861053466796875">
        <ele>731.5999755859375</ele>
        <time>2013-08-15T16:28:40.000Z</time>
        <extensions>
          <ns3:TrackPointExtension>
            <ns3:atemp>17.0</ns3:atemp>
            <ns3:hr>138</ns3:hr>
          </ns3:TrackPointExtension>
        </extensions>
      </trkpt>
      <trkpt lat="46.6524886898696422576904296875" lon="6.84957719407975673675537109375">
        <ele>731.79998779296875</ele>
        <time>2013-08-15T16:28:41.000Z</time>
        <extensions>
          <ns3:TrackPointExtension>
            <ns3:atemp>17.0</ns3:atemp>
            <ns3:hr>138</ns3:hr>
          </ns3:TrackPointExtension>
        </extensions>
      </trkpt>
      <trkpt lat="46.6525181941688060760498046875" lon="6.8496042676270008087158203125">
        <ele>731.79998779296875</ele>
        <time>2013-08-15T16:28:42.000Z</time>
        <extensions>
          <ns3:TrackPointExtension>
            <ns3:atemp>17.0</ns3:atemp>
            <ns3:hr>138</ns3:hr>
          </ns3:TrackPointExtension>
        </extensions>
      </trkpt>
      <trkpt lat="46.65254912339150905609130859375" lon="6.8496310897171497344970703125">
        <ele>732</ele>
        <time>2013-08-15T16:28:43.000Z</time>
        <extensions>
          <ns3:TrackPointExtension>
            <ns3:atemp>17.0</ns3:atemp>
            <ns3:hr>138</ns3:hr>
          </ns3:TrackPointExtension>
        </extensions>
      </trkpt>
      <trkpt lat="46.6525832377374172210693359375" lon="6.84967040084302425384521484375">
        <ele>732.4000244140625</ele>
        <time>2013-08-15T16:28:44.000Z</time>
        <extensions>
          <ns3:TrackPointExtension>
            <ns3:atemp>17.0</ns3:atemp>
            <ns3:hr>139</ns3:hr>
          </ns3:TrackPointExtension>
        </extensions>
      </trkpt>
      <trkpt lat="46.65261567570269107818603515625" lon="6.84970828704535961151123046875">
        <ele>732.4000244140625</ele>
        <time>2013-08-15T16:28:45.000Z</time>
        <extensions>
          <ns3:TrackPointExtension>
            <ns3:atemp>17.0</ns3:atemp>
            <ns3:hr>139</ns3:hr>
          </ns3:TrackPointExtension>
        </extensions>
      </trkpt>
      <trkpt lat="46.65264886803925037384033203125" lon="6.84974349103868007659912109375">
        <ele>732.5999755859375</ele>
        <time>2013-08-15T16:28:46.000Z</time>
        <extensions>
          <ns3:TrackPointExtension>
            <ns3:atemp>17.0</ns3:atemp>
            <ns3:hr>139</ns3:hr>
          </ns3:TrackPointExtension>
        </extensions>
      </trkpt>
      <trkpt lat="46.65267937816679477691650390625" lon="6.84977651573717594146728515625">
        <ele>732.5999755859375</ele>
        <time>2013-08-15T16:28:47.000Z</time>
        <extensions>
          <ns3:TrackPointExtension>
            <ns3:atemp>17.0</ns3:atemp>
            <ns3:hr>140</ns3:hr>
          </ns3:TrackPointExtension>
        </extensions>
      </trkpt>
      <trkpt lat="46.652707122266292572021484375" lon="6.84980736114084720611572265625">
        <ele>733</ele>
        <time>2013-08-15T16:28:48.000Z</time>
        <extensions>
          <ns3:TrackPointExtension>
            <ns3:atemp>17.0</ns3:atemp>
            <ns3:hr>140</ns3:hr>
          </ns3:TrackPointExtension>
        </extensions>
      </trkpt>
      <trkpt lat="46.6527383029460906982421875" lon="6.84983636252582073211669921875">
        <ele>733.20001220703125</ele>
        <time>2013-08-15T16:28:49.000Z</time>
        <extensions>
          <ns3:TrackPointExtension>
            <ns3:atemp>17.0</ns3:atemp>
            <ns3:hr>140</ns3:hr>
          </ns3:TrackPointExtension>
        </extensions>
      </trkpt>
      <trkpt lat="46.65276722051203250885009765625" lon="6.8498708121478557586669921875">
        <ele>733.4000244140625</ele>
        <time>2013-08-15T16:28:50.000Z</time>
        <extensions>
          <ns3:TrackPointExtension>
            <ns3:atemp>17.0</ns3:atemp>
            <ns3:hr>140</ns3:hr>
          </ns3:TrackPointExtension>
        </extensions>
      </trkpt>
      <trkpt lat="46.6527951322495937347412109375" lon="6.84990777634084224700927734375">
        <ele>733.4000244140625</ele>
        <time>2013-08-15T16:28:51.000Z</time>
        <extensions>
          <ns3:TrackPointExtension>
            <ns3:atemp>17.0</ns3:atemp>
            <ns3:hr>141</ns3:hr>
          </ns3:TrackPointExtension>
        </extensions>
      </trkpt>
      <trkpt lat="46.65282304398715496063232421875" lon="6.8499442376196384429931640625">
        <ele>733.4000244140625</ele>
        <time>2013-08-15T16:28:52.000Z</time>
        <extensions>
          <ns3:TrackPointExtension>
            <ns3:atemp>17.0</ns3:atemp>
            <ns3:hr>140</ns3:hr>
          </ns3:TrackPointExtension>
        </extensions>
      </trkpt>
      <trkpt lat="46.65285271592438220977783203125" lon="6.84997751377522945404052734375">
        <ele>733.4000244140625</ele>
        <time>2013-08-15T16:28:53.000Z</time>
        <extensions>
          <ns3:TrackPointExtension>
            <ns3:atemp>17.0</ns3:atemp>
            <ns3:hr>141</ns3:hr>
          </ns3:TrackPointExtension>
        </extensions>
      </trkpt>
      <trkpt lat="46.65288104675710201263427734375" lon="6.8500096164643764495849609375">
        <ele>733.4000244140625</ele>
        <time>2013-08-15T16:28:54.000Z</time>
        <extensions>
          <ns3:TrackPointExtension>
            <ns3:atemp>17.0</ns3:atemp>
            <ns3:hr>141</ns3:hr>
          </ns3:TrackPointExtension>
        </extensions>
      </trkpt>
      <trkpt lat="46.65290636010468006134033203125" lon="6.850044317543506622314453125">
        <ele>733.4000244140625</ele>
        <time>2013-08-15T16:28:55.000Z</time>
        <extensions>
          <ns3:TrackPointExtension>
            <ns3:atemp>17.0</ns3:atemp>
            <ns3:hr>141</ns3:hr>
          </ns3:TrackPointExtension>
        </extensions>
      </trkpt>
      <trkpt lat="46.6529359482228755950927734375" lon="6.85008128173649311065673828125">
        <ele>733.5999755859375</ele>
        <time>2013-08-15T16:28:56.000Z</time>
        <extensions>
          <ns3:TrackPointExtension>
            <ns3:atemp>17.0</ns3:atemp>
            <ns3:hr>141</ns3:hr>
          </ns3:TrackPointExtension>
        </extensions>
      </trkpt>
      <trkpt lat="46.6529684700071811676025390625" lon="6.850120089948177337646484375">
        <ele>733.79998779296875</ele>
        <time>2013-08-15T16:28:57.000Z</time>
        <extensions>
          <ns3:TrackPointExtension>
            <ns3:atemp>17.0</ns3:atemp>
            <ns3:hr>141</ns3:hr>
          </ns3:TrackPointExtension>
        </extensions>
      </trkpt>
      <trkpt lat="46.65300392545759677886962890625" lon="6.85016535222530364990234375">
        <ele>734</ele>
        <time>2013-08-15T16:28:58.000Z</time>
        <extensions>
          <ns3:TrackPointExtension>
            <ns3:atemp>17.0</ns3:atemp>
            <ns3:hr>141</ns3:hr>
          </ns3:TrackPointExtension>
        </extensions>
      </trkpt>
      <trkpt lat="46.65303795598447322845458984375" lon="6.85020986013114452362060546875">
        <ele>734</ele>
        <time>2013-08-15T16:28:59.000Z</time>
        <extensions>
          <ns3:TrackPointExtension>
            <ns3:atemp>17.0</ns3:atemp>
            <ns3:hr>141</ns3:hr>
          </ns3:TrackPointExtension>
        </extensions>
      </trkpt>
      <trkpt lat="46.65307223796844482421875" lon="6.85025126673281192779541015625">
        <ele>734</ele>
        <time>2013-08-15T16:29:00.000Z</time>
        <extensions>
          <ns3:TrackPointExtension>
            <ns3:atemp>17.0</ns3:atemp>
            <ns3:hr>141</ns3:hr>
          </ns3:TrackPointExtension>
        </extensions>
      </trkpt>
      <trkpt lat="46.6531059332191944122314453125" lon="6.85029183514416217803955078125">
        <ele>734.20001220703125</ele>
        <time>2013-08-15T16:29:01.000Z</time>
        <extensions>
          <ns3:TrackPointExtension>
            <ns3:atemp>17.0</ns3:atemp>
            <ns3:hr>141</ns3:hr>
          </ns3:TrackPointExtension>
        </extensions>
      </trkpt>
      <trkpt lat="46.6531431488692760467529296875" lon="6.850336007773876190185546875">
        <ele>734.20001220703125</ele>
        <time>2013-08-15T16:29:02.000Z</time>
        <extensions>
          <ns3:TrackPointExtension>
            <ns3:atemp>17.0</ns3:atemp>
            <ns3:hr>141</ns3:hr>
          </ns3:TrackPointExtension>
        </extensions>
      </trkpt>
      <trkpt lat="46.65318195708096027374267578125" lon="6.8503884784877300262451171875">
        <ele>734.4000244140625</ele>
        <time>2013-08-15T16:29:03.000Z</time>
        <extensions>
          <ns3:TrackPointExtension>
            <ns3:atemp>17.0</ns3:atemp>
            <ns3:hr>141</ns3:hr>
          </ns3:TrackPointExtension>
        </extensions>
      </trkpt>
      <trkpt lat="46.65322001092135906219482421875" lon="6.850437261164188385009765625">
        <ele>734.4000244140625</ele>
        <time>2013-08-15T16:29:04.000Z</time>
        <extensions>
          <ns3:TrackPointExtension>
            <ns3:atemp>17.0</ns3:atemp>
            <ns3:hr>141</ns3:hr>
          </ns3:TrackPointExtension>
        </extensions>
      </trkpt>
      <trkpt lat="46.65324456989765167236328125" lon="6.85048445127904415130615234375">
        <ele>734.79998779296875</ele>
        <time>2013-08-15T16:29:05.000Z</time>
        <extensions>
          <ns3:TrackPointExtension>
            <ns3:atemp>17.0</ns3:atemp>
            <ns3:hr>141</ns3:hr>
          </ns3:TrackPointExtension>
        </extensions>
      </trkpt>
      <trkpt lat="46.65326929651200771331787109375" lon="6.85053088702261447906494140625">
        <ele>734.79998779296875</ele>
        <time>2013-08-15T16:29:06.000Z</time>
        <extensions>
          <ns3:TrackPointExtension>
            <ns3:atemp>17.0</ns3:atemp>
            <ns3:hr>142</ns3:hr>
          </ns3:TrackPointExtension>
        </extensions>
      </trkpt>
      <trkpt lat="46.6532920114696025848388671875" lon="6.85056726448237895965576171875">
        <ele>735.20001220703125</ele>
        <time>2013-08-15T16:29:07.000Z</time>
        <extensions>
          <ns3:TrackPointExtension>
            <ns3:atemp>17.0</ns3:atemp>
            <ns3:hr>142</ns3:hr>
          </ns3:TrackPointExtension>
        </extensions>
      </trkpt>
      <trkpt lat="46.6533084399998188018798828125" lon="6.85058771632611751556396484375">
        <ele>735.4000244140625</ele>
        <time>2013-08-15T16:29:08.000Z</time>
        <extensions>
          <ns3:TrackPointExtension>
            <ns3:atemp>17.0</ns3:atemp>
            <ns3:hr>142</ns3:hr>
          </ns3:TrackPointExtension>
        </extensions>
      </trkpt>
      <trkpt lat="46.65332025848329067230224609375" lon="6.850602217018604278564453125">
        <ele>735.5999755859375</ele>
        <time>2013-08-15T16:29:09.000Z</time>
        <extensions>
          <ns3:TrackPointExtension>
            <ns3:atemp>17.0</ns3:atemp>
            <ns3:hr>142</ns3:hr>
          </ns3:TrackPointExtension>
        </extensions>
      </trkpt>
      <trkpt lat="46.65332905948162078857421875" lon="6.850618980824947357177734375">
        <ele>735.4000244140625</ele>
        <time>2013-08-15T16:29:10.000Z</time>
        <extensions>
          <ns3:TrackPointExtension>
            <ns3:atemp>17.0</ns3:atemp>
            <ns3:hr>142</ns3:hr>
          </ns3:TrackPointExtension>
        </extensions>
      </trkpt>
      <trkpt lat="46.65332763455808162689208984375" lon="6.85061487369239330291748046875">
        <ele>735.4000244140625</ele>
        <time>2013-08-15T16:29:11.000Z</time>
        <extensions>
          <ns3:TrackPointExtension>
            <ns3:atemp>17.0</ns3:atemp>
            <ns3:hr>141</ns3:hr>
          </ns3:TrackPointExtension>
        </extensions>
      </trkpt>
      <trkpt lat="46.65333568118512630462646484375" lon="6.8506288714706897735595703125">
        <ele>735.4000244140625</ele>
        <time>2013-08-15T16:29:12.000Z</time>
        <extensions>
          <ns3:TrackPointExtension>
            <ns3:atemp>17.0</ns3:atemp>
            <ns3:hr>141</ns3:hr>
          </ns3:TrackPointExtension>
        </extensions>
      </trkpt>
      <trkpt lat="46.65333568118512630462646484375" lon="6.8506288714706897735595703125">
        <ele>735.5999755859375</ele>
        <time>2013-08-15T16:29:13.000Z</time>
        <extensions>
          <ns3:TrackPointExtension>
            <ns3:atemp>17.0</ns3:atemp>
            <ns3:hr>140</ns3:hr>
          </ns3:TrackPointExtension>
        </extensions>
      </trkpt>
      <trkpt lat="46.65334221906960010528564453125" lon="6.850639097392559051513671875">
        <ele>735.5999755859375</ele>
        <time>2013-08-15T16:29:14.000Z</time>
        <extensions>
          <ns3:TrackPointExtension>
            <ns3:atemp>17.0</ns3:atemp>
            <ns3:hr>140</ns3:hr>
          </ns3:TrackPointExtension>
        </extensions>
      </trkpt>
      <trkpt lat="46.65334221906960010528564453125" lon="6.850639097392559051513671875">
        <ele>735.5999755859375</ele>
        <time>2013-08-15T16:29:15.000Z</time>
        <extensions>
          <ns3:TrackPointExtension>
            <ns3:atemp>17.0</ns3:atemp>
            <ns3:hr>139</ns3:hr>
          </ns3:TrackPointExtension>
        </extensions>
      </trkpt>
      <trkpt lat="46.65334221906960010528564453125" lon="6.850639097392559051513671875">
        <ele>735.5999755859375</ele>
        <time>2013-08-15T16:29:16.000Z</time>
        <extensions>
          <ns3:TrackPointExtension>
            <ns3:atemp>17.0</ns3:atemp>
            <ns3:hr>138</ns3:hr>
          </ns3:TrackPointExtension>
        </extensions>
      </trkpt>
      <trkpt lat="46.65334221906960010528564453125" lon="6.850639097392559051513671875">
        <ele>735.5999755859375</ele>
        <time>2013-08-15T16:29:17.000Z</time>
        <extensions>
          <ns3:TrackPointExtension>
            <ns3:atemp>17.0</ns3:atemp>
            <ns3:hr>137</ns3:hr>
          </ns3:TrackPointExtension>
        </extensions>
      </trkpt>
      <trkpt lat="46.65334221906960010528564453125" lon="6.850639097392559051513671875">
        <ele>735.5999755859375</ele>
        <time>2013-08-15T16:29:18.000Z</time>
        <extensions>
          <ns3:TrackPointExtension>
            <ns3:atemp>17.0</ns3:atemp>
            <ns3:hr>137</ns3:hr>
          </ns3:TrackPointExtension>
        </extensions>
      </trkpt>
      <trkpt lat="46.65334221906960010528564453125" lon="6.850639097392559051513671875">
        <ele>735.5999755859375</ele>
        <time>2013-08-15T16:29:19.000Z</time>
        <extensions>
          <ns3:TrackPointExtension>
            <ns3:atemp>17.0</ns3:atemp>
            <ns3:hr>136</ns3:hr>
          </ns3:TrackPointExtension>
        </extensions>
      </trkpt>
      <trkpt lat="46.65334221906960010528564453125" lon="6.850639097392559051513671875">
        <ele>735.4000244140625</ele>
        <time>2013-08-15T16:29:20.000Z</time>
        <extensions>
          <ns3:TrackPointExtension>
            <ns3:atemp>17.0</ns3:atemp>
            <ns3:hr>135</ns3:hr>
          </ns3:TrackPointExtension>
        </extensions>
      </trkpt>
      <trkpt lat="46.65334221906960010528564453125" lon="6.850639097392559051513671875">
        <ele>735.4000244140625</ele>
        <time>2013-08-15T16:29:21.000Z</time>
        <extensions>
          <ns3:TrackPointExtension>
            <ns3:atemp>17.0</ns3:atemp>
            <ns3:hr>134</ns3:hr>
          </ns3:TrackPointExtension>
        </extensions>
      </trkpt>
      <trkpt lat="46.65334221906960010528564453125" lon="6.850639097392559051513671875">
        <ele>735.4000244140625</ele>
        <time>2013-08-15T16:29:22.000Z</time>
        <extensions>
          <ns3:TrackPointExtension>
            <ns3:atemp>17.0</ns3:atemp>
            <ns3:hr>133</ns3:hr>
          </ns3:TrackPointExtension>
        </extensions>
      </trkpt>
      <trkpt lat="46.65334221906960010528564453125" lon="6.850639097392559051513671875">
        <ele>735.4000244140625</ele>
        <time>2013-08-15T16:29:23.000Z</time>
        <extensions>
          <ns3:TrackPointExtension>
            <ns3:atemp>17.0</ns3:atemp>
            <ns3:hr>132</ns3:hr>
          </ns3:TrackPointExtension>
        </extensions>
      </trkpt>
      <trkpt lat="46.65334221906960010528564453125" lon="6.850639097392559051513671875">
        <ele>735.4000244140625</ele>
        <time>2013-08-15T16:29:24.000Z</time>
        <extensions>
          <ns3:TrackPointExtension>
            <ns3:atemp>17.0</ns3:atemp>
            <ns3:hr>131</ns3:hr>
          </ns3:TrackPointExtension>
        </extensions>
      </trkpt>
      <trkpt lat="46.65334221906960010528564453125" lon="6.850639097392559051513671875">
        <ele>735.4000244140625</ele>
        <time>2013-08-15T16:29:25.000Z</time>
        <extensions>
          <ns3:TrackPointExtension>
            <ns3:atemp>17.0</ns3:atemp>
            <ns3:hr>131</ns3:hr>
          </ns3:TrackPointExtension>
        </extensions>
      </trkpt>
      <trkpt lat="46.65334221906960010528564453125" lon="6.850639097392559051513671875">
        <ele>735.4000244140625</ele>
        <time>2013-08-15T16:29:26.000Z</time>
        <extensions>
          <ns3:TrackPointExtension>
            <ns3:atemp>17.0</ns3:atemp>
            <ns3:hr>130</ns3:hr>
          </ns3:TrackPointExtension>
        </extensions>
      </trkpt>
      <trkpt lat="46.65334221906960010528564453125" lon="6.850639097392559051513671875">
        <ele>735.4000244140625</ele>
        <time>2013-08-15T16:29:27.000Z</time>
        <extensions>
          <ns3:TrackPointExtension>
            <ns3:atemp>17.0</ns3:atemp>
            <ns3:hr>130</ns3:hr>
          </ns3:TrackPointExtension>
        </extensions>
      </trkpt>
      <trkpt lat="46.65334221906960010528564453125" lon="6.850639097392559051513671875">
        <ele>735.4000244140625</ele>
        <time>2013-08-15T16:29:28.000Z</time>
        <extensions>
          <ns3:TrackPointExtension>
            <ns3:atemp>17.0</ns3:atemp>
            <ns3:hr>130</ns3:hr>
          </ns3:TrackPointExtension>
        </extensions>
      </trkpt>
      <trkpt lat="46.65334221906960010528564453125" lon="6.850639097392559051513671875">
        <ele>735.4000244140625</ele>
        <time>2013-08-15T16:29:29.000Z</time>
        <extensions>
          <ns3:TrackPointExtension>
            <ns3:atemp>17.0</ns3:atemp>
            <ns3:hr>130</ns3:hr>
          </ns3:TrackPointExtension>
        </extensions>
      </trkpt>
      <trkpt lat="46.65334221906960010528564453125" lon="6.850639097392559051513671875">
        <ele>735.4000244140625</ele>
        <time>2013-08-15T16:29:30.000Z</time>
        <extensions>
          <ns3:TrackPointExtension>
            <ns3:atemp>17.0</ns3:atemp>
            <ns3:hr>130</ns3:hr>
          </ns3:TrackPointExtension>
        </extensions>
      </trkpt>
      <trkpt lat="46.65334221906960010528564453125" lon="6.850639097392559051513671875">
        <ele>735.4000244140625</ele>
        <time>2013-08-15T16:29:31.000Z</time>
        <extensions>
          <ns3:TrackPointExtension>
            <ns3:atemp>17.0</ns3:atemp>
            <ns3:hr>130</ns3:hr>
          </ns3:TrackPointExtension>
        </extensions>
      </trkpt>
      <trkpt lat="46.65334221906960010528564453125" lon="6.850639097392559051513671875">
        <ele>735.4000244140625</ele>
        <time>2013-08-15T16:29:32.000Z</time>
        <extensions>
          <ns3:TrackPointExtension>
            <ns3:atemp>17.0</ns3:atemp>
            <ns3:hr>131</ns3:hr>
          </ns3:TrackPointExtension>
        </extensions>
      </trkpt>
      <trkpt lat="46.65334221906960010528564453125" lon="6.850639097392559051513671875">
        <ele>735.4000244140625</ele>
        <time>2013-08-15T16:29:33.000Z</time>
        <extensions>
          <ns3:TrackPointExtension>
            <ns3:atemp>17.0</ns3:atemp>
            <ns3:hr>130</ns3:hr>
          </ns3:TrackPointExtension>
        </extensions>
      </trkpt>
      <trkpt lat="46.65334221906960010528564453125" lon="6.850639097392559051513671875">
        <ele>735.4000244140625</ele>
        <time>2013-08-15T16:29:34.000Z</time>
        <extensions>
          <ns3:TrackPointExtension>
            <ns3:atemp>17.0</ns3:atemp>
            <ns3:hr>130</ns3:hr>
          </ns3:TrackPointExtension>
        </extensions>
      </trkpt>
      <trkpt lat="46.65334221906960010528564453125" lon="6.850639097392559051513671875">
        <ele>735.4000244140625</ele>
        <time>2013-08-15T16:29:35.000Z</time>
        <extensions>
          <ns3:TrackPointExtension>
            <ns3:atemp>17.0</ns3:atemp>
            <ns3:hr>130</ns3:hr>
          </ns3:TrackPointExtension>
        </extensions>
      </trkpt>
      <trkpt lat="46.65334221906960010528564453125" lon="6.850639097392559051513671875">
        <ele>735.4000244140625</ele>
        <time>2013-08-15T16:29:36.000Z</time>
        <extensions>
          <ns3:TrackPointExtension>
            <ns3:atemp>17.0</ns3:atemp>
            <ns3:hr>130</ns3:hr>
          </ns3:TrackPointExtension>
        </extensions>
      </trkpt>
      <trkpt lat="46.65334221906960010528564453125" lon="6.850639097392559051513671875">
        <ele>735.4000244140625</ele>
        <time>2013-08-15T16:29:37.000Z</time>
        <extensions>
          <ns3:TrackPointExtension>
            <ns3:atemp>17.0</ns3:atemp>
            <ns3:hr>128</ns3:hr>
          </ns3:TrackPointExtension>
        </extensions>
      </trkpt>
      <trkpt lat="46.65334221906960010528564453125" lon="6.850639097392559051513671875">
        <ele>735.4000244140625</ele>
        <time>2013-08-15T16:29:38.000Z</time>
        <extensions>
          <ns3:TrackPointExtension>
            <ns3:atemp>17.0</ns3:atemp>
            <ns3:hr>126</ns3:hr>
          </ns3:TrackPointExtension>
        </extensions>
      </trkpt>
      <trkpt lat="46.65334221906960010528564453125" lon="6.850639097392559051513671875">
        <ele>735.4000244140625</ele>
        <time>2013-08-15T16:29:39.000Z</time>
        <extensions>
          <ns3:TrackPointExtension>
            <ns3:atemp>17.0</ns3:atemp>
            <ns3:hr>125</ns3:hr>
          </ns3:TrackPointExtension>
        </extensions>
      </trkpt>
      <trkpt lat="46.65334221906960010528564453125" lon="6.850639097392559051513671875">
        <ele>735.4000244140625</ele>
        <time>2013-08-15T16:29:40.000Z</time>
        <extensions>
          <ns3:TrackPointExtension>
            <ns3:atemp>17.0</ns3:atemp>
            <ns3:hr>123</ns3:hr>
          </ns3:TrackPointExtension>
        </extensions>
      </trkpt>
      <trkpt lat="46.65334221906960010528564453125" lon="6.850639097392559051513671875">
        <ele>735.4000244140625</ele>
        <time>2013-08-15T16:29:41.000Z</time>
        <extensions>
          <ns3:TrackPointExtension>
            <ns3:atemp>17.0</ns3:atemp>
            <ns3:hr>122</ns3:hr>
          </ns3:TrackPointExtension>
        </extensions>
      </trkpt>
      <trkpt lat="46.65333953686058521270751953125" lon="6.85063733719289302825927734375">
        <ele>735.4000244140625</ele>
        <time>2013-08-15T16:29:42.000Z</time>
        <extensions>
          <ns3:TrackPointExtension>
            <ns3:atemp>17.0</ns3:atemp>
            <ns3:hr>122</ns3:hr>
          </ns3:TrackPointExtension>
        </extensions>
      </trkpt>
      <trkpt lat="46.6533245332539081573486328125" lon="6.85066147707402706146240234375">
        <ele>735.5999755859375</ele>
        <time>2013-08-15T16:29:43.000Z</time>
        <extensions>
          <ns3:TrackPointExtension>
            <ns3:atemp>17.0</ns3:atemp>
            <ns3:hr>123</ns3:hr>
          </ns3:TrackPointExtension>
        </extensions>
      </trkpt>
      <trkpt lat="46.6533134691417217254638671875" lon="6.85067539103329181671142578125">
        <ele>735.5999755859375</ele>
        <time>2013-08-15T16:29:44.000Z</time>
        <extensions>
          <ns3:TrackPointExtension>
            <ns3:atemp>17.0</ns3:atemp>
            <ns3:hr>123</ns3:hr>
          </ns3:TrackPointExtension>
        </extensions>
      </trkpt>
      <trkpt lat="46.65329142473638057708740234375" lon="6.8506734631955623626708984375">
        <ele>735.79998779296875</ele>
        <time>2013-08-15T16:29:45.000Z</time>
        <extensions>
          <ns3:TrackPointExtension>
            <ns3:atemp>17.0</ns3:atemp>
            <ns3:hr>123</ns3:hr>
          </ns3:TrackPointExtension>
        </extensions>
      </trkpt>
      <trkpt lat="46.65326292626559734344482421875" lon="6.85066684149205684661865234375">
        <ele>735.79998779296875</ele>
        <time>2013-08-15T16:29:46.000Z</time>
        <extensions>
          <ns3:TrackPointExtension>
            <ns3:atemp>17.0</ns3:atemp>
            <ns3:hr>123</ns3:hr>
          </ns3:TrackPointExtension>
        </extensions>
      </trkpt>
      <trkpt lat="46.6532366909086704254150390625" lon="6.85066290199756622314453125">
        <ele>736.20001220703125</ele>
        <time>2013-08-15T16:29:47.000Z</time>
        <extensions>
          <ns3:TrackPointExtension>
            <ns3:atemp>17.0</ns3:atemp>
            <ns3:hr>123</ns3:hr>
          </ns3:TrackPointExtension>
        </extensions>
      </trkpt>
      <trkpt lat="46.6532105393707752227783203125" lon="6.85066197998821735382080078125">
        <ele>736.4000244140625</ele>
        <time>2013-08-15T16:29:48.000Z</time>
        <extensions>
          <ns3:TrackPointExtension>
            <ns3:atemp>17.0</ns3:atemp>
            <ns3:hr>122</ns3:hr>
          </ns3:TrackPointExtension>
        </extensions>
      </trkpt>
      <trkpt lat="46.65318111889064311981201171875" lon="6.85065728612244129180908203125">
        <ele>736.5999755859375</ele>
        <time>2013-08-15T16:29:49.000Z</time>
        <extensions>
          <ns3:TrackPointExtension>
            <ns3:atemp>17.0</ns3:atemp>
            <ns3:hr>121</ns3:hr>
          </ns3:TrackPointExtension>
        </extensions>
      </trkpt>
      <trkpt lat="46.65314859710633754730224609375" lon="6.8506533466279506683349609375">
        <ele>736.5999755859375</ele>
        <time>2013-08-15T16:29:50.000Z</time>
        <extensions>
          <ns3:TrackPointExtension>
            <ns3:atemp>17.0</ns3:atemp>
            <ns3:hr>121</ns3:hr>
          </ns3:TrackPointExtension>
        </extensions>
      </trkpt>
      <trkpt lat="46.65311506949365139007568359375" lon="6.85064739547669887542724609375">
        <ele>736.79998779296875</ele>
        <time>2013-08-15T16:29:51.000Z</time>
        <extensions>
          <ns3:TrackPointExtension>
            <ns3:atemp>17.0</ns3:atemp>
            <ns3:hr>121</ns3:hr>
          </ns3:TrackPointExtension>
        </extensions>
      </trkpt>
      <trkpt lat="46.65307969786226749420166015625" lon="6.8506359122693538665771484375">
        <ele>737</ele>
        <time>2013-08-15T16:29:52.000Z</time>
        <extensions>
          <ns3:TrackPointExtension>
            <ns3:atemp>17.0</ns3:atemp>
            <ns3:hr>120</ns3:hr>
          </ns3:TrackPointExtension>
        </extensions>
      </trkpt>
      <trkpt lat="46.65304516442120075225830078125" lon="6.8506228365004062652587890625">
        <ele>737.20001220703125</ele>
        <time>2013-08-15T16:29:53.000Z</time>
        <extensions>
          <ns3:TrackPointExtension>
            <ns3:atemp>17.0</ns3:atemp>
            <ns3:hr>120</ns3:hr>
          </ns3:TrackPointExtension>
        </extensions>
      </trkpt>
      <trkpt lat="46.65301121771335601806640625" lon="6.8506074137985706329345703125">
        <ele>737.20001220703125</ele>
        <time>2013-08-15T16:29:54.000Z</time>
        <extensions>
          <ns3:TrackPointExtension>
            <ns3:atemp>17.0</ns3:atemp>
            <ns3:hr>121</ns3:hr>
          </ns3:TrackPointExtension>
        </extensions>
      </trkpt>
      <trkpt lat="46.65298037230968475341796875" lon="6.85059542767703533172607421875">
        <ele>737.4000244140625</ele>
        <time>2013-08-15T16:29:55.000Z</time>
        <extensions>
          <ns3:TrackPointExtension>
            <ns3:atemp>17.0</ns3:atemp>
            <ns3:hr>121</ns3:hr>
          </ns3:TrackPointExtension>
        </extensions>
      </trkpt>
      <trkpt lat="46.6529493592679500579833984375" lon="6.8505832739174365997314453125">
        <ele>737.5999755859375</ele>
        <time>2013-08-15T16:29:56.000Z</time>
        <extensions>
          <ns3:TrackPointExtension>
            <ns3:atemp>17.0</ns3:atemp>
            <ns3:hr>121</ns3:hr>
          </ns3:TrackPointExtension>
        </extensions>
      </trkpt>
      <trkpt lat="46.65291742421686649322509765625" lon="6.850568689405918121337890625">
        <ele>737.79998779296875</ele>
        <time>2013-08-15T16:29:57.000Z</time>
        <extensions>
          <ns3:TrackPointExtension>
            <ns3:atemp>17.0</ns3:atemp>
            <ns3:hr>121</ns3:hr>
          </ns3:TrackPointExtension>
        </extensions>
      </trkpt>
      <trkpt lat="46.6528836451470851898193359375" lon="6.85055502690374851226806640625">
        <ele>738</ele>
        <time>2013-08-15T16:29:58.000Z</time>
        <extensions>
          <ns3:TrackPointExtension>
            <ns3:atemp>17.0</ns3:atemp>
            <ns3:hr>122</ns3:hr>
          </ns3:TrackPointExtension>
        </extensions>
      </trkpt>
      <trkpt lat="46.65284919552505016326904296875" lon="6.85054345987737178802490234375">
        <ele>738.20001220703125</ele>
        <time>2013-08-15T16:29:59.000Z</time>
        <extensions>
          <ns3:TrackPointExtension>
            <ns3:atemp>17.0</ns3:atemp>
            <ns3:hr>122</ns3:hr>
          </ns3:TrackPointExtension>
        </extensions>
      </trkpt>
      <trkpt lat="46.65281130932271480560302734375" lon="6.85053289867937564849853515625">
        <ele>738.4000244140625</ele>
        <time>2013-08-15T16:30:00.000Z</time>
        <extensions>
          <ns3:TrackPointExtension>
            <ns3:atemp>17.0</ns3:atemp>
            <ns3:hr>122</ns3:hr>
          </ns3:TrackPointExtension>
        </extensions>
      </trkpt>
      <trkpt lat="46.65277384221553802490234375" lon="6.85052518732845783233642578125">
        <ele>738.5999755859375</ele>
        <time>2013-08-15T16:30:01.000Z</time>
        <extensions>
          <ns3:TrackPointExtension>
            <ns3:atemp>17.0</ns3:atemp>
            <ns3:hr>123</ns3:hr>
          </ns3:TrackPointExtension>
        </extensions>
      </trkpt>
      <trkpt lat="46.65273654274642467498779296875" lon="6.85051831416785717010498046875">
        <ele>738.79998779296875</ele>
        <time>2013-08-15T16:30:02.000Z</time>
        <extensions>
          <ns3:TrackPointExtension>
            <ns3:atemp>17.0</ns3:atemp>
            <ns3:hr>123</ns3:hr>
          </ns3:TrackPointExtension>
        </extensions>
      </trkpt>
      <trkpt lat="46.652701757848262786865234375" lon="6.8505106866359710693359375">
        <ele>739.20001220703125</ele>
        <time>2013-08-15T16:30:03.000Z</time>
        <extensions>
          <ns3:TrackPointExtension>
            <ns3:atemp>17.0</ns3:atemp>
            <ns3:hr>124</ns3:hr>
          </ns3:TrackPointExtension>
        </extensions>
      </trkpt>
      <trkpt lat="46.6526680625975131988525390625" lon="6.85050020925700664520263671875">
        <ele>739.5999755859375</ele>
        <time>2013-08-15T16:30:04.000Z</time>
        <extensions>
          <ns3:TrackPointExtension>
            <ns3:atemp>17.0</ns3:atemp>
            <ns3:hr>124</ns3:hr>
          </ns3:TrackPointExtension>
        </extensions>
      </trkpt>
      <trkpt lat="46.652635037899017333984375" lon="6.85048964805901050567626953125">
        <ele>739.79998779296875</ele>
        <time>2013-08-15T16:30:05.000Z</time>
        <extensions>
          <ns3:TrackPointExtension>
            <ns3:atemp>17.0</ns3:atemp>
            <ns3:hr>125</ns3:hr>
          </ns3:TrackPointExtension>
        </extensions>
      </trkpt>
      <trkpt lat="46.65260259993374347686767578125" lon="6.85048528946936130523681640625">
        <ele>739.79998779296875</ele>
        <time>2013-08-15T16:30:06.000Z</time>
        <extensions>
          <ns3:TrackPointExtension>
            <ns3:atemp>17.0</ns3:atemp>
            <ns3:hr>126</ns3:hr>
          </ns3:TrackPointExtension>
        </extensions>
      </trkpt>
      <trkpt lat="46.65256873704493045806884765625" lon="6.8504786677658557891845703125">
        <ele>740</ele>
        <time>2013-08-15T16:30:07.000Z</time>
        <extensions>
          <ns3:TrackPointExtension>
            <ns3:atemp>17.0</ns3:atemp>
            <ns3:hr>126</ns3:hr>
          </ns3:TrackPointExtension>
        </extensions>
      </trkpt>
      <trkpt lat="46.65253068320453166961669921875" lon="6.8504712916910648345947265625">
        <ele>740.20001220703125</ele>
        <time>2013-08-15T16:30:08.000Z</time>
        <extensions>
          <ns3:TrackPointExtension>
            <ns3:atemp>17.0</ns3:atemp>
            <ns3:hr>127</ns3:hr>
          </ns3:TrackPointExtension>
        </extensions>
      </trkpt>
      <trkpt lat="46.65249489247798919677734375" lon="6.8504629097878932952880859375">
        <ele>740.79998779296875</ele>
        <time>2013-08-15T16:30:09.000Z</time>
        <extensions>
          <ns3:TrackPointExtension>
            <ns3:atemp>17.0</ns3:atemp>
            <ns3:hr>128</ns3:hr>
          </ns3:TrackPointExtension>
        </extensions>
      </trkpt>
      <trkpt lat="46.6524595208466053009033203125" lon="6.85045234858989715576171875">
        <ele>741</ele>
        <time>2013-08-15T16:30:10.000Z</time>
        <extensions>
          <ns3:TrackPointExtension>
            <ns3:atemp>17.0</ns3:atemp>
            <ns3:hr>128</ns3:hr>
          </ns3:TrackPointExtension>
        </extensions>
      </trkpt>
      <trkpt lat="46.65242649614810943603515625" lon="6.85044421814382076263427734375">
        <ele>741.20001220703125</ele>
        <time>2013-08-15T16:30:11.000Z</time>
        <extensions>
          <ns3:TrackPointExtension>
            <ns3:atemp>17.0</ns3:atemp>
            <ns3:hr>128</ns3:hr>
          </ns3:TrackPointExtension>
        </extensions>
      </trkpt>
      <trkpt lat="46.6523938067257404327392578125" lon="6.85043281875550746917724609375">
        <ele>741.4000244140625</ele>
        <time>2013-08-15T16:30:12.000Z</time>
        <extensions>
          <ns3:TrackPointExtension>
            <ns3:atemp>17.0</ns3:atemp>
            <ns3:hr>129</ns3:hr>
          </ns3:TrackPointExtension>
        </extensions>
      </trkpt>
      <trkpt lat="46.6523582674562931060791015625" lon="6.85041622258722782135009765625">
        <ele>741.4000244140625</ele>
        <time>2013-08-15T16:30:13.000Z</time>
        <extensions>
          <ns3:TrackPointExtension>
            <ns3:atemp>17.0</ns3:atemp>
            <ns3:hr>129</ns3:hr>
          </ns3:TrackPointExtension>
        </extensions>
      </trkpt>
      <trkpt lat="46.652322225272655487060546875" lon="6.85039526782929897308349609375">
        <ele>741.5999755859375</ele>
        <time>2013-08-15T16:30:14.000Z</time>
        <extensions>
          <ns3:TrackPointExtension>
            <ns3:atemp>17.0</ns3:atemp>
            <ns3:hr>130</ns3:hr>
          </ns3:TrackPointExtension>
        </extensions>
      </trkpt>
      <trkpt lat="46.65228568017482757568359375" lon="6.85037330724298954010009765625">
        <ele>741.5999755859375</ele>
        <time>2013-08-15T16:30:15.000Z</time>
        <extensions>
          <ns3:TrackPointExtension>
            <ns3:atemp>17.0</ns3:atemp>
            <ns3:hr>130</ns3:hr>
          </ns3:TrackPointExtension>
        </extensions>
      </trkpt>
      <trkpt lat="46.6522476263344287872314453125" lon="6.85035469941794872283935546875">
        <ele>741.79998779296875</ele>
        <time>2013-08-15T16:30:16.000Z</time>
        <extensions>
          <ns3:TrackPointExtension>
            <ns3:atemp>17.0</ns3:atemp>
            <ns3:hr>130</ns3:hr>
          </ns3:TrackPointExtension>
        </extensions>
      </trkpt>
      <trkpt lat="46.65220831520855426788330078125" lon="6.85033692978322505950927734375">
        <ele>741.5999755859375</ele>
        <time>2013-08-15T16:30:17.000Z</time>
        <extensions>
          <ns3:TrackPointExtension>
            <ns3:atemp>17.0</ns3:atemp>
            <ns3:hr>131</ns3:hr>
          </ns3:TrackPointExtension>
        </extensions>
      </trkpt>
      <trkpt lat="46.65217026136815547943115234375" lon="6.8503214232623577117919921875">
        <ele>742</ele>
        <time>2013-08-15T16:30:18.000Z</time>
        <extensions>
          <ns3:TrackPointExtension>
            <ns3:atemp>17.0</ns3:atemp>
            <ns3:hr>131</ns3:hr>
          </ns3:TrackPointExtension>
        </extensions>
      </trkpt>
      <trkpt lat="46.65212810039520263671875" lon="6.85030826367437839508056640625">
        <ele>742</ele>
        <time>2013-08-15T16:30:19.000Z</time>
        <extensions>
          <ns3:TrackPointExtension>
            <ns3:atemp>17.0</ns3:atemp>
            <ns3:hr>131</ns3:hr>
          </ns3:TrackPointExtension>
        </extensions>
      </trkpt>
      <trkpt lat="46.6520866937935352325439453125" lon="6.85029787011444568634033203125">
        <ele>742.4000244140625</ele>
        <time>2013-08-15T16:30:20.000Z</time>
        <extensions>
          <ns3:TrackPointExtension>
            <ns3:atemp>17.0</ns3:atemp>
            <ns3:hr>132</ns3:hr>
          </ns3:TrackPointExtension>
        </extensions>
      </trkpt>
      <trkpt lat="46.65204294025897979736328125" lon="6.8502885662019252777099609375">
        <ele>742.20001220703125</ele>
        <time>2013-08-15T16:30:21.000Z</time>
        <extensions>
          <ns3:TrackPointExtension>
            <ns3:atemp>17.0</ns3:atemp>
            <ns3:hr>132</ns3:hr>
          </ns3:TrackPointExtension>
        </extensions>
      </trkpt>
      <trkpt lat="46.651997677981853485107421875" lon="6.8502775020897388458251953125">
        <ele>742.4000244140625</ele>
        <time>2013-08-15T16:30:22.000Z</time>
        <extensions>
          <ns3:TrackPointExtension>
            <ns3:atemp>17.0</ns3:atemp>
            <ns3:hr>133</ns3:hr>
          </ns3:TrackPointExtension>
        </extensions>
      </trkpt>
      <trkpt lat="46.6519529186189174652099609375" lon="6.850267611443996429443359375">
        <ele>742.5999755859375</ele>
        <time>2013-08-15T16:30:23.000Z</time>
        <extensions>
          <ns3:TrackPointExtension>
            <ns3:atemp>17.0</ns3:atemp>
            <ns3:hr>133</ns3:hr>
          </ns3:TrackPointExtension>
        </extensions>
      </trkpt>
      <trkpt lat="46.6519086621701717376708984375" lon="6.85025763697922229766845703125">
        <ele>742.5999755859375</ele>
        <time>2013-08-15T16:30:24.000Z</time>
        <extensions>
          <ns3:TrackPointExtension>
            <ns3:atemp>17.0</ns3:atemp>
            <ns3:hr>133</ns3:hr>
          </ns3:TrackPointExtension>
        </extensions>
      </trkpt>
      <trkpt lat="46.65186348371207714080810546875" lon="6.85024808160960674285888671875">
        <ele>743</ele>
        <time>2013-08-15T16:30:25.000Z</time>
        <extensions>
          <ns3:TrackPointExtension>
            <ns3:atemp>17.0</ns3:atemp>
            <ns3:hr>133</ns3:hr>
          </ns3:TrackPointExtension>
        </extensions>
      </trkpt>
      <trkpt lat="46.65182190947234630584716796875" lon="6.8502376042306423187255859375">
        <ele>743</ele>
        <time>2013-08-15T16:30:26.000Z</time>
        <extensions>
          <ns3:TrackPointExtension>
            <ns3:atemp>17.0</ns3:atemp>
            <ns3:hr>134</ns3:hr>
          </ns3:TrackPointExtension>
        </extensions>
      </trkpt>
      <trkpt lat="46.6517822630703449249267578125" lon="6.85023483820259571075439453125">
        <ele>743.20001220703125</ele>
        <time>2013-08-15T16:30:27.000Z</time>
        <extensions>
          <ns3:TrackPointExtension>
            <ns3:atemp>17.0</ns3:atemp>
            <ns3:hr>134</ns3:hr>
          </ns3:TrackPointExtension>
        </extensions>
      </trkpt>
      <trkpt lat="46.6517453826963901519775390625" lon="6.8502352572977542877197265625">
        <ele>743.4000244140625</ele>
        <time>2013-08-15T16:30:28.000Z</time>
        <extensions>
          <ns3:TrackPointExtension>
            <ns3:atemp>17.0</ns3:atemp>
            <ns3:hr>135</ns3:hr>
          </ns3:TrackPointExtension>
        </extensions>
      </trkpt>
      <trkpt lat="46.65171093307435512542724609375" lon="6.85024020262062549591064453125">
        <ele>743.5999755859375</ele>
        <time>2013-08-15T16:30:29.000Z</time>
        <extensions>
          <ns3:TrackPointExtension>
            <ns3:atemp>17.0</ns3:atemp>
            <ns3:hr>135</ns3:hr>
          </ns3:TrackPointExtension>
        </extensions>
      </trkpt>
      <trkpt lat="46.6516761481761932373046875" lon="6.8502453155815601348876953125">
        <ele>743.5999755859375</ele>
        <time>2013-08-15T16:30:30.000Z</time>
        <extensions>
          <ns3:TrackPointExtension>
            <ns3:atemp>17.0</ns3:atemp>
            <ns3:hr>136</ns3:hr>
          </ns3:TrackPointExtension>
        </extensions>
      </trkpt>
      <trkpt lat="46.65164220146834850311279296875" lon="6.85024674050509929656982421875">
        <ele>744</ele>
        <time>2013-08-15T16:30:31.000Z</time>
        <extensions>
          <ns3:TrackPointExtension>
            <ns3:atemp>17.0</ns3:atemp>
            <ns3:hr>136</ns3:hr>
          </ns3:TrackPointExtension>
        </extensions>
      </trkpt>
      <trkpt lat="46.65161152370274066925048828125" lon="6.85024858452379703521728515625">
        <ele>744.20001220703125</ele>
        <time>2013-08-15T16:30:32.000Z</time>
        <extensions>
          <ns3:TrackPointExtension>
            <ns3:atemp>17.0</ns3:atemp>
            <ns3:hr>137</ns3:hr>
          </ns3:TrackPointExtension>
        </extensions>
      </trkpt>
      <trkpt lat="46.6515847854316234588623046875" lon="6.850253529846668243408203125">
        <ele>744.5999755859375</ele>
        <time>2013-08-15T16:30:33.000Z</time>
        <extensions>
          <ns3:TrackPointExtension>
            <ns3:atemp>17.0</ns3:atemp>
            <ns3:hr>137</ns3:hr>
          </ns3:TrackPointExtension>
        </extensions>
      </trkpt>
      <trkpt lat="46.65156123228371143341064453125" lon="6.8502583913505077362060546875">
        <ele>744.5999755859375</ele>
        <time>2013-08-15T16:30:34.000Z</time>
        <extensions>
          <ns3:TrackPointExtension>
            <ns3:atemp>17.0</ns3:atemp>
            <ns3:hr>138</ns3:hr>
          </ns3:TrackPointExtension>
        </extensions>
      </trkpt>
      <trkpt lat="46.65153809823095798492431640625" lon="6.85026333667337894439697265625">
        <ele>745</ele>
        <time>2013-08-15T16:30:35.000Z</time>
        <extensions>
          <ns3:TrackPointExtension>
            <ns3:atemp>17.0</ns3:atemp>
            <ns3:hr>139</ns3:hr>
          </ns3:TrackPointExtension>
        </extensions>
      </trkpt>
      <trkpt lat="46.65151597000658512115478515625" lon="6.85026325285434722900390625">
        <ele>745</ele>
        <time>2013-08-15T16:30:36.000Z</time>
        <extensions>
          <ns3:TrackPointExtension>
            <ns3:atemp>17.0</ns3:atemp>
            <ns3:hr>139</ns3:hr>
          </ns3:TrackPointExtension>
        </extensions>
      </trkpt>
      <trkpt lat="46.6514969430863857269287109375" lon="6.8502620793879032135009765625">
        <ele>745.5999755859375</ele>
        <time>2013-08-15T16:30:37.000Z</time>
        <extensions>
          <ns3:TrackPointExtension>
            <ns3:atemp>17.0</ns3:atemp>
            <ns3:hr>139</ns3:hr>
          </ns3:TrackPointExtension>
        </extensions>
      </trkpt>
      <trkpt lat="46.651476323604583740234375" lon="6.8502644263207912445068359375">
        <ele>745.79998779296875</ele>
        <time>2013-08-15T16:30:38.000Z</time>
        <extensions>
          <ns3:TrackPointExtension>
            <ns3:atemp>17.0</ns3:atemp>
            <ns3:hr>140</ns3:hr>
          </ns3:TrackPointExtension>
        </extensions>
      </trkpt>
      <trkpt lat="46.65145377628505229949951171875" lon="6.85026585124433040618896484375">
        <ele>746</ele>
        <time>2013-08-15T16:30:39.000Z</time>
        <extensions>
          <ns3:TrackPointExtension>
            <ns3:atemp>17.0</ns3:atemp>
            <ns3:hr>141</ns3:hr>
          </ns3:TrackPointExtension>
        </extensions>
      </trkpt>
      <trkpt lat="46.65142913348972797393798828125" lon="6.85026719234883785247802734375">
        <ele>746.20001220703125</ele>
        <time>2013-08-15T16:30:40.000Z</time>
        <extensions>
          <ns3:TrackPointExtension>
            <ns3:atemp>17.0</ns3:atemp>
            <ns3:hr>141</ns3:hr>
          </ns3:TrackPointExtension>
        </extensions>
      </trkpt>
      <trkpt lat="46.65140180848538875579833984375" lon="6.850260905921459197998046875">
        <ele>746.4000244140625</ele>
        <time>2013-08-15T16:30:41.000Z</time>
        <extensions>
          <ns3:TrackPointExtension>
            <ns3:atemp>17.0</ns3:atemp>
            <ns3:hr>141</ns3:hr>
          </ns3:TrackPointExtension>
        </extensions>
      </trkpt>
      <trkpt lat="46.6513755731284618377685546875" lon="6.85025327838957309722900390625">
        <ele>746.79998779296875</ele>
        <time>2013-08-15T16:30:42.000Z</time>
        <extensions>
          <ns3:TrackPointExtension>
            <ns3:atemp>17.0</ns3:atemp>
            <ns3:hr>142</ns3:hr>
          </ns3:TrackPointExtension>
        </extensions>
      </trkpt>
      <trkpt lat="46.65134849958121776580810546875" lon="6.8502446450293064117431640625">
        <ele>746.79998779296875</ele>
        <time>2013-08-15T16:30:43.000Z</time>
        <extensions>
          <ns3:TrackPointExtension>
            <ns3:atemp>17.0</ns3:atemp>
            <ns3:hr>142</ns3:hr>
          </ns3:TrackPointExtension>
        </extensions>
      </trkpt>
      <trkpt lat="46.65131337940692901611328125" lon="6.85023366473615169525146484375">
        <ele>747</ele>
        <time>2013-08-15T16:30:44.000Z</time>
        <extensions>
          <ns3:TrackPointExtension>
            <ns3:atemp>17.0</ns3:atemp>
            <ns3:hr>142</ns3:hr>
          </ns3:TrackPointExtension>
        </extensions>
      </trkpt>
      <trkpt lat="46.65127876214683055877685546875" lon="6.85021840967237949371337890625">
        <ele>747.20001220703125</ele>
        <time>2013-08-15T16:30:45.000Z</time>
        <extensions>
          <ns3:TrackPointExtension>
            <ns3:atemp>17.0</ns3:atemp>
            <ns3:hr>143</ns3:hr>
          </ns3:TrackPointExtension>
        </extensions>
      </trkpt>
      <trkpt lat="46.65124355815351009368896484375" lon="6.8502124585211277008056640625">
        <ele>747.4000244140625</ele>
        <time>2013-08-15T16:30:46.000Z</time>
        <extensions>
          <ns3:TrackPointExtension>
            <ns3:atemp>17.0</ns3:atemp>
            <ns3:hr>143</ns3:hr>
          </ns3:TrackPointExtension>
        </extensions>
      </trkpt>
      <trkpt lat="46.65121153928339481353759765625" lon="6.8502050824463367462158203125">
        <ele>747.5999755859375</ele>
        <time>2013-08-15T16:30:47.000Z</time>
        <extensions>
          <ns3:TrackPointExtension>
            <ns3:atemp>17.0</ns3:atemp>
            <ns3:hr>143</ns3:hr>
          </ns3:TrackPointExtension>
        </extensions>
      </trkpt>
      <trkpt lat="46.65118061006069183349609375" lon="6.8501960299909114837646484375">
        <ele>748</ele>
        <time>2013-08-15T16:30:48.000Z</time>
        <extensions>
          <ns3:TrackPointExtension>
            <ns3:atemp>17.0</ns3:atemp>
            <ns3:hr>144</ns3:hr>
          </ns3:TrackPointExtension>
        </extensions>
      </trkpt>
      <trkpt lat="46.65114884264767169952392578125" lon="6.8501873128116130828857421875">
        <ele>748.4000244140625</ele>
        <time>2013-08-15T16:30:49.000Z</time>
        <extensions>
          <ns3:TrackPointExtension>
            <ns3:atemp>17.0</ns3:atemp>
            <ns3:hr>144</ns3:hr>
          </ns3:TrackPointExtension>
        </extensions>
      </trkpt>
      <trkpt lat="46.6511164046823978424072265625" lon="6.85018119402229785919189453125">
        <ele>748.5999755859375</ele>
        <time>2013-08-15T16:30:50.000Z</time>
        <extensions>
          <ns3:TrackPointExtension>
            <ns3:atemp>17.0</ns3:atemp>
            <ns3:hr>144</ns3:hr>
          </ns3:TrackPointExtension>
        </extensions>
      </trkpt>
      <trkpt lat="46.6510833799839019775390625" lon="6.85017247684299945831298828125">
        <ele>748.79998779296875</ele>
        <time>2013-08-15T16:30:51.000Z</time>
        <extensions>
          <ns3:TrackPointExtension>
            <ns3:atemp>17.0</ns3:atemp>
            <ns3:hr>144</ns3:hr>
          </ns3:TrackPointExtension>
        </extensions>
      </trkpt>
      <trkpt lat="46.65104507468640804290771484375" lon="6.85016107745468616485595703125">
        <ele>749</ele>
        <time>2013-08-15T16:30:52.000Z</time>
        <extensions>
          <ns3:TrackPointExtension>
            <ns3:atemp>17.0</ns3:atemp>
            <ns3:hr>145</ns3:hr>
          </ns3:TrackPointExtension>
        </extensions>
      </trkpt>
      <trkpt lat="46.6510071046650409698486328125" lon="6.8501470796763896942138671875">
        <ele>749</ele>
        <time>2013-08-15T16:30:53.000Z</time>
        <extensions>
          <ns3:TrackPointExtension>
            <ns3:atemp>17.0</ns3:atemp>
            <ns3:hr>146</ns3:hr>
          </ns3:TrackPointExtension>
        </extensions>
      </trkpt>
      <trkpt lat="46.65096628479659557342529296875" lon="6.850128471851348876953125">
        <ele>749.20001220703125</ele>
        <time>2013-08-15T16:30:54.000Z</time>
        <extensions>
          <ns3:TrackPointExtension>
            <ns3:atemp>17.0</ns3:atemp>
            <ns3:hr>146</ns3:hr>
          </ns3:TrackPointExtension>
        </extensions>
      </trkpt>
      <trkpt lat="46.6509256325662136077880859375" lon="6.850106678903102874755859375">
        <ele>749.20001220703125</ele>
        <time>2013-08-15T16:30:55.000Z</time>
        <extensions>
          <ns3:TrackPointExtension>
            <ns3:atemp>17.0</ns3:atemp>
            <ns3:hr>146</ns3:hr>
          </ns3:TrackPointExtension>
        </extensions>
      </trkpt>
      <trkpt lat="46.65087752044200897216796875" lon="6.85008362866938114166259765625">
        <ele>749.4000244140625</ele>
        <time>2013-08-15T16:30:56.000Z</time>
        <extensions>
          <ns3:TrackPointExtension>
            <ns3:atemp>17.0</ns3:atemp>
            <ns3:hr>147</ns3:hr>
          </ns3:TrackPointExtension>
        </extensions>
      </trkpt>
      <trkpt lat="46.65083150379359722137451171875" lon="6.85006116516888141632080078125">
        <ele>749.4000244140625</ele>
        <time>2013-08-15T16:30:57.000Z</time>
        <extensions>
          <ns3:TrackPointExtension>
            <ns3:atemp>17.0</ns3:atemp>
            <ns3:hr>147</ns3:hr>
          </ns3:TrackPointExtension>
        </extensions>
      </trkpt>
      <trkpt lat="46.65078808553516864776611328125" lon="6.85003702528774738311767578125">
        <ele>749.5999755859375</ele>
        <time>2013-08-15T16:30:58.000Z</time>
        <extensions>
          <ns3:TrackPointExtension>
            <ns3:atemp>17.0</ns3:atemp>
            <ns3:hr>147</ns3:hr>
          </ns3:TrackPointExtension>
        </extensions>
      </trkpt>
      <trkpt lat="46.65074483491480350494384765625" lon="6.85001791454851627349853515625">
        <ele>749.79998779296875</ele>
        <time>2013-08-15T16:30:59.000Z</time>
        <extensions>
          <ns3:TrackPointExtension>
            <ns3:atemp>17.0</ns3:atemp>
            <ns3:hr>147</ns3:hr>
          </ns3:TrackPointExtension>
        </extensions>
      </trkpt>
      <trkpt lat="46.6507016681134700775146484375" lon="6.8499978817999362945556640625">
        <ele>749.79998779296875</ele>
        <time>2013-08-15T16:31:00.000Z</time>
        <extensions>
          <ns3:TrackPointExtension>
            <ns3:atemp>17.0</ns3:atemp>
            <ns3:hr>147</ns3:hr>
          </ns3:TrackPointExtension>
        </extensions>
      </trkpt>
      <trkpt lat="46.6506543941795825958251953125" lon="6.84998623095452785491943359375">
        <ele>750</ele>
        <time>2013-08-15T16:31:01.000Z</time>
        <extensions>
          <ns3:TrackPointExtension>
            <ns3:atemp>17.0</ns3:atemp>
            <ns3:hr>147</ns3:hr>
          </ns3:TrackPointExtension>
        </extensions>
      </trkpt>
      <trkpt lat="46.6506071202456951141357421875" lon="6.849970556795597076416015625">
        <ele>749.79998779296875</ele>
        <time>2013-08-15T16:31:02.000Z</time>
        <extensions>
          <ns3:TrackPointExtension>
            <ns3:atemp>17.0</ns3:atemp>
            <ns3:hr>147</ns3:hr>
          </ns3:TrackPointExtension>
        </extensions>
      </trkpt>
      <trkpt lat="46.650559008121490478515625" lon="6.84994918294250965118408203125">
        <ele>750</ele>
        <time>2013-08-15T16:31:03.000Z</time>
        <extensions>
          <ns3:TrackPointExtension>
            <ns3:atemp>17.0</ns3:atemp>
            <ns3:hr>147</ns3:hr>
          </ns3:TrackPointExtension>
        </extensions>
      </trkpt>
      <trkpt lat="46.650511734187602996826171875" lon="6.84992873109877109527587890625">
        <ele>750</ele>
        <time>2013-08-15T16:31:04.000Z</time>
        <extensions>
          <ns3:TrackPointExtension>
            <ns3:atemp>17.0</ns3:atemp>
            <ns3:hr>146</ns3:hr>
          </ns3:TrackPointExtension>
        </extensions>
      </trkpt>
      <trkpt lat="46.650465466082096099853515625" lon="6.8499113805592060089111328125">
        <ele>749.79998779296875</ele>
        <time>2013-08-15T16:31:05.000Z</time>
        <extensions>
          <ns3:TrackPointExtension>
            <ns3:atemp>17.0</ns3:atemp>
            <ns3:hr>146</ns3:hr>
          </ns3:TrackPointExtension>
        </extensions>
      </trkpt>
      <trkpt lat="46.6504176892340183258056640625" lon="6.84989570640027523040771484375">
        <ele>749.79998779296875</ele>
        <time>2013-08-15T16:31:06.000Z</time>
        <extensions>
          <ns3:TrackPointExtension>
            <ns3:atemp>17.0</ns3:atemp>
            <ns3:hr>146</ns3:hr>
          </ns3:TrackPointExtension>
        </extensions>
      </trkpt>
      <trkpt lat="46.6503720916807651519775390625" lon="6.8498825468122959136962890625">
        <ele>750</ele>
        <time>2013-08-15T16:31:07.000Z</time>
        <extensions>
          <ns3:TrackPointExtension>
            <ns3:atemp>17.0</ns3:atemp>
            <ns3:hr>145</ns3:hr>
          </ns3:TrackPointExtension>
        </extensions>
      </trkpt>
      <trkpt lat="46.65032775141298770904541015625" lon="6.84987642802298069000244140625">
        <ele>750.20001220703125</ele>
        <time>2013-08-15T16:31:08.000Z</time>
        <extensions>
          <ns3:TrackPointExtension>
            <ns3:atemp>17.0</ns3:atemp>
            <ns3:hr>146</ns3:hr>
          </ns3:TrackPointExtension>
        </extensions>
      </trkpt>
      <trkpt lat="46.650283075869083404541015625" lon="6.8498691357672214508056640625">
        <ele>750.4000244140625</ele>
        <time>2013-08-15T16:31:09.000Z</time>
        <extensions>
          <ns3:TrackPointExtension>
            <ns3:atemp>17.0</ns3:atemp>
            <ns3:hr>145</ns3:hr>
          </ns3:TrackPointExtension>
        </extensions>
      </trkpt>
      <trkpt lat="46.65024175308644771575927734375" lon="6.8498627655208110809326171875">
        <ele>750.4000244140625</ele>
        <time>2013-08-15T16:31:10.000Z</time>
        <extensions>
          <ns3:TrackPointExtension>
            <ns3:atemp>17.0</ns3:atemp>
            <ns3:hr>145</ns3:hr>
          </ns3:TrackPointExtension>
        </extensions>
      </trkpt>
      <trkpt lat="46.65020068176090717315673828125" lon="6.84985463507473468780517578125">
        <ele>750.4000244140625</ele>
        <time>2013-08-15T16:31:11.000Z</time>
        <extensions>
          <ns3:TrackPointExtension>
            <ns3:atemp>17.0</ns3:atemp>
            <ns3:hr>145</ns3:hr>
          </ns3:TrackPointExtension>
        </extensions>
      </trkpt>
      <trkpt lat="46.6501588560640811920166015625" lon="6.84983384795486927032470703125">
        <ele>750.20001220703125</ele>
        <time>2013-08-15T16:31:12.000Z</time>
        <extensions>
          <ns3:TrackPointExtension>
            <ns3:atemp>17.0</ns3:atemp>
            <ns3:hr>145</ns3:hr>
          </ns3:TrackPointExtension>
        </extensions>
      </trkpt>
      <trkpt lat="46.65011418052017688751220703125" lon="6.849810965359210968017578125">
        <ele>750.4000244140625</ele>
        <time>2013-08-15T16:31:13.000Z</time>
        <extensions>
          <ns3:TrackPointExtension>
            <ns3:atemp>17.0</ns3:atemp>
            <ns3:hr>144</ns3:hr>
          </ns3:TrackPointExtension>
        </extensions>
      </trkpt>
      <trkpt lat="46.65006875060498714447021484375" lon="6.8497923575341701507568359375">
        <ele>750.4000244140625</ele>
        <time>2013-08-15T16:31:14.000Z</time>
        <extensions>
          <ns3:TrackPointExtension>
            <ns3:atemp>17.0</ns3:atemp>
            <ns3:hr>144</ns3:hr>
          </ns3:TrackPointExtension>
        </extensions>
      </trkpt>
      <trkpt lat="46.65002181194722652435302734375" lon="6.84977618046104907989501953125">
        <ele>750.4000244140625</ele>
        <time>2013-08-15T16:31:15.000Z</time>
        <extensions>
          <ns3:TrackPointExtension>
            <ns3:atemp>17.0</ns3:atemp>
            <ns3:hr>144</ns3:hr>
          </ns3:TrackPointExtension>
        </extensions>
      </trkpt>
      <trkpt lat="46.6499784775078296661376953125" lon="6.8497623503208160400390625">
        <ele>750.5999755859375</ele>
        <time>2013-08-15T16:31:16.000Z</time>
        <extensions>
          <ns3:TrackPointExtension>
            <ns3:atemp>17.0</ns3:atemp>
            <ns3:hr>144</ns3:hr>
          </ns3:TrackPointExtension>
        </extensions>
      </trkpt>
      <trkpt lat="46.6499389149248600006103515625" lon="6.8497462570667266845703125">
        <ele>750.79998779296875</ele>
        <time>2013-08-15T16:31:17.000Z</time>
        <extensions>
          <ns3:TrackPointExtension>
            <ns3:atemp>17.0</ns3:atemp>
            <ns3:hr>144</ns3:hr>
          </ns3:TrackPointExtension>
        </extensions>
      </trkpt>
      <trkpt lat="46.64989625103771686553955078125" lon="6.8497289903461933135986328125">
        <ele>750.5999755859375</ele>
        <time>2013-08-15T16:31:18.000Z</time>
        <extensions>
          <ns3:TrackPointExtension>
            <ns3:atemp>17.0</ns3:atemp>
            <ns3:hr>143</ns3:hr>
          </ns3:TrackPointExtension>
        </extensions>
      </trkpt>
      <trkpt lat="46.64985618554055690765380859375" lon="6.84972169809043407440185546875">
        <ele>750.4000244140625</ele>
        <time>2013-08-15T16:31:19.000Z</time>
        <extensions>
          <ns3:TrackPointExtension>
            <ns3:atemp>17.0</ns3:atemp>
            <ns3:hr>144</ns3:hr>
          </ns3:TrackPointExtension>
        </extensions>
      </trkpt>
      <trkpt lat="46.6498188860714435577392578125" lon="6.8497209437191486358642578125">
        <ele>750.20001220703125</ele>
        <time>2013-08-15T16:31:20.000Z</time>
        <extensions>
          <ns3:TrackPointExtension>
            <ns3:atemp>17.0</ns3:atemp>
            <ns3:hr>143</ns3:hr>
          </ns3:TrackPointExtension>
        </extensions>
      </trkpt>
      <trkpt lat="46.6497833468019962310791015625" lon="6.84972605668008327484130859375">
        <ele>750.4000244140625</ele>
        <time>2013-08-15T16:31:21.000Z</time>
        <extensions>
          <ns3:TrackPointExtension>
            <ns3:atemp>17.0</ns3:atemp>
            <ns3:hr>143</ns3:hr>
          </ns3:TrackPointExtension>
        </extensions>
      </trkpt>
      <trkpt lat="46.6497464664280414581298828125" lon="6.849734522402286529541015625">
        <ele>750.4000244140625</ele>
        <time>2013-08-15T16:31:22.000Z</time>
        <extensions>
          <ns3:TrackPointExtension>
            <ns3:atemp>17.0</ns3:atemp>
            <ns3:hr>143</ns3:hr>
          </ns3:TrackPointExtension>
        </extensions>
      </trkpt>
      <trkpt lat="46.64970732294023036956787109375" lon="6.84973812662065029144287109375">
        <ele>750.4000244140625</ele>
        <time>2013-08-15T16:31:23.000Z</time>
        <extensions>
          <ns3:TrackPointExtension>
            <ns3:atemp>17.0</ns3:atemp>
            <ns3:hr>143</ns3:hr>
          </ns3:TrackPointExtension>
        </extensions>
      </trkpt>
      <trkpt lat="46.64966356940567493438720703125" lon="6.84973678551614284515380859375">
        <ele>750.4000244140625</ele>
        <time>2013-08-15T16:31:24.000Z</time>
        <extensions>
          <ns3:TrackPointExtension>
            <ns3:atemp>17.0</ns3:atemp>
            <ns3:hr>142</ns3:hr>
          </ns3:TrackPointExtension>
        </extensions>
      </trkpt>
      <trkpt lat="46.64961419999599456787109375" lon="6.84973242692649364471435546875">
        <ele>750.5999755859375</ele>
        <time>2013-08-15T16:31:25.000Z</time>
        <extensions>
          <ns3:TrackPointExtension>
            <ns3:atemp>17.0</ns3:atemp>
            <ns3:hr>142</ns3:hr>
          </ns3:TrackPointExtension>
        </extensions>
      </trkpt>
      <trkpt lat="46.64956684224307537078857421875" lon="6.84972144663333892822265625">
        <ele>750.5999755859375</ele>
        <time>2013-08-15T16:31:26.000Z</time>
        <extensions>
          <ns3:TrackPointExtension>
            <ns3:atemp>17.0</ns3:atemp>
            <ns3:hr>142</ns3:hr>
          </ns3:TrackPointExtension>
        </extensions>
      </trkpt>
      <trkpt lat="46.64951839484274387359619140625" lon="6.8497082032263278961181640625">
        <ele>750.5999755859375</ele>
        <time>2013-08-15T16:31:27.000Z</time>
        <extensions>
          <ns3:TrackPointExtension>
            <ns3:atemp>17.0</ns3:atemp>
            <ns3:hr>142</ns3:hr>
          </ns3:TrackPointExtension>
        </extensions>
      </trkpt>
      <trkpt lat="46.64946994744241237640380859375" lon="6.84970133006572723388671875">
        <ele>750.4000244140625</ele>
        <time>2013-08-15T16:31:28.000Z</time>
        <extensions>
          <ns3:TrackPointExtension>
            <ns3:atemp>17.0</ns3:atemp>
            <ns3:hr>141</ns3:hr>
          </ns3:TrackPointExtension>
        </extensions>
      </trkpt>
      <trkpt lat="46.6494257748126983642578125" lon="6.84970728121697902679443359375">
        <ele>750</ele>
        <time>2013-08-15T16:31:29.000Z</time>
        <extensions>
          <ns3:TrackPointExtension>
            <ns3:atemp>17.0</ns3:atemp>
            <ns3:hr>141</ns3:hr>
          </ns3:TrackPointExtension>
        </extensions>
      </trkpt>
      <trkpt lat="46.64937757886946201324462890625" lon="6.849726475775241851806640625">
        <ele>750</ele>
        <time>2013-08-15T16:31:30.000Z</time>
        <extensions>
          <ns3:TrackPointExtension>
            <ns3:atemp>17.0</ns3:atemp>
            <ns3:hr>141</ns3:hr>
          </ns3:TrackPointExtension>
        </extensions>
      </trkpt>
      <trkpt lat="46.649330221116542816162109375" lon="6.84974784962832927703857421875">
        <ele>750</ele>
        <time>2013-08-15T16:31:31.000Z</time>
        <extensions>
          <ns3:TrackPointExtension>
            <ns3:atemp>17.0</ns3:atemp>
            <ns3:hr>141</ns3:hr>
          </ns3:TrackPointExtension>
        </extensions>
      </trkpt>
      <trkpt lat="46.64928236044943332672119140625" lon="6.849784143269062042236328125">
        <ele>750</ele>
        <time>2013-08-15T16:31:32.000Z</time>
        <extensions>
          <ns3:TrackPointExtension>
            <ns3:atemp>17.0</ns3:atemp>
            <ns3:hr>141</ns3:hr>
          </ns3:TrackPointExtension>
        </extensions>
      </trkpt>
      <trkpt lat="46.64922662079334259033203125" lon="6.84984155930578708648681640625">
        <ele>749.79998779296875</ele>
        <time>2013-08-15T16:31:33.000Z</time>
        <extensions>
          <ns3:TrackPointExtension>
            <ns3:atemp>17.0</ns3:atemp>
            <ns3:hr>140</ns3:hr>
          </ns3:TrackPointExtension>
        </extensions>
      </trkpt>
      <trkpt lat="46.649173311889171600341796875" lon="6.8499097041785717010498046875">
        <ele>749.79998779296875</ele>
        <time>2013-08-15T16:31:34.000Z</time>
        <extensions>
          <ns3:TrackPointExtension>
            <ns3:atemp>17.0</ns3:atemp>
            <ns3:hr>140</ns3:hr>
          </ns3:TrackPointExtension>
        </extensions>
      </trkpt>
      <trkpt lat="46.64912058971822261810302734375" lon="6.849977932870388031005859375">
        <ele>749.5999755859375</ele>
        <time>2013-08-15T16:31:35.000Z</time>
        <extensions>
          <ns3:TrackPointExtension>
            <ns3:atemp>17.0</ns3:atemp>
            <ns3:hr>140</ns3:hr>
          </ns3:TrackPointExtension>
        </extensions>
      </trkpt>
      <trkpt lat="46.64906593970954418182373046875" lon="6.8500505201518535614013671875">
        <ele>749.79998779296875</ele>
        <time>2013-08-15T16:31:36.000Z</time>
        <extensions>
          <ns3:TrackPointExtension>
            <ns3:atemp>17.0</ns3:atemp>
            <ns3:hr>139</ns3:hr>
          </ns3:TrackPointExtension>
        </extensions>
      </trkpt>
      <trkpt lat="46.649012379348278045654296875" lon="6.850120089948177337646484375">
        <ele>749.79998779296875</ele>
        <time>2013-08-15T16:31:37.000Z</time>
        <extensions>
          <ns3:TrackPointExtension>
            <ns3:atemp>17.0</ns3:atemp>
            <ns3:hr>138</ns3:hr>
          </ns3:TrackPointExtension>
        </extensions>
      </trkpt>
      <trkpt lat="46.64895881898701190948486328125" lon="6.85018957592546939849853515625">
        <ele>749.79998779296875</ele>
        <time>2013-08-15T16:31:38.000Z</time>
        <extensions>
          <ns3:TrackPointExtension>
            <ns3:atemp>17.0</ns3:atemp>
            <ns3:hr>138</ns3:hr>
          </ns3:TrackPointExtension>
        </extensions>
      </trkpt>
      <trkpt lat="46.64890601299703121185302734375" lon="6.85026216320693492889404296875">
        <ele>749.5999755859375</ele>
        <time>2013-08-15T16:31:39.000Z</time>
        <extensions>
          <ns3:TrackPointExtension>
            <ns3:atemp>17.0</ns3:atemp>
            <ns3:hr>138</ns3:hr>
          </ns3:TrackPointExtension>
        </extensions>
      </trkpt>
      <trkpt lat="46.648854129016399383544921875" lon="6.85033357702195644378662109375">
        <ele>749.5999755859375</ele>
        <time>2013-08-15T16:31:40.000Z</time>
        <extensions>
          <ns3:TrackPointExtension>
            <ns3:atemp>17.0</ns3:atemp>
            <ns3:hr>137</ns3:hr>
          </ns3:TrackPointExtension>
        </extensions>
      </trkpt>
      <trkpt lat="46.648803167045116424560546875" lon="6.85040406882762908935546875">
        <ele>749.5999755859375</ele>
        <time>2013-08-15T16:31:41.000Z</time>
        <extensions>
          <ns3:TrackPointExtension>
            <ns3:atemp>17.0</ns3:atemp>
            <ns3:hr>137</ns3:hr>
          </ns3:TrackPointExtension>
        </extensions>
      </trkpt>
      <trkpt lat="46.64875228889286518096923828125" lon="6.85047456063330173492431640625">
        <ele>749.5999755859375</ele>
        <time>2013-08-15T16:31:42.000Z</time>
        <extensions>
          <ns3:TrackPointExtension>
            <ns3:atemp>17.0</ns3:atemp>
            <ns3:hr>136</ns3:hr>
          </ns3:TrackPointExtension>
        </extensions>
      </trkpt>
      <trkpt lat="46.64869931526482105255126953125" lon="6.85054488480091094970703125">
        <ele>749.20001220703125</ele>
        <time>2013-08-15T16:31:43.000Z</time>
        <extensions>
          <ns3:TrackPointExtension>
            <ns3:atemp>17.0</ns3:atemp>
            <ns3:hr>135</ns3:hr>
          </ns3:TrackPointExtension>
        </extensions>
      </trkpt>
      <trkpt lat="46.64864684455096721649169921875" lon="6.85061403550207614898681640625">
        <ele>749</ele>
        <time>2013-08-15T16:31:44.000Z</time>
        <extensions>
          <ns3:TrackPointExtension>
            <ns3:atemp>17.0</ns3:atemp>
            <ns3:hr>135</ns3:hr>
          </ns3:TrackPointExtension>
        </extensions>
      </trkpt>
      <trkpt lat="46.64859630167484283447265625" lon="6.85068494640290737152099609375">
        <ele>748.79998779296875</ele>
        <time>2013-08-15T16:31:45.000Z</time>
        <extensions>
          <ns3:TrackPointExtension>
            <ns3:atemp>17.0</ns3:atemp>
            <ns3:hr>134</ns3:hr>
          </ns3:TrackPointExtension>
        </extensions>
      </trkpt>
      <trkpt lat="46.6485460102558135986328125" lon="6.85075552202761173248291015625">
        <ele>748.5999755859375</ele>
        <time>2013-08-15T16:31:46.000Z</time>
        <extensions>
          <ns3:TrackPointExtension>
            <ns3:atemp>17.0</ns3:atemp>
            <ns3:hr>134</ns3:hr>
          </ns3:TrackPointExtension>
        </extensions>
      </trkpt>
      <trkpt lat="46.64849496446549892425537109375" lon="6.85082525946199893951416015625">
        <ele>748.79998779296875</ele>
        <time>2013-08-15T16:31:47.000Z</time>
        <extensions>
          <ns3:TrackPointExtension>
            <ns3:atemp>17.0</ns3:atemp>
            <ns3:hr>133</ns3:hr>
          </ns3:TrackPointExtension>
        </extensions>
      </trkpt>
      <trkpt lat="46.64844467304646968841552734375" lon="6.850893236696720123291015625">
        <ele>748.79998779296875</ele>
        <time>2013-08-15T16:31:48.000Z</time>
        <extensions>
          <ns3:TrackPointExtension>
            <ns3:atemp>17.0</ns3:atemp>
            <ns3:hr>133</ns3:hr>
          </ns3:TrackPointExtension>
        </extensions>
      </trkpt>
      <trkpt lat="46.6483912803232669830322265625" lon="6.85096104629337787628173828125">
        <ele>748.79998779296875</ele>
        <time>2013-08-15T16:31:49.000Z</time>
        <extensions>
          <ns3:TrackPointExtension>
            <ns3:atemp>17.0</ns3:atemp>
            <ns3:hr>133</ns3:hr>
          </ns3:TrackPointExtension>
        </extensions>
      </trkpt>
      <trkpt lat="46.6483366303145885467529296875" lon="6.85102676041424274444580078125">
        <ele>748.79998779296875</ele>
        <time>2013-08-15T16:31:50.000Z</time>
        <extensions>
          <ns3:TrackPointExtension>
            <ns3:atemp>17.0</ns3:atemp>
            <ns3:hr>132</ns3:hr>
          </ns3:TrackPointExtension>
        </extensions>
      </trkpt>
      <trkpt lat="46.64828022010624408721923828125" lon="6.85109498910605907440185546875">
        <ele>748.5999755859375</ele>
        <time>2013-08-15T16:31:51.000Z</time>
        <extensions>
          <ns3:TrackPointExtension>
            <ns3:atemp>17.0</ns3:atemp>
            <ns3:hr>132</ns3:hr>
          </ns3:TrackPointExtension>
        </extensions>
      </trkpt>
      <trkpt lat="46.64822439663112163543701171875" lon="6.85116715729236602783203125">
        <ele>748.20001220703125</ele>
        <time>2013-08-15T16:31:52.000Z</time>
        <extensions>
          <ns3:TrackPointExtension>
            <ns3:atemp>17.0</ns3:atemp>
            <ns3:hr>132</ns3:hr>
          </ns3:TrackPointExtension>
        </extensions>
      </trkpt>
      <trkpt lat="46.64816714823246002197265625" lon="6.85123932547867298126220703125">
        <ele>748</ele>
        <time>2013-08-15T16:31:53.000Z</time>
        <extensions>
          <ns3:TrackPointExtension>
            <ns3:atemp>17.0</ns3:atemp>
            <ns3:hr>132</ns3:hr>
          </ns3:TrackPointExtension>
        </extensions>
      </trkpt>
      <trkpt lat="46.64811006747186183929443359375" lon="6.85130520723760128021240234375">
        <ele>748</ele>
        <time>2013-08-15T16:31:54.000Z</time>
        <extensions>
          <ns3:TrackPointExtension>
            <ns3:atemp>17.0</ns3:atemp>
            <ns3:hr>131</ns3:hr>
          </ns3:TrackPointExtension>
        </extensions>
      </trkpt>
      <trkpt lat="46.64805047214031219482421875" lon="6.85136924497783184051513671875">
        <ele>747.79998779296875</ele>
        <time>2013-08-15T16:31:55.000Z</time>
        <extensions>
          <ns3:TrackPointExtension>
            <ns3:atemp>17.0</ns3:atemp>
            <ns3:hr>131</ns3:hr>
          </ns3:TrackPointExtension>
        </extensions>
      </trkpt>
      <trkpt lat="46.64798920042812824249267578125" lon="6.85143194161355495452880859375">
        <ele>747.4000244140625</ele>
        <time>2013-08-15T16:31:56.000Z</time>
        <extensions>
          <ns3:TrackPointExtension>
            <ns3:atemp>17.0</ns3:atemp>
            <ns3:hr>130</ns3:hr>
          </ns3:TrackPointExtension>
        </extensions>
      </trkpt>
      <trkpt lat="46.64792834781110286712646484375" lon="6.85149396769702434539794921875">
        <ele>747.20001220703125</ele>
        <time>2013-08-15T16:31:57.000Z</time>
        <extensions>
          <ns3:TrackPointExtension>
            <ns3:atemp>17.0</ns3:atemp>
            <ns3:hr>129</ns3:hr>
          </ns3:TrackPointExtension>
        </extensions>
      </trkpt>
      <trkpt lat="46.64786732755601406097412109375" lon="6.851558424532413482666015625">
        <ele>746.5999755859375</ele>
        <time>2013-08-15T16:31:58.000Z</time>
        <extensions>
          <ns3:TrackPointExtension>
            <ns3:atemp>17.0</ns3:atemp>
            <ns3:hr>129</ns3:hr>
          </ns3:TrackPointExtension>
        </extensions>
      </trkpt>
      <trkpt lat="46.64780312217772006988525390625" lon="6.8516266532242298126220703125">
        <ele>746</ele>
        <time>2013-08-15T16:31:59.000Z</time>
        <extensions>
          <ns3:TrackPointExtension>
            <ns3:atemp>17.0</ns3:atemp>
            <ns3:hr>129</ns3:hr>
          </ns3:TrackPointExtension>
        </extensions>
      </trkpt>
      <trkpt lat="46.64774394594132900238037109375" lon="6.85169245116412639617919921875">
        <ele>745.4000244140625</ele>
        <time>2013-08-15T16:32:00.000Z</time>
        <extensions>
          <ns3:TrackPointExtension>
            <ns3:atemp>17.0</ns3:atemp>
            <ns3:hr>128</ns3:hr>
          </ns3:TrackPointExtension>
        </extensions>
      </trkpt>
      <trkpt lat="46.647695414721965789794921875" lon="6.851756907999515533447265625">
        <ele>743.79998779296875</ele>
        <time>2013-08-15T16:32:01.000Z</time>
        <extensions>
          <ns3:TrackPointExtension>
            <ns3:atemp>17.0</ns3:atemp>
            <ns3:hr>127</ns3:hr>
          </ns3:TrackPointExtension>
        </extensions>
      </trkpt>
      <trkpt lat="46.64765618741512298583984375" lon="6.85181491076946258544921875">
        <ele>742.5999755859375</ele>
        <time>2013-08-15T16:32:02.000Z</time>
        <extensions>
          <ns3:TrackPointExtension>
            <ns3:atemp>17.0</ns3:atemp>
            <ns3:hr>127</ns3:hr>
          </ns3:TrackPointExtension>
        </extensions>
      </trkpt>
      <trkpt lat="46.64762400090694427490234375" lon="6.851864866912364959716796875">
        <ele>741.5999755859375</ele>
        <time>2013-08-15T16:32:03.000Z</time>
        <extensions>
          <ns3:TrackPointExtension>
            <ns3:atemp>17.0</ns3:atemp>
            <ns3:hr>126</ns3:hr>
          </ns3:TrackPointExtension>
        </extensions>
      </trkpt>
      <trkpt lat="46.6476057283580303192138671875" lon="6.85191406868398189544677734375">
        <ele>741</ele>
        <time>2013-08-15T16:32:04.000Z</time>
        <extensions>
          <ns3:TrackPointExtension>
            <ns3:atemp>17.0</ns3:atemp>
            <ns3:hr>125</ns3:hr>
          </ns3:TrackPointExtension>
        </extensions>
      </trkpt>
      <trkpt lat="46.64760748855769634246826171875" lon="6.85196821577847003936767578125">
        <ele>740.5999755859375</ele>
        <time>2013-08-15T16:32:05.000Z</time>
        <extensions>
          <ns3:TrackPointExtension>
            <ns3:atemp>17.0</ns3:atemp>
            <ns3:hr>124</ns3:hr>
          </ns3:TrackPointExtension>
        </extensions>
      </trkpt>
      <trkpt lat="46.6476260125637054443359375" lon="6.85201448388397693634033203125">
        <ele>740.20001220703125</ele>
        <time>2013-08-15T16:32:06.000Z</time>
        <extensions>
          <ns3:TrackPointExtension>
            <ns3:atemp>17.0</ns3:atemp>
            <ns3:hr>123</ns3:hr>
          </ns3:TrackPointExtension>
        </extensions>
      </trkpt>
      <trkpt lat="46.64765593595802783966064453125" lon="6.852049939334392547607421875">
        <ele>740</ele>
        <time>2013-08-15T16:32:07.000Z</time>
        <extensions>
          <ns3:TrackPointExtension>
            <ns3:atemp>17.0</ns3:atemp>
            <ns3:hr>123</ns3:hr>
          </ns3:TrackPointExtension>
        </extensions>
      </trkpt>
      <trkpt lat="46.64768837392330169677734375" lon="6.85208447277545928955078125">
        <ele>740</ele>
        <time>2013-08-15T16:32:08.000Z</time>
        <extensions>
          <ns3:TrackPointExtension>
            <ns3:atemp>17.0</ns3:atemp>
            <ns3:hr>122</ns3:hr>
          </ns3:TrackPointExtension>
        </extensions>
      </trkpt>
      <trkpt lat="46.6477224044501781463623046875" lon="6.8521255441009998321533203125">
        <ele>740</ele>
        <time>2013-08-15T16:32:09.000Z</time>
        <extensions>
          <ns3:TrackPointExtension>
            <ns3:atemp>17.0</ns3:atemp>
            <ns3:hr>122</ns3:hr>
          </ns3:TrackPointExtension>
        </extensions>
      </trkpt>
      <trkpt lat="46.64775400422513484954833984375" lon="6.8521734885871410369873046875">
        <ele>740.20001220703125</ele>
        <time>2013-08-15T16:32:10.000Z</time>
        <extensions>
          <ns3:TrackPointExtension>
            <ns3:atemp>17.0</ns3:atemp>
            <ns3:hr>122</ns3:hr>
          </ns3:TrackPointExtension>
        </extensions>
      </trkpt>
      <trkpt lat="46.64777847938239574432373046875" lon="6.8522311560809612274169921875">
        <ele>740.4000244140625</ele>
        <time>2013-08-15T16:32:11.000Z</time>
        <extensions>
          <ns3:TrackPointExtension>
            <ns3:atemp>17.0</ns3:atemp>
            <ns3:hr>122</ns3:hr>
          </ns3:TrackPointExtension>
        </extensions>
      </trkpt>
      <trkpt lat="46.6477787308394908905029296875" lon="6.85229829512536525726318359375">
        <ele>740.4000244140625</ele>
        <time>2013-08-15T16:32:12.000Z</time>
        <extensions>
          <ns3:TrackPointExtension>
            <ns3:atemp>17.0</ns3:atemp>
            <ns3:hr>121</ns3:hr>
          </ns3:TrackPointExtension>
        </extensions>
      </trkpt>
      <trkpt lat="46.647749058902263641357421875" lon="6.8523508496582508087158203125">
        <ele>740.4000244140625</ele>
        <time>2013-08-15T16:32:13.000Z</time>
        <extensions>
          <ns3:TrackPointExtension>
            <ns3:atemp>17.0</ns3:atemp>
            <ns3:hr>121</ns3:hr>
          </ns3:TrackPointExtension>
        </extensions>
      </trkpt>
      <trkpt lat="46.64770488627254962921142578125" lon="6.8523850478231906890869140625">
        <ele>740.20001220703125</ele>
        <time>2013-08-15T16:32:14.000Z</time>
        <extensions>
          <ns3:TrackPointExtension>
            <ns3:atemp>17.0</ns3:atemp>
            <ns3:hr>120</ns3:hr>
          </ns3:TrackPointExtension>
        </extensions>
      </trkpt>
      <trkpt lat="46.6476528346538543701171875" lon="6.8524068407714366912841796875">
        <ele>740</ele>
        <time>2013-08-15T16:32:15.000Z</time>
        <extensions>
          <ns3:TrackPointExtension>
            <ns3:atemp>17.0</ns3:atemp>
            <ns3:hr>119</ns3:hr>
          </ns3:TrackPointExtension>
        </extensions>
      </trkpt>
      <trkpt lat="46.64759407751262187957763671875" lon="6.8524266220629215240478515625">
        <ele>740</ele>
        <time>2013-08-15T16:32:16.000Z</time>
        <extensions>
          <ns3:TrackPointExtension>
            <ns3:atemp>17.0</ns3:atemp>
            <ns3:hr>118</ns3:hr>
          </ns3:TrackPointExtension>
        </extensions>
      </trkpt>
      <trkpt lat="46.64752802811563014984130859375" lon="6.852444894611835479736328125">
        <ele>739.5999755859375</ele>
        <time>2013-08-15T16:32:17.000Z</time>
        <extensions>
          <ns3:TrackPointExtension>
            <ns3:atemp>17.0</ns3:atemp>
            <ns3:hr>118</ns3:hr>
          </ns3:TrackPointExtension>
        </extensions>
      </trkpt>
      <trkpt lat="46.647458709776401519775390625" lon="6.852471716701984405517578125">
        <ele>739.20001220703125</ele>
        <time>2013-08-15T16:32:18.000Z</time>
        <extensions>
          <ns3:TrackPointExtension>
            <ns3:atemp>17.0</ns3:atemp>
            <ns3:hr>117</ns3:hr>
          </ns3:TrackPointExtension>
        </extensions>
      </trkpt>
      <trkpt lat="46.64739006198942661285400390625" lon="6.8525178171694278717041015625">
        <ele>738</ele>
        <time>2013-08-15T16:32:19.000Z</time>
        <extensions>
          <ns3:TrackPointExtension>
            <ns3:atemp>17.0</ns3:atemp>
            <ns3:hr>118</ns3:hr>
          </ns3:TrackPointExtension>
        </extensions>
      </trkpt>
      <trkpt lat="46.64732895791530609130859375" lon="6.852584369480609893798828125">
        <ele>737.5999755859375</ele>
        <time>2013-08-15T16:32:20.000Z</time>
        <extensions>
          <ns3:TrackPointExtension>
            <ns3:atemp>17.0</ns3:atemp>
            <ns3:hr>117</ns3:hr>
          </ns3:TrackPointExtension>
        </extensions>
      </trkpt>
      <trkpt lat="46.6472684405744075775146484375" lon="6.8526586331427097320556640625">
        <ele>737.20001220703125</ele>
        <time>2013-08-15T16:32:21.000Z</time>
        <extensions>
          <ns3:TrackPointExtension>
            <ns3:atemp>17.0</ns3:atemp>
            <ns3:hr>118</ns3:hr>
          </ns3:TrackPointExtension>
        </extensions>
      </trkpt>
      <trkpt lat="46.6472074203193187713623046875" lon="6.85273868031799793243408203125">
        <ele>736.79998779296875</ele>
        <time>2013-08-15T16:32:22.000Z</time>
        <extensions>
          <ns3:TrackPointExtension>
            <ns3:atemp>17.0</ns3:atemp>
            <ns3:hr>117</ns3:hr>
          </ns3:TrackPointExtension>
        </extensions>
      </trkpt>
      <trkpt lat="46.6471410356462001800537109375" lon="6.8528182245790958404541015625">
        <ele>736.5999755859375</ele>
        <time>2013-08-15T16:32:23.000Z</time>
        <extensions>
          <ns3:TrackPointExtension>
            <ns3:atemp>17.0</ns3:atemp>
            <ns3:hr>117</ns3:hr>
          </ns3:TrackPointExtension>
        </extensions>
      </trkpt>
      <trkpt lat="46.64707222022116184234619140625" lon="6.85289609245955944061279296875">
        <ele>736</ele>
        <time>2013-08-15T16:32:24.000Z</time>
        <extensions>
          <ns3:TrackPointExtension>
            <ns3:atemp>17.0</ns3:atemp>
            <ns3:hr>116</ns3:hr>
          </ns3:TrackPointExtension>
        </extensions>
      </trkpt>
      <trkpt lat="46.64699913002550601959228515625" lon="6.8529704399406909942626953125">
        <ele>734.5999755859375</ele>
        <time>2013-08-15T16:32:25.000Z</time>
        <extensions>
          <ns3:TrackPointExtension>
            <ns3:atemp>17.0</ns3:atemp>
            <ns3:hr>116</ns3:hr>
          </ns3:TrackPointExtension>
        </extensions>
      </trkpt>
      <trkpt lat="46.6469224356114864349365234375" lon="6.853035986423492431640625">
        <ele>734.4000244140625</ele>
        <time>2013-08-15T16:32:26.000Z</time>
        <extensions>
          <ns3:TrackPointExtension>
            <ns3:atemp>17.0</ns3:atemp>
            <ns3:hr>115</ns3:hr>
          </ns3:TrackPointExtension>
        </extensions>
      </trkpt>
      <trkpt lat="46.6468429751694202423095703125" lon="6.85309926979243755340576171875">
        <ele>734</ele>
        <time>2013-08-15T16:32:27.000Z</time>
        <extensions>
          <ns3:TrackPointExtension>
            <ns3:atemp>17.0</ns3:atemp>
            <ns3:hr>115</ns3:hr>
          </ns3:TrackPointExtension>
        </extensions>
      </trkpt>
      <trkpt lat="46.64676628075540065765380859375" lon="6.85317085124552249908447265625">
        <ele>733</ele>
        <time>2013-08-15T16:32:28.000Z</time>
        <extensions>
          <ns3:TrackPointExtension>
            <ns3:atemp>17.0</ns3:atemp>
            <ns3:hr>115</ns3:hr>
          </ns3:TrackPointExtension>
        </extensions>
      </trkpt>
      <trkpt lat="46.64668883197009563446044921875" lon="6.85324762947857379913330078125">
        <ele>731.20001220703125</ele>
        <time>2013-08-15T16:32:29.000Z</time>
        <extensions>
          <ns3:TrackPointExtension>
            <ns3:atemp>17.0</ns3:atemp>
            <ns3:hr>115</ns3:hr>
          </ns3:TrackPointExtension>
        </extensions>
      </trkpt>
      <trkpt lat="46.64661012589931488037109375" lon="6.8533216416835784912109375">
        <ele>730.4000244140625</ele>
        <time>2013-08-15T16:32:30.000Z</time>
        <extensions>
          <ns3:TrackPointExtension>
            <ns3:atemp>17.0</ns3:atemp>
            <ns3:hr>115</ns3:hr>
          </ns3:TrackPointExtension>
        </extensions>
      </trkpt>
      <trkpt lat="46.64652965962886810302734375" lon="6.85339548625051975250244140625">
        <ele>729.79998779296875</ele>
        <time>2013-08-15T16:32:31.000Z</time>
        <extensions>
          <ns3:TrackPointExtension>
            <ns3:atemp>17.0</ns3:atemp>
            <ns3:hr>114</ns3:hr>
          </ns3:TrackPointExtension>
        </extensions>
      </trkpt>
      <trkpt lat="46.6464443318545818328857421875" lon="6.8534643016755580902099609375">
        <ele>729.4000244140625</ele>
        <time>2013-08-15T16:32:32.000Z</time>
        <extensions>
          <ns3:TrackPointExtension>
            <ns3:atemp>17.0</ns3:atemp>
            <ns3:hr>114</ns3:hr>
          </ns3:TrackPointExtension>
        </extensions>
      </trkpt>
      <trkpt lat="46.64634902961552143096923828125" lon="6.85351551510393619537353515625">
        <ele>728.4000244140625</ele>
        <time>2013-08-15T16:32:33.000Z</time>
        <extensions>
          <ns3:TrackPointExtension>
            <ns3:atemp>17.0</ns3:atemp>
            <ns3:hr>114</ns3:hr>
          </ns3:TrackPointExtension>
        </extensions>
      </trkpt>
      <trkpt lat="46.64624827913939952850341796875" lon="6.8535430915653705596923828125">
        <ele>727.4000244140625</ele>
        <time>2013-08-15T16:32:34.000Z</time>
        <extensions>
          <ns3:TrackPointExtension>
            <ns3:atemp>17.0</ns3:atemp>
            <ns3:hr>114</ns3:hr>
          </ns3:TrackPointExtension>
        </extensions>
      </trkpt>
      <trkpt lat="46.646147109568119049072265625" lon="6.85354267247021198272705078125">
        <ele>726.79998779296875</ele>
        <time>2013-08-15T16:32:35.000Z</time>
        <extensions>
          <ns3:TrackPointExtension>
            <ns3:atemp>17.0</ns3:atemp>
            <ns3:hr>114</ns3:hr>
          </ns3:TrackPointExtension>
        </extensions>
      </trkpt>
      <trkpt lat="46.64604929275810718536376953125" lon="6.8535290099680423736572265625">
        <ele>725.5999755859375</ele>
        <time>2013-08-15T16:32:36.000Z</time>
        <extensions>
          <ns3:TrackPointExtension>
            <ns3:atemp>17.0</ns3:atemp>
            <ns3:hr>114</ns3:hr>
          </ns3:TrackPointExtension>
        </extensions>
      </trkpt>
      <trkpt lat="46.6459524817764759063720703125" lon="6.85350981540977954864501953125">
        <ele>725</ele>
        <time>2013-08-15T16:32:37.000Z</time>
        <extensions>
          <ns3:TrackPointExtension>
            <ns3:atemp>17.0</ns3:atemp>
            <ns3:hr>113</ns3:hr>
          </ns3:TrackPointExtension>
        </extensions>
      </trkpt>
      <trkpt lat="46.64585734717547893524169921875" lon="6.85349221341311931610107421875">
        <ele>724.4000244140625</ele>
        <time>2013-08-15T16:32:38.000Z</time>
        <extensions>
          <ns3:TrackPointExtension>
            <ns3:atemp>17.0</ns3:atemp>
            <ns3:hr>113</ns3:hr>
          </ns3:TrackPointExtension>
        </extensions>
      </trkpt>
      <trkpt lat="46.64575986564159393310546875" lon="6.8534800596535205841064453125">
        <ele>724.79998779296875</ele>
        <time>2013-08-15T16:32:39.000Z</time>
        <extensions>
          <ns3:TrackPointExtension>
            <ns3:atemp>17.0</ns3:atemp>
            <ns3:hr>114</ns3:hr>
          </ns3:TrackPointExtension>
        </extensions>
      </trkpt>
      <trkpt lat="46.645662970840930938720703125" lon="6.8534637987613677978515625">
        <ele>724.79998779296875</ele>
        <time>2013-08-15T16:32:40.000Z</time>
        <extensions>
          <ns3:TrackPointExtension>
            <ns3:atemp>17.0</ns3:atemp>
            <ns3:hr>114</ns3:hr>
          </ns3:TrackPointExtension>
        </extensions>
      </trkpt>
      <trkpt lat="46.64556699804961681365966796875" lon="6.8534472025930881500244140625">
        <ele>724.5999755859375</ele>
        <time>2013-08-15T16:32:41.000Z</time>
        <extensions>
          <ns3:TrackPointExtension>
            <ns3:atemp>17.0</ns3:atemp>
            <ns3:hr>114</ns3:hr>
          </ns3:TrackPointExtension>
        </extensions>
      </trkpt>
      <trkpt lat="46.645470522344112396240234375" lon="6.8534294329583644866943359375">
        <ele>724</ele>
        <time>2013-08-15T16:32:42.000Z</time>
        <extensions>
          <ns3:TrackPointExtension>
            <ns3:atemp>17.0</ns3:atemp>
            <ns3:hr>114</ns3:hr>
          </ns3:TrackPointExtension>
        </extensions>
      </trkpt>
      <trkpt lat="46.64537320844829082489013671875" lon="6.85341711156070232391357421875">
        <ele>723.5999755859375</ele>
        <time>2013-08-15T16:32:43.000Z</time>
        <extensions>
          <ns3:TrackPointExtension>
            <ns3:atemp>17.0</ns3:atemp>
            <ns3:hr>115</ns3:hr>
          </ns3:TrackPointExtension>
        </extensions>
      </trkpt>
      <trkpt lat="46.645276732742786407470703125" lon="6.8534056283533573150634765625">
        <ele>723.20001220703125</ele>
        <time>2013-08-15T16:32:44.000Z</time>
        <extensions>
          <ns3:TrackPointExtension>
            <ns3:atemp>17.0</ns3:atemp>
            <ns3:hr>115</ns3:hr>
          </ns3:TrackPointExtension>
        </extensions>
      </trkpt>
      <trkpt lat="46.64517975412309169769287109375" lon="6.85339464806020259857177734375">
        <ele>723</ele>
        <time>2013-08-15T16:32:45.000Z</time>
        <extensions>
          <ns3:TrackPointExtension>
            <ns3:atemp>17.0</ns3:atemp>
            <ns3:hr>115</ns3:hr>
          </ns3:TrackPointExtension>
        </extensions>
      </trkpt>
      <trkpt lat="46.64508285932242870330810546875" lon="6.85338224284350872039794921875">
        <ele>722.5999755859375</ele>
        <time>2013-08-15T16:32:46.000Z</time>
        <extensions>
          <ns3:TrackPointExtension>
            <ns3:atemp>17.0</ns3:atemp>
            <ns3:hr>116</ns3:hr>
          </ns3:TrackPointExtension>
        </extensions>
      </trkpt>
      <trkpt lat="46.64498546160757541656494140625" lon="6.85337386094033718109130859375">
        <ele>722.4000244140625</ele>
        <time>2013-08-15T16:32:47.000Z</time>
        <extensions>
          <ns3:TrackPointExtension>
            <ns3:atemp>17.0</ns3:atemp>
            <ns3:hr>116</ns3:hr>
          </ns3:TrackPointExtension>
        </extensions>
      </trkpt>
      <trkpt lat="46.64489007554948329925537109375" lon="6.85337620787322521209716796875">
        <ele>722.20001220703125</ele>
        <time>2013-08-15T16:32:48.000Z</time>
        <extensions>
          <ns3:TrackPointExtension>
            <ns3:atemp>17.0</ns3:atemp>
            <ns3:hr>116</ns3:hr>
          </ns3:TrackPointExtension>
        </extensions>
      </trkpt>
      <trkpt lat="46.64479619823396205902099609375" lon="6.85338542796671390533447265625">
        <ele>722</ele>
        <time>2013-08-15T16:32:49.000Z</time>
        <extensions>
          <ns3:TrackPointExtension>
            <ns3:atemp>17.0</ns3:atemp>
            <ns3:hr>117</ns3:hr>
          </ns3:TrackPointExtension>
        </extensions>
      </trkpt>
      <trkpt lat="46.6447039134800434112548828125" lon="6.85339598916471004486083984375">
        <ele>721.79998779296875</ele>
        <time>2013-08-15T16:32:50.000Z</time>
        <extensions>
          <ns3:TrackPointExtension>
            <ns3:atemp>17.0</ns3:atemp>
            <ns3:hr>117</ns3:hr>
          </ns3:TrackPointExtension>
        </extensions>
      </trkpt>
      <trkpt lat="46.6446120478212833404541015625" lon="6.85340990312397480010986328125">
        <ele>721.79998779296875</ele>
        <time>2013-08-15T16:32:51.000Z</time>
        <extensions>
          <ns3:TrackPointExtension>
            <ns3:atemp>17.0</ns3:atemp>
            <ns3:hr>117</ns3:hr>
          </ns3:TrackPointExtension>
        </extensions>
      </trkpt>
      <trkpt lat="46.644521020352840423583984375" lon="6.85342264361679553985595703125">
        <ele>721.79998779296875</ele>
        <time>2013-08-15T16:32:52.000Z</time>
        <extensions>
          <ns3:TrackPointExtension>
            <ns3:atemp>17.0</ns3:atemp>
            <ns3:hr>117</ns3:hr>
          </ns3:TrackPointExtension>
        </extensions>
      </trkpt>
      <trkpt lat="46.644429825246334075927734375" lon="6.853430606424808502197265625">
        <ele>721.79998779296875</ele>
        <time>2013-08-15T16:32:53.000Z</time>
        <extensions>
          <ns3:TrackPointExtension>
            <ns3:atemp>17.0</ns3:atemp>
            <ns3:hr>118</ns3:hr>
          </ns3:TrackPointExtension>
        </extensions>
      </trkpt>
      <trkpt lat="46.64433871395885944366455078125" lon="6.85343689285218715667724609375">
        <ele>721.5999755859375</ele>
        <time>2013-08-15T16:32:54.000Z</time>
        <extensions>
          <ns3:TrackPointExtension>
            <ns3:atemp>17.0</ns3:atemp>
            <ns3:hr>118</ns3:hr>
          </ns3:TrackPointExtension>
        </extensions>
      </trkpt>
      <trkpt lat="46.64424969814717769622802734375" lon="6.8534421734511852264404296875">
        <ele>721.20001220703125</ele>
        <time>2013-08-15T16:32:55.000Z</time>
        <extensions>
          <ns3:TrackPointExtension>
            <ns3:atemp>17.0</ns3:atemp>
            <ns3:hr>118</ns3:hr>
          </ns3:TrackPointExtension>
        </extensions>
      </trkpt>
      <trkpt lat="46.6441619396209716796875" lon="6.853445358574390411376953125">
        <ele>721.20001220703125</ele>
        <time>2013-08-15T16:32:56.000Z</time>
        <extensions>
          <ns3:TrackPointExtension>
            <ns3:atemp>17.0</ns3:atemp>
            <ns3:hr>119</ns3:hr>
          </ns3:TrackPointExtension>
        </extensions>
      </trkpt>
      <trkpt lat="46.644075103104114532470703125" lon="6.85344795696437358856201171875">
        <ele>720.79998779296875</ele>
        <time>2013-08-15T16:32:57.000Z</time>
        <extensions>
          <ns3:TrackPointExtension>
            <ns3:atemp>17.0</ns3:atemp>
            <ns3:hr>119</ns3:hr>
          </ns3:TrackPointExtension>
        </extensions>
      </trkpt>
      <trkpt lat="46.643986590206623077392578125" lon="6.853450052440166473388671875">
        <ele>720.79998779296875</ele>
        <time>2013-08-15T16:32:58.000Z</time>
        <extensions>
          <ns3:TrackPointExtension>
            <ns3:atemp>17.0</ns3:atemp>
            <ns3:hr>119</ns3:hr>
          </ns3:TrackPointExtension>
        </extensions>
      </trkpt>
      <trkpt lat="46.64389531128108501434326171875" lon="6.85345365665853023529052734375">
        <ele>720.5999755859375</ele>
        <time>2013-08-15T16:32:59.000Z</time>
        <extensions>
          <ns3:TrackPointExtension>
            <ns3:atemp>17.0</ns3:atemp>
            <ns3:hr>118</ns3:hr>
          </ns3:TrackPointExtension>
        </extensions>
      </trkpt>
      <trkpt lat="46.6438043676316738128662109375" lon="6.85344862751662731170654296875">
        <ele>720.4000244140625</ele>
        <time>2013-08-15T16:33:00.000Z</time>
        <extensions>
          <ns3:TrackPointExtension>
            <ns3:atemp>17.0</ns3:atemp>
            <ns3:hr>118</ns3:hr>
          </ns3:TrackPointExtension>
        </extensions>
      </trkpt>
      <trkpt lat="46.64371225051581859588623046875" lon="6.8534331209957599639892578125">
        <ele>720.20001220703125</ele>
        <time>2013-08-15T16:33:01.000Z</time>
        <extensions>
          <ns3:TrackPointExtension>
            <ns3:atemp>17.0</ns3:atemp>
            <ns3:hr>119</ns3:hr>
          </ns3:TrackPointExtension>
        </extensions>
      </trkpt>
      <trkpt lat="46.6436203010380268096923828125" lon="6.85341794975101947784423828125">
        <ele>719.79998779296875</ele>
        <time>2013-08-15T16:33:02.000Z</time>
        <extensions>
          <ns3:TrackPointExtension>
            <ns3:atemp>17.0</ns3:atemp>
            <ns3:hr>119</ns3:hr>
          </ns3:TrackPointExtension>
        </extensions>
      </trkpt>
      <trkpt lat="46.64352751336991786956787109375" lon="6.85340034775435924530029296875">
        <ele>719.4000244140625</ele>
        <time>2013-08-15T16:33:03.000Z</time>
        <extensions>
          <ns3:TrackPointExtension>
            <ns3:atemp>17.0</ns3:atemp>
            <ns3:hr>120</ns3:hr>
          </ns3:TrackPointExtension>
        </extensions>
      </trkpt>
      <trkpt lat="46.64343439042568206787109375" lon="6.85338475741446018218994140625">
        <ele>719</ele>
        <time>2013-08-15T16:33:04.000Z</time>
        <extensions>
          <ns3:TrackPointExtension>
            <ns3:atemp>17.0</ns3:atemp>
            <ns3:hr>121</ns3:hr>
          </ns3:TrackPointExtension>
        </extensions>
      </trkpt>
      <trkpt lat="46.6433406807482242584228515625" lon="6.85337461531162261962890625">
        <ele>719</ele>
        <time>2013-08-15T16:33:05.000Z</time>
        <extensions>
          <ns3:TrackPointExtension>
            <ns3:atemp>17.0</ns3:atemp>
            <ns3:hr>121</ns3:hr>
          </ns3:TrackPointExtension>
        </extensions>
      </trkpt>
      <trkpt lat="46.643247306346893310546875" lon="6.85336966998875141143798828125">
        <ele>718.79998779296875</ele>
        <time>2013-08-15T16:33:06.000Z</time>
        <extensions>
          <ns3:TrackPointExtension>
            <ns3:atemp>17.0</ns3:atemp>
            <ns3:hr>122</ns3:hr>
          </ns3:TrackPointExtension>
        </extensions>
      </trkpt>
      <trkpt lat="46.64315535686910152435302734375" lon="6.853367574512958526611328125">
        <ele>718.79998779296875</ele>
        <time>2013-08-15T16:33:07.000Z</time>
        <extensions>
          <ns3:TrackPointExtension>
            <ns3:atemp>17.0</ns3:atemp>
            <ns3:hr>122</ns3:hr>
          </ns3:TrackPointExtension>
        </extensions>
      </trkpt>
      <trkpt lat="46.64306416176259517669677734375" lon="6.8533647246658802032470703125">
        <ele>718.4000244140625</ele>
        <time>2013-08-15T16:33:08.000Z</time>
        <extensions>
          <ns3:TrackPointExtension>
            <ns3:atemp>17.0</ns3:atemp>
            <ns3:hr>122</ns3:hr>
          </ns3:TrackPointExtension>
        </extensions>
      </trkpt>
      <trkpt lat="46.64297263137996196746826171875" lon="6.853358186781406402587890625">
        <ele>718.4000244140625</ele>
        <time>2013-08-15T16:33:09.000Z</time>
        <extensions>
          <ns3:TrackPointExtension>
            <ns3:atemp>17.0</ns3:atemp>
            <ns3:hr>122</ns3:hr>
          </ns3:TrackPointExtension>
        </extensions>
      </trkpt>
      <trkpt lat="46.6428810171782970428466796875" lon="6.85334687121212482452392578125">
        <ele>718.4000244140625</ele>
        <time>2013-08-15T16:33:10.000Z</time>
        <extensions>
          <ns3:TrackPointExtension>
            <ns3:atemp>17.0</ns3:atemp>
            <ns3:hr>122</ns3:hr>
          </ns3:TrackPointExtension>
        </extensions>
      </trkpt>
      <trkpt lat="46.64279107935726642608642578125" lon="6.85332708992063999176025390625">
        <ele>718.5999755859375</ele>
        <time>2013-08-15T16:33:11.000Z</time>
        <extensions>
          <ns3:TrackPointExtension>
            <ns3:atemp>17.0</ns3:atemp>
            <ns3:hr>122</ns3:hr>
          </ns3:TrackPointExtension>
        </extensions>
      </trkpt>
      <trkpt lat="46.64270239882171154022216796875" lon="6.8533030338585376739501953125">
        <ele>718.4000244140625</ele>
        <time>2013-08-15T16:33:12.000Z</time>
        <extensions>
          <ns3:TrackPointExtension>
            <ns3:atemp>17.0</ns3:atemp>
            <ns3:hr>122</ns3:hr>
          </ns3:TrackPointExtension>
        </extensions>
      </trkpt>
      <trkpt lat="46.64261589758098125457763671875" lon="6.85327143408358097076416015625">
        <ele>718.4000244140625</ele>
        <time>2013-08-15T16:33:13.000Z</time>
        <extensions>
          <ns3:TrackPointExtension>
            <ns3:atemp>17.0</ns3:atemp>
            <ns3:hr>123</ns3:hr>
          </ns3:TrackPointExtension>
        </extensions>
      </trkpt>
      <trkpt lat="46.64253224618732929229736328125" lon="6.85323354788124561309814453125">
        <ele>718.4000244140625</ele>
        <time>2013-08-15T16:33:14.000Z</time>
        <extensions>
          <ns3:TrackPointExtension>
            <ns3:atemp>17.0</ns3:atemp>
            <ns3:hr>122</ns3:hr>
          </ns3:TrackPointExtension>
        </extensions>
      </trkpt>
      <trkpt lat="46.64245295338332653045654296875" lon="6.85318644158542156219482421875">
        <ele>718.4000244140625</ele>
        <time>2013-08-15T16:33:15.000Z</time>
        <extensions>
          <ns3:TrackPointExtension>
            <ns3:atemp>18.0</ns3:atemp>
            <ns3:hr>122</ns3:hr>
          </ns3:TrackPointExtension>
        </extensions>
      </trkpt>
      <trkpt lat="46.64237751625478267669677734375" lon="6.85313380323350429534912109375">
        <ele>718.4000244140625</ele>
        <time>2013-08-15T16:33:16.000Z</time>
        <extensions>
          <ns3:TrackPointExtension>
            <ns3:atemp>18.0</ns3:atemp>
            <ns3:hr>123</ns3:hr>
          </ns3:TrackPointExtension>
        </extensions>
      </trkpt>
      <trkpt lat="46.6423045098781585693359375" lon="6.85307647101581096649169921875">
        <ele>718.20001220703125</ele>
        <time>2013-08-15T16:33:17.000Z</time>
        <extensions>
          <ns3:TrackPointExtension>
            <ns3:atemp>18.0</ns3:atemp>
            <ns3:hr>123</ns3:hr>
          </ns3:TrackPointExtension>
        </extensions>
      </trkpt>
      <trkpt lat="46.642233766615390777587890625" lon="6.85301343910396099090576171875">
        <ele>718.20001220703125</ele>
        <time>2013-08-15T16:33:18.000Z</time>
        <extensions>
          <ns3:TrackPointExtension>
            <ns3:atemp>18.0</ns3:atemp>
            <ns3:hr>122</ns3:hr>
          </ns3:TrackPointExtension>
        </extensions>
      </trkpt>
      <trkpt lat="46.64216511882841587066650390625" lon="6.8529459647834300994873046875">
        <ele>718.20001220703125</ele>
        <time>2013-08-15T16:33:19.000Z</time>
        <extensions>
          <ns3:TrackPointExtension>
            <ns3:atemp>18.0</ns3:atemp>
            <ns3:hr>122</ns3:hr>
          </ns3:TrackPointExtension>
        </extensions>
      </trkpt>
      <trkpt lat="46.6420978121459484100341796875" lon="6.85287815518677234649658203125">
        <ele>718.20001220703125</ele>
        <time>2013-08-15T16:33:20.000Z</time>
        <extensions>
          <ns3:TrackPointExtension>
            <ns3:atemp>18.0</ns3:atemp>
            <ns3:hr>122</ns3:hr>
          </ns3:TrackPointExtension>
        </extensions>
      </trkpt>
      <trkpt lat="46.6420317627489566802978515625" lon="6.85281361453235149383544921875">
        <ele>718</ele>
        <time>2013-08-15T16:33:21.000Z</time>
        <extensions>
          <ns3:TrackPointExtension>
            <ns3:atemp>18.0</ns3:atemp>
            <ns3:hr>122</ns3:hr>
          </ns3:TrackPointExtension>
        </extensions>
      </trkpt>
      <trkpt lat="46.64196445606648921966552734375" lon="6.8527518399059772491455078125">
        <ele>718</ele>
        <time>2013-08-15T16:33:22.000Z</time>
        <extensions>
          <ns3:TrackPointExtension>
            <ns3:atemp>18.0</ns3:atemp>
            <ns3:hr>122</ns3:hr>
          </ns3:TrackPointExtension>
        </extensions>
      </trkpt>
      <trkpt lat="46.6418963111937046051025390625" lon="6.8526924960315227508544921875">
        <ele>717.79998779296875</ele>
        <time>2013-08-15T16:33:23.000Z</time>
        <extensions>
          <ns3:TrackPointExtension>
            <ns3:atemp>18.0</ns3:atemp>
            <ns3:hr>122</ns3:hr>
          </ns3:TrackPointExtension>
        </extensions>
      </trkpt>
      <trkpt lat="46.64182933978736400604248046875" lon="6.85262896120548248291015625">
        <ele>717.79998779296875</ele>
        <time>2013-08-15T16:33:24.000Z</time>
        <extensions>
          <ns3:TrackPointExtension>
            <ns3:atemp>18.0</ns3:atemp>
            <ns3:hr>121</ns3:hr>
          </ns3:TrackPointExtension>
        </extensions>
      </trkpt>
      <trkpt lat="46.64176161400973796844482421875" lon="6.85256500728428363800048828125">
        <ele>717.79998779296875</ele>
        <time>2013-08-15T16:33:25.000Z</time>
        <extensions>
          <ns3:TrackPointExtension>
            <ns3:atemp>18.0</ns3:atemp>
            <ns3:hr>121</ns3:hr>
          </ns3:TrackPointExtension>
        </extensions>
      </trkpt>
      <trkpt lat="46.64169363677501678466796875" lon="6.85250331647694110870361328125">
        <ele>717.79998779296875</ele>
        <time>2013-08-15T16:33:26.000Z</time>
        <extensions>
          <ns3:TrackPointExtension>
            <ns3:atemp>18.0</ns3:atemp>
            <ns3:hr>121</ns3:hr>
          </ns3:TrackPointExtension>
        </extensions>
      </trkpt>
      <trkpt lat="46.6416260786354541778564453125" lon="6.85244196094572544097900390625">
        <ele>717.79998779296875</ele>
        <time>2013-08-15T16:33:27.000Z</time>
        <extensions>
          <ns3:TrackPointExtension>
            <ns3:atemp>18.0</ns3:atemp>
            <ns3:hr>121</ns3:hr>
          </ns3:TrackPointExtension>
        </extensions>
      </trkpt>
      <trkpt lat="46.6415576823055744171142578125" lon="6.852381862699985504150390625">
        <ele>718</ele>
        <time>2013-08-15T16:33:28.000Z</time>
        <extensions>
          <ns3:TrackPointExtension>
            <ns3:atemp>18.0</ns3:atemp>
            <ns3:hr>121</ns3:hr>
          </ns3:TrackPointExtension>
        </extensions>
      </trkpt>
      <trkpt lat="46.64149071089923381805419921875" lon="6.85233048163354396820068359375">
        <ele>718</ele>
        <time>2013-08-15T16:33:29.000Z</time>
        <extensions>
          <ns3:TrackPointExtension>
            <ns3:atemp>18.0</ns3:atemp>
            <ns3:hr>121</ns3:hr>
          </ns3:TrackPointExtension>
        </extensions>
      </trkpt>
      <trkpt lat="46.64141879417002201080322265625" lon="6.85231958515942096710205078125">
        <ele>718.20001220703125</ele>
        <time>2013-08-15T16:33:30.000Z</time>
        <extensions>
          <ns3:TrackPointExtension>
            <ns3:atemp>18.0</ns3:atemp>
            <ns3:hr>120</ns3:hr>
          </ns3:TrackPointExtension>
        </extensions>
      </trkpt>
      <trkpt lat="46.64135442115366458892822265625" lon="6.85235814191401004791259765625">
        <ele>717.79998779296875</ele>
        <time>2013-08-15T16:33:31.000Z</time>
        <extensions>
          <ns3:TrackPointExtension>
            <ns3:atemp>18.0</ns3:atemp>
            <ns3:hr>120</ns3:hr>
          </ns3:TrackPointExtension>
        </extensions>
      </trkpt>
      <trkpt lat="46.64130463264882564544677734375" lon="6.8524303101003170013427734375">
        <ele>718</ele>
        <time>2013-08-15T16:33:32.000Z</time>
        <extensions>
          <ns3:TrackPointExtension>
            <ns3:atemp>18.0</ns3:atemp>
            <ns3:hr>120</ns3:hr>
          </ns3:TrackPointExtension>
        </extensions>
      </trkpt>
      <trkpt lat="46.6412753798067569732666015625" lon="6.85252309776842594146728515625">
        <ele>718.20001220703125</ele>
        <time>2013-08-15T16:33:33.000Z</time>
        <extensions>
          <ns3:TrackPointExtension>
            <ns3:atemp>18.0</ns3:atemp>
            <ns3:hr>120</ns3:hr>
          </ns3:TrackPointExtension>
        </extensions>
      </trkpt>
      <trkpt lat="46.64124662987887859344482421875" lon="6.85261781327426433563232421875">
        <ele>718.5999755859375</ele>
        <time>2013-08-15T16:33:34.000Z</time>
        <extensions>
          <ns3:TrackPointExtension>
            <ns3:atemp>18.0</ns3:atemp>
            <ns3:hr>120</ns3:hr>
          </ns3:TrackPointExtension>
        </extensions>
      </trkpt>
      <trkpt lat="46.6412130184471607208251953125" lon="6.85271303169429302215576171875">
        <ele>718.5999755859375</ele>
        <time>2013-08-15T16:33:35.000Z</time>
        <extensions>
          <ns3:TrackPointExtension>
            <ns3:atemp>18.0</ns3:atemp>
            <ns3:hr>120</ns3:hr>
          </ns3:TrackPointExtension>
        </extensions>
      </trkpt>
      <trkpt lat="46.64117286913096904754638671875" lon="6.8528041429817676544189453125">
        <ele>718.5999755859375</ele>
        <time>2013-08-15T16:33:36.000Z</time>
        <extensions>
          <ns3:TrackPointExtension>
            <ns3:atemp>18.0</ns3:atemp>
            <ns3:hr>120</ns3:hr>
          </ns3:TrackPointExtension>
        </extensions>
      </trkpt>
      <trkpt lat="46.64112903177738189697265625" lon="6.85289609245955944061279296875">
        <ele>718</ele>
        <time>2013-08-15T16:33:37.000Z</time>
        <extensions>
          <ns3:TrackPointExtension>
            <ns3:atemp>18.0</ns3:atemp>
            <ns3:hr>121</ns3:hr>
          </ns3:TrackPointExtension>
        </extensions>
      </trkpt>
      <trkpt lat="46.6410825960338115692138671875" lon="6.85298946686089038848876953125">
        <ele>717.4000244140625</ele>
        <time>2013-08-15T16:33:38.000Z</time>
        <extensions>
          <ns3:TrackPointExtension>
            <ns3:atemp>18.0</ns3:atemp>
            <ns3:hr>121</ns3:hr>
          </ns3:TrackPointExtension>
        </extensions>
      </trkpt>
      <trkpt lat="46.64103247225284576416015625" lon="6.8530854396522045135498046875">
        <ele>717</ele>
        <time>2013-08-15T16:33:39.000Z</time>
        <extensions>
          <ns3:TrackPointExtension>
            <ns3:atemp>18.0</ns3:atemp>
            <ns3:hr>120</ns3:hr>
          </ns3:TrackPointExtension>
        </extensions>
      </trkpt>
      <trkpt lat="46.6409813426434993743896484375" lon="6.8531823344528675079345703125">
        <ele>716.79998779296875</ele>
        <time>2013-08-15T16:33:40.000Z</time>
        <extensions>
          <ns3:TrackPointExtension>
            <ns3:atemp>18.0</ns3:atemp>
            <ns3:hr>120</ns3:hr>
          </ns3:TrackPointExtension>
        </extensions>
      </trkpt>
      <trkpt lat="46.640932895243167877197265625" lon="6.8532825820147991180419921875">
        <ele>716.5999755859375</ele>
        <time>2013-08-15T16:33:41.000Z</time>
        <extensions>
          <ns3:TrackPointExtension>
            <ns3:atemp>18.0</ns3:atemp>
            <ns3:hr>119</ns3:hr>
          </ns3:TrackPointExtension>
        </extensions>
      </trkpt>
      <trkpt lat="46.64088629186153411865234375" lon="6.85338609851896762847900390625">
        <ele>716.4000244140625</ele>
        <time>2013-08-15T16:33:42.000Z</time>
        <extensions>
          <ns3:TrackPointExtension>
            <ns3:atemp>18.0</ns3:atemp>
            <ns3:hr>119</ns3:hr>
          </ns3:TrackPointExtension>
        </extensions>
      </trkpt>
      <trkpt lat="46.64084128104150295257568359375" lon="6.85348860919475555419921875">
        <ele>716.20001220703125</ele>
        <time>2013-08-15T16:33:43.000Z</time>
        <extensions>
          <ns3:TrackPointExtension>
            <ns3:atemp>18.0</ns3:atemp>
            <ns3:hr>118</ns3:hr>
          </ns3:TrackPointExtension>
        </extensions>
      </trkpt>
      <trkpt lat="46.64080205373466014862060546875" lon="6.85359531082212924957275390625">
        <ele>716.20001220703125</ele>
        <time>2013-08-15T16:33:44.000Z</time>
        <extensions>
          <ns3:TrackPointExtension>
            <ns3:atemp>18.0</ns3:atemp>
            <ns3:hr>118</ns3:hr>
          </ns3:TrackPointExtension>
        </extensions>
      </trkpt>
      <trkpt lat="46.64076601155102252960205078125" lon="6.85370259918272495269775390625">
        <ele>716.20001220703125</ele>
        <time>2013-08-15T16:33:45.000Z</time>
        <extensions>
          <ns3:TrackPointExtension>
            <ns3:atemp>18.0</ns3:atemp>
            <ns3:hr>117</ns3:hr>
          </ns3:TrackPointExtension>
        </extensions>
      </trkpt>
      <trkpt lat="46.64073030464351177215576171875" lon="6.85380754061043262481689453125">
        <ele>716.20001220703125</ele>
        <time>2013-08-15T16:33:46.000Z</time>
        <extensions>
          <ns3:TrackPointExtension>
            <ns3:atemp>18.0</ns3:atemp>
            <ns3:hr>117</ns3:hr>
          </ns3:TrackPointExtension>
        </extensions>
      </trkpt>
      <trkpt lat="46.6407010518014430999755859375" lon="6.85391373932361602783203125">
        <ele>716.20001220703125</ele>
        <time>2013-08-15T16:33:47.000Z</time>
        <extensions>
          <ns3:TrackPointExtension>
            <ns3:atemp>18.0</ns3:atemp>
            <ns3:hr>117</ns3:hr>
          </ns3:TrackPointExtension>
        </extensions>
      </trkpt>
      <trkpt lat="46.640684790909290313720703125" lon="6.854020021855831146240234375">
        <ele>716.4000244140625</ele>
        <time>2013-08-15T16:33:48.000Z</time>
        <extensions>
          <ns3:TrackPointExtension>
            <ns3:atemp>18.0</ns3:atemp>
            <ns3:hr>117</ns3:hr>
          </ns3:TrackPointExtension>
        </extensions>
      </trkpt>
      <trkpt lat="46.640686802566051483154296875" lon="6.8541190959513187408447265625">
        <ele>716.4000244140625</ele>
        <time>2013-08-15T16:33:49.000Z</time>
        <extensions>
          <ns3:TrackPointExtension>
            <ns3:atemp>18.0</ns3:atemp>
            <ns3:hr>117</ns3:hr>
          </ns3:TrackPointExtension>
        </extensions>
      </trkpt>
      <trkpt lat="46.6406844556331634521484375" lon="6.85421875678002834320068359375">
        <ele>716.5999755859375</ele>
        <time>2013-08-15T16:33:50.000Z</time>
        <extensions>
          <ns3:TrackPointExtension>
            <ns3:atemp>18.0</ns3:atemp>
            <ns3:hr>117</ns3:hr>
          </ns3:TrackPointExtension>
        </extensions>
      </trkpt>
      <trkpt lat="46.64065696299076080322265625" lon="6.85430944897234439849853515625">
        <ele>716.5999755859375</ele>
        <time>2013-08-15T16:33:51.000Z</time>
        <extensions>
          <ns3:TrackPointExtension>
            <ns3:atemp>18.0</ns3:atemp>
            <ns3:hr>117</ns3:hr>
          </ns3:TrackPointExtension>
        </extensions>
      </trkpt>
      <trkpt lat="46.6406200826168060302734375" lon="6.8543916754424571990966796875">
        <ele>716.5999755859375</ele>
        <time>2013-08-15T16:33:52.000Z</time>
        <extensions>
          <ns3:TrackPointExtension>
            <ns3:atemp>18.0</ns3:atemp>
            <ns3:hr>118</ns3:hr>
          </ns3:TrackPointExtension>
        </extensions>
      </trkpt>
      <trkpt lat="46.64058060385286808013916015625" lon="6.8544657714664936065673828125">
        <ele>716.5999755859375</ele>
        <time>2013-08-15T16:33:53.000Z</time>
        <extensions>
          <ns3:TrackPointExtension>
            <ns3:atemp>18.0</ns3:atemp>
            <ns3:hr>117</ns3:hr>
          </ns3:TrackPointExtension>
        </extensions>
      </trkpt>
      <trkpt lat="46.64054154418408870697021484375" lon="6.85453592799603939056396484375">
        <ele>716.4000244140625</ele>
        <time>2013-08-15T16:33:54.000Z</time>
        <extensions>
          <ns3:TrackPointExtension>
            <ns3:atemp>18.0</ns3:atemp>
            <ns3:hr>118</ns3:hr>
          </ns3:TrackPointExtension>
        </extensions>
      </trkpt>
      <trkpt lat="46.64050449617207050323486328125" lon="6.85460197739303112030029296875">
        <ele>716.20001220703125</ele>
        <time>2013-08-15T16:33:55.000Z</time>
        <extensions>
          <ns3:TrackPointExtension>
            <ns3:atemp>18.0</ns3:atemp>
            <ns3:hr>118</ns3:hr>
          </ns3:TrackPointExtension>
        </extensions>
      </trkpt>
      <trkpt lat="46.640470884740352630615234375" lon="6.854662410914897918701171875">
        <ele>716.20001220703125</ele>
        <time>2013-08-15T16:33:56.000Z</time>
        <extensions>
          <ns3:TrackPointExtension>
            <ns3:atemp>18.0</ns3:atemp>
            <ns3:hr>118</ns3:hr>
          </ns3:TrackPointExtension>
        </extensions>
      </trkpt>
      <trkpt lat="46.64043903350830078125" lon="6.8547142110764980316162109375">
        <ele>716.20001220703125</ele>
        <time>2013-08-15T16:33:57.000Z</time>
        <extensions>
          <ns3:TrackPointExtension>
            <ns3:atemp>18.0</ns3:atemp>
            <ns3:hr>118</ns3:hr>
          </ns3:TrackPointExtension>
        </extensions>
      </trkpt>
      <trkpt lat="46.64040676318109035491943359375" lon="6.854758299887180328369140625">
        <ele>716.4000244140625</ele>
        <time>2013-08-15T16:33:58.000Z</time>
        <extensions>
          <ns3:TrackPointExtension>
            <ns3:atemp>18.0</ns3:atemp>
            <ns3:hr>119</ns3:hr>
          </ns3:TrackPointExtension>
        </extensions>
      </trkpt>
      <trkpt lat="46.640379019081592559814453125" lon="6.854788474738597869873046875">
        <ele>716.5999755859375</ele>
        <time>2013-08-15T16:33:59.000Z</time>
        <extensions>
          <ns3:TrackPointExtension>
            <ns3:atemp>18.0</ns3:atemp>
            <ns3:hr>119</ns3:hr>
          </ns3:TrackPointExtension>
        </extensions>
      </trkpt>
      <trkpt lat="46.6403533704578876495361328125" lon="6.85481035150587558746337890625">
        <ele>716.79998779296875</ele>
        <time>2013-08-15T16:34:00.000Z</time>
        <extensions>
          <ns3:TrackPointExtension>
            <ns3:atemp>18.0</ns3:atemp>
            <ns3:hr>119</ns3:hr>
          </ns3:TrackPointExtension>
        </extensions>
      </trkpt>
      <trkpt lat="46.640331409871578216552734375" lon="6.8548292107880115509033203125">
        <ele>717.20001220703125</ele>
        <time>2013-08-15T16:34:01.000Z</time>
        <extensions>
          <ns3:TrackPointExtension>
            <ns3:atemp>18.0</ns3:atemp>
            <ns3:hr>120</ns3:hr>
          </ns3:TrackPointExtension>
        </extensions>
      </trkpt>
      <trkpt lat="46.64030827581882476806640625" lon="6.85484639368951320648193359375">
        <ele>717.5999755859375</ele>
        <time>2013-08-15T16:34:02.000Z</time>
        <extensions>
          <ns3:TrackPointExtension>
            <ns3:atemp>18.0</ns3:atemp>
            <ns3:hr>120</ns3:hr>
          </ns3:TrackPointExtension>
        </extensions>
      </trkpt>
      <trkpt lat="46.6402843035757541656494140625" lon="6.8548644147813320159912109375">
        <ele>717.79998779296875</ele>
        <time>2013-08-15T16:34:03.000Z</time>
        <extensions>
          <ns3:TrackPointExtension>
            <ns3:atemp>18.0</ns3:atemp>
            <ns3:hr>120</ns3:hr>
          </ns3:TrackPointExtension>
        </extensions>
      </trkpt>
      <trkpt lat="46.6402606666088104248046875" lon="6.85488528572022914886474609375">
        <ele>718.4000244140625</ele>
        <time>2013-08-15T16:34:04.000Z</time>
        <extensions>
          <ns3:TrackPointExtension>
            <ns3:atemp>18.0</ns3:atemp>
            <ns3:hr>121</ns3:hr>
          </ns3:TrackPointExtension>
        </extensions>
      </trkpt>
      <trkpt lat="46.64023719727993011474609375" lon="6.8549053184688091278076171875">
        <ele>718.5999755859375</ele>
        <time>2013-08-15T16:34:05.000Z</time>
        <extensions>
          <ns3:TrackPointExtension>
            <ns3:atemp>18.0</ns3:atemp>
            <ns3:hr>122</ns3:hr>
          </ns3:TrackPointExtension>
        </extensions>
      </trkpt>
      <trkpt lat="46.64021573960781097412109375" lon="6.854923926293849945068359375">
        <ele>719</ele>
        <time>2013-08-15T16:34:06.000Z</time>
        <extensions>
          <ns3:TrackPointExtension>
            <ns3:atemp>18.0</ns3:atemp>
            <ns3:hr>122</ns3:hr>
          </ns3:TrackPointExtension>
        </extensions>
      </trkpt>
      <trkpt lat="46.6401931084692478179931640625" lon="6.8549430370330810546875">
        <ele>719</ele>
        <time>2013-08-15T16:34:07.000Z</time>
        <extensions>
          <ns3:TrackPointExtension>
            <ns3:atemp>18.0</ns3:atemp>
            <ns3:hr>122</ns3:hr>
          </ns3:TrackPointExtension>
        </extensions>
      </trkpt>
      <trkpt lat="46.64017072878777980804443359375" lon="6.8549609743058681488037109375">
        <ele>719.20001220703125</ele>
        <time>2013-08-15T16:34:08.000Z</time>
        <extensions>
          <ns3:TrackPointExtension>
            <ns3:atemp>18.0</ns3:atemp>
            <ns3:hr>122</ns3:hr>
          </ns3:TrackPointExtension>
        </extensions>
      </trkpt>
      <trkpt lat="46.6401491872966289520263671875" lon="6.8549792468547821044921875">
        <ele>719.4000244140625</ele>
        <time>2013-08-15T16:34:09.000Z</time>
        <extensions>
          <ns3:TrackPointExtension>
            <ns3:atemp>18.0</ns3:atemp>
            <ns3:hr>123</ns3:hr>
          </ns3:TrackPointExtension>
        </extensions>
      </trkpt>
      <trkpt lat="46.6401297412812709808349609375" lon="6.85499844141304492950439453125">
        <ele>719.5999755859375</ele>
        <time>2013-08-15T16:34:10.000Z</time>
        <extensions>
          <ns3:TrackPointExtension>
            <ns3:atemp>18.0</ns3:atemp>
            <ns3:hr>124</ns3:hr>
          </ns3:TrackPointExtension>
        </extensions>
      </trkpt>
      <trkpt lat="46.64010987617075443267822265625" lon="6.85501621104776859283447265625">
        <ele>720</ele>
        <time>2013-08-15T16:34:11.000Z</time>
        <extensions>
          <ns3:TrackPointExtension>
            <ns3:atemp>18.0</ns3:atemp>
            <ns3:hr>125</ns3:hr>
          </ns3:TrackPointExtension>
        </extensions>
      </trkpt>
      <trkpt lat="46.64009101688861846923828125" lon="6.85503331013023853302001953125">
        <ele>720.4000244140625</ele>
        <time>2013-08-15T16:34:12.000Z</time>
        <extensions>
          <ns3:TrackPointExtension>
            <ns3:atemp>18.0</ns3:atemp>
            <ns3:hr>125</ns3:hr>
          </ns3:TrackPointExtension>
        </extensions>
      </trkpt>
      <trkpt lat="46.64007852785289287567138671875" lon="6.8550531752407550811767578125">
        <ele>721</ele>
        <time>2013-08-15T16:34:13.000Z</time>
        <extensions>
          <ns3:TrackPointExtension>
            <ns3:atemp>18.0</ns3:atemp>
            <ns3:hr>126</ns3:hr>
          </ns3:TrackPointExtension>
        </extensions>
      </trkpt>
      <trkpt lat="46.64006888866424560546875" lon="6.85507689602673053741455078125">
        <ele>721.4000244140625</ele>
        <time>2013-08-15T16:34:14.000Z</time>
        <extensions>
          <ns3:TrackPointExtension>
            <ns3:atemp>18.0</ns3:atemp>
            <ns3:hr>127</ns3:hr>
          </ns3:TrackPointExtension>
        </extensions>
      </trkpt>
      <trkpt lat="46.64006209932267665863037109375" lon="6.8551044724881649017333984375">
        <ele>722</ele>
        <time>2013-08-15T16:34:15.000Z</time>
        <extensions>
          <ns3:TrackPointExtension>
            <ns3:atemp>18.0</ns3:atemp>
            <ns3:hr>128</ns3:hr>
          </ns3:TrackPointExtension>
        </extensions>
      </trkpt>
      <trkpt lat="46.64005639962852001190185546875" lon="6.85513121075928211212158203125">
        <ele>722.20001220703125</ele>
        <time>2013-08-15T16:34:16.000Z</time>
        <extensions>
          <ns3:TrackPointExtension>
            <ns3:atemp>18.0</ns3:atemp>
            <ns3:hr>128</ns3:hr>
          </ns3:TrackPointExtension>
        </extensions>
      </trkpt>
      <trkpt lat="46.64005053229629993438720703125" lon="6.85515266843140125274658203125">
        <ele>722.79998779296875</ele>
        <time>2013-08-15T16:34:17.000Z</time>
        <extensions>
          <ns3:TrackPointExtension>
            <ns3:atemp>18.0</ns3:atemp>
            <ns3:hr>129</ns3:hr>
          </ns3:TrackPointExtension>
        </extensions>
      </trkpt>
      <trkpt lat="46.6400492750108242034912109375" lon="6.855171024799346923828125">
        <ele>723</ele>
        <time>2013-08-15T16:34:18.000Z</time>
        <extensions>
          <ns3:TrackPointExtension>
            <ns3:atemp>18.0</ns3:atemp>
            <ns3:hr>130</ns3:hr>
          </ns3:TrackPointExtension>
        </extensions>
      </trkpt>
      <trkpt lat="46.6400475986301898956298828125" lon="6.85519373975694179534912109375">
        <ele>723.4000244140625</ele>
        <time>2013-08-15T16:34:19.000Z</time>
        <extensions>
          <ns3:TrackPointExtension>
            <ns3:atemp>18.0</ns3:atemp>
            <ns3:hr>131</ns3:hr>
          </ns3:TrackPointExtension>
        </extensions>
      </trkpt>
      <trkpt lat="46.6400439105927944183349609375" lon="6.85521620325744152069091796875">
        <ele>723.5999755859375</ele>
        <time>2013-08-15T16:34:20.000Z</time>
        <extensions>
          <ns3:TrackPointExtension>
            <ns3:atemp>18.0</ns3:atemp>
            <ns3:hr>132</ns3:hr>
          </ns3:TrackPointExtension>
        </extensions>
      </trkpt>
      <trkpt lat="46.64003578014671802520751953125" lon="6.85524570755660533905029296875">
        <ele>724</ele>
        <time>2013-08-15T16:34:21.000Z</time>
        <extensions>
          <ns3:TrackPointExtension>
            <ns3:atemp>18.0</ns3:atemp>
            <ns3:hr>133</ns3:hr>
          </ns3:TrackPointExtension>
        </extensions>
      </trkpt>
      <trkpt lat="46.64002790115773677825927734375" lon="6.855276636779308319091796875">
        <ele>724.20001220703125</ele>
        <time>2013-08-15T16:34:22.000Z</time>
        <extensions>
          <ns3:TrackPointExtension>
            <ns3:atemp>18.0</ns3:atemp>
            <ns3:hr>135</ns3:hr>
          </ns3:TrackPointExtension>
        </extensions>
      </trkpt>
      <trkpt lat="46.6400191001594066619873046875" lon="6.8553059734404087066650390625">
        <ele>724.4000244140625</ele>
        <time>2013-08-15T16:34:23.000Z</time>
        <extensions>
          <ns3:TrackPointExtension>
            <ns3:atemp>18.0</ns3:atemp>
            <ns3:hr>135</ns3:hr>
          </ns3:TrackPointExtension>
        </extensions>
      </trkpt>
      <trkpt lat="46.6400053538382053375244140625" lon="6.8553358130156993865966796875">
        <ele>724.79998779296875</ele>
        <time>2013-08-15T16:34:24.000Z</time>
        <extensions>
          <ns3:TrackPointExtension>
            <ns3:atemp>18.0</ns3:atemp>
            <ns3:hr>136</ns3:hr>
          </ns3:TrackPointExtension>
        </extensions>
      </trkpt>
      <trkpt lat="46.6399946250021457672119140625" lon="6.8553626351058483123779296875">
        <ele>725.4000244140625</ele>
        <time>2013-08-15T16:34:25.000Z</time>
        <extensions>
          <ns3:TrackPointExtension>
            <ns3:atemp>18.0</ns3:atemp>
            <ns3:hr>138</ns3:hr>
          </ns3:TrackPointExtension>
        </extensions>
      </trkpt>
      <trkpt lat="46.6399843990802764892578125" lon="6.85539356432855129241943359375">
        <ele>725.79998779296875</ele>
        <time>2013-08-15T16:34:26.000Z</time>
        <extensions>
          <ns3:TrackPointExtension>
            <ns3:atemp>18.0</ns3:atemp>
            <ns3:hr>138</ns3:hr>
          </ns3:TrackPointExtension>
        </extensions>
      </trkpt>
      <trkpt lat="46.63997509516775608062744140625" lon="6.85542273335158824920654296875">
        <ele>726.20001220703125</ele>
        <time>2013-08-15T16:34:27.000Z</time>
        <extensions>
          <ns3:TrackPointExtension>
            <ns3:atemp>18.0</ns3:atemp>
            <ns3:hr>139</ns3:hr>
          </ns3:TrackPointExtension>
        </extensions>
      </trkpt>
      <trkpt lat="46.63996721617877483367919921875" lon="6.8554424308240413665771484375">
        <ele>726.4000244140625</ele>
        <time>2013-08-15T16:34:28.000Z</time>
        <extensions>
          <ns3:TrackPointExtension>
            <ns3:atemp>18.0</ns3:atemp>
            <ns3:hr>140</ns3:hr>
          </ns3:TrackPointExtension>
        </extensions>
      </trkpt>
      <trkpt lat="46.63995564915239810943603515625" lon="6.855463720858097076416015625">
        <ele>726.79998779296875</ele>
        <time>2013-08-15T16:34:29.000Z</time>
        <extensions>
          <ns3:TrackPointExtension>
            <ns3:atemp>18.0</ns3:atemp>
            <ns3:hr>141</ns3:hr>
          </ns3:TrackPointExtension>
        </extensions>
      </trkpt>
      <trkpt lat="46.6399456746876239776611328125" lon="6.85549381189048290252685546875">
        <ele>726.79998779296875</ele>
        <time>2013-08-15T16:34:30.000Z</time>
        <extensions>
          <ns3:TrackPointExtension>
            <ns3:atemp>18.0</ns3:atemp>
            <ns3:hr>142</ns3:hr>
          </ns3:TrackPointExtension>
        </extensions>
      </trkpt>
      <trkpt lat="46.63994014263153076171875" lon="6.855520047247409820556640625">
        <ele>727.20001220703125</ele>
        <time>2013-08-15T16:34:31.000Z</time>
        <extensions>
          <ns3:TrackPointExtension>
            <ns3:atemp>18.0</ns3:atemp>
            <ns3:hr>143</ns3:hr>
          </ns3:TrackPointExtension>
        </extensions>
      </trkpt>
      <trkpt lat="46.63993519730865955352783203125" lon="6.85554309748113155364990234375">
        <ele>727.4000244140625</ele>
        <time>2013-08-15T16:34:32.000Z</time>
        <extensions>
          <ns3:TrackPointExtension>
            <ns3:atemp>18.0</ns3:atemp>
            <ns3:hr>143</ns3:hr>
          </ns3:TrackPointExtension>
        </extensions>
      </trkpt>
      <trkpt lat="46.6399285756051540374755859375" lon="6.85556589625775814056396484375">
        <ele>727.5999755859375</ele>
        <time>2013-08-15T16:34:33.000Z</time>
        <extensions>
          <ns3:TrackPointExtension>
            <ns3:atemp>18.0</ns3:atemp>
            <ns3:hr>144</ns3:hr>
          </ns3:TrackPointExtension>
        </extensions>
      </trkpt>
      <trkpt lat="46.63991876877844333648681640625" lon="6.855588443577289581298828125">
        <ele>727.79998779296875</ele>
        <time>2013-08-15T16:34:34.000Z</time>
        <extensions>
          <ns3:TrackPointExtension>
            <ns3:atemp>18.0</ns3:atemp>
            <ns3:hr>144</ns3:hr>
          </ns3:TrackPointExtension>
        </extensions>
      </trkpt>
      <trkpt lat="46.639908291399478912353515625" lon="6.85560897924005985260009765625">
        <ele>728.20001220703125</ele>
        <time>2013-08-15T16:34:35.000Z</time>
        <extensions>
          <ns3:TrackPointExtension>
            <ns3:atemp>18.0</ns3:atemp>
            <ns3:hr>144</ns3:hr>
          </ns3:TrackPointExtension>
        </extensions>
      </trkpt>
      <trkpt lat="46.63989865221083164215087890625" lon="6.85562632977962493896484375">
        <ele>728.5999755859375</ele>
        <time>2013-08-15T16:34:36.000Z</time>
        <extensions>
          <ns3:TrackPointExtension>
            <ns3:atemp>18.0</ns3:atemp>
            <ns3:hr>144</ns3:hr>
          </ns3:TrackPointExtension>
        </extensions>
      </trkpt>
      <trkpt lat="46.6398903541266918182373046875" lon="6.855641417205333709716796875">
        <ele>728.79998779296875</ele>
        <time>2013-08-15T16:34:37.000Z</time>
        <extensions>
          <ns3:TrackPointExtension>
            <ns3:atemp>18.0</ns3:atemp>
            <ns3:hr>144</ns3:hr>
          </ns3:TrackPointExtension>
        </extensions>
      </trkpt>
      <trkpt lat="46.6398833133280277252197265625" lon="6.85565457679331302642822265625">
        <ele>729.20001220703125</ele>
        <time>2013-08-15T16:34:38.000Z</time>
        <extensions>
          <ns3:TrackPointExtension>
            <ns3:atemp>18.0</ns3:atemp>
            <ns3:hr>145</ns3:hr>
          </ns3:TrackPointExtension>
        </extensions>
      </trkpt>
      <trkpt lat="46.639875434339046478271484375" lon="6.85567033477127552032470703125">
        <ele>729.4000244140625</ele>
        <time>2013-08-15T16:34:39.000Z</time>
        <extensions>
          <ns3:TrackPointExtension>
            <ns3:atemp>18.0</ns3:atemp>
            <ns3:hr>144</ns3:hr>
          </ns3:TrackPointExtension>
        </extensions>
      </trkpt>
      <trkpt lat="46.6398688964545726776123046875" lon="6.8556878529489040374755859375">
        <ele>729.79998779296875</ele>
        <time>2013-08-15T16:34:40.000Z</time>
        <extensions>
          <ns3:TrackPointExtension>
            <ns3:atemp>18.0</ns3:atemp>
            <ns3:hr>145</ns3:hr>
          </ns3:TrackPointExtension>
        </extensions>
      </trkpt>
      <trkpt lat="46.63986428640782833099365234375" lon="6.85570453293621540069580078125">
        <ele>730</ele>
        <time>2013-08-15T16:34:41.000Z</time>
        <extensions>
          <ns3:TrackPointExtension>
            <ns3:atemp>18.0</ns3:atemp>
            <ns3:hr>145</ns3:hr>
          </ns3:TrackPointExtension>
        </extensions>
      </trkpt>
      <trkpt lat="46.63985691033303737640380859375" lon="6.85571626760065555572509765625">
        <ele>730.4000244140625</ele>
        <time>2013-08-15T16:34:42.000Z</time>
        <extensions>
          <ns3:TrackPointExtension>
            <ns3:atemp>18.0</ns3:atemp>
            <ns3:hr>145</ns3:hr>
          </ns3:TrackPointExtension>
        </extensions>
      </trkpt>
      <trkpt lat="46.6398497857153415679931640625" lon="6.85572800226509571075439453125">
        <ele>730.5999755859375</ele>
        <time>2013-08-15T16:34:43.000Z</time>
        <extensions>
          <ns3:TrackPointExtension>
            <ns3:atemp>18.0</ns3:atemp>
            <ns3:hr>145</ns3:hr>
          </ns3:TrackPointExtension>
        </extensions>
      </trkpt>
      <trkpt lat="46.63983930833637714385986328125" lon="6.85574032366275787353515625">
        <ele>730.79998779296875</ele>
        <time>2013-08-15T16:34:44.000Z</time>
        <extensions>
          <ns3:TrackPointExtension>
            <ns3:atemp>18.0</ns3:atemp>
            <ns3:hr>145</ns3:hr>
          </ns3:TrackPointExtension>
        </extensions>
      </trkpt>
      <trkpt lat="46.6398293338716030120849609375" lon="6.8557525612413883209228515625">
        <ele>731</ele>
        <time>2013-08-15T16:34:45.000Z</time>
        <extensions>
          <ns3:TrackPointExtension>
            <ns3:atemp>18.0</ns3:atemp>
            <ns3:hr>145</ns3:hr>
          </ns3:TrackPointExtension>
        </extensions>
      </trkpt>
      <trkpt lat="46.63981919176876544952392578125" lon="6.8557651340961456298828125">
        <ele>731.20001220703125</ele>
        <time>2013-08-15T16:34:46.000Z</time>
        <extensions>
          <ns3:TrackPointExtension>
            <ns3:atemp>18.0</ns3:atemp>
            <ns3:hr>145</ns3:hr>
          </ns3:TrackPointExtension>
        </extensions>
      </trkpt>
      <trkpt lat="46.639808379113674163818359375" lon="6.855777204036712646484375">
        <ele>731.4000244140625</ele>
        <time>2013-08-15T16:34:47.000Z</time>
        <extensions>
          <ns3:TrackPointExtension>
            <ns3:atemp>18.0</ns3:atemp>
            <ns3:hr>146</ns3:hr>
          </ns3:TrackPointExtension>
        </extensions>
      </trkpt>
      <trkpt lat="46.639796309173107147216796875" lon="6.8557870946824550628662109375">
        <ele>731.79998779296875</ele>
        <time>2013-08-15T16:34:48.000Z</time>
        <extensions>
          <ns3:TrackPointExtension>
            <ns3:atemp>18.0</ns3:atemp>
            <ns3:hr>146</ns3:hr>
          </ns3:TrackPointExtension>
        </extensions>
      </trkpt>
      <trkpt lat="46.63978214375674724578857421875" lon="6.855803690850734710693359375">
        <ele>732.4000244140625</ele>
        <time>2013-08-15T16:34:49.000Z</time>
        <extensions>
          <ns3:TrackPointExtension>
            <ns3:atemp>18.0</ns3:atemp>
            <ns3:hr>146</ns3:hr>
          </ns3:TrackPointExtension>
        </extensions>
      </trkpt>
      <trkpt lat="46.63976890034973621368408203125" lon="6.8558159284293651580810546875">
        <ele>732.5999755859375</ele>
        <time>2013-08-15T16:34:50.000Z</time>
        <extensions>
          <ns3:TrackPointExtension>
            <ns3:atemp>18.0</ns3:atemp>
            <ns3:hr>147</ns3:hr>
          </ns3:TrackPointExtension>
        </extensions>
      </trkpt>
      <trkpt lat="46.63975716568529605865478515625" lon="6.85582774691283702850341796875">
        <ele>733</ele>
        <time>2013-08-15T16:34:51.000Z</time>
        <extensions>
          <ns3:TrackPointExtension>
            <ns3:atemp>18.0</ns3:atemp>
            <ns3:hr>147</ns3:hr>
          </ns3:TrackPointExtension>
        </extensions>
      </trkpt>
      <trkpt lat="46.63974677212536334991455078125" lon="6.8558414094150066375732421875">
        <ele>733.20001220703125</ele>
        <time>2013-08-15T16:34:52.000Z</time>
        <extensions>
          <ns3:TrackPointExtension>
            <ns3:atemp>18.0</ns3:atemp>
            <ns3:hr>147</ns3:hr>
          </ns3:TrackPointExtension>
        </extensions>
      </trkpt>
      <trkpt lat="46.6397361271083354949951171875" lon="6.85585171915590763092041015625">
        <ele>733.4000244140625</ele>
        <time>2013-08-15T16:34:53.000Z</time>
        <extensions>
          <ns3:TrackPointExtension>
            <ns3:atemp>18.0</ns3:atemp>
            <ns3:hr>147</ns3:hr>
          </ns3:TrackPointExtension>
        </extensions>
      </trkpt>
      <trkpt lat="46.6397257335484027862548828125" lon="6.85585834085941314697265625">
        <ele>733.5999755859375</ele>
        <time>2013-08-15T16:34:54.000Z</time>
        <extensions>
          <ns3:TrackPointExtension>
            <ns3:atemp>18.0</ns3:atemp>
            <ns3:hr>147</ns3:hr>
          </ns3:TrackPointExtension>
        </extensions>
      </trkpt>
      <trkpt lat="46.63971324451267719268798828125" lon="6.85586496256291866302490234375">
        <ele>733.79998779296875</ele>
        <time>2013-08-15T16:34:55.000Z</time>
        <extensions>
          <ns3:TrackPointExtension>
            <ns3:atemp>18.0</ns3:atemp>
            <ns3:hr>147</ns3:hr>
          </ns3:TrackPointExtension>
        </extensions>
      </trkpt>
      <trkpt lat="46.6396985761821269989013671875" lon="6.85587032698094844818115234375">
        <ele>734</ele>
        <time>2013-08-15T16:34:56.000Z</time>
        <extensions>
          <ns3:TrackPointExtension>
            <ns3:atemp>18.0</ns3:atemp>
            <ns3:hr>148</ns3:hr>
          </ns3:TrackPointExtension>
        </extensions>
      </trkpt>
      <trkpt lat="46.6396804712712764739990234375" lon="6.85588239692151546478271484375">
        <ele>734.4000244140625</ele>
        <time>2013-08-15T16:34:57.000Z</time>
        <extensions>
          <ns3:TrackPointExtension>
            <ns3:atemp>18.0</ns3:atemp>
            <ns3:hr>147</ns3:hr>
          </ns3:TrackPointExtension>
        </extensions>
      </trkpt>
      <trkpt lat="46.639662198722362518310546875" lon="6.85589664615690708160400390625">
        <ele>734.5999755859375</ele>
        <time>2013-08-15T16:34:58.000Z</time>
        <extensions>
          <ns3:TrackPointExtension>
            <ns3:atemp>18.0</ns3:atemp>
            <ns3:hr>148</ns3:hr>
          </ns3:TrackPointExtension>
        </extensions>
      </trkpt>
      <trkpt lat="46.63964845240116119384765625" lon="6.8559087999165058135986328125">
        <ele>734.79998779296875</ele>
        <time>2013-08-15T16:34:59.000Z</time>
        <extensions>
          <ns3:TrackPointExtension>
            <ns3:atemp>18.0</ns3:atemp>
            <ns3:hr>148</ns3:hr>
          </ns3:TrackPointExtension>
        </extensions>
      </trkpt>
      <trkpt lat="46.6396352089941501617431640625" lon="6.85592363588511943817138671875">
        <ele>735</ele>
        <time>2013-08-15T16:35:00.000Z</time>
        <extensions>
          <ns3:TrackPointExtension>
            <ns3:atemp>18.0</ns3:atemp>
            <ns3:hr>148</ns3:hr>
          </ns3:TrackPointExtension>
        </extensions>
      </trkpt>
      <trkpt lat="46.63961953483521938323974609375" lon="6.85594073496758937835693359375">
        <ele>735.4000244140625</ele>
        <time>2013-08-15T16:35:01.000Z</time>
        <extensions>
          <ns3:TrackPointExtension>
            <ns3:atemp>18.0</ns3:atemp>
            <ns3:hr>148</ns3:hr>
          </ns3:TrackPointExtension>
        </extensions>
      </trkpt>
      <trkpt lat="46.63960495032370090484619140625" lon="6.855955906212329864501953125">
        <ele>735.5999755859375</ele>
        <time>2013-08-15T16:35:02.000Z</time>
        <extensions>
          <ns3:TrackPointExtension>
            <ns3:atemp>18.0</ns3:atemp>
            <ns3:hr>148</ns3:hr>
          </ns3:TrackPointExtension>
        </extensions>
      </trkpt>
      <trkpt lat="46.6395792178809642791748046875" lon="6.855965964496135711669921875">
        <ele>735.79998779296875</ele>
        <time>2013-08-15T16:35:03.000Z</time>
        <extensions>
          <ns3:TrackPointExtension>
            <ns3:atemp>18.0</ns3:atemp>
            <ns3:hr>148</ns3:hr>
          </ns3:TrackPointExtension>
        </extensions>
      </trkpt>
      <trkpt lat="46.63955449126660823822021484375" lon="6.85597593896090984344482421875">
        <ele>736</ele>
        <time>2013-08-15T16:35:04.000Z</time>
        <extensions>
          <ns3:TrackPointExtension>
            <ns3:atemp>18.0</ns3:atemp>
            <ns3:hr>148</ns3:hr>
          </ns3:TrackPointExtension>
        </extensions>
      </trkpt>
      <trkpt lat="46.6395306028425693511962890625" lon="6.85598482377827167510986328125">
        <ele>736.20001220703125</ele>
        <time>2013-08-15T16:35:05.000Z</time>
        <extensions>
          <ns3:TrackPointExtension>
            <ns3:atemp>18.0</ns3:atemp>
            <ns3:hr>149</ns3:hr>
          </ns3:TrackPointExtension>
        </extensions>
      </trkpt>
      <trkpt lat="46.639505960047245025634765625" lon="6.8559909425675868988037109375">
        <ele>736.4000244140625</ele>
        <time>2013-08-15T16:35:06.000Z</time>
        <extensions>
          <ns3:TrackPointExtension>
            <ns3:atemp>18.0</ns3:atemp>
            <ns3:hr>149</ns3:hr>
          </ns3:TrackPointExtension>
        </extensions>
      </trkpt>
      <trkpt lat="46.6394846700131893157958984375" lon="6.85599890537559986114501953125">
        <ele>736.79998779296875</ele>
        <time>2013-08-15T16:35:07.000Z</time>
        <extensions>
          <ns3:TrackPointExtension>
            <ns3:atemp>18.0</ns3:atemp>
            <ns3:hr>149</ns3:hr>
          </ns3:TrackPointExtension>
        </extensions>
      </trkpt>
      <trkpt lat="46.63946279324591159820556640625" lon="6.85600946657359600067138671875">
        <ele>737.20001220703125</ele>
        <time>2013-08-15T16:35:08.000Z</time>
        <extensions>
          <ns3:TrackPointExtension>
            <ns3:atemp>18.0</ns3:atemp>
            <ns3:hr>149</ns3:hr>
          </ns3:TrackPointExtension>
        </extensions>
      </trkpt>
      <trkpt lat="46.639445610344409942626953125" lon="6.8560214526951313018798828125">
        <ele>737.4000244140625</ele>
        <time>2013-08-15T16:35:09.000Z</time>
        <extensions>
          <ns3:TrackPointExtension>
            <ns3:atemp>18.0</ns3:atemp>
            <ns3:hr>150</ns3:hr>
          </ns3:TrackPointExtension>
        </extensions>
      </trkpt>
      <trkpt lat="46.6394300200045108795166015625" lon="6.85603746213018894195556640625">
        <ele>737.79998779296875</ele>
        <time>2013-08-15T16:35:10.000Z</time>
        <extensions>
          <ns3:TrackPointExtension>
            <ns3:atemp>18.0</ns3:atemp>
            <ns3:hr>150</ns3:hr>
          </ns3:TrackPointExtension>
        </extensions>
      </trkpt>
      <trkpt lat="46.63941551931202411651611328125" lon="6.8560553155839443206787109375">
        <ele>738</ele>
        <time>2013-08-15T16:35:11.000Z</time>
        <extensions>
          <ns3:TrackPointExtension>
            <ns3:atemp>18.0</ns3:atemp>
            <ns3:hr>150</ns3:hr>
          </ns3:TrackPointExtension>
        </extensions>
      </trkpt>
      <trkpt lat="46.63939976133406162261962890625" lon="6.85607333667576313018798828125">
        <ele>738.4000244140625</ele>
        <time>2013-08-15T16:35:12.000Z</time>
        <extensions>
          <ns3:TrackPointExtension>
            <ns3:atemp>18.0</ns3:atemp>
            <ns3:hr>150</ns3:hr>
          </ns3:TrackPointExtension>
        </extensions>
      </trkpt>
      <trkpt lat="46.63938827812671661376953125" lon="6.85609496198594570159912109375">
        <ele>739</ele>
        <time>2013-08-15T16:35:13.000Z</time>
        <extensions>
          <ns3:TrackPointExtension>
            <ns3:atemp>18.0</ns3:atemp>
            <ns3:hr>150</ns3:hr>
          </ns3:TrackPointExtension>
        </extensions>
      </trkpt>
      <trkpt lat="46.6393782198429107666015625" lon="6.85611340217292308807373046875">
        <ele>739.20001220703125</ele>
        <time>2013-08-15T16:35:14.000Z</time>
        <extensions>
          <ns3:TrackPointExtension>
            <ns3:atemp>18.0</ns3:atemp>
            <ns3:hr>150</ns3:hr>
          </ns3:TrackPointExtension>
        </extensions>
      </trkpt>
      <trkpt lat="46.63936992175877094268798828125" lon="6.85613066889345645904541015625">
        <ele>739.79998779296875</ele>
        <time>2013-08-15T16:35:15.000Z</time>
        <extensions>
          <ns3:TrackPointExtension>
            <ns3:atemp>18.0</ns3:atemp>
            <ns3:hr>151</ns3:hr>
          </ns3:TrackPointExtension>
        </extensions>
      </trkpt>
      <trkpt lat="46.63936137221753597259521484375" lon="6.8561498634517192840576171875">
        <ele>739.79998779296875</ele>
        <time>2013-08-15T16:35:16.000Z</time>
        <extensions>
          <ns3:TrackPointExtension>
            <ns3:atemp>18.0</ns3:atemp>
            <ns3:hr>151</ns3:hr>
          </ns3:TrackPointExtension>
        </extensions>
      </trkpt>
      <trkpt lat="46.63935114629566669464111328125" lon="6.856166459619998931884765625">
        <ele>740.20001220703125</ele>
        <time>2013-08-15T16:35:17.000Z</time>
        <extensions>
          <ns3:TrackPointExtension>
            <ns3:atemp>18.0</ns3:atemp>
            <ns3:hr>151</ns3:hr>
          </ns3:TrackPointExtension>
        </extensions>
      </trkpt>
      <trkpt lat="46.639343015849590301513671875" lon="6.8561843968927860260009765625">
        <ele>740.4000244140625</ele>
        <time>2013-08-15T16:35:18.000Z</time>
        <extensions>
          <ns3:TrackPointExtension>
            <ns3:atemp>18.0</ns3:atemp>
            <ns3:hr>151</ns3:hr>
          </ns3:TrackPointExtension>
        </extensions>
      </trkpt>
      <trkpt lat="46.63933270610868930816650390625" lon="6.85619822703301906585693359375">
        <ele>740.79998779296875</ele>
        <time>2013-08-15T16:35:19.000Z</time>
        <extensions>
          <ns3:TrackPointExtension>
            <ns3:atemp>18.0</ns3:atemp>
            <ns3:hr>151</ns3:hr>
          </ns3:TrackPointExtension>
        </extensions>
      </trkpt>
      <trkpt lat="46.63932214491069316864013671875" lon="6.85621549375355243682861328125">
        <ele>741.20001220703125</ele>
        <time>2013-08-15T16:35:20.000Z</time>
        <extensions>
          <ns3:TrackPointExtension>
            <ns3:atemp>18.0</ns3:atemp>
            <ns3:hr>152</ns3:hr>
          </ns3:TrackPointExtension>
        </extensions>
      </trkpt>
      <trkpt lat="46.63931242190301418304443359375" lon="6.85623728670179843902587890625">
        <ele>741.4000244140625</ele>
        <time>2013-08-15T16:35:21.000Z</time>
        <extensions>
          <ns3:TrackPointExtension>
            <ns3:atemp>18.0</ns3:atemp>
            <ns3:hr>152</ns3:hr>
          </ns3:TrackPointExtension>
        </extensions>
      </trkpt>
      <trkpt lat="46.639304123818874359130859375" lon="6.85626260004937648773193359375">
        <ele>741.5999755859375</ele>
        <time>2013-08-15T16:35:22.000Z</time>
        <extensions>
          <ns3:TrackPointExtension>
            <ns3:atemp>18.0</ns3:atemp>
            <ns3:hr>152</ns3:hr>
          </ns3:TrackPointExtension>
        </extensions>
      </trkpt>
      <trkpt lat="46.63929666392505168914794921875" lon="6.8562839739024639129638671875">
        <ele>741.79998779296875</ele>
        <time>2013-08-15T16:35:23.000Z</time>
        <extensions>
          <ns3:TrackPointExtension>
            <ns3:atemp>18.0</ns3:atemp>
            <ns3:hr>152</ns3:hr>
          </ns3:TrackPointExtension>
        </extensions>
      </trkpt>
      <trkpt lat="46.63928694091737270355224609375" lon="6.85630618594586849212646484375">
        <ele>742</ele>
        <time>2013-08-15T16:35:24.000Z</time>
        <extensions>
          <ns3:TrackPointExtension>
            <ns3:atemp>18.0</ns3:atemp>
            <ns3:hr>152</ns3:hr>
          </ns3:TrackPointExtension>
        </extensions>
      </trkpt>
      <trkpt lat="46.63927956484258174896240234375" lon="6.85632647015154361724853515625">
        <ele>742.20001220703125</ele>
        <time>2013-08-15T16:35:25.000Z</time>
        <extensions>
          <ns3:TrackPointExtension>
            <ns3:atemp>18.0</ns3:atemp>
            <ns3:hr>152</ns3:hr>
          </ns3:TrackPointExtension>
        </extensions>
      </trkpt>
      <trkpt lat="46.6392727755010128021240234375" lon="6.8563466705381870269775390625">
        <ele>742.5999755859375</ele>
        <time>2013-08-15T16:35:26.000Z</time>
        <extensions>
          <ns3:TrackPointExtension>
            <ns3:atemp>18.0</ns3:atemp>
            <ns3:hr>153</ns3:hr>
          </ns3:TrackPointExtension>
        </extensions>
      </trkpt>
      <trkpt lat="46.6392664052546024322509765625" lon="6.8563671223819255828857421875">
        <ele>742.79998779296875</ele>
        <time>2013-08-15T16:35:27.000Z</time>
        <extensions>
          <ns3:TrackPointExtension>
            <ns3:atemp>18.0</ns3:atemp>
            <ns3:hr>153</ns3:hr>
          </ns3:TrackPointExtension>
        </extensions>
      </trkpt>
      <trkpt lat="46.639258861541748046875" lon="6.85638606548309326171875">
        <ele>742.79998779296875</ele>
        <time>2013-08-15T16:35:28.000Z</time>
        <extensions>
          <ns3:TrackPointExtension>
            <ns3:atemp>18.0</ns3:atemp>
            <ns3:hr>153</ns3:hr>
          </ns3:TrackPointExtension>
        </extensions>
      </trkpt>
      <trkpt lat="46.639250814914703369140625" lon="6.85640810988843441009521484375">
        <ele>743</ele>
        <time>2013-08-15T16:35:29.000Z</time>
        <extensions>
          <ns3:TrackPointExtension>
            <ns3:atemp>18.0</ns3:atemp>
            <ns3:hr>153</ns3:hr>
          </ns3:TrackPointExtension>
        </extensions>
      </trkpt>
      <trkpt lat="46.63924301974475383758544921875" lon="6.8564278073608875274658203125">
        <ele>743.20001220703125</ele>
        <time>2013-08-15T16:35:30.000Z</time>
        <extensions>
          <ns3:TrackPointExtension>
            <ns3:atemp>18.0</ns3:atemp>
            <ns3:hr>153</ns3:hr>
          </ns3:TrackPointExtension>
        </extensions>
      </trkpt>
      <trkpt lat="46.63923430256545543670654296875" lon="6.85644800774753093719482421875">
        <ele>743.4000244140625</ele>
        <time>2013-08-15T16:35:31.000Z</time>
        <extensions>
          <ns3:TrackPointExtension>
            <ns3:atemp>18.0</ns3:atemp>
            <ns3:hr>153</ns3:hr>
          </ns3:TrackPointExtension>
        </extensions>
      </trkpt>
      <trkpt lat="46.63922139443457126617431640625" lon="6.856465525925159454345703125">
        <ele>743.5999755859375</ele>
        <time>2013-08-15T16:35:32.000Z</time>
        <extensions>
          <ns3:TrackPointExtension>
            <ns3:atemp>18.0</ns3:atemp>
            <ns3:hr>153</ns3:hr>
          </ns3:TrackPointExtension>
        </extensions>
      </trkpt>
      <trkpt lat="46.63921217434108257293701171875" lon="6.85648622922599315643310546875">
        <ele>743.79998779296875</ele>
        <time>2013-08-15T16:35:33.000Z</time>
        <extensions>
          <ns3:TrackPointExtension>
            <ns3:atemp>18.0</ns3:atemp>
            <ns3:hr>154</ns3:hr>
          </ns3:TrackPointExtension>
        </extensions>
      </trkpt>
      <trkpt lat="46.639202870428562164306640625" lon="6.85650953091681003570556640625">
        <ele>744.20001220703125</ele>
        <time>2013-08-15T16:35:34.000Z</time>
        <extensions>
          <ns3:TrackPointExtension>
            <ns3:atemp>18.0</ns3:atemp>
            <ns3:hr>154</ns3:hr>
          </ns3:TrackPointExtension>
        </extensions>
      </trkpt>
      <trkpt lat="46.6391958296298980712890625" lon="6.85653115622699260711669921875">
        <ele>744.20001220703125</ele>
        <time>2013-08-15T16:35:35.000Z</time>
        <extensions>
          <ns3:TrackPointExtension>
            <ns3:atemp>18.0</ns3:atemp>
            <ns3:hr>154</ns3:hr>
          </ns3:TrackPointExtension>
        </extensions>
      </trkpt>
      <trkpt lat="46.63918669335544109344482421875" lon="6.8565508536994457244873046875">
        <ele>744.4000244140625</ele>
        <time>2013-08-15T16:35:36.000Z</time>
        <extensions>
          <ns3:TrackPointExtension>
            <ns3:atemp>18.0</ns3:atemp>
            <ns3:hr>153</ns3:hr>
          </ns3:TrackPointExtension>
        </extensions>
      </trkpt>
      <trkpt lat="46.6391775570809841156005859375" lon="6.85657055117189884185791015625">
        <ele>744.79998779296875</ele>
        <time>2013-08-15T16:35:37.000Z</time>
        <extensions>
          <ns3:TrackPointExtension>
            <ns3:atemp>18.0</ns3:atemp>
            <ns3:hr>154</ns3:hr>
          </ns3:TrackPointExtension>
        </extensions>
      </trkpt>
      <trkpt lat="46.63916808553040027618408203125" lon="6.8565897457301616668701171875">
        <ele>745</ele>
        <time>2013-08-15T16:35:38.000Z</time>
        <extensions>
          <ns3:TrackPointExtension>
            <ns3:atemp>18.0</ns3:atemp>
            <ns3:hr>153</ns3:hr>
          </ns3:TrackPointExtension>
        </extensions>
      </trkpt>
      <trkpt lat="46.63915685378015041351318359375" lon="6.8566095270216464996337890625">
        <ele>745.20001220703125</ele>
        <time>2013-08-15T16:35:39.000Z</time>
        <extensions>
          <ns3:TrackPointExtension>
            <ns3:atemp>18.0</ns3:atemp>
            <ns3:hr>154</ns3:hr>
          </ns3:TrackPointExtension>
        </extensions>
      </trkpt>
      <trkpt lat="46.6391470469534397125244140625" lon="6.85662687756121158599853515625">
        <ele>745.4000244140625</ele>
        <time>2013-08-15T16:35:40.000Z</time>
        <extensions>
          <ns3:TrackPointExtension>
            <ns3:atemp>18.0</ns3:atemp>
            <ns3:hr>153</ns3:hr>
          </ns3:TrackPointExtension>
        </extensions>
      </trkpt>
      <trkpt lat="46.63913774304091930389404296875" lon="6.8566447310149669647216796875">
        <ele>745.5999755859375</ele>
        <time>2013-08-15T16:35:41.000Z</time>
        <extensions>
          <ns3:TrackPointExtension>
            <ns3:atemp>18.0</ns3:atemp>
            <ns3:hr>154</ns3:hr>
          </ns3:TrackPointExtension>
        </extensions>
      </trkpt>
      <trkpt lat="46.6391262598335742950439453125" lon="6.8566609919071197509765625">
        <ele>745.79998779296875</ele>
        <time>2013-08-15T16:35:42.000Z</time>
        <extensions>
          <ns3:TrackPointExtension>
            <ns3:atemp>18.0</ns3:atemp>
            <ns3:hr>153</ns3:hr>
          </ns3:TrackPointExtension>
        </extensions>
      </trkpt>
      <trkpt lat="46.63911201059818267822265625" lon="6.85667817480862140655517578125">
        <ele>746</ele>
        <time>2013-08-15T16:35:43.000Z</time>
        <extensions>
          <ns3:TrackPointExtension>
            <ns3:atemp>18.0</ns3:atemp>
            <ns3:hr>153</ns3:hr>
          </ns3:TrackPointExtension>
        </extensions>
      </trkpt>
      <trkpt lat="46.63909801281988620758056640625" lon="6.85669443570077419281005859375">
        <ele>746.4000244140625</ele>
        <time>2013-08-15T16:35:44.000Z</time>
        <extensions>
          <ns3:TrackPointExtension>
            <ns3:atemp>18.0</ns3:atemp>
            <ns3:hr>153</ns3:hr>
          </ns3:TrackPointExtension>
        </extensions>
      </trkpt>
      <trkpt lat="46.6390836797654628753662109375" lon="6.85670860111713409423828125">
        <ele>746.5999755859375</ele>
        <time>2013-08-15T16:35:45.000Z</time>
        <extensions>
          <ns3:TrackPointExtension>
            <ns3:atemp>18.0</ns3:atemp>
            <ns3:hr>153</ns3:hr>
          </ns3:TrackPointExtension>
        </extensions>
      </trkpt>
      <trkpt lat="46.63907052017748355865478515625" lon="6.85672494582831859588623046875">
        <ele>746.79998779296875</ele>
        <time>2013-08-15T16:35:46.000Z</time>
        <extensions>
          <ns3:TrackPointExtension>
            <ns3:atemp>18.0</ns3:atemp>
            <ns3:hr>153</ns3:hr>
          </ns3:TrackPointExtension>
        </extensions>
      </trkpt>
      <trkpt lat="46.6390558518469333648681640625" lon="6.856741793453693389892578125">
        <ele>747</ele>
        <time>2013-08-15T16:35:47.000Z</time>
        <extensions>
          <ns3:TrackPointExtension>
            <ns3:atemp>18.0</ns3:atemp>
            <ns3:hr>153</ns3:hr>
          </ns3:TrackPointExtension>
        </extensions>
      </trkpt>
      <trkpt lat="46.63904051296412944793701171875" lon="6.8567560426890850067138671875">
        <ele>747.20001220703125</ele>
        <time>2013-08-15T16:35:48.000Z</time>
        <extensions>
          <ns3:TrackPointExtension>
            <ns3:atemp>18.0</ns3:atemp>
            <ns3:hr>153</ns3:hr>
          </ns3:TrackPointExtension>
        </extensions>
      </trkpt>
      <trkpt lat="46.63902643136680126190185546875" lon="6.856774985790252685546875">
        <ele>747.4000244140625</ele>
        <time>2013-08-15T16:35:49.000Z</time>
        <extensions>
          <ns3:TrackPointExtension>
            <ns3:atemp>18.0</ns3:atemp>
            <ns3:hr>152</ns3:hr>
          </ns3:TrackPointExtension>
        </extensions>
      </trkpt>
      <trkpt lat="46.63901067338883876800537109375" lon="6.85679216869175434112548828125">
        <ele>747.5999755859375</ele>
        <time>2013-08-15T16:35:50.000Z</time>
        <extensions>
          <ns3:TrackPointExtension>
            <ns3:atemp>18.0</ns3:atemp>
            <ns3:hr>152</ns3:hr>
          </ns3:TrackPointExtension>
        </extensions>
      </trkpt>
      <trkpt lat="46.63899340666830539703369140625" lon="6.8568083457648754119873046875">
        <ele>747.79998779296875</ele>
        <time>2013-08-15T16:35:51.000Z</time>
        <extensions>
          <ns3:TrackPointExtension>
            <ns3:atemp>18.0</ns3:atemp>
            <ns3:hr>152</ns3:hr>
          </ns3:TrackPointExtension>
        </extensions>
      </trkpt>
      <trkpt lat="46.63897479884326457977294921875" lon="6.85682125389575958251953125">
        <ele>748</ele>
        <time>2013-08-15T16:35:52.000Z</time>
        <extensions>
          <ns3:TrackPointExtension>
            <ns3:atemp>18.0</ns3:atemp>
            <ns3:hr>152</ns3:hr>
          </ns3:TrackPointExtension>
        </extensions>
      </trkpt>
      <trkpt lat="46.63895619101822376251220703125" lon="6.856831647455692291259765625">
        <ele>748.4000244140625</ele>
        <time>2013-08-15T16:35:53.000Z</time>
        <extensions>
          <ns3:TrackPointExtension>
            <ns3:atemp>18.0</ns3:atemp>
            <ns3:hr>151</ns3:hr>
          </ns3:TrackPointExtension>
        </extensions>
      </trkpt>
      <trkpt lat="46.63893959484994411468505859375" lon="6.8568425439298152923583984375">
        <ele>748.5999755859375</ele>
        <time>2013-08-15T16:35:54.000Z</time>
        <extensions>
          <ns3:TrackPointExtension>
            <ns3:atemp>18.0</ns3:atemp>
            <ns3:hr>151</ns3:hr>
          </ns3:TrackPointExtension>
        </extensions>
      </trkpt>
      <trkpt lat="46.63892400451004505157470703125" lon="6.85685352422297000885009765625">
        <ele>748.79998779296875</ele>
        <time>2013-08-15T16:35:55.000Z</time>
        <extensions>
          <ns3:TrackPointExtension>
            <ns3:atemp>18.0</ns3:atemp>
            <ns3:hr>151</ns3:hr>
          </ns3:TrackPointExtension>
        </extensions>
      </trkpt>
      <trkpt lat="46.6389073245227336883544921875" lon="6.85686659999191761016845703125">
        <ele>749</ele>
        <time>2013-08-15T16:35:56.000Z</time>
        <extensions>
          <ns3:TrackPointExtension>
            <ns3:atemp>18.0</ns3:atemp>
            <ns3:hr>151</ns3:hr>
          </ns3:TrackPointExtension>
        </extensions>
      </trkpt>
      <trkpt lat="46.6388892196118831634521484375" lon="6.8568787537515163421630859375">
        <ele>749.20001220703125</ele>
        <time>2013-08-15T16:35:57.000Z</time>
        <extensions>
          <ns3:TrackPointExtension>
            <ns3:atemp>18.0</ns3:atemp>
            <ns3:hr>151</ns3:hr>
          </ns3:TrackPointExtension>
        </extensions>
      </trkpt>
      <trkpt lat="46.638872958719730377197265625" lon="6.8568901531398296356201171875">
        <ele>749.20001220703125</ele>
        <time>2013-08-15T16:35:58.000Z</time>
        <extensions>
          <ns3:TrackPointExtension>
            <ns3:atemp>18.0</ns3:atemp>
            <ns3:hr>151</ns3:hr>
          </ns3:TrackPointExtension>
        </extensions>
      </trkpt>
      <trkpt lat="46.63885661400854587554931640625" lon="6.8568975292146205902099609375">
        <ele>749.4000244140625</ele>
        <time>2013-08-15T16:35:59.000Z</time>
        <extensions>
          <ns3:TrackPointExtension>
            <ns3:atemp>18.0</ns3:atemp>
            <ns3:hr>150</ns3:hr>
          </ns3:TrackPointExtension>
        </extensions>
      </trkpt>
      <trkpt lat="46.63883901201188564300537109375" lon="6.856908090412616729736328125">
        <ele>749.5999755859375</ele>
        <time>2013-08-15T16:36:00.000Z</time>
        <extensions>
          <ns3:TrackPointExtension>
            <ns3:atemp>18.0</ns3:atemp>
            <ns3:hr>150</ns3:hr>
          </ns3:TrackPointExtension>
        </extensions>
      </trkpt>
      <trkpt lat="46.63881964981555938720703125" lon="6.85692125000059604644775390625">
        <ele>750.20001220703125</ele>
        <time>2013-08-15T16:36:01.000Z</time>
        <extensions>
          <ns3:TrackPointExtension>
            <ns3:atemp>18.0</ns3:atemp>
            <ns3:hr>150</ns3:hr>
          </ns3:TrackPointExtension>
        </extensions>
      </trkpt>
      <trkpt lat="46.638799868524074554443359375" lon="6.85692996717989444732666015625">
        <ele>750.4000244140625</ele>
        <time>2013-08-15T16:36:02.000Z</time>
        <extensions>
          <ns3:TrackPointExtension>
            <ns3:atemp>18.0</ns3:atemp>
            <ns3:hr>150</ns3:hr>
          </ns3:TrackPointExtension>
        </extensions>
      </trkpt>
      <trkpt lat="46.63877983577549457550048828125" lon="6.85693684034049510955810546875">
        <ele>750.5999755859375</ele>
        <time>2013-08-15T16:36:03.000Z</time>
        <extensions>
          <ns3:TrackPointExtension>
            <ns3:atemp>18.0</ns3:atemp>
            <ns3:hr>150</ns3:hr>
          </ns3:TrackPointExtension>
        </extensions>
      </trkpt>
      <trkpt lat="46.63876072503626346588134765625" lon="6.85694572515785694122314453125">
        <ele>750.79998779296875</ele>
        <time>2013-08-15T16:36:04.000Z</time>
        <extensions>
          <ns3:TrackPointExtension>
            <ns3:atemp>18.0</ns3:atemp>
            <ns3:hr>150</ns3:hr>
          </ns3:TrackPointExtension>
        </extensions>
      </trkpt>
      <trkpt lat="46.6387423686683177947998046875" lon="6.85695427469909191131591796875">
        <ele>751.20001220703125</ele>
        <time>2013-08-15T16:36:05.000Z</time>
        <extensions>
          <ns3:TrackPointExtension>
            <ns3:atemp>18.0</ns3:atemp>
            <ns3:hr>150</ns3:hr>
          </ns3:TrackPointExtension>
        </extensions>
      </trkpt>
      <trkpt lat="46.63872401230037212371826171875" lon="6.85696567408740520477294921875">
        <ele>751.4000244140625</ele>
        <time>2013-08-15T16:36:06.000Z</time>
        <extensions>
          <ns3:TrackPointExtension>
            <ns3:atemp>18.0</ns3:atemp>
            <ns3:hr>150</ns3:hr>
          </ns3:TrackPointExtension>
        </extensions>
      </trkpt>
      <trkpt lat="46.63870540447533130645751953125" lon="6.8569696135818958282470703125">
        <ele>751.5999755859375</ele>
        <time>2013-08-15T16:36:07.000Z</time>
        <extensions>
          <ns3:TrackPointExtension>
            <ns3:atemp>18.0</ns3:atemp>
            <ns3:hr>150</ns3:hr>
          </ns3:TrackPointExtension>
        </extensions>
      </trkpt>
      <trkpt lat="46.638686545193195343017578125" lon="6.856973469257354736328125">
        <ele>751.79998779296875</ele>
        <time>2013-08-15T16:36:08.000Z</time>
        <extensions>
          <ns3:TrackPointExtension>
            <ns3:atemp>18.0</ns3:atemp>
            <ns3:hr>150</ns3:hr>
          </ns3:TrackPointExtension>
        </extensions>
      </trkpt>
      <trkpt lat="46.63866852410137653350830078125" lon="6.85698076151311397552490234375">
        <ele>752</ele>
        <time>2013-08-15T16:36:09.000Z</time>
        <extensions>
          <ns3:TrackPointExtension>
            <ns3:atemp>18.0</ns3:atemp>
            <ns3:hr>150</ns3:hr>
          </ns3:TrackPointExtension>
        </extensions>
      </trkpt>
      <trkpt lat="46.6386518441140651702880859375" lon="6.8569883890450000762939453125">
        <ele>752.20001220703125</ele>
        <time>2013-08-15T16:36:10.000Z</time>
        <extensions>
          <ns3:TrackPointExtension>
            <ns3:atemp>18.0</ns3:atemp>
            <ns3:hr>151</ns3:hr>
          </ns3:TrackPointExtension>
        </extensions>
      </trkpt>
      <trkpt lat="46.6386334039270877838134765625" lon="6.8569927476346492767333984375">
        <ele>752.4000244140625</ele>
        <time>2013-08-15T16:36:11.000Z</time>
        <extensions>
          <ns3:TrackPointExtension>
            <ns3:atemp>18.0</ns3:atemp>
            <ns3:hr>151</ns3:hr>
          </ns3:TrackPointExtension>
        </extensions>
      </trkpt>
      <trkpt lat="46.63861555047333240509033203125" lon="6.85700054280459880828857421875">
        <ele>752.5999755859375</ele>
        <time>2013-08-15T16:36:12.000Z</time>
        <extensions>
          <ns3:TrackPointExtension>
            <ns3:atemp>18.0</ns3:atemp>
            <ns3:hr>151</ns3:hr>
          </ns3:TrackPointExtension>
        </extensions>
      </trkpt>
      <trkpt lat="46.63859543390572071075439453125" lon="6.8570048175752162933349609375">
        <ele>752.79998779296875</ele>
        <time>2013-08-15T16:36:13.000Z</time>
        <extensions>
          <ns3:TrackPointExtension>
            <ns3:atemp>18.0</ns3:atemp>
            <ns3:hr>151</ns3:hr>
          </ns3:TrackPointExtension>
        </extensions>
      </trkpt>
      <trkpt lat="46.6385764069855213165283203125" lon="6.8570095114409923553466796875">
        <ele>753</ele>
        <time>2013-08-15T16:36:14.000Z</time>
        <extensions>
          <ns3:TrackPointExtension>
            <ns3:atemp>18.0</ns3:atemp>
            <ns3:hr>151</ns3:hr>
          </ns3:TrackPointExtension>
        </extensions>
      </trkpt>
      <trkpt lat="46.6385586373507976531982421875" lon="6.85701680369675159454345703125">
        <ele>753.20001220703125</ele>
        <time>2013-08-15T16:36:15.000Z</time>
        <extensions>
          <ns3:TrackPointExtension>
            <ns3:atemp>18.0</ns3:atemp>
            <ns3:hr>151</ns3:hr>
          </ns3:TrackPointExtension>
        </extensions>
      </trkpt>
      <trkpt lat="46.63854070007801055908203125" lon="6.85702451504766941070556640625">
        <ele>753.4000244140625</ele>
        <time>2013-08-15T16:36:16.000Z</time>
        <extensions>
          <ns3:TrackPointExtension>
            <ns3:atemp>18.0</ns3:atemp>
            <ns3:hr>151</ns3:hr>
          </ns3:TrackPointExtension>
        </extensions>
      </trkpt>
      <trkpt lat="46.6385220922529697418212890625" lon="6.85703038237988948822021484375">
        <ele>753.5999755859375</ele>
        <time>2013-08-15T16:36:17.000Z</time>
        <extensions>
          <ns3:TrackPointExtension>
            <ns3:atemp>18.0</ns3:atemp>
            <ns3:hr>151</ns3:hr>
          </ns3:TrackPointExtension>
        </extensions>
      </trkpt>
      <trkpt lat="46.63850449025630950927734375" lon="6.85703658498823642730712890625">
        <ele>754</ele>
        <time>2013-08-15T16:36:18.000Z</time>
        <extensions>
          <ns3:TrackPointExtension>
            <ns3:atemp>18.0</ns3:atemp>
            <ns3:hr>151</ns3:hr>
          </ns3:TrackPointExtension>
        </extensions>
      </trkpt>
      <trkpt lat="46.63848563097417354583740234375" lon="6.85704111121594905853271484375">
        <ele>754</ele>
        <time>2013-08-15T16:36:19.000Z</time>
        <extensions>
          <ns3:TrackPointExtension>
            <ns3:atemp>18.0</ns3:atemp>
            <ns3:hr>151</ns3:hr>
          </ns3:TrackPointExtension>
        </extensions>
      </trkpt>
      <trkpt lat="46.6384664364159107208251953125" lon="6.857050247490406036376953125">
        <ele>754.4000244140625</ele>
        <time>2013-08-15T16:36:20.000Z</time>
        <extensions>
          <ns3:TrackPointExtension>
            <ns3:atemp>18.0</ns3:atemp>
            <ns3:hr>151</ns3:hr>
          </ns3:TrackPointExtension>
        </extensions>
      </trkpt>
      <trkpt lat="46.63844539783895015716552734375" lon="6.857058294117450714111328125">
        <ele>754.5999755859375</ele>
        <time>2013-08-15T16:36:21.000Z</time>
        <extensions>
          <ns3:TrackPointExtension>
            <ns3:atemp>18.0</ns3:atemp>
            <ns3:hr>151</ns3:hr>
          </ns3:TrackPointExtension>
        </extensions>
      </trkpt>
      <trkpt lat="46.638424359261989593505859375" lon="6.85706474818289279937744140625">
        <ele>755</ele>
        <time>2013-08-15T16:36:22.000Z</time>
        <extensions>
          <ns3:TrackPointExtension>
            <ns3:atemp>18.0</ns3:atemp>
            <ns3:hr>151</ns3:hr>
          </ns3:TrackPointExtension>
        </extensions>
      </trkpt>
      <trkpt lat="46.6384020633995532989501953125" lon="6.85707229189574718475341796875">
        <ele>755.20001220703125</ele>
        <time>2013-08-15T16:36:23.000Z</time>
        <extensions>
          <ns3:TrackPointExtension>
            <ns3:atemp>18.0</ns3:atemp>
            <ns3:hr>150</ns3:hr>
          </ns3:TrackPointExtension>
        </extensions>
      </trkpt>
      <trkpt lat="46.63837909698486328125" lon="6.8570792488753795623779296875">
        <ele>755.4000244140625</ele>
        <time>2013-08-15T16:36:24.000Z</time>
        <extensions>
          <ns3:TrackPointExtension>
            <ns3:atemp>18.0</ns3:atemp>
            <ns3:hr>151</ns3:hr>
          </ns3:TrackPointExtension>
        </extensions>
      </trkpt>
      <trkpt lat="46.63835872896015644073486328125" lon="6.85708486475050449371337890625">
        <ele>755.79998779296875</ele>
        <time>2013-08-15T16:36:25.000Z</time>
        <extensions>
          <ns3:TrackPointExtension>
            <ns3:atemp>18.0</ns3:atemp>
            <ns3:hr>150</ns3:hr>
          </ns3:TrackPointExtension>
        </extensions>
      </trkpt>
      <trkpt lat="46.63833676837384700775146484375" lon="6.8570903129875659942626953125">
        <ele>755.79998779296875</ele>
        <time>2013-08-15T16:36:26.000Z</time>
        <extensions>
          <ns3:TrackPointExtension>
            <ns3:atemp>18.0</ns3:atemp>
            <ns3:hr>150</ns3:hr>
          </ns3:TrackPointExtension>
        </extensions>
      </trkpt>
      <trkpt lat="46.638314388692378997802734375" lon="6.85709374956786632537841796875">
        <ele>756</ele>
        <time>2013-08-15T16:36:27.000Z</time>
        <extensions>
          <ns3:TrackPointExtension>
            <ns3:atemp>18.0</ns3:atemp>
            <ns3:hr>150</ns3:hr>
          </ns3:TrackPointExtension>
        </extensions>
      </trkpt>
      <trkpt lat="46.63829326629638671875" lon="6.85710129328072071075439453125">
        <ele>756</ele>
        <time>2013-08-15T16:36:28.000Z</time>
        <extensions>
          <ns3:TrackPointExtension>
            <ns3:atemp>18.0</ns3:atemp>
            <ns3:hr>150</ns3:hr>
          </ns3:TrackPointExtension>
        </extensions>
      </trkpt>
      <trkpt lat="46.63827038370072841644287109375" lon="6.8571121059358119964599609375">
        <ele>756.20001220703125</ele>
        <time>2013-08-15T16:36:29.000Z</time>
        <extensions>
          <ns3:TrackPointExtension>
            <ns3:atemp>18.0</ns3:atemp>
            <ns3:hr>149</ns3:hr>
          </ns3:TrackPointExtension>
        </extensions>
      </trkpt>
      <trkpt lat="46.6382488422095775604248046875" lon="6.85712442733347415924072265625">
        <ele>756.4000244140625</ele>
        <time>2013-08-15T16:36:30.000Z</time>
        <extensions>
          <ns3:TrackPointExtension>
            <ns3:atemp>18.0</ns3:atemp>
            <ns3:hr>149</ns3:hr>
          </ns3:TrackPointExtension>
        </extensions>
      </trkpt>
      <trkpt lat="46.6382243670523166656494140625" lon="6.85713532380759716033935546875">
        <ele>756.5999755859375</ele>
        <time>2013-08-15T16:36:31.000Z</time>
        <extensions>
          <ns3:TrackPointExtension>
            <ns3:atemp>18.0</ns3:atemp>
            <ns3:hr>149</ns3:hr>
          </ns3:TrackPointExtension>
        </extensions>
      </trkpt>
      <trkpt lat="46.638199388980865478515625" lon="6.85714705847203731536865234375">
        <ele>756.5999755859375</ele>
        <time>2013-08-15T16:36:32.000Z</time>
        <extensions>
          <ns3:TrackPointExtension>
            <ns3:atemp>18.0</ns3:atemp>
            <ns3:hr>149</ns3:hr>
          </ns3:TrackPointExtension>
        </extensions>
      </trkpt>
      <trkpt lat="46.63817130960524082183837890625" lon="6.85715921223163604736328125">
        <ele>756.5999755859375</ele>
        <time>2013-08-15T16:36:33.000Z</time>
        <extensions>
          <ns3:TrackPointExtension>
            <ns3:atemp>18.0</ns3:atemp>
            <ns3:hr>148</ns3:hr>
          </ns3:TrackPointExtension>
        </extensions>
      </trkpt>
      <trkpt lat="46.63814163766801357269287109375" lon="6.8571737967431545257568359375">
        <ele>756.79998779296875</ele>
        <time>2013-08-15T16:36:34.000Z</time>
        <extensions>
          <ns3:TrackPointExtension>
            <ns3:atemp>18.0</ns3:atemp>
            <ns3:hr>148</ns3:hr>
          </ns3:TrackPointExtension>
        </extensions>
      </trkpt>
      <trkpt lat="46.63811414502561092376708984375" lon="6.857188045978546142578125">
        <ele>756.79998779296875</ele>
        <time>2013-08-15T16:36:35.000Z</time>
        <extensions>
          <ns3:TrackPointExtension>
            <ns3:atemp>18.0</ns3:atemp>
            <ns3:hr>147</ns3:hr>
          </ns3:TrackPointExtension>
        </extensions>
      </trkpt>
      <trkpt lat="46.63808665238320827484130859375" lon="6.85720539651811122894287109375">
        <ele>756.79998779296875</ele>
        <time>2013-08-15T16:36:36.000Z</time>
        <extensions>
          <ns3:TrackPointExtension>
            <ns3:atemp>18.0</ns3:atemp>
            <ns3:hr>147</ns3:hr>
          </ns3:TrackPointExtension>
        </extensions>
      </trkpt>
      <trkpt lat="46.63805949501693248748779296875" lon="6.85722148977220058441162109375">
        <ele>757</ele>
        <time>2013-08-15T16:36:37.000Z</time>
        <extensions>
          <ns3:TrackPointExtension>
            <ns3:atemp>18.0</ns3:atemp>
            <ns3:hr>146</ns3:hr>
          </ns3:TrackPointExtension>
        </extensions>
      </trkpt>
      <trkpt lat="46.63802864961326122283935546875" lon="6.85723037458956241607666015625">
        <ele>757</ele>
        <time>2013-08-15T16:36:38.000Z</time>
        <extensions>
          <ns3:TrackPointExtension>
            <ns3:atemp>18.0</ns3:atemp>
            <ns3:hr>145</ns3:hr>
          </ns3:TrackPointExtension>
        </extensions>
      </trkpt>
      <trkpt lat="46.6379968822002410888671875" lon="6.857227943837642669677734375">
        <ele>757</ele>
        <time>2013-08-15T16:36:39.000Z</time>
        <extensions>
          <ns3:TrackPointExtension>
            <ns3:atemp>19.0</ns3:atemp>
            <ns3:hr>145</ns3:hr>
          </ns3:TrackPointExtension>
        </extensions>
      </trkpt>
      <trkpt lat="46.63796670734882354736328125" lon="6.8572106771171092987060546875">
        <ele>757</ele>
        <time>2013-08-15T16:36:40.000Z</time>
        <extensions>
          <ns3:TrackPointExtension>
            <ns3:atemp>19.0</ns3:atemp>
            <ns3:hr>145</ns3:hr>
          </ns3:TrackPointExtension>
        </extensions>
      </trkpt>
      <trkpt lat="46.6379417292773723602294921875" lon="6.8571835197508335113525390625">
        <ele>757.20001220703125</ele>
        <time>2013-08-15T16:36:41.000Z</time>
        <extensions>
          <ns3:TrackPointExtension>
            <ns3:atemp>19.0</ns3:atemp>
            <ns3:hr>145</ns3:hr>
          </ns3:TrackPointExtension>
        </extensions>
      </trkpt>
      <trkpt lat="46.637918762862682342529296875" lon="6.8571530096232891082763671875">
        <ele>757.4000244140625</ele>
        <time>2013-08-15T16:36:42.000Z</time>
        <extensions>
          <ns3:TrackPointExtension>
            <ns3:atemp>19.0</ns3:atemp>
            <ns3:hr>145</ns3:hr>
          </ns3:TrackPointExtension>
        </extensions>
      </trkpt>
      <trkpt lat="46.6378971375524997711181640625" lon="6.85712291859090328216552734375">
        <ele>757.5999755859375</ele>
        <time>2013-08-15T16:36:43.000Z</time>
        <extensions>
          <ns3:TrackPointExtension>
            <ns3:atemp>19.0</ns3:atemp>
            <ns3:hr>145</ns3:hr>
          </ns3:TrackPointExtension>
        </extensions>
      </trkpt>
      <trkpt lat="46.63787157274782657623291015625" lon="6.85709349811077117919921875">
        <ele>757.79998779296875</ele>
        <time>2013-08-15T16:36:44.000Z</time>
        <extensions>
          <ns3:TrackPointExtension>
            <ns3:atemp>19.0</ns3:atemp>
            <ns3:hr>144</ns3:hr>
          </ns3:TrackPointExtension>
        </extensions>
      </trkpt>
      <trkpt lat="46.6378439962863922119140625" lon="6.85706743039190769195556640625">
        <ele>758</ele>
        <time>2013-08-15T16:36:45.000Z</time>
        <extensions>
          <ns3:TrackPointExtension>
            <ns3:atemp>19.0</ns3:atemp>
            <ns3:hr>144</ns3:hr>
          </ns3:TrackPointExtension>
        </extensions>
      </trkpt>
      <trkpt lat="46.6378153301775455474853515625" lon="6.85704253613948822021484375">
        <ele>758.20001220703125</ele>
        <time>2013-08-15T16:36:46.000Z</time>
        <extensions>
          <ns3:TrackPointExtension>
            <ns3:atemp>19.0</ns3:atemp>
            <ns3:hr>144</ns3:hr>
          </ns3:TrackPointExtension>
        </extensions>
      </trkpt>
      <trkpt lat="46.6377854906022548675537109375" lon="6.85701428912580013275146484375">
        <ele>758.20001220703125</ele>
        <time>2013-08-15T16:36:47.000Z</time>
        <extensions>
          <ns3:TrackPointExtension>
            <ns3:atemp>19.0</ns3:atemp>
            <ns3:hr>144</ns3:hr>
          </ns3:TrackPointExtension>
        </extensions>
      </trkpt>
      <trkpt lat="46.6377539746463298797607421875" lon="6.8569843657314777374267578125">
        <ele>758.5999755859375</ele>
        <time>2013-08-15T16:36:48.000Z</time>
        <extensions>
          <ns3:TrackPointExtension>
            <ns3:atemp>19.0</ns3:atemp>
            <ns3:hr>143</ns3:hr>
          </ns3:TrackPointExtension>
        </extensions>
      </trkpt>
      <trkpt lat="46.6377227939665317535400390625" lon="6.856954358518123626708984375">
        <ele>758.79998779296875</ele>
        <time>2013-08-15T16:36:49.000Z</time>
        <extensions>
          <ns3:TrackPointExtension>
            <ns3:atemp>19.0</ns3:atemp>
            <ns3:hr>143</ns3:hr>
          </ns3:TrackPointExtension>
        </extensions>
      </trkpt>
      <trkpt lat="46.63769270293414592742919921875" lon="6.856921501457691192626953125">
        <ele>758.79998779296875</ele>
        <time>2013-08-15T16:36:50.000Z</time>
        <extensions>
          <ns3:TrackPointExtension>
            <ns3:atemp>19.0</ns3:atemp>
            <ns3:hr>143</ns3:hr>
          </ns3:TrackPointExtension>
        </extensions>
      </trkpt>
      <trkpt lat="46.63766093552112579345703125" lon="6.85688520781695842742919921875">
        <ele>759</ele>
        <time>2013-08-15T16:36:51.000Z</time>
        <extensions>
          <ns3:TrackPointExtension>
            <ns3:atemp>19.0</ns3:atemp>
            <ns3:hr>142</ns3:hr>
          </ns3:TrackPointExtension>
        </extensions>
      </trkpt>
      <trkpt lat="46.6376275755465030670166015625" lon="6.85685084201395511627197265625">
        <ele>759</ele>
        <time>2013-08-15T16:36:52.000Z</time>
        <extensions>
          <ns3:TrackPointExtension>
            <ns3:atemp>19.0</ns3:atemp>
            <ns3:hr>142</ns3:hr>
          </ns3:TrackPointExtension>
        </extensions>
      </trkpt>
      <trkpt lat="46.6375923715531826019287109375" lon="6.85682016424834728240966796875">
        <ele>759</ele>
        <time>2013-08-15T16:36:53.000Z</time>
        <extensions>
          <ns3:TrackPointExtension>
            <ns3:atemp>19.0</ns3:atemp>
            <ns3:hr>141</ns3:hr>
          </ns3:TrackPointExtension>
        </extensions>
      </trkpt>
      <trkpt lat="46.63755423389375209808349609375" lon="6.85679032467305660247802734375">
        <ele>759</ele>
        <time>2013-08-15T16:36:54.000Z</time>
        <extensions>
          <ns3:TrackPointExtension>
            <ns3:atemp>19.0</ns3:atemp>
            <ns3:hr>140</ns3:hr>
          </ns3:TrackPointExtension>
        </extensions>
      </trkpt>
      <trkpt lat="46.63751483894884586334228515625" lon="6.856756545603275299072265625">
        <ele>759</ele>
        <time>2013-08-15T16:36:55.000Z</time>
        <extensions>
          <ns3:TrackPointExtension>
            <ns3:atemp>19.0</ns3:atemp>
            <ns3:hr>140</ns3:hr>
          </ns3:TrackPointExtension>
        </extensions>
      </trkpt>
      <trkpt lat="46.63747611455619335174560546875" lon="6.856716983020305633544921875">
        <ele>759</ele>
        <time>2013-08-15T16:36:56.000Z</time>
        <extensions>
          <ns3:TrackPointExtension>
            <ns3:atemp>19.0</ns3:atemp>
            <ns3:hr>140</ns3:hr>
          </ns3:TrackPointExtension>
        </extensions>
      </trkpt>
      <trkpt lat="46.63743470795452594757080078125" lon="6.85667633078992366790771484375">
        <ele>759</ele>
        <time>2013-08-15T16:36:57.000Z</time>
        <extensions>
          <ns3:TrackPointExtension>
            <ns3:atemp>19.0</ns3:atemp>
            <ns3:hr>140</ns3:hr>
          </ns3:TrackPointExtension>
        </extensions>
      </trkpt>
      <trkpt lat="46.6373907029628753662109375" lon="6.856635510921478271484375">
        <ele>759</ele>
        <time>2013-08-15T16:36:58.000Z</time>
        <extensions>
          <ns3:TrackPointExtension>
            <ns3:atemp>19.0</ns3:atemp>
            <ns3:hr>139</ns3:hr>
          </ns3:TrackPointExtension>
        </extensions>
      </trkpt>
      <trkpt lat="46.63734485395252704620361328125" lon="6.85659536160528659820556640625">
        <ele>759.20001220703125</ele>
        <time>2013-08-15T16:36:59.000Z</time>
        <extensions>
          <ns3:TrackPointExtension>
            <ns3:atemp>19.0</ns3:atemp>
            <ns3:hr>139</ns3:hr>
          </ns3:TrackPointExtension>
        </extensions>
      </trkpt>
      <trkpt lat="46.6372966580092906951904296875" lon="6.8565552122890949249267578125">
        <ele>759.20001220703125</ele>
        <time>2013-08-15T16:37:00.000Z</time>
        <extensions>
          <ns3:TrackPointExtension>
            <ns3:atemp>19.0</ns3:atemp>
            <ns3:hr>139</ns3:hr>
          </ns3:TrackPointExtension>
        </extensions>
      </trkpt>
      <trkpt lat="46.637248210608959197998046875" lon="6.8565139733254909515380859375">
        <ele>759.4000244140625</ele>
        <time>2013-08-15T16:37:01.000Z</time>
        <extensions>
          <ns3:TrackPointExtension>
            <ns3:atemp>19.0</ns3:atemp>
            <ns3:hr>138</ns3:hr>
          </ns3:TrackPointExtension>
        </extensions>
      </trkpt>
      <trkpt lat="46.63720034994184970855712890625" lon="6.85647114180028438568115234375">
        <ele>759.5999755859375</ele>
        <time>2013-08-15T16:37:02.000Z</time>
        <extensions>
          <ns3:TrackPointExtension>
            <ns3:atemp>19.0</ns3:atemp>
            <ns3:hr>138</ns3:hr>
          </ns3:TrackPointExtension>
        </extensions>
      </trkpt>
      <trkpt lat="46.63715156726539134979248046875" lon="6.8564261309802532196044921875">
        <ele>759.4000244140625</ele>
        <time>2013-08-15T16:37:03.000Z</time>
        <extensions>
          <ns3:TrackPointExtension>
            <ns3:atemp>19.0</ns3:atemp>
            <ns3:hr>137</ns3:hr>
          </ns3:TrackPointExtension>
        </extensions>
      </trkpt>
      <trkpt lat="46.63710211403667926788330078125" lon="6.856380365788936614990234375">
        <ele>759.4000244140625</ele>
        <time>2013-08-15T16:37:04.000Z</time>
        <extensions>
          <ns3:TrackPointExtension>
            <ns3:atemp>19.0</ns3:atemp>
            <ns3:hr>137</ns3:hr>
          </ns3:TrackPointExtension>
        </extensions>
      </trkpt>
      <trkpt lat="46.637051403522491455078125" lon="6.85633418150246143341064453125">
        <ele>759.4000244140625</ele>
        <time>2013-08-15T16:37:05.000Z</time>
        <extensions>
          <ns3:TrackPointExtension>
            <ns3:atemp>19.0</ns3:atemp>
            <ns3:hr>136</ns3:hr>
          </ns3:TrackPointExtension>
        </extensions>
      </trkpt>
      <trkpt lat="46.63700035773217678070068359375" lon="6.85628950595855712890625">
        <ele>759.4000244140625</ele>
        <time>2013-08-15T16:37:06.000Z</time>
        <extensions>
          <ns3:TrackPointExtension>
            <ns3:atemp>19.0</ns3:atemp>
            <ns3:hr>135</ns3:hr>
          </ns3:TrackPointExtension>
        </extensions>
      </trkpt>
      <trkpt lat="46.63694771938025951385498046875" lon="6.85624592006206512451171875">
        <ele>759.20001220703125</ele>
        <time>2013-08-15T16:37:07.000Z</time>
        <extensions>
          <ns3:TrackPointExtension>
            <ns3:atemp>19.0</ns3:atemp>
            <ns3:hr>135</ns3:hr>
          </ns3:TrackPointExtension>
        </extensions>
      </trkpt>
      <trkpt lat="46.63689575158059597015380859375" lon="6.85619889758527278900146484375">
        <ele>759.20001220703125</ele>
        <time>2013-08-15T16:37:08.000Z</time>
        <extensions>
          <ns3:TrackPointExtension>
            <ns3:atemp>19.0</ns3:atemp>
            <ns3:hr>134</ns3:hr>
          </ns3:TrackPointExtension>
        </extensions>
      </trkpt>
      <trkpt lat="46.63684328086674213409423828125" lon="6.8561528809368610382080078125">
        <ele>758.79998779296875</ele>
        <time>2013-08-15T16:37:09.000Z</time>
        <extensions>
          <ns3:TrackPointExtension>
            <ns3:atemp>19.0</ns3:atemp>
            <ns3:hr>133</ns3:hr>
          </ns3:TrackPointExtension>
        </extensions>
      </trkpt>
      <trkpt lat="46.636790893971920013427734375" lon="6.85610418207943439483642578125">
        <ele>758.79998779296875</ele>
        <time>2013-08-15T16:37:10.000Z</time>
        <extensions>
          <ns3:TrackPointExtension>
            <ns3:atemp>19.0</ns3:atemp>
            <ns3:hr>132</ns3:hr>
          </ns3:TrackPointExtension>
        </extensions>
      </trkpt>
      <trkpt lat="46.63673800416290760040283203125" lon="6.8560556508600711822509765625">
        <ele>758.5999755859375</ele>
        <time>2013-08-15T16:37:11.000Z</time>
        <extensions>
          <ns3:TrackPointExtension>
            <ns3:atemp>19.0</ns3:atemp>
            <ns3:hr>132</ns3:hr>
          </ns3:TrackPointExtension>
        </extensions>
      </trkpt>
      <trkpt lat="46.63668435998260974884033203125" lon="6.85600426979362964630126953125">
        <ele>758.4000244140625</ele>
        <time>2013-08-15T16:37:12.000Z</time>
        <extensions>
          <ns3:TrackPointExtension>
            <ns3:atemp>19.0</ns3:atemp>
            <ns3:hr>131</ns3:hr>
          </ns3:TrackPointExtension>
        </extensions>
      </trkpt>
      <trkpt lat="46.6366291232407093048095703125" lon="6.85595464892685413360595703125">
        <ele>758.20001220703125</ele>
        <time>2013-08-15T16:37:13.000Z</time>
        <extensions>
          <ns3:TrackPointExtension>
            <ns3:atemp>19.0</ns3:atemp>
            <ns3:hr>130</ns3:hr>
          </ns3:TrackPointExtension>
        </extensions>
      </trkpt>
      <trkpt lat="46.63657153956592082977294921875" lon="6.8559086322784423828125">
        <ele>758</ele>
        <time>2013-08-15T16:37:14.000Z</time>
        <extensions>
          <ns3:TrackPointExtension>
            <ns3:atemp>19.0</ns3:atemp>
            <ns3:hr>129</ns3:hr>
          </ns3:TrackPointExtension>
        </extensions>
      </trkpt>
      <trkpt lat="46.6365124471485614776611328125" lon="6.85585808940231800079345703125">
        <ele>757.79998779296875</ele>
        <time>2013-08-15T16:37:15.000Z</time>
        <extensions>
          <ns3:TrackPointExtension>
            <ns3:atemp>19.0</ns3:atemp>
            <ns3:hr>129</ns3:hr>
          </ns3:TrackPointExtension>
        </extensions>
      </trkpt>
      <trkpt lat="46.63645285181701183319091796875" lon="6.855803690850734710693359375">
        <ele>757.79998779296875</ele>
        <time>2013-08-15T16:37:16.000Z</time>
        <extensions>
          <ns3:TrackPointExtension>
            <ns3:atemp>19.0</ns3:atemp>
            <ns3:hr>129</ns3:hr>
          </ns3:TrackPointExtension>
        </extensions>
      </trkpt>
      <trkpt lat="46.63639283739030361175537109375" lon="6.85575180687010288238525390625">
        <ele>757.79998779296875</ele>
        <time>2013-08-15T16:37:17.000Z</time>
        <extensions>
          <ns3:TrackPointExtension>
            <ns3:atemp>19.0</ns3:atemp>
            <ns3:hr>129</ns3:hr>
          </ns3:TrackPointExtension>
        </extensions>
      </trkpt>
      <trkpt lat="46.63633097894489765167236328125" lon="6.85570201836526393890380859375">
        <ele>757.79998779296875</ele>
        <time>2013-08-15T16:37:18.000Z</time>
        <extensions>
          <ns3:TrackPointExtension>
            <ns3:atemp>19.0</ns3:atemp>
            <ns3:hr>129</ns3:hr>
          </ns3:TrackPointExtension>
        </extensions>
      </trkpt>
      <trkpt lat="46.636265851557254791259765625" lon="6.85565424151718616485595703125">
        <ele>757.5999755859375</ele>
        <time>2013-08-15T16:37:19.000Z</time>
        <extensions>
          <ns3:TrackPointExtension>
            <ns3:atemp>19.0</ns3:atemp>
            <ns3:hr>129</ns3:hr>
          </ns3:TrackPointExtension>
        </extensions>
      </trkpt>
      <trkpt lat="46.63619837723672389984130859375" lon="6.85560830868780612945556640625">
        <ele>757.4000244140625</ele>
        <time>2013-08-15T16:37:20.000Z</time>
        <extensions>
          <ns3:TrackPointExtension>
            <ns3:atemp>19.0</ns3:atemp>
            <ns3:hr>129</ns3:hr>
          </ns3:TrackPointExtension>
        </extensions>
      </trkpt>
      <trkpt lat="46.63612847216427326202392578125" lon="6.8555627949535846710205078125">
        <ele>757.5999755859375</ele>
        <time>2013-08-15T16:37:21.000Z</time>
        <extensions>
          <ns3:TrackPointExtension>
            <ns3:atemp>19.0</ns3:atemp>
            <ns3:hr>128</ns3:hr>
          </ns3:TrackPointExtension>
        </extensions>
      </trkpt>
      <trkpt lat="46.63605672307312488555908203125" lon="6.855521388351917266845703125">
        <ele>757.4000244140625</ele>
        <time>2013-08-15T16:37:22.000Z</time>
        <extensions>
          <ns3:TrackPointExtension>
            <ns3:atemp>19.0</ns3:atemp>
            <ns3:hr>128</ns3:hr>
          </ns3:TrackPointExtension>
        </extensions>
      </trkpt>
      <trkpt lat="46.635984219610691070556640625" lon="6.85548442415893077850341796875">
        <ele>757.20001220703125</ele>
        <time>2013-08-15T16:37:23.000Z</time>
        <extensions>
          <ns3:TrackPointExtension>
            <ns3:atemp>19.0</ns3:atemp>
            <ns3:hr>127</ns3:hr>
          </ns3:TrackPointExtension>
        </extensions>
      </trkpt>
      <trkpt lat="46.635911464691162109375" lon="6.85544922016561031341552734375">
        <ele>757.20001220703125</ele>
        <time>2013-08-15T16:37:24.000Z</time>
        <extensions>
          <ns3:TrackPointExtension>
            <ns3:atemp>19.0</ns3:atemp>
            <ns3:hr>126</ns3:hr>
          </ns3:TrackPointExtension>
        </extensions>
      </trkpt>
      <trkpt lat="46.63583963178098201751708984375" lon="6.85541301034390926361083984375">
        <ele>757.20001220703125</ele>
        <time>2013-08-15T16:37:25.000Z</time>
        <extensions>
          <ns3:TrackPointExtension>
            <ns3:atemp>19.0</ns3:atemp>
            <ns3:hr>124</ns3:hr>
          </ns3:TrackPointExtension>
        </extensions>
      </trkpt>
      <trkpt lat="46.63577006198465824127197265625" lon="6.855371855199337005615234375">
        <ele>757.20001220703125</ele>
        <time>2013-08-15T16:37:26.000Z</time>
        <extensions>
          <ns3:TrackPointExtension>
            <ns3:atemp>19.0</ns3:atemp>
            <ns3:hr>124</ns3:hr>
          </ns3:TrackPointExtension>
        </extensions>
      </trkpt>
      <trkpt lat="46.635700576007366180419921875" lon="6.8553338013589382171630859375">
        <ele>757.20001220703125</ele>
        <time>2013-08-15T16:37:27.000Z</time>
        <extensions>
          <ns3:TrackPointExtension>
            <ns3:atemp>19.0</ns3:atemp>
            <ns3:hr>123</ns3:hr>
          </ns3:TrackPointExtension>
        </extensions>
      </trkpt>
      <trkpt lat="46.63563109003007411956787109375" lon="6.85529817827045917510986328125">
        <ele>757.20001220703125</ele>
        <time>2013-08-15T16:37:28.000Z</time>
        <extensions>
          <ns3:TrackPointExtension>
            <ns3:atemp>19.0</ns3:atemp>
            <ns3:hr>123</ns3:hr>
          </ns3:TrackPointExtension>
        </extensions>
      </trkpt>
      <trkpt lat="46.63556277751922607421875" lon="6.8552590347826480865478515625">
        <ele>757.20001220703125</ele>
        <time>2013-08-15T16:37:29.000Z</time>
        <extensions>
          <ns3:TrackPointExtension>
            <ns3:atemp>19.0</ns3:atemp>
            <ns3:hr>123</ns3:hr>
          </ns3:TrackPointExtension>
        </extensions>
      </trkpt>
      <trkpt lat="46.635495722293853759765625" lon="6.85521955601871013641357421875">
        <ele>757.20001220703125</ele>
        <time>2013-08-15T16:37:30.000Z</time>
        <extensions>
          <ns3:TrackPointExtension>
            <ns3:atemp>19.0</ns3:atemp>
            <ns3:hr>123</ns3:hr>
          </ns3:TrackPointExtension>
        </extensions>
      </trkpt>
      <trkpt lat="46.63542992435395717620849609375" lon="6.85517865233123302459716796875">
        <ele>757.20001220703125</ele>
        <time>2013-08-15T16:37:31.000Z</time>
        <extensions>
          <ns3:TrackPointExtension>
            <ns3:atemp>19.0</ns3:atemp>
            <ns3:hr>123</ns3:hr>
          </ns3:TrackPointExtension>
        </extensions>
      </trkpt>
      <trkpt lat="46.6353651322424411773681640625" lon="6.85513774864375591278076171875">
        <ele>757.20001220703125</ele>
        <time>2013-08-15T16:37:32.000Z</time>
        <extensions>
          <ns3:TrackPointExtension>
            <ns3:atemp>19.0</ns3:atemp>
            <ns3:hr>123</ns3:hr>
          </ns3:TrackPointExtension>
        </extensions>
      </trkpt>
      <trkpt lat="46.6352997533977031707763671875" lon="6.85510304756462574005126953125">
        <ele>757.4000244140625</ele>
        <time>2013-08-15T16:37:33.000Z</time>
        <extensions>
          <ns3:TrackPointExtension>
            <ns3:atemp>19.0</ns3:atemp>
            <ns3:hr>123</ns3:hr>
          </ns3:TrackPointExtension>
        </extensions>
      </trkpt>
      <trkpt lat="46.63523487746715545654296875" lon="6.85507019050419330596923828125">
        <ele>757.4000244140625</ele>
        <time>2013-08-15T16:37:34.000Z</time>
        <extensions>
          <ns3:TrackPointExtension>
            <ns3:atemp>19.0</ns3:atemp>
            <ns3:hr>123</ns3:hr>
          </ns3:TrackPointExtension>
        </extensions>
      </trkpt>
      <trkpt lat="46.63517058826982975006103515625" lon="6.85503984801471233367919921875">
        <ele>757.4000244140625</ele>
        <time>2013-08-15T16:37:35.000Z</time>
        <extensions>
          <ns3:TrackPointExtension>
            <ns3:atemp>19.0</ns3:atemp>
            <ns3:hr>123</ns3:hr>
          </ns3:TrackPointExtension>
        </extensions>
      </trkpt>
      <trkpt lat="46.63510856218636035919189453125" lon="6.85500833205878734588623046875">
        <ele>757.4000244140625</ele>
        <time>2013-08-15T16:37:36.000Z</time>
        <extensions>
          <ns3:TrackPointExtension>
            <ns3:atemp>19.0</ns3:atemp>
            <ns3:hr>123</ns3:hr>
          </ns3:TrackPointExtension>
        </extensions>
      </trkpt>
      <trkpt lat="46.63504871539771556854248046875" lon="6.85497312806546688079833984375">
        <ele>757.5999755859375</ele>
        <time>2013-08-15T16:37:37.000Z</time>
        <extensions>
          <ns3:TrackPointExtension>
            <ns3:atemp>19.0</ns3:atemp>
            <ns3:hr>123</ns3:hr>
          </ns3:TrackPointExtension>
        </extensions>
      </trkpt>
      <trkpt lat="46.63498970679938793182373046875" lon="6.85493767261505126953125">
        <ele>757.5999755859375</ele>
        <time>2013-08-15T16:37:38.000Z</time>
        <extensions>
          <ns3:TrackPointExtension>
            <ns3:atemp>19.0</ns3:atemp>
            <ns3:hr>123</ns3:hr>
          </ns3:TrackPointExtension>
        </extensions>
      </trkpt>
      <trkpt lat="46.63493036292493343353271484375" lon="6.85490121133625507354736328125">
        <ele>757.79998779296875</ele>
        <time>2013-08-15T16:37:39.000Z</time>
        <extensions>
          <ns3:TrackPointExtension>
            <ns3:atemp>19.0</ns3:atemp>
            <ns3:hr>124</ns3:hr>
          </ns3:TrackPointExtension>
        </extensions>
      </trkpt>
      <trkpt lat="46.6348712705075740814208984375" lon="6.8548665940761566162109375">
        <ele>758</ele>
        <time>2013-08-15T16:37:40.000Z</time>
        <extensions>
          <ns3:TrackPointExtension>
            <ns3:atemp>19.0</ns3:atemp>
            <ns3:hr>124</ns3:hr>
          </ns3:TrackPointExtension>
        </extensions>
      </trkpt>
      <trkpt lat="46.63481108844280242919921875" lon="6.85483868233859539031982421875">
        <ele>758.20001220703125</ele>
        <time>2013-08-15T16:37:41.000Z</time>
        <extensions>
          <ns3:TrackPointExtension>
            <ns3:atemp>19.0</ns3:atemp>
            <ns3:hr>124</ns3:hr>
          </ns3:TrackPointExtension>
        </extensions>
      </trkpt>
      <trkpt lat="46.63475166074931621551513671875" lon="6.854811273515224456787109375">
        <ele>758.4000244140625</ele>
        <time>2013-08-15T16:37:42.000Z</time>
        <extensions>
          <ns3:TrackPointExtension>
            <ns3:atemp>19.0</ns3:atemp>
            <ns3:hr>125</ns3:hr>
          </ns3:TrackPointExtension>
        </extensions>
      </trkpt>
      <trkpt lat="46.634692735970020294189453125" lon="6.85477732680737972259521484375">
        <ele>758.4000244140625</ele>
        <time>2013-08-15T16:37:43.000Z</time>
        <extensions>
          <ns3:TrackPointExtension>
            <ns3:atemp>19.0</ns3:atemp>
            <ns3:hr>125</ns3:hr>
          </ns3:TrackPointExtension>
        </extensions>
      </trkpt>
      <trkpt lat="46.63463406264781951904296875" lon="6.8547366745769977569580078125">
        <ele>758.5999755859375</ele>
        <time>2013-08-15T16:37:44.000Z</time>
        <extensions>
          <ns3:TrackPointExtension>
            <ns3:atemp>19.0</ns3:atemp>
            <ns3:hr>125</ns3:hr>
          </ns3:TrackPointExtension>
        </extensions>
      </trkpt>
      <trkpt lat="46.6345758922398090362548828125" lon="6.854693591594696044921875">
        <ele>758.4000244140625</ele>
        <time>2013-08-15T16:37:45.000Z</time>
        <extensions>
          <ns3:TrackPointExtension>
            <ns3:atemp>19.0</ns3:atemp>
            <ns3:hr>126</ns3:hr>
          </ns3:TrackPointExtension>
        </extensions>
      </trkpt>
      <trkpt lat="46.634515039622783660888671875" lon="6.8546505086123943328857421875">
        <ele>758.4000244140625</ele>
        <time>2013-08-15T16:37:46.000Z</time>
        <extensions>
          <ns3:TrackPointExtension>
            <ns3:atemp>19.0</ns3:atemp>
            <ns3:hr>126</ns3:hr>
          </ns3:TrackPointExtension>
        </extensions>
      </trkpt>
      <trkpt lat="46.63444924168288707733154296875" lon="6.8546117842197418212890625">
        <ele>758.20001220703125</ele>
        <time>2013-08-15T16:37:47.000Z</time>
        <extensions>
          <ns3:TrackPointExtension>
            <ns3:atemp>19.0</ns3:atemp>
            <ns3:hr>126</ns3:hr>
          </ns3:TrackPointExtension>
        </extensions>
      </trkpt>
      <trkpt lat="46.6343804262578487396240234375" lon="6.85457733459770679473876953125">
        <ele>758.20001220703125</ele>
        <time>2013-08-15T16:37:48.000Z</time>
        <extensions>
          <ns3:TrackPointExtension>
            <ns3:atemp>19.0</ns3:atemp>
            <ns3:hr>125</ns3:hr>
          </ns3:TrackPointExtension>
        </extensions>
      </trkpt>
      <trkpt lat="46.634310185909271240234375" lon="6.8545438908040523529052734375">
        <ele>758</ele>
        <time>2013-08-15T16:37:49.000Z</time>
        <extensions>
          <ns3:TrackPointExtension>
            <ns3:atemp>19.0</ns3:atemp>
            <ns3:hr>124</ns3:hr>
          </ns3:TrackPointExtension>
        </extensions>
      </trkpt>
      <trkpt lat="46.6342432983219623565673828125" lon="6.85450038872659206390380859375">
        <ele>757.5999755859375</ele>
        <time>2013-08-15T16:37:50.000Z</time>
        <extensions>
          <ns3:TrackPointExtension>
            <ns3:atemp>19.0</ns3:atemp>
            <ns3:hr>124</ns3:hr>
          </ns3:TrackPointExtension>
        </extensions>
      </trkpt>
      <trkpt lat="46.6341822780668735504150390625" lon="6.854439787566661834716796875">
        <ele>757.20001220703125</ele>
        <time>2013-08-15T16:37:51.000Z</time>
        <extensions>
          <ns3:TrackPointExtension>
            <ns3:atemp>19.0</ns3:atemp>
            <ns3:hr>123</ns3:hr>
          </ns3:TrackPointExtension>
        </extensions>
      </trkpt>
      <trkpt lat="46.6341262869536876678466796875" lon="6.85436711646616458892822265625">
        <ele>756.79998779296875</ele>
        <time>2013-08-15T16:37:52.000Z</time>
        <extensions>
          <ns3:TrackPointExtension>
            <ns3:atemp>19.0</ns3:atemp>
            <ns3:hr>122</ns3:hr>
          </ns3:TrackPointExtension>
        </extensions>
      </trkpt>
      <trkpt lat="46.63407037965953350067138671875" lon="6.85428514145314693450927734375">
        <ele>756.4000244140625</ele>
        <time>2013-08-15T16:37:53.000Z</time>
        <extensions>
          <ns3:TrackPointExtension>
            <ns3:atemp>19.0</ns3:atemp>
            <ns3:hr>122</ns3:hr>
          </ns3:TrackPointExtension>
        </extensions>
      </trkpt>
      <trkpt lat="46.6340129636228084564208984375" lon="6.85419629327952861785888671875">
        <ele>756.20001220703125</ele>
        <time>2013-08-15T16:37:54.000Z</time>
        <extensions>
          <ns3:TrackPointExtension>
            <ns3:atemp>19.0</ns3:atemp>
            <ns3:hr>121</ns3:hr>
          </ns3:TrackPointExtension>
        </extensions>
      </trkpt>
      <trkpt lat="46.63395420648157596588134765625" lon="6.85410141013562679290771484375">
        <ele>755.5999755859375</ele>
        <time>2013-08-15T16:37:55.000Z</time>
        <extensions>
          <ns3:TrackPointExtension>
            <ns3:atemp>19.0</ns3:atemp>
            <ns3:hr>121</ns3:hr>
          </ns3:TrackPointExtension>
        </extensions>
      </trkpt>
      <trkpt lat="46.63389083929359912872314453125" lon="6.8540077842772006988525390625">
        <ele>755</ele>
        <time>2013-08-15T16:37:56.000Z</time>
        <extensions>
          <ns3:TrackPointExtension>
            <ns3:atemp>19.0</ns3:atemp>
            <ns3:hr>120</ns3:hr>
          </ns3:TrackPointExtension>
        </extensions>
      </trkpt>
      <trkpt lat="46.63381741382181644439697265625" lon="6.85392580926418304443359375">
        <ele>754.5999755859375</ele>
        <time>2013-08-15T16:37:57.000Z</time>
        <extensions>
          <ns3:TrackPointExtension>
            <ns3:atemp>19.0</ns3:atemp>
            <ns3:hr>120</ns3:hr>
          </ns3:TrackPointExtension>
        </extensions>
      </trkpt>
      <trkpt lat="46.63373393006622791290283203125" lon="6.85385875403881072998046875">
        <ele>754.4000244140625</ele>
        <time>2013-08-15T16:37:58.000Z</time>
        <extensions>
          <ns3:TrackPointExtension>
            <ns3:atemp>19.0</ns3:atemp>
            <ns3:hr>120</ns3:hr>
          </ns3:TrackPointExtension>
        </extensions>
      </trkpt>
      <trkpt lat="46.6336488537490367889404296875" lon="6.85379278846085071563720703125">
        <ele>753.79998779296875</ele>
        <time>2013-08-15T16:37:59.000Z</time>
        <extensions>
          <ns3:TrackPointExtension>
            <ns3:atemp>19.0</ns3:atemp>
            <ns3:hr>119</ns3:hr>
          </ns3:TrackPointExtension>
        </extensions>
      </trkpt>
      <trkpt lat="46.633570231497287750244140625" lon="6.8537150882184505462646484375">
        <ele>753</ele>
        <time>2013-08-15T16:38:00.000Z</time>
        <extensions>
          <ns3:TrackPointExtension>
            <ns3:atemp>19.0</ns3:atemp>
            <ns3:hr>119</ns3:hr>
          </ns3:TrackPointExtension>
        </extensions>
      </trkpt>
      <trkpt lat="46.633512564003467559814453125" lon="6.85361257754266262054443359375">
        <ele>750.5999755859375</ele>
        <time>2013-08-15T16:38:01.000Z</time>
        <extensions>
          <ns3:TrackPointExtension>
            <ns3:atemp>19.0</ns3:atemp>
            <ns3:hr>119</ns3:hr>
          </ns3:TrackPointExtension>
        </extensions>
      </trkpt>
      <trkpt lat="46.633488424122333526611328125" lon="6.8534904532134532928466796875">
        <ele>749.20001220703125</ele>
        <time>2013-08-15T16:38:02.000Z</time>
        <extensions>
          <ns3:TrackPointExtension>
            <ns3:atemp>19.0</ns3:atemp>
            <ns3:hr>119</ns3:hr>
          </ns3:TrackPointExtension>
        </extensions>
      </trkpt>
      <trkpt lat="46.63349923677742481231689453125" lon="6.85336120426654815673828125">
        <ele>748.20001220703125</ele>
        <time>2013-08-15T16:38:03.000Z</time>
        <extensions>
          <ns3:TrackPointExtension>
            <ns3:atemp>19.0</ns3:atemp>
            <ns3:hr>118</ns3:hr>
          </ns3:TrackPointExtension>
        </extensions>
      </trkpt>
      <trkpt lat="46.63353209383785724639892578125" lon="6.8532416783273220062255859375">
        <ele>747.79998779296875</ele>
        <time>2013-08-15T16:38:04.000Z</time>
        <extensions>
          <ns3:TrackPointExtension>
            <ns3:atemp>19.0</ns3:atemp>
            <ns3:hr>116</ns3:hr>
          </ns3:TrackPointExtension>
        </extensions>
      </trkpt>
      <trkpt lat="46.63356075994670391082763671875" lon="6.85311402194201946258544921875">
        <ele>747.5999755859375</ele>
        <time>2013-08-15T16:38:05.000Z</time>
        <extensions>
          <ns3:TrackPointExtension>
            <ns3:atemp>19.0</ns3:atemp>
            <ns3:hr>116</ns3:hr>
          </ns3:TrackPointExtension>
        </extensions>
      </trkpt>
      <trkpt lat="46.6335586644709110260009765625" lon="6.85297337360680103302001953125">
        <ele>747.20001220703125</ele>
        <time>2013-08-15T16:38:06.000Z</time>
        <extensions>
          <ns3:TrackPointExtension>
            <ns3:atemp>19.0</ns3:atemp>
            <ns3:hr>115</ns3:hr>
          </ns3:TrackPointExtension>
        </extensions>
      </trkpt>
      <trkpt lat="46.63352471776306629180908203125" lon="6.85284211300313472747802734375">
        <ele>746</ele>
        <time>2013-08-15T16:38:07.000Z</time>
        <extensions>
          <ns3:TrackPointExtension>
            <ns3:atemp>19.0</ns3:atemp>
            <ns3:hr>114</ns3:hr>
          </ns3:TrackPointExtension>
        </extensions>
      </trkpt>
      <trkpt lat="46.63346604444086551666259765625" lon="6.85273063369095325469970703125">
        <ele>745.20001220703125</ele>
        <time>2013-08-15T16:38:08.000Z</time>
        <extensions>
          <ns3:TrackPointExtension>
            <ns3:atemp>19.0</ns3:atemp>
            <ns3:hr>114</ns3:hr>
          </ns3:TrackPointExtension>
        </extensions>
      </trkpt>
      <trkpt lat="46.63337937556207180023193359375" lon="6.85264245606958866119384765625">
        <ele>744.4000244140625</ele>
        <time>2013-08-15T16:38:09.000Z</time>
        <extensions>
          <ns3:TrackPointExtension>
            <ns3:atemp>19.0</ns3:atemp>
            <ns3:hr>114</ns3:hr>
          </ns3:TrackPointExtension>
        </extensions>
      </trkpt>
      <trkpt lat="46.63328616879880428314208984375" lon="6.8525734730064868927001953125">
        <ele>743.79998779296875</ele>
        <time>2013-08-15T16:38:10.000Z</time>
        <extensions>
          <ns3:TrackPointExtension>
            <ns3:atemp>19.0</ns3:atemp>
            <ns3:hr>113</ns3:hr>
          </ns3:TrackPointExtension>
        </extensions>
      </trkpt>
      <trkpt lat="46.63319178856909275054931640625" lon="6.85251488350331783294677734375">
        <ele>743.4000244140625</ele>
        <time>2013-08-15T16:38:11.000Z</time>
        <extensions>
          <ns3:TrackPointExtension>
            <ns3:atemp>19.0</ns3:atemp>
            <ns3:hr>113</ns3:hr>
          </ns3:TrackPointExtension>
        </extensions>
      </trkpt>
      <trkpt lat="46.6330929659307003021240234375" lon="6.85245872475206851959228515625">
        <ele>743.20001220703125</ele>
        <time>2013-08-15T16:38:12.000Z</time>
        <extensions>
          <ns3:TrackPointExtension>
            <ns3:atemp>19.0</ns3:atemp>
            <ns3:hr>113</ns3:hr>
          </ns3:TrackPointExtension>
        </extensions>
      </trkpt>
      <trkpt lat="46.63299523293972015380859375" lon="6.852404661476612091064453125">
        <ele>743.4000244140625</ele>
        <time>2013-08-15T16:38:13.000Z</time>
        <extensions>
          <ns3:TrackPointExtension>
            <ns3:atemp>19.0</ns3:atemp>
            <ns3:hr>114</ns3:hr>
          </ns3:TrackPointExtension>
        </extensions>
      </trkpt>
      <trkpt lat="46.632898338139057159423828125" lon="6.8523575551807880401611328125">
        <ele>743.5999755859375</ele>
        <time>2013-08-15T16:38:14.000Z</time>
        <extensions>
          <ns3:TrackPointExtension>
            <ns3:atemp>19.0</ns3:atemp>
            <ns3:hr>114</ns3:hr>
          </ns3:TrackPointExtension>
        </extensions>
      </trkpt>
      <trkpt lat="46.63280169479548931121826171875" lon="6.85231287963688373565673828125">
        <ele>743.4000244140625</ele>
        <time>2013-08-15T16:38:15.000Z</time>
        <extensions>
          <ns3:TrackPointExtension>
            <ns3:atemp>19.0</ns3:atemp>
            <ns3:hr>113</ns3:hr>
          </ns3:TrackPointExtension>
        </extensions>
      </trkpt>
      <trkpt lat="46.6327084042131900787353515625" lon="6.8522707186639308929443359375">
        <ele>742.79998779296875</ele>
        <time>2013-08-15T16:38:16.000Z</time>
        <extensions>
          <ns3:TrackPointExtension>
            <ns3:atemp>19.0</ns3:atemp>
            <ns3:hr>113</ns3:hr>
          </ns3:TrackPointExtension>
        </extensions>
      </trkpt>
      <trkpt lat="46.63261645473539829254150390625" lon="6.8522298149764537811279296875">
        <ele>742.4000244140625</ele>
        <time>2013-08-15T16:38:17.000Z</time>
        <extensions>
          <ns3:TrackPointExtension>
            <ns3:atemp>19.0</ns3:atemp>
            <ns3:hr>111</ns3:hr>
          </ns3:TrackPointExtension>
        </extensions>
      </trkpt>
      <trkpt lat="46.6325256787240505218505859375" lon="6.85219134204089641571044921875">
        <ele>742.20001220703125</ele>
        <time>2013-08-15T16:38:18.000Z</time>
        <extensions>
          <ns3:TrackPointExtension>
            <ns3:atemp>19.0</ns3:atemp>
            <ns3:hr>111</ns3:hr>
          </ns3:TrackPointExtension>
        </extensions>
      </trkpt>
      <trkpt lat="46.6324385069310665130615234375" lon="6.852161586284637451171875">
        <ele>741.79998779296875</ele>
        <time>2013-08-15T16:38:19.000Z</time>
        <extensions>
          <ns3:TrackPointExtension>
            <ns3:atemp>19.0</ns3:atemp>
            <ns3:hr>109</ns3:hr>
          </ns3:TrackPointExtension>
        </extensions>
      </trkpt>
      <trkpt lat="46.63235611282289028167724609375" lon="6.85213753022253513336181640625">
        <ele>741</ele>
        <time>2013-08-15T16:38:20.000Z</time>
        <extensions>
          <ns3:TrackPointExtension>
            <ns3:atemp>19.0</ns3:atemp>
            <ns3:hr>109</ns3:hr>
          </ns3:TrackPointExtension>
        </extensions>
      </trkpt>
      <trkpt lat="46.63228520192205905914306640625" lon="6.852140463888645172119140625">
        <ele>740.4000244140625</ele>
        <time>2013-08-15T16:38:21.000Z</time>
        <extensions>
          <ns3:TrackPointExtension>
            <ns3:atemp>19.0</ns3:atemp>
            <ns3:hr>108</ns3:hr>
          </ns3:TrackPointExtension>
        </extensions>
      </trkpt>
      <trkpt lat="46.63222543895244598388671875" lon="6.852184049785137176513671875">
        <ele>739.79998779296875</ele>
        <time>2013-08-15T16:38:22.000Z</time>
        <extensions>
          <ns3:TrackPointExtension>
            <ns3:atemp>19.0</ns3:atemp>
            <ns3:hr>108</ns3:hr>
          </ns3:TrackPointExtension>
        </extensions>
      </trkpt>
      <trkpt lat="46.63217925466597080230712890625" lon="6.852258481085300445556640625">
        <ele>739.79998779296875</ele>
        <time>2013-08-15T16:38:23.000Z</time>
        <extensions>
          <ns3:TrackPointExtension>
            <ns3:atemp>19.0</ns3:atemp>
            <ns3:hr>109</ns3:hr>
          </ns3:TrackPointExtension>
        </extensions>
      </trkpt>
      <trkpt lat="46.63215528242290019989013671875" lon="6.85233316384255886077880859375">
        <ele>740.20001220703125</ele>
        <time>2013-08-15T16:38:24.000Z</time>
        <extensions>
          <ns3:TrackPointExtension>
            <ns3:atemp>19.0</ns3:atemp>
            <ns3:hr>110</ns3:hr>
          </ns3:TrackPointExtension>
        </extensions>
      </trkpt>
      <trkpt lat="46.63213583640754222869873046875" lon="6.85240021906793117523193359375">
        <ele>740.79998779296875</ele>
        <time>2013-08-15T16:38:25.000Z</time>
        <extensions>
          <ns3:TrackPointExtension>
            <ns3:atemp>19.0</ns3:atemp>
            <ns3:hr>111</ns3:hr>
          </ns3:TrackPointExtension>
        </extensions>
      </trkpt>
      <trkpt lat="46.63212158717215061187744140625" lon="6.8524665199220180511474609375">
        <ele>741</ele>
        <time>2013-08-15T16:38:26.000Z</time>
        <extensions>
          <ns3:TrackPointExtension>
            <ns3:atemp>19.0</ns3:atemp>
            <ns3:hr>112</ns3:hr>
          </ns3:TrackPointExtension>
        </extensions>
      </trkpt>
      <trkpt lat="46.6321039013564586639404296875" lon="6.85252703726291656494140625">
        <ele>741</ele>
        <time>2013-08-15T16:38:27.000Z</time>
        <extensions>
          <ns3:TrackPointExtension>
            <ns3:atemp>19.0</ns3:atemp>
            <ns3:hr>113</ns3:hr>
          </ns3:TrackPointExtension>
        </extensions>
      </trkpt>
      <trkpt lat="46.63208370096981525421142578125" lon="6.85258076526224613189697265625">
        <ele>741.4000244140625</ele>
        <time>2013-08-15T16:38:28.000Z</time>
        <extensions>
          <ns3:TrackPointExtension>
            <ns3:atemp>19.0</ns3:atemp>
            <ns3:hr>114</ns3:hr>
          </ns3:TrackPointExtension>
        </extensions>
      </trkpt>
      <trkpt lat="46.63206459023058414459228515625" lon="6.852634660899639129638671875">
        <ele>741.79998779296875</ele>
        <time>2013-08-15T16:38:29.000Z</time>
        <extensions>
          <ns3:TrackPointExtension>
            <ns3:atemp>19.0</ns3:atemp>
            <ns3:hr>115</ns3:hr>
          </ns3:TrackPointExtension>
        </extensions>
      </trkpt>
      <trkpt lat="46.63204464130103588104248046875" lon="6.8526874668896198272705078125">
        <ele>742.4000244140625</ele>
        <time>2013-08-15T16:38:30.000Z</time>
        <extensions>
          <ns3:TrackPointExtension>
            <ns3:atemp>19.0</ns3:atemp>
            <ns3:hr>116</ns3:hr>
          </ns3:TrackPointExtension>
        </extensions>
      </trkpt>
      <trkpt lat="46.632025949656963348388671875" lon="6.85273935087025165557861328125">
        <ele>742.79998779296875</ele>
        <time>2013-08-15T16:38:31.000Z</time>
        <extensions>
          <ns3:TrackPointExtension>
            <ns3:atemp>19.0</ns3:atemp>
            <ns3:hr>118</ns3:hr>
          </ns3:TrackPointExtension>
        </extensions>
      </trkpt>
      <trkpt lat="46.63200859911739826202392578125" lon="6.8527893908321857452392578125">
        <ele>743.20001220703125</ele>
        <time>2013-08-15T16:38:32.000Z</time>
        <extensions>
          <ns3:TrackPointExtension>
            <ns3:atemp>19.0</ns3:atemp>
            <ns3:hr>119</ns3:hr>
          </ns3:TrackPointExtension>
        </extensions>
      </trkpt>
      <trkpt lat="46.63199049420654773712158203125" lon="6.85283641330897808074951171875">
        <ele>743.79998779296875</ele>
        <time>2013-08-15T16:38:33.000Z</time>
        <extensions>
          <ns3:TrackPointExtension>
            <ns3:atemp>19.0</ns3:atemp>
            <ns3:hr>120</ns3:hr>
          </ns3:TrackPointExtension>
        </extensions>
      </trkpt>
      <trkpt lat="46.631970293819904327392578125" lon="6.85287999920547008514404296875">
        <ele>744</ele>
        <time>2013-08-15T16:38:34.000Z</time>
        <extensions>
          <ns3:TrackPointExtension>
            <ns3:atemp>19.0</ns3:atemp>
            <ns3:hr>121</ns3:hr>
          </ns3:TrackPointExtension>
        </extensions>
      </trkpt>
      <trkpt lat="46.63194891996681690216064453125" lon="6.852922998368740081787109375">
        <ele>744.4000244140625</ele>
        <time>2013-08-15T16:38:35.000Z</time>
        <extensions>
          <ns3:TrackPointExtension>
            <ns3:atemp>19.0</ns3:atemp>
            <ns3:hr>122</ns3:hr>
          </ns3:TrackPointExtension>
        </extensions>
      </trkpt>
      <trkpt lat="46.63192695938050746917724609375" lon="6.852966584265232086181640625">
        <ele>744.5999755859375</ele>
        <time>2013-08-15T16:38:36.000Z</time>
        <extensions>
          <ns3:TrackPointExtension>
            <ns3:atemp>19.0</ns3:atemp>
            <ns3:hr>123</ns3:hr>
          </ns3:TrackPointExtension>
        </extensions>
      </trkpt>
      <trkpt lat="46.63190332241356372833251953125" lon="6.8530086614191532135009765625">
        <ele>745</ele>
        <time>2013-08-15T16:38:37.000Z</time>
        <extensions>
          <ns3:TrackPointExtension>
            <ns3:atemp>19.0</ns3:atemp>
            <ns3:hr>124</ns3:hr>
          </ns3:TrackPointExtension>
        </extensions>
      </trkpt>
      <trkpt lat="46.63188077509403228759765625" lon="6.853052414953708648681640625">
        <ele>745.4000244140625</ele>
        <time>2013-08-15T16:38:38.000Z</time>
        <extensions>
          <ns3:TrackPointExtension>
            <ns3:atemp>19.0</ns3:atemp>
            <ns3:hr>125</ns3:hr>
          </ns3:TrackPointExtension>
        </extensions>
      </trkpt>
      <trkpt lat="46.63185856305062770843505859375" lon="6.853094995021820068359375">
        <ele>745.79998779296875</ele>
        <time>2013-08-15T16:38:39.000Z</time>
        <extensions>
          <ns3:TrackPointExtension>
            <ns3:atemp>19.0</ns3:atemp>
            <ns3:hr>126</ns3:hr>
          </ns3:TrackPointExtension>
        </extensions>
      </trkpt>
      <trkpt lat="46.63183593191206455230712890625" lon="6.85313589870929718017578125">
        <ele>746.20001220703125</ele>
        <time>2013-08-15T16:38:40.000Z</time>
        <extensions>
          <ns3:TrackPointExtension>
            <ns3:atemp>19.0</ns3:atemp>
            <ns3:hr>126</ns3:hr>
          </ns3:TrackPointExtension>
        </extensions>
      </trkpt>
      <trkpt lat="46.63181346841156482696533203125" lon="6.8531762994825839996337890625">
        <ele>746.5999755859375</ele>
        <time>2013-08-15T16:38:41.000Z</time>
        <extensions>
          <ns3:TrackPointExtension>
            <ns3:atemp>19.0</ns3:atemp>
            <ns3:hr>127</ns3:hr>
          </ns3:TrackPointExtension>
        </extensions>
      </trkpt>
      <trkpt lat="46.63178865797817707061767578125" lon="6.853216029703617095947265625">
        <ele>747</ele>
        <time>2013-08-15T16:38:42.000Z</time>
        <extensions>
          <ns3:TrackPointExtension>
            <ns3:atemp>19.0</ns3:atemp>
            <ns3:hr>128</ns3:hr>
          </ns3:TrackPointExtension>
        </extensions>
      </trkpt>
      <trkpt lat="46.6317607462406158447265625" lon="6.853255592286586761474609375">
        <ele>747.20001220703125</ele>
        <time>2013-08-15T16:38:43.000Z</time>
        <extensions>
          <ns3:TrackPointExtension>
            <ns3:atemp>19.0</ns3:atemp>
            <ns3:hr>128</ns3:hr>
          </ns3:TrackPointExtension>
        </extensions>
      </trkpt>
      <trkpt lat="46.6317307390272617340087890625" lon="6.85329289175570011138916015625">
        <ele>747.79998779296875</ele>
        <time>2013-08-15T16:38:44.000Z</time>
        <extensions>
          <ns3:TrackPointExtension>
            <ns3:atemp>19.0</ns3:atemp>
            <ns3:hr>129</ns3:hr>
          </ns3:TrackPointExtension>
        </extensions>
      </trkpt>
      <trkpt lat="46.6317052580416202545166015625" lon="6.85332675464451313018798828125">
        <ele>748.20001220703125</ele>
        <time>2013-08-15T16:38:45.000Z</time>
        <extensions>
          <ns3:TrackPointExtension>
            <ns3:atemp>19.0</ns3:atemp>
            <ns3:hr>130</ns3:hr>
          </ns3:TrackPointExtension>
        </extensions>
      </trkpt>
      <trkpt lat="46.63168421946465969085693359375" lon="6.85336388647556304931640625">
        <ele>748.5999755859375</ele>
        <time>2013-08-15T16:38:46.000Z</time>
        <extensions>
          <ns3:TrackPointExtension>
            <ns3:atemp>19.0</ns3:atemp>
            <ns3:hr>130</ns3:hr>
          </ns3:TrackPointExtension>
        </extensions>
      </trkpt>
      <trkpt lat="46.6316626779735088348388671875" lon="6.85340018011629581451416015625">
        <ele>748.5999755859375</ele>
        <time>2013-08-15T16:38:47.000Z</time>
        <extensions>
          <ns3:TrackPointExtension>
            <ns3:atemp>19.0</ns3:atemp>
            <ns3:hr>131</ns3:hr>
          </ns3:TrackPointExtension>
        </extensions>
      </trkpt>
      <trkpt lat="46.63163895718753337860107421875" lon="6.85343437828123569488525390625">
        <ele>749</ele>
        <time>2013-08-15T16:38:48.000Z</time>
        <extensions>
          <ns3:TrackPointExtension>
            <ns3:atemp>19.0</ns3:atemp>
            <ns3:hr>132</ns3:hr>
          </ns3:TrackPointExtension>
        </extensions>
      </trkpt>
      <trkpt lat="46.63161582313477993011474609375" lon="6.85346673242747783660888671875">
        <ele>749.79998779296875</ele>
        <time>2013-08-15T16:38:49.000Z</time>
        <extensions>
          <ns3:TrackPointExtension>
            <ns3:atemp>19.0</ns3:atemp>
            <ns3:hr>133</ns3:hr>
          </ns3:TrackPointExtension>
        </extensions>
      </trkpt>
      <trkpt lat="46.63159201852977275848388671875" lon="6.8535005114972591400146484375">
        <ele>750.20001220703125</ele>
        <time>2013-08-15T16:38:50.000Z</time>
        <extensions>
          <ns3:TrackPointExtension>
            <ns3:atemp>19.0</ns3:atemp>
            <ns3:hr>134</ns3:hr>
          </ns3:TrackPointExtension>
        </extensions>
      </trkpt>
      <trkpt lat="46.6315691359341144561767578125" lon="6.8535340391099452972412109375">
        <ele>750.4000244140625</ele>
        <time>2013-08-15T16:38:51.000Z</time>
        <extensions>
          <ns3:TrackPointExtension>
            <ns3:atemp>19.0</ns3:atemp>
            <ns3:hr>135</ns3:hr>
          </ns3:TrackPointExtension>
        </extensions>
      </trkpt>
      <trkpt lat="46.6315483488142490386962890625" lon="6.8535675667226314544677734375">
        <ele>750.5999755859375</ele>
        <time>2013-08-15T16:38:52.000Z</time>
        <extensions>
          <ns3:TrackPointExtension>
            <ns3:atemp>19.0</ns3:atemp>
            <ns3:hr>136</ns3:hr>
          </ns3:TrackPointExtension>
        </extensions>
      </trkpt>
      <trkpt lat="46.63152848370373249053955078125" lon="6.85360318981111049652099609375">
        <ele>750.5999755859375</ele>
        <time>2013-08-15T16:38:53.000Z</time>
        <extensions>
          <ns3:TrackPointExtension>
            <ns3:atemp>19.0</ns3:atemp>
            <ns3:hr>137</ns3:hr>
          </ns3:TrackPointExtension>
        </extensions>
      </trkpt>
      <trkpt lat="46.631507612764835357666015625" lon="6.85363939963281154632568359375">
        <ele>751</ele>
        <time>2013-08-15T16:38:54.000Z</time>
        <extensions>
          <ns3:TrackPointExtension>
            <ns3:atemp>19.0</ns3:atemp>
            <ns3:hr>137</ns3:hr>
          </ns3:TrackPointExtension>
        </extensions>
      </trkpt>
      <trkpt lat="46.6314886696636676788330078125" lon="6.85367376543581485748291015625">
        <ele>751.4000244140625</ele>
        <time>2013-08-15T16:38:55.000Z</time>
        <extensions>
          <ns3:TrackPointExtension>
            <ns3:atemp>19.0</ns3:atemp>
            <ns3:hr>138</ns3:hr>
          </ns3:TrackPointExtension>
        </extensions>
      </trkpt>
      <trkpt lat="46.63147232495248317718505859375" lon="6.8537103943526744842529296875">
        <ele>751.79998779296875</ele>
        <time>2013-08-15T16:38:56.000Z</time>
        <extensions>
          <ns3:TrackPointExtension>
            <ns3:atemp>19.0</ns3:atemp>
            <ns3:hr>139</ns3:hr>
          </ns3:TrackPointExtension>
        </extensions>
      </trkpt>
      <trkpt lat="46.63145489059388637542724609375" lon="6.8537502922117710113525390625">
        <ele>752</ele>
        <time>2013-08-15T16:38:57.000Z</time>
        <extensions>
          <ns3:TrackPointExtension>
            <ns3:atemp>19.0</ns3:atemp>
            <ns3:hr>140</ns3:hr>
          </ns3:TrackPointExtension>
        </extensions>
      </trkpt>
      <trkpt lat="46.63143561221659183502197265625" lon="6.853787340223789215087890625">
        <ele>752.4000244140625</ele>
        <time>2013-08-15T16:38:58.000Z</time>
        <extensions>
          <ns3:TrackPointExtension>
            <ns3:atemp>19.0</ns3:atemp>
            <ns3:hr>140</ns3:hr>
          </ns3:TrackPointExtension>
        </extensions>
      </trkpt>
      <trkpt lat="46.6314147412776947021484375" lon="6.8538230471312999725341796875">
        <ele>752.5999755859375</ele>
        <time>2013-08-15T16:38:59.000Z</time>
        <extensions>
          <ns3:TrackPointExtension>
            <ns3:atemp>19.0</ns3:atemp>
            <ns3:hr>141</ns3:hr>
          </ns3:TrackPointExtension>
        </extensions>
      </trkpt>
      <trkpt lat="46.63139688782393932342529296875" lon="6.85386009514331817626953125">
        <ele>753</ele>
        <time>2013-08-15T16:39:00.000Z</time>
        <extensions>
          <ns3:TrackPointExtension>
            <ns3:atemp>19.0</ns3:atemp>
            <ns3:hr>141</ns3:hr>
          </ns3:TrackPointExtension>
        </extensions>
      </trkpt>
      <trkpt lat="46.63137962110340595245361328125" lon="6.85389940626919269561767578125">
        <ele>753.20001220703125</ele>
        <time>2013-08-15T16:39:01.000Z</time>
        <extensions>
          <ns3:TrackPointExtension>
            <ns3:atemp>19.0</ns3:atemp>
            <ns3:hr>142</ns3:hr>
          </ns3:TrackPointExtension>
        </extensions>
      </trkpt>
      <trkpt lat="46.6313612647354602813720703125" lon="6.85393477790057659149169921875">
        <ele>753.5999755859375</ele>
        <time>2013-08-15T16:39:02.000Z</time>
        <extensions>
          <ns3:TrackPointExtension>
            <ns3:atemp>19.0</ns3:atemp>
            <ns3:hr>143</ns3:hr>
          </ns3:TrackPointExtension>
        </extensions>
      </trkpt>
      <trkpt lat="46.6313421539962291717529296875" lon="6.8539682216942310333251953125">
        <ele>753.79998779296875</ele>
        <time>2013-08-15T16:39:03.000Z</time>
        <extensions>
          <ns3:TrackPointExtension>
            <ns3:atemp>19.0</ns3:atemp>
            <ns3:hr>143</ns3:hr>
          </ns3:TrackPointExtension>
        </extensions>
      </trkpt>
      <trkpt lat="46.63132446818053722381591796875" lon="6.854004599153995513916015625">
        <ele>754.20001220703125</ele>
        <time>2013-08-15T16:39:04.000Z</time>
        <extensions>
          <ns3:TrackPointExtension>
            <ns3:atemp>19.0</ns3:atemp>
            <ns3:hr>143</ns3:hr>
          </ns3:TrackPointExtension>
        </extensions>
      </trkpt>
      <trkpt lat="46.63130636326968669891357421875" lon="6.85404223389923572540283203125">
        <ele>754.4000244140625</ele>
        <time>2013-08-15T16:39:05.000Z</time>
        <extensions>
          <ns3:TrackPointExtension>
            <ns3:atemp>19.0</ns3:atemp>
            <ns3:hr>144</ns3:hr>
          </ns3:TrackPointExtension>
        </extensions>
      </trkpt>
      <trkpt lat="46.6312858276069164276123046875" lon="6.8540808744728565216064453125">
        <ele>754.4000244140625</ele>
        <time>2013-08-15T16:39:06.000Z</time>
        <extensions>
          <ns3:TrackPointExtension>
            <ns3:atemp>19.0</ns3:atemp>
            <ns3:hr>144</ns3:hr>
          </ns3:TrackPointExtension>
        </extensions>
      </trkpt>
      <trkpt lat="46.63126386702060699462890625" lon="6.85411783866584300994873046875">
        <ele>754.4000244140625</ele>
        <time>2013-08-15T16:39:07.000Z</time>
        <extensions>
          <ns3:TrackPointExtension>
            <ns3:atemp>19.0</ns3:atemp>
            <ns3:hr>145</ns3:hr>
          </ns3:TrackPointExtension>
        </extensions>
      </trkpt>
      <trkpt lat="46.63124333135783672332763671875" lon="6.8541563116014003753662109375">
        <ele>754.5999755859375</ele>
        <time>2013-08-15T16:39:08.000Z</time>
        <extensions>
          <ns3:TrackPointExtension>
            <ns3:atemp>19.0</ns3:atemp>
            <ns3:hr>145</ns3:hr>
          </ns3:TrackPointExtension>
        </extensions>
      </trkpt>
      <trkpt lat="46.6312211193144321441650390625" lon="6.8541938625276088714599609375">
        <ele>755.20001220703125</ele>
        <time>2013-08-15T16:39:09.000Z</time>
        <extensions>
          <ns3:TrackPointExtension>
            <ns3:atemp>19.0</ns3:atemp>
            <ns3:hr>145</ns3:hr>
          </ns3:TrackPointExtension>
        </extensions>
      </trkpt>
      <trkpt lat="46.63119639270007610321044921875" lon="6.85423317365348339080810546875">
        <ele>755.4000244140625</ele>
        <time>2013-08-15T16:39:10.000Z</time>
        <extensions>
          <ns3:TrackPointExtension>
            <ns3:atemp>19.0</ns3:atemp>
            <ns3:hr>145</ns3:hr>
          </ns3:TrackPointExtension>
        </extensions>
      </trkpt>
      <trkpt lat="46.63117225281894207000732421875" lon="6.8542806990444660186767578125">
        <ele>755.5999755859375</ele>
        <time>2013-08-15T16:39:11.000Z</time>
        <extensions>
          <ns3:TrackPointExtension>
            <ns3:atemp>19.0</ns3:atemp>
            <ns3:hr>145</ns3:hr>
          </ns3:TrackPointExtension>
        </extensions>
      </trkpt>
      <trkpt lat="46.631150208413600921630859375" lon="6.8543309904634952545166015625">
        <ele>755.4000244140625</ele>
        <time>2013-08-15T16:39:12.000Z</time>
        <extensions>
          <ns3:TrackPointExtension>
            <ns3:atemp>19.0</ns3:atemp>
            <ns3:hr>145</ns3:hr>
          </ns3:TrackPointExtension>
        </extensions>
      </trkpt>
      <trkpt lat="46.63112950511276721954345703125" lon="6.85438589192926883697509765625">
        <ele>755.4000244140625</ele>
        <time>2013-08-15T16:39:13.000Z</time>
        <extensions>
          <ns3:TrackPointExtension>
            <ns3:atemp>19.0</ns3:atemp>
            <ns3:hr>145</ns3:hr>
          </ns3:TrackPointExtension>
        </extensions>
      </trkpt>
      <trkpt lat="46.63110922090709209442138671875" lon="6.854445151984691619873046875">
        <ele>755.5999755859375</ele>
        <time>2013-08-15T16:39:14.000Z</time>
        <extensions>
          <ns3:TrackPointExtension>
            <ns3:atemp>19.0</ns3:atemp>
            <ns3:hr>145</ns3:hr>
          </ns3:TrackPointExtension>
        </extensions>
      </trkpt>
      <trkpt lat="46.63108809851109981536865234375" lon="6.85451187193393707275390625">
        <ele>755.4000244140625</ele>
        <time>2013-08-15T16:39:15.000Z</time>
        <extensions>
          <ns3:TrackPointExtension>
            <ns3:atemp>19.0</ns3:atemp>
            <ns3:hr>144</ns3:hr>
          </ns3:TrackPointExtension>
        </extensions>
      </trkpt>
      <trkpt lat="46.631069071590900421142578125" lon="6.8545834533870220184326171875">
        <ele>755.20001220703125</ele>
        <time>2013-08-15T16:39:16.000Z</time>
        <extensions>
          <ns3:TrackPointExtension>
            <ns3:atemp>19.0</ns3:atemp>
            <ns3:hr>144</ns3:hr>
          </ns3:TrackPointExtension>
        </extensions>
      </trkpt>
      <trkpt lat="46.63105465471744537353515625" lon="6.85466316528618335723876953125">
        <ele>755.20001220703125</ele>
        <time>2013-08-15T16:39:17.000Z</time>
        <extensions>
          <ns3:TrackPointExtension>
            <ns3:atemp>19.0</ns3:atemp>
            <ns3:hr>144</ns3:hr>
          </ns3:TrackPointExtension>
        </extensions>
      </trkpt>
      <trkpt lat="46.6310484521090984344482421875" lon="6.85475151054561138153076171875">
        <ele>755</ele>
        <time>2013-08-15T16:39:18.000Z</time>
        <extensions>
          <ns3:TrackPointExtension>
            <ns3:atemp>19.0</ns3:atemp>
            <ns3:hr>144</ns3:hr>
          </ns3:TrackPointExtension>
        </extensions>
      </trkpt>
      <trkpt lat="46.6310504637658596038818359375" lon="6.8548432923853397369384765625">
        <ele>755</ele>
        <time>2013-08-15T16:39:19.000Z</time>
        <extensions>
          <ns3:TrackPointExtension>
            <ns3:atemp>19.0</ns3:atemp>
            <ns3:hr>143</ns3:hr>
          </ns3:TrackPointExtension>
        </extensions>
      </trkpt>
      <trkpt lat="46.63106379099190235137939453125" lon="6.85493591241538524627685546875">
        <ele>755</ele>
        <time>2013-08-15T16:39:20.000Z</time>
        <extensions>
          <ns3:TrackPointExtension>
            <ns3:atemp>19.0</ns3:atemp>
            <ns3:hr>143</ns3:hr>
          </ns3:TrackPointExtension>
        </extensions>
      </trkpt>
      <trkpt lat="46.6310833208262920379638671875" lon="6.85503087937831878662109375">
        <ele>755</ele>
        <time>2013-08-15T16:39:21.000Z</time>
        <extensions>
          <ns3:TrackPointExtension>
            <ns3:atemp>19.0</ns3:atemp>
            <ns3:hr>143</ns3:hr>
          </ns3:TrackPointExtension>
        </extensions>
      </trkpt>
      <trkpt lat="46.63110838271677494049072265625" lon="6.85512852855026721954345703125">
        <ele>755</ele>
        <time>2013-08-15T16:39:22.000Z</time>
        <extensions>
          <ns3:TrackPointExtension>
            <ns3:atemp>19.0</ns3:atemp>
            <ns3:hr>142</ns3:hr>
          </ns3:TrackPointExtension>
        </extensions>
      </trkpt>
      <trkpt lat="46.6311339475214481353759765625" lon="6.85522961430251598358154296875">
        <ele>755</ele>
        <time>2013-08-15T16:39:23.000Z</time>
        <extensions>
          <ns3:TrackPointExtension>
            <ns3:atemp>19.0</ns3:atemp>
            <ns3:hr>142</ns3:hr>
          </ns3:TrackPointExtension>
        </extensions>
      </trkpt>
      <trkpt lat="46.6311611048877239227294921875" lon="6.8553386628627777099609375">
        <ele>754.79998779296875</ele>
        <time>2013-08-15T16:39:24.000Z</time>
        <extensions>
          <ns3:TrackPointExtension>
            <ns3:atemp>19.0</ns3:atemp>
            <ns3:hr>142</ns3:hr>
          </ns3:TrackPointExtension>
        </extensions>
      </trkpt>
      <trkpt lat="46.63118298165500164031982421875" lon="6.85545860789716243743896484375">
        <ele>754.4000244140625</ele>
        <time>2013-08-15T16:39:25.000Z</time>
        <extensions>
          <ns3:TrackPointExtension>
            <ns3:atemp>19.0</ns3:atemp>
            <ns3:hr>141</ns3:hr>
          </ns3:TrackPointExtension>
        </extensions>
      </trkpt>
      <trkpt lat="46.6311842389404773712158203125" lon="6.8555815704166889190673828125">
        <ele>753.79998779296875</ele>
        <time>2013-08-15T16:39:26.000Z</time>
        <extensions>
          <ns3:TrackPointExtension>
            <ns3:atemp>19.0</ns3:atemp>
            <ns3:hr>141</ns3:hr>
          </ns3:TrackPointExtension>
        </extensions>
      </trkpt>
      <trkpt lat="46.63116102106869220733642578125" lon="6.85569363646209239959716796875">
        <ele>753.5999755859375</ele>
        <time>2013-08-15T16:39:27.000Z</time>
        <extensions>
          <ns3:TrackPointExtension>
            <ns3:atemp>19.0</ns3:atemp>
            <ns3:hr>141</ns3:hr>
          </ns3:TrackPointExtension>
        </extensions>
      </trkpt>
      <trkpt lat="46.63112212903797626495361328125" lon="6.85578248463571071624755859375">
        <ele>753.4000244140625</ele>
        <time>2013-08-15T16:39:28.000Z</time>
        <extensions>
          <ns3:TrackPointExtension>
            <ns3:atemp>19.0</ns3:atemp>
            <ns3:hr>141</ns3:hr>
          </ns3:TrackPointExtension>
        </extensions>
      </trkpt>
      <trkpt lat="46.631072424352169036865234375" lon="6.85585071332752704620361328125">
        <ele>753.4000244140625</ele>
        <time>2013-08-15T16:39:29.000Z</time>
        <extensions>
          <ns3:TrackPointExtension>
            <ns3:atemp>19.0</ns3:atemp>
            <ns3:hr>141</ns3:hr>
          </ns3:TrackPointExtension>
        </extensions>
      </trkpt>
      <trkpt lat="46.63102858699858188629150390625" lon="6.85590259730815887451171875">
        <ele>753.4000244140625</ele>
        <time>2013-08-15T16:39:30.000Z</time>
        <extensions>
          <ns3:TrackPointExtension>
            <ns3:atemp>19.0</ns3:atemp>
            <ns3:hr>142</ns3:hr>
          </ns3:TrackPointExtension>
        </extensions>
      </trkpt>
      <trkpt lat="46.63097980432212352752685546875" lon="6.855943500995635986328125">
        <ele>753.5999755859375</ele>
        <time>2013-08-15T16:39:31.000Z</time>
        <extensions>
          <ns3:TrackPointExtension>
            <ns3:atemp>19.0</ns3:atemp>
            <ns3:hr>142</ns3:hr>
          </ns3:TrackPointExtension>
        </extensions>
      </trkpt>
      <trkpt lat="46.63093236275017261505126953125" lon="6.85596940107643604278564453125">
        <ele>753.5999755859375</ele>
        <time>2013-08-15T16:39:32.000Z</time>
        <extensions>
          <ns3:TrackPointExtension>
            <ns3:atemp>19.0</ns3:atemp>
            <ns3:hr>142</ns3:hr>
          </ns3:TrackPointExtension>
        </extensions>
      </trkpt>
      <trkpt lat="46.63088642992079257965087890625" lon="6.855996139347553253173828125">
        <ele>753.5999755859375</ele>
        <time>2013-08-15T16:39:33.000Z</time>
        <extensions>
          <ns3:TrackPointExtension>
            <ns3:atemp>19.0</ns3:atemp>
            <ns3:hr>141</ns3:hr>
          </ns3:TrackPointExtension>
        </extensions>
      </trkpt>
      <trkpt lat="46.6308439336717128753662109375" lon="6.8560248054563999176025390625">
        <ele>753.5999755859375</ele>
        <time>2013-08-15T16:39:34.000Z</time>
        <extensions>
          <ns3:TrackPointExtension>
            <ns3:atemp>19.0</ns3:atemp>
            <ns3:hr>142</ns3:hr>
          </ns3:TrackPointExtension>
        </extensions>
      </trkpt>
      <trkpt lat="46.6308006830513477325439453125" lon="6.856052465736865997314453125">
        <ele>754</ele>
        <time>2013-08-15T16:39:35.000Z</time>
        <extensions>
          <ns3:TrackPointExtension>
            <ns3:atemp>19.0</ns3:atemp>
            <ns3:hr>142</ns3:hr>
          </ns3:TrackPointExtension>
        </extensions>
      </trkpt>
      <trkpt lat="46.6307617910206317901611328125" lon="6.85608255676925182342529296875">
        <ele>754.4000244140625</ele>
        <time>2013-08-15T16:39:36.000Z</time>
        <extensions>
          <ns3:TrackPointExtension>
            <ns3:atemp>19.0</ns3:atemp>
            <ns3:hr>142</ns3:hr>
          </ns3:TrackPointExtension>
        </extensions>
      </trkpt>
      <trkpt lat="46.6307218931615352630615234375" lon="6.85611407272517681121826171875">
        <ele>754.5999755859375</ele>
        <time>2013-08-15T16:39:37.000Z</time>
        <extensions>
          <ns3:TrackPointExtension>
            <ns3:atemp>19.0</ns3:atemp>
            <ns3:hr>142</ns3:hr>
          </ns3:TrackPointExtension>
        </extensions>
      </trkpt>
      <trkpt lat="46.63068325258791446685791015625" lon="6.85614592395722866058349609375">
        <ele>755</ele>
        <time>2013-08-15T16:39:38.000Z</time>
        <extensions>
          <ns3:TrackPointExtension>
            <ns3:atemp>19.0</ns3:atemp>
            <ns3:hr>141</ns3:hr>
          </ns3:TrackPointExtension>
        </extensions>
      </trkpt>
      <trkpt lat="46.6306434385478496551513671875" lon="6.85617961920797824859619140625">
        <ele>755.4000244140625</ele>
        <time>2013-08-15T16:39:39.000Z</time>
        <extensions>
          <ns3:TrackPointExtension>
            <ns3:atemp>19.0</ns3:atemp>
            <ns3:hr>142</ns3:hr>
          </ns3:TrackPointExtension>
        </extensions>
      </trkpt>
      <trkpt lat="46.63060781545937061309814453125" lon="6.8562182597815990447998046875">
        <ele>755.79998779296875</ele>
        <time>2013-08-15T16:39:40.000Z</time>
        <extensions>
          <ns3:TrackPointExtension>
            <ns3:atemp>19.0</ns3:atemp>
            <ns3:hr>142</ns3:hr>
          </ns3:TrackPointExtension>
        </extensions>
      </trkpt>
      <trkpt lat="46.63056892342865467071533203125" lon="6.85625371523201465606689453125">
        <ele>756</ele>
        <time>2013-08-15T16:39:41.000Z</time>
        <extensions>
          <ns3:TrackPointExtension>
            <ns3:atemp>19.0</ns3:atemp>
            <ns3:hr>142</ns3:hr>
          </ns3:TrackPointExtension>
        </extensions>
      </trkpt>
      <trkpt lat="46.6305269300937652587890625" lon="6.85628154315054416656494140625">
        <ele>756</ele>
        <time>2013-08-15T16:39:42.000Z</time>
        <extensions>
          <ns3:TrackPointExtension>
            <ns3:atemp>19.0</ns3:atemp>
            <ns3:hr>142</ns3:hr>
          </ns3:TrackPointExtension>
        </extensions>
      </trkpt>
      <trkpt lat="46.630483679473400115966796875" lon="6.85630836524069309234619140625">
        <ele>756.20001220703125</ele>
        <time>2013-08-15T16:39:43.000Z</time>
        <extensions>
          <ns3:TrackPointExtension>
            <ns3:atemp>19.0</ns3:atemp>
            <ns3:hr>142</ns3:hr>
          </ns3:TrackPointExtension>
        </extensions>
      </trkpt>
      <trkpt lat="46.63043799810111522674560546875" lon="6.85633317567408084869384765625">
        <ele>756.4000244140625</ele>
        <time>2013-08-15T16:39:44.000Z</time>
        <extensions>
          <ns3:TrackPointExtension>
            <ns3:atemp>19.0</ns3:atemp>
            <ns3:hr>142</ns3:hr>
          </ns3:TrackPointExtension>
        </extensions>
      </trkpt>
      <trkpt lat="46.630395837128162384033203125" lon="6.856355555355548858642578125">
        <ele>756.4000244140625</ele>
        <time>2013-08-15T16:39:45.000Z</time>
        <extensions>
          <ns3:TrackPointExtension>
            <ns3:atemp>19.0</ns3:atemp>
            <ns3:hr>142</ns3:hr>
          </ns3:TrackPointExtension>
        </extensions>
      </trkpt>
      <trkpt lat="46.630355603992938995361328125" lon="6.85637994669377803802490234375">
        <ele>756.5999755859375</ele>
        <time>2013-08-15T16:39:46.000Z</time>
        <extensions>
          <ns3:TrackPointExtension>
            <ns3:atemp>19.0</ns3:atemp>
            <ns3:hr>142</ns3:hr>
          </ns3:TrackPointExtension>
        </extensions>
      </trkpt>
      <trkpt lat="46.63031637668609619140625" lon="6.8564066849648952484130859375">
        <ele>757</ele>
        <time>2013-08-15T16:39:47.000Z</time>
        <extensions>
          <ns3:TrackPointExtension>
            <ns3:atemp>19.0</ns3:atemp>
            <ns3:hr>143</ns3:hr>
          </ns3:TrackPointExtension>
        </extensions>
      </trkpt>
      <trkpt lat="46.6302759759128093719482421875" lon="6.85643258504569530487060546875">
        <ele>757.4000244140625</ele>
        <time>2013-08-15T16:39:48.000Z</time>
        <extensions>
          <ns3:TrackPointExtension>
            <ns3:atemp>19.0</ns3:atemp>
            <ns3:hr>143</ns3:hr>
          </ns3:TrackPointExtension>
        </extensions>
      </trkpt>
      <trkpt lat="46.63023658096790313720703125" lon="6.85645722784101963043212890625">
        <ele>757.79998779296875</ele>
        <time>2013-08-15T16:39:49.000Z</time>
        <extensions>
          <ns3:TrackPointExtension>
            <ns3:atemp>19.0</ns3:atemp>
            <ns3:hr>144</ns3:hr>
          </ns3:TrackPointExtension>
        </extensions>
      </trkpt>
      <trkpt lat="46.63019693456590175628662109375" lon="6.85648019425570964813232421875">
        <ele>757.79998779296875</ele>
        <time>2013-08-15T16:39:50.000Z</time>
        <extensions>
          <ns3:TrackPointExtension>
            <ns3:atemp>19.0</ns3:atemp>
            <ns3:hr>144</ns3:hr>
          </ns3:TrackPointExtension>
        </extensions>
      </trkpt>
      <trkpt lat="46.63015502505004405975341796875" lon="6.85650366358458995819091796875">
        <ele>758.20001220703125</ele>
        <time>2013-08-15T16:39:51.000Z</time>
        <extensions>
          <ns3:TrackPointExtension>
            <ns3:atemp>19.0</ns3:atemp>
            <ns3:hr>144</ns3:hr>
          </ns3:TrackPointExtension>
        </extensions>
      </trkpt>
      <trkpt lat="46.63011588156223297119140625" lon="6.856531910598278045654296875">
        <ele>758.5999755859375</ele>
        <time>2013-08-15T16:39:52.000Z</time>
        <extensions>
          <ns3:TrackPointExtension>
            <ns3:atemp>19.0</ns3:atemp>
            <ns3:hr>144</ns3:hr>
          </ns3:TrackPointExtension>
        </extensions>
      </trkpt>
      <trkpt lat="46.63007707335054874420166015625" lon="6.85655714012682437896728515625">
        <ele>758.79998779296875</ele>
        <time>2013-08-15T16:39:53.000Z</time>
        <extensions>
          <ns3:TrackPointExtension>
            <ns3:atemp>19.0</ns3:atemp>
            <ns3:hr>145</ns3:hr>
          </ns3:TrackPointExtension>
        </extensions>
      </trkpt>
      <trkpt lat="46.6300379298627376556396484375" lon="6.8565832078456878662109375">
        <ele>759</ele>
        <time>2013-08-15T16:39:54.000Z</time>
        <extensions>
          <ns3:TrackPointExtension>
            <ns3:atemp>19.0</ns3:atemp>
            <ns3:hr>145</ns3:hr>
          </ns3:TrackPointExtension>
        </extensions>
      </trkpt>
      <trkpt lat="46.62999727763235569000244140625" lon="6.85660324059426784515380859375">
        <ele>759.20001220703125</ele>
        <time>2013-08-15T16:39:55.000Z</time>
        <extensions>
          <ns3:TrackPointExtension>
            <ns3:atemp>19.0</ns3:atemp>
            <ns3:hr>146</ns3:hr>
          </ns3:TrackPointExtension>
        </extensions>
      </trkpt>
      <trkpt lat="46.629957966506481170654296875" lon="6.85662469826638698577880859375">
        <ele>759.5999755859375</ele>
        <time>2013-08-15T16:39:56.000Z</time>
        <extensions>
          <ns3:TrackPointExtension>
            <ns3:atemp>19.0</ns3:atemp>
            <ns3:hr>146</ns3:hr>
          </ns3:TrackPointExtension>
        </extensions>
      </trkpt>
      <trkpt lat="46.6299189068377017974853515625" lon="6.8566490896046161651611328125">
        <ele>760</ele>
        <time>2013-08-15T16:39:57.000Z</time>
        <extensions>
          <ns3:TrackPointExtension>
            <ns3:atemp>19.0</ns3:atemp>
            <ns3:hr>147</ns3:hr>
          </ns3:TrackPointExtension>
        </extensions>
      </trkpt>
      <trkpt lat="46.62987993098795413970947265625" lon="6.85667373239994049072265625">
        <ele>760.20001220703125</ele>
        <time>2013-08-15T16:39:58.000Z</time>
        <extensions>
          <ns3:TrackPointExtension>
            <ns3:atemp>19.0</ns3:atemp>
            <ns3:hr>147</ns3:hr>
          </ns3:TrackPointExtension>
        </extensions>
      </trkpt>
      <trkpt lat="46.62983936257660388946533203125" lon="6.856699883937835693359375">
        <ele>760.4000244140625</ele>
        <time>2013-08-15T16:39:59.000Z</time>
        <extensions>
          <ns3:TrackPointExtension>
            <ns3:atemp>19.0</ns3:atemp>
            <ns3:hr>147</ns3:hr>
          </ns3:TrackPointExtension>
        </extensions>
      </trkpt>
      <trkpt lat="46.62979929707944393157958984375" lon="6.85672041960060596466064453125">
        <ele>760.79998779296875</ele>
        <time>2013-08-15T16:40:00.000Z</time>
        <extensions>
          <ns3:TrackPointExtension>
            <ns3:atemp>19.0</ns3:atemp>
            <ns3:hr>148</ns3:hr>
          </ns3:TrackPointExtension>
        </extensions>
      </trkpt>
      <trkpt lat="46.6297603212296962738037109375" lon="6.85674539767205715179443359375">
        <ele>761.20001220703125</ele>
        <time>2013-08-15T16:40:01.000Z</time>
        <extensions>
          <ns3:TrackPointExtension>
            <ns3:atemp>19.0</ns3:atemp>
            <ns3:hr>148</ns3:hr>
          </ns3:TrackPointExtension>
        </extensions>
      </trkpt>
      <trkpt lat="46.62972033955156803131103515625" lon="6.8567567132413387298583984375">
        <ele>761.4000244140625</ele>
        <time>2013-08-15T16:40:02.000Z</time>
        <extensions>
          <ns3:TrackPointExtension>
            <ns3:atemp>19.0</ns3:atemp>
            <ns3:hr>148</ns3:hr>
          </ns3:TrackPointExtension>
        </extensions>
      </trkpt>
      <trkpt lat="46.6296801902353763580322265625" lon="6.85676266439259052276611328125">
        <ele>761.4000244140625</ele>
        <time>2013-08-15T16:40:03.000Z</time>
        <extensions>
          <ns3:TrackPointExtension>
            <ns3:atemp>19.0</ns3:atemp>
            <ns3:hr>148</ns3:hr>
          </ns3:TrackPointExtension>
        </extensions>
      </trkpt>
      <trkpt lat="46.62964087910950183868408203125" lon="6.85676450841128826141357421875">
        <ele>761.5999755859375</ele>
        <time>2013-08-15T16:40:04.000Z</time>
        <extensions>
          <ns3:TrackPointExtension>
            <ns3:atemp>19.0</ns3:atemp>
            <ns3:hr>148</ns3:hr>
          </ns3:TrackPointExtension>
        </extensions>
      </trkpt>
      <trkpt lat="46.62960357964038848876953125" lon="6.856765933334827423095703125">
        <ele>761.79998779296875</ele>
        <time>2013-08-15T16:40:05.000Z</time>
        <extensions>
          <ns3:TrackPointExtension>
            <ns3:atemp>19.0</ns3:atemp>
            <ns3:hr>149</ns3:hr>
          </ns3:TrackPointExtension>
        </extensions>
      </trkpt>
      <trkpt lat="46.62956544198095798492431640625" lon="6.85676802881062030792236328125">
        <ele>762.20001220703125</ele>
        <time>2013-08-15T16:40:06.000Z</time>
        <extensions>
          <ns3:TrackPointExtension>
            <ns3:atemp>19.0</ns3:atemp>
            <ns3:hr>149</ns3:hr>
          </ns3:TrackPointExtension>
        </extensions>
      </trkpt>
      <trkpt lat="46.629526801407337188720703125" lon="6.85677171684801578521728515625">
        <ele>762.4000244140625</ele>
        <time>2013-08-15T16:40:07.000Z</time>
        <extensions>
          <ns3:TrackPointExtension>
            <ns3:atemp>19.0</ns3:atemp>
            <ns3:hr>149</ns3:hr>
          </ns3:TrackPointExtension>
        </extensions>
      </trkpt>
      <trkpt lat="46.6294877417385578155517578125" lon="6.8567684479057788848876953125">
        <ele>762.79998779296875</ele>
        <time>2013-08-15T16:40:08.000Z</time>
        <extensions>
          <ns3:TrackPointExtension>
            <ns3:atemp>19.0</ns3:atemp>
            <ns3:hr>149</ns3:hr>
          </ns3:TrackPointExtension>
        </extensions>
      </trkpt>
      <trkpt lat="46.62944977171719074249267578125" lon="6.8567550368607044219970703125">
        <ele>763</ele>
        <time>2013-08-15T16:40:09.000Z</time>
        <extensions>
          <ns3:TrackPointExtension>
            <ns3:atemp>19.0</ns3:atemp>
            <ns3:hr>150</ns3:hr>
          </ns3:TrackPointExtension>
        </extensions>
      </trkpt>
      <trkpt lat="46.62941222079098224639892578125" lon="6.85673802159726619720458984375">
        <ele>763.5999755859375</ele>
        <time>2013-08-15T16:40:10.000Z</time>
        <extensions>
          <ns3:TrackPointExtension>
            <ns3:atemp>19.0</ns3:atemp>
            <ns3:hr>150</ns3:hr>
          </ns3:TrackPointExtension>
        </extensions>
      </trkpt>
      <trkpt lat="46.629372574388980865478515625" lon="6.85671974904835224151611328125">
        <ele>763.5999755859375</ele>
        <time>2013-08-15T16:40:11.000Z</time>
        <extensions>
          <ns3:TrackPointExtension>
            <ns3:atemp>19.0</ns3:atemp>
            <ns3:hr>150</ns3:hr>
          </ns3:TrackPointExtension>
        </extensions>
      </trkpt>
      <trkpt lat="46.6293348558247089385986328125" lon="6.85669845901429653167724609375">
        <ele>763.79998779296875</ele>
        <time>2013-08-15T16:40:12.000Z</time>
        <extensions>
          <ns3:TrackPointExtension>
            <ns3:atemp>19.0</ns3:atemp>
            <ns3:hr>150</ns3:hr>
          </ns3:TrackPointExtension>
        </extensions>
      </trkpt>
      <trkpt lat="46.629298813641071319580078125" lon="6.85666970908641815185546875">
        <ele>764</ele>
        <time>2013-08-15T16:40:13.000Z</time>
        <extensions>
          <ns3:TrackPointExtension>
            <ns3:atemp>19.0</ns3:atemp>
            <ns3:hr>150</ns3:hr>
          </ns3:TrackPointExtension>
        </extensions>
      </trkpt>
      <trkpt lat="46.62926495075225830078125" lon="6.85663458891212940216064453125">
        <ele>764</ele>
        <time>2013-08-15T16:40:14.000Z</time>
        <extensions>
          <ns3:TrackPointExtension>
            <ns3:atemp>19.0</ns3:atemp>
            <ns3:hr>150</ns3:hr>
          </ns3:TrackPointExtension>
        </extensions>
      </trkpt>
      <trkpt lat="46.62922983057796955108642578125" lon="6.8565954454243183135986328125">
        <ele>764</ele>
        <time>2013-08-15T16:40:15.000Z</time>
        <extensions>
          <ns3:TrackPointExtension>
            <ns3:atemp>19.0</ns3:atemp>
            <ns3:hr>150</ns3:hr>
          </ns3:TrackPointExtension>
        </extensions>
      </trkpt>
      <trkpt lat="46.62919320166110992431640625" lon="6.856552027165889739990234375">
        <ele>764</ele>
        <time>2013-08-15T16:40:16.000Z</time>
        <extensions>
          <ns3:TrackPointExtension>
            <ns3:atemp>19.0</ns3:atemp>
            <ns3:hr>150</ns3:hr>
          </ns3:TrackPointExtension>
        </extensions>
      </trkpt>
      <trkpt lat="46.62915472872555255889892578125" lon="6.8565094470977783203125">
        <ele>764</ele>
        <time>2013-08-15T16:40:17.000Z</time>
        <extensions>
          <ns3:TrackPointExtension>
            <ns3:atemp>19.0</ns3:atemp>
            <ns3:hr>150</ns3:hr>
          </ns3:TrackPointExtension>
        </extensions>
      </trkpt>
      <trkpt lat="46.62911348976194858551025390625" lon="6.8564656935632228851318359375">
        <ele>764.20001220703125</ele>
        <time>2013-08-15T16:40:18.000Z</time>
        <extensions>
          <ns3:TrackPointExtension>
            <ns3:atemp>19.0</ns3:atemp>
            <ns3:hr>150</ns3:hr>
          </ns3:TrackPointExtension>
        </extensions>
      </trkpt>
      <trkpt lat="46.6290716640651226043701171875" lon="6.856417246162891387939453125">
        <ele>764.20001220703125</ele>
        <time>2013-08-15T16:40:19.000Z</time>
        <extensions>
          <ns3:TrackPointExtension>
            <ns3:atemp>19.0</ns3:atemp>
            <ns3:hr>149</ns3:hr>
          </ns3:TrackPointExtension>
        </extensions>
      </trkpt>
      <trkpt lat="46.6290280781686305999755859375" lon="6.85636368580162525177001953125">
        <ele>764.20001220703125</ele>
        <time>2013-08-15T16:40:20.000Z</time>
        <extensions>
          <ns3:TrackPointExtension>
            <ns3:atemp>19.0</ns3:atemp>
            <ns3:hr>149</ns3:hr>
          </ns3:TrackPointExtension>
        </extensions>
      </trkpt>
      <trkpt lat="46.62898239679634571075439453125" lon="6.8563067726790904998779296875">
        <ele>764.20001220703125</ele>
        <time>2013-08-15T16:40:21.000Z</time>
        <extensions>
          <ns3:TrackPointExtension>
            <ns3:atemp>19.0</ns3:atemp>
            <ns3:hr>149</ns3:hr>
          </ns3:TrackPointExtension>
        </extensions>
      </trkpt>
      <trkpt lat="46.62893596105277538299560546875" lon="6.85624382458627223968505859375">
        <ele>764</ele>
        <time>2013-08-15T16:40:22.000Z</time>
        <extensions>
          <ns3:TrackPointExtension>
            <ns3:atemp>19.0</ns3:atemp>
            <ns3:hr>149</ns3:hr>
          </ns3:TrackPointExtension>
        </extensions>
      </trkpt>
      <trkpt lat="46.62888734601438045501708984375" lon="6.856181211769580841064453125">
        <ele>764.20001220703125</ele>
        <time>2013-08-15T16:40:23.000Z</time>
        <extensions>
          <ns3:TrackPointExtension>
            <ns3:atemp>19.0</ns3:atemp>
            <ns3:hr>149</ns3:hr>
          </ns3:TrackPointExtension>
        </extensions>
      </trkpt>
      <trkpt lat="46.62883722223341464996337890625" lon="6.8561153300106525421142578125">
        <ele>764.20001220703125</ele>
        <time>2013-08-15T16:40:24.000Z</time>
        <extensions>
          <ns3:TrackPointExtension>
            <ns3:atemp>19.0</ns3:atemp>
            <ns3:hr>149</ns3:hr>
          </ns3:TrackPointExtension>
        </extensions>
      </trkpt>
      <trkpt lat="46.62878106348216533660888671875" lon="6.856050789356231689453125">
        <ele>763.79998779296875</ele>
        <time>2013-08-15T16:40:25.000Z</time>
        <extensions>
          <ns3:TrackPointExtension>
            <ns3:atemp>19.0</ns3:atemp>
            <ns3:hr>148</ns3:hr>
          </ns3:TrackPointExtension>
        </extensions>
      </trkpt>
      <trkpt lat="46.62872456945478916168212890625" lon="6.8559862487018108367919921875">
        <ele>763.79998779296875</ele>
        <time>2013-08-15T16:40:26.000Z</time>
        <extensions>
          <ns3:TrackPointExtension>
            <ns3:atemp>19.0</ns3:atemp>
            <ns3:hr>148</ns3:hr>
          </ns3:TrackPointExtension>
        </extensions>
      </trkpt>
      <trkpt lat="46.628668494522571563720703125" lon="6.85591894201934337615966796875">
        <ele>763.5999755859375</ele>
        <time>2013-08-15T16:40:27.000Z</time>
        <extensions>
          <ns3:TrackPointExtension>
            <ns3:atemp>19.0</ns3:atemp>
            <ns3:hr>147</ns3:hr>
          </ns3:TrackPointExtension>
        </extensions>
      </trkpt>
      <trkpt lat="46.6286153532564640045166015625" lon="6.85585163533687591552734375">
        <ele>763.4000244140625</ele>
        <time>2013-08-15T16:40:28.000Z</time>
        <extensions>
          <ns3:TrackPointExtension>
            <ns3:atemp>19.0</ns3:atemp>
            <ns3:hr>147</ns3:hr>
          </ns3:TrackPointExtension>
        </extensions>
      </trkpt>
      <trkpt lat="46.62856732495129108428955078125" lon="6.85578751377761363983154296875">
        <ele>763</ele>
        <time>2013-08-15T16:40:29.000Z</time>
        <extensions>
          <ns3:TrackPointExtension>
            <ns3:atemp>19.0</ns3:atemp>
            <ns3:hr>146</ns3:hr>
          </ns3:TrackPointExtension>
        </extensions>
      </trkpt>
      <trkpt lat="46.62851728498935699462890625" lon="6.85572381131350994110107421875">
        <ele>762.5999755859375</ele>
        <time>2013-08-15T16:40:30.000Z</time>
        <extensions>
          <ns3:TrackPointExtension>
            <ns3:atemp>19.0</ns3:atemp>
            <ns3:hr>146</ns3:hr>
          </ns3:TrackPointExtension>
        </extensions>
      </trkpt>
      <trkpt lat="46.62846372462809085845947265625" lon="6.85566128231585025787353515625">
        <ele>762.20001220703125</ele>
        <time>2013-08-15T16:40:31.000Z</time>
        <extensions>
          <ns3:TrackPointExtension>
            <ns3:atemp>19.0</ns3:atemp>
            <ns3:hr>145</ns3:hr>
          </ns3:TrackPointExtension>
        </extensions>
      </trkpt>
      <trkpt lat="46.62840806879103183746337890625" lon="6.85559690929949283599853515625">
        <ele>762</ele>
        <time>2013-08-15T16:40:32.000Z</time>
        <extensions>
          <ns3:TrackPointExtension>
            <ns3:atemp>19.0</ns3:atemp>
            <ns3:hr>145</ns3:hr>
          </ns3:TrackPointExtension>
        </extensions>
      </trkpt>
      <trkpt lat="46.62834503687918186187744140625" lon="6.8555342964828014373779296875">
        <ele>761.79998779296875</ele>
        <time>2013-08-15T16:40:33.000Z</time>
        <extensions>
          <ns3:TrackPointExtension>
            <ns3:atemp>19.0</ns3:atemp>
            <ns3:hr>145</ns3:hr>
          </ns3:TrackPointExtension>
        </extensions>
      </trkpt>
      <trkpt lat="46.62828016094863414764404296875" lon="6.855480484664440155029296875">
        <ele>761.79998779296875</ele>
        <time>2013-08-15T16:40:34.000Z</time>
        <extensions>
          <ns3:TrackPointExtension>
            <ns3:atemp>19.0</ns3:atemp>
            <ns3:hr>145</ns3:hr>
          </ns3:TrackPointExtension>
        </extensions>
      </trkpt>
      <trkpt lat="46.628211848437786102294921875" lon="6.85543061234056949615478515625">
        <ele>761.79998779296875</ele>
        <time>2013-08-15T16:40:35.000Z</time>
        <extensions>
          <ns3:TrackPointExtension>
            <ns3:atemp>19.0</ns3:atemp>
            <ns3:hr>144</ns3:hr>
          </ns3:TrackPointExtension>
        </extensions>
      </trkpt>
      <trkpt lat="46.6281332261860370635986328125" lon="6.85538736172020435333251953125">
        <ele>761.5999755859375</ele>
        <time>2013-08-15T16:40:36.000Z</time>
        <extensions>
          <ns3:TrackPointExtension>
            <ns3:atemp>19.0</ns3:atemp>
            <ns3:hr>144</ns3:hr>
          </ns3:TrackPointExtension>
        </extensions>
      </trkpt>
      <trkpt lat="46.62805334664881229400634765625" lon="6.8553482182323932647705078125">
        <ele>761.20001220703125</ele>
        <time>2013-08-15T16:40:37.000Z</time>
        <extensions>
          <ns3:TrackPointExtension>
            <ns3:atemp>19.0</ns3:atemp>
            <ns3:hr>143</ns3:hr>
          </ns3:TrackPointExtension>
        </extensions>
      </trkpt>
      <trkpt lat="46.627972461283206939697265625" lon="6.85531678609549999237060546875">
        <ele>760.79998779296875</ele>
        <time>2013-08-15T16:40:38.000Z</time>
        <extensions>
          <ns3:TrackPointExtension>
            <ns3:atemp>19.0</ns3:atemp>
            <ns3:hr>143</ns3:hr>
          </ns3:TrackPointExtension>
        </extensions>
      </trkpt>
      <trkpt lat="46.6278965212404727935791015625" lon="6.85529817827045917510986328125">
        <ele>760.20001220703125</ele>
        <time>2013-08-15T16:40:39.000Z</time>
        <extensions>
          <ns3:TrackPointExtension>
            <ns3:atemp>19.0</ns3:atemp>
            <ns3:hr>141</ns3:hr>
          </ns3:TrackPointExtension>
        </extensions>
      </trkpt>
      <trkpt lat="46.6278220899403095245361328125" lon="6.85529247857630252838134765625">
        <ele>759.79998779296875</ele>
        <time>2013-08-15T16:40:40.000Z</time>
        <extensions>
          <ns3:TrackPointExtension>
            <ns3:atemp>19.0</ns3:atemp>
            <ns3:hr>140</ns3:hr>
          </ns3:TrackPointExtension>
        </extensions>
      </trkpt>
      <trkpt lat="46.62774573080241680145263671875" lon="6.8552925623953342437744140625">
        <ele>759</ele>
        <time>2013-08-15T16:40:41.000Z</time>
        <extensions>
          <ns3:TrackPointExtension>
            <ns3:atemp>19.0</ns3:atemp>
            <ns3:hr>139</ns3:hr>
          </ns3:TrackPointExtension>
        </extensions>
      </trkpt>
      <trkpt lat="46.62766761146485805511474609375" lon="6.8553029559552669525146484375">
        <ele>758.5999755859375</ele>
        <time>2013-08-15T16:40:42.000Z</time>
        <extensions>
          <ns3:TrackPointExtension>
            <ns3:atemp>19.0</ns3:atemp>
            <ns3:hr>139</ns3:hr>
          </ns3:TrackPointExtension>
        </extensions>
      </trkpt>
      <trkpt lat="46.62758379243314266204833984375" lon="6.855323575437068939208984375">
        <ele>758.20001220703125</ele>
        <time>2013-08-15T16:40:43.000Z</time>
        <extensions>
          <ns3:TrackPointExtension>
            <ns3:atemp>19.0</ns3:atemp>
            <ns3:hr>138</ns3:hr>
          </ns3:TrackPointExtension>
        </extensions>
      </trkpt>
      <trkpt lat="46.62749469280242919921875" lon="6.855362467467784881591796875">
        <ele>757.5999755859375</ele>
        <time>2013-08-15T16:40:44.000Z</time>
        <extensions>
          <ns3:TrackPointExtension>
            <ns3:atemp>19.0</ns3:atemp>
            <ns3:hr>138</ns3:hr>
          </ns3:TrackPointExtension>
        </extensions>
      </trkpt>
      <trkpt lat="46.62740358151495456695556640625" lon="6.85539993457496166229248046875">
        <ele>756.5999755859375</ele>
        <time>2013-08-15T16:40:45.000Z</time>
        <extensions>
          <ns3:TrackPointExtension>
            <ns3:atemp>19.0</ns3:atemp>
            <ns3:hr>137</ns3:hr>
          </ns3:TrackPointExtension>
        </extensions>
      </trkpt>
      <trkpt lat="46.6273020766675472259521484375" lon="6.85543782077729701995849609375">
        <ele>755</ele>
        <time>2013-08-15T16:40:46.000Z</time>
        <extensions>
          <ns3:TrackPointExtension>
            <ns3:atemp>19.0</ns3:atemp>
            <ns3:hr>136</ns3:hr>
          </ns3:TrackPointExtension>
        </extensions>
      </trkpt>
      <trkpt lat="46.627195291221141815185546875" lon="6.85546682216227054595947265625">
        <ele>754.20001220703125</ele>
        <time>2013-08-15T16:40:47.000Z</time>
        <extensions>
          <ns3:TrackPointExtension>
            <ns3:atemp>19.0</ns3:atemp>
            <ns3:hr>135</ns3:hr>
          </ns3:TrackPointExtension>
        </extensions>
      </trkpt>
      <trkpt lat="46.62709345109760761260986328125" lon="6.85548693872988224029541015625">
        <ele>752.79998779296875</ele>
        <time>2013-08-15T16:40:48.000Z</time>
        <extensions>
          <ns3:TrackPointExtension>
            <ns3:atemp>19.0</ns3:atemp>
            <ns3:hr>135</ns3:hr>
          </ns3:TrackPointExtension>
        </extensions>
      </trkpt>
      <trkpt lat="46.6269758529961109161376953125" lon="6.85549817048013210296630859375">
        <ele>750.5999755859375</ele>
        <time>2013-08-15T16:40:49.000Z</time>
        <extensions>
          <ns3:TrackPointExtension>
            <ns3:atemp>19.0</ns3:atemp>
            <ns3:hr>134</ns3:hr>
          </ns3:TrackPointExtension>
        </extensions>
      </trkpt>
      <trkpt lat="46.62685037590563297271728515625" lon="6.8555135093629360198974609375">
        <ele>749.4000244140625</ele>
        <time>2013-08-15T16:40:50.000Z</time>
        <extensions>
          <ns3:TrackPointExtension>
            <ns3:atemp>19.0</ns3:atemp>
            <ns3:hr>133</ns3:hr>
          </ns3:TrackPointExtension>
        </extensions>
      </trkpt>
      <trkpt lat="46.626722551882266998291015625" lon="6.8555406667292118072509765625">
        <ele>747.79998779296875</ele>
        <time>2013-08-15T16:40:51.000Z</time>
        <extensions>
          <ns3:TrackPointExtension>
            <ns3:atemp>19.0</ns3:atemp>
            <ns3:hr>132</ns3:hr>
          </ns3:TrackPointExtension>
        </extensions>
      </trkpt>
      <trkpt lat="46.6266028583049774169921875" lon="6.8555802293121814727783203125">
        <ele>745.20001220703125</ele>
        <time>2013-08-15T16:40:52.000Z</time>
        <extensions>
          <ns3:TrackPointExtension>
            <ns3:atemp>19.0</ns3:atemp>
            <ns3:hr>131</ns3:hr>
          </ns3:TrackPointExtension>
        </extensions>
      </trkpt>
      <trkpt lat="46.62648106925189495086669921875" lon="6.8556207977235317230224609375">
        <ele>743.5999755859375</ele>
        <time>2013-08-15T16:40:53.000Z</time>
        <extensions>
          <ns3:TrackPointExtension>
            <ns3:atemp>19.0</ns3:atemp>
            <ns3:hr>130</ns3:hr>
          </ns3:TrackPointExtension>
        </extensions>
      </trkpt>
      <trkpt lat="46.62636171095073223114013671875" lon="6.85565046966075897216796875">
        <ele>742</ele>
        <time>2013-08-15T16:40:54.000Z</time>
        <extensions>
          <ns3:TrackPointExtension>
            <ns3:atemp>19.0</ns3:atemp>
            <ns3:hr>129</ns3:hr>
          </ns3:TrackPointExtension>
        </extensions>
      </trkpt>
      <trkpt lat="46.626248471438884735107421875" lon="6.85569313354790210723876953125">
        <ele>741.20001220703125</ele>
        <time>2013-08-15T16:40:55.000Z</time>
        <extensions>
          <ns3:TrackPointExtension>
            <ns3:atemp>19.0</ns3:atemp>
            <ns3:hr>128</ns3:hr>
          </ns3:TrackPointExtension>
        </extensions>
      </trkpt>
      <trkpt lat="46.6261443682014942169189453125" lon="6.85573889873921871185302734375">
        <ele>739.20001220703125</ele>
        <time>2013-08-15T16:40:56.000Z</time>
        <extensions>
          <ns3:TrackPointExtension>
            <ns3:atemp>19.0</ns3:atemp>
            <ns3:hr>127</ns3:hr>
          </ns3:TrackPointExtension>
        </extensions>
      </trkpt>
      <trkpt lat="46.62605107761919498443603515625" lon="6.85576739721000194549560546875">
        <ele>737.20001220703125</ele>
        <time>2013-08-15T16:40:57.000Z</time>
        <extensions>
          <ns3:TrackPointExtension>
            <ns3:atemp>19.0</ns3:atemp>
            <ns3:hr>126</ns3:hr>
          </ns3:TrackPointExtension>
        </extensions>
      </trkpt>
      <trkpt lat="46.625957451760768890380859375" lon="6.85578533448278903961181640625">
        <ele>734.79998779296875</ele>
        <time>2013-08-15T16:40:58.000Z</time>
        <extensions>
          <ns3:TrackPointExtension>
            <ns3:atemp>19.0</ns3:atemp>
            <ns3:hr>125</ns3:hr>
          </ns3:TrackPointExtension>
        </extensions>
      </trkpt>
      <trkpt lat="46.62586650811135768890380859375" lon="6.8557951413094997406005859375">
        <ele>733</ele>
        <time>2013-08-15T16:40:59.000Z</time>
        <extensions>
          <ns3:TrackPointExtension>
            <ns3:atemp>19.0</ns3:atemp>
            <ns3:hr>125</ns3:hr>
          </ns3:TrackPointExtension>
        </extensions>
      </trkpt>
      <trkpt lat="46.62577698938548564910888671875" lon="6.8557974882423877716064453125">
        <ele>731.5999755859375</ele>
        <time>2013-08-15T16:41:00.000Z</time>
        <extensions>
          <ns3:TrackPointExtension>
            <ns3:atemp>19.0</ns3:atemp>
            <ns3:hr>124</ns3:hr>
          </ns3:TrackPointExtension>
        </extensions>
      </trkpt>
      <trkpt lat="46.62569736130535602569580078125" lon="6.8557827360928058624267578125">
        <ele>730.4000244140625</ele>
        <time>2013-08-15T16:41:01.000Z</time>
        <extensions>
          <ns3:TrackPointExtension>
            <ns3:atemp>19.0</ns3:atemp>
            <ns3:hr>123</ns3:hr>
          </ns3:TrackPointExtension>
        </extensions>
      </trkpt>
      <trkpt lat="46.625622175633907318115234375" lon="6.85576404444873332977294921875">
        <ele>729</ele>
        <time>2013-08-15T16:41:02.000Z</time>
        <extensions>
          <ns3:TrackPointExtension>
            <ns3:atemp>19.0</ns3:atemp>
            <ns3:hr>122</ns3:hr>
          </ns3:TrackPointExtension>
        </extensions>
      </trkpt>
      <trkpt lat="46.62555369548499584197998046875" lon="6.85574912466108798980712890625">
        <ele>727.20001220703125</ele>
        <time>2013-08-15T16:41:03.000Z</time>
        <extensions>
          <ns3:TrackPointExtension>
            <ns3:atemp>19.0</ns3:atemp>
            <ns3:hr>121</ns3:hr>
          </ns3:TrackPointExtension>
        </extensions>
      </trkpt>
      <trkpt lat="46.625491417944431304931640625" lon="6.8557508848607540130615234375">
        <ele>725.4000244140625</ele>
        <time>2013-08-15T16:41:04.000Z</time>
        <extensions>
          <ns3:TrackPointExtension>
            <ns3:atemp>19.0</ns3:atemp>
            <ns3:hr>120</ns3:hr>
          </ns3:TrackPointExtension>
        </extensions>
      </trkpt>
      <trkpt lat="46.62543735466897487640380859375" lon="6.8557599373161792755126953125">
        <ele>723.79998779296875</ele>
        <time>2013-08-15T16:41:05.000Z</time>
        <extensions>
          <ns3:TrackPointExtension>
            <ns3:atemp>19.0</ns3:atemp>
            <ns3:hr>120</ns3:hr>
          </ns3:TrackPointExtension>
        </extensions>
      </trkpt>
      <trkpt lat="46.62538035772740840911865234375" lon="6.85578449629247188568115234375">
        <ele>722.4000244140625</ele>
        <time>2013-08-15T16:41:06.000Z</time>
        <extensions>
          <ns3:TrackPointExtension>
            <ns3:atemp>19.0</ns3:atemp>
            <ns3:hr>119</ns3:hr>
          </ns3:TrackPointExtension>
        </extensions>
      </trkpt>
      <trkpt lat="46.6253249533474445343017578125" lon="6.85581383295357227325439453125">
        <ele>722</ele>
        <time>2013-08-15T16:41:07.000Z</time>
        <extensions>
          <ns3:TrackPointExtension>
            <ns3:atemp>19.0</ns3:atemp>
            <ns3:hr>119</ns3:hr>
          </ns3:TrackPointExtension>
        </extensions>
      </trkpt>
      <trkpt lat="46.62528522312641143798828125" lon="6.8558628670871257781982421875">
        <ele>721.5999755859375</ele>
        <time>2013-08-15T16:41:08.000Z</time>
        <extensions>
          <ns3:TrackPointExtension>
            <ns3:atemp>19.0</ns3:atemp>
            <ns3:hr>120</ns3:hr>
          </ns3:TrackPointExtension>
        </extensions>
      </trkpt>
      <trkpt lat="46.62524591200053691864013671875" lon="6.855920366942882537841796875">
        <ele>721.5999755859375</ele>
        <time>2013-08-15T16:41:09.000Z</time>
        <extensions>
          <ns3:TrackPointExtension>
            <ns3:atemp>19.0</ns3:atemp>
            <ns3:hr>120</ns3:hr>
          </ns3:TrackPointExtension>
        </extensions>
      </trkpt>
      <trkpt lat="46.6252139769494533538818359375" lon="6.85598867945373058319091796875">
        <ele>721.5999755859375</ele>
        <time>2013-08-15T16:41:10.000Z</time>
        <extensions>
          <ns3:TrackPointExtension>
            <ns3:atemp>19.0</ns3:atemp>
            <ns3:hr>121</ns3:hr>
          </ns3:TrackPointExtension>
        </extensions>
      </trkpt>
      <trkpt lat="46.62518690340220928192138671875" lon="6.8560630269348621368408203125">
        <ele>721.79998779296875</ele>
        <time>2013-08-15T16:41:11.000Z</time>
        <extensions>
          <ns3:TrackPointExtension>
            <ns3:atemp>19.0</ns3:atemp>
            <ns3:hr>122</ns3:hr>
          </ns3:TrackPointExtension>
        </extensions>
      </trkpt>
      <trkpt lat="46.6251620091497898101806640625" lon="6.85614290647208690643310546875">
        <ele>721.79998779296875</ele>
        <time>2013-08-15T16:41:12.000Z</time>
        <extensions>
          <ns3:TrackPointExtension>
            <ns3:atemp>19.0</ns3:atemp>
            <ns3:hr>122</ns3:hr>
          </ns3:TrackPointExtension>
        </extensions>
      </trkpt>
      <trkpt lat="46.62516561336815357208251953125" lon="6.85625455342233180999755859375">
        <ele>722.20001220703125</ele>
        <time>2013-08-15T16:41:13.000Z</time>
        <extensions>
          <ns3:TrackPointExtension>
            <ns3:atemp>19.0</ns3:atemp>
            <ns3:hr>122</ns3:hr>
          </ns3:TrackPointExtension>
        </extensions>
      </trkpt>
      <trkpt lat="46.6251651942729949951171875" lon="6.8563641048967838287353515625">
        <ele>722.5999755859375</ele>
        <time>2013-08-15T16:41:14.000Z</time>
        <extensions>
          <ns3:TrackPointExtension>
            <ns3:atemp>19.0</ns3:atemp>
            <ns3:hr>123</ns3:hr>
          </ns3:TrackPointExtension>
        </extensions>
      </trkpt>
      <trkpt lat="46.62516276352107524871826171875" lon="6.8564700521528720855712890625">
        <ele>722.79998779296875</ele>
        <time>2013-08-15T16:41:15.000Z</time>
        <extensions>
          <ns3:TrackPointExtension>
            <ns3:atemp>19.0</ns3:atemp>
            <ns3:hr>124</ns3:hr>
          </ns3:TrackPointExtension>
        </extensions>
      </trkpt>
      <trkpt lat="46.62516477517783641815185546875" lon="6.85657960362732410430908203125">
        <ele>722.79998779296875</ele>
        <time>2013-08-15T16:41:16.000Z</time>
        <extensions>
          <ns3:TrackPointExtension>
            <ns3:atemp>19.0</ns3:atemp>
            <ns3:hr>124</ns3:hr>
          </ns3:TrackPointExtension>
        </extensions>
      </trkpt>
      <trkpt lat="46.6251610033214092254638671875" lon="6.8566806055605411529541015625">
        <ele>722.79998779296875</ele>
        <time>2013-08-15T16:41:17.000Z</time>
        <extensions>
          <ns3:TrackPointExtension>
            <ns3:atemp>19.0</ns3:atemp>
            <ns3:hr>125</ns3:hr>
          </ns3:TrackPointExtension>
        </extensions>
      </trkpt>
      <trkpt lat="46.62515270523726940155029296875" lon="6.85677322559058666229248046875">
        <ele>722.4000244140625</ele>
        <time>2013-08-15T16:41:18.000Z</time>
        <extensions>
          <ns3:TrackPointExtension>
            <ns3:atemp>19.0</ns3:atemp>
            <ns3:hr>125</ns3:hr>
          </ns3:TrackPointExtension>
        </extensions>
      </trkpt>
      <trkpt lat="46.6251368634402751922607421875" lon="6.85686140321195125579833984375">
        <ele>722.4000244140625</ele>
        <time>2013-08-15T16:41:19.000Z</time>
        <extensions>
          <ns3:TrackPointExtension>
            <ns3:atemp>19.0</ns3:atemp>
            <ns3:hr>126</ns3:hr>
          </ns3:TrackPointExtension>
        </extensions>
      </trkpt>
      <trkpt lat="46.62512336857616901397705078125" lon="6.8569444678723812103271484375">
        <ele>722.20001220703125</ele>
        <time>2013-08-15T16:41:20.000Z</time>
        <extensions>
          <ns3:TrackPointExtension>
            <ns3:atemp>19.0</ns3:atemp>
            <ns3:hr>127</ns3:hr>
          </ns3:TrackPointExtension>
        </extensions>
      </trkpt>
      <trkpt lat="46.625108532607555389404296875" lon="6.8570205755531787872314453125">
        <ele>722.5999755859375</ele>
        <time>2013-08-15T16:41:21.000Z</time>
        <extensions>
          <ns3:TrackPointExtension>
            <ns3:atemp>19.0</ns3:atemp>
            <ns3:hr>127</ns3:hr>
          </ns3:TrackPointExtension>
        </extensions>
      </trkpt>
      <trkpt lat="46.62509453482925891876220703125" lon="6.8570913188159465789794921875">
        <ele>723</ele>
        <time>2013-08-15T16:41:22.000Z</time>
        <extensions>
          <ns3:TrackPointExtension>
            <ns3:atemp>19.0</ns3:atemp>
            <ns3:hr>127</ns3:hr>
          </ns3:TrackPointExtension>
        </extensions>
      </trkpt>
      <trkpt lat="46.62507601082324981689453125" lon="6.857154183089733123779296875">
        <ele>723.79998779296875</ele>
        <time>2013-08-15T16:41:23.000Z</time>
        <extensions>
          <ns3:TrackPointExtension>
            <ns3:atemp>19.0</ns3:atemp>
            <ns3:hr>128</ns3:hr>
          </ns3:TrackPointExtension>
        </extensions>
      </trkpt>
      <trkpt lat="46.62506125867366790771484375" lon="6.85721822082996368408203125">
        <ele>724.20001220703125</ele>
        <time>2013-08-15T16:41:24.000Z</time>
        <extensions>
          <ns3:TrackPointExtension>
            <ns3:atemp>19.0</ns3:atemp>
            <ns3:hr>128</ns3:hr>
          </ns3:TrackPointExtension>
        </extensions>
      </trkpt>
      <trkpt lat="46.6250483505427837371826171875" lon="6.857279241085052490234375">
        <ele>724.4000244140625</ele>
        <time>2013-08-15T16:41:25.000Z</time>
        <extensions>
          <ns3:TrackPointExtension>
            <ns3:atemp>19.0</ns3:atemp>
            <ns3:hr>129</ns3:hr>
          </ns3:TrackPointExtension>
        </extensions>
      </trkpt>
      <trkpt lat="46.6250366158783435821533203125" lon="6.8573404289782047271728515625">
        <ele>724.79998779296875</ele>
        <time>2013-08-15T16:41:26.000Z</time>
        <extensions>
          <ns3:TrackPointExtension>
            <ns3:atemp>19.0</ns3:atemp>
            <ns3:hr>129</ns3:hr>
          </ns3:TrackPointExtension>
        </extensions>
      </trkpt>
      <trkpt lat="46.6250258870422840118408203125" lon="6.85740061104297637939453125">
        <ele>725</ele>
        <time>2013-08-15T16:41:27.000Z</time>
        <extensions>
          <ns3:TrackPointExtension>
            <ns3:atemp>19.0</ns3:atemp>
            <ns3:hr>130</ns3:hr>
          </ns3:TrackPointExtension>
        </extensions>
      </trkpt>
      <trkpt lat="46.6250161640346050262451171875" lon="6.85745869763195514678955078125">
        <ele>725.20001220703125</ele>
        <time>2013-08-15T16:41:28.000Z</time>
        <extensions>
          <ns3:TrackPointExtension>
            <ns3:atemp>19.0</ns3:atemp>
            <ns3:hr>131</ns3:hr>
          </ns3:TrackPointExtension>
        </extensions>
      </trkpt>
      <trkpt lat="46.625010967254638671875" lon="6.857519634068012237548828125">
        <ele>725.5999755859375</ele>
        <time>2013-08-15T16:41:29.000Z</time>
        <extensions>
          <ns3:TrackPointExtension>
            <ns3:atemp>19.0</ns3:atemp>
            <ns3:hr>131</ns3:hr>
          </ns3:TrackPointExtension>
        </extensions>
      </trkpt>
      <trkpt lat="46.62501423619687557220458984375" lon="6.85757738538086414337158203125">
        <ele>726</ele>
        <time>2013-08-15T16:41:30.000Z</time>
        <extensions>
          <ns3:TrackPointExtension>
            <ns3:atemp>19.0</ns3:atemp>
            <ns3:hr>132</ns3:hr>
          </ns3:TrackPointExtension>
        </extensions>
      </trkpt>
      <trkpt lat="46.62501172162592411041259765625" lon="6.8576324544847011566162109375">
        <ele>726.20001220703125</ele>
        <time>2013-08-15T16:41:31.000Z</time>
        <extensions>
          <ns3:TrackPointExtension>
            <ns3:atemp>19.0</ns3:atemp>
            <ns3:hr>133</ns3:hr>
          </ns3:TrackPointExtension>
        </extensions>
      </trkpt>
      <trkpt lat="46.62500887177884578704833984375" lon="6.85768534429371356964111328125">
        <ele>726.4000244140625</ele>
        <time>2013-08-15T16:41:32.000Z</time>
        <extensions>
          <ns3:TrackPointExtension>
            <ns3:atemp>19.0</ns3:atemp>
            <ns3:hr>134</ns3:hr>
          </ns3:TrackPointExtension>
        </extensions>
      </trkpt>
      <trkpt lat="46.62501155398786067962646484375" lon="6.85774368233978748321533203125">
        <ele>726.5999755859375</ele>
        <time>2013-08-15T16:41:33.000Z</time>
        <extensions>
          <ns3:TrackPointExtension>
            <ns3:atemp>19.0</ns3:atemp>
            <ns3:hr>134</ns3:hr>
          </ns3:TrackPointExtension>
        </extensions>
      </trkpt>
      <trkpt lat="46.62501557730138301849365234375" lon="6.85780235566198825836181640625">
        <ele>726.79998779296875</ele>
        <time>2013-08-15T16:41:34.000Z</time>
        <extensions>
          <ns3:TrackPointExtension>
            <ns3:atemp>18.0</ns3:atemp>
            <ns3:hr>135</ns3:hr>
          </ns3:TrackPointExtension>
        </extensions>
      </trkpt>
      <trkpt lat="46.6250195167958736419677734375" lon="6.857860274612903594970703125">
        <ele>727.20001220703125</ele>
        <time>2013-08-15T16:41:35.000Z</time>
        <extensions>
          <ns3:TrackPointExtension>
            <ns3:atemp>18.0</ns3:atemp>
            <ns3:hr>135</ns3:hr>
          </ns3:TrackPointExtension>
        </extensions>
      </trkpt>
      <trkpt lat="46.6250232048332691192626953125" lon="6.8579189479351043701171875">
        <ele>727.4000244140625</ele>
        <time>2013-08-15T16:41:36.000Z</time>
        <extensions>
          <ns3:TrackPointExtension>
            <ns3:atemp>18.0</ns3:atemp>
            <ns3:hr>136</ns3:hr>
          </ns3:TrackPointExtension>
        </extensions>
      </trkpt>
      <trkpt lat="46.6250302456319332122802734375" lon="6.857979632914066314697265625">
        <ele>728.20001220703125</ele>
        <time>2013-08-15T16:41:37.000Z</time>
        <extensions>
          <ns3:TrackPointExtension>
            <ns3:atemp>18.0</ns3:atemp>
            <ns3:hr>137</ns3:hr>
          </ns3:TrackPointExtension>
        </extensions>
      </trkpt>
      <trkpt lat="46.6250386275351047515869140625" lon="6.85804023407399654388427734375">
        <ele>728.5999755859375</ele>
        <time>2013-08-15T16:41:38.000Z</time>
        <extensions>
          <ns3:TrackPointExtension>
            <ns3:atemp>18.0</ns3:atemp>
            <ns3:hr>137</ns3:hr>
          </ns3:TrackPointExtension>
        </extensions>
      </trkpt>
      <trkpt lat="46.6250449977815151214599609375" lon="6.8581038527190685272216796875">
        <ele>728.5999755859375</ele>
        <time>2013-08-15T16:41:39.000Z</time>
        <extensions>
          <ns3:TrackPointExtension>
            <ns3:atemp>18.0</ns3:atemp>
            <ns3:hr>138</ns3:hr>
          </ns3:TrackPointExtension>
        </extensions>
      </trkpt>
      <trkpt lat="46.6250433214008808135986328125" lon="6.858166716992855072021484375">
        <ele>728.79998779296875</ele>
        <time>2013-08-15T16:41:40.000Z</time>
        <extensions>
          <ns3:TrackPointExtension>
            <ns3:atemp>18.0</ns3:atemp>
            <ns3:hr>138</ns3:hr>
          </ns3:TrackPointExtension>
        </extensions>
      </trkpt>
      <trkpt lat="46.6250376217067241668701171875" lon="6.8582292459905147552490234375">
        <ele>729</ele>
        <time>2013-08-15T16:41:41.000Z</time>
        <extensions>
          <ns3:TrackPointExtension>
            <ns3:atemp>18.0</ns3:atemp>
            <ns3:hr>139</ns3:hr>
          </ns3:TrackPointExtension>
        </extensions>
      </trkpt>
      <trkpt lat="46.62502462975680828094482421875" lon="6.85829001478850841522216796875">
        <ele>729.20001220703125</ele>
        <time>2013-08-15T16:41:42.000Z</time>
        <extensions>
          <ns3:TrackPointExtension>
            <ns3:atemp>18.0</ns3:atemp>
            <ns3:hr>139</ns3:hr>
          </ns3:TrackPointExtension>
        </extensions>
      </trkpt>
      <trkpt lat="46.62500065751373767852783203125" lon="6.8583388812839984893798828125">
        <ele>729</ele>
        <time>2013-08-15T16:41:43.000Z</time>
        <extensions>
          <ns3:TrackPointExtension>
            <ns3:atemp>18.0</ns3:atemp>
            <ns3:hr>140</ns3:hr>
          </ns3:TrackPointExtension>
        </extensions>
      </trkpt>
      <trkpt lat="46.62497718818485736846923828125" lon="6.85838204808533191680908203125">
        <ele>729.20001220703125</ele>
        <time>2013-08-15T16:41:44.000Z</time>
        <extensions>
          <ns3:TrackPointExtension>
            <ns3:atemp>18.0</ns3:atemp>
            <ns3:hr>140</ns3:hr>
          </ns3:TrackPointExtension>
        </extensions>
      </trkpt>
      <trkpt lat="46.6249507851898670196533203125" lon="6.85841574333608150482177734375">
        <ele>729.4000244140625</ele>
        <time>2013-08-15T16:41:45.000Z</time>
        <extensions>
          <ns3:TrackPointExtension>
            <ns3:atemp>18.0</ns3:atemp>
            <ns3:hr>141</ns3:hr>
          </ns3:TrackPointExtension>
        </extensions>
      </trkpt>
      <trkpt lat="46.62491918541491031646728515625" lon="6.858449019491672515869140625">
        <ele>729.4000244140625</ele>
        <time>2013-08-15T16:41:46.000Z</time>
        <extensions>
          <ns3:TrackPointExtension>
            <ns3:atemp>18.0</ns3:atemp>
            <ns3:hr>141</ns3:hr>
          </ns3:TrackPointExtension>
        </extensions>
      </trkpt>
      <trkpt lat="46.624886579811573028564453125" lon="6.8584877438843250274658203125">
        <ele>729.5999755859375</ele>
        <time>2013-08-15T16:41:47.000Z</time>
        <extensions>
          <ns3:TrackPointExtension>
            <ns3:atemp>18.0</ns3:atemp>
            <ns3:hr>141</ns3:hr>
          </ns3:TrackPointExtension>
        </extensions>
      </trkpt>
      <trkpt lat="46.62485296837985515594482421875" lon="6.858528815209865570068359375">
        <ele>729.5999755859375</ele>
        <time>2013-08-15T16:41:48.000Z</time>
        <extensions>
          <ns3:TrackPointExtension>
            <ns3:atemp>18.0</ns3:atemp>
            <ns3:hr>142</ns3:hr>
          </ns3:TrackPointExtension>
        </extensions>
      </trkpt>
      <trkpt lat="46.6248243860900402069091796875" lon="6.858574412763118743896484375">
        <ele>730.20001220703125</ele>
        <time>2013-08-15T16:41:49.000Z</time>
        <extensions>
          <ns3:TrackPointExtension>
            <ns3:atemp>18.0</ns3:atemp>
            <ns3:hr>142</ns3:hr>
          </ns3:TrackPointExtension>
        </extensions>
      </trkpt>
      <trkpt lat="46.6248019225895404815673828125" lon="6.85862713493406772613525390625">
        <ele>730.4000244140625</ele>
        <time>2013-08-15T16:41:50.000Z</time>
        <extensions>
          <ns3:TrackPointExtension>
            <ns3:atemp>18.0</ns3:atemp>
            <ns3:hr>142</ns3:hr>
          </ns3:TrackPointExtension>
        </extensions>
      </trkpt>
      <trkpt lat="46.6247843205928802490234375" lon="6.85868270695209503173828125">
        <ele>730.5999755859375</ele>
        <time>2013-08-15T16:41:51.000Z</time>
        <extensions>
          <ns3:TrackPointExtension>
            <ns3:atemp>18.0</ns3:atemp>
            <ns3:hr>143</ns3:hr>
          </ns3:TrackPointExtension>
        </extensions>
      </trkpt>
      <trkpt lat="46.62477082572877407073974609375" lon="6.8587415479123592376708984375">
        <ele>730.79998779296875</ele>
        <time>2013-08-15T16:41:52.000Z</time>
        <extensions>
          <ns3:TrackPointExtension>
            <ns3:atemp>18.0</ns3:atemp>
            <ns3:hr>143</ns3:hr>
          </ns3:TrackPointExtension>
        </extensions>
      </trkpt>
      <trkpt lat="46.62475741468369960784912109375" lon="6.85880080796778202056884765625">
        <ele>731</ele>
        <time>2013-08-15T16:41:53.000Z</time>
        <extensions>
          <ns3:TrackPointExtension>
            <ns3:atemp>18.0</ns3:atemp>
            <ns3:hr>144</ns3:hr>
          </ns3:TrackPointExtension>
        </extensions>
      </trkpt>
      <trkpt lat="46.62474802695214748382568359375" lon="6.85885981656610965728759765625">
        <ele>731.20001220703125</ele>
        <time>2013-08-15T16:41:54.000Z</time>
        <extensions>
          <ns3:TrackPointExtension>
            <ns3:atemp>18.0</ns3:atemp>
            <ns3:hr>144</ns3:hr>
          </ns3:TrackPointExtension>
        </extensions>
      </trkpt>
      <trkpt lat="46.624735035002231597900390625" lon="6.8589195795357227325439453125">
        <ele>731.4000244140625</ele>
        <time>2013-08-15T16:41:55.000Z</time>
        <extensions>
          <ns3:TrackPointExtension>
            <ns3:atemp>18.0</ns3:atemp>
            <ns3:hr>144</ns3:hr>
          </ns3:TrackPointExtension>
        </extensions>
      </trkpt>
      <trkpt lat="46.6247217915952205657958984375" lon="6.85897883959114551544189453125">
        <ele>731.5999755859375</ele>
        <time>2013-08-15T16:41:56.000Z</time>
        <extensions>
          <ns3:TrackPointExtension>
            <ns3:atemp>18.0</ns3:atemp>
            <ns3:hr>145</ns3:hr>
          </ns3:TrackPointExtension>
        </extensions>
      </trkpt>
      <trkpt lat="46.62470896728336811065673828125" lon="6.8590392731130123138427734375">
        <ele>731.79998779296875</ele>
        <time>2013-08-15T16:41:57.000Z</time>
        <extensions>
          <ns3:TrackPointExtension>
            <ns3:atemp>18.0</ns3:atemp>
            <ns3:hr>145</ns3:hr>
          </ns3:TrackPointExtension>
        </extensions>
      </trkpt>
      <trkpt lat="46.62469622679054737091064453125" lon="6.8590996228158473968505859375">
        <ele>732.20001220703125</ele>
        <time>2013-08-15T16:41:58.000Z</time>
        <extensions>
          <ns3:TrackPointExtension>
            <ns3:atemp>18.0</ns3:atemp>
            <ns3:hr>145</ns3:hr>
          </ns3:TrackPointExtension>
        </extensions>
      </trkpt>
      <trkpt lat="46.62467770278453826904296875" lon="6.859156787395477294921875">
        <ele>732.20001220703125</ele>
        <time>2013-08-15T16:41:59.000Z</time>
        <extensions>
          <ns3:TrackPointExtension>
            <ns3:atemp>18.0</ns3:atemp>
            <ns3:hr>145</ns3:hr>
          </ns3:TrackPointExtension>
        </extensions>
      </trkpt>
      <trkpt lat="46.62466236390173435211181640625" lon="6.85921587981283664703369140625">
        <ele>732.4000244140625</ele>
        <time>2013-08-15T16:42:00.000Z</time>
        <extensions>
          <ns3:TrackPointExtension>
            <ns3:atemp>18.0</ns3:atemp>
            <ns3:hr>146</ns3:hr>
          </ns3:TrackPointExtension>
        </extensions>
      </trkpt>
      <trkpt lat="46.6246446780860424041748046875" lon="6.85927639715373516082763671875">
        <ele>732.20001220703125</ele>
        <time>2013-08-15T16:42:01.000Z</time>
        <extensions>
          <ns3:TrackPointExtension>
            <ns3:atemp>18.0</ns3:atemp>
            <ns3:hr>146</ns3:hr>
          </ns3:TrackPointExtension>
        </extensions>
      </trkpt>
      <trkpt lat="46.6246235556900501251220703125" lon="6.85933557339012622833251953125">
        <ele>732.20001220703125</ele>
        <time>2013-08-15T16:42:02.000Z</time>
        <extensions>
          <ns3:TrackPointExtension>
            <ns3:atemp>18.0</ns3:atemp>
            <ns3:hr>146</ns3:hr>
          </ns3:TrackPointExtension>
        </extensions>
      </trkpt>
      <trkpt lat="46.62460285238921642303466796875" lon="6.85939977876842021942138671875">
        <ele>732.4000244140625</ele>
        <time>2013-08-15T16:42:03.000Z</time>
        <extensions>
          <ns3:TrackPointExtension>
            <ns3:atemp>18.0</ns3:atemp>
            <ns3:hr>146</ns3:hr>
          </ns3:TrackPointExtension>
        </extensions>
      </trkpt>
      <trkpt lat="46.6245833225548267364501953125" lon="6.85946465469896793365478515625">
        <ele>732.5999755859375</ele>
        <time>2013-08-15T16:42:04.000Z</time>
        <extensions>
          <ns3:TrackPointExtension>
            <ns3:atemp>18.0</ns3:atemp>
            <ns3:hr>146</ns3:hr>
          </ns3:TrackPointExtension>
        </extensions>
      </trkpt>
      <trkpt lat="46.62456681020557880401611328125" lon="6.85953238047659397125244140625">
        <ele>732.5999755859375</ele>
        <time>2013-08-15T16:42:05.000Z</time>
        <extensions>
          <ns3:TrackPointExtension>
            <ns3:atemp>18.0</ns3:atemp>
            <ns3:hr>146</ns3:hr>
          </ns3:TrackPointExtension>
        </extensions>
      </trkpt>
      <trkpt lat="46.62455239333212375640869140625" lon="6.85960195027291774749755859375">
        <ele>732.79998779296875</ele>
        <time>2013-08-15T16:42:06.000Z</time>
        <extensions>
          <ns3:TrackPointExtension>
            <ns3:atemp>18.0</ns3:atemp>
            <ns3:hr>146</ns3:hr>
          </ns3:TrackPointExtension>
        </extensions>
      </trkpt>
      <trkpt lat="46.62453361786901950836181640625" lon="6.859671771526336669921875">
        <ele>733</ele>
        <time>2013-08-15T16:42:07.000Z</time>
        <extensions>
          <ns3:TrackPointExtension>
            <ns3:atemp>18.0</ns3:atemp>
            <ns3:hr>145</ns3:hr>
          </ns3:TrackPointExtension>
        </extensions>
      </trkpt>
      <trkpt lat="46.6245095618069171905517578125" lon="6.85973790474236011505126953125">
        <ele>733</ele>
        <time>2013-08-15T16:42:08.000Z</time>
        <extensions>
          <ns3:TrackPointExtension>
            <ns3:atemp>18.0</ns3:atemp>
            <ns3:hr>145</ns3:hr>
          </ns3:TrackPointExtension>
        </extensions>
      </trkpt>
      <trkpt lat="46.62447427399456501007080078125" lon="6.85979490168392658233642578125">
        <ele>732.79998779296875</ele>
        <time>2013-08-15T16:42:09.000Z</time>
        <extensions>
          <ns3:TrackPointExtension>
            <ns3:atemp>18.0</ns3:atemp>
            <ns3:hr>145</ns3:hr>
          </ns3:TrackPointExtension>
        </extensions>
      </trkpt>
      <trkpt lat="46.6244257427752017974853515625" lon="6.85983605682849884033203125">
        <ele>732.4000244140625</ele>
        <time>2013-08-15T16:42:10.000Z</time>
        <extensions>
          <ns3:TrackPointExtension>
            <ns3:atemp>18.0</ns3:atemp>
            <ns3:hr>145</ns3:hr>
          </ns3:TrackPointExtension>
        </extensions>
      </trkpt>
      <trkpt lat="46.62436782382428646087646484375" lon="6.8598533235490322113037109375">
        <ele>732.4000244140625</ele>
        <time>2013-08-15T16:42:11.000Z</time>
        <extensions>
          <ns3:TrackPointExtension>
            <ns3:atemp>18.0</ns3:atemp>
            <ns3:hr>145</ns3:hr>
          </ns3:TrackPointExtension>
        </extensions>
      </trkpt>
      <trkpt lat="46.6243047080934047698974609375" lon="6.8598399125039577484130859375">
        <ele>732.20001220703125</ele>
        <time>2013-08-15T16:42:12.000Z</time>
        <extensions>
          <ns3:TrackPointExtension>
            <ns3:atemp>18.0</ns3:atemp>
            <ns3:hr>145</ns3:hr>
          </ns3:TrackPointExtension>
        </extensions>
      </trkpt>
      <trkpt lat="46.6242393292486667633056640625" lon="6.85981602407991886138916015625">
        <ele>732.4000244140625</ele>
        <time>2013-08-15T16:42:13.000Z</time>
        <extensions>
          <ns3:TrackPointExtension>
            <ns3:atemp>18.0</ns3:atemp>
            <ns3:hr>146</ns3:hr>
          </ns3:TrackPointExtension>
        </extensions>
      </trkpt>
      <trkpt lat="46.62417235784232616424560546875" lon="6.859784759581089019775390625">
        <ele>732.20001220703125</ele>
        <time>2013-08-15T16:42:14.000Z</time>
        <extensions>
          <ns3:TrackPointExtension>
            <ns3:atemp>18.0</ns3:atemp>
            <ns3:hr>145</ns3:hr>
          </ns3:TrackPointExtension>
        </extensions>
      </trkpt>
      <trkpt lat="46.62410228513181209564208984375" lon="6.8597627989947795867919921875">
        <ele>732.20001220703125</ele>
        <time>2013-08-15T16:42:15.000Z</time>
        <extensions>
          <ns3:TrackPointExtension>
            <ns3:atemp>18.0</ns3:atemp>
            <ns3:hr>145</ns3:hr>
          </ns3:TrackPointExtension>
        </extensions>
      </trkpt>
      <trkpt lat="46.62402969785034656524658203125" lon="6.85974595136940479278564453125">
        <ele>732</ele>
        <time>2013-08-15T16:42:16.000Z</time>
        <extensions>
          <ns3:TrackPointExtension>
            <ns3:atemp>18.0</ns3:atemp>
            <ns3:hr>145</ns3:hr>
          </ns3:TrackPointExtension>
        </extensions>
      </trkpt>
      <trkpt lat="46.623957864940166473388671875" lon="6.8597269244492053985595703125">
        <ele>731.79998779296875</ele>
        <time>2013-08-15T16:42:17.000Z</time>
        <extensions>
          <ns3:TrackPointExtension>
            <ns3:atemp>18.0</ns3:atemp>
            <ns3:hr>144</ns3:hr>
          </ns3:TrackPointExtension>
        </extensions>
      </trkpt>
      <trkpt lat="46.62388603202998638153076171875" lon="6.85970596969127655029296875">
        <ele>731.20001220703125</ele>
        <time>2013-08-15T16:42:18.000Z</time>
        <extensions>
          <ns3:TrackPointExtension>
            <ns3:atemp>18.0</ns3:atemp>
            <ns3:hr>144</ns3:hr>
          </ns3:TrackPointExtension>
        </extensions>
      </trkpt>
      <trkpt lat="46.62381579168140888214111328125" lon="6.85968191362917423248291015625">
        <ele>731</ele>
        <time>2013-08-15T16:42:19.000Z</time>
        <extensions>
          <ns3:TrackPointExtension>
            <ns3:atemp>18.0</ns3:atemp>
            <ns3:hr>142</ns3:hr>
          </ns3:TrackPointExtension>
        </extensions>
      </trkpt>
      <trkpt lat="46.6237447969615459442138671875" lon="6.859656684100627899169921875">
        <ele>730.79998779296875</ele>
        <time>2013-08-15T16:42:20.000Z</time>
        <extensions>
          <ns3:TrackPointExtension>
            <ns3:atemp>18.0</ns3:atemp>
            <ns3:hr>142</ns3:hr>
          </ns3:TrackPointExtension>
        </extensions>
      </trkpt>
      <trkpt lat="46.62367296405136585235595703125" lon="6.85963489115238189697265625">
        <ele>730.5999755859375</ele>
        <time>2013-08-15T16:42:21.000Z</time>
        <extensions>
          <ns3:TrackPointExtension>
            <ns3:atemp>18.0</ns3:atemp>
            <ns3:hr>142</ns3:hr>
          </ns3:TrackPointExtension>
        </extensions>
      </trkpt>
      <trkpt lat="46.62360188551247119903564453125" lon="6.8596114218235015869140625">
        <ele>730.20001220703125</ele>
        <time>2013-08-15T16:42:22.000Z</time>
        <extensions>
          <ns3:TrackPointExtension>
            <ns3:atemp>18.0</ns3:atemp>
            <ns3:hr>140</ns3:hr>
          </ns3:TrackPointExtension>
        </extensions>
      </trkpt>
      <trkpt lat="46.6235317289829254150390625" lon="6.859586946666240692138671875">
        <ele>729.5999755859375</ele>
        <time>2013-08-15T16:42:23.000Z</time>
        <extensions>
          <ns3:TrackPointExtension>
            <ns3:atemp>18.0</ns3:atemp>
            <ns3:hr>140</ns3:hr>
          </ns3:TrackPointExtension>
        </extensions>
      </trkpt>
      <trkpt lat="46.62346174009144306182861328125" lon="6.85956272296607494354248046875">
        <ele>729.20001220703125</ele>
        <time>2013-08-15T16:42:24.000Z</time>
        <extensions>
          <ns3:TrackPointExtension>
            <ns3:atemp>18.0</ns3:atemp>
            <ns3:hr>139</ns3:hr>
          </ns3:TrackPointExtension>
        </extensions>
      </trkpt>
      <trkpt lat="46.6233917511999607086181640625" lon="6.85954235494136810302734375">
        <ele>729.20001220703125</ele>
        <time>2013-08-15T16:42:25.000Z</time>
        <extensions>
          <ns3:TrackPointExtension>
            <ns3:atemp>18.0</ns3:atemp>
            <ns3:hr>139</ns3:hr>
          </ns3:TrackPointExtension>
        </extensions>
      </trkpt>
      <trkpt lat="46.62332142703235149383544921875" lon="6.8595197238028049468994140625">
        <ele>729</ele>
        <time>2013-08-15T16:42:26.000Z</time>
        <extensions>
          <ns3:TrackPointExtension>
            <ns3:atemp>18.0</ns3:atemp>
            <ns3:hr>138</ns3:hr>
          </ns3:TrackPointExtension>
        </extensions>
      </trkpt>
      <trkpt lat="46.62325219251215457916259765625" lon="6.8594912253320217132568359375">
        <ele>729.20001220703125</ele>
        <time>2013-08-15T16:42:27.000Z</time>
        <extensions>
          <ns3:TrackPointExtension>
            <ns3:atemp>18.0</ns3:atemp>
            <ns3:hr>138</ns3:hr>
          </ns3:TrackPointExtension>
        </extensions>
      </trkpt>
      <trkpt lat="46.623184718191623687744140625" lon="6.8594670854508876800537109375">
        <ele>729</ele>
        <time>2013-08-15T16:42:28.000Z</time>
        <extensions>
          <ns3:TrackPointExtension>
            <ns3:atemp>18.0</ns3:atemp>
            <ns3:hr>138</ns3:hr>
          </ns3:TrackPointExtension>
        </extensions>
      </trkpt>
      <trkpt lat="46.62311808206140995025634765625" lon="6.8594402633607387542724609375">
        <ele>729</ele>
        <time>2013-08-15T16:42:29.000Z</time>
        <extensions>
          <ns3:TrackPointExtension>
            <ns3:atemp>18.0</ns3:atemp>
            <ns3:hr>137</ns3:hr>
          </ns3:TrackPointExtension>
        </extensions>
      </trkpt>
      <trkpt lat="46.62305303849279880523681640625" lon="6.85941603966057300567626953125">
        <ele>728.79998779296875</ele>
        <time>2013-08-15T16:42:30.000Z</time>
        <extensions>
          <ns3:TrackPointExtension>
            <ns3:atemp>18.0</ns3:atemp>
            <ns3:hr>136</ns3:hr>
          </ns3:TrackPointExtension>
        </extensions>
      </trkpt>
      <trkpt lat="46.62299268878996372222900390625" lon="6.8593913130462169647216796875">
        <ele>728.79998779296875</ele>
        <time>2013-08-15T16:42:31.000Z</time>
        <extensions>
          <ns3:TrackPointExtension>
            <ns3:atemp>18.0</ns3:atemp>
            <ns3:hr>135</ns3:hr>
          </ns3:TrackPointExtension>
        </extensions>
      </trkpt>
      <trkpt lat="46.6229347698390483856201171875" lon="6.85937580652534961700439453125">
        <ele>728.5999755859375</ele>
        <time>2013-08-15T16:42:32.000Z</time>
        <extensions>
          <ns3:TrackPointExtension>
            <ns3:atemp>18.0</ns3:atemp>
            <ns3:hr>134</ns3:hr>
          </ns3:TrackPointExtension>
        </extensions>
      </trkpt>
      <trkpt lat="46.622878611087799072265625" lon="6.85937563888728618621826171875">
        <ele>728.4000244140625</ele>
        <time>2013-08-15T16:42:33.000Z</time>
        <extensions>
          <ns3:TrackPointExtension>
            <ns3:atemp>18.0</ns3:atemp>
            <ns3:hr>132</ns3:hr>
          </ns3:TrackPointExtension>
        </extensions>
      </trkpt>
      <trkpt lat="46.6228234581649303436279296875" lon="6.8593996949493885040283203125">
        <ele>728.20001220703125</ele>
        <time>2013-08-15T16:42:34.000Z</time>
        <extensions>
          <ns3:TrackPointExtension>
            <ns3:atemp>18.0</ns3:atemp>
            <ns3:hr>131</ns3:hr>
          </ns3:TrackPointExtension>
        </extensions>
      </trkpt>
      <trkpt lat="46.6227647848427295684814453125" lon="6.859402544796466827392578125">
        <ele>728.4000244140625</ele>
        <time>2013-08-15T16:42:35.000Z</time>
        <extensions>
          <ns3:TrackPointExtension>
            <ns3:atemp>18.0</ns3:atemp>
            <ns3:hr>131</ns3:hr>
          </ns3:TrackPointExtension>
        </extensions>
      </trkpt>
      <trkpt lat="46.622713990509510040283203125" lon="6.85938946902751922607421875">
        <ele>728.4000244140625</ele>
        <time>2013-08-15T16:42:36.000Z</time>
        <extensions>
          <ns3:TrackPointExtension>
            <ns3:atemp>18.0</ns3:atemp>
            <ns3:hr>130</ns3:hr>
          </ns3:TrackPointExtension>
        </extensions>
      </trkpt>
      <trkpt lat="46.62266780622303485870361328125" lon="6.8593728728592395782470703125">
        <ele>728.5999755859375</ele>
        <time>2013-08-15T16:42:37.000Z</time>
        <extensions>
          <ns3:TrackPointExtension>
            <ns3:atemp>18.0</ns3:atemp>
            <ns3:hr>130</ns3:hr>
          </ns3:TrackPointExtension>
        </extensions>
      </trkpt>
      <trkpt lat="46.622624136507511138916015625" lon="6.859350241720676422119140625">
        <ele>728.79998779296875</ele>
        <time>2013-08-15T16:42:38.000Z</time>
        <extensions>
          <ns3:TrackPointExtension>
            <ns3:atemp>18.0</ns3:atemp>
            <ns3:hr>129</ns3:hr>
          </ns3:TrackPointExtension>
        </extensions>
      </trkpt>
      <trkpt lat="46.6225854121148586273193359375" lon="6.85932668857276439666748046875">
        <ele>729.4000244140625</ele>
        <time>2013-08-15T16:42:39.000Z</time>
        <extensions>
          <ns3:TrackPointExtension>
            <ns3:atemp>18.0</ns3:atemp>
            <ns3:hr>129</ns3:hr>
          </ns3:TrackPointExtension>
        </extensions>
      </trkpt>
      <trkpt lat="46.6225478611886501312255859375" lon="6.85931545682251453399658203125">
        <ele>729.5999755859375</ele>
        <time>2013-08-15T16:42:40.000Z</time>
        <extensions>
          <ns3:TrackPointExtension>
            <ns3:atemp>18.0</ns3:atemp>
            <ns3:hr>129</ns3:hr>
          </ns3:TrackPointExtension>
        </extensions>
      </trkpt>
      <trkpt lat="46.62251156754791736602783203125" lon="6.85930741019546985626220703125">
        <ele>729.5999755859375</ele>
        <time>2013-08-15T16:42:41.000Z</time>
        <extensions>
          <ns3:TrackPointExtension>
            <ns3:atemp>18.0</ns3:atemp>
            <ns3:hr>129</ns3:hr>
          </ns3:TrackPointExtension>
        </extensions>
      </trkpt>
      <trkpt lat="46.6224776208400726318359375" lon="6.8592950887978076934814453125">
        <ele>729.79998779296875</ele>
        <time>2013-08-15T16:42:42.000Z</time>
        <extensions>
          <ns3:TrackPointExtension>
            <ns3:atemp>18.0</ns3:atemp>
            <ns3:hr>130</ns3:hr>
          </ns3:TrackPointExtension>
        </extensions>
      </trkpt>
      <trkpt lat="46.62244208157062530517578125" lon="6.85928092338144779205322265625">
        <ele>730</ele>
        <time>2013-08-15T16:42:43.000Z</time>
        <extensions>
          <ns3:TrackPointExtension>
            <ns3:atemp>18.0</ns3:atemp>
            <ns3:hr>130</ns3:hr>
          </ns3:TrackPointExtension>
        </extensions>
      </trkpt>
      <trkpt lat="46.6224052011966705322265625" lon="6.859268434345722198486328125">
        <ele>730.20001220703125</ele>
        <time>2013-08-15T16:42:44.000Z</time>
        <extensions>
          <ns3:TrackPointExtension>
            <ns3:atemp>18.0</ns3:atemp>
            <ns3:hr>130</ns3:hr>
          </ns3:TrackPointExtension>
        </extensions>
      </trkpt>
      <trkpt lat="46.6223698295652866363525390625" lon="6.85925829224288463592529296875">
        <ele>730.4000244140625</ele>
        <time>2013-08-15T16:42:45.000Z</time>
        <extensions>
          <ns3:TrackPointExtension>
            <ns3:atemp>18.0</ns3:atemp>
            <ns3:hr>131</ns3:hr>
          </ns3:TrackPointExtension>
        </extensions>
      </trkpt>
      <trkpt lat="46.622334457933902740478515625" lon="6.8592466413974761962890625">
        <ele>731</ele>
        <time>2013-08-15T16:42:46.000Z</time>
        <extensions>
          <ns3:TrackPointExtension>
            <ns3:atemp>18.0</ns3:atemp>
            <ns3:hr>130</ns3:hr>
          </ns3:TrackPointExtension>
        </extensions>
      </trkpt>
      <trkpt lat="46.62229984067380428314208984375" lon="6.85923314653337001800537109375">
        <ele>731.20001220703125</ele>
        <time>2013-08-15T16:42:47.000Z</time>
        <extensions>
          <ns3:TrackPointExtension>
            <ns3:atemp>18.0</ns3:atemp>
            <ns3:hr>131</ns3:hr>
          </ns3:TrackPointExtension>
        </extensions>
      </trkpt>
      <trkpt lat="46.622261367738246917724609375" lon="6.85922292061150074005126953125">
        <ele>731.4000244140625</ele>
        <time>2013-08-15T16:42:48.000Z</time>
        <extensions>
          <ns3:TrackPointExtension>
            <ns3:atemp>18.0</ns3:atemp>
            <ns3:hr>131</ns3:hr>
          </ns3:TrackPointExtension>
        </extensions>
      </trkpt>
      <trkpt lat="46.6222243197262287139892578125" lon="6.85921286232769489288330078125">
        <ele>731.4000244140625</ele>
        <time>2013-08-15T16:42:49.000Z</time>
        <extensions>
          <ns3:TrackPointExtension>
            <ns3:atemp>18.0</ns3:atemp>
            <ns3:hr>131</ns3:hr>
          </ns3:TrackPointExtension>
        </extensions>
      </trkpt>
      <trkpt lat="46.62218668498098850250244140625" lon="6.8592035584151744842529296875">
        <ele>731.4000244140625</ele>
        <time>2013-08-15T16:42:50.000Z</time>
        <extensions>
          <ns3:TrackPointExtension>
            <ns3:atemp>19.0</ns3:atemp>
            <ns3:hr>130</ns3:hr>
          </ns3:TrackPointExtension>
        </extensions>
      </trkpt>
      <trkpt lat="46.62214946933090686798095703125" lon="6.859192661941051483154296875">
        <ele>731.79998779296875</ele>
        <time>2013-08-15T16:42:51.000Z</time>
        <extensions>
          <ns3:TrackPointExtension>
            <ns3:atemp>19.0</ns3:atemp>
            <ns3:hr>131</ns3:hr>
          </ns3:TrackPointExtension>
        </extensions>
      </trkpt>
      <trkpt lat="46.62211175076663494110107421875" lon="6.8591854535043239593505859375">
        <ele>731.79998779296875</ele>
        <time>2013-08-15T16:42:52.000Z</time>
        <extensions>
          <ns3:TrackPointExtension>
            <ns3:atemp>19.0</ns3:atemp>
            <ns3:hr>130</ns3:hr>
          </ns3:TrackPointExtension>
        </extensions>
      </trkpt>
      <trkpt lat="46.62207436747848987579345703125" lon="6.8591764010488986968994140625">
        <ele>732</ele>
        <time>2013-08-15T16:42:53.000Z</time>
        <extensions>
          <ns3:TrackPointExtension>
            <ns3:atemp>19.0</ns3:atemp>
            <ns3:hr>131</ns3:hr>
          </ns3:TrackPointExtension>
        </extensions>
      </trkpt>
      <trkpt lat="46.6220358945429325103759765625" lon="6.85916818678379058837890625">
        <ele>732</ele>
        <time>2013-08-15T16:42:54.000Z</time>
        <extensions>
          <ns3:TrackPointExtension>
            <ns3:atemp>19.0</ns3:atemp>
            <ns3:hr>131</ns3:hr>
          </ns3:TrackPointExtension>
        </extensions>
      </trkpt>
      <trkpt lat="46.62199540995061397552490234375" lon="6.85915905050933361053466796875">
        <ele>732</ele>
        <time>2013-08-15T16:42:55.000Z</time>
        <extensions>
          <ns3:TrackPointExtension>
            <ns3:atemp>19.0</ns3:atemp>
            <ns3:hr>131</ns3:hr>
          </ns3:TrackPointExtension>
        </extensions>
      </trkpt>
      <trkpt lat="46.62195433862507343292236328125" lon="6.8591472320258617401123046875">
        <ele>732.20001220703125</ele>
        <time>2013-08-15T16:42:56.000Z</time>
        <extensions>
          <ns3:TrackPointExtension>
            <ns3:atemp>19.0</ns3:atemp>
            <ns3:hr>131</ns3:hr>
          </ns3:TrackPointExtension>
        </extensions>
      </trkpt>
      <trkpt lat="46.62191368639469146728515625" lon="6.859142370522022247314453125">
        <ele>732.5999755859375</ele>
        <time>2013-08-15T16:42:57.000Z</time>
        <extensions>
          <ns3:TrackPointExtension>
            <ns3:atemp>19.0</ns3:atemp>
            <ns3:hr>131</ns3:hr>
          </ns3:TrackPointExtension>
        </extensions>
      </trkpt>
      <trkpt lat="46.6218729503452777862548828125" lon="6.85913675464689731597900390625">
        <ele>732.5999755859375</ele>
        <time>2013-08-15T16:42:58.000Z</time>
        <extensions>
          <ns3:TrackPointExtension>
            <ns3:atemp>19.0</ns3:atemp>
            <ns3:hr>132</ns3:hr>
          </ns3:TrackPointExtension>
        </extensions>
      </trkpt>
      <trkpt lat="46.621834896504878997802734375" lon="6.85913071967661380767822265625">
        <ele>732.79998779296875</ele>
        <time>2013-08-15T16:42:59.000Z</time>
        <extensions>
          <ns3:TrackPointExtension>
            <ns3:atemp>19.0</ns3:atemp>
            <ns3:hr>132</ns3:hr>
          </ns3:TrackPointExtension>
        </extensions>
      </trkpt>
      <trkpt lat="46.62179835140705108642578125" lon="6.85912929475307464599609375">
        <ele>733</ele>
        <time>2013-08-15T16:43:00.000Z</time>
        <extensions>
          <ns3:TrackPointExtension>
            <ns3:atemp>19.0</ns3:atemp>
            <ns3:hr>132</ns3:hr>
          </ns3:TrackPointExtension>
        </extensions>
      </trkpt>
      <trkpt lat="46.6217616386711597442626953125" lon="6.8591272830963134765625">
        <ele>733.20001220703125</ele>
        <time>2013-08-15T16:43:01.000Z</time>
        <extensions>
          <ns3:TrackPointExtension>
            <ns3:atemp>19.0</ns3:atemp>
            <ns3:hr>132</ns3:hr>
          </ns3:TrackPointExtension>
        </extensions>
      </trkpt>
      <trkpt lat="46.621724255383014678955078125" lon="6.85912619344890117645263671875">
        <ele>733.20001220703125</ele>
        <time>2013-08-15T16:43:02.000Z</time>
        <extensions>
          <ns3:TrackPointExtension>
            <ns3:atemp>19.0</ns3:atemp>
            <ns3:hr>133</ns3:hr>
          </ns3:TrackPointExtension>
        </extensions>
      </trkpt>
      <trkpt lat="46.6216872073709964752197265625" lon="6.85912468470633029937744140625">
        <ele>733.20001220703125</ele>
        <time>2013-08-15T16:43:03.000Z</time>
        <extensions>
          <ns3:TrackPointExtension>
            <ns3:atemp>19.0</ns3:atemp>
            <ns3:hr>133</ns3:hr>
          </ns3:TrackPointExtension>
        </extensions>
      </trkpt>
      <trkpt lat="46.6216499917209148406982421875" lon="6.859124600887298583984375">
        <ele>733.4000244140625</ele>
        <time>2013-08-15T16:43:04.000Z</time>
        <extensions>
          <ns3:TrackPointExtension>
            <ns3:atemp>19.0</ns3:atemp>
            <ns3:hr>133</ns3:hr>
          </ns3:TrackPointExtension>
        </extensions>
      </trkpt>
      <trkpt lat="46.62161621265113353729248046875" lon="6.859122253954410552978515625">
        <ele>733.5999755859375</ele>
        <time>2013-08-15T16:43:05.000Z</time>
        <extensions>
          <ns3:TrackPointExtension>
            <ns3:atemp>19.0</ns3:atemp>
            <ns3:hr>134</ns3:hr>
          </ns3:TrackPointExtension>
        </extensions>
      </trkpt>
      <trkpt lat="46.6215883009135723114013671875" lon="6.8591217510402202606201171875">
        <ele>733.5999755859375</ele>
        <time>2013-08-15T16:43:06.000Z</time>
        <extensions>
          <ns3:TrackPointExtension>
            <ns3:atemp>19.0</ns3:atemp>
            <ns3:hr>134</ns3:hr>
          </ns3:TrackPointExtension>
        </extensions>
      </trkpt>
      <trkpt lat="46.6215638257563114166259765625" lon="6.8591210804879665374755859375">
        <ele>733.79998779296875</ele>
        <time>2013-08-15T16:43:07.000Z</time>
        <extensions>
          <ns3:TrackPointExtension>
            <ns3:atemp>19.0</ns3:atemp>
            <ns3:hr>134</ns3:hr>
          </ns3:TrackPointExtension>
        </extensions>
      </trkpt>
      <trkpt lat="46.621541194617748260498046875" lon="6.85912686400115489959716796875">
        <ele>734</ele>
        <time>2013-08-15T16:43:08.000Z</time>
        <extensions>
          <ns3:TrackPointExtension>
            <ns3:atemp>19.0</ns3:atemp>
            <ns3:hr>134</ns3:hr>
          </ns3:TrackPointExtension>
        </extensions>
      </trkpt>
      <trkpt lat="46.6215192340314388275146484375" lon="6.859129630029201507568359375">
        <ele>734.20001220703125</ele>
        <time>2013-08-15T16:43:09.000Z</time>
        <extensions>
          <ns3:TrackPointExtension>
            <ns3:atemp>19.0</ns3:atemp>
            <ns3:hr>134</ns3:hr>
          </ns3:TrackPointExtension>
        </extensions>
      </trkpt>
      <trkpt lat="46.6214971058070659637451171875" lon="6.8591297976672649383544921875">
        <ele>734.20001220703125</ele>
        <time>2013-08-15T16:43:10.000Z</time>
        <extensions>
          <ns3:TrackPointExtension>
            <ns3:atemp>19.0</ns3:atemp>
            <ns3:hr>135</ns3:hr>
          </ns3:TrackPointExtension>
        </extensions>
      </trkpt>
      <trkpt lat="46.62147539667785167694091796875" lon="6.859126947820186614990234375">
        <ele>734.4000244140625</ele>
        <time>2013-08-15T16:43:11.000Z</time>
        <extensions>
          <ns3:TrackPointExtension>
            <ns3:atemp>19.0</ns3:atemp>
            <ns3:hr>135</ns3:hr>
          </ns3:TrackPointExtension>
        </extensions>
      </trkpt>
      <trkpt lat="46.6214501671493053436279296875" lon="6.8591259419918060302734375">
        <ele>734.5999755859375</ele>
        <time>2013-08-15T16:43:12.000Z</time>
        <extensions>
          <ns3:TrackPointExtension>
            <ns3:atemp>19.0</ns3:atemp>
            <ns3:hr>135</ns3:hr>
          </ns3:TrackPointExtension>
        </extensions>
      </trkpt>
      <trkpt lat="46.6214253567159175872802734375" lon="6.85912267304956912994384765625">
        <ele>735</ele>
        <time>2013-08-15T16:43:13.000Z</time>
        <extensions>
          <ns3:TrackPointExtension>
            <ns3:atemp>19.0</ns3:atemp>
            <ns3:hr>135</ns3:hr>
          </ns3:TrackPointExtension>
        </extensions>
      </trkpt>
      <trkpt lat="46.62140180356800556182861328125" lon="6.85911864973604679107666015625">
        <ele>735.5999755859375</ele>
        <time>2013-08-15T16:43:14.000Z</time>
        <extensions>
          <ns3:TrackPointExtension>
            <ns3:atemp>19.0</ns3:atemp>
            <ns3:hr>135</ns3:hr>
          </ns3:TrackPointExtension>
        </extensions>
      </trkpt>
      <trkpt lat="46.62137934006750583648681640625" lon="6.859112195670604705810546875">
        <ele>736</ele>
        <time>2013-08-15T16:43:15.000Z</time>
        <extensions>
          <ns3:TrackPointExtension>
            <ns3:atemp>19.0</ns3:atemp>
            <ns3:hr>135</ns3:hr>
          </ns3:TrackPointExtension>
        </extensions>
      </trkpt>
      <trkpt lat="46.62135737948119640350341796875" lon="6.8591076694428920745849609375">
        <ele>736.20001220703125</ele>
        <time>2013-08-15T16:43:16.000Z</time>
        <extensions>
          <ns3:TrackPointExtension>
            <ns3:atemp>19.0</ns3:atemp>
            <ns3:hr>136</ns3:hr>
          </ns3:TrackPointExtension>
        </extensions>
      </trkpt>
      <trkpt lat="46.6213375143706798553466796875" lon="6.859104149043560028076171875">
        <ele>736.4000244140625</ele>
        <time>2013-08-15T16:43:17.000Z</time>
        <extensions>
          <ns3:TrackPointExtension>
            <ns3:atemp>19.0</ns3:atemp>
            <ns3:hr>136</ns3:hr>
          </ns3:TrackPointExtension>
        </extensions>
      </trkpt>
      <trkpt lat="46.621315889060497283935546875" lon="6.85909450985491275787353515625">
        <ele>736.79998779296875</ele>
        <time>2013-08-15T16:43:18.000Z</time>
        <extensions>
          <ns3:TrackPointExtension>
            <ns3:atemp>19.0</ns3:atemp>
            <ns3:hr>136</ns3:hr>
          </ns3:TrackPointExtension>
        </extensions>
      </trkpt>
      <trkpt lat="46.6212939284741878509521484375" lon="6.85908629558980464935302734375">
        <ele>737</ele>
        <time>2013-08-15T16:43:19.000Z</time>
        <extensions>
          <ns3:TrackPointExtension>
            <ns3:atemp>19.0</ns3:atemp>
            <ns3:hr>136</ns3:hr>
          </ns3:TrackPointExtension>
        </extensions>
      </trkpt>
      <trkpt lat="46.6212687827646732330322265625" lon="6.85907992534339427947998046875">
        <ele>737.20001220703125</ele>
        <time>2013-08-15T16:43:20.000Z</time>
        <extensions>
          <ns3:TrackPointExtension>
            <ns3:atemp>19.0</ns3:atemp>
            <ns3:hr>137</ns3:hr>
          </ns3:TrackPointExtension>
        </extensions>
      </trkpt>
      <trkpt lat="46.62124237976968288421630859375" lon="6.85907833278179168701171875">
        <ele>737.4000244140625</ele>
        <time>2013-08-15T16:43:21.000Z</time>
        <extensions>
          <ns3:TrackPointExtension>
            <ns3:atemp>19.0</ns3:atemp>
            <ns3:hr>138</ns3:hr>
          </ns3:TrackPointExtension>
        </extensions>
      </trkpt>
      <trkpt lat="46.62120155990123748779296875" lon="6.859069950878620147705078125">
        <ele>737.79998779296875</ele>
        <time>2013-08-15T16:43:22.000Z</time>
        <extensions>
          <ns3:TrackPointExtension>
            <ns3:atemp>19.0</ns3:atemp>
            <ns3:hr>138</ns3:hr>
          </ns3:TrackPointExtension>
        </extensions>
      </trkpt>
      <trkpt lat="46.62115864455699920654296875" lon="6.85905687510967254638671875">
        <ele>738</ele>
        <time>2013-08-15T16:43:23.000Z</time>
        <extensions>
          <ns3:TrackPointExtension>
            <ns3:atemp>19.0</ns3:atemp>
            <ns3:hr>139</ns3:hr>
          </ns3:TrackPointExtension>
        </extensions>
      </trkpt>
      <trkpt lat="46.6211165674030780792236328125" lon="6.85904421843588352203369140625">
        <ele>738.20001220703125</ele>
        <time>2013-08-15T16:43:24.000Z</time>
        <extensions>
          <ns3:TrackPointExtension>
            <ns3:atemp>19.0</ns3:atemp>
            <ns3:hr>139</ns3:hr>
          </ns3:TrackPointExtension>
        </extensions>
      </trkpt>
      <trkpt lat="46.6210780106484889984130859375" lon="6.8590318970382213592529296875">
        <ele>738.4000244140625</ele>
        <time>2013-08-15T16:43:25.000Z</time>
        <extensions>
          <ns3:TrackPointExtension>
            <ns3:atemp>19.0</ns3:atemp>
            <ns3:hr>140</ns3:hr>
          </ns3:TrackPointExtension>
        </extensions>
      </trkpt>
      <trkpt lat="46.62104037590324878692626953125" lon="6.8590208329260349273681640625">
        <ele>738.5999755859375</ele>
        <time>2013-08-15T16:43:26.000Z</time>
        <extensions>
          <ns3:TrackPointExtension>
            <ns3:atemp>19.0</ns3:atemp>
            <ns3:hr>140</ns3:hr>
          </ns3:TrackPointExtension>
        </extensions>
      </trkpt>
      <trkpt lat="46.621006429195404052734375" lon="6.859010942280292510986328125">
        <ele>738.79998779296875</ele>
        <time>2013-08-15T16:43:27.000Z</time>
        <extensions>
          <ns3:TrackPointExtension>
            <ns3:atemp>19.0</ns3:atemp>
            <ns3:hr>140</ns3:hr>
          </ns3:TrackPointExtension>
        </extensions>
      </trkpt>
      <trkpt lat="46.62097013555467128753662109375" lon="6.85900591313838958740234375">
        <ele>739.20001220703125</ele>
        <time>2013-08-15T16:43:28.000Z</time>
        <extensions>
          <ns3:TrackPointExtension>
            <ns3:atemp>19.0</ns3:atemp>
            <ns3:hr>141</ns3:hr>
          </ns3:TrackPointExtension>
        </extensions>
      </trkpt>
      <trkpt lat="46.620938368141651153564453125" lon="6.859004236757755279541015625">
        <ele>739.20001220703125</ele>
        <time>2013-08-15T16:43:29.000Z</time>
        <extensions>
          <ns3:TrackPointExtension>
            <ns3:atemp>19.0</ns3:atemp>
            <ns3:hr>141</ns3:hr>
          </ns3:TrackPointExtension>
        </extensions>
      </trkpt>
      <trkpt lat="46.62090651690959930419921875" lon="6.85900348238646984100341796875">
        <ele>739.5999755859375</ele>
        <time>2013-08-15T16:43:30.000Z</time>
        <extensions>
          <ns3:TrackPointExtension>
            <ns3:atemp>19.0</ns3:atemp>
            <ns3:hr>142</ns3:hr>
          </ns3:TrackPointExtension>
        </extensions>
      </trkpt>
      <trkpt lat="46.6208778508007526397705078125" lon="6.85900616459548473358154296875">
        <ele>739.5999755859375</ele>
        <time>2013-08-15T16:43:31.000Z</time>
        <extensions>
          <ns3:TrackPointExtension>
            <ns3:atemp>19.0</ns3:atemp>
            <ns3:hr>142</ns3:hr>
          </ns3:TrackPointExtension>
        </extensions>
      </trkpt>
      <trkpt lat="46.620854549109935760498046875" lon="6.8590090982615947723388671875">
        <ele>740</ele>
        <time>2013-08-15T16:43:32.000Z</time>
        <extensions>
          <ns3:TrackPointExtension>
            <ns3:atemp>19.0</ns3:atemp>
            <ns3:hr>143</ns3:hr>
          </ns3:TrackPointExtension>
        </extensions>
      </trkpt>
      <trkpt lat="46.62082999013364315032958984375" lon="6.859012953937053680419921875">
        <ele>740.20001220703125</ele>
        <time>2013-08-15T16:43:33.000Z</time>
        <extensions>
          <ns3:TrackPointExtension>
            <ns3:atemp>19.0</ns3:atemp>
            <ns3:hr>143</ns3:hr>
          </ns3:TrackPointExtension>
        </extensions>
      </trkpt>
      <trkpt lat="46.6208067722618579864501953125" lon="6.85900616459548473358154296875">
        <ele>740.79998779296875</ele>
        <time>2013-08-15T16:43:34.000Z</time>
        <extensions>
          <ns3:TrackPointExtension>
            <ns3:atemp>19.0</ns3:atemp>
            <ns3:hr>144</ns3:hr>
          </ns3:TrackPointExtension>
        </extensions>
      </trkpt>
      <trkpt lat="46.62078439258038997650146484375" lon="6.8589985370635986328125">
        <ele>741.20001220703125</ele>
        <time>2013-08-15T16:43:35.000Z</time>
        <extensions>
          <ns3:TrackPointExtension>
            <ns3:atemp>19.0</ns3:atemp>
            <ns3:hr>144</ns3:hr>
          </ns3:TrackPointExtension>
        </extensions>
      </trkpt>
      <trkpt lat="46.6207648627460002899169921875" lon="6.8589893169701099395751953125">
        <ele>741.5999755859375</ele>
        <time>2013-08-15T16:43:36.000Z</time>
        <extensions>
          <ns3:TrackPointExtension>
            <ns3:atemp>19.0</ns3:atemp>
            <ns3:hr>145</ns3:hr>
          </ns3:TrackPointExtension>
        </extensions>
      </trkpt>
      <trkpt lat="46.620747260749340057373046875" lon="6.8589805997908115386962890625">
        <ele>741.79998779296875</ele>
        <time>2013-08-15T16:43:37.000Z</time>
        <extensions>
          <ns3:TrackPointExtension>
            <ns3:atemp>19.0</ns3:atemp>
            <ns3:hr>145</ns3:hr>
          </ns3:TrackPointExtension>
        </extensions>
      </trkpt>
      <trkpt lat="46.62073024548590183258056640625" lon="6.85897171497344970703125">
        <ele>742.4000244140625</ele>
        <time>2013-08-15T16:43:38.000Z</time>
        <extensions>
          <ns3:TrackPointExtension>
            <ns3:atemp>19.0</ns3:atemp>
            <ns3:hr>145</ns3:hr>
          </ns3:TrackPointExtension>
        </extensions>
      </trkpt>
      <trkpt lat="46.62071431986987590789794921875" lon="6.858964003622531890869140625">
        <ele>742.5999755859375</ele>
        <time>2013-08-15T16:43:39.000Z</time>
        <extensions>
          <ns3:TrackPointExtension>
            <ns3:atemp>19.0</ns3:atemp>
            <ns3:hr>145</ns3:hr>
          </ns3:TrackPointExtension>
        </extensions>
      </trkpt>
      <trkpt lat="46.6206994839012622833251953125" lon="6.8589556217193603515625">
        <ele>743</ele>
        <time>2013-08-15T16:43:40.000Z</time>
        <extensions>
          <ns3:TrackPointExtension>
            <ns3:atemp>19.0</ns3:atemp>
            <ns3:hr>146</ns3:hr>
          </ns3:TrackPointExtension>
        </extensions>
      </trkpt>
      <trkpt lat="46.62068816833198070526123046875" lon="6.8589474074542522430419921875">
        <ele>743.20001220703125</ele>
        <time>2013-08-15T16:43:41.000Z</time>
        <extensions>
          <ns3:TrackPointExtension>
            <ns3:atemp>19.0</ns3:atemp>
            <ns3:hr>146</ns3:hr>
          </ns3:TrackPointExtension>
        </extensions>
      </trkpt>
      <trkpt lat="46.620673835277557373046875" lon="6.85893458314239978790283203125">
        <ele>743.4000244140625</ele>
        <time>2013-08-15T16:43:42.000Z</time>
        <extensions>
          <ns3:TrackPointExtension>
            <ns3:atemp>19.0</ns3:atemp>
            <ns3:hr>146</ns3:hr>
          </ns3:TrackPointExtension>
        </extensions>
      </trkpt>
      <trkpt lat="46.62065950222313404083251953125" lon="6.85892301611602306365966796875">
        <ele>743.5999755859375</ele>
        <time>2013-08-15T16:43:43.000Z</time>
        <extensions>
          <ns3:TrackPointExtension>
            <ns3:atemp>19.0</ns3:atemp>
            <ns3:hr>147</ns3:hr>
          </ns3:TrackPointExtension>
        </extensions>
      </trkpt>
      <trkpt lat="46.62065162323415279388427734375" lon="6.85890491120517253875732421875">
        <ele>743.79998779296875</ele>
        <time>2013-08-15T16:43:44.000Z</time>
        <extensions>
          <ns3:TrackPointExtension>
            <ns3:atemp>19.0</ns3:atemp>
            <ns3:hr>147</ns3:hr>
          </ns3:TrackPointExtension>
        </extensions>
      </trkpt>
      <trkpt lat="46.62064659409224987030029296875" lon="6.8588810227811336517333984375">
        <ele>744</ele>
        <time>2013-08-15T16:43:45.000Z</time>
        <extensions>
          <ns3:TrackPointExtension>
            <ns3:atemp>19.0</ns3:atemp>
            <ns3:hr>147</ns3:hr>
          </ns3:TrackPointExtension>
        </extensions>
      </trkpt>
      <trkpt lat="46.62063603289425373077392578125" lon="6.858857385814189910888671875">
        <ele>744.20001220703125</ele>
        <time>2013-08-15T16:43:46.000Z</time>
        <extensions>
          <ns3:TrackPointExtension>
            <ns3:atemp>19.0</ns3:atemp>
            <ns3:hr>148</ns3:hr>
          </ns3:TrackPointExtension>
        </extensions>
      </trkpt>
      <trkpt lat="46.62062756717205047607421875" lon="6.858821846544742584228515625">
        <ele>744.20001220703125</ele>
        <time>2013-08-15T16:43:47.000Z</time>
        <extensions>
          <ns3:TrackPointExtension>
            <ns3:atemp>19.0</ns3:atemp>
            <ns3:hr>148</ns3:hr>
          </ns3:TrackPointExtension>
        </extensions>
      </trkpt>
      <trkpt lat="46.62061491049826145172119140625" lon="6.85878002084791660308837890625">
        <ele>744.4000244140625</ele>
        <time>2013-08-15T16:43:48.000Z</time>
        <extensions>
          <ns3:TrackPointExtension>
            <ns3:atemp>19.0</ns3:atemp>
            <ns3:hr>148</ns3:hr>
          </ns3:TrackPointExtension>
        </extensions>
      </trkpt>
      <trkpt lat="46.620604433119297027587890625" lon="6.8587415479123592376708984375">
        <ele>744.5999755859375</ele>
        <time>2013-08-15T16:43:49.000Z</time>
        <extensions>
          <ns3:TrackPointExtension>
            <ns3:atemp>19.0</ns3:atemp>
            <ns3:hr>148</ns3:hr>
          </ns3:TrackPointExtension>
        </extensions>
      </trkpt>
      <trkpt lat="46.62059077061712741851806640625" lon="6.8586994707584381103515625">
        <ele>744.5999755859375</ele>
        <time>2013-08-15T16:43:50.000Z</time>
        <extensions>
          <ns3:TrackPointExtension>
            <ns3:atemp>19.0</ns3:atemp>
            <ns3:hr>148</ns3:hr>
          </ns3:TrackPointExtension>
        </extensions>
      </trkpt>
      <trkpt lat="46.62057501263916492462158203125" lon="6.85865496285259723663330078125">
        <ele>745</ele>
        <time>2013-08-15T16:43:51.000Z</time>
        <extensions>
          <ns3:TrackPointExtension>
            <ns3:atemp>19.0</ns3:atemp>
            <ns3:hr>148</ns3:hr>
          </ns3:TrackPointExtension>
        </extensions>
      </trkpt>
      <trkpt lat="46.62056361325085163116455078125" lon="6.85861472971737384796142578125">
        <ele>744.79998779296875</ele>
        <time>2013-08-15T16:43:52.000Z</time>
        <extensions>
          <ns3:TrackPointExtension>
            <ns3:atemp>19.0</ns3:atemp>
            <ns3:hr>148</ns3:hr>
          </ns3:TrackPointExtension>
        </extensions>
      </trkpt>
      <trkpt lat="46.62054936401546001434326171875" lon="6.858569718897342681884765625">
        <ele>745</ele>
        <time>2013-08-15T16:43:53.000Z</time>
        <extensions>
          <ns3:TrackPointExtension>
            <ns3:atemp>18.0</ns3:atemp>
            <ns3:hr>148</ns3:hr>
          </ns3:TrackPointExtension>
        </extensions>
      </trkpt>
      <trkpt lat="46.6205328516662120819091796875" lon="6.85853074304759502410888671875">
        <ele>744.79998779296875</ele>
        <time>2013-08-15T16:43:54.000Z</time>
        <extensions>
          <ns3:TrackPointExtension>
            <ns3:atemp>18.0</ns3:atemp>
            <ns3:hr>149</ns3:hr>
          </ns3:TrackPointExtension>
        </extensions>
      </trkpt>
      <trkpt lat="46.6205137409269809722900390625" lon="6.85848916880786418914794921875">
        <ele>745.20001220703125</ele>
        <time>2013-08-15T16:43:55.000Z</time>
        <extensions>
          <ns3:TrackPointExtension>
            <ns3:atemp>18.0</ns3:atemp>
            <ns3:hr>149</ns3:hr>
          </ns3:TrackPointExtension>
        </extensions>
      </trkpt>
      <trkpt lat="46.620496809482574462890625" lon="6.858446337282657623291015625">
        <ele>745.5999755859375</ele>
        <time>2013-08-15T16:43:56.000Z</time>
        <extensions>
          <ns3:TrackPointExtension>
            <ns3:atemp>18.0</ns3:atemp>
            <ns3:hr>148</ns3:hr>
          </ns3:TrackPointExtension>
        </extensions>
      </trkpt>
      <trkpt lat="46.62047258578240871429443359375" lon="6.8584052659571170806884765625">
        <ele>746</ele>
        <time>2013-08-15T16:43:57.000Z</time>
        <extensions>
          <ns3:TrackPointExtension>
            <ns3:atemp>18.0</ns3:atemp>
            <ns3:hr>149</ns3:hr>
          </ns3:TrackPointExtension>
        </extensions>
      </trkpt>
      <trkpt lat="46.62044517695903778076171875" lon="6.85837098397314548492431640625">
        <ele>746.20001220703125</ele>
        <time>2013-08-15T16:43:58.000Z</time>
        <extensions>
          <ns3:TrackPointExtension>
            <ns3:atemp>18.0</ns3:atemp>
            <ns3:hr>148</ns3:hr>
          </ns3:TrackPointExtension>
        </extensions>
      </trkpt>
      <trkpt lat="46.6204198636114597320556640625" lon="6.85834198258817195892333984375">
        <ele>746.20001220703125</ele>
        <time>2013-08-15T16:43:59.000Z</time>
        <extensions>
          <ns3:TrackPointExtension>
            <ns3:atemp>18.0</ns3:atemp>
            <ns3:hr>148</ns3:hr>
          </ns3:TrackPointExtension>
        </extensions>
      </trkpt>
      <trkpt lat="46.62039597518742084503173828125" lon="6.85832086019217967987060546875">
        <ele>746.4000244140625</ele>
        <time>2013-08-15T16:44:00.000Z</time>
        <extensions>
          <ns3:TrackPointExtension>
            <ns3:atemp>18.0</ns3:atemp>
            <ns3:hr>148</ns3:hr>
          </ns3:TrackPointExtension>
        </extensions>
      </trkpt>
      <trkpt lat="46.62036764435470104217529296875" lon="6.85830744914710521697998046875">
        <ele>746.5999755859375</ele>
        <time>2013-08-15T16:44:01.000Z</time>
        <extensions>
          <ns3:TrackPointExtension>
            <ns3:atemp>18.0</ns3:atemp>
            <ns3:hr>149</ns3:hr>
          </ns3:TrackPointExtension>
        </extensions>
      </trkpt>
      <trkpt lat="46.6203430853784084320068359375" lon="6.85828934423625469207763671875">
        <ele>747.4000244140625</ele>
        <time>2013-08-15T16:44:02.000Z</time>
        <extensions>
          <ns3:TrackPointExtension>
            <ns3:atemp>18.0</ns3:atemp>
            <ns3:hr>149</ns3:hr>
          </ns3:TrackPointExtension>
        </extensions>
      </trkpt>
      <trkpt lat="46.62031986750662326812744140625" lon="6.85827341862022876739501953125">
        <ele>747.5999755859375</ele>
        <time>2013-08-15T16:44:03.000Z</time>
        <extensions>
          <ns3:TrackPointExtension>
            <ns3:atemp>18.0</ns3:atemp>
            <ns3:hr>149</ns3:hr>
          </ns3:TrackPointExtension>
        </extensions>
      </trkpt>
      <trkpt lat="46.6202867589890956878662109375" lon="6.85824357904493808746337890625">
        <ele>747.5999755859375</ele>
        <time>2013-08-15T16:44:04.000Z</time>
        <extensions>
          <ns3:TrackPointExtension>
            <ns3:atemp>18.0</ns3:atemp>
            <ns3:hr>149</ns3:hr>
          </ns3:TrackPointExtension>
        </extensions>
      </trkpt>
      <trkpt lat="46.6202585957944393157958984375" lon="6.85822145082056522369384765625">
        <ele>747.79998779296875</ele>
        <time>2013-08-15T16:44:05.000Z</time>
        <extensions>
          <ns3:TrackPointExtension>
            <ns3:atemp>18.0</ns3:atemp>
            <ns3:hr>149</ns3:hr>
          </ns3:TrackPointExtension>
        </extensions>
      </trkpt>
      <trkpt lat="46.6202267445623874664306640625" lon="6.85819764621555805206298828125">
        <ele>748</ele>
        <time>2013-08-15T16:44:06.000Z</time>
        <extensions>
          <ns3:TrackPointExtension>
            <ns3:atemp>18.0</ns3:atemp>
            <ns3:hr>149</ns3:hr>
          </ns3:TrackPointExtension>
        </extensions>
      </trkpt>
      <trkpt lat="46.62019480951130390167236328125" lon="6.858176104724407196044921875">
        <ele>748.4000244140625</ele>
        <time>2013-08-15T16:44:07.000Z</time>
        <extensions>
          <ns3:TrackPointExtension>
            <ns3:atemp>18.0</ns3:atemp>
            <ns3:hr>149</ns3:hr>
          </ns3:TrackPointExtension>
        </extensions>
      </trkpt>
      <trkpt lat="46.62016178481280803680419921875" lon="6.858151964843273162841796875">
        <ele>748.20001220703125</ele>
        <time>2013-08-15T16:44:08.000Z</time>
        <extensions>
          <ns3:TrackPointExtension>
            <ns3:atemp>18.0</ns3:atemp>
            <ns3:hr>150</ns3:hr>
          </ns3:TrackPointExtension>
        </extensions>
      </trkpt>
      <trkpt lat="46.6201278381049633026123046875" lon="6.85812757350504398345947265625">
        <ele>748.5999755859375</ele>
        <time>2013-08-15T16:44:09.000Z</time>
        <extensions>
          <ns3:TrackPointExtension>
            <ns3:atemp>18.0</ns3:atemp>
            <ns3:hr>150</ns3:hr>
          </ns3:TrackPointExtension>
        </extensions>
      </trkpt>
      <trkpt lat="46.62010143510997295379638671875" lon="6.85809790156781673431396484375">
        <ele>748.5999755859375</ele>
        <time>2013-08-15T16:44:10.000Z</time>
        <extensions>
          <ns3:TrackPointExtension>
            <ns3:atemp>18.0</ns3:atemp>
            <ns3:hr>150</ns3:hr>
          </ns3:TrackPointExtension>
        </extensions>
      </trkpt>
      <trkpt lat="46.6200772114098072052001953125" lon="6.85806713998317718505859375">
        <ele>749</ele>
        <time>2013-08-15T16:44:11.000Z</time>
        <extensions>
          <ns3:TrackPointExtension>
            <ns3:atemp>18.0</ns3:atemp>
            <ns3:hr>150</ns3:hr>
          </ns3:TrackPointExtension>
        </extensions>
      </trkpt>
      <trkpt lat="46.62005784921348094940185546875" lon="6.8580396473407745361328125">
        <ele>749.20001220703125</ele>
        <time>2013-08-15T16:44:12.000Z</time>
        <extensions>
          <ns3:TrackPointExtension>
            <ns3:atemp>18.0</ns3:atemp>
            <ns3:hr>151</ns3:hr>
          </ns3:TrackPointExtension>
        </extensions>
      </trkpt>
      <trkpt lat="46.62004276178777217864990234375" lon="6.8580155074596405029296875">
        <ele>749.4000244140625</ele>
        <time>2013-08-15T16:44:13.000Z</time>
        <extensions>
          <ns3:TrackPointExtension>
            <ns3:atemp>18.0</ns3:atemp>
            <ns3:hr>151</ns3:hr>
          </ns3:TrackPointExtension>
        </extensions>
      </trkpt>
      <trkpt lat="46.6200299374759197235107421875" lon="6.85798927210271358489990234375">
        <ele>749.79998779296875</ele>
        <time>2013-08-15T16:44:14.000Z</time>
        <extensions>
          <ns3:TrackPointExtension>
            <ns3:atemp>18.0</ns3:atemp>
            <ns3:hr>151</ns3:hr>
          </ns3:TrackPointExtension>
        </extensions>
      </trkpt>
      <trkpt lat="46.62001610733568668365478515625" lon="6.8579618632793426513671875">
        <ele>749.79998779296875</ele>
        <time>2013-08-15T16:44:15.000Z</time>
        <extensions>
          <ns3:TrackPointExtension>
            <ns3:atemp>18.0</ns3:atemp>
            <ns3:hr>151</ns3:hr>
          </ns3:TrackPointExtension>
        </extensions>
      </trkpt>
      <trkpt lat="46.6199974156916141510009765625" lon="6.8579365499317646026611328125">
        <ele>750</ele>
        <time>2013-08-15T16:44:16.000Z</time>
        <extensions>
          <ns3:TrackPointExtension>
            <ns3:atemp>18.0</ns3:atemp>
            <ns3:hr>151</ns3:hr>
          </ns3:TrackPointExtension>
        </extensions>
      </trkpt>
      <trkpt lat="46.61997847259044647216796875" lon="6.85790813528001308441162109375">
        <ele>750.20001220703125</ele>
        <time>2013-08-15T16:44:17.000Z</time>
        <extensions>
          <ns3:TrackPointExtension>
            <ns3:atemp>18.0</ns3:atemp>
            <ns3:hr>151</ns3:hr>
          </ns3:TrackPointExtension>
        </extensions>
      </trkpt>
      <trkpt lat="46.61995190195739269256591796875" lon="6.85787728987634181976318359375">
        <ele>750.5999755859375</ele>
        <time>2013-08-15T16:44:18.000Z</time>
        <extensions>
          <ns3:TrackPointExtension>
            <ns3:atemp>18.0</ns3:atemp>
            <ns3:hr>152</ns3:hr>
          </ns3:TrackPointExtension>
        </extensions>
      </trkpt>
      <trkpt lat="46.6199270077049732208251953125" lon="6.85785926878452301025390625">
        <ele>751</ele>
        <time>2013-08-15T16:44:19.000Z</time>
        <extensions>
          <ns3:TrackPointExtension>
            <ns3:atemp>18.0</ns3:atemp>
            <ns3:hr>152</ns3:hr>
          </ns3:TrackPointExtension>
        </extensions>
      </trkpt>
      <trkpt lat="46.6199032030999660491943359375" lon="6.85783806256949901580810546875">
        <ele>751.4000244140625</ele>
        <time>2013-08-15T16:44:20.000Z</time>
        <extensions>
          <ns3:TrackPointExtension>
            <ns3:atemp>18.0</ns3:atemp>
            <ns3:hr>152</ns3:hr>
          </ns3:TrackPointExtension>
        </extensions>
      </trkpt>
      <trkpt lat="46.61987847648561000823974609375" lon="6.85780922882258892059326171875">
        <ele>751.5999755859375</ele>
        <time>2013-08-15T16:44:21.000Z</time>
        <extensions>
          <ns3:TrackPointExtension>
            <ns3:atemp>18.0</ns3:atemp>
            <ns3:hr>152</ns3:hr>
          </ns3:TrackPointExtension>
        </extensions>
      </trkpt>
      <trkpt lat="46.61984913982450962066650390625" lon="6.85779565013945102691650390625">
        <ele>751.79998779296875</ele>
        <time>2013-08-15T16:44:22.000Z</time>
        <extensions>
          <ns3:TrackPointExtension>
            <ns3:atemp>18.0</ns3:atemp>
            <ns3:hr>152</ns3:hr>
          </ns3:TrackPointExtension>
        </extensions>
      </trkpt>
      <trkpt lat="46.61980840377509593963623046875" lon="6.85777234844863414764404296875">
        <ele>752</ele>
        <time>2013-08-15T16:44:23.000Z</time>
        <extensions>
          <ns3:TrackPointExtension>
            <ns3:atemp>18.0</ns3:atemp>
            <ns3:hr>152</ns3:hr>
          </ns3:TrackPointExtension>
        </extensions>
      </trkpt>
      <trkpt lat="46.6197620518505573272705078125" lon="6.85774351470172405242919921875">
        <ele>752.20001220703125</ele>
        <time>2013-08-15T16:44:24.000Z</time>
        <extensions>
          <ns3:TrackPointExtension>
            <ns3:atemp>18.0</ns3:atemp>
            <ns3:hr>152</ns3:hr>
          </ns3:TrackPointExtension>
        </extensions>
      </trkpt>
      <trkpt lat="46.6197208128869533538818359375" lon="6.85771979391574859619140625">
        <ele>752.20001220703125</ele>
        <time>2013-08-15T16:44:25.000Z</time>
        <extensions>
          <ns3:TrackPointExtension>
            <ns3:atemp>18.0</ns3:atemp>
            <ns3:hr>152</ns3:hr>
          </ns3:TrackPointExtension>
        </extensions>
      </trkpt>
      <trkpt lat="46.61967865191400051116943359375" lon="6.857703365385532379150390625">
        <ele>752.4000244140625</ele>
        <time>2013-08-15T16:44:26.000Z</time>
        <extensions>
          <ns3:TrackPointExtension>
            <ns3:atemp>18.0</ns3:atemp>
            <ns3:hr>153</ns3:hr>
          </ns3:TrackPointExtension>
        </extensions>
      </trkpt>
      <trkpt lat="46.6196366585791110992431640625" lon="6.85768685303628444671630859375">
        <ele>752.4000244140625</ele>
        <time>2013-08-15T16:44:27.000Z</time>
        <extensions>
          <ns3:TrackPointExtension>
            <ns3:atemp>18.0</ns3:atemp>
            <ns3:hr>153</ns3:hr>
          </ns3:TrackPointExtension>
        </extensions>
      </trkpt>
      <trkpt lat="46.6195969283580780029296875" lon="6.8576763756573200225830078125">
        <ele>752.79998779296875</ele>
        <time>2013-08-15T16:44:28.000Z</time>
        <extensions>
          <ns3:TrackPointExtension>
            <ns3:atemp>18.0</ns3:atemp>
            <ns3:hr>153</ns3:hr>
          </ns3:TrackPointExtension>
        </extensions>
      </trkpt>
      <trkpt lat="46.61955594085156917572021484375" lon="6.85765944421291351318359375">
        <ele>752.79998779296875</ele>
        <time>2013-08-15T16:44:29.000Z</time>
        <extensions>
          <ns3:TrackPointExtension>
            <ns3:atemp>18.0</ns3:atemp>
            <ns3:hr>153</ns3:hr>
          </ns3:TrackPointExtension>
        </extensions>
      </trkpt>
      <trkpt lat="46.6195193119347095489501953125" lon="6.85764159075915813446044921875">
        <ele>753.20001220703125</ele>
        <time>2013-08-15T16:44:30.000Z</time>
        <extensions>
          <ns3:TrackPointExtension>
            <ns3:atemp>18.0</ns3:atemp>
            <ns3:hr>153</ns3:hr>
          </ns3:TrackPointExtension>
        </extensions>
      </trkpt>
      <trkpt lat="46.619480587542057037353515625" lon="6.8576244078576564788818359375">
        <ele>753.20001220703125</ele>
        <time>2013-08-15T16:44:31.000Z</time>
        <extensions>
          <ns3:TrackPointExtension>
            <ns3:atemp>18.0</ns3:atemp>
            <ns3:hr>153</ns3:hr>
          </ns3:TrackPointExtension>
        </extensions>
      </trkpt>
      <trkpt lat="46.61944395862519741058349609375" lon="6.85760705731809139251708984375">
        <ele>753.4000244140625</ele>
        <time>2013-08-15T16:44:32.000Z</time>
        <extensions>
          <ns3:TrackPointExtension>
            <ns3:atemp>18.0</ns3:atemp>
            <ns3:hr>154</ns3:hr>
          </ns3:TrackPointExtension>
        </extensions>
      </trkpt>
      <trkpt lat="46.61940959282219409942626953125" lon="6.8575912155210971832275390625">
        <ele>753.5999755859375</ele>
        <time>2013-08-15T16:44:33.000Z</time>
        <extensions>
          <ns3:TrackPointExtension>
            <ns3:atemp>18.0</ns3:atemp>
            <ns3:hr>154</ns3:hr>
          </ns3:TrackPointExtension>
        </extensions>
      </trkpt>
      <trkpt lat="46.619376651942729949951171875" lon="6.85757302679121494293212890625">
        <ele>753.5999755859375</ele>
        <time>2013-08-15T16:44:34.000Z</time>
        <extensions>
          <ns3:TrackPointExtension>
            <ns3:atemp>18.0</ns3:atemp>
            <ns3:hr>154</ns3:hr>
          </ns3:TrackPointExtension>
        </extensions>
      </trkpt>
      <trkpt lat="46.61934169940650463104248046875" lon="6.85755458660423755645751953125">
        <ele>753.5999755859375</ele>
        <time>2013-08-15T16:44:35.000Z</time>
        <extensions>
          <ns3:TrackPointExtension>
            <ns3:atemp>18.0</ns3:atemp>
            <ns3:hr>154</ns3:hr>
          </ns3:TrackPointExtension>
        </extensions>
      </trkpt>
      <trkpt lat="46.61930683068931102752685546875" lon="6.85754251666367053985595703125">
        <ele>753.79998779296875</ele>
        <time>2013-08-15T16:44:36.000Z</time>
        <extensions>
          <ns3:TrackPointExtension>
            <ns3:atemp>18.0</ns3:atemp>
            <ns3:hr>154</ns3:hr>
          </ns3:TrackPointExtension>
        </extensions>
      </trkpt>
      <trkpt lat="46.6192696988582611083984375" lon="6.8575295247137546539306640625">
        <ele>753.79998779296875</ele>
        <time>2013-08-15T16:44:37.000Z</time>
        <extensions>
          <ns3:TrackPointExtension>
            <ns3:atemp>18.0</ns3:atemp>
            <ns3:hr>155</ns3:hr>
          </ns3:TrackPointExtension>
        </extensions>
      </trkpt>
      <trkpt lat="46.6192366741597652435302734375" lon="6.85751837678253650665283203125">
        <ele>754</ele>
        <time>2013-08-15T16:44:38.000Z</time>
        <extensions>
          <ns3:TrackPointExtension>
            <ns3:atemp>18.0</ns3:atemp>
            <ns3:hr>154</ns3:hr>
          </ns3:TrackPointExtension>
        </extensions>
      </trkpt>
      <trkpt lat="46.619204990565776824951171875" lon="6.85750429518520832061767578125">
        <ele>754.20001220703125</ele>
        <time>2013-08-15T16:44:39.000Z</time>
        <extensions>
          <ns3:TrackPointExtension>
            <ns3:atemp>18.0</ns3:atemp>
            <ns3:hr>154</ns3:hr>
          </ns3:TrackPointExtension>
        </extensions>
      </trkpt>
      <trkpt lat="46.6191780008375644683837890625" lon="6.85749608092010021209716796875">
        <ele>754.20001220703125</ele>
        <time>2013-08-15T16:44:40.000Z</time>
        <extensions>
          <ns3:TrackPointExtension>
            <ns3:atemp>18.0</ns3:atemp>
            <ns3:hr>154</ns3:hr>
          </ns3:TrackPointExtension>
        </extensions>
      </trkpt>
      <trkpt lat="46.6191438026726245880126953125" lon="6.85747864656150341033935546875">
        <ele>754.4000244140625</ele>
        <time>2013-08-15T16:44:41.000Z</time>
        <extensions>
          <ns3:TrackPointExtension>
            <ns3:atemp>18.0</ns3:atemp>
            <ns3:hr>155</ns3:hr>
          </ns3:TrackPointExtension>
        </extensions>
      </trkpt>
      <trkpt lat="46.6191092692315578460693359375" lon="6.85746104456484317779541015625">
        <ele>754.5999755859375</ele>
        <time>2013-08-15T16:44:42.000Z</time>
        <extensions>
          <ns3:TrackPointExtension>
            <ns3:atemp>18.0</ns3:atemp>
            <ns3:hr>155</ns3:hr>
          </ns3:TrackPointExtension>
        </extensions>
      </trkpt>
      <trkpt lat="46.61907029338181018829345703125" lon="6.85743950307369232177734375">
        <ele>754.79998779296875</ele>
        <time>2013-08-15T16:44:43.000Z</time>
        <extensions>
          <ns3:TrackPointExtension>
            <ns3:atemp>18.0</ns3:atemp>
            <ns3:hr>155</ns3:hr>
          </ns3:TrackPointExtension>
        </extensions>
      </trkpt>
      <trkpt lat="46.6190277971327304840087890625" lon="6.85740823857486248016357421875">
        <ele>754.79998779296875</ele>
        <time>2013-08-15T16:44:44.000Z</time>
        <extensions>
          <ns3:TrackPointExtension>
            <ns3:atemp>18.0</ns3:atemp>
            <ns3:hr>155</ns3:hr>
          </ns3:TrackPointExtension>
        </extensions>
      </trkpt>
      <trkpt lat="46.61898580379784107208251953125" lon="6.85738024301826953887939453125">
        <ele>755</ele>
        <time>2013-08-15T16:44:45.000Z</time>
        <extensions>
          <ns3:TrackPointExtension>
            <ns3:atemp>18.0</ns3:atemp>
            <ns3:hr>155</ns3:hr>
          </ns3:TrackPointExtension>
        </extensions>
      </trkpt>
      <trkpt lat="46.618944816291332244873046875" lon="6.85735358856618404388427734375">
        <ele>755.20001220703125</ele>
        <time>2013-08-15T16:44:46.000Z</time>
        <extensions>
          <ns3:TrackPointExtension>
            <ns3:atemp>18.0</ns3:atemp>
            <ns3:hr>154</ns3:hr>
          </ns3:TrackPointExtension>
        </extensions>
      </trkpt>
      <trkpt lat="46.618906594812870025634765625" lon="6.85733095742762088775634765625">
        <ele>755.20001220703125</ele>
        <time>2013-08-15T16:44:47.000Z</time>
        <extensions>
          <ns3:TrackPointExtension>
            <ns3:atemp>18.0</ns3:atemp>
            <ns3:hr>154</ns3:hr>
          </ns3:TrackPointExtension>
        </extensions>
      </trkpt>
      <trkpt lat="46.61886543966829776763916015625" lon="6.85730581171810626983642578125">
        <ele>755.20001220703125</ele>
        <time>2013-08-15T16:44:48.000Z</time>
        <extensions>
          <ns3:TrackPointExtension>
            <ns3:atemp>18.0</ns3:atemp>
            <ns3:hr>154</ns3:hr>
          </ns3:TrackPointExtension>
        </extensions>
      </trkpt>
      <trkpt lat="46.61882319487631320953369140625" lon="6.85727261938154697418212890625">
        <ele>755.4000244140625</ele>
        <time>2013-08-15T16:44:49.000Z</time>
        <extensions>
          <ns3:TrackPointExtension>
            <ns3:atemp>18.0</ns3:atemp>
            <ns3:hr>154</ns3:hr>
          </ns3:TrackPointExtension>
        </extensions>
      </trkpt>
      <trkpt lat="46.61877684295177459716796875" lon="6.857238002121448516845703125">
        <ele>755.79998779296875</ele>
        <time>2013-08-15T16:44:50.000Z</time>
        <extensions>
          <ns3:TrackPointExtension>
            <ns3:atemp>18.0</ns3:atemp>
            <ns3:hr>153</ns3:hr>
          </ns3:TrackPointExtension>
        </extensions>
      </trkpt>
      <trkpt lat="46.61872462369501590728759765625" lon="6.8572019599378108978271484375">
        <ele>756.20001220703125</ele>
        <time>2013-08-15T16:44:51.000Z</time>
        <extensions>
          <ns3:TrackPointExtension>
            <ns3:atemp>18.0</ns3:atemp>
            <ns3:hr>153</ns3:hr>
          </ns3:TrackPointExtension>
        </extensions>
      </trkpt>
      <trkpt lat="46.61867399699985980987548828125" lon="6.8571644090116024017333984375">
        <ele>756</ele>
        <time>2013-08-15T16:44:52.000Z</time>
        <extensions>
          <ns3:TrackPointExtension>
            <ns3:atemp>18.0</ns3:atemp>
            <ns3:hr>153</ns3:hr>
          </ns3:TrackPointExtension>
        </extensions>
      </trkpt>
      <trkpt lat="46.61863141693174839019775390625" lon="6.8571276962757110595703125">
        <ele>756.20001220703125</ele>
        <time>2013-08-15T16:44:53.000Z</time>
        <extensions>
          <ns3:TrackPointExtension>
            <ns3:atemp>18.0</ns3:atemp>
            <ns3:hr>153</ns3:hr>
          </ns3:TrackPointExtension>
        </extensions>
      </trkpt>
      <trkpt lat="46.618594788014888763427734375" lon="6.85708947479724884033203125">
        <ele>756.20001220703125</ele>
        <time>2013-08-15T16:44:54.000Z</time>
        <extensions>
          <ns3:TrackPointExtension>
            <ns3:atemp>18.0</ns3:atemp>
            <ns3:hr>153</ns3:hr>
          </ns3:TrackPointExtension>
        </extensions>
      </trkpt>
      <trkpt lat="46.61855933256447315216064453125" lon="6.857054270803928375244140625">
        <ele>756.4000244140625</ele>
        <time>2013-08-15T16:44:55.000Z</time>
        <extensions>
          <ns3:TrackPointExtension>
            <ns3:atemp>18.0</ns3:atemp>
            <ns3:hr>153</ns3:hr>
          </ns3:TrackPointExtension>
        </extensions>
      </trkpt>
      <trkpt lat="46.61852069199085235595703125" lon="6.8570212461054325103759765625">
        <ele>756.4000244140625</ele>
        <time>2013-08-15T16:44:56.000Z</time>
        <extensions>
          <ns3:TrackPointExtension>
            <ns3:atemp>18.0</ns3:atemp>
            <ns3:hr>152</ns3:hr>
          </ns3:TrackPointExtension>
        </extensions>
      </trkpt>
      <trkpt lat="46.61848775111138820648193359375" lon="6.85698713175952434539794921875">
        <ele>756.4000244140625</ele>
        <time>2013-08-15T16:44:57.000Z</time>
        <extensions>
          <ns3:TrackPointExtension>
            <ns3:atemp>18.0</ns3:atemp>
            <ns3:hr>152</ns3:hr>
          </ns3:TrackPointExtension>
        </extensions>
      </trkpt>
      <trkpt lat="46.61844902671873569488525390625" lon="6.85694924555718898773193359375">
        <ele>756.20001220703125</ele>
        <time>2013-08-15T16:44:58.000Z</time>
        <extensions>
          <ns3:TrackPointExtension>
            <ns3:atemp>18.0</ns3:atemp>
            <ns3:hr>152</ns3:hr>
          </ns3:TrackPointExtension>
        </extensions>
      </trkpt>
      <trkpt lat="46.6183927841484546661376953125" lon="6.8569092638790607452392578125">
        <ele>756.4000244140625</ele>
        <time>2013-08-15T16:44:59.000Z</time>
        <extensions>
          <ns3:TrackPointExtension>
            <ns3:atemp>18.0</ns3:atemp>
            <ns3:hr>152</ns3:hr>
          </ns3:TrackPointExtension>
        </extensions>
      </trkpt>
      <trkpt lat="46.6183371283113956451416015625" lon="6.8568683601915836334228515625">
        <ele>756.5999755859375</ele>
        <time>2013-08-15T16:45:00.000Z</time>
        <extensions>
          <ns3:TrackPointExtension>
            <ns3:atemp>18.0</ns3:atemp>
            <ns3:hr>152</ns3:hr>
          </ns3:TrackPointExtension>
        </extensions>
      </trkpt>
      <trkpt lat="46.61829111166298389434814453125" lon="6.85682686977088451385498046875">
        <ele>756.79998779296875</ele>
        <time>2013-08-15T16:45:01.000Z</time>
        <extensions>
          <ns3:TrackPointExtension>
            <ns3:atemp>18.0</ns3:atemp>
            <ns3:hr>152</ns3:hr>
          </ns3:TrackPointExtension>
        </extensions>
      </trkpt>
      <trkpt lat="46.6182479448616504669189453125" lon="6.856788061559200286865234375">
        <ele>756.79998779296875</ele>
        <time>2013-08-15T16:45:02.000Z</time>
        <extensions>
          <ns3:TrackPointExtension>
            <ns3:atemp>18.0</ns3:atemp>
            <ns3:hr>152</ns3:hr>
          </ns3:TrackPointExtension>
        </extensions>
      </trkpt>
      <trkpt lat="46.61820913664996623992919921875" lon="6.85675193555653095245361328125">
        <ele>757</ele>
        <time>2013-08-15T16:45:03.000Z</time>
        <extensions>
          <ns3:TrackPointExtension>
            <ns3:atemp>18.0</ns3:atemp>
            <ns3:hr>152</ns3:hr>
          </ns3:TrackPointExtension>
        </extensions>
      </trkpt>
      <trkpt lat="46.6181728430092334747314453125" lon="6.8567200005054473876953125">
        <ele>757</ele>
        <time>2013-08-15T16:45:04.000Z</time>
        <extensions>
          <ns3:TrackPointExtension>
            <ns3:atemp>18.0</ns3:atemp>
            <ns3:hr>151</ns3:hr>
          </ns3:TrackPointExtension>
        </extensions>
      </trkpt>
      <trkpt lat="46.61813571117818355560302734375" lon="6.85668605379760265350341796875">
        <ele>757</ele>
        <time>2013-08-15T16:45:05.000Z</time>
        <extensions>
          <ns3:TrackPointExtension>
            <ns3:atemp>18.0</ns3:atemp>
            <ns3:hr>151</ns3:hr>
          </ns3:TrackPointExtension>
        </extensions>
      </trkpt>
      <trkpt lat="46.618096567690372467041015625" lon="6.8566484190523624420166015625">
        <ele>757</ele>
        <time>2013-08-15T16:45:06.000Z</time>
        <extensions>
          <ns3:TrackPointExtension>
            <ns3:atemp>18.0</ns3:atemp>
            <ns3:hr>151</ns3:hr>
          </ns3:TrackPointExtension>
        </extensions>
      </trkpt>
      <trkpt lat="46.6180573403835296630859375" lon="6.8566180765628814697265625">
        <ele>757</ele>
        <time>2013-08-15T16:45:07.000Z</time>
        <extensions>
          <ns3:TrackPointExtension>
            <ns3:atemp>18.0</ns3:atemp>
            <ns3:hr>151</ns3:hr>
          </ns3:TrackPointExtension>
        </extensions>
      </trkpt>
      <trkpt lat="46.6180226393043994903564453125" lon="6.8565847165882587432861328125">
        <ele>757</ele>
        <time>2013-08-15T16:45:08.000Z</time>
        <extensions>
          <ns3:TrackPointExtension>
            <ns3:atemp>18.0</ns3:atemp>
            <ns3:hr>151</ns3:hr>
          </ns3:TrackPointExtension>
        </extensions>
      </trkpt>
      <trkpt lat="46.6179807297885417938232421875" lon="6.856539957225322723388671875">
        <ele>757</ele>
        <time>2013-08-15T16:45:09.000Z</time>
        <extensions>
          <ns3:TrackPointExtension>
            <ns3:atemp>18.0</ns3:atemp>
            <ns3:hr>150</ns3:hr>
          </ns3:TrackPointExtension>
        </extensions>
      </trkpt>
      <trkpt lat="46.6179301030933856964111328125" lon="6.85648974962532520294189453125">
        <ele>757</ele>
        <time>2013-08-15T16:45:10.000Z</time>
        <extensions>
          <ns3:TrackPointExtension>
            <ns3:atemp>18.0</ns3:atemp>
            <ns3:hr>150</ns3:hr>
          </ns3:TrackPointExtension>
        </extensions>
      </trkpt>
      <trkpt lat="46.61788878031075000762939453125" lon="6.85643074102699756622314453125">
        <ele>757</ele>
        <time>2013-08-15T16:45:11.000Z</time>
        <extensions>
          <ns3:TrackPointExtension>
            <ns3:atemp>18.0</ns3:atemp>
            <ns3:hr>149</ns3:hr>
          </ns3:TrackPointExtension>
        </extensions>
      </trkpt>
      <trkpt lat="46.617853827774524688720703125" lon="6.8563704751431941986083984375">
        <ele>757</ele>
        <time>2013-08-15T16:45:12.000Z</time>
        <extensions>
          <ns3:TrackPointExtension>
            <ns3:atemp>18.0</ns3:atemp>
            <ns3:hr>148</ns3:hr>
          </ns3:TrackPointExtension>
        </extensions>
      </trkpt>
      <trkpt lat="46.6178305260837078094482421875" lon="6.856308281421661376953125">
        <ele>757</ele>
        <time>2013-08-15T16:45:13.000Z</time>
        <extensions>
          <ns3:TrackPointExtension>
            <ns3:atemp>18.0</ns3:atemp>
            <ns3:hr>147</ns3:hr>
          </ns3:TrackPointExtension>
        </extensions>
      </trkpt>
      <trkpt lat="46.6178090684115886688232421875" lon="6.85623644851148128509521484375">
        <ele>756.79998779296875</ele>
        <time>2013-08-15T16:45:14.000Z</time>
        <extensions>
          <ns3:TrackPointExtension>
            <ns3:atemp>18.0</ns3:atemp>
            <ns3:hr>147</ns3:hr>
          </ns3:TrackPointExtension>
        </extensions>
      </trkpt>
      <trkpt lat="46.61778710782527923583984375" lon="6.85616067610681056976318359375">
        <ele>756.5999755859375</ele>
        <time>2013-08-15T16:45:15.000Z</time>
        <extensions>
          <ns3:TrackPointExtension>
            <ns3:atemp>18.0</ns3:atemp>
            <ns3:hr>147</ns3:hr>
          </ns3:TrackPointExtension>
        </extensions>
      </trkpt>
      <trkpt lat="46.61776422522962093353271484375" lon="6.85609060339629650115966796875">
        <ele>756.79998779296875</ele>
        <time>2013-08-15T16:45:16.000Z</time>
        <extensions>
          <ns3:TrackPointExtension>
            <ns3:atemp>18.0</ns3:atemp>
            <ns3:hr>146</ns3:hr>
          </ns3:TrackPointExtension>
        </extensions>
      </trkpt>
      <trkpt lat="46.61773606203496456146240234375" lon="6.85601851902902126312255859375">
        <ele>757</ele>
        <time>2013-08-15T16:45:17.000Z</time>
        <extensions>
          <ns3:TrackPointExtension>
            <ns3:atemp>18.0</ns3:atemp>
            <ns3:hr>146</ns3:hr>
          </ns3:TrackPointExtension>
        </extensions>
      </trkpt>
      <trkpt lat="46.61770421080291271209716796875" lon="6.85594324953854084014892578125">
        <ele>757</ele>
        <time>2013-08-15T16:45:18.000Z</time>
        <extensions>
          <ns3:TrackPointExtension>
            <ns3:atemp>18.0</ns3:atemp>
            <ns3:hr>145</ns3:hr>
          </ns3:TrackPointExtension>
        </extensions>
      </trkpt>
      <trkpt lat="46.617670767009258270263671875" lon="6.85586638748645782470703125">
        <ele>757</ele>
        <time>2013-08-15T16:45:19.000Z</time>
        <extensions>
          <ns3:TrackPointExtension>
            <ns3:atemp>18.0</ns3:atemp>
            <ns3:hr>145</ns3:hr>
          </ns3:TrackPointExtension>
        </extensions>
      </trkpt>
      <trkpt lat="46.61764168180525302886962890625" lon="6.85578189790248870849609375">
        <ele>757</ele>
        <time>2013-08-15T16:45:20.000Z</time>
        <extensions>
          <ns3:TrackPointExtension>
            <ns3:atemp>18.0</ns3:atemp>
            <ns3:hr>144</ns3:hr>
          </ns3:TrackPointExtension>
        </extensions>
      </trkpt>
      <trkpt lat="46.61761301569640636444091796875" lon="6.85569740831851959228515625">
        <ele>757</ele>
        <time>2013-08-15T16:45:21.000Z</time>
        <extensions>
          <ns3:TrackPointExtension>
            <ns3:atemp>18.0</ns3:atemp>
            <ns3:hr>144</ns3:hr>
          </ns3:TrackPointExtension>
        </extensions>
      </trkpt>
      <trkpt lat="46.61758862435817718505859375" lon="6.85560562647879123687744140625">
        <ele>756.79998779296875</ele>
        <time>2013-08-15T16:45:22.000Z</time>
        <extensions>
          <ns3:TrackPointExtension>
            <ns3:atemp>18.0</ns3:atemp>
            <ns3:hr>144</ns3:hr>
          </ns3:TrackPointExtension>
        </extensions>
      </trkpt>
      <trkpt lat="46.6175639815628528594970703125" lon="6.85551107861101627349853515625">
        <ele>756.79998779296875</ele>
        <time>2013-08-15T16:45:23.000Z</time>
        <extensions>
          <ns3:TrackPointExtension>
            <ns3:atemp>18.0</ns3:atemp>
            <ns3:hr>143</ns3:hr>
          </ns3:TrackPointExtension>
        </extensions>
      </trkpt>
      <trkpt lat="46.61754361353814601898193359375" lon="6.85541443526744842529296875">
        <ele>756.79998779296875</ele>
        <time>2013-08-15T16:45:24.000Z</time>
        <extensions>
          <ns3:TrackPointExtension>
            <ns3:atemp>18.0</ns3:atemp>
            <ns3:hr>143</ns3:hr>
          </ns3:TrackPointExtension>
        </extensions>
      </trkpt>
      <trkpt lat="46.61752425134181976318359375" lon="6.85531125403940677642822265625">
        <ele>756.5999755859375</ele>
        <time>2013-08-15T16:45:25.000Z</time>
        <extensions>
          <ns3:TrackPointExtension>
            <ns3:atemp>18.0</ns3:atemp>
            <ns3:hr>142</ns3:hr>
          </ns3:TrackPointExtension>
        </extensions>
      </trkpt>
      <trkpt lat="46.617501117289066314697265625" lon="6.85521016828715801239013671875">
        <ele>756.4000244140625</ele>
        <time>2013-08-15T16:45:26.000Z</time>
        <extensions>
          <ns3:TrackPointExtension>
            <ns3:atemp>18.0</ns3:atemp>
            <ns3:hr>142</ns3:hr>
          </ns3:TrackPointExtension>
        </extensions>
      </trkpt>
      <trkpt lat="46.6174804978072643280029296875" lon="6.855104975402355194091796875">
        <ele>756.4000244140625</ele>
        <time>2013-08-15T16:45:27.000Z</time>
        <extensions>
          <ns3:TrackPointExtension>
            <ns3:atemp>18.0</ns3:atemp>
            <ns3:hr>142</ns3:hr>
          </ns3:TrackPointExtension>
        </extensions>
      </trkpt>
      <trkpt lat="46.61745996214449405670166015625" lon="6.8549938313663005828857421875">
        <ele>756.20001220703125</ele>
        <time>2013-08-15T16:45:28.000Z</time>
        <extensions>
          <ns3:TrackPointExtension>
            <ns3:atemp>18.0</ns3:atemp>
            <ns3:hr>141</ns3:hr>
          </ns3:TrackPointExtension>
        </extensions>
      </trkpt>
      <trkpt lat="46.61743640899658203125" lon="6.85488109476864337921142578125">
        <ele>756.20001220703125</ele>
        <time>2013-08-15T16:45:29.000Z</time>
        <extensions>
          <ns3:TrackPointExtension>
            <ns3:atemp>18.0</ns3:atemp>
            <ns3:hr>141</ns3:hr>
          </ns3:TrackPointExtension>
        </extensions>
      </trkpt>
      <trkpt lat="46.61740866489708423614501953125" lon="6.8547725491225719451904296875">
        <ele>756</ele>
        <time>2013-08-15T16:45:30.000Z</time>
        <extensions>
          <ns3:TrackPointExtension>
            <ns3:atemp>18.0</ns3:atemp>
            <ns3:hr>141</ns3:hr>
          </ns3:TrackPointExtension>
        </extensions>
      </trkpt>
      <trkpt lat="46.61737941205501556396484375" lon="6.85466752387583255767822265625">
        <ele>755.5999755859375</ele>
        <time>2013-08-15T16:45:31.000Z</time>
        <extensions>
          <ns3:TrackPointExtension>
            <ns3:atemp>18.0</ns3:atemp>
            <ns3:hr>141</ns3:hr>
          </ns3:TrackPointExtension>
        </extensions>
      </trkpt>
      <trkpt lat="46.6173463873565196990966796875" lon="6.85456459410488605499267578125">
        <ele>755.4000244140625</ele>
        <time>2013-08-15T16:45:32.000Z</time>
        <extensions>
          <ns3:TrackPointExtension>
            <ns3:atemp>18.0</ns3:atemp>
            <ns3:hr>140</ns3:hr>
          </ns3:TrackPointExtension>
        </extensions>
      </trkpt>
      <trkpt lat="46.6173143684864044189453125" lon="6.8544557131826877593994140625">
        <ele>755.5999755859375</ele>
        <time>2013-08-15T16:45:33.000Z</time>
        <extensions>
          <ns3:TrackPointExtension>
            <ns3:atemp>18.0</ns3:atemp>
            <ns3:hr>140</ns3:hr>
          </ns3:TrackPointExtension>
        </extensions>
      </trkpt>
      <trkpt lat="46.61728830076754093170166015625" lon="6.8543422222137451171875">
        <ele>755.4000244140625</ele>
        <time>2013-08-15T16:45:34.000Z</time>
        <extensions>
          <ns3:TrackPointExtension>
            <ns3:atemp>18.0</ns3:atemp>
            <ns3:hr>140</ns3:hr>
          </ns3:TrackPointExtension>
        </extensions>
      </trkpt>
      <trkpt lat="46.61726499907672405242919921875" lon="6.85421540401875972747802734375">
        <ele>755.20001220703125</ele>
        <time>2013-08-15T16:45:35.000Z</time>
        <extensions>
          <ns3:TrackPointExtension>
            <ns3:atemp>18.0</ns3:atemp>
            <ns3:hr>139</ns3:hr>
          </ns3:TrackPointExtension>
        </extensions>
      </trkpt>
      <trkpt lat="46.61724069155752658843994140625" lon="6.85408380813896656036376953125">
        <ele>754.4000244140625</ele>
        <time>2013-08-15T16:45:36.000Z</time>
        <extensions>
          <ns3:TrackPointExtension>
            <ns3:atemp>18.0</ns3:atemp>
            <ns3:hr>139</ns3:hr>
          </ns3:TrackPointExtension>
        </extensions>
      </trkpt>
      <trkpt lat="46.61721705459058284759521484375" lon="6.85395053587853908538818359375">
        <ele>754.20001220703125</ele>
        <time>2013-08-15T16:45:37.000Z</time>
        <extensions>
          <ns3:TrackPointExtension>
            <ns3:atemp>18.0</ns3:atemp>
            <ns3:hr>139</ns3:hr>
          </ns3:TrackPointExtension>
        </extensions>
      </trkpt>
      <trkpt lat="46.61718721501529216766357421875" lon="6.85383318923413753509521484375">
        <ele>753.4000244140625</ele>
        <time>2013-08-15T16:45:38.000Z</time>
        <extensions>
          <ns3:TrackPointExtension>
            <ns3:atemp>18.0</ns3:atemp>
            <ns3:hr>138</ns3:hr>
          </ns3:TrackPointExtension>
        </extensions>
      </trkpt>
      <trkpt lat="46.61714144982397556304931640625" lon="6.8537373840808868408203125">
        <ele>752.79998779296875</ele>
        <time>2013-08-15T16:45:39.000Z</time>
        <extensions>
          <ns3:TrackPointExtension>
            <ns3:atemp>18.0</ns3:atemp>
            <ns3:hr>138</ns3:hr>
          </ns3:TrackPointExtension>
        </extensions>
      </trkpt>
      <trkpt lat="46.61708981730043888092041015625" lon="6.85366429388523101806640625">
        <ele>752.20001220703125</ele>
        <time>2013-08-15T16:45:40.000Z</time>
        <extensions>
          <ns3:TrackPointExtension>
            <ns3:atemp>18.0</ns3:atemp>
            <ns3:hr>138</ns3:hr>
          </ns3:TrackPointExtension>
        </extensions>
      </trkpt>
      <trkpt lat="46.61703349091112613677978515625" lon="6.85360453091561794281005859375">
        <ele>752</ele>
        <time>2013-08-15T16:45:41.000Z</time>
        <extensions>
          <ns3:TrackPointExtension>
            <ns3:atemp>18.0</ns3:atemp>
            <ns3:hr>138</ns3:hr>
          </ns3:TrackPointExtension>
        </extensions>
      </trkpt>
      <trkpt lat="46.61697582341730594635009765625" lon="6.85354669578373432159423828125">
        <ele>752</ele>
        <time>2013-08-15T16:45:42.000Z</time>
        <extensions>
          <ns3:TrackPointExtension>
            <ns3:atemp>18.0</ns3:atemp>
            <ns3:hr>138</ns3:hr>
          </ns3:TrackPointExtension>
        </extensions>
      </trkpt>
      <trkpt lat="46.61692075431346893310546875" lon="6.8534946441650390625">
        <ele>752</ele>
        <time>2013-08-15T16:45:43.000Z</time>
        <extensions>
          <ns3:TrackPointExtension>
            <ns3:atemp>18.0</ns3:atemp>
            <ns3:hr>139</ns3:hr>
          </ns3:TrackPointExtension>
        </extensions>
      </trkpt>
      <trkpt lat="46.6168677806854248046875" lon="6.85344594530761241912841796875">
        <ele>752.4000244140625</ele>
        <time>2013-08-15T16:45:44.000Z</time>
        <extensions>
          <ns3:TrackPointExtension>
            <ns3:atemp>18.0</ns3:atemp>
            <ns3:hr>139</ns3:hr>
          </ns3:TrackPointExtension>
        </extensions>
      </trkpt>
      <trkpt lat="46.6168146394193172454833984375" lon="6.85340520925819873809814453125">
        <ele>752.79998779296875</ele>
        <time>2013-08-15T16:45:45.000Z</time>
        <extensions>
          <ns3:TrackPointExtension>
            <ns3:atemp>18.0</ns3:atemp>
            <ns3:hr>139</ns3:hr>
          </ns3:TrackPointExtension>
        </extensions>
      </trkpt>
      <trkpt lat="46.61676359362900257110595703125" lon="6.85337704606354236602783203125">
        <ele>753.20001220703125</ele>
        <time>2013-08-15T16:45:46.000Z</time>
        <extensions>
          <ns3:TrackPointExtension>
            <ns3:atemp>18.0</ns3:atemp>
            <ns3:hr>139</ns3:hr>
          </ns3:TrackPointExtension>
        </extensions>
      </trkpt>
      <trkpt lat="46.6167167387902736663818359375" lon="6.85335122980177402496337890625">
        <ele>753</ele>
        <time>2013-08-15T16:45:47.000Z</time>
        <extensions>
          <ns3:TrackPointExtension>
            <ns3:atemp>18.0</ns3:atemp>
            <ns3:hr>139</ns3:hr>
          </ns3:TrackPointExtension>
        </extensions>
      </trkpt>
      <trkpt lat="46.61667533218860626220703125" lon="6.85333362780511379241943359375">
        <ele>753.20001220703125</ele>
        <time>2013-08-15T16:45:48.000Z</time>
        <extensions>
          <ns3:TrackPointExtension>
            <ns3:atemp>18.0</ns3:atemp>
            <ns3:hr>139</ns3:hr>
          </ns3:TrackPointExtension>
        </extensions>
      </trkpt>
      <trkpt lat="46.61663937382400035858154296875" lon="6.8533288501203060150146484375">
        <ele>753.4000244140625</ele>
        <time>2013-08-15T16:45:49.000Z</time>
        <extensions>
          <ns3:TrackPointExtension>
            <ns3:atemp>18.0</ns3:atemp>
            <ns3:hr>139</ns3:hr>
          </ns3:TrackPointExtension>
        </extensions>
      </trkpt>
      <trkpt lat="46.616602577269077301025390625" lon="6.85332625173032283782958984375">
        <ele>754.20001220703125</ele>
        <time>2013-08-15T16:45:50.000Z</time>
        <extensions>
          <ns3:TrackPointExtension>
            <ns3:atemp>18.0</ns3:atemp>
            <ns3:hr>139</ns3:hr>
          </ns3:TrackPointExtension>
        </extensions>
      </trkpt>
      <trkpt lat="46.61655974574387073516845703125" lon="6.85332105495035648345947265625">
        <ele>754.5999755859375</ele>
        <time>2013-08-15T16:45:51.000Z</time>
        <extensions>
          <ns3:TrackPointExtension>
            <ns3:atemp>18.0</ns3:atemp>
            <ns3:hr>139</ns3:hr>
          </ns3:TrackPointExtension>
        </extensions>
      </trkpt>
      <trkpt lat="46.616516746580600738525390625" lon="6.85330487787723541259765625">
        <ele>754.79998779296875</ele>
        <time>2013-08-15T16:45:52.000Z</time>
        <extensions>
          <ns3:TrackPointExtension>
            <ns3:atemp>18.0</ns3:atemp>
            <ns3:hr>139</ns3:hr>
          </ns3:TrackPointExtension>
        </extensions>
      </trkpt>
      <trkpt lat="46.6164736635982990264892578125" lon="6.85329741798341274261474609375">
        <ele>754.79998779296875</ele>
        <time>2013-08-15T16:45:53.000Z</time>
        <extensions>
          <ns3:TrackPointExtension>
            <ns3:atemp>18.0</ns3:atemp>
            <ns3:hr>139</ns3:hr>
          </ns3:TrackPointExtension>
        </extensions>
      </trkpt>
      <trkpt lat="46.61644139327108860015869140625" lon="6.85329255647957324981689453125">
        <ele>755</ele>
        <time>2013-08-15T16:45:54.000Z</time>
        <extensions>
          <ns3:TrackPointExtension>
            <ns3:atemp>18.0</ns3:atemp>
            <ns3:hr>139</ns3:hr>
          </ns3:TrackPointExtension>
        </extensions>
      </trkpt>
      <trkpt lat="46.6164104640483856201171875" lon="6.85328803025186061859130859375">
        <ele>755.20001220703125</ele>
        <time>2013-08-15T16:45:55.000Z</time>
        <extensions>
          <ns3:TrackPointExtension>
            <ns3:atemp>18.0</ns3:atemp>
            <ns3:hr>139</ns3:hr>
          </ns3:TrackPointExtension>
        </extensions>
      </trkpt>
      <trkpt lat="46.616378612816333770751953125" lon="6.85328719206154346466064453125">
        <ele>755.5999755859375</ele>
        <time>2013-08-15T16:45:56.000Z</time>
        <extensions>
          <ns3:TrackPointExtension>
            <ns3:atemp>18.0</ns3:atemp>
            <ns3:hr>139</ns3:hr>
          </ns3:TrackPointExtension>
        </extensions>
      </trkpt>
      <trkpt lat="46.616350449621677398681640625" lon="6.85329741798341274261474609375">
        <ele>755.79998779296875</ele>
        <time>2013-08-15T16:45:57.000Z</time>
        <extensions>
          <ns3:TrackPointExtension>
            <ns3:atemp>18.0</ns3:atemp>
            <ns3:hr>139</ns3:hr>
          </ns3:TrackPointExtension>
        </extensions>
      </trkpt>
      <trkpt lat="46.61632840521633625030517578125" lon="6.85331535525619983673095703125">
        <ele>756.4000244140625</ele>
        <time>2013-08-15T16:45:58.000Z</time>
        <extensions>
          <ns3:TrackPointExtension>
            <ns3:atemp>18.0</ns3:atemp>
            <ns3:hr>139</ns3:hr>
          </ns3:TrackPointExtension>
        </extensions>
      </trkpt>
      <trkpt lat="46.61630828864872455596923828125" lon="6.853339411318302154541015625">
        <ele>756.79998779296875</ele>
        <time>2013-08-15T16:45:59.000Z</time>
        <extensions>
          <ns3:TrackPointExtension>
            <ns3:atemp>18.0</ns3:atemp>
            <ns3:hr>139</ns3:hr>
          </ns3:TrackPointExtension>
        </extensions>
      </trkpt>
      <trkpt lat="46.6162922792136669158935546875" lon="6.85336212627589702606201171875">
        <ele>757.20001220703125</ele>
        <time>2013-08-15T16:46:00.000Z</time>
        <extensions>
          <ns3:TrackPointExtension>
            <ns3:atemp>18.0</ns3:atemp>
            <ns3:hr>139</ns3:hr>
          </ns3:TrackPointExtension>
        </extensions>
      </trkpt>
      <trkpt lat="46.61627576686441898345947265625" lon="6.85339783318340778350830078125">
        <ele>757.5999755859375</ele>
        <time>2013-08-15T16:46:01.000Z</time>
        <extensions>
          <ns3:TrackPointExtension>
            <ns3:atemp>18.0</ns3:atemp>
            <ns3:hr>139</ns3:hr>
          </ns3:TrackPointExtension>
        </extensions>
      </trkpt>
      <trkpt lat="46.6162664629518985748291015625" lon="6.85342784039676189422607421875">
        <ele>758.4000244140625</ele>
        <time>2013-08-15T16:46:02.000Z</time>
        <extensions>
          <ns3:TrackPointExtension>
            <ns3:atemp>18.0</ns3:atemp>
            <ns3:hr>140</ns3:hr>
          </ns3:TrackPointExtension>
        </extensions>
      </trkpt>
      <trkpt lat="46.61625531502068042755126953125" lon="6.8534589372575283050537109375">
        <ele>758.79998779296875</ele>
        <time>2013-08-15T16:46:03.000Z</time>
        <extensions>
          <ns3:TrackPointExtension>
            <ns3:atemp>18.0</ns3:atemp>
            <ns3:hr>140</ns3:hr>
          </ns3:TrackPointExtension>
        </extensions>
      </trkpt>
      <trkpt lat="46.61624592728912830352783203125" lon="6.8534887768328189849853515625">
        <ele>759.20001220703125</ele>
        <time>2013-08-15T16:46:04.000Z</time>
        <extensions>
          <ns3:TrackPointExtension>
            <ns3:atemp>18.0</ns3:atemp>
            <ns3:hr>141</ns3:hr>
          </ns3:TrackPointExtension>
        </extensions>
      </trkpt>
      <trkpt lat="46.61623905412852764129638671875" lon="6.8535147607326507568359375">
        <ele>759.4000244140625</ele>
        <time>2013-08-15T16:46:05.000Z</time>
        <extensions>
          <ns3:TrackPointExtension>
            <ns3:atemp>18.0</ns3:atemp>
            <ns3:hr>142</ns3:hr>
          </ns3:TrackPointExtension>
        </extensions>
      </trkpt>
      <trkpt lat="46.6162602603435516357421875" lon="6.85356178320944309234619140625">
        <ele>759.5999755859375</ele>
        <time>2013-08-15T16:46:06.000Z</time>
        <extensions>
          <ns3:TrackPointExtension>
            <ns3:atemp>18.0</ns3:atemp>
            <ns3:hr>142</ns3:hr>
          </ns3:TrackPointExtension>
        </extensions>
      </trkpt>
      <trkpt lat="46.61628984846174716949462890625" lon="6.85360352508723735809326171875">
        <ele>759.5999755859375</ele>
        <time>2013-08-15T16:46:07.000Z</time>
        <extensions>
          <ns3:TrackPointExtension>
            <ns3:atemp>18.0</ns3:atemp>
            <ns3:hr>143</ns3:hr>
          </ns3:TrackPointExtension>
        </extensions>
      </trkpt>
      <trkpt lat="46.6163177601993083953857421875" lon="6.85362967662513256072998046875">
        <ele>760</ele>
        <time>2013-08-15T16:46:08.000Z</time>
        <extensions>
          <ns3:TrackPointExtension>
            <ns3:atemp>18.0</ns3:atemp>
            <ns3:hr>143</ns3:hr>
          </ns3:TrackPointExtension>
        </extensions>
      </trkpt>
      <trkpt lat="46.6163415648043155670166015625" lon="6.85365968383848667144775390625">
        <ele>760</ele>
        <time>2013-08-15T16:46:09.000Z</time>
        <extensions>
          <ns3:TrackPointExtension>
            <ns3:atemp>18.0</ns3:atemp>
            <ns3:hr>144</ns3:hr>
          </ns3:TrackPointExtension>
        </extensions>
      </trkpt>
      <trkpt lat="46.61636126227676868438720703125" lon="6.85369354672729969024658203125">
        <ele>760.20001220703125</ele>
        <time>2013-08-15T16:46:10.000Z</time>
        <extensions>
          <ns3:TrackPointExtension>
            <ns3:atemp>18.0</ns3:atemp>
            <ns3:hr>144</ns3:hr>
          </ns3:TrackPointExtension>
        </extensions>
      </trkpt>
      <trkpt lat="46.61637349985539913177490234375" lon="6.8537348695099353790283203125">
        <ele>760.4000244140625</ele>
        <time>2013-08-15T16:46:11.000Z</time>
        <extensions>
          <ns3:TrackPointExtension>
            <ns3:atemp>18.0</ns3:atemp>
            <ns3:hr>144</ns3:hr>
          </ns3:TrackPointExtension>
        </extensions>
      </trkpt>
      <trkpt lat="46.61637584678828716278076171875" lon="6.85378155671060085296630859375">
        <ele>760.5999755859375</ele>
        <time>2013-08-15T16:46:12.000Z</time>
        <extensions>
          <ns3:TrackPointExtension>
            <ns3:atemp>18.0</ns3:atemp>
            <ns3:hr>145</ns3:hr>
          </ns3:TrackPointExtension>
        </extensions>
      </trkpt>
      <trkpt lat="46.61637936718761920928955078125" lon="6.85381709598004817962646484375">
        <ele>760.79998779296875</ele>
        <time>2013-08-15T16:46:13.000Z</time>
        <extensions>
          <ns3:TrackPointExtension>
            <ns3:atemp>18.0</ns3:atemp>
            <ns3:hr>145</ns3:hr>
          </ns3:TrackPointExtension>
        </extensions>
      </trkpt>
      <trkpt lat="46.61639126949012279510498046875" lon="6.85384492389857769012451171875">
        <ele>761</ele>
        <time>2013-08-15T16:46:14.000Z</time>
        <extensions>
          <ns3:TrackPointExtension>
            <ns3:atemp>18.0</ns3:atemp>
            <ns3:hr>146</ns3:hr>
          </ns3:TrackPointExtension>
        </extensions>
      </trkpt>
      <trkpt lat="46.61640719510614871978759765625" lon="6.85387878678739070892333984375">
        <ele>761</ele>
        <time>2013-08-15T16:46:15.000Z</time>
        <extensions>
          <ns3:TrackPointExtension>
            <ns3:atemp>18.0</ns3:atemp>
            <ns3:hr>146</ns3:hr>
          </ns3:TrackPointExtension>
        </extensions>
      </trkpt>
      <trkpt lat="46.6164233721792697906494140625" lon="6.8539209477603435516357421875">
        <ele>761</ele>
        <time>2013-08-15T16:46:16.000Z</time>
        <extensions>
          <ns3:TrackPointExtension>
            <ns3:atemp>18.0</ns3:atemp>
            <ns3:hr>146</ns3:hr>
          </ns3:TrackPointExtension>
        </extensions>
      </trkpt>
      <trkpt lat="46.6164411418139934539794921875" lon="6.8539611808955669403076171875">
        <ele>761.20001220703125</ele>
        <time>2013-08-15T16:46:17.000Z</time>
        <extensions>
          <ns3:TrackPointExtension>
            <ns3:atemp>18.0</ns3:atemp>
            <ns3:hr>146</ns3:hr>
          </ns3:TrackPointExtension>
        </extensions>
      </trkpt>
      <trkpt lat="46.6164505295455455780029296875" lon="6.8540051020681858062744140625">
        <ele>761.20001220703125</ele>
        <time>2013-08-15T16:46:18.000Z</time>
        <extensions>
          <ns3:TrackPointExtension>
            <ns3:atemp>17.0</ns3:atemp>
            <ns3:hr>145</ns3:hr>
          </ns3:TrackPointExtension>
        </extensions>
      </trkpt>
      <trkpt lat="46.61645078100264072418212890625" lon="6.85404407791793346405029296875">
        <ele>761.5999755859375</ele>
        <time>2013-08-15T16:46:19.000Z</time>
        <extensions>
          <ns3:TrackPointExtension>
            <ns3:atemp>17.0</ns3:atemp>
            <ns3:hr>145</ns3:hr>
          </ns3:TrackPointExtension>
        </extensions>
      </trkpt>
      <trkpt lat="46.61644876934587955474853515625" lon="6.85408045537769794464111328125">
        <ele>761.79998779296875</ele>
        <time>2013-08-15T16:46:20.000Z</time>
        <extensions>
          <ns3:TrackPointExtension>
            <ns3:atemp>17.0</ns3:atemp>
            <ns3:hr>146</ns3:hr>
          </ns3:TrackPointExtension>
        </extensions>
      </trkpt>
      <trkpt lat="46.616434939205646514892578125" lon="6.85411331243813037872314453125">
        <ele>761.79998779296875</ele>
        <time>2013-08-15T16:46:21.000Z</time>
        <extensions>
          <ns3:TrackPointExtension>
            <ns3:atemp>17.0</ns3:atemp>
            <ns3:hr>146</ns3:hr>
          </ns3:TrackPointExtension>
        </extensions>
      </trkpt>
      <trkpt lat="46.616417504847049713134765625" lon="6.85414063744246959686279296875">
        <ele>762.20001220703125</ele>
        <time>2013-08-15T16:46:22.000Z</time>
        <extensions>
          <ns3:TrackPointExtension>
            <ns3:atemp>17.0</ns3:atemp>
            <ns3:hr>146</ns3:hr>
          </ns3:TrackPointExtension>
        </extensions>
      </trkpt>
      <trkpt lat="46.6163972206413745880126953125" lon="6.85416586697101593017578125">
        <ele>762.4000244140625</ele>
        <time>2013-08-15T16:46:23.000Z</time>
        <extensions>
          <ns3:TrackPointExtension>
            <ns3:atemp>17.0</ns3:atemp>
            <ns3:hr>146</ns3:hr>
          </ns3:TrackPointExtension>
        </extensions>
      </trkpt>
      <trkpt lat="46.61637953482568264007568359375" lon="6.8541915155947208404541015625">
        <ele>762.79998779296875</ele>
        <time>2013-08-15T16:46:24.000Z</time>
        <extensions>
          <ns3:TrackPointExtension>
            <ns3:atemp>17.0</ns3:atemp>
            <ns3:hr>147</ns3:hr>
          </ns3:TrackPointExtension>
        </extensions>
      </trkpt>
      <trkpt lat="46.61635556258261203765869140625" lon="6.85421389527618885040283203125">
        <ele>763.20001220703125</ele>
        <time>2013-08-15T16:46:25.000Z</time>
        <extensions>
          <ns3:TrackPointExtension>
            <ns3:atemp>17.0</ns3:atemp>
            <ns3:hr>146</ns3:hr>
          </ns3:TrackPointExtension>
        </extensions>
      </trkpt>
      <trkpt lat="46.616330333054065704345703125" lon="6.85423350892961025238037109375">
        <ele>763.5999755859375</ele>
        <time>2013-08-15T16:46:26.000Z</time>
        <extensions>
          <ns3:TrackPointExtension>
            <ns3:atemp>17.0</ns3:atemp>
            <ns3:hr>147</ns3:hr>
          </ns3:TrackPointExtension>
        </extensions>
      </trkpt>
      <trkpt lat="46.61630627699196338653564453125" lon="6.85425496660172939300537109375">
        <ele>763.79998779296875</ele>
        <time>2013-08-15T16:46:27.000Z</time>
        <extensions>
          <ns3:TrackPointExtension>
            <ns3:atemp>17.0</ns3:atemp>
            <ns3:hr>147</ns3:hr>
          </ns3:TrackPointExtension>
        </extensions>
      </trkpt>
      <trkpt lat="46.6162805445492267608642578125" lon="6.85427458025515079498291015625">
        <ele>764</ele>
        <time>2013-08-15T16:46:28.000Z</time>
        <extensions>
          <ns3:TrackPointExtension>
            <ns3:atemp>17.0</ns3:atemp>
            <ns3:hr>147</ns3:hr>
          </ns3:TrackPointExtension>
        </extensions>
      </trkpt>
      <trkpt lat="46.6162602603435516357421875" lon="6.85429394245147705078125">
        <ele>764.4000244140625</ele>
        <time>2013-08-15T16:46:29.000Z</time>
        <extensions>
          <ns3:TrackPointExtension>
            <ns3:atemp>17.0</ns3:atemp>
            <ns3:hr>148</ns3:hr>
          </ns3:TrackPointExtension>
        </extensions>
      </trkpt>
      <trkpt lat="46.61624324508011341094970703125" lon="6.85431741178035736083984375">
        <ele>764.79998779296875</ele>
        <time>2013-08-15T16:46:30.000Z</time>
        <extensions>
          <ns3:TrackPointExtension>
            <ns3:atemp>17.0</ns3:atemp>
            <ns3:hr>148</ns3:hr>
          </ns3:TrackPointExtension>
        </extensions>
      </trkpt>
      <trkpt lat="46.61622597835958003997802734375" lon="6.85434347949922084808349609375">
        <ele>765.20001220703125</ele>
        <time>2013-08-15T16:46:31.000Z</time>
        <extensions>
          <ns3:TrackPointExtension>
            <ns3:atemp>17.0</ns3:atemp>
            <ns3:hr>149</ns3:hr>
          </ns3:TrackPointExtension>
        </extensions>
      </trkpt>
      <trkpt lat="46.616217680275440216064453125" lon="6.85437566600739955902099609375">
        <ele>765.4000244140625</ele>
        <time>2013-08-15T16:46:32.000Z</time>
        <extensions>
          <ns3:TrackPointExtension>
            <ns3:atemp>17.0</ns3:atemp>
            <ns3:hr>149</ns3:hr>
          </ns3:TrackPointExtension>
        </extensions>
      </trkpt>
      <trkpt lat="46.61620737053453922271728515625" lon="6.85440751723945140838623046875">
        <ele>765.79998779296875</ele>
        <time>2013-08-15T16:46:33.000Z</time>
        <extensions>
          <ns3:TrackPointExtension>
            <ns3:atemp>17.0</ns3:atemp>
            <ns3:hr>149</ns3:hr>
          </ns3:TrackPointExtension>
        </extensions>
      </trkpt>
      <trkpt lat="46.616196893155574798583984375" lon="6.8544409610331058502197265625">
        <ele>765.79998779296875</ele>
        <time>2013-08-15T16:46:34.000Z</time>
        <extensions>
          <ns3:TrackPointExtension>
            <ns3:atemp>17.0</ns3:atemp>
            <ns3:hr>150</ns3:hr>
          </ns3:TrackPointExtension>
        </extensions>
      </trkpt>
      <trkpt lat="46.616182811558246612548828125" lon="6.85447189025580883026123046875">
        <ele>766.20001220703125</ele>
        <time>2013-08-15T16:46:35.000Z</time>
        <extensions>
          <ns3:TrackPointExtension>
            <ns3:atemp>17.0</ns3:atemp>
            <ns3:hr>150</ns3:hr>
          </ns3:TrackPointExtension>
        </extensions>
      </trkpt>
      <trkpt lat="46.61616898141801357269287109375" lon="6.8545056693255901336669921875">
        <ele>766.4000244140625</ele>
        <time>2013-08-15T16:46:36.000Z</time>
        <extensions>
          <ns3:TrackPointExtension>
            <ns3:atemp>17.0</ns3:atemp>
            <ns3:hr>151</ns3:hr>
          </ns3:TrackPointExtension>
        </extensions>
      </trkpt>
      <trkpt lat="46.61615372635424137115478515625" lon="6.85453601181507110595703125">
        <ele>767</ele>
        <time>2013-08-15T16:46:37.000Z</time>
        <extensions>
          <ns3:TrackPointExtension>
            <ns3:atemp>17.0</ns3:atemp>
            <ns3:hr>151</ns3:hr>
          </ns3:TrackPointExtension>
        </extensions>
      </trkpt>
      <trkpt lat="46.6161353699862957000732421875" lon="6.8545650132000446319580078125">
        <ele>767</ele>
        <time>2013-08-15T16:46:38.000Z</time>
        <extensions>
          <ns3:TrackPointExtension>
            <ns3:atemp>17.0</ns3:atemp>
            <ns3:hr>151</ns3:hr>
          </ns3:TrackPointExtension>
        </extensions>
      </trkpt>
      <trkpt lat="46.61611500196158885955810546875" lon="6.85459108091890811920166015625">
        <ele>767.4000244140625</ele>
        <time>2013-08-15T16:46:39.000Z</time>
        <extensions>
          <ns3:TrackPointExtension>
            <ns3:atemp>17.0</ns3:atemp>
            <ns3:hr>151</ns3:hr>
          </ns3:TrackPointExtension>
        </extensions>
      </trkpt>
      <trkpt lat="46.61609371192753314971923828125" lon="6.8546156398952007293701171875">
        <ele>767.5999755859375</ele>
        <time>2013-08-15T16:46:40.000Z</time>
        <extensions>
          <ns3:TrackPointExtension>
            <ns3:atemp>17.0</ns3:atemp>
            <ns3:hr>151</ns3:hr>
          </ns3:TrackPointExtension>
        </extensions>
      </trkpt>
      <trkpt lat="46.61607585847377777099609375" lon="6.85463667847216129302978515625">
        <ele>768</ele>
        <time>2013-08-15T16:46:41.000Z</time>
        <extensions>
          <ns3:TrackPointExtension>
            <ns3:atemp>17.0</ns3:atemp>
            <ns3:hr>151</ns3:hr>
          </ns3:TrackPointExtension>
        </extensions>
      </trkpt>
      <trkpt lat="46.61605867557227611541748046875" lon="6.85465813614428043365478515625">
        <ele>768</ele>
        <time>2013-08-15T16:46:42.000Z</time>
        <extensions>
          <ns3:TrackPointExtension>
            <ns3:atemp>17.0</ns3:atemp>
            <ns3:hr>152</ns3:hr>
          </ns3:TrackPointExtension>
        </extensions>
      </trkpt>
      <trkpt lat="46.61604107357561588287353515625" lon="6.85468143783509731292724609375">
        <ele>768.20001220703125</ele>
        <time>2013-08-15T16:46:43.000Z</time>
        <extensions>
          <ns3:TrackPointExtension>
            <ns3:atemp>17.0</ns3:atemp>
            <ns3:hr>152</ns3:hr>
          </ns3:TrackPointExtension>
        </extensions>
      </trkpt>
      <trkpt lat="46.6160170175135135650634765625" lon="6.85470591299235820770263671875">
        <ele>768.4000244140625</ele>
        <time>2013-08-15T16:46:44.000Z</time>
        <extensions>
          <ns3:TrackPointExtension>
            <ns3:atemp>17.0</ns3:atemp>
            <ns3:hr>152</ns3:hr>
          </ns3:TrackPointExtension>
        </extensions>
      </trkpt>
      <trkpt lat="46.6159915365278720855712890625" lon="6.85473508201539516448974609375">
        <ele>768.5999755859375</ele>
        <time>2013-08-15T16:46:45.000Z</time>
        <extensions>
          <ns3:TrackPointExtension>
            <ns3:atemp>17.0</ns3:atemp>
            <ns3:hr>152</ns3:hr>
          </ns3:TrackPointExtension>
        </extensions>
      </trkpt>
      <trkpt lat="46.61597452126443386077880859375" lon="6.854774393141269683837890625">
        <ele>768.79998779296875</ele>
        <time>2013-08-15T16:46:46.000Z</time>
        <extensions>
          <ns3:TrackPointExtension>
            <ns3:atemp>17.0</ns3:atemp>
            <ns3:hr>152</ns3:hr>
          </ns3:TrackPointExtension>
        </extensions>
      </trkpt>
      <trkpt lat="46.61596320569515228271484375" lon="6.854818649590015411376953125">
        <ele>768.79998779296875</ele>
        <time>2013-08-15T16:46:47.000Z</time>
        <extensions>
          <ns3:TrackPointExtension>
            <ns3:atemp>17.0</ns3:atemp>
            <ns3:hr>152</ns3:hr>
          </ns3:TrackPointExtension>
        </extensions>
      </trkpt>
      <trkpt lat="46.615944765508174896240234375" lon="6.8548919074237346649169921875">
        <ele>769</ele>
        <time>2013-08-15T16:46:48.000Z</time>
        <extensions>
          <ns3:TrackPointExtension>
            <ns3:atemp>17.0</ns3:atemp>
            <ns3:hr>152</ns3:hr>
          </ns3:TrackPointExtension>
        </extensions>
      </trkpt>
      <trkpt lat="46.61594015546143054962158203125" lon="6.8549443781375885009765625">
        <ele>769</ele>
        <time>2013-08-15T16:46:49.000Z</time>
        <extensions>
          <ns3:TrackPointExtension>
            <ns3:atemp>17.0</ns3:atemp>
            <ns3:hr>152</ns3:hr>
          </ns3:TrackPointExtension>
        </extensions>
      </trkpt>
      <trkpt lat="46.61595088429749011993408203125" lon="6.85500078834593296051025390625">
        <ele>769.4000244140625</ele>
        <time>2013-08-15T16:46:50.000Z</time>
        <extensions>
          <ns3:TrackPointExtension>
            <ns3:atemp>17.0</ns3:atemp>
            <ns3:hr>152</ns3:hr>
          </ns3:TrackPointExtension>
        </extensions>
      </trkpt>
      <trkpt lat="46.6159677319228649139404296875" lon="6.85506566427648067474365234375">
        <ele>769.5999755859375</ele>
        <time>2013-08-15T16:46:51.000Z</time>
        <extensions>
          <ns3:TrackPointExtension>
            <ns3:atemp>17.0</ns3:atemp>
            <ns3:hr>151</ns3:hr>
          </ns3:TrackPointExtension>
        </extensions>
      </trkpt>
      <trkpt lat="46.61598726175725460052490234375" lon="6.85511712916195392608642578125">
        <ele>769.79998779296875</ele>
        <time>2013-08-15T16:46:52.000Z</time>
        <extensions>
          <ns3:TrackPointExtension>
            <ns3:atemp>17.0</ns3:atemp>
            <ns3:hr>151</ns3:hr>
          </ns3:TrackPointExtension>
        </extensions>
      </trkpt>
      <trkpt lat="46.6160113178193569183349609375" lon="6.85515970923006534576416015625">
        <ele>769.79998779296875</ele>
        <time>2013-08-15T16:46:53.000Z</time>
        <extensions>
          <ns3:TrackPointExtension>
            <ns3:atemp>17.0</ns3:atemp>
            <ns3:hr>151</ns3:hr>
          </ns3:TrackPointExtension>
        </extensions>
      </trkpt>
      <trkpt lat="46.6160378046333789825439453125" lon="6.855197511613368988037109375">
        <ele>769.5999755859375</ele>
        <time>2013-08-15T16:46:54.000Z</time>
        <extensions>
          <ns3:TrackPointExtension>
            <ns3:atemp>17.0</ns3:atemp>
            <ns3:hr>150</ns3:hr>
          </ns3:TrackPointExtension>
        </extensions>
      </trkpt>
      <trkpt lat="46.61606890149414539337158203125" lon="6.85523414053022861480712890625">
        <ele>769.5999755859375</ele>
        <time>2013-08-15T16:46:55.000Z</time>
        <extensions>
          <ns3:TrackPointExtension>
            <ns3:atemp>17.0</ns3:atemp>
            <ns3:hr>150</ns3:hr>
          </ns3:TrackPointExtension>
        </extensions>
      </trkpt>
      <trkpt lat="46.61609689705073833465576171875" lon="6.85527554713189601898193359375">
        <ele>769.5999755859375</ele>
        <time>2013-08-15T16:46:56.000Z</time>
        <extensions>
          <ns3:TrackPointExtension>
            <ns3:atemp>17.0</ns3:atemp>
            <ns3:hr>150</ns3:hr>
          </ns3:TrackPointExtension>
        </extensions>
      </trkpt>
      <trkpt lat="46.61612690426409244537353515625" lon="6.8553240783512592315673828125">
        <ele>769.79998779296875</ele>
        <time>2013-08-15T16:46:57.000Z</time>
        <extensions>
          <ns3:TrackPointExtension>
            <ns3:atemp>17.0</ns3:atemp>
            <ns3:hr>150</ns3:hr>
          </ns3:TrackPointExtension>
        </extensions>
      </trkpt>
      <trkpt lat="46.61615137942135334014892578125" lon="6.85536942444741725921630859375">
        <ele>769.79998779296875</ele>
        <time>2013-08-15T16:46:58.000Z</time>
        <extensions>
          <ns3:TrackPointExtension>
            <ns3:atemp>17.0</ns3:atemp>
            <ns3:hr>150</ns3:hr>
          </ns3:TrackPointExtension>
        </extensions>
      </trkpt>
      <trkpt lat="46.61617568694055080413818359375" lon="6.855413429439067840576171875">
        <ele>770</ele>
        <time>2013-08-15T16:46:59.000Z</time>
        <extensions>
          <ns3:TrackPointExtension>
            <ns3:atemp>17.0</ns3:atemp>
            <ns3:hr>150</ns3:hr>
          </ns3:TrackPointExtension>
        </extensions>
      </trkpt>
      <trkpt lat="46.6162014193832874298095703125" lon="6.8554602004587650299072265625">
        <ele>770</ele>
        <time>2013-08-15T16:47:00.000Z</time>
        <extensions>
          <ns3:TrackPointExtension>
            <ns3:atemp>17.0</ns3:atemp>
            <ns3:hr>150</ns3:hr>
          </ns3:TrackPointExtension>
        </extensions>
      </trkpt>
      <trkpt lat="46.6162252239882946014404296875" lon="6.8555084802210330963134765625">
        <ele>769.79998779296875</ele>
        <time>2013-08-15T16:47:01.000Z</time>
        <extensions>
          <ns3:TrackPointExtension>
            <ns3:atemp>17.0</ns3:atemp>
            <ns3:hr>149</ns3:hr>
          </ns3:TrackPointExtension>
        </extensions>
      </trkpt>
      <trkpt lat="46.61623938940465450286865234375" lon="6.8555695004761219024658203125">
        <ele>769.79998779296875</ele>
        <time>2013-08-15T16:47:02.000Z</time>
        <extensions>
          <ns3:TrackPointExtension>
            <ns3:atemp>17.0</ns3:atemp>
            <ns3:hr>149</ns3:hr>
          </ns3:TrackPointExtension>
        </extensions>
      </trkpt>
      <trkpt lat="46.616256237030029296875" lon="6.855624653398990631103515625">
        <ele>769.79998779296875</ele>
        <time>2013-08-15T16:47:03.000Z</time>
        <extensions>
          <ns3:TrackPointExtension>
            <ns3:atemp>17.0</ns3:atemp>
            <ns3:hr>149</ns3:hr>
          </ns3:TrackPointExtension>
        </extensions>
      </trkpt>
      <trkpt lat="46.616274677217006683349609375" lon="6.85567150823771953582763671875">
        <ele>770</ele>
        <time>2013-08-15T16:47:04.000Z</time>
        <extensions>
          <ns3:TrackPointExtension>
            <ns3:atemp>17.0</ns3:atemp>
            <ns3:hr>149</ns3:hr>
          </ns3:TrackPointExtension>
        </extensions>
      </trkpt>
      <trkpt lat="46.61630074493587017059326171875" lon="6.85572414658963680267333984375">
        <ele>770</ele>
        <time>2013-08-15T16:47:05.000Z</time>
        <extensions>
          <ns3:TrackPointExtension>
            <ns3:atemp>17.0</ns3:atemp>
            <ns3:hr>148</ns3:hr>
          </ns3:TrackPointExtension>
        </extensions>
      </trkpt>
      <trkpt lat="46.61632589064538478851318359375" lon="6.85577393509447574615478515625">
        <ele>770.20001220703125</ele>
        <time>2013-08-15T16:47:06.000Z</time>
        <extensions>
          <ns3:TrackPointExtension>
            <ns3:atemp>17.0</ns3:atemp>
            <ns3:hr>148</ns3:hr>
          </ns3:TrackPointExtension>
        </extensions>
      </trkpt>
      <trkpt lat="46.61635212600231170654296875" lon="6.85582892037928104400634765625">
        <ele>770.20001220703125</ele>
        <time>2013-08-15T16:47:07.000Z</time>
        <extensions>
          <ns3:TrackPointExtension>
            <ns3:atemp>17.0</ns3:atemp>
            <ns3:hr>148</ns3:hr>
          </ns3:TrackPointExtension>
        </extensions>
      </trkpt>
      <trkpt lat="46.61637886427342891693115234375" lon="6.855882816016674041748046875">
        <ele>770.20001220703125</ele>
        <time>2013-08-15T16:47:08.000Z</time>
        <extensions>
          <ns3:TrackPointExtension>
            <ns3:atemp>17.0</ns3:atemp>
            <ns3:hr>147</ns3:hr>
          </ns3:TrackPointExtension>
        </extensions>
      </trkpt>
      <trkpt lat="46.61640434525907039642333984375" lon="6.85593553818762302398681640625">
        <ele>770.5999755859375</ele>
        <time>2013-08-15T16:47:09.000Z</time>
        <extensions>
          <ns3:TrackPointExtension>
            <ns3:atemp>17.0</ns3:atemp>
            <ns3:hr>147</ns3:hr>
          </ns3:TrackPointExtension>
        </extensions>
      </trkpt>
      <trkpt lat="46.616430915892124176025390625" lon="6.8559889309108257293701171875">
        <ele>770.5999755859375</ele>
        <time>2013-08-15T16:47:10.000Z</time>
        <extensions>
          <ns3:TrackPointExtension>
            <ns3:atemp>17.0</ns3:atemp>
            <ns3:hr>147</ns3:hr>
          </ns3:TrackPointExtension>
        </extensions>
      </trkpt>
      <trkpt lat="46.61645849235355854034423828125" lon="6.85604098252952098846435546875">
        <ele>770.79998779296875</ele>
        <time>2013-08-15T16:47:11.000Z</time>
        <extensions>
          <ns3:TrackPointExtension>
            <ns3:atemp>17.0</ns3:atemp>
            <ns3:hr>147</ns3:hr>
          </ns3:TrackPointExtension>
        </extensions>
      </trkpt>
      <trkpt lat="46.616488583385944366455078125" lon="6.8560955487191677093505859375">
        <ele>770.79998779296875</ele>
        <time>2013-08-15T16:47:12.000Z</time>
        <extensions>
          <ns3:TrackPointExtension>
            <ns3:atemp>17.0</ns3:atemp>
            <ns3:hr>146</ns3:hr>
          </ns3:TrackPointExtension>
        </extensions>
      </trkpt>
      <trkpt lat="46.61651750095188617706298828125" lon="6.85614801943302154541015625">
        <ele>771</ele>
        <time>2013-08-15T16:47:13.000Z</time>
        <extensions>
          <ns3:TrackPointExtension>
            <ns3:atemp>17.0</ns3:atemp>
            <ns3:hr>146</ns3:hr>
          </ns3:TrackPointExtension>
        </extensions>
      </trkpt>
      <trkpt lat="46.61654650233685970306396484375" lon="6.8562058545649051666259765625">
        <ele>770.79998779296875</ele>
        <time>2013-08-15T16:47:14.000Z</time>
        <extensions>
          <ns3:TrackPointExtension>
            <ns3:atemp>17.0</ns3:atemp>
            <ns3:hr>146</ns3:hr>
          </ns3:TrackPointExtension>
        </extensions>
      </trkpt>
      <trkpt lat="46.616575755178928375244140625" lon="6.856263689696788787841796875">
        <ele>770.79998779296875</ele>
        <time>2013-08-15T16:47:15.000Z</time>
        <extensions>
          <ns3:TrackPointExtension>
            <ns3:atemp>17.0</ns3:atemp>
            <ns3:hr>146</ns3:hr>
          </ns3:TrackPointExtension>
        </extensions>
      </trkpt>
      <trkpt lat="46.6166047565639019012451171875" lon="6.8563230335712432861328125">
        <ele>770.79998779296875</ele>
        <time>2013-08-15T16:47:16.000Z</time>
        <extensions>
          <ns3:TrackPointExtension>
            <ns3:atemp>17.0</ns3:atemp>
            <ns3:hr>146</ns3:hr>
          </ns3:TrackPointExtension>
        </extensions>
      </trkpt>
      <trkpt lat="46.61663417704403400421142578125" lon="6.85638246126472949981689453125">
        <ele>770.4000244140625</ele>
        <time>2013-08-15T16:47:17.000Z</time>
        <extensions>
          <ns3:TrackPointExtension>
            <ns3:atemp>17.0</ns3:atemp>
            <ns3:hr>145</ns3:hr>
          </ns3:TrackPointExtension>
        </extensions>
      </trkpt>
      <trkpt lat="46.6166654415428638458251953125" lon="6.85644800774753093719482421875">
        <ele>770.4000244140625</ele>
        <time>2013-08-15T16:47:18.000Z</time>
        <extensions>
          <ns3:TrackPointExtension>
            <ns3:atemp>17.0</ns3:atemp>
            <ns3:hr>145</ns3:hr>
          </ns3:TrackPointExtension>
        </extensions>
      </trkpt>
      <trkpt lat="46.61669201217591762542724609375" lon="6.85651154257357120513916015625">
        <ele>770.5999755859375</ele>
        <time>2013-08-15T16:47:19.000Z</time>
        <extensions>
          <ns3:TrackPointExtension>
            <ns3:atemp>17.0</ns3:atemp>
            <ns3:hr>146</ns3:hr>
          </ns3:TrackPointExtension>
        </extensions>
      </trkpt>
      <trkpt lat="46.61672118119895458221435546875" lon="6.8565743230283260345458984375">
        <ele>770.4000244140625</ele>
        <time>2013-08-15T16:47:20.000Z</time>
        <extensions>
          <ns3:TrackPointExtension>
            <ns3:atemp>17.0</ns3:atemp>
            <ns3:hr>145</ns3:hr>
          </ns3:TrackPointExtension>
        </extensions>
      </trkpt>
      <trkpt lat="46.6167506016790866851806640625" lon="6.85663308016955852508544921875">
        <ele>770.20001220703125</ele>
        <time>2013-08-15T16:47:21.000Z</time>
        <extensions>
          <ns3:TrackPointExtension>
            <ns3:atemp>17.0</ns3:atemp>
            <ns3:hr>145</ns3:hr>
          </ns3:TrackPointExtension>
        </extensions>
      </trkpt>
      <trkpt lat="46.6167791001498699188232421875" lon="6.85669560916721820831298828125">
        <ele>770</ele>
        <time>2013-08-15T16:47:22.000Z</time>
        <extensions>
          <ns3:TrackPointExtension>
            <ns3:atemp>17.0</ns3:atemp>
            <ns3:hr>144</ns3:hr>
          </ns3:TrackPointExtension>
        </extensions>
      </trkpt>
      <trkpt lat="46.6168052516877651214599609375" lon="6.85675763525068759918212890625">
        <ele>770.20001220703125</ele>
        <time>2013-08-15T16:47:23.000Z</time>
        <extensions>
          <ns3:TrackPointExtension>
            <ns3:atemp>17.0</ns3:atemp>
            <ns3:hr>144</ns3:hr>
          </ns3:TrackPointExtension>
        </extensions>
      </trkpt>
      <trkpt lat="46.61682955920696258544921875" lon="6.85682527720928192138671875">
        <ele>770</ele>
        <time>2013-08-15T16:47:24.000Z</time>
        <extensions>
          <ns3:TrackPointExtension>
            <ns3:atemp>17.0</ns3:atemp>
            <ns3:hr>144</ns3:hr>
          </ns3:TrackPointExtension>
        </extensions>
      </trkpt>
      <trkpt lat="46.6168542020022869110107421875" lon="6.8569045700132846832275390625">
        <ele>770</ele>
        <time>2013-08-15T16:47:25.000Z</time>
        <extensions>
          <ns3:TrackPointExtension>
            <ns3:atemp>17.0</ns3:atemp>
            <ns3:hr>144</ns3:hr>
          </ns3:TrackPointExtension>
        </extensions>
      </trkpt>
      <trkpt lat="46.61688261665403842926025390625" lon="6.856989562511444091796875">
        <ele>770</ele>
        <time>2013-08-15T16:47:26.000Z</time>
        <extensions>
          <ns3:TrackPointExtension>
            <ns3:atemp>17.0</ns3:atemp>
            <ns3:hr>144</ns3:hr>
          </ns3:TrackPointExtension>
        </extensions>
      </trkpt>
      <trkpt lat="46.6169142164289951324462890625" lon="6.8570772372186183929443359375">
        <ele>770</ele>
        <time>2013-08-15T16:47:27.000Z</time>
        <extensions>
          <ns3:TrackPointExtension>
            <ns3:atemp>17.0</ns3:atemp>
            <ns3:hr>143</ns3:hr>
          </ns3:TrackPointExtension>
        </extensions>
      </trkpt>
      <trkpt lat="46.61694782786071300506591796875" lon="6.85716859996318817138671875">
        <ele>769.79998779296875</ele>
        <time>2013-08-15T16:47:28.000Z</time>
        <extensions>
          <ns3:TrackPointExtension>
            <ns3:atemp>17.0</ns3:atemp>
            <ns3:hr>143</ns3:hr>
          </ns3:TrackPointExtension>
        </extensions>
      </trkpt>
      <trkpt lat="46.61698018200695514678955078125" lon="6.85726809315383434295654296875">
        <ele>769.5999755859375</ele>
        <time>2013-08-15T16:47:29.000Z</time>
        <extensions>
          <ns3:TrackPointExtension>
            <ns3:atemp>17.0</ns3:atemp>
            <ns3:hr>143</ns3:hr>
          </ns3:TrackPointExtension>
        </extensions>
      </trkpt>
      <trkpt lat="46.61700926721096038818359375" lon="6.85736565850675106048583984375">
        <ele>769.4000244140625</ele>
        <time>2013-08-15T16:47:30.000Z</time>
        <extensions>
          <ns3:TrackPointExtension>
            <ns3:atemp>17.0</ns3:atemp>
            <ns3:hr>143</ns3:hr>
          </ns3:TrackPointExtension>
        </extensions>
      </trkpt>
      <trkpt lat="46.6170315630733966827392578125" lon="6.85745534487068653106689453125">
        <ele>769</ele>
        <time>2013-08-15T16:47:31.000Z</time>
        <extensions>
          <ns3:TrackPointExtension>
            <ns3:atemp>17.0</ns3:atemp>
            <ns3:hr>143</ns3:hr>
          </ns3:TrackPointExtension>
        </extensions>
      </trkpt>
      <trkpt lat="46.61704774014651775360107421875" lon="6.85753916390240192413330078125">
        <ele>768.5999755859375</ele>
        <time>2013-08-15T16:47:32.000Z</time>
        <extensions>
          <ns3:TrackPointExtension>
            <ns3:atemp>17.0</ns3:atemp>
            <ns3:hr>142</ns3:hr>
          </ns3:TrackPointExtension>
        </extensions>
      </trkpt>
      <trkpt lat="46.61705729551613330841064453125" lon="6.8576240725815296173095703125">
        <ele>768.4000244140625</ele>
        <time>2013-08-15T16:47:33.000Z</time>
        <extensions>
          <ns3:TrackPointExtension>
            <ns3:atemp>17.0</ns3:atemp>
            <ns3:hr>142</ns3:hr>
          </ns3:TrackPointExtension>
        </extensions>
      </trkpt>
      <trkpt lat="46.61705620586872100830078125" lon="6.85771442949771881103515625">
        <ele>768.79998779296875</ele>
        <time>2013-08-15T16:47:34.000Z</time>
        <extensions>
          <ns3:TrackPointExtension>
            <ns3:atemp>17.0</ns3:atemp>
            <ns3:hr>142</ns3:hr>
          </ns3:TrackPointExtension>
        </extensions>
      </trkpt>
      <trkpt lat="46.61704874597489833831787109375" lon="6.85780587606132030487060546875">
        <ele>769</ele>
        <time>2013-08-15T16:47:35.000Z</time>
        <extensions>
          <ns3:TrackPointExtension>
            <ns3:atemp>17.0</ns3:atemp>
            <ns3:hr>142</ns3:hr>
          </ns3:TrackPointExtension>
        </extensions>
      </trkpt>
      <trkpt lat="46.6170225106179714202880859375" lon="6.85789371840655803680419921875">
        <ele>768.79998779296875</ele>
        <time>2013-08-15T16:47:36.000Z</time>
        <extensions>
          <ns3:TrackPointExtension>
            <ns3:atemp>17.0</ns3:atemp>
            <ns3:hr>142</ns3:hr>
          </ns3:TrackPointExtension>
        </extensions>
      </trkpt>
      <trkpt lat="46.6169943474233150482177734375" lon="6.857970245182514190673828125">
        <ele>768.5999755859375</ele>
        <time>2013-08-15T16:47:37.000Z</time>
        <extensions>
          <ns3:TrackPointExtension>
            <ns3:atemp>17.0</ns3:atemp>
            <ns3:hr>142</ns3:hr>
          </ns3:TrackPointExtension>
        </extensions>
      </trkpt>
      <trkpt lat="46.616998873651027679443359375" lon="6.85803973115980625152587890625">
        <ele>768</ele>
        <time>2013-08-15T16:47:38.000Z</time>
        <extensions>
          <ns3:TrackPointExtension>
            <ns3:atemp>17.0</ns3:atemp>
            <ns3:hr>141</ns3:hr>
          </ns3:TrackPointExtension>
        </extensions>
      </trkpt>
      <trkpt lat="46.6170362569391727447509765625" lon="6.8580932915210723876953125">
        <ele>767.20001220703125</ele>
        <time>2013-08-15T16:47:39.000Z</time>
        <extensions>
          <ns3:TrackPointExtension>
            <ns3:atemp>17.0</ns3:atemp>
            <ns3:hr>141</ns3:hr>
          </ns3:TrackPointExtension>
        </extensions>
      </trkpt>
      <trkpt lat="46.61708730272948741912841796875" lon="6.85811407864093780517578125">
        <ele>766.4000244140625</ele>
        <time>2013-08-15T16:47:40.000Z</time>
        <extensions>
          <ns3:TrackPointExtension>
            <ns3:atemp>17.0</ns3:atemp>
            <ns3:hr>140</ns3:hr>
          </ns3:TrackPointExtension>
        </extensions>
      </trkpt>
      <trkpt lat="46.61713524721562862396240234375" lon="6.8581115640699863433837890625">
        <ele>766.4000244140625</ele>
        <time>2013-08-15T16:47:41.000Z</time>
        <extensions>
          <ns3:TrackPointExtension>
            <ns3:atemp>17.0</ns3:atemp>
            <ns3:hr>139</ns3:hr>
          </ns3:TrackPointExtension>
        </extensions>
      </trkpt>
      <trkpt lat="46.6171747259795665740966796875" lon="6.8581142462790012359619140625">
        <ele>766.4000244140625</ele>
        <time>2013-08-15T16:47:42.000Z</time>
        <extensions>
          <ns3:TrackPointExtension>
            <ns3:atemp>17.0</ns3:atemp>
            <ns3:hr>138</ns3:hr>
          </ns3:TrackPointExtension>
        </extensions>
      </trkpt>
      <trkpt lat="46.61721135489642620086669921875" lon="6.8581417389214038848876953125">
        <ele>766.5999755859375</ele>
        <time>2013-08-15T16:47:43.000Z</time>
        <extensions>
          <ns3:TrackPointExtension>
            <ns3:atemp>17.0</ns3:atemp>
            <ns3:hr>137</ns3:hr>
          </ns3:TrackPointExtension>
        </extensions>
      </trkpt>
      <trkpt lat="46.61724370904266834259033203125" lon="6.85817937366664409637451171875">
        <ele>766.79998779296875</ele>
        <time>2013-08-15T16:47:44.000Z</time>
        <extensions>
          <ns3:TrackPointExtension>
            <ns3:atemp>17.0</ns3:atemp>
            <ns3:hr>137</ns3:hr>
          </ns3:TrackPointExtension>
        </extensions>
      </trkpt>
      <trkpt lat="46.6172726266086101531982421875" lon="6.85822463594377040863037109375">
        <ele>767</ele>
        <time>2013-08-15T16:47:45.000Z</time>
        <extensions>
          <ns3:TrackPointExtension>
            <ns3:atemp>17.0</ns3:atemp>
            <ns3:hr>137</ns3:hr>
          </ns3:TrackPointExtension>
        </extensions>
      </trkpt>
      <trkpt lat="46.6173004545271396636962890625" lon="6.85827995650470256805419921875">
        <ele>766.79998779296875</ele>
        <time>2013-08-15T16:47:46.000Z</time>
        <extensions>
          <ns3:TrackPointExtension>
            <ns3:atemp>17.0</ns3:atemp>
            <ns3:hr>136</ns3:hr>
          </ns3:TrackPointExtension>
        </extensions>
      </trkpt>
      <trkpt lat="46.61732752807438373565673828125" lon="6.8583315052092075347900390625">
        <ele>766.79998779296875</ele>
        <time>2013-08-15T16:47:47.000Z</time>
        <extensions>
          <ns3:TrackPointExtension>
            <ns3:atemp>17.0</ns3:atemp>
            <ns3:hr>136</ns3:hr>
          </ns3:TrackPointExtension>
        </extensions>
      </trkpt>
      <trkpt lat="46.6173574514687061309814453125" lon="6.858386658132076263427734375">
        <ele>766.79998779296875</ele>
        <time>2013-08-15T16:47:48.000Z</time>
        <extensions>
          <ns3:TrackPointExtension>
            <ns3:atemp>17.0</ns3:atemp>
            <ns3:hr>136</ns3:hr>
          </ns3:TrackPointExtension>
        </extensions>
      </trkpt>
      <trkpt lat="46.61739148199558258056640625" lon="6.8584374524652957916259765625">
        <ele>766.79998779296875</ele>
        <time>2013-08-15T16:47:49.000Z</time>
        <extensions>
          <ns3:TrackPointExtension>
            <ns3:atemp>17.0</ns3:atemp>
            <ns3:hr>135</ns3:hr>
          </ns3:TrackPointExtension>
        </extensions>
      </trkpt>
      <trkpt lat="46.61742324940860271453857421875" lon="6.85849185101687908172607421875">
        <ele>767</ele>
        <time>2013-08-15T16:47:50.000Z</time>
        <extensions>
          <ns3:TrackPointExtension>
            <ns3:atemp>17.0</ns3:atemp>
            <ns3:hr>135</ns3:hr>
          </ns3:TrackPointExtension>
        </extensions>
      </trkpt>
      <trkpt lat="46.61744571290910243988037109375" lon="6.8585521169006824493408203125">
        <ele>766.5999755859375</ele>
        <time>2013-08-15T16:47:51.000Z</time>
        <extensions>
          <ns3:TrackPointExtension>
            <ns3:atemp>17.0</ns3:atemp>
            <ns3:hr>135</ns3:hr>
          </ns3:TrackPointExtension>
        </extensions>
      </trkpt>
      <trkpt lat="46.6174714453518390655517578125" lon="6.85860785655677318572998046875">
        <ele>766.5999755859375</ele>
        <time>2013-08-15T16:47:52.000Z</time>
        <extensions>
          <ns3:TrackPointExtension>
            <ns3:atemp>17.0</ns3:atemp>
            <ns3:hr>135</ns3:hr>
          </ns3:TrackPointExtension>
        </extensions>
      </trkpt>
      <trkpt lat="46.6174975968897342681884765625" lon="6.85866351239383220672607421875">
        <ele>766.5999755859375</ele>
        <time>2013-08-15T16:47:53.000Z</time>
        <extensions>
          <ns3:TrackPointExtension>
            <ns3:atemp>17.0</ns3:atemp>
            <ns3:hr>135</ns3:hr>
          </ns3:TrackPointExtension>
        </extensions>
      </trkpt>
      <trkpt lat="46.61751913838088512420654296875" lon="6.858719252049922943115234375">
        <ele>766.5999755859375</ele>
        <time>2013-08-15T16:47:54.000Z</time>
        <extensions>
          <ns3:TrackPointExtension>
            <ns3:atemp>17.0</ns3:atemp>
            <ns3:hr>134</ns3:hr>
          </ns3:TrackPointExtension>
        </extensions>
      </trkpt>
      <trkpt lat="46.6175304539501667022705078125" lon="6.8587831221520900726318359375">
        <ele>766.5999755859375</ele>
        <time>2013-08-15T16:47:55.000Z</time>
        <extensions>
          <ns3:TrackPointExtension>
            <ns3:atemp>17.0</ns3:atemp>
            <ns3:hr>134</ns3:hr>
          </ns3:TrackPointExtension>
        </extensions>
      </trkpt>
      <trkpt lat="46.6175364889204502105712890625" lon="6.8588531948626041412353515625">
        <ele>766.4000244140625</ele>
        <time>2013-08-15T16:47:56.000Z</time>
        <extensions>
          <ns3:TrackPointExtension>
            <ns3:atemp>17.0</ns3:atemp>
            <ns3:hr>134</ns3:hr>
          </ns3:TrackPointExtension>
        </extensions>
      </trkpt>
      <trkpt lat="46.6175307892262935638427734375" lon="6.858927793800830841064453125">
        <ele>766.4000244140625</ele>
        <time>2013-08-15T16:47:57.000Z</time>
        <extensions>
          <ns3:TrackPointExtension>
            <ns3:atemp>17.0</ns3:atemp>
            <ns3:hr>133</ns3:hr>
          </ns3:TrackPointExtension>
        </extensions>
      </trkpt>
      <trkpt lat="46.61752215586602687835693359375" lon="6.8590047396719455718994140625">
        <ele>766.20001220703125</ele>
        <time>2013-08-15T16:47:58.000Z</time>
        <extensions>
          <ns3:TrackPointExtension>
            <ns3:atemp>17.0</ns3:atemp>
            <ns3:hr>134</ns3:hr>
          </ns3:TrackPointExtension>
        </extensions>
      </trkpt>
      <trkpt lat="46.6175103373825550079345703125" lon="6.85908235609531402587890625">
        <ele>766</ele>
        <time>2013-08-15T16:47:59.000Z</time>
        <extensions>
          <ns3:TrackPointExtension>
            <ns3:atemp>17.0</ns3:atemp>
            <ns3:hr>134</ns3:hr>
          </ns3:TrackPointExtension>
        </extensions>
      </trkpt>
      <trkpt lat="46.617493070662021636962890625" lon="6.859163157641887664794921875">
        <ele>766</ele>
        <time>2013-08-15T16:48:00.000Z</time>
        <extensions>
          <ns3:TrackPointExtension>
            <ns3:atemp>17.0</ns3:atemp>
            <ns3:hr>134</ns3:hr>
          </ns3:TrackPointExtension>
        </extensions>
      </trkpt>
      <trkpt lat="46.6174734570086002349853515625" lon="6.859244965016841888427734375">
        <ele>766</ele>
        <time>2013-08-15T16:48:01.000Z</time>
        <extensions>
          <ns3:TrackPointExtension>
            <ns3:atemp>17.0</ns3:atemp>
            <ns3:hr>134</ns3:hr>
          </ns3:TrackPointExtension>
        </extensions>
      </trkpt>
      <trkpt lat="46.61745342426002025604248046875" lon="6.85933037661015987396240234375">
        <ele>766</ele>
        <time>2013-08-15T16:48:02.000Z</time>
        <extensions>
          <ns3:TrackPointExtension>
            <ns3:atemp>17.0</ns3:atemp>
            <ns3:hr>135</ns3:hr>
          </ns3:TrackPointExtension>
        </extensions>
      </trkpt>
      <trkpt lat="46.61743029020726680755615234375" lon="6.859418638050556182861328125">
        <ele>766</ele>
        <time>2013-08-15T16:48:03.000Z</time>
        <extensions>
          <ns3:TrackPointExtension>
            <ns3:atemp>17.0</ns3:atemp>
            <ns3:hr>135</ns3:hr>
          </ns3:TrackPointExtension>
        </extensions>
      </trkpt>
      <trkpt lat="46.6174084134399890899658203125" lon="6.859508492052555084228515625">
        <ele>765.79998779296875</ele>
        <time>2013-08-15T16:48:04.000Z</time>
        <extensions>
          <ns3:TrackPointExtension>
            <ns3:atemp>17.0</ns3:atemp>
            <ns3:hr>135</ns3:hr>
          </ns3:TrackPointExtension>
        </extensions>
      </trkpt>
      <trkpt lat="46.61738569848239421844482421875" lon="6.8595991842448711395263671875">
        <ele>765.5999755859375</ele>
        <time>2013-08-15T16:48:05.000Z</time>
        <extensions>
          <ns3:TrackPointExtension>
            <ns3:atemp>17.0</ns3:atemp>
            <ns3:hr>135</ns3:hr>
          </ns3:TrackPointExtension>
        </extensions>
      </trkpt>
      <trkpt lat="46.6173644922673702239990234375" lon="6.85968861915171146392822265625">
        <ele>765.79998779296875</ele>
        <time>2013-08-15T16:48:06.000Z</time>
        <extensions>
          <ns3:TrackPointExtension>
            <ns3:atemp>17.0</ns3:atemp>
            <ns3:hr>134</ns3:hr>
          </ns3:TrackPointExtension>
        </extensions>
      </trkpt>
      <trkpt lat="46.61734982393682003021240234375" lon="6.8597758747637271881103515625">
        <ele>765.5999755859375</ele>
        <time>2013-08-15T16:48:07.000Z</time>
        <extensions>
          <ns3:TrackPointExtension>
            <ns3:atemp>17.0</ns3:atemp>
            <ns3:hr>134</ns3:hr>
          </ns3:TrackPointExtension>
        </extensions>
      </trkpt>
      <trkpt lat="46.61733255721628665924072265625" lon="6.859863214194774627685546875">
        <ele>765.5999755859375</ele>
        <time>2013-08-15T16:48:08.000Z</time>
        <extensions>
          <ns3:TrackPointExtension>
            <ns3:atemp>17.0</ns3:atemp>
            <ns3:hr>134</ns3:hr>
          </ns3:TrackPointExtension>
        </extensions>
      </trkpt>
      <trkpt lat="46.6173148714005947113037109375" lon="6.85995139181613922119140625">
        <ele>765.4000244140625</ele>
        <time>2013-08-15T16:48:09.000Z</time>
        <extensions>
          <ns3:TrackPointExtension>
            <ns3:atemp>17.0</ns3:atemp>
            <ns3:hr>134</ns3:hr>
          </ns3:TrackPointExtension>
        </extensions>
      </trkpt>
      <trkpt lat="46.617297269403934478759765625" lon="6.86003847979009151458740234375">
        <ele>765.5999755859375</ele>
        <time>2013-08-15T16:48:10.000Z</time>
        <extensions>
          <ns3:TrackPointExtension>
            <ns3:atemp>17.0</ns3:atemp>
            <ns3:hr>134</ns3:hr>
          </ns3:TrackPointExtension>
        </extensions>
      </trkpt>
      <trkpt lat="46.6172796674072742462158203125" lon="6.86012799851596355438232421875">
        <ele>765.20001220703125</ele>
        <time>2013-08-15T16:48:11.000Z</time>
        <extensions>
          <ns3:TrackPointExtension>
            <ns3:atemp>17.0</ns3:atemp>
            <ns3:hr>133</ns3:hr>
          </ns3:TrackPointExtension>
        </extensions>
      </trkpt>
      <trkpt lat="46.61726407706737518310546875" lon="6.8602167628705501556396484375">
        <ele>765.20001220703125</ele>
        <time>2013-08-15T16:48:12.000Z</time>
        <extensions>
          <ns3:TrackPointExtension>
            <ns3:atemp>17.0</ns3:atemp>
            <ns3:hr>133</ns3:hr>
          </ns3:TrackPointExtension>
        </extensions>
      </trkpt>
      <trkpt lat="46.61724823527038097381591796875" lon="6.8603061139583587646484375">
        <ele>764.79998779296875</ele>
        <time>2013-08-15T16:48:13.000Z</time>
        <extensions>
          <ns3:TrackPointExtension>
            <ns3:atemp>17.0</ns3:atemp>
            <ns3:hr>133</ns3:hr>
          </ns3:TrackPointExtension>
        </extensions>
      </trkpt>
      <trkpt lat="46.61723264493048191070556640625" lon="6.86039906926453113555908203125">
        <ele>765.20001220703125</ele>
        <time>2013-08-15T16:48:14.000Z</time>
        <extensions>
          <ns3:TrackPointExtension>
            <ns3:atemp>17.0</ns3:atemp>
            <ns3:hr>133</ns3:hr>
          </ns3:TrackPointExtension>
        </extensions>
      </trkpt>
      <trkpt lat="46.6172159649431705474853515625" lon="6.86049378477036952972412109375">
        <ele>765</ele>
        <time>2013-08-15T16:48:15.000Z</time>
        <extensions>
          <ns3:TrackPointExtension>
            <ns3:atemp>17.0</ns3:atemp>
            <ns3:hr>133</ns3:hr>
          </ns3:TrackPointExtension>
        </extensions>
      </trkpt>
      <trkpt lat="46.61719593219459056854248046875" lon="6.86059067957103252410888671875">
        <ele>765</ele>
        <time>2013-08-15T16:48:16.000Z</time>
        <extensions>
          <ns3:TrackPointExtension>
            <ns3:atemp>17.0</ns3:atemp>
            <ns3:hr>133</ns3:hr>
          </ns3:TrackPointExtension>
        </extensions>
      </trkpt>
      <trkpt lat="46.61717288196086883544921875" lon="6.86068204231560230255126953125">
        <ele>764.4000244140625</ele>
        <time>2013-08-15T16:48:17.000Z</time>
        <extensions>
          <ns3:TrackPointExtension>
            <ns3:atemp>17.0</ns3:atemp>
            <ns3:hr>132</ns3:hr>
          </ns3:TrackPointExtension>
        </extensions>
      </trkpt>
      <trkpt lat="46.61713725887238979339599609375" lon="6.8607662804424762725830078125">
        <ele>764.20001220703125</ele>
        <time>2013-08-15T16:48:18.000Z</time>
        <extensions>
          <ns3:TrackPointExtension>
            <ns3:atemp>17.0</ns3:atemp>
            <ns3:hr>132</ns3:hr>
          </ns3:TrackPointExtension>
        </extensions>
      </trkpt>
      <trkpt lat="46.61709107458591461181640625" lon="6.8608524464070796966552734375">
        <ele>763.5999755859375</ele>
        <time>2013-08-15T16:48:19.000Z</time>
        <extensions>
          <ns3:TrackPointExtension>
            <ns3:atemp>17.0</ns3:atemp>
            <ns3:hr>132</ns3:hr>
          </ns3:TrackPointExtension>
        </extensions>
      </trkpt>
      <trkpt lat="46.6170406155288219451904296875" lon="6.86093509197235107421875">
        <ele>763.4000244140625</ele>
        <time>2013-08-15T16:48:20.000Z</time>
        <extensions>
          <ns3:TrackPointExtension>
            <ns3:atemp>17.0</ns3:atemp>
            <ns3:hr>132</ns3:hr>
          </ns3:TrackPointExtension>
        </extensions>
      </trkpt>
      <trkpt lat="46.616988144814968109130859375" lon="6.86101480387151241302490234375">
        <ele>762.79998779296875</ele>
        <time>2013-08-15T16:48:21.000Z</time>
        <extensions>
          <ns3:TrackPointExtension>
            <ns3:atemp>17.0</ns3:atemp>
            <ns3:hr>131</ns3:hr>
          </ns3:TrackPointExtension>
        </extensions>
      </trkpt>
      <trkpt lat="46.61693827249109745025634765625" lon="6.86109527014195919036865234375">
        <ele>762.5999755859375</ele>
        <time>2013-08-15T16:48:22.000Z</time>
        <extensions>
          <ns3:TrackPointExtension>
            <ns3:atemp>17.0</ns3:atemp>
            <ns3:hr>131</ns3:hr>
          </ns3:TrackPointExtension>
        </extensions>
      </trkpt>
      <trkpt lat="46.61688731051981449127197265625" lon="6.861170791089534759521484375">
        <ele>762.4000244140625</ele>
        <time>2013-08-15T16:48:23.000Z</time>
        <extensions>
          <ns3:TrackPointExtension>
            <ns3:atemp>17.0</ns3:atemp>
            <ns3:hr>131</ns3:hr>
          </ns3:TrackPointExtension>
        </extensions>
      </trkpt>
      <trkpt lat="46.6168369352817535400390625" lon="6.861240863800048828125">
        <ele>762.79998779296875</ele>
        <time>2013-08-15T16:48:24.000Z</time>
        <extensions>
          <ns3:TrackPointExtension>
            <ns3:atemp>17.0</ns3:atemp>
            <ns3:hr>130</ns3:hr>
          </ns3:TrackPointExtension>
        </extensions>
      </trkpt>
      <trkpt lat="46.6167861409485340118408203125" lon="6.8613080866634845733642578125">
        <ele>762.4000244140625</ele>
        <time>2013-08-15T16:48:25.000Z</time>
        <extensions>
          <ns3:TrackPointExtension>
            <ns3:atemp>17.0</ns3:atemp>
            <ns3:hr>129</ns3:hr>
          </ns3:TrackPointExtension>
        </extensions>
      </trkpt>
      <trkpt lat="46.616747416555881500244140625" lon="6.8613875471055507659912109375">
        <ele>761.20001220703125</ele>
        <time>2013-08-15T16:48:26.000Z</time>
        <extensions>
          <ns3:TrackPointExtension>
            <ns3:atemp>17.0</ns3:atemp>
            <ns3:hr>129</ns3:hr>
          </ns3:TrackPointExtension>
        </extensions>
      </trkpt>
      <trkpt lat="46.61673325113952159881591796875" lon="6.86147220432758331298828125">
        <ele>761.20001220703125</ele>
        <time>2013-08-15T16:48:27.000Z</time>
        <extensions>
          <ns3:TrackPointExtension>
            <ns3:atemp>17.0</ns3:atemp>
            <ns3:hr>128</ns3:hr>
          </ns3:TrackPointExtension>
        </extensions>
      </trkpt>
      <trkpt lat="46.61673157475888729095458984375" lon="6.86156650073826313018798828125">
        <ele>761.79998779296875</ele>
        <time>2013-08-15T16:48:28.000Z</time>
        <extensions>
          <ns3:TrackPointExtension>
            <ns3:atemp>17.0</ns3:atemp>
            <ns3:hr>128</ns3:hr>
          </ns3:TrackPointExtension>
        </extensions>
      </trkpt>
      <trkpt lat="46.61672973074018955230712890625" lon="6.8616628088057041168212890625">
        <ele>761</ele>
        <time>2013-08-15T16:48:29.000Z</time>
        <extensions>
          <ns3:TrackPointExtension>
            <ns3:atemp>17.0</ns3:atemp>
            <ns3:hr>128</ns3:hr>
          </ns3:TrackPointExtension>
        </extensions>
      </trkpt>
      <trkpt lat="46.616718582808971405029296875" lon="6.861738078296184539794921875">
        <ele>759.79998779296875</ele>
        <time>2013-08-15T16:48:30.000Z</time>
        <extensions>
          <ns3:TrackPointExtension>
            <ns3:atemp>17.0</ns3:atemp>
            <ns3:hr>127</ns3:hr>
          </ns3:TrackPointExtension>
        </extensions>
      </trkpt>
      <trkpt lat="46.6166798584163188934326171875" lon="6.8617952428758144378662109375">
        <ele>758.20001220703125</ele>
        <time>2013-08-15T16:48:31.000Z</time>
        <extensions>
          <ns3:TrackPointExtension>
            <ns3:atemp>17.0</ns3:atemp>
            <ns3:hr>126</ns3:hr>
          </ns3:TrackPointExtension>
        </extensions>
      </trkpt>
      <trkpt lat="46.61662059836089611053466796875" lon="6.8618374876677989959716796875">
        <ele>757.79998779296875</ele>
        <time>2013-08-15T16:48:32.000Z</time>
        <extensions>
          <ns3:TrackPointExtension>
            <ns3:atemp>17.0</ns3:atemp>
            <ns3:hr>125</ns3:hr>
          </ns3:TrackPointExtension>
        </extensions>
      </trkpt>
      <trkpt lat="46.61654985509812831878662109375" lon="6.861857436597347259521484375">
        <ele>757.20001220703125</ele>
        <time>2013-08-15T16:48:33.000Z</time>
        <extensions>
          <ns3:TrackPointExtension>
            <ns3:atemp>17.0</ns3:atemp>
            <ns3:hr>124</ns3:hr>
          </ns3:TrackPointExtension>
        </extensions>
      </trkpt>
      <trkpt lat="46.61648313514888286590576171875" lon="6.861886270344257354736328125">
        <ele>757.20001220703125</ele>
        <time>2013-08-15T16:48:34.000Z</time>
        <extensions>
          <ns3:TrackPointExtension>
            <ns3:atemp>17.0</ns3:atemp>
            <ns3:hr>123</ns3:hr>
          </ns3:TrackPointExtension>
        </extensions>
      </trkpt>
      <trkpt lat="46.61642412655055522918701171875" lon="6.86194536276161670684814453125">
        <ele>756.79998779296875</ele>
        <time>2013-08-15T16:48:35.000Z</time>
        <extensions>
          <ns3:TrackPointExtension>
            <ns3:atemp>17.0</ns3:atemp>
            <ns3:hr>123</ns3:hr>
          </ns3:TrackPointExtension>
        </extensions>
      </trkpt>
      <trkpt lat="46.6163714043796062469482421875" lon="6.8620171956717967987060546875">
        <ele>756.20001220703125</ele>
        <time>2013-08-15T16:48:36.000Z</time>
        <extensions>
          <ns3:TrackPointExtension>
            <ns3:atemp>17.0</ns3:atemp>
            <ns3:hr>122</ns3:hr>
          </ns3:TrackPointExtension>
        </extensions>
      </trkpt>
      <trkpt lat="46.61631432361900806427001953125" lon="6.862091459333896636962890625">
        <ele>755.5999755859375</ele>
        <time>2013-08-15T16:48:37.000Z</time>
        <extensions>
          <ns3:TrackPointExtension>
            <ns3:atemp>17.0</ns3:atemp>
            <ns3:hr>122</ns3:hr>
          </ns3:TrackPointExtension>
        </extensions>
      </trkpt>
      <trkpt lat="46.616251878440380096435546875" lon="6.8621684052050113677978515625">
        <ele>755</ele>
        <time>2013-08-15T16:48:38.000Z</time>
        <extensions>
          <ns3:TrackPointExtension>
            <ns3:atemp>17.0</ns3:atemp>
            <ns3:hr>122</ns3:hr>
          </ns3:TrackPointExtension>
        </extensions>
      </trkpt>
      <trkpt lat="46.61618809215724468231201171875" lon="6.86223923228681087493896484375">
        <ele>754.79998779296875</ele>
        <time>2013-08-15T16:48:39.000Z</time>
        <extensions>
          <ns3:TrackPointExtension>
            <ns3:atemp>17.0</ns3:atemp>
            <ns3:hr>121</ns3:hr>
          </ns3:TrackPointExtension>
        </extensions>
      </trkpt>
      <trkpt lat="46.61612271331250667572021484375" lon="6.8622991628944873809814453125">
        <ele>754</ele>
        <time>2013-08-15T16:48:40.000Z</time>
        <extensions>
          <ns3:TrackPointExtension>
            <ns3:atemp>17.0</ns3:atemp>
            <ns3:hr>120</ns3:hr>
          </ns3:TrackPointExtension>
        </extensions>
      </trkpt>
      <trkpt lat="46.6160663031041622161865234375" lon="6.86236848123371601104736328125">
        <ele>753.4000244140625</ele>
        <time>2013-08-15T16:48:41.000Z</time>
        <extensions>
          <ns3:TrackPointExtension>
            <ns3:atemp>17.0</ns3:atemp>
            <ns3:hr>120</ns3:hr>
          </ns3:TrackPointExtension>
        </extensions>
      </trkpt>
      <trkpt lat="46.6160227172076702117919921875" lon="6.862458251416683197021484375">
        <ele>753</ele>
        <time>2013-08-15T16:48:42.000Z</time>
        <extensions>
          <ns3:TrackPointExtension>
            <ns3:atemp>17.0</ns3:atemp>
            <ns3:hr>120</ns3:hr>
          </ns3:TrackPointExtension>
        </extensions>
      </trkpt>
      <trkpt lat="46.6159922070801258087158203125" lon="6.86254768632352352142333984375">
        <ele>752.79998779296875</ele>
        <time>2013-08-15T16:48:43.000Z</time>
        <extensions>
          <ns3:TrackPointExtension>
            <ns3:atemp>17.0</ns3:atemp>
            <ns3:hr>119</ns3:hr>
          </ns3:TrackPointExtension>
        </extensions>
      </trkpt>
      <trkpt lat="46.61596563644707202911376953125" lon="6.86263904906809329986572265625">
        <ele>752</ele>
        <time>2013-08-15T16:48:44.000Z</time>
        <extensions>
          <ns3:TrackPointExtension>
            <ns3:atemp>17.0</ns3:atemp>
            <ns3:hr>119</ns3:hr>
          </ns3:TrackPointExtension>
        </extensions>
      </trkpt>
      <trkpt lat="46.615940742194652557373046875" lon="6.862729825079441070556640625">
        <ele>750.79998779296875</ele>
        <time>2013-08-15T16:48:45.000Z</time>
        <extensions>
          <ns3:TrackPointExtension>
            <ns3:atemp>17.0</ns3:atemp>
            <ns3:hr>119</ns3:hr>
          </ns3:TrackPointExtension>
        </extensions>
      </trkpt>
      <trkpt lat="46.6159207932651042938232421875" lon="6.862828731536865234375">
        <ele>749.79998779296875</ele>
        <time>2013-08-15T16:48:46.000Z</time>
        <extensions>
          <ns3:TrackPointExtension>
            <ns3:atemp>17.0</ns3:atemp>
            <ns3:hr>119</ns3:hr>
          </ns3:TrackPointExtension>
        </extensions>
      </trkpt>
      <trkpt lat="46.61590646021068096160888671875" lon="6.86293157748878002166748046875">
        <ele>748.4000244140625</ele>
        <time>2013-08-15T16:48:47.000Z</time>
        <extensions>
          <ns3:TrackPointExtension>
            <ns3:atemp>17.0</ns3:atemp>
            <ns3:hr>119</ns3:hr>
          </ns3:TrackPointExtension>
        </extensions>
      </trkpt>
      <trkpt lat="46.6158966533839702606201171875" lon="6.863037608563899993896484375">
        <ele>746.5999755859375</ele>
        <time>2013-08-15T16:48:48.000Z</time>
        <extensions>
          <ns3:TrackPointExtension>
            <ns3:atemp>17.0</ns3:atemp>
            <ns3:hr>119</ns3:hr>
          </ns3:TrackPointExtension>
        </extensions>
      </trkpt>
      <trkpt lat="46.61588500253856182098388671875" lon="6.863145567476749420166015625">
        <ele>745</ele>
        <time>2013-08-15T16:48:49.000Z</time>
        <extensions>
          <ns3:TrackPointExtension>
            <ns3:atemp>17.0</ns3:atemp>
            <ns3:hr>119</ns3:hr>
          </ns3:TrackPointExtension>
        </extensions>
      </trkpt>
      <trkpt lat="46.61587192676961421966552734375" lon="6.86325008980929851531982421875">
        <ele>742.20001220703125</ele>
        <time>2013-08-15T16:48:50.000Z</time>
        <extensions>
          <ns3:TrackPointExtension>
            <ns3:atemp>17.0</ns3:atemp>
            <ns3:hr>118</ns3:hr>
          </ns3:TrackPointExtension>
        </extensions>
      </trkpt>
      <trkpt lat="46.61585650406777858734130859375" lon="6.86334731988608837127685546875">
        <ele>740</ele>
        <time>2013-08-15T16:48:51.000Z</time>
        <extensions>
          <ns3:TrackPointExtension>
            <ns3:atemp>17.0</ns3:atemp>
            <ns3:hr>118</ns3:hr>
          </ns3:TrackPointExtension>
        </extensions>
      </trkpt>
      <trkpt lat="46.61584359593689441680908203125" lon="6.86343717388808727264404296875">
        <ele>738.4000244140625</ele>
        <time>2013-08-15T16:48:52.000Z</time>
        <extensions>
          <ns3:TrackPointExtension>
            <ns3:atemp>17.0</ns3:atemp>
            <ns3:hr>118</ns3:hr>
          </ns3:TrackPointExtension>
        </extensions>
      </trkpt>
      <trkpt lat="46.61583437584340572357177734375" lon="6.8635235913097858428955078125">
        <ele>737</ele>
        <time>2013-08-15T16:48:53.000Z</time>
        <extensions>
          <ns3:TrackPointExtension>
            <ns3:atemp>17.0</ns3:atemp>
            <ns3:hr>117</ns3:hr>
          </ns3:TrackPointExtension>
        </extensions>
      </trkpt>
      <trkpt lat="46.61582314409315586090087890625" lon="6.863600201904773712158203125">
        <ele>736</ele>
        <time>2013-08-15T16:48:54.000Z</time>
        <extensions>
          <ns3:TrackPointExtension>
            <ns3:atemp>17.0</ns3:atemp>
            <ns3:hr>117</ns3:hr>
          </ns3:TrackPointExtension>
        </extensions>
      </trkpt>
      <trkpt lat="46.615813337266445159912109375" lon="6.86367689631879329681396484375">
        <ele>734.5999755859375</ele>
        <time>2013-08-15T16:48:55.000Z</time>
        <extensions>
          <ns3:TrackPointExtension>
            <ns3:atemp>17.0</ns3:atemp>
            <ns3:hr>117</ns3:hr>
          </ns3:TrackPointExtension>
        </extensions>
      </trkpt>
      <trkpt lat="46.61580235697329044342041015625" lon="6.8637596257030963897705078125">
        <ele>733.4000244140625</ele>
        <time>2013-08-15T16:48:56.000Z</time>
        <extensions>
          <ns3:TrackPointExtension>
            <ns3:atemp>17.0</ns3:atemp>
            <ns3:hr>117</ns3:hr>
          </ns3:TrackPointExtension>
        </extensions>
      </trkpt>
      <trkpt lat="46.61578693427145481109619140625" lon="6.863840930163860321044921875">
        <ele>732.20001220703125</ele>
        <time>2013-08-15T16:48:57.000Z</time>
        <extensions>
          <ns3:TrackPointExtension>
            <ns3:atemp>17.0</ns3:atemp>
            <ns3:hr>117</ns3:hr>
          </ns3:TrackPointExtension>
        </extensions>
      </trkpt>
      <trkpt lat="46.61577017046511173248291015625" lon="6.863920725882053375244140625">
        <ele>731</ele>
        <time>2013-08-15T16:48:58.000Z</time>
        <extensions>
          <ns3:TrackPointExtension>
            <ns3:atemp>17.0</ns3:atemp>
            <ns3:hr>117</ns3:hr>
          </ns3:TrackPointExtension>
        </extensions>
      </trkpt>
      <trkpt lat="46.6157511435449123382568359375" lon="6.8640057183802127838134765625">
        <ele>729.79998779296875</ele>
        <time>2013-08-15T16:48:59.000Z</time>
        <extensions>
          <ns3:TrackPointExtension>
            <ns3:atemp>17.0</ns3:atemp>
            <ns3:hr>116</ns3:hr>
          </ns3:TrackPointExtension>
        </extensions>
      </trkpt>
      <trkpt lat="46.61572775803506374359130859375" lon="6.86409180052578449249267578125">
        <ele>728.4000244140625</ele>
        <time>2013-08-15T16:49:00.000Z</time>
        <extensions>
          <ns3:TrackPointExtension>
            <ns3:atemp>17.0</ns3:atemp>
            <ns3:hr>116</ns3:hr>
          </ns3:TrackPointExtension>
        </extensions>
      </trkpt>
      <trkpt lat="46.61570261232554912567138671875" lon="6.86418316327035427093505859375">
        <ele>727</ele>
        <time>2013-08-15T16:49:01.000Z</time>
        <extensions>
          <ns3:TrackPointExtension>
            <ns3:atemp>17.0</ns3:atemp>
            <ns3:hr>116</ns3:hr>
          </ns3:TrackPointExtension>
        </extensions>
      </trkpt>
      <trkpt lat="46.6156733594834804534912109375" lon="6.86427670530974864959716796875">
        <ele>725.20001220703125</ele>
        <time>2013-08-15T16:49:02.000Z</time>
        <extensions>
          <ns3:TrackPointExtension>
            <ns3:atemp>17.0</ns3:atemp>
            <ns3:hr>116</ns3:hr>
          </ns3:TrackPointExtension>
        </extensions>
      </trkpt>
      <trkpt lat="46.61563790403306484222412109375" lon="6.8643782101571559906005859375">
        <ele>724.20001220703125</ele>
        <time>2013-08-15T16:49:03.000Z</time>
        <extensions>
          <ns3:TrackPointExtension>
            <ns3:atemp>17.0</ns3:atemp>
            <ns3:hr>116</ns3:hr>
          </ns3:TrackPointExtension>
        </extensions>
      </trkpt>
      <trkpt lat="46.61559750325977802276611328125" lon="6.86448633670806884765625">
        <ele>722.5999755859375</ele>
        <time>2013-08-15T16:49:04.000Z</time>
        <extensions>
          <ns3:TrackPointExtension>
            <ns3:atemp>17.0</ns3:atemp>
            <ns3:hr>116</ns3:hr>
          </ns3:TrackPointExtension>
        </extensions>
      </trkpt>
      <trkpt lat="46.6155570186674594879150390625" lon="6.86459689401090145111083984375">
        <ele>721.79998779296875</ele>
        <time>2013-08-15T16:49:05.000Z</time>
        <extensions>
          <ns3:TrackPointExtension>
            <ns3:atemp>17.0</ns3:atemp>
            <ns3:hr>116</ns3:hr>
          </ns3:TrackPointExtension>
        </extensions>
      </trkpt>
      <trkpt lat="46.6155172884464263916015625" lon="6.86470082961022853851318359375">
        <ele>720.4000244140625</ele>
        <time>2013-08-15T16:49:06.000Z</time>
        <extensions>
          <ns3:TrackPointExtension>
            <ns3:atemp>17.0</ns3:atemp>
            <ns3:hr>116</ns3:hr>
          </ns3:TrackPointExtension>
        </extensions>
      </trkpt>
      <trkpt lat="46.61546540446579456329345703125" lon="6.86478951014578342437744140625">
        <ele>719</ele>
        <time>2013-08-15T16:49:07.000Z</time>
        <extensions>
          <ns3:TrackPointExtension>
            <ns3:atemp>17.0</ns3:atemp>
            <ns3:hr>116</ns3:hr>
          </ns3:TrackPointExtension>
        </extensions>
      </trkpt>
      <trkpt lat="46.61541871726512908935546875" lon="6.8648556433618068695068359375">
        <ele>717.4000244140625</ele>
        <time>2013-08-15T16:49:08.000Z</time>
        <extensions>
          <ns3:TrackPointExtension>
            <ns3:atemp>17.0</ns3:atemp>
            <ns3:hr>116</ns3:hr>
          </ns3:TrackPointExtension>
        </extensions>
      </trkpt>
      <trkpt lat="46.61537806503474712371826171875" lon="6.86490367166697978973388671875">
        <ele>716</ele>
        <time>2013-08-15T16:49:09.000Z</time>
        <extensions>
          <ns3:TrackPointExtension>
            <ns3:atemp>17.0</ns3:atemp>
            <ns3:hr>116</ns3:hr>
          </ns3:TrackPointExtension>
        </extensions>
      </trkpt>
      <trkpt lat="46.61534227430820465087890625" lon="6.8649397976696491241455078125">
        <ele>715</ele>
        <time>2013-08-15T16:49:10.000Z</time>
        <extensions>
          <ns3:TrackPointExtension>
            <ns3:atemp>17.0</ns3:atemp>
            <ns3:hr>115</ns3:hr>
          </ns3:TrackPointExtension>
        </extensions>
      </trkpt>
      <trkpt lat="46.615321151912212371826171875" lon="6.86496318317949771881103515625">
        <ele>714.20001220703125</ele>
        <time>2013-08-15T16:49:11.000Z</time>
        <extensions>
          <ns3:TrackPointExtension>
            <ns3:atemp>17.0</ns3:atemp>
            <ns3:hr>115</ns3:hr>
          </ns3:TrackPointExtension>
        </extensions>
      </trkpt>
      <trkpt lat="46.61531285382807254791259765625" lon="6.86497927643358707427978515625">
        <ele>713.79998779296875</ele>
        <time>2013-08-15T16:49:12.000Z</time>
        <extensions>
          <ns3:TrackPointExtension>
            <ns3:atemp>17.0</ns3:atemp>
            <ns3:hr>114</ns3:hr>
          </ns3:TrackPointExtension>
        </extensions>
      </trkpt>
      <trkpt lat="46.61531922407448291778564453125" lon="6.8649682961404323577880859375">
        <ele>713.4000244140625</ele>
        <time>2013-08-15T16:49:13.000Z</time>
        <extensions>
          <ns3:TrackPointExtension>
            <ns3:atemp>17.0</ns3:atemp>
            <ns3:hr>113</ns3:hr>
          </ns3:TrackPointExtension>
        </extensions>
      </trkpt>
      <trkpt lat="46.61531369201838970184326171875" lon="6.86497793532907962799072265625">
        <ele>713.20001220703125</ele>
        <time>2013-08-15T16:49:14.000Z</time>
        <extensions>
          <ns3:TrackPointExtension>
            <ns3:atemp>17.0</ns3:atemp>
            <ns3:hr>113</ns3:hr>
          </ns3:TrackPointExtension>
        </extensions>
      </trkpt>
      <trkpt lat="46.615311764180660247802734375" lon="6.8649823777377605438232421875">
        <ele>713.20001220703125</ele>
        <time>2013-08-15T16:49:15.000Z</time>
        <extensions>
          <ns3:TrackPointExtension>
            <ns3:atemp>17.0</ns3:atemp>
            <ns3:hr>113</ns3:hr>
          </ns3:TrackPointExtension>
        </extensions>
      </trkpt>
      <trkpt lat="46.615306399762630462646484375" lon="6.86498329974710941314697265625">
        <ele>713.4000244140625</ele>
        <time>2013-08-15T16:49:16.000Z</time>
        <extensions>
          <ns3:TrackPointExtension>
            <ns3:atemp>17.0</ns3:atemp>
            <ns3:hr>113</ns3:hr>
          </ns3:TrackPointExtension>
        </extensions>
      </trkpt>
      <trkpt lat="46.6152946650981903076171875" lon="6.86498992145061492919921875">
        <ele>713.20001220703125</ele>
        <time>2013-08-15T16:49:17.000Z</time>
        <extensions>
          <ns3:TrackPointExtension>
            <ns3:atemp>17.0</ns3:atemp>
            <ns3:hr>112</ns3:hr>
          </ns3:TrackPointExtension>
        </extensions>
      </trkpt>
      <trkpt lat="46.61528519354760646820068359375" lon="6.864993609488010406494140625">
        <ele>713.20001220703125</ele>
        <time>2013-08-15T16:49:18.000Z</time>
        <extensions>
          <ns3:TrackPointExtension>
            <ns3:atemp>17.0</ns3:atemp>
            <ns3:hr>113</ns3:hr>
          </ns3:TrackPointExtension>
        </extensions>
      </trkpt>
      <trkpt lat="46.61529022268950939178466796875" lon="6.8649910949170589447021484375">
        <ele>713</ele>
        <time>2013-08-15T16:49:19.000Z</time>
        <extensions>
          <ns3:TrackPointExtension>
            <ns3:atemp>17.0</ns3:atemp>
            <ns3:hr>113</ns3:hr>
          </ns3:TrackPointExtension>
        </extensions>
      </trkpt>
      <trkpt lat="46.6152864508330821990966796875" lon="6.8649947829544544219970703125">
        <ele>712.79998779296875</ele>
        <time>2013-08-15T16:49:20.000Z</time>
        <extensions>
          <ns3:TrackPointExtension>
            <ns3:atemp>17.0</ns3:atemp>
            <ns3:hr>113</ns3:hr>
          </ns3:TrackPointExtension>
        </extensions>
      </trkpt>
      <trkpt lat="46.6152864508330821990966796875" lon="6.8649947829544544219970703125">
        <ele>712.5999755859375</ele>
        <time>2013-08-15T16:49:21.000Z</time>
        <extensions>
          <ns3:TrackPointExtension>
            <ns3:atemp>17.0</ns3:atemp>
            <ns3:hr>113</ns3:hr>
          </ns3:TrackPointExtension>
        </extensions>
      </trkpt>
      <trkpt lat="46.6152824275195598602294921875" lon="6.8649964593350887298583984375">
        <ele>712.5999755859375</ele>
        <time>2013-08-15T16:49:22.000Z</time>
        <extensions>
          <ns3:TrackPointExtension>
            <ns3:atemp>17.0</ns3:atemp>
            <ns3:hr>113</ns3:hr>
          </ns3:TrackPointExtension>
        </extensions>
      </trkpt>
      <trkpt lat="46.6152705252170562744140625" lon="6.865004338324069976806640625">
        <ele>712.5999755859375</ele>
        <time>2013-08-15T16:49:23.000Z</time>
        <extensions>
          <ns3:TrackPointExtension>
            <ns3:atemp>17.0</ns3:atemp>
            <ns3:hr>113</ns3:hr>
          </ns3:TrackPointExtension>
        </extensions>
      </trkpt>
      <trkpt lat="46.615258120000362396240234375" lon="6.8650132231414318084716796875">
        <ele>712.79998779296875</ele>
        <time>2013-08-15T16:49:24.000Z</time>
        <extensions>
          <ns3:TrackPointExtension>
            <ns3:atemp>17.0</ns3:atemp>
            <ns3:hr>113</ns3:hr>
          </ns3:TrackPointExtension>
        </extensions>
      </trkpt>
      <trkpt lat="46.61524395458400249481201171875" lon="6.865029148757457733154296875">
        <ele>713</ele>
        <time>2013-08-15T16:49:25.000Z</time>
        <extensions>
          <ns3:TrackPointExtension>
            <ns3:atemp>17.0</ns3:atemp>
            <ns3:hr>112</ns3:hr>
          </ns3:TrackPointExtension>
        </extensions>
      </trkpt>
      <trkpt lat="46.61522735841572284698486328125" lon="6.86504532583057880401611328125">
        <ele>713.20001220703125</ele>
        <time>2013-08-15T16:49:26.000Z</time>
        <extensions>
          <ns3:TrackPointExtension>
            <ns3:atemp>17.0</ns3:atemp>
            <ns3:hr>112</ns3:hr>
          </ns3:TrackPointExtension>
        </extensions>
      </trkpt>
      <trkpt lat="46.615213863551616668701171875" lon="6.8650628440082073211669921875">
        <ele>713</ele>
        <time>2013-08-15T16:49:27.000Z</time>
        <extensions>
          <ns3:TrackPointExtension>
            <ns3:atemp>17.0</ns3:atemp>
            <ns3:hr>113</ns3:hr>
          </ns3:TrackPointExtension>
        </extensions>
      </trkpt>
      <trkpt lat="46.61520145833492279052734375" lon="6.86507516540586948394775390625">
        <ele>713</ele>
        <time>2013-08-15T16:49:28.000Z</time>
        <extensions>
          <ns3:TrackPointExtension>
            <ns3:atemp>17.0</ns3:atemp>
            <ns3:hr>113</ns3:hr>
          </ns3:TrackPointExtension>
        </extensions>
      </trkpt>
      <trkpt lat="46.61518679000437259674072265625" lon="6.8650819547474384307861328125">
        <ele>712.79998779296875</ele>
        <time>2013-08-15T16:49:29.000Z</time>
        <extensions>
          <ns3:TrackPointExtension>
            <ns3:atemp>17.0</ns3:atemp>
            <ns3:hr>113</ns3:hr>
          </ns3:TrackPointExtension>
        </extensions>
      </trkpt>
      <trkpt lat="46.61517790518701076507568359375" lon="6.86508757062256336212158203125">
        <ele>713</ele>
        <time>2013-08-15T16:49:30.000Z</time>
        <extensions>
          <ns3:TrackPointExtension>
            <ns3:atemp>17.0</ns3:atemp>
            <ns3:hr>113</ns3:hr>
          </ns3:TrackPointExtension>
        </extensions>
      </trkpt>
      <trkpt lat="46.61517254076898097991943359375" lon="6.86508891172707080841064453125">
        <ele>713</ele>
        <time>2013-08-15T16:49:31.000Z</time>
        <extensions>
          <ns3:TrackPointExtension>
            <ns3:atemp>17.0</ns3:atemp>
            <ns3:hr>113</ns3:hr>
          </ns3:TrackPointExtension>
        </extensions>
      </trkpt>
      <trkpt lat="46.61517639644443988800048828125" lon="6.8650884926319122314453125">
        <ele>712.79998779296875</ele>
        <time>2013-08-15T16:49:32.000Z</time>
        <extensions>
          <ns3:TrackPointExtension>
            <ns3:atemp>17.0</ns3:atemp>
            <ns3:hr>112</ns3:hr>
          </ns3:TrackPointExtension>
        </extensions>
      </trkpt>
      <trkpt lat="46.61517472006380558013916015625" lon="6.8650896660983562469482421875">
        <ele>712.79998779296875</ele>
        <time>2013-08-15T16:49:33.000Z</time>
        <extensions>
          <ns3:TrackPointExtension>
            <ns3:atemp>17.0</ns3:atemp>
            <ns3:hr>112</ns3:hr>
          </ns3:TrackPointExtension>
        </extensions>
      </trkpt>
      <trkpt lat="46.615172959864139556884765625" lon="6.86507985927164554595947265625">
        <ele>712.5999755859375</ele>
        <time>2013-08-15T16:49:34.000Z</time>
        <extensions>
          <ns3:TrackPointExtension>
            <ns3:atemp>17.0</ns3:atemp>
            <ns3:hr>111</ns3:hr>
          </ns3:TrackPointExtension>
        </extensions>
      </trkpt>
      <trkpt lat="46.6151731275022029876708984375" lon="6.86508111655712127685546875">
        <ele>712.5999755859375</ele>
        <time>2013-08-15T16:49:35.000Z</time>
        <extensions>
          <ns3:TrackPointExtension>
            <ns3:atemp>17.0</ns3:atemp>
            <ns3:hr>111</ns3:hr>
          </ns3:TrackPointExtension>
        </extensions>
      </trkpt>
      <trkpt lat="46.61516667343676090240478515625" lon="6.8650732375681400299072265625">
        <ele>712.79998779296875</ele>
        <time>2013-08-15T16:49:36.000Z</time>
        <extensions>
          <ns3:TrackPointExtension>
            <ns3:atemp>17.0</ns3:atemp>
            <ns3:hr>111</ns3:hr>
          </ns3:TrackPointExtension>
        </extensions>
      </trkpt>
      <trkpt lat="46.61515778861939907073974609375" lon="6.865084134042263031005859375">
        <ele>713</ele>
        <time>2013-08-15T16:49:37.000Z</time>
        <extensions>
          <ns3:TrackPointExtension>
            <ns3:atemp>17.0</ns3:atemp>
            <ns3:hr>111</ns3:hr>
          </ns3:TrackPointExtension>
        </extensions>
      </trkpt>
      <trkpt lat="46.615153513848781585693359375" lon="6.8650910072028636932373046875">
        <ele>713.20001220703125</ele>
        <time>2013-08-15T16:49:38.000Z</time>
        <extensions>
          <ns3:TrackPointExtension>
            <ns3:atemp>17.0</ns3:atemp>
            <ns3:hr>111</ns3:hr>
          </ns3:TrackPointExtension>
        </extensions>
      </trkpt>
      <trkpt lat="46.61514244973659515380859375" lon="6.86510751955211162567138671875">
        <ele>713.20001220703125</ele>
        <time>2013-08-15T16:49:39.000Z</time>
        <extensions>
          <ns3:TrackPointExtension>
            <ns3:atemp>17.0</ns3:atemp>
            <ns3:hr>111</ns3:hr>
          </ns3:TrackPointExtension>
        </extensions>
      </trkpt>
      <trkpt lat="46.6151328943669795989990234375" lon="6.86512461863458156585693359375">
        <ele>713</ele>
        <time>2013-08-15T16:49:40.000Z</time>
        <extensions>
          <ns3:TrackPointExtension>
            <ns3:atemp>17.0</ns3:atemp>
            <ns3:hr>112</ns3:hr>
          </ns3:TrackPointExtension>
        </extensions>
      </trkpt>
      <trkpt lat="46.61511705256998538970947265625" lon="6.86514590866863727569580078125">
        <ele>713</ele>
        <time>2013-08-15T16:49:41.000Z</time>
        <extensions>
          <ns3:TrackPointExtension>
            <ns3:atemp>17.0</ns3:atemp>
            <ns3:hr>112</ns3:hr>
          </ns3:TrackPointExtension>
        </extensions>
      </trkpt>
      <trkpt lat="46.61509282886981964111328125" lon="6.8651674501597881317138671875">
        <ele>713</ele>
        <time>2013-08-15T16:49:42.000Z</time>
        <extensions>
          <ns3:TrackPointExtension>
            <ns3:atemp>17.0</ns3:atemp>
            <ns3:hr>112</ns3:hr>
          </ns3:TrackPointExtension>
        </extensions>
      </trkpt>
      <trkpt lat="46.6150601394474506378173828125" lon="6.8651929311454296112060546875">
        <ele>713</ele>
        <time>2013-08-15T16:49:43.000Z</time>
        <extensions>
          <ns3:TrackPointExtension>
            <ns3:atemp>17.0</ns3:atemp>
            <ns3:hr>112</ns3:hr>
          </ns3:TrackPointExtension>
        </extensions>
      </trkpt>
      <trkpt lat="46.6150242649018764495849609375" lon="6.8652314879000186920166015625">
        <ele>712.79998779296875</ele>
        <time>2013-08-15T16:49:44.000Z</time>
        <extensions>
          <ns3:TrackPointExtension>
            <ns3:atemp>17.0</ns3:atemp>
            <ns3:hr>113</ns3:hr>
          </ns3:TrackPointExtension>
        </extensions>
      </trkpt>
      <trkpt lat="46.61498512141406536102294921875" lon="6.8652760796248912811279296875">
        <ele>712.79998779296875</ele>
        <time>2013-08-15T16:49:45.000Z</time>
        <extensions>
          <ns3:TrackPointExtension>
            <ns3:atemp>17.0</ns3:atemp>
            <ns3:hr>113</ns3:hr>
          </ns3:TrackPointExtension>
        </extensions>
      </trkpt>
      <trkpt lat="46.61494421772658824920654296875" lon="6.865325532853603363037109375">
        <ele>712.79998779296875</ele>
        <time>2013-08-15T16:49:46.000Z</time>
        <extensions>
          <ns3:TrackPointExtension>
            <ns3:atemp>17.0</ns3:atemp>
            <ns3:hr>113</ns3:hr>
          </ns3:TrackPointExtension>
        </extensions>
      </trkpt>
      <trkpt lat="46.614900045096874237060546875" lon="6.865381859242916107177734375">
        <ele>712.79998779296875</ele>
        <time>2013-08-15T16:49:47.000Z</time>
        <extensions>
          <ns3:TrackPointExtension>
            <ns3:atemp>17.0</ns3:atemp>
            <ns3:hr>114</ns3:hr>
          </ns3:TrackPointExtension>
        </extensions>
      </trkpt>
      <trkpt lat="46.614851094782352447509765625" lon="6.86543860472738742828369140625">
        <ele>712.5999755859375</ele>
        <time>2013-08-15T16:49:48.000Z</time>
        <extensions>
          <ns3:TrackPointExtension>
            <ns3:atemp>17.0</ns3:atemp>
            <ns3:hr>114</ns3:hr>
          </ns3:TrackPointExtension>
        </extensions>
      </trkpt>
      <trkpt lat="46.61479971371591091156005859375" lon="6.86549476347863674163818359375">
        <ele>712.79998779296875</ele>
        <time>2013-08-15T16:49:49.000Z</time>
        <extensions>
          <ns3:TrackPointExtension>
            <ns3:atemp>17.0</ns3:atemp>
            <ns3:hr>114</ns3:hr>
          </ns3:TrackPointExtension>
        </extensions>
      </trkpt>
      <trkpt lat="46.61474674008786678314208984375" lon="6.86555176042020320892333984375">
        <ele>713</ele>
        <time>2013-08-15T16:49:50.000Z</time>
        <extensions>
          <ns3:TrackPointExtension>
            <ns3:atemp>17.0</ns3:atemp>
            <ns3:hr>115</ns3:hr>
          </ns3:TrackPointExtension>
        </extensions>
      </trkpt>
      <trkpt lat="46.61469209007918834686279296875" lon="6.86561143957078456878662109375">
        <ele>713.4000244140625</ele>
        <time>2013-08-15T16:49:51.000Z</time>
        <extensions>
          <ns3:TrackPointExtension>
            <ns3:atemp>17.0</ns3:atemp>
            <ns3:hr>115</ns3:hr>
          </ns3:TrackPointExtension>
        </extensions>
      </trkpt>
      <trkpt lat="46.61463861353695392608642578125" lon="6.8656777404248714447021484375">
        <ele>713.4000244140625</ele>
        <time>2013-08-15T16:49:52.000Z</time>
        <extensions>
          <ns3:TrackPointExtension>
            <ns3:atemp>17.0</ns3:atemp>
            <ns3:hr>116</ns3:hr>
          </ns3:TrackPointExtension>
        </extensions>
      </trkpt>
      <trkpt lat="46.61458547227084636688232421875" lon="6.86574638821184635162353515625">
        <ele>713.20001220703125</ele>
        <time>2013-08-15T16:49:53.000Z</time>
        <extensions>
          <ns3:TrackPointExtension>
            <ns3:atemp>17.0</ns3:atemp>
            <ns3:hr>116</ns3:hr>
          </ns3:TrackPointExtension>
        </extensions>
      </trkpt>
      <trkpt lat="46.614531911909580230712890625" lon="6.865815035998821258544921875">
        <ele>713</ele>
        <time>2013-08-15T16:49:54.000Z</time>
        <extensions>
          <ns3:TrackPointExtension>
            <ns3:atemp>17.0</ns3:atemp>
            <ns3:hr>117</ns3:hr>
          </ns3:TrackPointExtension>
        </extensions>
      </trkpt>
      <trkpt lat="46.614476926624774932861328125" lon="6.86588586308062076568603515625">
        <ele>713</ele>
        <time>2013-08-15T16:49:55.000Z</time>
        <extensions>
          <ns3:TrackPointExtension>
            <ns3:atemp>17.0</ns3:atemp>
            <ns3:hr>118</ns3:hr>
          </ns3:TrackPointExtension>
        </extensions>
      </trkpt>
      <trkpt lat="46.614421941339969635009765625" lon="6.8659556843340396881103515625">
        <ele>713</ele>
        <time>2013-08-15T16:49:56.000Z</time>
        <extensions>
          <ns3:TrackPointExtension>
            <ns3:atemp>17.0</ns3:atemp>
            <ns3:hr>118</ns3:hr>
          </ns3:TrackPointExtension>
        </extensions>
      </trkpt>
      <trkpt lat="46.6143671236932277679443359375" lon="6.86602919362485408782958984375">
        <ele>713</ele>
        <time>2013-08-15T16:49:57.000Z</time>
        <extensions>
          <ns3:TrackPointExtension>
            <ns3:atemp>17.0</ns3:atemp>
            <ns3:hr>118</ns3:hr>
          </ns3:TrackPointExtension>
        </extensions>
      </trkpt>
      <trkpt lat="46.61431289277970790863037109375" lon="6.86610882170498371124267578125">
        <ele>713</ele>
        <time>2013-08-15T16:49:58.000Z</time>
        <extensions>
          <ns3:TrackPointExtension>
            <ns3:atemp>17.0</ns3:atemp>
            <ns3:hr>119</ns3:hr>
          </ns3:TrackPointExtension>
        </extensions>
      </trkpt>
      <trkpt lat="46.6142595000565052032470703125" lon="6.86619431711733341217041015625">
        <ele>712.79998779296875</ele>
        <time>2013-08-15T16:49:59.000Z</time>
        <extensions>
          <ns3:TrackPointExtension>
            <ns3:atemp>17.0</ns3:atemp>
            <ns3:hr>120</ns3:hr>
          </ns3:TrackPointExtension>
        </extensions>
      </trkpt>
      <trkpt lat="46.61421130411326885223388671875" lon="6.86628517694771289825439453125">
        <ele>712.5999755859375</ele>
        <time>2013-08-15T16:50:00.000Z</time>
        <extensions>
          <ns3:TrackPointExtension>
            <ns3:atemp>17.0</ns3:atemp>
            <ns3:hr>120</ns3:hr>
          </ns3:TrackPointExtension>
        </extensions>
      </trkpt>
      <trkpt lat="46.61417014896869659423828125" lon="6.8663839995861053466796875">
        <ele>712.4000244140625</ele>
        <time>2013-08-15T16:50:01.000Z</time>
        <extensions>
          <ns3:TrackPointExtension>
            <ns3:atemp>17.0</ns3:atemp>
            <ns3:hr>120</ns3:hr>
          </ns3:TrackPointExtension>
        </extensions>
      </trkpt>
      <trkpt lat="46.61413536407053470611572265625" lon="6.86648483388125896453857421875">
        <ele>712.4000244140625</ele>
        <time>2013-08-15T16:50:02.000Z</time>
        <extensions>
          <ns3:TrackPointExtension>
            <ns3:atemp>17.0</ns3:atemp>
            <ns3:hr>121</ns3:hr>
          </ns3:TrackPointExtension>
        </extensions>
      </trkpt>
      <trkpt lat="46.614103429019451141357421875" lon="6.8665896914899349212646484375">
        <ele>712.4000244140625</ele>
        <time>2013-08-15T16:50:03.000Z</time>
        <extensions>
          <ns3:TrackPointExtension>
            <ns3:atemp>17.0</ns3:atemp>
            <ns3:hr>121</ns3:hr>
          </ns3:TrackPointExtension>
        </extensions>
      </trkpt>
      <trkpt lat="46.61406847648322582244873046875" lon="6.8666979856789112091064453125">
        <ele>712.4000244140625</ele>
        <time>2013-08-15T16:50:04.000Z</time>
        <extensions>
          <ns3:TrackPointExtension>
            <ns3:atemp>17.0</ns3:atemp>
            <ns3:hr>122</ns3:hr>
          </ns3:TrackPointExtension>
        </extensions>
      </trkpt>
      <trkpt lat="46.61402321420609951019287109375" lon="6.86679597012698650360107421875">
        <ele>712.20001220703125</ele>
        <time>2013-08-15T16:50:05.000Z</time>
        <extensions>
          <ns3:TrackPointExtension>
            <ns3:atemp>17.0</ns3:atemp>
            <ns3:hr>122</ns3:hr>
          </ns3:TrackPointExtension>
        </extensions>
      </trkpt>
      <trkpt lat="46.61396571435034275054931640625" lon="6.86688314191997051239013671875">
        <ele>712.20001220703125</ele>
        <time>2013-08-15T16:50:06.000Z</time>
        <extensions>
          <ns3:TrackPointExtension>
            <ns3:atemp>17.0</ns3:atemp>
            <ns3:hr>122</ns3:hr>
          </ns3:TrackPointExtension>
        </extensions>
      </trkpt>
      <trkpt lat="46.61390326917171478271484375" lon="6.86695975251495838165283203125">
        <ele>712.20001220703125</ele>
        <time>2013-08-15T16:50:07.000Z</time>
        <extensions>
          <ns3:TrackPointExtension>
            <ns3:atemp>17.0</ns3:atemp>
            <ns3:hr>122</ns3:hr>
          </ns3:TrackPointExtension>
        </extensions>
      </trkpt>
      <trkpt lat="46.6138424165546894073486328125" lon="6.8670372851192951202392578125">
        <ele>712</ele>
        <time>2013-08-15T16:50:08.000Z</time>
        <extensions>
          <ns3:TrackPointExtension>
            <ns3:atemp>17.0</ns3:atemp>
            <ns3:hr>123</ns3:hr>
          </ns3:TrackPointExtension>
        </extensions>
      </trkpt>
      <trkpt lat="46.61378282122313976287841796875" lon="6.86711917631328105926513671875">
        <ele>711.5999755859375</ele>
        <time>2013-08-15T16:50:09.000Z</time>
        <extensions>
          <ns3:TrackPointExtension>
            <ns3:atemp>17.0</ns3:atemp>
            <ns3:hr>122</ns3:hr>
          </ns3:TrackPointExtension>
        </extensions>
      </trkpt>
      <trkpt lat="46.61372515372931957244873046875" lon="6.86720064841210842132568359375">
        <ele>711.4000244140625</ele>
        <time>2013-08-15T16:50:10.000Z</time>
        <extensions>
          <ns3:TrackPointExtension>
            <ns3:atemp>17.0</ns3:atemp>
            <ns3:hr>122</ns3:hr>
          </ns3:TrackPointExtension>
        </extensions>
      </trkpt>
      <trkpt lat="46.61366966553032398223876953125" lon="6.86728178523480892181396484375">
        <ele>711.4000244140625</ele>
        <time>2013-08-15T16:50:11.000Z</time>
        <extensions>
          <ns3:TrackPointExtension>
            <ns3:atemp>17.0</ns3:atemp>
            <ns3:hr>122</ns3:hr>
          </ns3:TrackPointExtension>
        </extensions>
      </trkpt>
      <trkpt lat="46.6136140935122966766357421875" lon="6.8673645146191120147705078125">
        <ele>711.20001220703125</ele>
        <time>2013-08-15T16:50:12.000Z</time>
        <extensions>
          <ns3:TrackPointExtension>
            <ns3:atemp>17.0</ns3:atemp>
            <ns3:hr>122</ns3:hr>
          </ns3:TrackPointExtension>
        </extensions>
      </trkpt>
      <trkpt lat="46.61356321536004543304443359375" lon="6.86745093204081058502197265625">
        <ele>711.20001220703125</ele>
        <time>2013-08-15T16:50:13.000Z</time>
        <extensions>
          <ns3:TrackPointExtension>
            <ns3:atemp>17.0</ns3:atemp>
            <ns3:hr>122</ns3:hr>
          </ns3:TrackPointExtension>
        </extensions>
      </trkpt>
      <trkpt lat="46.6135161928832530975341796875" lon="6.8675405345857143402099609375">
        <ele>711.20001220703125</ele>
        <time>2013-08-15T16:50:14.000Z</time>
        <extensions>
          <ns3:TrackPointExtension>
            <ns3:atemp>17.0</ns3:atemp>
            <ns3:hr>122</ns3:hr>
          </ns3:TrackPointExtension>
        </extensions>
      </trkpt>
      <trkpt lat="46.61346900276839733123779296875" lon="6.86763055622577667236328125">
        <ele>711.20001220703125</ele>
        <time>2013-08-15T16:50:15.000Z</time>
        <extensions>
          <ns3:TrackPointExtension>
            <ns3:atemp>17.0</ns3:atemp>
            <ns3:hr>122</ns3:hr>
          </ns3:TrackPointExtension>
        </extensions>
      </trkpt>
      <trkpt lat="46.6134260036051273345947265625" lon="6.86772015877068042755126953125">
        <ele>711.20001220703125</ele>
        <time>2013-08-15T16:50:16.000Z</time>
        <extensions>
          <ns3:TrackPointExtension>
            <ns3:atemp>17.0</ns3:atemp>
            <ns3:hr>121</ns3:hr>
          </ns3:TrackPointExtension>
        </extensions>
      </trkpt>
      <trkpt lat="46.6133902966976165771484375" lon="6.86781755648553371429443359375">
        <ele>711.20001220703125</ele>
        <time>2013-08-15T16:50:17.000Z</time>
        <extensions>
          <ns3:TrackPointExtension>
            <ns3:atemp>17.0</ns3:atemp>
            <ns3:hr>122</ns3:hr>
          </ns3:TrackPointExtension>
        </extensions>
      </trkpt>
      <trkpt lat="46.61336288787424564361572265625" lon="6.86791880987584590911865234375">
        <ele>711.20001220703125</ele>
        <time>2013-08-15T16:50:18.000Z</time>
        <extensions>
          <ns3:TrackPointExtension>
            <ns3:atemp>17.0</ns3:atemp>
            <ns3:hr>122</ns3:hr>
          </ns3:TrackPointExtension>
        </extensions>
      </trkpt>
      <trkpt lat="46.61334545351564884185791015625" lon="6.86802349984645843505859375">
        <ele>711.20001220703125</ele>
        <time>2013-08-15T16:50:19.000Z</time>
        <extensions>
          <ns3:TrackPointExtension>
            <ns3:atemp>17.0</ns3:atemp>
            <ns3:hr>122</ns3:hr>
          </ns3:TrackPointExtension>
        </extensions>
      </trkpt>
      <trkpt lat="46.6133354790508747100830078125" lon="6.86812802217900753021240234375">
        <ele>711.20001220703125</ele>
        <time>2013-08-15T16:50:20.000Z</time>
        <extensions>
          <ns3:TrackPointExtension>
            <ns3:atemp>17.0</ns3:atemp>
            <ns3:hr>123</ns3:hr>
          </ns3:TrackPointExtension>
        </extensions>
      </trkpt>
      <trkpt lat="46.613336317241191864013671875" lon="6.8682301975786685943603515625">
        <ele>711.4000244140625</ele>
        <time>2013-08-15T16:50:21.000Z</time>
        <extensions>
          <ns3:TrackPointExtension>
            <ns3:atemp>17.0</ns3:atemp>
            <ns3:hr>123</ns3:hr>
          </ns3:TrackPointExtension>
        </extensions>
      </trkpt>
      <trkpt lat="46.613347046077251434326171875" lon="6.8683286011219024658203125">
        <ele>711.4000244140625</ele>
        <time>2013-08-15T16:50:22.000Z</time>
        <extensions>
          <ns3:TrackPointExtension>
            <ns3:atemp>17.0</ns3:atemp>
            <ns3:hr>123</ns3:hr>
          </ns3:TrackPointExtension>
        </extensions>
      </trkpt>
      <trkpt lat="46.61337143741548061370849609375" lon="6.8684182874858379364013671875">
        <ele>711.20001220703125</ele>
        <time>2013-08-15T16:50:23.000Z</time>
        <extensions>
          <ns3:TrackPointExtension>
            <ns3:atemp>17.0</ns3:atemp>
            <ns3:hr>122</ns3:hr>
          </ns3:TrackPointExtension>
        </extensions>
      </trkpt>
      <trkpt lat="46.6134130954742431640625" lon="6.86849095858633518218994140625">
        <ele>711.20001220703125</ele>
        <time>2013-08-15T16:50:24.000Z</time>
        <extensions>
          <ns3:TrackPointExtension>
            <ns3:atemp>17.0</ns3:atemp>
            <ns3:hr>122</ns3:hr>
          </ns3:TrackPointExtension>
        </extensions>
      </trkpt>
      <trkpt lat="46.6134602017700672149658203125" lon="6.86855323612689971923828125">
        <ele>711.4000244140625</ele>
        <time>2013-08-15T16:50:25.000Z</time>
        <extensions>
          <ns3:TrackPointExtension>
            <ns3:atemp>17.0</ns3:atemp>
            <ns3:hr>123</ns3:hr>
          </ns3:TrackPointExtension>
        </extensions>
      </trkpt>
      <trkpt lat="46.6135091520845890045166015625" lon="6.8686080537736415863037109375">
        <ele>712</ele>
        <time>2013-08-15T16:50:26.000Z</time>
        <extensions>
          <ns3:TrackPointExtension>
            <ns3:atemp>17.0</ns3:atemp>
            <ns3:hr>123</ns3:hr>
          </ns3:TrackPointExtension>
        </extensions>
      </trkpt>
      <trkpt lat="46.61355198360979557037353515625" lon="6.8686687387526035308837890625">
        <ele>712</ele>
        <time>2013-08-15T16:50:27.000Z</time>
        <extensions>
          <ns3:TrackPointExtension>
            <ns3:atemp>17.0</ns3:atemp>
            <ns3:hr>122</ns3:hr>
          </ns3:TrackPointExtension>
        </extensions>
      </trkpt>
      <trkpt lat="46.6135943122208118438720703125" lon="6.868729256093502044677734375">
        <ele>712</ele>
        <time>2013-08-15T16:50:28.000Z</time>
        <extensions>
          <ns3:TrackPointExtension>
            <ns3:atemp>17.0</ns3:atemp>
            <ns3:hr>123</ns3:hr>
          </ns3:TrackPointExtension>
        </extensions>
      </trkpt>
      <trkpt lat="46.61363999359309673309326171875" lon="6.8687854148447513580322265625">
        <ele>712.20001220703125</ele>
        <time>2013-08-15T16:50:29.000Z</time>
        <extensions>
          <ns3:TrackPointExtension>
            <ns3:atemp>17.0</ns3:atemp>
            <ns3:hr>124</ns3:hr>
          </ns3:TrackPointExtension>
        </extensions>
      </trkpt>
      <trkpt lat="46.61368693225085735321044921875" lon="6.8688355386257171630859375">
        <ele>712.20001220703125</ele>
        <time>2013-08-15T16:50:30.000Z</time>
        <extensions>
          <ns3:TrackPointExtension>
            <ns3:atemp>17.0</ns3:atemp>
            <ns3:hr>124</ns3:hr>
          </ns3:TrackPointExtension>
        </extensions>
      </trkpt>
      <trkpt lat="46.61373068578541278839111328125" lon="6.8688883446156978607177734375">
        <ele>712.4000244140625</ele>
        <time>2013-08-15T16:50:31.000Z</time>
        <extensions>
          <ns3:TrackPointExtension>
            <ns3:atemp>17.0</ns3:atemp>
            <ns3:hr>125</ns3:hr>
          </ns3:TrackPointExtension>
        </extensions>
      </trkpt>
      <trkpt lat="46.613772846758365631103515625" lon="6.86894349753856658935546875">
        <ele>712.4000244140625</ele>
        <time>2013-08-15T16:50:32.000Z</time>
        <extensions>
          <ns3:TrackPointExtension>
            <ns3:atemp>17.0</ns3:atemp>
            <ns3:hr>126</ns3:hr>
          </ns3:TrackPointExtension>
        </extensions>
      </trkpt>
      <trkpt lat="46.6138139180839061737060546875" lon="6.868997476994991302490234375">
        <ele>712.5999755859375</ele>
        <time>2013-08-15T16:50:33.000Z</time>
        <extensions>
          <ns3:TrackPointExtension>
            <ns3:atemp>17.0</ns3:atemp>
            <ns3:hr>127</ns3:hr>
          </ns3:TrackPointExtension>
        </extensions>
      </trkpt>
      <trkpt lat="46.61385322920978069305419921875" lon="6.869049109518527984619140625">
        <ele>713</ele>
        <time>2013-08-15T16:50:34.000Z</time>
        <extensions>
          <ns3:TrackPointExtension>
            <ns3:atemp>17.0</ns3:atemp>
            <ns3:hr>127</ns3:hr>
          </ns3:TrackPointExtension>
        </extensions>
      </trkpt>
      <trkpt lat="46.61389052867889404296875" lon="6.86909780837595462799072265625">
        <ele>713.20001220703125</ele>
        <time>2013-08-15T16:50:35.000Z</time>
        <extensions>
          <ns3:TrackPointExtension>
            <ns3:atemp>17.0</ns3:atemp>
            <ns3:hr>127</ns3:hr>
          </ns3:TrackPointExtension>
        </extensions>
      </trkpt>
      <trkpt lat="46.61392799578607082366943359375" lon="6.86914977617561817169189453125">
        <ele>713.4000244140625</ele>
        <time>2013-08-15T16:50:36.000Z</time>
        <extensions>
          <ns3:TrackPointExtension>
            <ns3:atemp>17.0</ns3:atemp>
            <ns3:hr>128</ns3:hr>
          </ns3:TrackPointExtension>
        </extensions>
      </trkpt>
      <trkpt lat="46.6139584220945835113525390625" lon="6.86920509673655033111572265625">
        <ele>713.5999755859375</ele>
        <time>2013-08-15T16:50:37.000Z</time>
        <extensions>
          <ns3:TrackPointExtension>
            <ns3:atemp>17.0</ns3:atemp>
            <ns3:hr>128</ns3:hr>
          </ns3:TrackPointExtension>
        </extensions>
      </trkpt>
      <trkpt lat="46.61398516036570072174072265625" lon="6.8692608363926410675048828125">
        <ele>713.79998779296875</ele>
        <time>2013-08-15T16:50:38.000Z</time>
        <extensions>
          <ns3:TrackPointExtension>
            <ns3:atemp>17.0</ns3:atemp>
            <ns3:hr>129</ns3:hr>
          </ns3:TrackPointExtension>
        </extensions>
      </trkpt>
      <trkpt lat="46.61401315592229366302490234375" lon="6.8693057633936405181884765625">
        <ele>714</ele>
        <time>2013-08-15T16:50:39.000Z</time>
        <extensions>
          <ns3:TrackPointExtension>
            <ns3:atemp>17.0</ns3:atemp>
            <ns3:hr>129</ns3:hr>
          </ns3:TrackPointExtension>
        </extensions>
      </trkpt>
      <trkpt lat="46.61404073238372802734375" lon="6.8693607486784458160400390625">
        <ele>714</ele>
        <time>2013-08-15T16:50:40.000Z</time>
        <extensions>
          <ns3:TrackPointExtension>
            <ns3:atemp>17.0</ns3:atemp>
            <ns3:hr>129</ns3:hr>
          </ns3:TrackPointExtension>
        </extensions>
      </trkpt>
      <trkpt lat="46.614065207540988922119140625" lon="6.86941296793520450592041015625">
        <ele>714.20001220703125</ele>
        <time>2013-08-15T16:50:41.000Z</time>
        <extensions>
          <ns3:TrackPointExtension>
            <ns3:atemp>17.0</ns3:atemp>
            <ns3:hr>129</ns3:hr>
          </ns3:TrackPointExtension>
        </extensions>
      </trkpt>
      <trkpt lat="46.61408976651728153228759765625" lon="6.86946510337293148040771484375">
        <ele>714.4000244140625</ele>
        <time>2013-08-15T16:50:42.000Z</time>
        <extensions>
          <ns3:TrackPointExtension>
            <ns3:atemp>17.0</ns3:atemp>
            <ns3:hr>129</ns3:hr>
          </ns3:TrackPointExtension>
        </extensions>
      </trkpt>
      <trkpt lat="46.61411223001778125762939453125" lon="6.869516484439373016357421875">
        <ele>714.79998779296875</ele>
        <time>2013-08-15T16:50:43.000Z</time>
        <extensions>
          <ns3:TrackPointExtension>
            <ns3:atemp>17.0</ns3:atemp>
            <ns3:hr>130</ns3:hr>
          </ns3:TrackPointExtension>
        </extensions>
      </trkpt>
      <trkpt lat="46.61413737572729587554931640625" lon="6.869566105306148529052734375">
        <ele>715.20001220703125</ele>
        <time>2013-08-15T16:50:44.000Z</time>
        <extensions>
          <ns3:TrackPointExtension>
            <ns3:atemp>17.0</ns3:atemp>
            <ns3:hr>130</ns3:hr>
          </ns3:TrackPointExtension>
        </extensions>
      </trkpt>
      <trkpt lat="46.6141626052558422088623046875" lon="6.86961815692484378814697265625">
        <ele>715.4000244140625</ele>
        <time>2013-08-15T16:50:45.000Z</time>
        <extensions>
          <ns3:TrackPointExtension>
            <ns3:atemp>17.0</ns3:atemp>
            <ns3:hr>131</ns3:hr>
          </ns3:TrackPointExtension>
        </extensions>
      </trkpt>
      <trkpt lat="46.61418012343347072601318359375" lon="6.86967414803802967071533203125">
        <ele>715.5999755859375</ele>
        <time>2013-08-15T16:50:46.000Z</time>
        <extensions>
          <ns3:TrackPointExtension>
            <ns3:atemp>17.0</ns3:atemp>
            <ns3:hr>132</ns3:hr>
          </ns3:TrackPointExtension>
        </extensions>
      </trkpt>
      <trkpt lat="46.614199317991733551025390625" lon="6.86973198316991329193115234375">
        <ele>716</ele>
        <time>2013-08-15T16:50:47.000Z</time>
        <extensions>
          <ns3:TrackPointExtension>
            <ns3:atemp>17.0</ns3:atemp>
            <ns3:hr>133</ns3:hr>
          </ns3:TrackPointExtension>
        </extensions>
      </trkpt>
      <trkpt lat="46.61421901546418666839599609375" lon="6.86978730373084545135498046875">
        <ele>716.20001220703125</ele>
        <time>2013-08-15T16:50:48.000Z</time>
        <extensions>
          <ns3:TrackPointExtension>
            <ns3:atemp>17.0</ns3:atemp>
            <ns3:hr>134</ns3:hr>
          </ns3:TrackPointExtension>
        </extensions>
      </trkpt>
      <trkpt lat="46.61423879675567150115966796875" lon="6.86983558349311351776123046875">
        <ele>716.5999755859375</ele>
        <time>2013-08-15T16:50:49.000Z</time>
        <extensions>
          <ns3:TrackPointExtension>
            <ns3:atemp>17.0</ns3:atemp>
            <ns3:hr>135</ns3:hr>
          </ns3:TrackPointExtension>
        </extensions>
      </trkpt>
      <trkpt lat="46.614257656037807464599609375" lon="6.86988805420696735382080078125">
        <ele>717.20001220703125</ele>
        <time>2013-08-15T16:50:50.000Z</time>
        <extensions>
          <ns3:TrackPointExtension>
            <ns3:atemp>18.0</ns3:atemp>
            <ns3:hr>136</ns3:hr>
          </ns3:TrackPointExtension>
        </extensions>
      </trkpt>
      <trkpt lat="46.6142705641686916351318359375" lon="6.86994354240596294403076171875">
        <ele>717.79998779296875</ele>
        <time>2013-08-15T16:50:51.000Z</time>
        <extensions>
          <ns3:TrackPointExtension>
            <ns3:atemp>18.0</ns3:atemp>
            <ns3:hr>137</ns3:hr>
          </ns3:TrackPointExtension>
        </extensions>
      </trkpt>
      <trkpt lat="46.614274084568023681640625" lon="6.87000053934752941131591796875">
        <ele>718.4000244140625</ele>
        <time>2013-08-15T16:50:52.000Z</time>
        <extensions>
          <ns3:TrackPointExtension>
            <ns3:atemp>18.0</ns3:atemp>
            <ns3:hr>138</ns3:hr>
          </ns3:TrackPointExtension>
        </extensions>
      </trkpt>
      <trkpt lat="46.61427685059607028961181640625" lon="6.8700561113655567169189453125">
        <ele>719</ele>
        <time>2013-08-15T16:50:53.000Z</time>
        <extensions>
          <ns3:TrackPointExtension>
            <ns3:atemp>18.0</ns3:atemp>
            <ns3:hr>139</ns3:hr>
          </ns3:TrackPointExtension>
        </extensions>
      </trkpt>
      <trkpt lat="46.614287830889225006103515625" lon="6.8701030500233173370361328125">
        <ele>719.20001220703125</ele>
        <time>2013-08-15T16:50:54.000Z</time>
        <extensions>
          <ns3:TrackPointExtension>
            <ns3:atemp>18.0</ns3:atemp>
            <ns3:hr>140</ns3:hr>
          </ns3:TrackPointExtension>
        </extensions>
      </trkpt>
      <trkpt lat="46.614308618009090423583984375" lon="6.87014571391046047210693359375">
        <ele>719.4000244140625</ele>
        <time>2013-08-15T16:50:55.000Z</time>
        <extensions>
          <ns3:TrackPointExtension>
            <ns3:atemp>18.0</ns3:atemp>
            <ns3:hr>141</ns3:hr>
          </ns3:TrackPointExtension>
        </extensions>
      </trkpt>
      <trkpt lat="46.6143292374908924102783203125" lon="6.8701969273388385772705078125">
        <ele>719.5999755859375</ele>
        <time>2013-08-15T16:50:56.000Z</time>
        <extensions>
          <ns3:TrackPointExtension>
            <ns3:atemp>18.0</ns3:atemp>
            <ns3:hr>141</ns3:hr>
          </ns3:TrackPointExtension>
        </extensions>
      </trkpt>
      <trkpt lat="46.61434977315366268157958984375" lon="6.87025585211813449859619140625">
        <ele>719.79998779296875</ele>
        <time>2013-08-15T16:50:57.000Z</time>
        <extensions>
          <ns3:TrackPointExtension>
            <ns3:atemp>18.0</ns3:atemp>
            <ns3:hr>141</ns3:hr>
          </ns3:TrackPointExtension>
        </extensions>
      </trkpt>
      <trkpt lat="46.6143728233873844146728515625" lon="6.87031410634517669677734375">
        <ele>719.79998779296875</ele>
        <time>2013-08-15T16:50:58.000Z</time>
        <extensions>
          <ns3:TrackPointExtension>
            <ns3:atemp>18.0</ns3:atemp>
            <ns3:hr>142</ns3:hr>
          </ns3:TrackPointExtension>
        </extensions>
      </trkpt>
      <trkpt lat="46.6143962927162647247314453125" lon="6.870375461876392364501953125">
        <ele>719.5999755859375</ele>
        <time>2013-08-15T16:50:59.000Z</time>
        <extensions>
          <ns3:TrackPointExtension>
            <ns3:atemp>18.0</ns3:atemp>
            <ns3:hr>142</ns3:hr>
          </ns3:TrackPointExtension>
        </extensions>
      </trkpt>
      <trkpt lat="46.61442386917769908905029296875" lon="6.87043908052146434783935546875">
        <ele>719.79998779296875</ele>
        <time>2013-08-15T16:51:00.000Z</time>
        <extensions>
          <ns3:TrackPointExtension>
            <ns3:atemp>18.0</ns3:atemp>
            <ns3:hr>142</ns3:hr>
          </ns3:TrackPointExtension>
        </extensions>
      </trkpt>
      <trkpt lat="46.6144499368965625762939453125" lon="6.8705057166516780853271484375">
        <ele>719.5999755859375</ele>
        <time>2013-08-15T16:51:01.000Z</time>
        <extensions>
          <ns3:TrackPointExtension>
            <ns3:atemp>18.0</ns3:atemp>
            <ns3:hr>142</ns3:hr>
          </ns3:TrackPointExtension>
        </extensions>
      </trkpt>
      <trkpt lat="46.6144730709493160247802734375" lon="6.87057956121861934661865234375">
        <ele>719.5999755859375</ele>
        <time>2013-08-15T16:51:02.000Z</time>
        <extensions>
          <ns3:TrackPointExtension>
            <ns3:atemp>18.0</ns3:atemp>
            <ns3:hr>142</ns3:hr>
          </ns3:TrackPointExtension>
        </extensions>
      </trkpt>
      <trkpt lat="46.6144941933453083038330078125" lon="6.870655082166194915771484375">
        <ele>719.5999755859375</ele>
        <time>2013-08-15T16:51:03.000Z</time>
        <extensions>
          <ns3:TrackPointExtension>
            <ns3:atemp>18.0</ns3:atemp>
            <ns3:hr>142</ns3:hr>
          </ns3:TrackPointExtension>
        </extensions>
      </trkpt>
      <trkpt lat="46.61450886167585849761962890625" lon="6.87073261477053165435791015625">
        <ele>719.5999755859375</ele>
        <time>2013-08-15T16:51:04.000Z</time>
        <extensions>
          <ns3:TrackPointExtension>
            <ns3:atemp>18.0</ns3:atemp>
            <ns3:hr>142</ns3:hr>
          </ns3:TrackPointExtension>
        </extensions>
      </trkpt>
      <trkpt lat="46.6145146451890468597412109375" lon="6.8708151765167713165283203125">
        <ele>719.5999755859375</ele>
        <time>2013-08-15T16:51:05.000Z</time>
        <extensions>
          <ns3:TrackPointExtension>
            <ns3:atemp>18.0</ns3:atemp>
            <ns3:hr>142</ns3:hr>
          </ns3:TrackPointExtension>
        </extensions>
      </trkpt>
      <trkpt lat="46.61451422609388828277587890625" lon="6.87089874409139156341552734375">
        <ele>719.79998779296875</ele>
        <time>2013-08-15T16:51:06.000Z</time>
        <extensions>
          <ns3:TrackPointExtension>
            <ns3:atemp>18.0</ns3:atemp>
            <ns3:hr>141</ns3:hr>
          </ns3:TrackPointExtension>
        </extensions>
      </trkpt>
      <trkpt lat="46.61451389081776142120361328125" lon="6.8709831498563289642333984375">
        <ele>719.79998779296875</ele>
        <time>2013-08-15T16:51:07.000Z</time>
        <extensions>
          <ns3:TrackPointExtension>
            <ns3:atemp>18.0</ns3:atemp>
            <ns3:hr>141</ns3:hr>
          </ns3:TrackPointExtension>
        </extensions>
      </trkpt>
      <trkpt lat="46.6145122982561588287353515625" lon="6.87106437049806118011474609375">
        <ele>720</ele>
        <time>2013-08-15T16:51:08.000Z</time>
        <extensions>
          <ns3:TrackPointExtension>
            <ns3:atemp>18.0</ns3:atemp>
            <ns3:hr>141</ns3:hr>
          </ns3:TrackPointExtension>
        </extensions>
      </trkpt>
      <trkpt lat="46.6145169921219348907470703125" lon="6.87114282511174678802490234375">
        <ele>720</ele>
        <time>2013-08-15T16:51:09.000Z</time>
        <extensions>
          <ns3:TrackPointExtension>
            <ns3:atemp>18.0</ns3:atemp>
            <ns3:hr>140</ns3:hr>
          </ns3:TrackPointExtension>
        </extensions>
      </trkpt>
      <trkpt lat="46.614533923566341400146484375" lon="6.87121264636516571044921875">
        <ele>720</ele>
        <time>2013-08-15T16:51:10.000Z</time>
        <extensions>
          <ns3:TrackPointExtension>
            <ns3:atemp>18.0</ns3:atemp>
            <ns3:hr>140</ns3:hr>
          </ns3:TrackPointExtension>
        </extensions>
      </trkpt>
      <trkpt lat="46.61456200294196605682373046875" lon="6.871275343000888824462890625">
        <ele>719.79998779296875</ele>
        <time>2013-08-15T16:51:11.000Z</time>
        <extensions>
          <ns3:TrackPointExtension>
            <ns3:atemp>18.0</ns3:atemp>
            <ns3:hr>140</ns3:hr>
          </ns3:TrackPointExtension>
        </extensions>
      </trkpt>
      <trkpt lat="46.61460525356233119964599609375" lon="6.87132437713444232940673828125">
        <ele>719.79998779296875</ele>
        <time>2013-08-15T16:51:12.000Z</time>
        <extensions>
          <ns3:TrackPointExtension>
            <ns3:atemp>18.0</ns3:atemp>
            <ns3:hr>139</ns3:hr>
          </ns3:TrackPointExtension>
        </extensions>
      </trkpt>
      <trkpt lat="46.614654622972011566162109375" lon="6.87136980704963207244873046875">
        <ele>719.79998779296875</ele>
        <time>2013-08-15T16:51:13.000Z</time>
        <extensions>
          <ns3:TrackPointExtension>
            <ns3:atemp>18.0</ns3:atemp>
            <ns3:hr>139</ns3:hr>
          </ns3:TrackPointExtension>
        </extensions>
      </trkpt>
      <trkpt lat="46.61470793187618255615234375" lon="6.87140802852809429168701171875">
        <ele>719.79998779296875</ele>
        <time>2013-08-15T16:51:14.000Z</time>
        <extensions>
          <ns3:TrackPointExtension>
            <ns3:atemp>18.0</ns3:atemp>
            <ns3:hr>139</ns3:hr>
          </ns3:TrackPointExtension>
        </extensions>
      </trkpt>
      <trkpt lat="46.61475445143878459930419921875" lon="6.871455721557140350341796875">
        <ele>719.5999755859375</ele>
        <time>2013-08-15T16:51:15.000Z</time>
        <extensions>
          <ns3:TrackPointExtension>
            <ns3:atemp>18.0</ns3:atemp>
            <ns3:hr>139</ns3:hr>
          </ns3:TrackPointExtension>
        </extensions>
      </trkpt>
      <trkpt lat="46.61480273120105266571044921875" lon="6.87150374986231327056884765625">
        <ele>719.5999755859375</ele>
        <time>2013-08-15T16:51:16.000Z</time>
        <extensions>
          <ns3:TrackPointExtension>
            <ns3:atemp>18.0</ns3:atemp>
            <ns3:hr>139</ns3:hr>
          </ns3:TrackPointExtension>
        </extensions>
      </trkpt>
      <trkpt lat="46.61484874784946441650390625" lon="6.87155638821423053741455078125">
        <ele>719.79998779296875</ele>
        <time>2013-08-15T16:51:17.000Z</time>
        <extensions>
          <ns3:TrackPointExtension>
            <ns3:atemp>18.0</ns3:atemp>
            <ns3:hr>138</ns3:hr>
          </ns3:TrackPointExtension>
        </extensions>
      </trkpt>
      <trkpt lat="46.614891998469829559326171875" lon="6.8716027401387691497802734375">
        <ele>719.5999755859375</ele>
        <time>2013-08-15T16:51:18.000Z</time>
        <extensions>
          <ns3:TrackPointExtension>
            <ns3:atemp>18.0</ns3:atemp>
            <ns3:hr>138</ns3:hr>
          </ns3:TrackPointExtension>
        </extensions>
      </trkpt>
      <trkpt lat="46.61493600346148014068603515625" lon="6.87164808623492717742919921875">
        <ele>719.79998779296875</ele>
        <time>2013-08-15T16:51:19.000Z</time>
        <extensions>
          <ns3:TrackPointExtension>
            <ns3:atemp>18.0</ns3:atemp>
            <ns3:hr>138</ns3:hr>
          </ns3:TrackPointExtension>
        </extensions>
      </trkpt>
      <trkpt lat="46.61497657187283039093017578125" lon="6.87169821001589298248291015625">
        <ele>719.79998779296875</ele>
        <time>2013-08-15T16:51:20.000Z</time>
        <extensions>
          <ns3:TrackPointExtension>
            <ns3:atemp>18.0</ns3:atemp>
            <ns3:hr>138</ns3:hr>
          </ns3:TrackPointExtension>
        </extensions>
      </trkpt>
      <trkpt lat="46.6150168888270854949951171875" lon="6.8717475794255733489990234375">
        <ele>720.20001220703125</ele>
        <time>2013-08-15T16:51:21.000Z</time>
        <extensions>
          <ns3:TrackPointExtension>
            <ns3:atemp>18.0</ns3:atemp>
            <ns3:hr>138</ns3:hr>
          </ns3:TrackPointExtension>
        </extensions>
      </trkpt>
      <trkpt lat="46.61505854688584804534912109375" lon="6.871796362102031707763671875">
        <ele>720</ele>
        <time>2013-08-15T16:51:22.000Z</time>
        <extensions>
          <ns3:TrackPointExtension>
            <ns3:atemp>18.0</ns3:atemp>
            <ns3:hr>138</ns3:hr>
          </ns3:TrackPointExtension>
        </extensions>
      </trkpt>
      <trkpt lat="46.6150983609259128570556640625" lon="6.8718468211591243743896484375">
        <ele>720.20001220703125</ele>
        <time>2013-08-15T16:51:23.000Z</time>
        <extensions>
          <ns3:TrackPointExtension>
            <ns3:atemp>18.0</ns3:atemp>
            <ns3:hr>138</ns3:hr>
          </ns3:TrackPointExtension>
        </extensions>
      </trkpt>
      <trkpt lat="46.61514001898467540740966796875" lon="6.87189736403524875640869140625">
        <ele>720</ele>
        <time>2013-08-15T16:51:24.000Z</time>
        <extensions>
          <ns3:TrackPointExtension>
            <ns3:atemp>18.0</ns3:atemp>
            <ns3:hr>138</ns3:hr>
          </ns3:TrackPointExtension>
        </extensions>
      </trkpt>
      <trkpt lat="46.61518176086246967315673828125" lon="6.8719363398849964141845703125">
        <ele>720.4000244140625</ele>
        <time>2013-08-15T16:51:25.000Z</time>
        <extensions>
          <ns3:TrackPointExtension>
            <ns3:atemp>18.0</ns3:atemp>
            <ns3:hr>138</ns3:hr>
          </ns3:TrackPointExtension>
        </extensions>
      </trkpt>
      <trkpt lat="46.61522023379802703857421875" lon="6.8719779141247272491455078125">
        <ele>720.5999755859375</ele>
        <time>2013-08-15T16:51:26.000Z</time>
        <extensions>
          <ns3:TrackPointExtension>
            <ns3:atemp>18.0</ns3:atemp>
            <ns3:hr>138</ns3:hr>
          </ns3:TrackPointExtension>
        </extensions>
      </trkpt>
      <trkpt lat="46.61526122130453586578369140625" lon="6.872017644345760345458984375">
        <ele>720.79998779296875</ele>
        <time>2013-08-15T16:51:27.000Z</time>
        <extensions>
          <ns3:TrackPointExtension>
            <ns3:atemp>18.0</ns3:atemp>
            <ns3:hr>138</ns3:hr>
          </ns3:TrackPointExtension>
        </extensions>
      </trkpt>
      <trkpt lat="46.61530296318233013153076171875" lon="6.87205712310969829559326171875">
        <ele>720.79998779296875</ele>
        <time>2013-08-15T16:51:28.000Z</time>
        <extensions>
          <ns3:TrackPointExtension>
            <ns3:atemp>18.0</ns3:atemp>
            <ns3:hr>138</ns3:hr>
          </ns3:TrackPointExtension>
        </extensions>
      </trkpt>
      <trkpt lat="46.615344621241092681884765625" lon="6.87209920026361942291259765625">
        <ele>720.5999755859375</ele>
        <time>2013-08-15T16:51:29.000Z</time>
        <extensions>
          <ns3:TrackPointExtension>
            <ns3:atemp>18.0</ns3:atemp>
            <ns3:hr>138</ns3:hr>
          </ns3:TrackPointExtension>
        </extensions>
      </trkpt>
      <trkpt lat="46.61538762040436267852783203125" lon="6.872143708169460296630859375">
        <ele>720.5999755859375</ele>
        <time>2013-08-15T16:51:30.000Z</time>
        <extensions>
          <ns3:TrackPointExtension>
            <ns3:atemp>18.0</ns3:atemp>
            <ns3:hr>138</ns3:hr>
          </ns3:TrackPointExtension>
        </extensions>
      </trkpt>
      <trkpt lat="46.61543120630085468292236328125" lon="6.8721908144652843475341796875">
        <ele>720.4000244140625</ele>
        <time>2013-08-15T16:51:31.000Z</time>
        <extensions>
          <ns3:TrackPointExtension>
            <ns3:atemp>18.0</ns3:atemp>
            <ns3:hr>139</ns3:hr>
          </ns3:TrackPointExtension>
        </extensions>
      </trkpt>
      <trkpt lat="46.6154743731021881103515625" lon="6.87224336899816989898681640625">
        <ele>720.4000244140625</ele>
        <time>2013-08-15T16:51:32.000Z</time>
        <extensions>
          <ns3:TrackPointExtension>
            <ns3:atemp>18.0</ns3:atemp>
            <ns3:hr>139</ns3:hr>
          </ns3:TrackPointExtension>
        </extensions>
      </trkpt>
      <trkpt lat="46.61551586352288722991943359375" lon="6.87229583971202373504638671875">
        <ele>720.4000244140625</ele>
        <time>2013-08-15T16:51:33.000Z</time>
        <extensions>
          <ns3:TrackPointExtension>
            <ns3:atemp>18.0</ns3:atemp>
            <ns3:hr>139</ns3:hr>
          </ns3:TrackPointExtension>
        </extensions>
      </trkpt>
      <trkpt lat="46.615555845201015472412109375" lon="6.87234881334006786346435546875">
        <ele>720.5999755859375</ele>
        <time>2013-08-15T16:51:34.000Z</time>
        <extensions>
          <ns3:TrackPointExtension>
            <ns3:atemp>18.0</ns3:atemp>
            <ns3:hr>139</ns3:hr>
          </ns3:TrackPointExtension>
        </extensions>
      </trkpt>
      <trkpt lat="46.61559951491653919219970703125" lon="6.8724047206342220306396484375">
        <ele>720.4000244140625</ele>
        <time>2013-08-15T16:51:35.000Z</time>
        <extensions>
          <ns3:TrackPointExtension>
            <ns3:atemp>18.0</ns3:atemp>
            <ns3:hr>139</ns3:hr>
          </ns3:TrackPointExtension>
        </extensions>
      </trkpt>
      <trkpt lat="46.61564662121236324310302734375" lon="6.87246523797512054443359375">
        <ele>720.4000244140625</ele>
        <time>2013-08-15T16:51:36.000Z</time>
        <extensions>
          <ns3:TrackPointExtension>
            <ns3:atemp>18.0</ns3:atemp>
            <ns3:hr>139</ns3:hr>
          </ns3:TrackPointExtension>
        </extensions>
      </trkpt>
      <trkpt lat="46.615695320069789886474609375" lon="6.87252265401184558868408203125">
        <ele>720.5999755859375</ele>
        <time>2013-08-15T16:51:37.000Z</time>
        <extensions>
          <ns3:TrackPointExtension>
            <ns3:atemp>18.0</ns3:atemp>
            <ns3:hr>139</ns3:hr>
          </ns3:TrackPointExtension>
        </extensions>
      </trkpt>
      <trkpt lat="46.615749634802341461181640625" lon="6.8725867755711078643798828125">
        <ele>720.4000244140625</ele>
        <time>2013-08-15T16:51:38.000Z</time>
        <extensions>
          <ns3:TrackPointExtension>
            <ns3:atemp>18.0</ns3:atemp>
            <ns3:hr>140</ns3:hr>
          </ns3:TrackPointExtension>
        </extensions>
      </trkpt>
      <trkpt lat="46.6158034466207027435302734375" lon="6.87264603562653064727783203125">
        <ele>720.4000244140625</ele>
        <time>2013-08-15T16:51:39.000Z</time>
        <extensions>
          <ns3:TrackPointExtension>
            <ns3:atemp>18.0</ns3:atemp>
            <ns3:hr>139</ns3:hr>
          </ns3:TrackPointExtension>
        </extensions>
      </trkpt>
      <trkpt lat="46.61585415713489055633544921875" lon="6.8726987577974796295166015625">
        <ele>720.5999755859375</ele>
        <time>2013-08-15T16:51:40.000Z</time>
        <extensions>
          <ns3:TrackPointExtension>
            <ns3:atemp>18.0</ns3:atemp>
            <ns3:hr>139</ns3:hr>
          </ns3:TrackPointExtension>
        </extensions>
      </trkpt>
      <trkpt lat="46.61590612493455410003662109375" lon="6.87276028096675872802734375">
        <ele>720.5999755859375</ele>
        <time>2013-08-15T16:51:41.000Z</time>
        <extensions>
          <ns3:TrackPointExtension>
            <ns3:atemp>18.0</ns3:atemp>
            <ns3:hr>139</ns3:hr>
          </ns3:TrackPointExtension>
        </extensions>
      </trkpt>
      <trkpt lat="46.61595591343939304351806640625" lon="6.87282255850732326507568359375">
        <ele>720.5999755859375</ele>
        <time>2013-08-15T16:51:42.000Z</time>
        <extensions>
          <ns3:TrackPointExtension>
            <ns3:atemp>18.0</ns3:atemp>
            <ns3:hr>139</ns3:hr>
          </ns3:TrackPointExtension>
        </extensions>
      </trkpt>
      <trkpt lat="46.6160019300878047943115234375" lon="6.87288559041917324066162109375">
        <ele>720.5999755859375</ele>
        <time>2013-08-15T16:51:43.000Z</time>
        <extensions>
          <ns3:TrackPointExtension>
            <ns3:atemp>18.0</ns3:atemp>
            <ns3:hr>140</ns3:hr>
          </ns3:TrackPointExtension>
        </extensions>
      </trkpt>
      <trkpt lat="46.61607074551284313201904296875" lon="6.872947029769420623779296875">
        <ele>720.5999755859375</ele>
        <time>2013-08-15T16:51:44.000Z</time>
        <extensions>
          <ns3:TrackPointExtension>
            <ns3:atemp>18.0</ns3:atemp>
            <ns3:hr>139</ns3:hr>
          </ns3:TrackPointExtension>
        </extensions>
      </trkpt>
      <trkpt lat="46.616124473512172698974609375" lon="6.873009391129016876220703125">
        <ele>720.5999755859375</ele>
        <time>2013-08-15T16:51:45.000Z</time>
        <extensions>
          <ns3:TrackPointExtension>
            <ns3:atemp>18.0</ns3:atemp>
            <ns3:hr>140</ns3:hr>
          </ns3:TrackPointExtension>
        </extensions>
      </trkpt>
      <trkpt lat="46.6161744296550750732421875" lon="6.87306948937475681304931640625">
        <ele>720.5999755859375</ele>
        <time>2013-08-15T16:51:46.000Z</time>
        <extensions>
          <ns3:TrackPointExtension>
            <ns3:atemp>18.0</ns3:atemp>
            <ns3:hr>139</ns3:hr>
          </ns3:TrackPointExtension>
        </extensions>
      </trkpt>
      <trkpt lat="46.61621826700866222381591796875" lon="6.87313185073435306549072265625">
        <ele>720.4000244140625</ele>
        <time>2013-08-15T16:51:47.000Z</time>
        <extensions>
          <ns3:TrackPointExtension>
            <ns3:atemp>18.0</ns3:atemp>
            <ns3:hr>140</ns3:hr>
          </ns3:TrackPointExtension>
        </extensions>
      </trkpt>
      <trkpt lat="46.6162607632577419281005859375" lon="6.87318935059010982513427734375">
        <ele>720.4000244140625</ele>
        <time>2013-08-15T16:51:48.000Z</time>
        <extensions>
          <ns3:TrackPointExtension>
            <ns3:atemp>18.0</ns3:atemp>
            <ns3:hr>140</ns3:hr>
          </ns3:TrackPointExtension>
        </extensions>
      </trkpt>
      <trkpt lat="46.61630175076425075531005859375" lon="6.8732450902462005615234375">
        <ele>720.79998779296875</ele>
        <time>2013-08-15T16:51:49.000Z</time>
        <extensions>
          <ns3:TrackPointExtension>
            <ns3:atemp>18.0</ns3:atemp>
            <ns3:hr>140</ns3:hr>
          </ns3:TrackPointExtension>
        </extensions>
      </trkpt>
      <trkpt lat="46.61633863113820552825927734375" lon="6.87329328618943691253662109375">
        <ele>721.20001220703125</ele>
        <time>2013-08-15T16:51:50.000Z</time>
        <extensions>
          <ns3:TrackPointExtension>
            <ns3:atemp>18.0</ns3:atemp>
            <ns3:hr>140</ns3:hr>
          </ns3:TrackPointExtension>
        </extensions>
      </trkpt>
      <trkpt lat="46.61637014709413051605224609375" lon="6.87334475107491016387939453125">
        <ele>721.4000244140625</ele>
        <time>2013-08-15T16:51:51.000Z</time>
        <extensions>
          <ns3:TrackPointExtension>
            <ns3:atemp>18.0</ns3:atemp>
            <ns3:hr>140</ns3:hr>
          </ns3:TrackPointExtension>
        </extensions>
      </trkpt>
      <trkpt lat="46.61639696918427944183349609375" lon="6.87339772470295429229736328125">
        <ele>721.4000244140625</ele>
        <time>2013-08-15T16:51:52.000Z</time>
        <extensions>
          <ns3:TrackPointExtension>
            <ns3:atemp>18.0</ns3:atemp>
            <ns3:hr>140</ns3:hr>
          </ns3:TrackPointExtension>
        </extensions>
      </trkpt>
      <trkpt lat="46.61642345599830150604248046875" lon="6.8734460882842540740966796875">
        <ele>721.5999755859375</ele>
        <time>2013-08-15T16:51:53.000Z</time>
        <extensions>
          <ns3:TrackPointExtension>
            <ns3:atemp>18.0</ns3:atemp>
            <ns3:hr>140</ns3:hr>
          </ns3:TrackPointExtension>
        </extensions>
      </trkpt>
      <trkpt lat="46.616447009146213531494140625" lon="6.8735004030168056488037109375">
        <ele>721.5999755859375</ele>
        <time>2013-08-15T16:51:54.000Z</time>
        <extensions>
          <ns3:TrackPointExtension>
            <ns3:atemp>18.0</ns3:atemp>
            <ns3:hr>140</ns3:hr>
          </ns3:TrackPointExtension>
        </extensions>
      </trkpt>
      <trkpt lat="46.6164706461131572723388671875" lon="6.873549856245517730712890625">
        <ele>721.79998779296875</ele>
        <time>2013-08-15T16:51:55.000Z</time>
        <extensions>
          <ns3:TrackPointExtension>
            <ns3:atemp>18.0</ns3:atemp>
            <ns3:hr>141</ns3:hr>
          </ns3:TrackPointExtension>
        </extensions>
      </trkpt>
      <trkpt lat="46.6164951212704181671142578125" lon="6.87359578907489776611328125">
        <ele>721.79998779296875</ele>
        <time>2013-08-15T16:51:56.000Z</time>
        <extensions>
          <ns3:TrackPointExtension>
            <ns3:atemp>18.0</ns3:atemp>
            <ns3:hr>140</ns3:hr>
          </ns3:TrackPointExtension>
        </extensions>
      </trkpt>
      <trkpt lat="46.6165125556290149688720703125" lon="6.873641051352024078369140625">
        <ele>722</ele>
        <time>2013-08-15T16:51:57.000Z</time>
        <extensions>
          <ns3:TrackPointExtension>
            <ns3:atemp>18.0</ns3:atemp>
            <ns3:hr>140</ns3:hr>
          </ns3:TrackPointExtension>
        </extensions>
      </trkpt>
      <trkpt lat="46.6165306605398654937744140625" lon="6.87368086539208889007568359375">
        <ele>722.20001220703125</ele>
        <time>2013-08-15T16:51:58.000Z</time>
        <extensions>
          <ns3:TrackPointExtension>
            <ns3:atemp>18.0</ns3:atemp>
            <ns3:hr>141</ns3:hr>
          </ns3:TrackPointExtension>
        </extensions>
      </trkpt>
      <trkpt lat="46.61654683761298656463623046875" lon="6.8737252056598663330078125">
        <ele>722.4000244140625</ele>
        <time>2013-08-15T16:51:59.000Z</time>
        <extensions>
          <ns3:TrackPointExtension>
            <ns3:atemp>18.0</ns3:atemp>
            <ns3:hr>141</ns3:hr>
          </ns3:TrackPointExtension>
        </extensions>
      </trkpt>
      <trkpt lat="46.6165641881525516510009765625" lon="6.873766444623470306396484375">
        <ele>722.79998779296875</ele>
        <time>2013-08-15T16:52:00.000Z</time>
        <extensions>
          <ns3:TrackPointExtension>
            <ns3:atemp>18.0</ns3:atemp>
            <ns3:hr>142</ns3:hr>
          </ns3:TrackPointExtension>
        </extensions>
      </trkpt>
      <trkpt lat="46.61658355034887790679931640625" lon="6.87380592338740825653076171875">
        <ele>723</ele>
        <time>2013-08-15T16:52:01.000Z</time>
        <extensions>
          <ns3:TrackPointExtension>
            <ns3:atemp>18.0</ns3:atemp>
            <ns3:hr>142</ns3:hr>
          </ns3:TrackPointExtension>
        </extensions>
      </trkpt>
      <trkpt lat="46.6166020743548870086669921875" lon="6.873847581446170806884765625">
        <ele>723.79998779296875</ele>
        <time>2013-08-15T16:52:02.000Z</time>
        <extensions>
          <ns3:TrackPointExtension>
            <ns3:atemp>18.0</ns3:atemp>
            <ns3:hr>142</ns3:hr>
          </ns3:TrackPointExtension>
        </extensions>
      </trkpt>
      <trkpt lat="46.61662168800830841064453125" lon="6.87389275990426540374755859375">
        <ele>724.20001220703125</ele>
        <time>2013-08-15T16:52:03.000Z</time>
        <extensions>
          <ns3:TrackPointExtension>
            <ns3:atemp>18.0</ns3:atemp>
            <ns3:hr>143</ns3:hr>
          </ns3:TrackPointExtension>
        </extensions>
      </trkpt>
      <trkpt lat="46.6166322492063045501708984375" lon="6.8739241920411586761474609375">
        <ele>724.20001220703125</ele>
        <time>2013-08-15T16:52:04.000Z</time>
        <extensions>
          <ns3:TrackPointExtension>
            <ns3:atemp>18.0</ns3:atemp>
            <ns3:hr>143</ns3:hr>
          </ns3:TrackPointExtension>
        </extensions>
      </trkpt>
      <trkpt lat="46.61664373241364955902099609375" lon="6.87396015040576457977294921875">
        <ele>724.5999755859375</ele>
        <time>2013-08-15T16:52:05.000Z</time>
        <extensions>
          <ns3:TrackPointExtension>
            <ns3:atemp>18.0</ns3:atemp>
            <ns3:hr>143</ns3:hr>
          </ns3:TrackPointExtension>
        </extensions>
      </trkpt>
      <trkpt lat="46.61665412597358226776123046875" lon="6.87399770133197307586669921875">
        <ele>724.79998779296875</ele>
        <time>2013-08-15T16:52:06.000Z</time>
        <extensions>
          <ns3:TrackPointExtension>
            <ns3:atemp>18.0</ns3:atemp>
            <ns3:hr>143</ns3:hr>
          </ns3:TrackPointExtension>
        </extensions>
      </trkpt>
      <trkpt lat="46.61666351370513439178466796875" lon="6.8740331567823886871337890625">
        <ele>725.20001220703125</ele>
        <time>2013-08-15T16:52:07.000Z</time>
        <extensions>
          <ns3:TrackPointExtension>
            <ns3:atemp>18.0</ns3:atemp>
            <ns3:hr>144</ns3:hr>
          </ns3:TrackPointExtension>
        </extensions>
      </trkpt>
      <trkpt lat="46.6166704706847667694091796875" lon="6.874069869518280029296875">
        <ele>725.4000244140625</ele>
        <time>2013-08-15T16:52:08.000Z</time>
        <extensions>
          <ns3:TrackPointExtension>
            <ns3:atemp>18.0</ns3:atemp>
            <ns3:hr>144</ns3:hr>
          </ns3:TrackPointExtension>
        </extensions>
      </trkpt>
      <trkpt lat="46.61668631248176097869873046875" lon="6.874102056026458740234375">
        <ele>725.79998779296875</ele>
        <time>2013-08-15T16:52:09.000Z</time>
        <extensions>
          <ns3:TrackPointExtension>
            <ns3:atemp>18.0</ns3:atemp>
            <ns3:hr>144</ns3:hr>
          </ns3:TrackPointExtension>
        </extensions>
      </trkpt>
      <trkpt lat="46.61670441739261150360107421875" lon="6.874133236706256866455078125">
        <ele>726.20001220703125</ele>
        <time>2013-08-15T16:52:10.000Z</time>
        <extensions>
          <ns3:TrackPointExtension>
            <ns3:atemp>18.0</ns3:atemp>
            <ns3:hr>144</ns3:hr>
          </ns3:TrackPointExtension>
        </extensions>
      </trkpt>
      <trkpt lat="46.616724617779254913330078125" lon="6.87416634522378444671630859375">
        <ele>726.20001220703125</ele>
        <time>2013-08-15T16:52:11.000Z</time>
        <extensions>
          <ns3:TrackPointExtension>
            <ns3:atemp>18.0</ns3:atemp>
            <ns3:hr>144</ns3:hr>
          </ns3:TrackPointExtension>
        </extensions>
      </trkpt>
      <trkpt lat="46.616747081279754638671875" lon="6.87419593334197998046875">
        <ele>726.79998779296875</ele>
        <time>2013-08-15T16:52:12.000Z</time>
        <extensions>
          <ns3:TrackPointExtension>
            <ns3:atemp>18.0</ns3:atemp>
            <ns3:hr>145</ns3:hr>
          </ns3:TrackPointExtension>
        </extensions>
      </trkpt>
      <trkpt lat="46.6167727299034595489501953125" lon="6.8742334842681884765625">
        <ele>727</ele>
        <time>2013-08-15T16:52:13.000Z</time>
        <extensions>
          <ns3:TrackPointExtension>
            <ns3:atemp>18.0</ns3:atemp>
            <ns3:hr>145</ns3:hr>
          </ns3:TrackPointExtension>
        </extensions>
      </trkpt>
      <trkpt lat="46.6167998872697353363037109375" lon="6.87426944263279438018798828125">
        <ele>727.4000244140625</ele>
        <time>2013-08-15T16:52:14.000Z</time>
        <extensions>
          <ns3:TrackPointExtension>
            <ns3:atemp>18.0</ns3:atemp>
            <ns3:hr>146</ns3:hr>
          </ns3:TrackPointExtension>
        </extensions>
      </trkpt>
      <trkpt lat="46.61682763136923313140869140625" lon="6.8743050657212734222412109375">
        <ele>727.4000244140625</ele>
        <time>2013-08-15T16:52:15.000Z</time>
        <extensions>
          <ns3:TrackPointExtension>
            <ns3:atemp>18.0</ns3:atemp>
            <ns3:hr>146</ns3:hr>
          </ns3:TrackPointExtension>
        </extensions>
      </trkpt>
      <trkpt lat="46.61685680039227008819580078125" lon="6.874336414039134979248046875">
        <ele>727.4000244140625</ele>
        <time>2013-08-15T16:52:16.000Z</time>
        <extensions>
          <ns3:TrackPointExtension>
            <ns3:atemp>18.0</ns3:atemp>
            <ns3:hr>146</ns3:hr>
          </ns3:TrackPointExtension>
        </extensions>
      </trkpt>
      <trkpt lat="46.61688244901597499847412109375" lon="6.87436516396701335906982421875">
        <ele>727.5999755859375</ele>
        <time>2013-08-15T16:52:17.000Z</time>
        <extensions>
          <ns3:TrackPointExtension>
            <ns3:atemp>18.0</ns3:atemp>
            <ns3:hr>147</ns3:hr>
          </ns3:TrackPointExtension>
        </extensions>
      </trkpt>
      <trkpt lat="46.616904325783252716064453125" lon="6.87439282424747943878173828125">
        <ele>727.79998779296875</ele>
        <time>2013-08-15T16:52:18.000Z</time>
        <extensions>
          <ns3:TrackPointExtension>
            <ns3:atemp>18.0</ns3:atemp>
            <ns3:hr>147</ns3:hr>
          </ns3:TrackPointExtension>
        </extensions>
      </trkpt>
      <trkpt lat="46.6169286333024501800537109375" lon="6.87442316673696041107177734375">
        <ele>728</ele>
        <time>2013-08-15T16:52:19.000Z</time>
        <extensions>
          <ns3:TrackPointExtension>
            <ns3:atemp>18.0</ns3:atemp>
            <ns3:hr>147</ns3:hr>
          </ns3:TrackPointExtension>
        </extensions>
      </trkpt>
      <trkpt lat="46.61695201881229877471923828125" lon="6.87445099465548992156982421875">
        <ele>728.20001220703125</ele>
        <time>2013-08-15T16:52:20.000Z</time>
        <extensions>
          <ns3:TrackPointExtension>
            <ns3:atemp>18.0</ns3:atemp>
            <ns3:hr>147</ns3:hr>
          </ns3:TrackPointExtension>
        </extensions>
      </trkpt>
      <trkpt lat="46.61697682924568653106689453125" lon="6.87447798438370227813720703125">
        <ele>728.20001220703125</ele>
        <time>2013-08-15T16:52:21.000Z</time>
        <extensions>
          <ns3:TrackPointExtension>
            <ns3:atemp>18.0</ns3:atemp>
            <ns3:hr>147</ns3:hr>
          </ns3:TrackPointExtension>
        </extensions>
      </trkpt>
      <trkpt lat="46.61700264550745487213134765625" lon="6.8745085783302783966064453125">
        <ele>728.20001220703125</ele>
        <time>2013-08-15T16:52:22.000Z</time>
        <extensions>
          <ns3:TrackPointExtension>
            <ns3:atemp>18.0</ns3:atemp>
            <ns3:hr>147</ns3:hr>
          </ns3:TrackPointExtension>
        </extensions>
      </trkpt>
      <trkpt lat="46.617027707397937774658203125" lon="6.87453799881041049957275390625">
        <ele>728.20001220703125</ele>
        <time>2013-08-15T16:52:23.000Z</time>
        <extensions>
          <ns3:TrackPointExtension>
            <ns3:atemp>18.0</ns3:atemp>
            <ns3:hr>147</ns3:hr>
          </ns3:TrackPointExtension>
        </extensions>
      </trkpt>
      <trkpt lat="46.6170530207455158233642578125" lon="6.874570436775684356689453125">
        <ele>728.79998779296875</ele>
        <time>2013-08-15T16:52:24.000Z</time>
        <extensions>
          <ns3:TrackPointExtension>
            <ns3:atemp>18.0</ns3:atemp>
            <ns3:hr>147</ns3:hr>
          </ns3:TrackPointExtension>
        </extensions>
      </trkpt>
      <trkpt lat="46.61707506515085697174072265625" lon="6.87460337765514850616455078125">
        <ele>729</ele>
        <time>2013-08-15T16:52:25.000Z</time>
        <extensions>
          <ns3:TrackPointExtension>
            <ns3:atemp>18.0</ns3:atemp>
            <ns3:hr>147</ns3:hr>
          </ns3:TrackPointExtension>
        </extensions>
      </trkpt>
      <trkpt lat="46.61709819920361042022705078125" lon="6.8746386654675006866455078125">
        <ele>729</ele>
        <time>2013-08-15T16:52:26.000Z</time>
        <extensions>
          <ns3:TrackPointExtension>
            <ns3:atemp>18.0</ns3:atemp>
            <ns3:hr>147</ns3:hr>
          </ns3:TrackPointExtension>
        </extensions>
      </trkpt>
      <trkpt lat="46.6171237640082836151123046875" lon="6.87466992996633052825927734375">
        <ele>729</ele>
        <time>2013-08-15T16:52:27.000Z</time>
        <extensions>
          <ns3:TrackPointExtension>
            <ns3:atemp>18.0</ns3:atemp>
            <ns3:hr>147</ns3:hr>
          </ns3:TrackPointExtension>
        </extensions>
      </trkpt>
      <trkpt lat="46.61714815534651279449462890625" lon="6.87469658441841602325439453125">
        <ele>729.20001220703125</ele>
        <time>2013-08-15T16:52:28.000Z</time>
        <extensions>
          <ns3:TrackPointExtension>
            <ns3:atemp>18.0</ns3:atemp>
            <ns3:hr>147</ns3:hr>
          </ns3:TrackPointExtension>
        </extensions>
      </trkpt>
      <trkpt lat="46.61717346869409084320068359375" lon="6.87472508288919925689697265625">
        <ele>729.4000244140625</ele>
        <time>2013-08-15T16:52:29.000Z</time>
        <extensions>
          <ns3:TrackPointExtension>
            <ns3:atemp>18.0</ns3:atemp>
            <ns3:hr>147</ns3:hr>
          </ns3:TrackPointExtension>
        </extensions>
      </trkpt>
      <trkpt lat="46.617197357118129730224609375" lon="6.87475190497934818267822265625">
        <ele>729.4000244140625</ele>
        <time>2013-08-15T16:52:30.000Z</time>
        <extensions>
          <ns3:TrackPointExtension>
            <ns3:atemp>18.0</ns3:atemp>
            <ns3:hr>147</ns3:hr>
          </ns3:TrackPointExtension>
        </extensions>
      </trkpt>
      <trkpt lat="46.6172240115702152252197265625" lon="6.8747784756124019622802734375">
        <ele>729.5999755859375</ele>
        <time>2013-08-15T16:52:31.000Z</time>
        <extensions>
          <ns3:TrackPointExtension>
            <ns3:atemp>18.0</ns3:atemp>
            <ns3:hr>146</ns3:hr>
          </ns3:TrackPointExtension>
        </extensions>
      </trkpt>
      <trkpt lat="46.61724622361361980438232421875" lon="6.87480588443577289581298828125">
        <ele>729.79998779296875</ele>
        <time>2013-08-15T16:52:32.000Z</time>
        <extensions>
          <ns3:TrackPointExtension>
            <ns3:atemp>18.0</ns3:atemp>
            <ns3:hr>146</ns3:hr>
          </ns3:TrackPointExtension>
        </extensions>
      </trkpt>
      <trkpt lat="46.61727120168507099151611328125" lon="6.87483555637300014495849609375">
        <ele>730</ele>
        <time>2013-08-15T16:52:33.000Z</time>
        <extensions>
          <ns3:TrackPointExtension>
            <ns3:atemp>18.0</ns3:atemp>
            <ns3:hr>146</ns3:hr>
          </ns3:TrackPointExtension>
        </extensions>
      </trkpt>
      <trkpt lat="46.6172971017658710479736328125" lon="6.874870844185352325439453125">
        <ele>730.20001220703125</ele>
        <time>2013-08-15T16:52:34.000Z</time>
        <extensions>
          <ns3:TrackPointExtension>
            <ns3:atemp>18.0</ns3:atemp>
            <ns3:hr>146</ns3:hr>
          </ns3:TrackPointExtension>
        </extensions>
      </trkpt>
      <trkpt lat="46.6173175536096096038818359375" lon="6.8749053776264190673828125">
        <ele>730.4000244140625</ele>
        <time>2013-08-15T16:52:35.000Z</time>
        <extensions>
          <ns3:TrackPointExtension>
            <ns3:atemp>18.0</ns3:atemp>
            <ns3:hr>146</ns3:hr>
          </ns3:TrackPointExtension>
        </extensions>
      </trkpt>
      <trkpt lat="46.61732702516019344329833984375" lon="6.87494091689586639404296875">
        <ele>730.5999755859375</ele>
        <time>2013-08-15T16:52:36.000Z</time>
        <extensions>
          <ns3:TrackPointExtension>
            <ns3:atemp>18.0</ns3:atemp>
            <ns3:hr>146</ns3:hr>
          </ns3:TrackPointExtension>
        </extensions>
      </trkpt>
      <trkpt lat="46.6173339821398258209228515625" lon="6.8749695830047130584716796875">
        <ele>730.79998779296875</ele>
        <time>2013-08-15T16:52:37.000Z</time>
        <extensions>
          <ns3:TrackPointExtension>
            <ns3:atemp>18.0</ns3:atemp>
            <ns3:hr>146</ns3:hr>
          </ns3:TrackPointExtension>
        </extensions>
      </trkpt>
      <trkpt lat="46.6173400171101093292236328125" lon="6.87498986721038818359375">
        <ele>731.20001220703125</ele>
        <time>2013-08-15T16:52:38.000Z</time>
        <extensions>
          <ns3:TrackPointExtension>
            <ns3:atemp>18.0</ns3:atemp>
            <ns3:hr>146</ns3:hr>
          </ns3:TrackPointExtension>
        </extensions>
      </trkpt>
      <trkpt lat="46.61733540706336498260498046875" lon="6.8749726004898548126220703125">
        <ele>731.4000244140625</ele>
        <time>2013-08-15T16:52:39.000Z</time>
        <extensions>
          <ns3:TrackPointExtension>
            <ns3:atemp>18.0</ns3:atemp>
            <ns3:hr>146</ns3:hr>
          </ns3:TrackPointExtension>
        </extensions>
      </trkpt>
      <trkpt lat="46.61733691580593585968017578125" lon="6.874994896352291107177734375">
        <ele>731.79998779296875</ele>
        <time>2013-08-15T16:52:40.000Z</time>
        <extensions>
          <ns3:TrackPointExtension>
            <ns3:atemp>18.0</ns3:atemp>
            <ns3:hr>145</ns3:hr>
          </ns3:TrackPointExtension>
        </extensions>
      </trkpt>
      <trkpt lat="46.6173245944082736968994140625" lon="6.8750037811696529388427734375">
        <ele>732</ele>
        <time>2013-08-15T16:52:41.000Z</time>
        <extensions>
          <ns3:TrackPointExtension>
            <ns3:atemp>18.0</ns3:atemp>
            <ns3:hr>146</ns3:hr>
          </ns3:TrackPointExtension>
        </extensions>
      </trkpt>
      <trkpt lat="46.61731101572513580322265625" lon="6.87500470317900180816650390625">
        <ele>732.4000244140625</ele>
        <time>2013-08-15T16:52:42.000Z</time>
        <extensions>
          <ns3:TrackPointExtension>
            <ns3:atemp>18.0</ns3:atemp>
            <ns3:hr>145</ns3:hr>
          </ns3:TrackPointExtension>
        </extensions>
      </trkpt>
      <trkpt lat="46.6172954253852367401123046875" lon="6.87500688247382640838623046875">
        <ele>732.5999755859375</ele>
        <time>2013-08-15T16:52:43.000Z</time>
        <extensions>
          <ns3:TrackPointExtension>
            <ns3:atemp>18.0</ns3:atemp>
            <ns3:hr>145</ns3:hr>
          </ns3:TrackPointExtension>
        </extensions>
      </trkpt>
      <trkpt lat="46.6172773204743862152099609375" lon="6.87501442618668079376220703125">
        <ele>732.79998779296875</ele>
        <time>2013-08-15T16:52:44.000Z</time>
        <extensions>
          <ns3:TrackPointExtension>
            <ns3:atemp>18.0</ns3:atemp>
            <ns3:hr>145</ns3:hr>
          </ns3:TrackPointExtension>
        </extensions>
      </trkpt>
      <trkpt lat="46.6172575391829013824462890625" lon="6.87502012588083744049072265625">
        <ele>733</ele>
        <time>2013-08-15T16:52:45.000Z</time>
        <extensions>
          <ns3:TrackPointExtension>
            <ns3:atemp>18.0</ns3:atemp>
            <ns3:hr>146</ns3:hr>
          </ns3:TrackPointExtension>
        </extensions>
      </trkpt>
      <trkpt lat="46.6172390989959239959716796875" lon="6.87502138316631317138671875">
        <ele>733</ele>
        <time>2013-08-15T16:52:46.000Z</time>
        <extensions>
          <ns3:TrackPointExtension>
            <ns3:atemp>18.0</ns3:atemp>
            <ns3:hr>146</ns3:hr>
          </ns3:TrackPointExtension>
        </extensions>
      </trkpt>
      <trkpt lat="46.61722208373248577117919921875" lon="6.87502406537532806396484375">
        <ele>733.4000244140625</ele>
        <time>2013-08-15T16:52:47.000Z</time>
        <extensions>
          <ns3:TrackPointExtension>
            <ns3:atemp>18.0</ns3:atemp>
            <ns3:hr>146</ns3:hr>
          </ns3:TrackPointExtension>
        </extensions>
      </trkpt>
      <trkpt lat="46.6172049008309841156005859375" lon="6.8750275857746601104736328125">
        <ele>733.5999755859375</ele>
        <time>2013-08-15T16:52:48.000Z</time>
        <extensions>
          <ns3:TrackPointExtension>
            <ns3:atemp>18.0</ns3:atemp>
            <ns3:hr>146</ns3:hr>
          </ns3:TrackPointExtension>
        </extensions>
      </trkpt>
      <trkpt lat="46.6171814315021038055419921875" lon="6.87502800486981868743896484375">
        <ele>734</ele>
        <time>2013-08-15T16:52:49.000Z</time>
        <extensions>
          <ns3:TrackPointExtension>
            <ns3:atemp>18.0</ns3:atemp>
            <ns3:hr>146</ns3:hr>
          </ns3:TrackPointExtension>
        </extensions>
      </trkpt>
      <trkpt lat="46.61716072820127010345458984375" lon="6.8750259093940258026123046875">
        <ele>734.4000244140625</ele>
        <time>2013-08-15T16:52:50.000Z</time>
        <extensions>
          <ns3:TrackPointExtension>
            <ns3:atemp>18.0</ns3:atemp>
            <ns3:hr>146</ns3:hr>
          </ns3:TrackPointExtension>
        </extensions>
      </trkpt>
      <trkpt lat="46.61713801324367523193359375" lon="6.8750238977372646331787109375">
        <ele>734.79998779296875</ele>
        <time>2013-08-15T16:52:51.000Z</time>
        <extensions>
          <ns3:TrackPointExtension>
            <ns3:atemp>18.0</ns3:atemp>
            <ns3:hr>147</ns3:hr>
          </ns3:TrackPointExtension>
        </extensions>
      </trkpt>
      <trkpt lat="46.61711965687572956085205078125" lon="6.87501844950020313262939453125">
        <ele>735</ele>
        <time>2013-08-15T16:52:52.000Z</time>
        <extensions>
          <ns3:TrackPointExtension>
            <ns3:atemp>18.0</ns3:atemp>
            <ns3:hr>147</ns3:hr>
          </ns3:TrackPointExtension>
        </extensions>
      </trkpt>
      <trkpt lat="46.6171009652316570281982421875" lon="6.87501492910087108612060546875">
        <ele>735.20001220703125</ele>
        <time>2013-08-15T16:52:53.000Z</time>
        <extensions>
          <ns3:TrackPointExtension>
            <ns3:atemp>18.0</ns3:atemp>
            <ns3:hr>147</ns3:hr>
          </ns3:TrackPointExtension>
        </extensions>
      </trkpt>
      <trkpt lat="46.617085039615631103515625" lon="6.87501895241439342498779296875">
        <ele>735.5999755859375</ele>
        <time>2013-08-15T16:52:54.000Z</time>
        <extensions>
          <ns3:TrackPointExtension>
            <ns3:atemp>18.0</ns3:atemp>
            <ns3:hr>147</ns3:hr>
          </ns3:TrackPointExtension>
        </extensions>
      </trkpt>
      <trkpt lat="46.61707364022731781005859375" lon="6.87501861713826656341552734375">
        <ele>736</ele>
        <time>2013-08-15T16:52:55.000Z</time>
        <extensions>
          <ns3:TrackPointExtension>
            <ns3:atemp>18.0</ns3:atemp>
            <ns3:hr>148</ns3:hr>
          </ns3:TrackPointExtension>
        </extensions>
      </trkpt>
      <trkpt lat="46.617057882249355316162109375" lon="6.87501794658601284027099609375">
        <ele>736.20001220703125</ele>
        <time>2013-08-15T16:52:56.000Z</time>
        <extensions>
          <ns3:TrackPointExtension>
            <ns3:atemp>18.0</ns3:atemp>
            <ns3:hr>148</ns3:hr>
          </ns3:TrackPointExtension>
        </extensions>
      </trkpt>
      <trkpt lat="46.6170399449765682220458984375" lon="6.8750178627669811248779296875">
        <ele>736.4000244140625</ele>
        <time>2013-08-15T16:52:57.000Z</time>
        <extensions>
          <ns3:TrackPointExtension>
            <ns3:atemp>18.0</ns3:atemp>
            <ns3:hr>148</ns3:hr>
          </ns3:TrackPointExtension>
        </extensions>
      </trkpt>
      <trkpt lat="46.6170268692076206207275390625" lon="6.87501627020537853240966796875">
        <ele>736.5999755859375</ele>
        <time>2013-08-15T16:52:58.000Z</time>
        <extensions>
          <ns3:TrackPointExtension>
            <ns3:atemp>18.0</ns3:atemp>
            <ns3:hr>149</ns3:hr>
          </ns3:TrackPointExtension>
        </extensions>
      </trkpt>
      <trkpt lat="46.617035083472728729248046875" lon="6.87501870095729827880859375">
        <ele>736.79998779296875</ele>
        <time>2013-08-15T16:52:59.000Z</time>
        <extensions>
          <ns3:TrackPointExtension>
            <ns3:atemp>18.0</ns3:atemp>
            <ns3:hr>148</ns3:hr>
          </ns3:TrackPointExtension>
        </extensions>
      </trkpt>
      <trkpt lat="46.61701597273349761962890625" lon="6.87501174397766590118408203125">
        <ele>737</ele>
        <time>2013-08-15T16:53:00.000Z</time>
        <extensions>
          <ns3:TrackPointExtension>
            <ns3:atemp>18.0</ns3:atemp>
            <ns3:hr>149</ns3:hr>
          </ns3:TrackPointExtension>
        </extensions>
      </trkpt>
      <trkpt lat="46.61700725555419921875" lon="6.875008307397365570068359375">
        <ele>737.4000244140625</ele>
        <time>2013-08-15T16:53:01.000Z</time>
        <extensions>
          <ns3:TrackPointExtension>
            <ns3:atemp>18.0</ns3:atemp>
            <ns3:hr>149</ns3:hr>
          </ns3:TrackPointExtension>
        </extensions>
      </trkpt>
      <trkpt lat="46.6169977001845836639404296875" lon="6.8750061281025409698486328125">
        <ele>737.5999755859375</ele>
        <time>2013-08-15T16:53:02.000Z</time>
        <extensions>
          <ns3:TrackPointExtension>
            <ns3:atemp>18.0</ns3:atemp>
            <ns3:hr>149</ns3:hr>
          </ns3:TrackPointExtension>
        </extensions>
      </trkpt>
      <trkpt lat="46.61698051728308200836181640625" lon="6.8750118277966976165771484375">
        <ele>738</ele>
        <time>2013-08-15T16:53:03.000Z</time>
        <extensions>
          <ns3:TrackPointExtension>
            <ns3:atemp>18.0</ns3:atemp>
            <ns3:hr>149</ns3:hr>
          </ns3:TrackPointExtension>
        </extensions>
      </trkpt>
      <trkpt lat="46.61696559749543666839599609375" lon="6.875013671815395355224609375">
        <ele>738.20001220703125</ele>
        <time>2013-08-15T16:53:04.000Z</time>
        <extensions>
          <ns3:TrackPointExtension>
            <ns3:atemp>18.0</ns3:atemp>
            <ns3:hr>149</ns3:hr>
          </ns3:TrackPointExtension>
        </extensions>
      </trkpt>
      <trkpt lat="46.61695067770779132843017578125" lon="6.8750138394534587860107421875">
        <ele>738.5999755859375</ele>
        <time>2013-08-15T16:53:05.000Z</time>
        <extensions>
          <ns3:TrackPointExtension>
            <ns3:atemp>18.0</ns3:atemp>
            <ns3:hr>149</ns3:hr>
          </ns3:TrackPointExtension>
        </extensions>
      </trkpt>
      <trkpt lat="46.6169361770153045654296875" lon="6.8750165216624736785888671875">
        <ele>739.20001220703125</ele>
        <time>2013-08-15T16:53:06.000Z</time>
        <extensions>
          <ns3:TrackPointExtension>
            <ns3:atemp>18.0</ns3:atemp>
            <ns3:hr>150</ns3:hr>
          </ns3:TrackPointExtension>
        </extensions>
      </trkpt>
      <trkpt lat="46.61692402325570583343505859375" lon="6.875016689300537109375">
        <ele>739.4000244140625</ele>
        <time>2013-08-15T16:53:07.000Z</time>
        <extensions>
          <ns3:TrackPointExtension>
            <ns3:atemp>18.0</ns3:atemp>
            <ns3:hr>150</ns3:hr>
          </ns3:TrackPointExtension>
        </extensions>
      </trkpt>
      <trkpt lat="46.616906337440013885498046875" lon="6.8750175274908542633056640625">
        <ele>740</ele>
        <time>2013-08-15T16:53:08.000Z</time>
        <extensions>
          <ns3:TrackPointExtension>
            <ns3:atemp>18.0</ns3:atemp>
            <ns3:hr>150</ns3:hr>
          </ns3:TrackPointExtension>
        </extensions>
      </trkpt>
      <trkpt lat="46.61691312678158283233642578125" lon="6.87501727603375911712646484375">
        <ele>740.20001220703125</ele>
        <time>2013-08-15T16:53:09.000Z</time>
        <extensions>
          <ns3:TrackPointExtension>
            <ns3:atemp>18.0</ns3:atemp>
            <ns3:hr>150</ns3:hr>
          </ns3:TrackPointExtension>
        </extensions>
      </trkpt>
      <trkpt lat="46.61686803214251995086669921875" lon="6.87501794658601284027099609375">
        <ele>740.4000244140625</ele>
        <time>2013-08-15T16:53:10.000Z</time>
        <extensions>
          <ns3:TrackPointExtension>
            <ns3:atemp>18.0</ns3:atemp>
            <ns3:hr>150</ns3:hr>
          </ns3:TrackPointExtension>
        </extensions>
      </trkpt>
      <trkpt lat="46.61684690974652767181396484375" lon="6.87501643784344196319580078125">
        <ele>740.5999755859375</ele>
        <time>2013-08-15T16:53:11.000Z</time>
        <extensions>
          <ns3:TrackPointExtension>
            <ns3:atemp>18.0</ns3:atemp>
            <ns3:hr>150</ns3:hr>
          </ns3:TrackPointExtension>
        </extensions>
      </trkpt>
      <trkpt lat="46.61682276986539363861083984375" lon="6.8750148452818393707275390625">
        <ele>741</ele>
        <time>2013-08-15T16:53:12.000Z</time>
        <extensions>
          <ns3:TrackPointExtension>
            <ns3:atemp>18.0</ns3:atemp>
            <ns3:hr>150</ns3:hr>
          </ns3:TrackPointExtension>
        </extensions>
      </trkpt>
      <trkpt lat="46.61678991280496120452880859375" lon="6.87501627020537853240966796875">
        <ele>741.20001220703125</ele>
        <time>2013-08-15T16:53:13.000Z</time>
        <extensions>
          <ns3:TrackPointExtension>
            <ns3:atemp>18.0</ns3:atemp>
            <ns3:hr>150</ns3:hr>
          </ns3:TrackPointExtension>
        </extensions>
      </trkpt>
      <trkpt lat="46.6167546249926090240478515625" lon="6.8750114925205707550048828125">
        <ele>741.5999755859375</ele>
        <time>2013-08-15T16:53:14.000Z</time>
        <extensions>
          <ns3:TrackPointExtension>
            <ns3:atemp>18.0</ns3:atemp>
            <ns3:hr>150</ns3:hr>
          </ns3:TrackPointExtension>
        </extensions>
      </trkpt>
      <trkpt lat="46.61672067828476428985595703125" lon="6.8750081397593021392822265625">
        <ele>742</ele>
        <time>2013-08-15T16:53:15.000Z</time>
        <extensions>
          <ns3:TrackPointExtension>
            <ns3:atemp>18.0</ns3:atemp>
            <ns3:hr>151</ns3:hr>
          </ns3:TrackPointExtension>
        </extensions>
      </trkpt>
      <trkpt lat="46.61669067107141017913818359375" lon="6.875001601874828338623046875">
        <ele>742</ele>
        <time>2013-08-15T16:53:16.000Z</time>
        <extensions>
          <ns3:TrackPointExtension>
            <ns3:atemp>18.0</ns3:atemp>
            <ns3:hr>151</ns3:hr>
          </ns3:TrackPointExtension>
        </extensions>
      </trkpt>
      <trkpt lat="46.616659574210643768310546875" lon="6.87500034458935260772705078125">
        <ele>742.4000244140625</ele>
        <time>2013-08-15T16:53:17.000Z</time>
        <extensions>
          <ns3:TrackPointExtension>
            <ns3:atemp>18.0</ns3:atemp>
            <ns3:hr>151</ns3:hr>
          </ns3:TrackPointExtension>
        </extensions>
      </trkpt>
      <trkpt lat="46.61662395112216472625732421875" lon="6.8749870173633098602294921875">
        <ele>742.5999755859375</ele>
        <time>2013-08-15T16:53:18.000Z</time>
        <extensions>
          <ns3:TrackPointExtension>
            <ns3:atemp>18.0</ns3:atemp>
            <ns3:hr>151</ns3:hr>
          </ns3:TrackPointExtension>
        </extensions>
      </trkpt>
      <trkpt lat="46.61658841185271739959716796875" lon="6.87498425133526325225830078125">
        <ele>743</ele>
        <time>2013-08-15T16:53:19.000Z</time>
        <extensions>
          <ns3:TrackPointExtension>
            <ns3:atemp>18.0</ns3:atemp>
            <ns3:hr>151</ns3:hr>
          </ns3:TrackPointExtension>
        </extensions>
      </trkpt>
      <trkpt lat="46.61655421368777751922607421875" lon="6.874980144202709197998046875">
        <ele>743</ele>
        <time>2013-08-15T16:53:20.000Z</time>
        <extensions>
          <ns3:TrackPointExtension>
            <ns3:atemp>18.0</ns3:atemp>
            <ns3:hr>152</ns3:hr>
          </ns3:TrackPointExtension>
        </extensions>
      </trkpt>
      <trkpt lat="46.61652219481766223907470703125" lon="6.874973773956298828125">
        <ele>743.20001220703125</ele>
        <time>2013-08-15T16:53:21.000Z</time>
        <extensions>
          <ns3:TrackPointExtension>
            <ns3:atemp>18.0</ns3:atemp>
            <ns3:hr>151</ns3:hr>
          </ns3:TrackPointExtension>
        </extensions>
      </trkpt>
      <trkpt lat="46.61649285815656185150146484375" lon="6.87496639788150787353515625">
        <ele>743.4000244140625</ele>
        <time>2013-08-15T16:53:22.000Z</time>
        <extensions>
          <ns3:TrackPointExtension>
            <ns3:atemp>18.0</ns3:atemp>
            <ns3:hr>151</ns3:hr>
          </ns3:TrackPointExtension>
        </extensions>
      </trkpt>
      <trkpt lat="46.6164646111428737640380859375" lon="6.87496061436831951141357421875">
        <ele>743.5999755859375</ele>
        <time>2013-08-15T16:53:23.000Z</time>
        <extensions>
          <ns3:TrackPointExtension>
            <ns3:atemp>18.0</ns3:atemp>
            <ns3:hr>152</ns3:hr>
          </ns3:TrackPointExtension>
        </extensions>
      </trkpt>
      <trkpt lat="46.6164394654333591461181640625" lon="6.87495927326381206512451171875">
        <ele>743.79998779296875</ele>
        <time>2013-08-15T16:53:24.000Z</time>
        <extensions>
          <ns3:TrackPointExtension>
            <ns3:atemp>18.0</ns3:atemp>
            <ns3:hr>151</ns3:hr>
          </ns3:TrackPointExtension>
        </extensions>
      </trkpt>
      <trkpt lat="46.61640937440097332000732421875" lon="6.87495910562574863433837890625">
        <ele>744</ele>
        <time>2013-08-15T16:53:25.000Z</time>
        <extensions>
          <ns3:TrackPointExtension>
            <ns3:atemp>18.0</ns3:atemp>
            <ns3:hr>151</ns3:hr>
          </ns3:TrackPointExtension>
        </extensions>
      </trkpt>
      <trkpt lat="46.61638406105339527130126953125" lon="6.87495558522641658782958984375">
        <ele>744.20001220703125</ele>
        <time>2013-08-15T16:53:26.000Z</time>
        <extensions>
          <ns3:TrackPointExtension>
            <ns3:atemp>18.0</ns3:atemp>
            <ns3:hr>151</ns3:hr>
          </ns3:TrackPointExtension>
        </extensions>
      </trkpt>
      <trkpt lat="46.6163579933345317840576171875" lon="6.87495474703609943389892578125">
        <ele>744.20001220703125</ele>
        <time>2013-08-15T16:53:27.000Z</time>
        <extensions>
          <ns3:TrackPointExtension>
            <ns3:atemp>18.0</ns3:atemp>
            <ns3:hr>151</ns3:hr>
          </ns3:TrackPointExtension>
        </extensions>
      </trkpt>
      <trkpt lat="46.61633695475757122039794921875" lon="6.8749451078474521636962890625">
        <ele>744.5999755859375</ele>
        <time>2013-08-15T16:53:28.000Z</time>
        <extensions>
          <ns3:TrackPointExtension>
            <ns3:atemp>18.0</ns3:atemp>
            <ns3:hr>152</ns3:hr>
          </ns3:TrackPointExtension>
        </extensions>
      </trkpt>
      <trkpt lat="46.61631993949413299560546875" lon="6.8749387376010417938232421875">
        <ele>744.79998779296875</ele>
        <time>2013-08-15T16:53:29.000Z</time>
        <extensions>
          <ns3:TrackPointExtension>
            <ns3:atemp>18.0</ns3:atemp>
            <ns3:hr>151</ns3:hr>
          </ns3:TrackPointExtension>
        </extensions>
      </trkpt>
      <trkpt lat="46.61630309186875820159912109375" lon="6.874933540821075439453125">
        <ele>744.79998779296875</ele>
        <time>2013-08-15T16:53:30.000Z</time>
        <extensions>
          <ns3:TrackPointExtension>
            <ns3:atemp>18.0</ns3:atemp>
            <ns3:hr>151</ns3:hr>
          </ns3:TrackPointExtension>
        </extensions>
      </trkpt>
      <trkpt lat="46.61628632806241512298583984375" lon="6.8749249912798404693603515625">
        <ele>744.79998779296875</ele>
        <time>2013-08-15T16:53:31.000Z</time>
        <extensions>
          <ns3:TrackPointExtension>
            <ns3:atemp>18.0</ns3:atemp>
            <ns3:hr>151</ns3:hr>
          </ns3:TrackPointExtension>
        </extensions>
      </trkpt>
      <trkpt lat="46.61627073772251605987548828125" lon="6.87491652555763721466064453125">
        <ele>745</ele>
        <time>2013-08-15T16:53:32.000Z</time>
        <extensions>
          <ns3:TrackPointExtension>
            <ns3:atemp>18.0</ns3:atemp>
            <ns3:hr>150</ns3:hr>
          </ns3:TrackPointExtension>
        </extensions>
      </trkpt>
      <trkpt lat="46.6162523813545703887939453125" lon="6.874913088977336883544921875">
        <ele>745.20001220703125</ele>
        <time>2013-08-15T16:53:33.000Z</time>
        <extensions>
          <ns3:TrackPointExtension>
            <ns3:atemp>18.0</ns3:atemp>
            <ns3:hr>150</ns3:hr>
          </ns3:TrackPointExtension>
        </extensions>
      </trkpt>
      <trkpt lat="46.61623771302402019500732421875" lon="6.8749105744063854217529296875">
        <ele>745.5999755859375</ele>
        <time>2013-08-15T16:53:34.000Z</time>
        <extensions>
          <ns3:TrackPointExtension>
            <ns3:atemp>18.0</ns3:atemp>
            <ns3:hr>150</ns3:hr>
          </ns3:TrackPointExtension>
        </extensions>
      </trkpt>
      <trkpt lat="46.6162208653986454010009765625" lon="6.87490311451256275177001953125">
        <ele>746</ele>
        <time>2013-08-15T16:53:35.000Z</time>
        <extensions>
          <ns3:TrackPointExtension>
            <ns3:atemp>18.0</ns3:atemp>
            <ns3:hr>150</ns3:hr>
          </ns3:TrackPointExtension>
        </extensions>
      </trkpt>
      <trkpt lat="46.61620787344872951507568359375" lon="6.87489221803843975067138671875">
        <ele>746.4000244140625</ele>
        <time>2013-08-15T16:53:36.000Z</time>
        <extensions>
          <ns3:TrackPointExtension>
            <ns3:atemp>18.0</ns3:atemp>
            <ns3:hr>151</ns3:hr>
          </ns3:TrackPointExtension>
        </extensions>
      </trkpt>
      <trkpt lat="46.6161890141665935516357421875" lon="6.8748837523162364959716796875">
        <ele>746.79998779296875</ele>
        <time>2013-08-15T16:53:37.000Z</time>
        <extensions>
          <ns3:TrackPointExtension>
            <ns3:atemp>18.0</ns3:atemp>
            <ns3:hr>150</ns3:hr>
          </ns3:TrackPointExtension>
        </extensions>
      </trkpt>
      <trkpt lat="46.61617082543671131134033203125" lon="6.87487361021339893341064453125">
        <ele>747.20001220703125</ele>
        <time>2013-08-15T16:53:38.000Z</time>
        <extensions>
          <ns3:TrackPointExtension>
            <ns3:atemp>18.0</ns3:atemp>
            <ns3:hr>150</ns3:hr>
          </ns3:TrackPointExtension>
        </extensions>
      </trkpt>
      <trkpt lat="46.61614961922168731689453125" lon="6.8748651444911956787109375">
        <ele>747.20001220703125</ele>
        <time>2013-08-15T16:53:39.000Z</time>
        <extensions>
          <ns3:TrackPointExtension>
            <ns3:atemp>18.0</ns3:atemp>
            <ns3:hr>150</ns3:hr>
          </ns3:TrackPointExtension>
        </extensions>
      </trkpt>
      <trkpt lat="46.61612338386476039886474609375" lon="6.87486313283443450927734375">
        <ele>747.5999755859375</ele>
        <time>2013-08-15T16:53:40.000Z</time>
        <extensions>
          <ns3:TrackPointExtension>
            <ns3:atemp>18.0</ns3:atemp>
            <ns3:hr>150</ns3:hr>
          </ns3:TrackPointExtension>
        </extensions>
      </trkpt>
      <trkpt lat="46.616096980869770050048828125" lon="6.87486045062541961669921875">
        <ele>747.79998779296875</ele>
        <time>2013-08-15T16:53:41.000Z</time>
        <extensions>
          <ns3:TrackPointExtension>
            <ns3:atemp>18.0</ns3:atemp>
            <ns3:hr>150</ns3:hr>
          </ns3:TrackPointExtension>
        </extensions>
      </trkpt>
      <trkpt lat="46.61607242189347743988037109375" lon="6.8748565949499607086181640625">
        <ele>748</ele>
        <time>2013-08-15T16:53:42.000Z</time>
        <extensions>
          <ns3:TrackPointExtension>
            <ns3:atemp>18.0</ns3:atemp>
            <ns3:hr>150</ns3:hr>
          </ns3:TrackPointExtension>
        </extensions>
      </trkpt>
      <trkpt lat="46.61605699919164180755615234375" lon="6.87485969625413417816162109375">
        <ele>748</ele>
        <time>2013-08-15T16:53:43.000Z</time>
        <extensions>
          <ns3:TrackPointExtension>
            <ns3:atemp>18.0</ns3:atemp>
            <ns3:hr>150</ns3:hr>
          </ns3:TrackPointExtension>
        </extensions>
      </trkpt>
      <trkpt lat="46.61604023538529872894287109375" lon="6.8748597800731658935546875">
        <ele>748.20001220703125</ele>
        <time>2013-08-15T16:53:44.000Z</time>
        <extensions>
          <ns3:TrackPointExtension>
            <ns3:atemp>18.0</ns3:atemp>
            <ns3:hr>151</ns3:hr>
          </ns3:TrackPointExtension>
        </extensions>
      </trkpt>
      <trkpt lat="46.61602213047444820404052734375" lon="6.87485315836966037750244140625">
        <ele>748.4000244140625</ele>
        <time>2013-08-15T16:53:45.000Z</time>
        <extensions>
          <ns3:TrackPointExtension>
            <ns3:atemp>18.0</ns3:atemp>
            <ns3:hr>150</ns3:hr>
          </ns3:TrackPointExtension>
        </extensions>
      </trkpt>
      <trkpt lat="46.61600201390683650970458984375" lon="6.8748438544571399688720703125">
        <ele>748.5999755859375</ele>
        <time>2013-08-15T16:53:46.000Z</time>
        <extensions>
          <ns3:TrackPointExtension>
            <ns3:atemp>18.0</ns3:atemp>
            <ns3:hr>151</ns3:hr>
          </ns3:TrackPointExtension>
        </extensions>
      </trkpt>
      <trkpt lat="46.61598659120500087738037109375" lon="6.8748431839048862457275390625">
        <ele>748.5999755859375</ele>
        <time>2013-08-15T16:53:47.000Z</time>
        <extensions>
          <ns3:TrackPointExtension>
            <ns3:atemp>18.0</ns3:atemp>
            <ns3:hr>150</ns3:hr>
          </ns3:TrackPointExtension>
        </extensions>
      </trkpt>
      <trkpt lat="46.61597267724573612213134765625" lon="6.874836646020412445068359375">
        <ele>748.5999755859375</ele>
        <time>2013-08-15T16:53:48.000Z</time>
        <extensions>
          <ns3:TrackPointExtension>
            <ns3:atemp>18.0</ns3:atemp>
            <ns3:hr>150</ns3:hr>
          </ns3:TrackPointExtension>
        </extensions>
      </trkpt>
      <trkpt lat="46.6159556619822978973388671875" lon="6.874824576079845428466796875">
        <ele>748.79998779296875</ele>
        <time>2013-08-15T16:53:49.000Z</time>
        <extensions>
          <ns3:TrackPointExtension>
            <ns3:atemp>18.0</ns3:atemp>
            <ns3:hr>150</ns3:hr>
          </ns3:TrackPointExtension>
        </extensions>
      </trkpt>
      <trkpt lat="46.61593797616660594940185546875" lon="6.87481753528118133544921875">
        <ele>749</ele>
        <time>2013-08-15T16:53:50.000Z</time>
        <extensions>
          <ns3:TrackPointExtension>
            <ns3:atemp>18.0</ns3:atemp>
            <ns3:hr>150</ns3:hr>
          </ns3:TrackPointExtension>
        </extensions>
      </trkpt>
      <trkpt lat="46.6158927977085113525390625" lon="6.8747945688664913177490234375">
        <ele>749.20001220703125</ele>
        <time>2013-08-15T16:53:51.000Z</time>
        <extensions>
          <ns3:TrackPointExtension>
            <ns3:atemp>18.0</ns3:atemp>
            <ns3:hr>151</ns3:hr>
          </ns3:TrackPointExtension>
        </extensions>
      </trkpt>
      <trkpt lat="46.615854240953922271728515625" lon="6.87478132545948028564453125">
        <ele>749.4000244140625</ele>
        <time>2013-08-15T16:53:52.000Z</time>
        <extensions>
          <ns3:TrackPointExtension>
            <ns3:atemp>18.0</ns3:atemp>
            <ns3:hr>150</ns3:hr>
          </ns3:TrackPointExtension>
        </extensions>
      </trkpt>
      <trkpt lat="46.61582482047379016876220703125" lon="6.8747704289853572845458984375">
        <ele>749.5999755859375</ele>
        <time>2013-08-15T16:53:53.000Z</time>
        <extensions>
          <ns3:TrackPointExtension>
            <ns3:atemp>18.0</ns3:atemp>
            <ns3:hr>150</ns3:hr>
          </ns3:TrackPointExtension>
        </extensions>
      </trkpt>
      <trkpt lat="46.615797579288482666015625" lon="6.87475861050188541412353515625">
        <ele>749.79998779296875</ele>
        <time>2013-08-15T16:53:54.000Z</time>
        <extensions>
          <ns3:TrackPointExtension>
            <ns3:atemp>18.0</ns3:atemp>
            <ns3:hr>151</ns3:hr>
          </ns3:TrackPointExtension>
        </extensions>
      </trkpt>
      <trkpt lat="46.61577151156961917877197265625" lon="6.87474117614328861236572265625">
        <ele>750</ele>
        <time>2013-08-15T16:53:55.000Z</time>
        <extensions>
          <ns3:TrackPointExtension>
            <ns3:atemp>17.0</ns3:atemp>
            <ns3:hr>150</ns3:hr>
          </ns3:TrackPointExtension>
        </extensions>
      </trkpt>
      <trkpt lat="46.615744270384311676025390625" lon="6.87472793273627758026123046875">
        <ele>750</ele>
        <time>2013-08-15T16:53:56.000Z</time>
        <extensions>
          <ns3:TrackPointExtension>
            <ns3:atemp>17.0</ns3:atemp>
            <ns3:hr>150</ns3:hr>
          </ns3:TrackPointExtension>
        </extensions>
      </trkpt>
      <trkpt lat="46.61571602337062358856201171875" lon="6.87471561133861541748046875">
        <ele>750.20001220703125</ele>
        <time>2013-08-15T16:53:57.000Z</time>
        <extensions>
          <ns3:TrackPointExtension>
            <ns3:atemp>17.0</ns3:atemp>
            <ns3:hr>150</ns3:hr>
          </ns3:TrackPointExtension>
        </extensions>
      </trkpt>
      <trkpt lat="46.61568853072822093963623046875" lon="6.87470647506415843963623046875">
        <ele>750.4000244140625</ele>
        <time>2013-08-15T16:53:58.000Z</time>
        <extensions>
          <ns3:TrackPointExtension>
            <ns3:atemp>17.0</ns3:atemp>
            <ns3:hr>150</ns3:hr>
          </ns3:TrackPointExtension>
        </extensions>
      </trkpt>
      <trkpt lat="46.61566078662872314453125" lon="6.8746933154761791229248046875">
        <ele>750.5999755859375</ele>
        <time>2013-08-15T16:53:59.000Z</time>
        <extensions>
          <ns3:TrackPointExtension>
            <ns3:atemp>17.0</ns3:atemp>
            <ns3:hr>150</ns3:hr>
          </ns3:TrackPointExtension>
        </extensions>
      </trkpt>
      <trkpt lat="46.61562449298799037933349609375" lon="6.874679066240787506103515625">
        <ele>750.79998779296875</ele>
        <time>2013-08-15T16:54:00.000Z</time>
        <extensions>
          <ns3:TrackPointExtension>
            <ns3:atemp>17.0</ns3:atemp>
            <ns3:hr>150</ns3:hr>
          </ns3:TrackPointExtension>
        </extensions>
      </trkpt>
      <trkpt lat="46.6155922226607799530029296875" lon="6.87466674484312534332275390625">
        <ele>751</ele>
        <time>2013-08-15T16:54:01.000Z</time>
        <extensions>
          <ns3:TrackPointExtension>
            <ns3:atemp>17.0</ns3:atemp>
            <ns3:hr>150</ns3:hr>
          </ns3:TrackPointExtension>
        </extensions>
      </trkpt>
      <trkpt lat="46.61556531675159931182861328125" lon="6.8746524117887020111083984375">
        <ele>751.4000244140625</ele>
        <time>2013-08-15T16:54:02.000Z</time>
        <extensions>
          <ns3:TrackPointExtension>
            <ns3:atemp>17.0</ns3:atemp>
            <ns3:hr>150</ns3:hr>
          </ns3:TrackPointExtension>
        </extensions>
      </trkpt>
      <trkpt lat="46.6155405901372432708740234375" lon="6.874638497829437255859375">
        <ele>751.4000244140625</ele>
        <time>2013-08-15T16:54:03.000Z</time>
        <extensions>
          <ns3:TrackPointExtension>
            <ns3:atemp>17.0</ns3:atemp>
            <ns3:hr>149</ns3:hr>
          </ns3:TrackPointExtension>
        </extensions>
      </trkpt>
      <trkpt lat="46.61551603116095066070556640625" lon="6.87462508678436279296875">
        <ele>751.4000244140625</ele>
        <time>2013-08-15T16:54:04.000Z</time>
        <extensions>
          <ns3:TrackPointExtension>
            <ns3:atemp>17.0</ns3:atemp>
            <ns3:hr>150</ns3:hr>
          </ns3:TrackPointExtension>
        </extensions>
      </trkpt>
      <trkpt lat="46.6154933162033557891845703125" lon="6.87461963854730129241943359375">
        <ele>751.5999755859375</ele>
        <time>2013-08-15T16:54:05.000Z</time>
        <extensions>
          <ns3:TrackPointExtension>
            <ns3:atemp>17.0</ns3:atemp>
            <ns3:hr>149</ns3:hr>
          </ns3:TrackPointExtension>
        </extensions>
      </trkpt>
      <trkpt lat="46.61547194235026836395263671875" lon="6.87461377121508121490478515625">
        <ele>751.5999755859375</ele>
        <time>2013-08-15T16:54:06.000Z</time>
        <extensions>
          <ns3:TrackPointExtension>
            <ns3:atemp>17.0</ns3:atemp>
            <ns3:hr>149</ns3:hr>
          </ns3:TrackPointExtension>
        </extensions>
      </trkpt>
      <trkpt lat="46.61544646136462688446044921875" lon="6.87460337765514850616455078125">
        <ele>751.79998779296875</ele>
        <time>2013-08-15T16:54:07.000Z</time>
        <extensions>
          <ns3:TrackPointExtension>
            <ns3:atemp>17.0</ns3:atemp>
            <ns3:hr>149</ns3:hr>
          </ns3:TrackPointExtension>
        </extensions>
      </trkpt>
      <trkpt lat="46.61541645415127277374267578125" lon="6.87459298409521579742431640625">
        <ele>752</ele>
        <time>2013-08-15T16:54:08.000Z</time>
        <extensions>
          <ns3:TrackPointExtension>
            <ns3:atemp>17.0</ns3:atemp>
            <ns3:hr>149</ns3:hr>
          </ns3:TrackPointExtension>
        </extensions>
      </trkpt>
      <trkpt lat="46.61538259126245975494384765625" lon="6.87458954751491546630859375">
        <ele>752</ele>
        <time>2013-08-15T16:54:09.000Z</time>
        <extensions>
          <ns3:TrackPointExtension>
            <ns3:atemp>17.0</ns3:atemp>
            <ns3:hr>149</ns3:hr>
          </ns3:TrackPointExtension>
        </extensions>
      </trkpt>
      <trkpt lat="46.61535074003040790557861328125" lon="6.87458108179271221160888671875">
        <ele>752</ele>
        <time>2013-08-15T16:54:10.000Z</time>
        <extensions>
          <ns3:TrackPointExtension>
            <ns3:atemp>17.0</ns3:atemp>
            <ns3:hr>148</ns3:hr>
          </ns3:TrackPointExtension>
        </extensions>
      </trkpt>
      <trkpt lat="46.6153186373412609100341796875" lon="6.87457320280373096466064453125">
        <ele>752</ele>
        <time>2013-08-15T16:54:11.000Z</time>
        <extensions>
          <ns3:TrackPointExtension>
            <ns3:atemp>17.0</ns3:atemp>
            <ns3:hr>148</ns3:hr>
          </ns3:TrackPointExtension>
        </extensions>
      </trkpt>
      <trkpt lat="46.61528251133859157562255859375" lon="6.874559707939624786376953125">
        <ele>752.20001220703125</ele>
        <time>2013-08-15T16:54:12.000Z</time>
        <extensions>
          <ns3:TrackPointExtension>
            <ns3:atemp>17.0</ns3:atemp>
            <ns3:hr>148</ns3:hr>
          </ns3:TrackPointExtension>
        </extensions>
      </trkpt>
      <trkpt lat="46.61524144001305103302001953125" lon="6.8745405972003936767578125">
        <ele>752.20001220703125</ele>
        <time>2013-08-15T16:54:13.000Z</time>
        <extensions>
          <ns3:TrackPointExtension>
            <ns3:atemp>17.0</ns3:atemp>
            <ns3:hr>148</ns3:hr>
          </ns3:TrackPointExtension>
        </extensions>
      </trkpt>
      <trkpt lat="46.6152063198387622833251953125" lon="6.87452442012727260589599609375">
        <ele>752.20001220703125</ele>
        <time>2013-08-15T16:54:14.000Z</time>
        <extensions>
          <ns3:TrackPointExtension>
            <ns3:atemp>17.0</ns3:atemp>
            <ns3:hr>148</ns3:hr>
          </ns3:TrackPointExtension>
        </extensions>
      </trkpt>
      <trkpt lat="46.615172289311885833740234375" lon="6.87450497411191463470458984375">
        <ele>752.20001220703125</ele>
        <time>2013-08-15T16:54:15.000Z</time>
        <extensions>
          <ns3:TrackPointExtension>
            <ns3:atemp>17.0</ns3:atemp>
            <ns3:hr>148</ns3:hr>
          </ns3:TrackPointExtension>
        </extensions>
      </trkpt>
      <trkpt lat="46.61513197235763072967529296875" lon="6.874486617743968963623046875">
        <ele>752.4000244140625</ele>
        <time>2013-08-15T16:54:16.000Z</time>
        <extensions>
          <ns3:TrackPointExtension>
            <ns3:atemp>17.0</ns3:atemp>
            <ns3:hr>147</ns3:hr>
          </ns3:TrackPointExtension>
        </extensions>
      </trkpt>
      <trkpt lat="46.61508754827082157135009765625" lon="6.874467171728610992431640625">
        <ele>752.20001220703125</ele>
        <time>2013-08-15T16:54:17.000Z</time>
        <extensions>
          <ns3:TrackPointExtension>
            <ns3:atemp>17.0</ns3:atemp>
            <ns3:hr>147</ns3:hr>
          </ns3:TrackPointExtension>
        </extensions>
      </trkpt>
      <trkpt lat="46.615044213831424713134765625" lon="6.8744512461125850677490234375">
        <ele>752.20001220703125</ele>
        <time>2013-08-15T16:54:18.000Z</time>
        <extensions>
          <ns3:TrackPointExtension>
            <ns3:atemp>17.0</ns3:atemp>
            <ns3:hr>146</ns3:hr>
          </ns3:TrackPointExtension>
        </extensions>
      </trkpt>
      <trkpt lat="46.61500305868685245513916015625" lon="6.874443031847476959228515625">
        <ele>752.4000244140625</ele>
        <time>2013-08-15T16:54:19.000Z</time>
        <extensions>
          <ns3:TrackPointExtension>
            <ns3:atemp>17.0</ns3:atemp>
            <ns3:hr>146</ns3:hr>
          </ns3:TrackPointExtension>
        </extensions>
      </trkpt>
      <trkpt lat="46.6149625740945339202880859375" lon="6.8744364939630031585693359375">
        <ele>752.79998779296875</ele>
        <time>2013-08-15T16:54:20.000Z</time>
        <extensions>
          <ns3:TrackPointExtension>
            <ns3:atemp>17.0</ns3:atemp>
            <ns3:hr>146</ns3:hr>
          </ns3:TrackPointExtension>
        </extensions>
      </trkpt>
      <trkpt lat="46.61492250859737396240234375" lon="6.87443691305816173553466796875">
        <ele>753</ele>
        <time>2013-08-15T16:54:21.000Z</time>
        <extensions>
          <ns3:TrackPointExtension>
            <ns3:atemp>17.0</ns3:atemp>
            <ns3:hr>145</ns3:hr>
          </ns3:TrackPointExtension>
        </extensions>
      </trkpt>
      <trkpt lat="46.6148908250033855438232421875" lon="6.874444372951984405517578125">
        <ele>753</ele>
        <time>2013-08-15T16:54:22.000Z</time>
        <extensions>
          <ns3:TrackPointExtension>
            <ns3:atemp>17.0</ns3:atemp>
            <ns3:hr>145</ns3:hr>
          </ns3:TrackPointExtension>
        </extensions>
      </trkpt>
      <trkpt lat="46.614858806133270263671875" lon="6.87444931827485561370849609375">
        <ele>753.20001220703125</ele>
        <time>2013-08-15T16:54:23.000Z</time>
        <extensions>
          <ns3:TrackPointExtension>
            <ns3:atemp>17.0</ns3:atemp>
            <ns3:hr>145</ns3:hr>
          </ns3:TrackPointExtension>
        </extensions>
      </trkpt>
      <trkpt lat="46.61483776755630970001220703125" lon="6.87445619143545627593994140625">
        <ele>753.4000244140625</ele>
        <time>2013-08-15T16:54:24.000Z</time>
        <extensions>
          <ns3:TrackPointExtension>
            <ns3:atemp>17.0</ns3:atemp>
            <ns3:hr>145</ns3:hr>
          </ns3:TrackPointExtension>
        </extensions>
      </trkpt>
      <trkpt lat="46.614813543856143951416015625" lon="6.87445652671158313751220703125">
        <ele>753.5999755859375</ele>
        <time>2013-08-15T16:54:25.000Z</time>
        <extensions>
          <ns3:TrackPointExtension>
            <ns3:atemp>17.0</ns3:atemp>
            <ns3:hr>145</ns3:hr>
          </ns3:TrackPointExtension>
        </extensions>
      </trkpt>
      <trkpt lat="46.61479015834629535675048828125" lon="6.8744601309299468994140625">
        <ele>753.79998779296875</ele>
        <time>2013-08-15T16:54:26.000Z</time>
        <extensions>
          <ns3:TrackPointExtension>
            <ns3:atemp>17.0</ns3:atemp>
            <ns3:hr>145</ns3:hr>
          </ns3:TrackPointExtension>
        </extensions>
      </trkpt>
      <trkpt lat="46.61476618610322475433349609375" lon="6.87446306459605693817138671875">
        <ele>754.20001220703125</ele>
        <time>2013-08-15T16:54:27.000Z</time>
        <extensions>
          <ns3:TrackPointExtension>
            <ns3:atemp>17.0</ns3:atemp>
            <ns3:hr>145</ns3:hr>
          </ns3:TrackPointExtension>
        </extensions>
      </trkpt>
      <trkpt lat="46.61473751999437808990478515625" lon="6.87446826137602329254150390625">
        <ele>754.4000244140625</ele>
        <time>2013-08-15T16:54:28.000Z</time>
        <extensions>
          <ns3:TrackPointExtension>
            <ns3:atemp>17.0</ns3:atemp>
            <ns3:hr>144</ns3:hr>
          </ns3:TrackPointExtension>
        </extensions>
      </trkpt>
      <trkpt lat="46.61470952443778514862060546875" lon="6.87447421252727508544921875">
        <ele>754.79998779296875</ele>
        <time>2013-08-15T16:54:29.000Z</time>
        <extensions>
          <ns3:TrackPointExtension>
            <ns3:atemp>17.0</ns3:atemp>
            <ns3:hr>144</ns3:hr>
          </ns3:TrackPointExtension>
        </extensions>
      </trkpt>
      <trkpt lat="46.61468387581408023834228515625" lon="6.87448016367852687835693359375">
        <ele>755</ele>
        <time>2013-08-15T16:54:30.000Z</time>
        <extensions>
          <ns3:TrackPointExtension>
            <ns3:atemp>17.0</ns3:atemp>
            <ns3:hr>145</ns3:hr>
          </ns3:TrackPointExtension>
        </extensions>
      </trkpt>
      <trkpt lat="46.61465906538069248199462890625" lon="6.87448100186884403228759765625">
        <ele>755.20001220703125</ele>
        <time>2013-08-15T16:54:31.000Z</time>
        <extensions>
          <ns3:TrackPointExtension>
            <ns3:atemp>17.0</ns3:atemp>
            <ns3:hr>144</ns3:hr>
          </ns3:TrackPointExtension>
        </extensions>
      </trkpt>
      <trkpt lat="46.61463425494730472564697265625" lon="6.87447932548820972442626953125">
        <ele>755.20001220703125</ele>
        <time>2013-08-15T16:54:32.000Z</time>
        <extensions>
          <ns3:TrackPointExtension>
            <ns3:atemp>17.0</ns3:atemp>
            <ns3:hr>144</ns3:hr>
          </ns3:TrackPointExtension>
        </extensions>
      </trkpt>
      <trkpt lat="46.61461330018937587738037109375" lon="6.874483264982700347900390625">
        <ele>755.20001220703125</ele>
        <time>2013-08-15T16:54:33.000Z</time>
        <extensions>
          <ns3:TrackPointExtension>
            <ns3:atemp>17.0</ns3:atemp>
            <ns3:hr>144</ns3:hr>
          </ns3:TrackPointExtension>
        </extensions>
      </trkpt>
      <trkpt lat="46.61459066905081272125244140625" lon="6.874479241669178009033203125">
        <ele>755.4000244140625</ele>
        <time>2013-08-15T16:54:34.000Z</time>
        <extensions>
          <ns3:TrackPointExtension>
            <ns3:atemp>17.0</ns3:atemp>
            <ns3:hr>144</ns3:hr>
          </ns3:TrackPointExtension>
        </extensions>
      </trkpt>
      <trkpt lat="46.61456451751291751861572265625" lon="6.87447664327919483184814453125">
        <ele>755.5999755859375</ele>
        <time>2013-08-15T16:54:35.000Z</time>
        <extensions>
          <ns3:TrackPointExtension>
            <ns3:atemp>17.0</ns3:atemp>
            <ns3:hr>143</ns3:hr>
          </ns3:TrackPointExtension>
        </extensions>
      </trkpt>
      <trkpt lat="46.61454222165048122406005859375" lon="6.8744770623743534088134765625">
        <ele>755.79998779296875</ele>
        <time>2013-08-15T16:54:36.000Z</time>
        <extensions>
          <ns3:TrackPointExtension>
            <ns3:atemp>17.0</ns3:atemp>
            <ns3:hr>143</ns3:hr>
          </ns3:TrackPointExtension>
        </extensions>
      </trkpt>
      <trkpt lat="46.6145183332264423370361328125" lon="6.8744730390608310699462890625">
        <ele>756.20001220703125</ele>
        <time>2013-08-15T16:54:37.000Z</time>
        <extensions>
          <ns3:TrackPointExtension>
            <ns3:atemp>17.0</ns3:atemp>
            <ns3:hr>144</ns3:hr>
          </ns3:TrackPointExtension>
        </extensions>
      </trkpt>
      <trkpt lat="46.614491678774356842041015625" lon="6.87446725554764270782470703125">
        <ele>756.5999755859375</ele>
        <time>2013-08-15T16:54:38.000Z</time>
        <extensions>
          <ns3:TrackPointExtension>
            <ns3:atemp>17.0</ns3:atemp>
            <ns3:hr>143</ns3:hr>
          </ns3:TrackPointExtension>
        </extensions>
      </trkpt>
      <trkpt lat="46.614470221102237701416015625" lon="6.87446373514831066131591796875">
        <ele>756.79998779296875</ele>
        <time>2013-08-15T16:54:39.000Z</time>
        <extensions>
          <ns3:TrackPointExtension>
            <ns3:atemp>17.0</ns3:atemp>
            <ns3:hr>143</ns3:hr>
          </ns3:TrackPointExtension>
        </extensions>
      </trkpt>
      <trkpt lat="46.614448092877864837646484375" lon="6.87446482479572296142578125">
        <ele>757</ele>
        <time>2013-08-15T16:54:40.000Z</time>
        <extensions>
          <ns3:TrackPointExtension>
            <ns3:atemp>17.0</ns3:atemp>
            <ns3:hr>143</ns3:hr>
          </ns3:TrackPointExtension>
        </extensions>
      </trkpt>
      <trkpt lat="46.614429652690887451171875" lon="6.8744713626801967620849609375">
        <ele>757</ele>
        <time>2013-08-15T16:54:41.000Z</time>
        <extensions>
          <ns3:TrackPointExtension>
            <ns3:atemp>17.0</ns3:atemp>
            <ns3:hr>143</ns3:hr>
          </ns3:TrackPointExtension>
        </extensions>
      </trkpt>
      <trkpt lat="46.61441012285649776458740234375" lon="6.87447412870824337005615234375">
        <ele>757.4000244140625</ele>
        <time>2013-08-15T16:54:42.000Z</time>
        <extensions>
          <ns3:TrackPointExtension>
            <ns3:atemp>17.0</ns3:atemp>
            <ns3:hr>143</ns3:hr>
          </ns3:TrackPointExtension>
        </extensions>
      </trkpt>
      <trkpt lat="46.61439277231693267822265625" lon="6.87447748146951198577880859375">
        <ele>757.5999755859375</ele>
        <time>2013-08-15T16:54:43.000Z</time>
        <extensions>
          <ns3:TrackPointExtension>
            <ns3:atemp>17.0</ns3:atemp>
            <ns3:hr>143</ns3:hr>
          </ns3:TrackPointExtension>
        </extensions>
      </trkpt>
      <trkpt lat="46.61436452530324459075927734375" lon="6.8744727037847042083740234375">
        <ele>757.79998779296875</ele>
        <time>2013-08-15T16:54:44.000Z</time>
        <extensions>
          <ns3:TrackPointExtension>
            <ns3:atemp>17.0</ns3:atemp>
            <ns3:hr>143</ns3:hr>
          </ns3:TrackPointExtension>
        </extensions>
      </trkpt>
      <trkpt lat="46.61433753557503223419189453125" lon="6.8744727037847042083740234375">
        <ele>758</ele>
        <time>2013-08-15T16:54:45.000Z</time>
        <extensions>
          <ns3:TrackPointExtension>
            <ns3:atemp>17.0</ns3:atemp>
            <ns3:hr>144</ns3:hr>
          </ns3:TrackPointExtension>
        </extensions>
      </trkpt>
      <trkpt lat="46.6143151558935642242431640625" lon="6.8744777329266071319580078125">
        <ele>758.4000244140625</ele>
        <time>2013-08-15T16:54:46.000Z</time>
        <extensions>
          <ns3:TrackPointExtension>
            <ns3:atemp>17.0</ns3:atemp>
            <ns3:hr>144</ns3:hr>
          </ns3:TrackPointExtension>
        </extensions>
      </trkpt>
      <trkpt lat="46.61429931409657001495361328125" lon="6.8744869530200958251953125">
        <ele>758.79998779296875</ele>
        <time>2013-08-15T16:54:47.000Z</time>
        <extensions>
          <ns3:TrackPointExtension>
            <ns3:atemp>17.0</ns3:atemp>
            <ns3:hr>144</ns3:hr>
          </ns3:TrackPointExtension>
        </extensions>
      </trkpt>
      <trkpt lat="46.6142869926989078521728515625" lon="6.8744896352291107177734375">
        <ele>758.79998779296875</ele>
        <time>2013-08-15T16:54:48.000Z</time>
        <extensions>
          <ns3:TrackPointExtension>
            <ns3:atemp>17.0</ns3:atemp>
            <ns3:hr>144</ns3:hr>
          </ns3:TrackPointExtension>
        </extensions>
      </trkpt>
      <trkpt lat="46.61427148617804050445556640625" lon="6.8744924850761890411376953125">
        <ele>759.20001220703125</ele>
        <time>2013-08-15T16:54:49.000Z</time>
        <extensions>
          <ns3:TrackPointExtension>
            <ns3:atemp>17.0</ns3:atemp>
            <ns3:hr>144</ns3:hr>
          </ns3:TrackPointExtension>
        </extensions>
      </trkpt>
      <trkpt lat="46.61425841040909290313720703125" lon="6.87449323944747447967529296875">
        <ele>760</ele>
        <time>2013-08-15T16:54:50.000Z</time>
        <extensions>
          <ns3:TrackPointExtension>
            <ns3:atemp>17.0</ns3:atemp>
            <ns3:hr>145</ns3:hr>
          </ns3:TrackPointExtension>
        </extensions>
      </trkpt>
      <trkpt lat="46.614244244992733001708984375" lon="6.8744928203523159027099609375">
        <ele>760.20001220703125</ele>
        <time>2013-08-15T16:54:51.000Z</time>
        <extensions>
          <ns3:TrackPointExtension>
            <ns3:atemp>17.0</ns3:atemp>
            <ns3:hr>145</ns3:hr>
          </ns3:TrackPointExtension>
        </extensions>
      </trkpt>
      <trkpt lat="46.61423075012862682342529296875" lon="6.874493323266506195068359375">
        <ele>760.5999755859375</ele>
        <time>2013-08-15T16:54:52.000Z</time>
        <extensions>
          <ns3:TrackPointExtension>
            <ns3:atemp>17.0</ns3:atemp>
            <ns3:hr>145</ns3:hr>
          </ns3:TrackPointExtension>
        </extensions>
      </trkpt>
      <trkpt lat="46.61422052420675754547119140625" lon="6.87449164688587188720703125">
        <ele>761</ele>
        <time>2013-08-15T16:54:53.000Z</time>
        <extensions>
          <ns3:TrackPointExtension>
            <ns3:atemp>17.0</ns3:atemp>
            <ns3:hr>146</ns3:hr>
          </ns3:TrackPointExtension>
        </extensions>
      </trkpt>
      <trkpt lat="46.6142279841005802154541015625" lon="6.87449407763779163360595703125">
        <ele>761.4000244140625</ele>
        <time>2013-08-15T16:54:54.000Z</time>
        <extensions>
          <ns3:TrackPointExtension>
            <ns3:atemp>17.0</ns3:atemp>
            <ns3:hr>147</ns3:hr>
          </ns3:TrackPointExtension>
        </extensions>
      </trkpt>
      <trkpt lat="46.614210717380046844482421875" lon="6.87449558638036251068115234375">
        <ele>761.5999755859375</ele>
        <time>2013-08-15T16:54:55.000Z</time>
        <extensions>
          <ns3:TrackPointExtension>
            <ns3:atemp>17.0</ns3:atemp>
            <ns3:hr>147</ns3:hr>
          </ns3:TrackPointExtension>
        </extensions>
      </trkpt>
      <trkpt lat="46.61420308984816074371337890625" lon="6.874498017132282257080078125">
        <ele>761.79998779296875</ele>
        <time>2013-08-15T16:54:56.000Z</time>
        <extensions>
          <ns3:TrackPointExtension>
            <ns3:atemp>17.0</ns3:atemp>
            <ns3:hr>148</ns3:hr>
          </ns3:TrackPointExtension>
        </extensions>
      </trkpt>
      <trkpt lat="46.61418733187019824981689453125" lon="6.87450212426483631134033203125">
        <ele>762.20001220703125</ele>
        <time>2013-08-15T16:54:57.000Z</time>
        <extensions>
          <ns3:TrackPointExtension>
            <ns3:atemp>17.0</ns3:atemp>
            <ns3:hr>148</ns3:hr>
          </ns3:TrackPointExtension>
        </extensions>
      </trkpt>
      <trkpt lat="46.6141713224351406097412109375" lon="6.87450430355966091156005859375">
        <ele>762.5999755859375</ele>
        <time>2013-08-15T16:54:58.000Z</time>
        <extensions>
          <ns3:TrackPointExtension>
            <ns3:atemp>17.0</ns3:atemp>
            <ns3:hr>149</ns3:hr>
          </ns3:TrackPointExtension>
        </extensions>
      </trkpt>
      <trkpt lat="46.614155061542987823486328125" lon="6.8745045550167560577392578125">
        <ele>762.79998779296875</ele>
        <time>2013-08-15T16:54:59.000Z</time>
        <extensions>
          <ns3:TrackPointExtension>
            <ns3:atemp>17.0</ns3:atemp>
            <ns3:hr>149</ns3:hr>
          </ns3:TrackPointExtension>
        </extensions>
      </trkpt>
      <trkpt lat="46.61413553170859813690185546875" lon="6.8745084106922149658203125">
        <ele>763.20001220703125</ele>
        <time>2013-08-15T16:55:00.000Z</time>
        <extensions>
          <ns3:TrackPointExtension>
            <ns3:atemp>17.0</ns3:atemp>
            <ns3:hr>150</ns3:hr>
          </ns3:TrackPointExtension>
        </extensions>
      </trkpt>
      <trkpt lat="46.61411759443581104278564453125" lon="6.874507404863834381103515625">
        <ele>763.5999755859375</ele>
        <time>2013-08-15T16:55:01.000Z</time>
        <extensions>
          <ns3:TrackPointExtension>
            <ns3:atemp>17.0</ns3:atemp>
            <ns3:hr>151</ns3:hr>
          </ns3:TrackPointExtension>
        </extensions>
      </trkpt>
      <trkpt lat="46.61410334520041942596435546875" lon="6.8745112605392932891845703125">
        <ele>763.79998779296875</ele>
        <time>2013-08-15T16:55:02.000Z</time>
        <extensions>
          <ns3:TrackPointExtension>
            <ns3:atemp>17.0</ns3:atemp>
            <ns3:hr>151</ns3:hr>
          </ns3:TrackPointExtension>
        </extensions>
      </trkpt>
      <trkpt lat="46.61408892832696437835693359375" lon="6.87451050616800785064697265625">
        <ele>764</ele>
        <time>2013-08-15T16:55:03.000Z</time>
        <extensions>
          <ns3:TrackPointExtension>
            <ns3:atemp>17.0</ns3:atemp>
            <ns3:hr>151</ns3:hr>
          </ns3:TrackPointExtension>
        </extensions>
      </trkpt>
      <trkpt lat="46.6140972264111042022705078125" lon="6.87451251782476902008056640625">
        <ele>764.20001220703125</ele>
        <time>2013-08-15T16:55:04.000Z</time>
        <extensions>
          <ns3:TrackPointExtension>
            <ns3:atemp>17.0</ns3:atemp>
            <ns3:hr>152</ns3:hr>
          </ns3:TrackPointExtension>
        </extensions>
      </trkpt>
      <trkpt lat="46.6140747629106044769287109375" lon="6.8745099194347858428955078125">
        <ele>764.5999755859375</ele>
        <time>2013-08-15T16:55:05.000Z</time>
        <extensions>
          <ns3:TrackPointExtension>
            <ns3:atemp>17.0</ns3:atemp>
            <ns3:hr>152</ns3:hr>
          </ns3:TrackPointExtension>
        </extensions>
      </trkpt>
      <trkpt lat="46.61406529136002063751220703125" lon="6.87450899742543697357177734375">
        <ele>765</ele>
        <time>2013-08-15T16:55:06.000Z</time>
        <extensions>
          <ns3:TrackPointExtension>
            <ns3:atemp>17.0</ns3:atemp>
            <ns3:hr>152</ns3:hr>
          </ns3:TrackPointExtension>
        </extensions>
      </trkpt>
      <trkpt lat="46.61405238322913646697998046875" lon="6.87451084144413471221923828125">
        <ele>765.20001220703125</ele>
        <time>2013-08-15T16:55:07.000Z</time>
        <extensions>
          <ns3:TrackPointExtension>
            <ns3:atemp>17.0</ns3:atemp>
            <ns3:hr>152</ns3:hr>
          </ns3:TrackPointExtension>
        </extensions>
      </trkpt>
      <trkpt lat="46.61403075791895389556884765625" lon="6.87451771460473537445068359375">
        <ele>765.4000244140625</ele>
        <time>2013-08-15T16:55:08.000Z</time>
        <extensions>
          <ns3:TrackPointExtension>
            <ns3:atemp>17.0</ns3:atemp>
            <ns3:hr>153</ns3:hr>
          </ns3:TrackPointExtension>
        </extensions>
      </trkpt>
      <trkpt lat="46.61400963552296161651611328125" lon="6.874523498117923736572265625">
        <ele>765.5999755859375</ele>
        <time>2013-08-15T16:55:09.000Z</time>
        <extensions>
          <ns3:TrackPointExtension>
            <ns3:atemp>17.0</ns3:atemp>
            <ns3:hr>153</ns3:hr>
          </ns3:TrackPointExtension>
        </extensions>
      </trkpt>
      <trkpt lat="46.6139936260879039764404296875" lon="6.8745256774127483367919921875">
        <ele>765.79998779296875</ele>
        <time>2013-08-15T16:55:10.000Z</time>
        <extensions>
          <ns3:TrackPointExtension>
            <ns3:atemp>17.0</ns3:atemp>
            <ns3:hr>153</ns3:hr>
          </ns3:TrackPointExtension>
        </extensions>
      </trkpt>
      <trkpt lat="46.6139723360538482666015625" lon="6.8745260126888751983642578125">
        <ele>766.20001220703125</ele>
        <time>2013-08-15T16:55:11.000Z</time>
        <extensions>
          <ns3:TrackPointExtension>
            <ns3:atemp>17.0</ns3:atemp>
            <ns3:hr>153</ns3:hr>
          </ns3:TrackPointExtension>
        </extensions>
      </trkpt>
      <trkpt lat="46.61395347677171230316162109375" lon="6.87453095801174640655517578125">
        <ele>766.4000244140625</ele>
        <time>2013-08-15T16:55:12.000Z</time>
        <extensions>
          <ns3:TrackPointExtension>
            <ns3:atemp>17.0</ns3:atemp>
            <ns3:hr>153</ns3:hr>
          </ns3:TrackPointExtension>
        </extensions>
      </trkpt>
      <trkpt lat="46.61393369548022747039794921875" lon="6.87454487197101116180419921875">
        <ele>766.79998779296875</ele>
        <time>2013-08-15T16:55:13.000Z</time>
        <extensions>
          <ns3:TrackPointExtension>
            <ns3:atemp>17.0</ns3:atemp>
            <ns3:hr>153</ns3:hr>
          </ns3:TrackPointExtension>
        </extensions>
      </trkpt>
      <trkpt lat="46.61391525529325008392333984375" lon="6.8745486438274383544921875">
        <ele>767.20001220703125</ele>
        <time>2013-08-15T16:55:14.000Z</time>
        <extensions>
          <ns3:TrackPointExtension>
            <ns3:atemp>17.0</ns3:atemp>
            <ns3:hr>153</ns3:hr>
          </ns3:TrackPointExtension>
        </extensions>
      </trkpt>
      <trkpt lat="46.613894887268543243408203125" lon="6.87455040402710437774658203125">
        <ele>767.4000244140625</ele>
        <time>2013-08-15T16:55:15.000Z</time>
        <extensions>
          <ns3:TrackPointExtension>
            <ns3:atemp>17.0</ns3:atemp>
            <ns3:hr>153</ns3:hr>
          </ns3:TrackPointExtension>
        </extensions>
      </trkpt>
      <trkpt lat="46.61387301050126552581787109375" lon="6.87454663217067718505859375">
        <ele>767.5999755859375</ele>
        <time>2013-08-15T16:55:16.000Z</time>
        <extensions>
          <ns3:TrackPointExtension>
            <ns3:atemp>17.0</ns3:atemp>
            <ns3:hr>153</ns3:hr>
          </ns3:TrackPointExtension>
        </extensions>
      </trkpt>
      <trkpt lat="46.6138427518308162689208984375" lon="6.87454252503812313079833984375">
        <ele>767.79998779296875</ele>
        <time>2013-08-15T16:55:17.000Z</time>
        <extensions>
          <ns3:TrackPointExtension>
            <ns3:atemp>17.0</ns3:atemp>
            <ns3:hr>153</ns3:hr>
          </ns3:TrackPointExtension>
        </extensions>
      </trkpt>
      <trkpt lat="46.613816432654857635498046875" lon="6.87454135157167911529541015625">
        <ele>768</ele>
        <time>2013-08-15T16:55:18.000Z</time>
        <extensions>
          <ns3:TrackPointExtension>
            <ns3:atemp>17.0</ns3:atemp>
            <ns3:hr>153</ns3:hr>
          </ns3:TrackPointExtension>
        </extensions>
      </trkpt>
      <trkpt lat="46.61379254423081874847412109375" lon="6.8745379149913787841796875">
        <ele>768.4000244140625</ele>
        <time>2013-08-15T16:55:19.000Z</time>
        <extensions>
          <ns3:TrackPointExtension>
            <ns3:atemp>17.0</ns3:atemp>
            <ns3:hr>153</ns3:hr>
          </ns3:TrackPointExtension>
        </extensions>
      </trkpt>
      <trkpt lat="46.61377024836838245391845703125" lon="6.87453380785882472991943359375">
        <ele>768.5999755859375</ele>
        <time>2013-08-15T16:55:20.000Z</time>
        <extensions>
          <ns3:TrackPointExtension>
            <ns3:atemp>17.0</ns3:atemp>
            <ns3:hr>153</ns3:hr>
          </ns3:TrackPointExtension>
        </extensions>
      </trkpt>
      <trkpt lat="46.6137468628585338592529296875" lon="6.87453011982142925262451171875">
        <ele>769</ele>
        <time>2013-08-15T16:55:21.000Z</time>
        <extensions>
          <ns3:TrackPointExtension>
            <ns3:atemp>17.0</ns3:atemp>
            <ns3:hr>153</ns3:hr>
          </ns3:TrackPointExtension>
        </extensions>
      </trkpt>
      <trkpt lat="46.61372431553900241851806640625" lon="6.8745354004204273223876953125">
        <ele>769.20001220703125</ele>
        <time>2013-08-15T16:55:22.000Z</time>
        <extensions>
          <ns3:TrackPointExtension>
            <ns3:atemp>17.0</ns3:atemp>
            <ns3:hr>153</ns3:hr>
          </ns3:TrackPointExtension>
        </extensions>
      </trkpt>
      <trkpt lat="46.61370855756103992462158203125" lon="6.8745384179055690765380859375">
        <ele>769.4000244140625</ele>
        <time>2013-08-15T16:55:23.000Z</time>
        <extensions>
          <ns3:TrackPointExtension>
            <ns3:atemp>17.0</ns3:atemp>
            <ns3:hr>153</ns3:hr>
          </ns3:TrackPointExtension>
        </extensions>
      </trkpt>
      <trkpt lat="46.61369095556437969207763671875" lon="6.874543614685535430908203125">
        <ele>769.5999755859375</ele>
        <time>2013-08-15T16:55:24.000Z</time>
        <extensions>
          <ns3:TrackPointExtension>
            <ns3:atemp>17.0</ns3:atemp>
            <ns3:hr>153</ns3:hr>
          </ns3:TrackPointExtension>
        </extensions>
      </trkpt>
      <trkpt lat="46.6136985830962657928466796875" lon="6.87453992664813995361328125">
        <ele>769.79998779296875</ele>
        <time>2013-08-15T16:55:25.000Z</time>
        <extensions>
          <ns3:TrackPointExtension>
            <ns3:atemp>17.0</ns3:atemp>
            <ns3:hr>153</ns3:hr>
          </ns3:TrackPointExtension>
        </extensions>
      </trkpt>
      <trkpt lat="46.61366899497807025909423828125" lon="6.87454487197101116180419921875">
        <ele>770</ele>
        <time>2013-08-15T16:55:26.000Z</time>
        <extensions>
          <ns3:TrackPointExtension>
            <ns3:atemp>17.0</ns3:atemp>
            <ns3:hr>154</ns3:hr>
          </ns3:TrackPointExtension>
        </extensions>
      </trkpt>
      <trkpt lat="46.6136409156024456024169921875" lon="6.87454788945615291595458984375">
        <ele>770.20001220703125</ele>
        <time>2013-08-15T16:55:27.000Z</time>
        <extensions>
          <ns3:TrackPointExtension>
            <ns3:atemp>17.0</ns3:atemp>
            <ns3:hr>153</ns3:hr>
          </ns3:TrackPointExtension>
        </extensions>
      </trkpt>
      <trkpt lat="46.6136130876839160919189453125" lon="6.8745508231222629547119140625">
        <ele>770.4000244140625</ele>
        <time>2013-08-15T16:55:28.000Z</time>
        <extensions>
          <ns3:TrackPointExtension>
            <ns3:atemp>17.0</ns3:atemp>
            <ns3:hr>154</ns3:hr>
          </ns3:TrackPointExtension>
        </extensions>
      </trkpt>
      <trkpt lat="46.61359422840178012847900390625" lon="6.8745508231222629547119140625">
        <ele>770.79998779296875</ele>
        <time>2013-08-15T16:55:29.000Z</time>
        <extensions>
          <ns3:TrackPointExtension>
            <ns3:atemp>17.0</ns3:atemp>
            <ns3:hr>154</ns3:hr>
          </ns3:TrackPointExtension>
        </extensions>
      </trkpt>
      <trkpt lat="46.613571345806121826171875" lon="6.8745531700551509857177734375">
        <ele>771</ele>
        <time>2013-08-15T16:55:30.000Z</time>
        <extensions>
          <ns3:TrackPointExtension>
            <ns3:atemp>17.0</ns3:atemp>
            <ns3:hr>154</ns3:hr>
          </ns3:TrackPointExtension>
        </extensions>
      </trkpt>
      <trkpt lat="46.6135565936565399169921875" lon="6.8745565228164196014404296875">
        <ele>771.20001220703125</ele>
        <time>2013-08-15T16:55:31.000Z</time>
        <extensions>
          <ns3:TrackPointExtension>
            <ns3:atemp>17.0</ns3:atemp>
            <ns3:hr>154</ns3:hr>
          </ns3:TrackPointExtension>
        </extensions>
      </trkpt>
      <trkpt lat="46.61354142241179943084716796875" lon="6.87456549145281314849853515625">
        <ele>771.4000244140625</ele>
        <time>2013-08-15T16:55:32.000Z</time>
        <extensions>
          <ns3:TrackPointExtension>
            <ns3:atemp>17.0</ns3:atemp>
            <ns3:hr>154</ns3:hr>
          </ns3:TrackPointExtension>
        </extensions>
      </trkpt>
      <trkpt lat="46.61352549679577350616455078125" lon="6.87457420863211154937744140625">
        <ele>771.5999755859375</ele>
        <time>2013-08-15T16:55:33.000Z</time>
        <extensions>
          <ns3:TrackPointExtension>
            <ns3:atemp>17.0</ns3:atemp>
            <ns3:hr>154</ns3:hr>
          </ns3:TrackPointExtension>
        </extensions>
      </trkpt>
      <trkpt lat="46.61350772716104984283447265625" lon="6.874587871134281158447265625">
        <ele>772</ele>
        <time>2013-08-15T16:55:34.000Z</time>
        <extensions>
          <ns3:TrackPointExtension>
            <ns3:atemp>17.0</ns3:atemp>
            <ns3:hr>154</ns3:hr>
          </ns3:TrackPointExtension>
        </extensions>
      </trkpt>
      <trkpt lat="46.61349230445921421051025390625" lon="6.874599270522594451904296875">
        <ele>772.20001220703125</ele>
        <time>2013-08-15T16:55:35.000Z</time>
        <extensions>
          <ns3:TrackPointExtension>
            <ns3:atemp>17.0</ns3:atemp>
            <ns3:hr>154</ns3:hr>
          </ns3:TrackPointExtension>
        </extensions>
      </trkpt>
      <trkpt lat="46.61347210407257080078125" lon="6.87460958026349544525146484375">
        <ele>772.5999755859375</ele>
        <time>2013-08-15T16:55:36.000Z</time>
        <extensions>
          <ns3:TrackPointExtension>
            <ns3:atemp>17.0</ns3:atemp>
            <ns3:hr>154</ns3:hr>
          </ns3:TrackPointExtension>
        </extensions>
      </trkpt>
      <trkpt lat="46.6134488023817539215087890625" lon="6.8746158666908740997314453125">
        <ele>772.79998779296875</ele>
        <time>2013-08-15T16:55:37.000Z</time>
        <extensions>
          <ns3:TrackPointExtension>
            <ns3:atemp>17.0</ns3:atemp>
            <ns3:hr>154</ns3:hr>
          </ns3:TrackPointExtension>
        </extensions>
      </trkpt>
      <trkpt lat="46.6134226508438587188720703125" lon="6.8746205605566501617431640625">
        <ele>773.20001220703125</ele>
        <time>2013-08-15T16:55:38.000Z</time>
        <extensions>
          <ns3:TrackPointExtension>
            <ns3:atemp>17.0</ns3:atemp>
            <ns3:hr>153</ns3:hr>
          </ns3:TrackPointExtension>
        </extensions>
      </trkpt>
      <trkpt lat="46.613402701914310455322265625" lon="6.8746262602508068084716796875">
        <ele>773.5999755859375</ele>
        <time>2013-08-15T16:55:39.000Z</time>
        <extensions>
          <ns3:TrackPointExtension>
            <ns3:atemp>17.0</ns3:atemp>
            <ns3:hr>154</ns3:hr>
          </ns3:TrackPointExtension>
        </extensions>
      </trkpt>
      <trkpt lat="46.6133861057460308074951171875" lon="6.87463455833494663238525390625">
        <ele>774</ele>
        <time>2013-08-15T16:55:40.000Z</time>
        <extensions>
          <ns3:TrackPointExtension>
            <ns3:atemp>17.0</ns3:atemp>
            <ns3:hr>154</ns3:hr>
          </ns3:TrackPointExtension>
        </extensions>
      </trkpt>
      <trkpt lat="46.6133743710815906524658203125" lon="6.8746423535048961639404296875">
        <ele>774.4000244140625</ele>
        <time>2013-08-15T16:55:41.000Z</time>
        <extensions>
          <ns3:TrackPointExtension>
            <ns3:atemp>17.0</ns3:atemp>
            <ns3:hr>154</ns3:hr>
          </ns3:TrackPointExtension>
        </extensions>
      </trkpt>
      <trkpt lat="46.6133579425513744354248046875" lon="6.87464897520840167999267578125">
        <ele>774.5999755859375</ele>
        <time>2013-08-15T16:55:42.000Z</time>
        <extensions>
          <ns3:TrackPointExtension>
            <ns3:atemp>17.0</ns3:atemp>
            <ns3:hr>154</ns3:hr>
          </ns3:TrackPointExtension>
        </extensions>
      </trkpt>
      <trkpt lat="46.61334159784018993377685546875" lon="6.87465417198836803436279296875">
        <ele>774.79998779296875</ele>
        <time>2013-08-15T16:55:43.000Z</time>
        <extensions>
          <ns3:TrackPointExtension>
            <ns3:atemp>17.0</ns3:atemp>
            <ns3:hr>154</ns3:hr>
          </ns3:TrackPointExtension>
        </extensions>
      </trkpt>
      <trkpt lat="46.61332315765321254730224609375" lon="6.87466423027217388153076171875">
        <ele>775</ele>
        <time>2013-08-15T16:55:44.000Z</time>
        <extensions>
          <ns3:TrackPointExtension>
            <ns3:atemp>17.0</ns3:atemp>
            <ns3:hr>153</ns3:hr>
          </ns3:TrackPointExtension>
        </extensions>
      </trkpt>
      <trkpt lat="46.61330706439912319183349609375" lon="6.87468032352626323699951171875">
        <ele>775.4000244140625</ele>
        <time>2013-08-15T16:55:45.000Z</time>
        <extensions>
          <ns3:TrackPointExtension>
            <ns3:atemp>17.0</ns3:atemp>
            <ns3:hr>154</ns3:hr>
          </ns3:TrackPointExtension>
        </extensions>
      </trkpt>
      <trkpt lat="46.61327563226222991943359375" lon="6.87469272874295711517333984375">
        <ele>775.5999755859375</ele>
        <time>2013-08-15T16:55:46.000Z</time>
        <extensions>
          <ns3:TrackPointExtension>
            <ns3:atemp>17.0</ns3:atemp>
            <ns3:hr>154</ns3:hr>
          </ns3:TrackPointExtension>
        </extensions>
      </trkpt>
      <trkpt lat="46.61324302665889263153076171875" lon="6.87469817698001861572265625">
        <ele>776</ele>
        <time>2013-08-15T16:55:47.000Z</time>
        <extensions>
          <ns3:TrackPointExtension>
            <ns3:atemp>17.0</ns3:atemp>
            <ns3:hr>153</ns3:hr>
          </ns3:TrackPointExtension>
        </extensions>
      </trkpt>
      <trkpt lat="46.613220982253551483154296875" lon="6.87470354139804840087890625">
        <ele>776</ele>
        <time>2013-08-15T16:55:48.000Z</time>
        <extensions>
          <ns3:TrackPointExtension>
            <ns3:atemp>17.0</ns3:atemp>
            <ns3:hr>153</ns3:hr>
          </ns3:TrackPointExtension>
        </extensions>
      </trkpt>
      <trkpt lat="46.6132013686001300811767578125" lon="6.87471301294863224029541015625">
        <ele>776.20001220703125</ele>
        <time>2013-08-15T16:55:49.000Z</time>
        <extensions>
          <ns3:TrackPointExtension>
            <ns3:atemp>17.0</ns3:atemp>
            <ns3:hr>153</ns3:hr>
          </ns3:TrackPointExtension>
        </extensions>
      </trkpt>
      <trkpt lat="46.61318317987024784088134765625" lon="6.874724663794040679931640625">
        <ele>776.20001220703125</ele>
        <time>2013-08-15T16:55:50.000Z</time>
        <extensions>
          <ns3:TrackPointExtension>
            <ns3:atemp>17.0</ns3:atemp>
            <ns3:hr>153</ns3:hr>
          </ns3:TrackPointExtension>
        </extensions>
      </trkpt>
      <trkpt lat="46.6131671704351902008056640625" lon="6.874738074839115142822265625">
        <ele>776.4000244140625</ele>
        <time>2013-08-15T16:55:51.000Z</time>
        <extensions>
          <ns3:TrackPointExtension>
            <ns3:atemp>17.0</ns3:atemp>
            <ns3:hr>153</ns3:hr>
          </ns3:TrackPointExtension>
        </extensions>
      </trkpt>
      <trkpt lat="46.6131480596959590911865234375" lon="6.87474989332258701324462890625">
        <ele>776.5999755859375</ele>
        <time>2013-08-15T16:55:52.000Z</time>
        <extensions>
          <ns3:TrackPointExtension>
            <ns3:atemp>17.0</ns3:atemp>
            <ns3:hr>153</ns3:hr>
          </ns3:TrackPointExtension>
        </extensions>
      </trkpt>
      <trkpt lat="46.6131286136806011199951171875" lon="6.87476229853928089141845703125">
        <ele>776.79998779296875</ele>
        <time>2013-08-15T16:55:53.000Z</time>
        <extensions>
          <ns3:TrackPointExtension>
            <ns3:atemp>17.0</ns3:atemp>
            <ns3:hr>153</ns3:hr>
          </ns3:TrackPointExtension>
        </extensions>
      </trkpt>
      <trkpt lat="46.6131041385233402252197265625" lon="6.87477503903210163116455078125">
        <ele>777</ele>
        <time>2013-08-15T16:55:54.000Z</time>
        <extensions>
          <ns3:TrackPointExtension>
            <ns3:atemp>17.0</ns3:atemp>
            <ns3:hr>153</ns3:hr>
          </ns3:TrackPointExtension>
        </extensions>
      </trkpt>
      <trkpt lat="46.613078154623508453369140625" lon="6.87478928826749324798583984375">
        <ele>777.20001220703125</ele>
        <time>2013-08-15T16:55:55.000Z</time>
        <extensions>
          <ns3:TrackPointExtension>
            <ns3:atemp>17.0</ns3:atemp>
            <ns3:hr>153</ns3:hr>
          </ns3:TrackPointExtension>
        </extensions>
      </trkpt>
      <trkpt lat="46.6130602173507213592529296875" lon="6.87480680644512176513671875">
        <ele>777.4000244140625</ele>
        <time>2013-08-15T16:55:56.000Z</time>
        <extensions>
          <ns3:TrackPointExtension>
            <ns3:atemp>17.0</ns3:atemp>
            <ns3:hr>153</ns3:hr>
          </ns3:TrackPointExtension>
        </extensions>
      </trkpt>
      <trkpt lat="46.61304387263953685760498046875" lon="6.874822564423084259033203125">
        <ele>777.4000244140625</ele>
        <time>2013-08-15T16:55:57.000Z</time>
        <extensions>
          <ns3:TrackPointExtension>
            <ns3:atemp>17.0</ns3:atemp>
            <ns3:hr>153</ns3:hr>
          </ns3:TrackPointExtension>
        </extensions>
      </trkpt>
      <trkpt lat="46.6130253486335277557373046875" lon="6.874842345714569091796875">
        <ele>777.79998779296875</ele>
        <time>2013-08-15T16:55:58.000Z</time>
        <extensions>
          <ns3:TrackPointExtension>
            <ns3:atemp>17.0</ns3:atemp>
            <ns3:hr>152</ns3:hr>
          </ns3:TrackPointExtension>
        </extensions>
      </trkpt>
      <trkpt lat="46.613005734980106353759765625" lon="6.87486112117767333984375">
        <ele>777.79998779296875</ele>
        <time>2013-08-15T16:55:59.000Z</time>
        <extensions>
          <ns3:TrackPointExtension>
            <ns3:atemp>17.0</ns3:atemp>
            <ns3:hr>152</ns3:hr>
          </ns3:TrackPointExtension>
        </extensions>
      </trkpt>
      <trkpt lat="46.61298603750765323638916015625" lon="6.87488618306815624237060546875">
        <ele>778</ele>
        <time>2013-08-15T16:56:00.000Z</time>
        <extensions>
          <ns3:TrackPointExtension>
            <ns3:atemp>17.0</ns3:atemp>
            <ns3:hr>152</ns3:hr>
          </ns3:TrackPointExtension>
        </extensions>
      </trkpt>
      <trkpt lat="46.61296877078711986541748046875" lon="6.8749125860631465911865234375">
        <ele>778.20001220703125</ele>
        <time>2013-08-15T16:56:01.000Z</time>
        <extensions>
          <ns3:TrackPointExtension>
            <ns3:atemp>17.0</ns3:atemp>
            <ns3:hr>152</ns3:hr>
          </ns3:TrackPointExtension>
        </extensions>
      </trkpt>
      <trkpt lat="46.61295267753303050994873046875" lon="6.8749380670487880706787109375">
        <ele>778.4000244140625</ele>
        <time>2013-08-15T16:56:02.000Z</time>
        <extensions>
          <ns3:TrackPointExtension>
            <ns3:atemp>17.0</ns3:atemp>
            <ns3:hr>152</ns3:hr>
          </ns3:TrackPointExtension>
        </extensions>
      </trkpt>
      <trkpt lat="46.6129351593554019927978515625" lon="6.87495960853993892669677734375">
        <ele>778.79998779296875</ele>
        <time>2013-08-15T16:56:03.000Z</time>
        <extensions>
          <ns3:TrackPointExtension>
            <ns3:atemp>17.0</ns3:atemp>
            <ns3:hr>151</ns3:hr>
          </ns3:TrackPointExtension>
        </extensions>
      </trkpt>
      <trkpt lat="46.61291889846324920654296875" lon="6.87498022802174091339111328125">
        <ele>779</ele>
        <time>2013-08-15T16:56:04.000Z</time>
        <extensions>
          <ns3:TrackPointExtension>
            <ns3:atemp>17.0</ns3:atemp>
            <ns3:hr>152</ns3:hr>
          </ns3:TrackPointExtension>
        </extensions>
      </trkpt>
      <trkpt lat="46.61290238611400127410888671875" lon="6.87500922940671443939208984375">
        <ele>779</ele>
        <time>2013-08-15T16:56:05.000Z</time>
        <extensions>
          <ns3:TrackPointExtension>
            <ns3:atemp>17.0</ns3:atemp>
            <ns3:hr>151</ns3:hr>
          </ns3:TrackPointExtension>
        </extensions>
      </trkpt>
      <trkpt lat="46.61288402974605560302734375" lon="6.87503202818334102630615234375">
        <ele>779.20001220703125</ele>
        <time>2013-08-15T16:56:06.000Z</time>
        <extensions>
          <ns3:TrackPointExtension>
            <ns3:atemp>17.0</ns3:atemp>
            <ns3:hr>151</ns3:hr>
          </ns3:TrackPointExtension>
        </extensions>
      </trkpt>
      <trkpt lat="46.6128664277493953704833984375" lon="6.87506035901606082916259765625">
        <ele>779.20001220703125</ele>
        <time>2013-08-15T16:56:07.000Z</time>
        <extensions>
          <ns3:TrackPointExtension>
            <ns3:atemp>17.0</ns3:atemp>
            <ns3:hr>151</ns3:hr>
          </ns3:TrackPointExtension>
        </extensions>
      </trkpt>
      <trkpt lat="46.6128459759056568145751953125" lon="6.87508642673492431640625">
        <ele>779.4000244140625</ele>
        <time>2013-08-15T16:56:08.000Z</time>
        <extensions>
          <ns3:TrackPointExtension>
            <ns3:atemp>17.0</ns3:atemp>
            <ns3:hr>150</ns3:hr>
          </ns3:TrackPointExtension>
        </extensions>
      </trkpt>
      <trkpt lat="46.6128335706889629364013671875" lon="6.875107549130916595458984375">
        <ele>779.4000244140625</ele>
        <time>2013-08-15T16:56:09.000Z</time>
        <extensions>
          <ns3:TrackPointExtension>
            <ns3:atemp>17.0</ns3:atemp>
            <ns3:hr>150</ns3:hr>
          </ns3:TrackPointExtension>
        </extensions>
      </trkpt>
      <trkpt lat="46.61281588487327098846435546875" lon="6.87513395212590694427490234375">
        <ele>779.4000244140625</ele>
        <time>2013-08-15T16:56:10.000Z</time>
        <extensions>
          <ns3:TrackPointExtension>
            <ns3:atemp>17.0</ns3:atemp>
            <ns3:hr>150</ns3:hr>
          </ns3:TrackPointExtension>
        </extensions>
      </trkpt>
      <trkpt lat="46.61279551684856414794921875" lon="6.8751623667776584625244140625">
        <ele>779.5999755859375</ele>
        <time>2013-08-15T16:56:11.000Z</time>
        <extensions>
          <ns3:TrackPointExtension>
            <ns3:atemp>17.0</ns3:atemp>
            <ns3:hr>150</ns3:hr>
          </ns3:TrackPointExtension>
        </extensions>
      </trkpt>
      <trkpt lat="46.61277766339480876922607421875" lon="6.87518608756363391876220703125">
        <ele>779.79998779296875</ele>
        <time>2013-08-15T16:56:12.000Z</time>
        <extensions>
          <ns3:TrackPointExtension>
            <ns3:atemp>17.0</ns3:atemp>
            <ns3:hr>150</ns3:hr>
          </ns3:TrackPointExtension>
        </extensions>
      </trkpt>
      <trkpt lat="46.61275872029364109039306640625" lon="6.875212490558624267578125">
        <ele>779.79998779296875</ele>
        <time>2013-08-15T16:56:13.000Z</time>
        <extensions>
          <ns3:TrackPointExtension>
            <ns3:atemp>17.0</ns3:atemp>
            <ns3:hr>150</ns3:hr>
          </ns3:TrackPointExtension>
        </extensions>
      </trkpt>
      <trkpt lat="46.612735502421855926513671875" lon="6.875250041484832763671875">
        <ele>779.79998779296875</ele>
        <time>2013-08-15T16:56:14.000Z</time>
        <extensions>
          <ns3:TrackPointExtension>
            <ns3:atemp>17.0</ns3:atemp>
            <ns3:hr>149</ns3:hr>
          </ns3:TrackPointExtension>
        </extensions>
      </trkpt>
      <trkpt lat="46.61270968616008758544921875" lon="6.87529656104743480682373046875">
        <ele>779.79998779296875</ele>
        <time>2013-08-15T16:56:15.000Z</time>
        <extensions>
          <ns3:TrackPointExtension>
            <ns3:atemp>17.0</ns3:atemp>
            <ns3:hr>149</ns3:hr>
          </ns3:TrackPointExtension>
        </extensions>
      </trkpt>
      <trkpt lat="46.61268847994506359100341796875" lon="6.87533830292522907257080078125">
        <ele>779.79998779296875</ele>
        <time>2013-08-15T16:56:16.000Z</time>
        <extensions>
          <ns3:TrackPointExtension>
            <ns3:atemp>17.0</ns3:atemp>
            <ns3:hr>148</ns3:hr>
          </ns3:TrackPointExtension>
        </extensions>
      </trkpt>
      <trkpt lat="46.6126699559390544891357421875" lon="6.87539756298065185546875">
        <ele>779.5999755859375</ele>
        <time>2013-08-15T16:56:17.000Z</time>
        <extensions>
          <ns3:TrackPointExtension>
            <ns3:atemp>17.0</ns3:atemp>
            <ns3:hr>149</ns3:hr>
          </ns3:TrackPointExtension>
        </extensions>
      </trkpt>
      <trkpt lat="46.612652353942394256591796875" lon="6.8754654563963413238525390625">
        <ele>779</ele>
        <time>2013-08-15T16:56:18.000Z</time>
        <extensions>
          <ns3:TrackPointExtension>
            <ns3:atemp>17.0</ns3:atemp>
            <ns3:hr>148</ns3:hr>
          </ns3:TrackPointExtension>
        </extensions>
      </trkpt>
      <trkpt lat="46.61262913607060909271240234375" lon="6.875527985394001007080078125">
        <ele>778.79998779296875</ele>
        <time>2013-08-15T16:56:19.000Z</time>
        <extensions>
          <ns3:TrackPointExtension>
            <ns3:atemp>17.0</ns3:atemp>
            <ns3:hr>148</ns3:hr>
          </ns3:TrackPointExtension>
        </extensions>
      </trkpt>
      <trkpt lat="46.61259996704757213592529296875" lon="6.8755921907722949981689453125">
        <ele>778.79998779296875</ele>
        <time>2013-08-15T16:56:20.000Z</time>
        <extensions>
          <ns3:TrackPointExtension>
            <ns3:atemp>17.0</ns3:atemp>
            <ns3:hr>147</ns3:hr>
          </ns3:TrackPointExtension>
        </extensions>
      </trkpt>
      <trkpt lat="46.612565517425537109375" lon="6.8756582401692867279052734375">
        <ele>779</ele>
        <time>2013-08-15T16:56:21.000Z</time>
        <extensions>
          <ns3:TrackPointExtension>
            <ns3:atemp>17.0</ns3:atemp>
            <ns3:hr>146</ns3:hr>
          </ns3:TrackPointExtension>
        </extensions>
      </trkpt>
      <trkpt lat="46.61252670921385288238525390625" lon="6.87571942806243896484375">
        <ele>778.79998779296875</ele>
        <time>2013-08-15T16:56:22.000Z</time>
        <extensions>
          <ns3:TrackPointExtension>
            <ns3:atemp>17.0</ns3:atemp>
            <ns3:hr>146</ns3:hr>
          </ns3:TrackPointExtension>
        </extensions>
      </trkpt>
      <trkpt lat="46.612489409744739532470703125" lon="6.8757849745452404022216796875">
        <ele>778.5999755859375</ele>
        <time>2013-08-15T16:56:23.000Z</time>
        <extensions>
          <ns3:TrackPointExtension>
            <ns3:atemp>17.0</ns3:atemp>
            <ns3:hr>145</ns3:hr>
          </ns3:TrackPointExtension>
        </extensions>
      </trkpt>
      <trkpt lat="46.61244959570467472076416015625" lon="6.87585496343672275543212890625">
        <ele>778.20001220703125</ele>
        <time>2013-08-15T16:56:24.000Z</time>
        <extensions>
          <ns3:TrackPointExtension>
            <ns3:atemp>17.0</ns3:atemp>
            <ns3:hr>145</ns3:hr>
          </ns3:TrackPointExtension>
        </extensions>
      </trkpt>
      <trkpt lat="46.61241053603589534759521484375" lon="6.875926963984966278076171875">
        <ele>778</ele>
        <time>2013-08-15T16:56:25.000Z</time>
        <extensions>
          <ns3:TrackPointExtension>
            <ns3:atemp>17.0</ns3:atemp>
            <ns3:hr>145</ns3:hr>
          </ns3:TrackPointExtension>
        </extensions>
      </trkpt>
      <trkpt lat="46.61237172782421112060546875" lon="6.8759972043335437774658203125">
        <ele>777.5999755859375</ele>
        <time>2013-08-15T16:56:26.000Z</time>
        <extensions>
          <ns3:TrackPointExtension>
            <ns3:atemp>17.0</ns3:atemp>
            <ns3:hr>144</ns3:hr>
          </ns3:TrackPointExtension>
        </extensions>
      </trkpt>
      <trkpt lat="46.61233375780284404754638671875" lon="6.8760629184544086456298828125">
        <ele>777.20001220703125</ele>
        <time>2013-08-15T16:56:27.000Z</time>
        <extensions>
          <ns3:TrackPointExtension>
            <ns3:atemp>17.0</ns3:atemp>
            <ns3:hr>144</ns3:hr>
          </ns3:TrackPointExtension>
        </extensions>
      </trkpt>
      <trkpt lat="46.61229738034307956695556640625" lon="6.87612787820398807525634765625">
        <ele>777</ele>
        <time>2013-08-15T16:56:28.000Z</time>
        <extensions>
          <ns3:TrackPointExtension>
            <ns3:atemp>17.0</ns3:atemp>
            <ns3:hr>142</ns3:hr>
          </ns3:TrackPointExtension>
        </extensions>
      </trkpt>
      <trkpt lat="46.612262092530727386474609375" lon="6.876187808811664581298828125">
        <ele>776.5999755859375</ele>
        <time>2013-08-15T16:56:29.000Z</time>
        <extensions>
          <ns3:TrackPointExtension>
            <ns3:atemp>17.0</ns3:atemp>
            <ns3:hr>141</ns3:hr>
          </ns3:TrackPointExtension>
        </extensions>
      </trkpt>
      <trkpt lat="46.61222646944224834442138671875" lon="6.87624589540064334869384765625">
        <ele>776.5999755859375</ele>
        <time>2013-08-15T16:56:30.000Z</time>
        <extensions>
          <ns3:TrackPointExtension>
            <ns3:atemp>17.0</ns3:atemp>
            <ns3:hr>140</ns3:hr>
          </ns3:TrackPointExtension>
        </extensions>
      </trkpt>
      <trkpt lat="46.61219143308699131011962890625" lon="6.87630708329379558563232421875">
        <ele>776.4000244140625</ele>
        <time>2013-08-15T16:56:31.000Z</time>
        <extensions>
          <ns3:TrackPointExtension>
            <ns3:atemp>17.0</ns3:atemp>
            <ns3:hr>138</ns3:hr>
          </ns3:TrackPointExtension>
        </extensions>
      </trkpt>
      <trkpt lat="46.6121589951217174530029296875" lon="6.87637195922434329986572265625">
        <ele>776.20001220703125</ele>
        <time>2013-08-15T16:56:32.000Z</time>
        <extensions>
          <ns3:TrackPointExtension>
            <ns3:atemp>17.0</ns3:atemp>
            <ns3:hr>137</ns3:hr>
          </ns3:TrackPointExtension>
        </extensions>
      </trkpt>
      <trkpt lat="46.6121278144419193267822265625" lon="6.8764394335448741912841796875">
        <ele>776</ele>
        <time>2013-08-15T16:56:33.000Z</time>
        <extensions>
          <ns3:TrackPointExtension>
            <ns3:atemp>17.0</ns3:atemp>
            <ns3:hr>136</ns3:hr>
          </ns3:TrackPointExtension>
        </extensions>
      </trkpt>
      <trkpt lat="46.6121001541614532470703125" lon="6.8765091709792613983154296875">
        <ele>775.5999755859375</ele>
        <time>2013-08-15T16:56:34.000Z</time>
        <extensions>
          <ns3:TrackPointExtension>
            <ns3:atemp>17.0</ns3:atemp>
            <ns3:hr>135</ns3:hr>
          </ns3:TrackPointExtension>
        </extensions>
      </trkpt>
      <trkpt lat="46.61207123659551143646240234375" lon="6.87657999806106090545654296875">
        <ele>775.4000244140625</ele>
        <time>2013-08-15T16:56:35.000Z</time>
        <extensions>
          <ns3:TrackPointExtension>
            <ns3:atemp>17.0</ns3:atemp>
            <ns3:hr>134</ns3:hr>
          </ns3:TrackPointExtension>
        </extensions>
      </trkpt>
      <trkpt lat="46.61204458214342594146728515625" lon="6.87664671801030635833740234375">
        <ele>775</ele>
        <time>2013-08-15T16:56:36.000Z</time>
        <extensions>
          <ns3:TrackPointExtension>
            <ns3:atemp>17.0</ns3:atemp>
            <ns3:hr>133</ns3:hr>
          </ns3:TrackPointExtension>
        </extensions>
      </trkpt>
      <trkpt lat="46.6120196878910064697265625" lon="6.87671720981597900390625">
        <ele>774.79998779296875</ele>
        <time>2013-08-15T16:56:37.000Z</time>
        <extensions>
          <ns3:TrackPointExtension>
            <ns3:atemp>17.0</ns3:atemp>
            <ns3:hr>131</ns3:hr>
          </ns3:TrackPointExtension>
        </extensions>
      </trkpt>
      <trkpt lat="46.6120027564465999603271484375" lon="6.87679625116288661956787109375">
        <ele>774.20001220703125</ele>
        <time>2013-08-15T16:56:38.000Z</time>
        <extensions>
          <ns3:TrackPointExtension>
            <ns3:atemp>17.0</ns3:atemp>
            <ns3:hr>131</ns3:hr>
          </ns3:TrackPointExtension>
        </extensions>
      </trkpt>
      <trkpt lat="46.6119990684092044830322265625" lon="6.8768816627562046051025390625">
        <ele>774.20001220703125</ele>
        <time>2013-08-15T16:56:39.000Z</time>
        <extensions>
          <ns3:TrackPointExtension>
            <ns3:atemp>17.0</ns3:atemp>
            <ns3:hr>130</ns3:hr>
          </ns3:TrackPointExtension>
        </extensions>
      </trkpt>
      <trkpt lat="46.61201675422489643096923828125" lon="6.87696103937923908233642578125">
        <ele>774.20001220703125</ele>
        <time>2013-08-15T16:56:40.000Z</time>
        <extensions>
          <ns3:TrackPointExtension>
            <ns3:atemp>17.0</ns3:atemp>
            <ns3:hr>130</ns3:hr>
          </ns3:TrackPointExtension>
        </extensions>
      </trkpt>
      <trkpt lat="46.6120517067611217498779296875" lon="6.87702490948140621185302734375">
        <ele>774.4000244140625</ele>
        <time>2013-08-15T16:56:41.000Z</time>
        <extensions>
          <ns3:TrackPointExtension>
            <ns3:atemp>17.0</ns3:atemp>
            <ns3:hr>130</ns3:hr>
          </ns3:TrackPointExtension>
        </extensions>
      </trkpt>
      <trkpt lat="46.61208833567798137664794921875" lon="6.87708760611712932586669921875">
        <ele>774.20001220703125</ele>
        <time>2013-08-15T16:56:42.000Z</time>
        <extensions>
          <ns3:TrackPointExtension>
            <ns3:atemp>17.0</ns3:atemp>
            <ns3:hr>130</ns3:hr>
          </ns3:TrackPointExtension>
        </extensions>
      </trkpt>
      <trkpt lat="46.61212421022355556488037109375" lon="6.87715281732380390167236328125">
        <ele>774.4000244140625</ele>
        <time>2013-08-15T16:56:43.000Z</time>
        <extensions>
          <ns3:TrackPointExtension>
            <ns3:atemp>17.0</ns3:atemp>
            <ns3:hr>131</ns3:hr>
          </ns3:TrackPointExtension>
        </extensions>
      </trkpt>
      <trkpt lat="46.61215974949300289154052734375" lon="6.87721543014049530029296875">
        <ele>774.4000244140625</ele>
        <time>2013-08-15T16:56:44.000Z</time>
        <extensions>
          <ns3:TrackPointExtension>
            <ns3:atemp>17.0</ns3:atemp>
            <ns3:hr>131</ns3:hr>
          </ns3:TrackPointExtension>
        </extensions>
      </trkpt>
      <trkpt lat="46.61219813860952854156494140625" lon="6.8772756122052669525146484375">
        <ele>774.5999755859375</ele>
        <time>2013-08-15T16:56:45.000Z</time>
        <extensions>
          <ns3:TrackPointExtension>
            <ns3:atemp>17.0</ns3:atemp>
            <ns3:hr>131</ns3:hr>
          </ns3:TrackPointExtension>
        </extensions>
      </trkpt>
      <trkpt lat="46.61223920993506908416748046875" lon="6.87733344733715057373046875">
        <ele>774.79998779296875</ele>
        <time>2013-08-15T16:56:46.000Z</time>
        <extensions>
          <ns3:TrackPointExtension>
            <ns3:atemp>17.0</ns3:atemp>
            <ns3:hr>131</ns3:hr>
          </ns3:TrackPointExtension>
        </extensions>
      </trkpt>
      <trkpt lat="46.61228296346962451934814453125" lon="6.8773864209651947021484375">
        <ele>775</ele>
        <time>2013-08-15T16:56:47.000Z</time>
        <extensions>
          <ns3:TrackPointExtension>
            <ns3:atemp>17.0</ns3:atemp>
            <ns3:hr>131</ns3:hr>
          </ns3:TrackPointExtension>
        </extensions>
      </trkpt>
      <trkpt lat="46.612324453890323638916015625" lon="6.87744266353547573089599609375">
        <ele>775</ele>
        <time>2013-08-15T16:56:48.000Z</time>
        <extensions>
          <ns3:TrackPointExtension>
            <ns3:atemp>17.0</ns3:atemp>
            <ns3:hr>131</ns3:hr>
          </ns3:TrackPointExtension>
        </extensions>
      </trkpt>
      <trkpt lat="46.61236795596778392791748046875" lon="6.87750083394348621368408203125">
        <ele>775.20001220703125</ele>
        <time>2013-08-15T16:56:49.000Z</time>
        <extensions>
          <ns3:TrackPointExtension>
            <ns3:atemp>17.0</ns3:atemp>
            <ns3:hr>131</ns3:hr>
          </ns3:TrackPointExtension>
        </extensions>
      </trkpt>
      <trkpt lat="46.61240902729332447052001953125" lon="6.877560429275035858154296875">
        <ele>775.4000244140625</ele>
        <time>2013-08-15T16:56:50.000Z</time>
        <extensions>
          <ns3:TrackPointExtension>
            <ns3:atemp>17.0</ns3:atemp>
            <ns3:hr>130</ns3:hr>
          </ns3:TrackPointExtension>
        </extensions>
      </trkpt>
      <trkpt lat="46.61245286464691162109375" lon="6.8776170909404754638671875">
        <ele>775.4000244140625</ele>
        <time>2013-08-15T16:56:51.000Z</time>
        <extensions>
          <ns3:TrackPointExtension>
            <ns3:atemp>17.0</ns3:atemp>
            <ns3:hr>130</ns3:hr>
          </ns3:TrackPointExtension>
        </extensions>
      </trkpt>
      <trkpt lat="46.61249401979148387908935546875" lon="6.87767140567302703857421875">
        <ele>775.4000244140625</ele>
        <time>2013-08-15T16:56:52.000Z</time>
        <extensions>
          <ns3:TrackPointExtension>
            <ns3:atemp>17.0</ns3:atemp>
            <ns3:hr>130</ns3:hr>
          </ns3:TrackPointExtension>
        </extensions>
      </trkpt>
      <trkpt lat="46.61253727041184902191162109375" lon="6.8777245469391345977783203125">
        <ele>775.5999755859375</ele>
        <time>2013-08-15T16:56:53.000Z</time>
        <extensions>
          <ns3:TrackPointExtension>
            <ns3:atemp>17.0</ns3:atemp>
            <ns3:hr>130</ns3:hr>
          </ns3:TrackPointExtension>
        </extensions>
      </trkpt>
      <trkpt lat="46.6125824488699436187744140625" lon="6.877773664891719818115234375">
        <ele>775.79998779296875</ele>
        <time>2013-08-15T16:56:54.000Z</time>
        <extensions>
          <ns3:TrackPointExtension>
            <ns3:atemp>17.0</ns3:atemp>
            <ns3:hr>130</ns3:hr>
          </ns3:TrackPointExtension>
        </extensions>
      </trkpt>
      <trkpt lat="46.6126263700425624847412109375" lon="6.87782739289104938507080078125">
        <ele>775.79998779296875</ele>
        <time>2013-08-15T16:56:55.000Z</time>
        <extensions>
          <ns3:TrackPointExtension>
            <ns3:atemp>17.0</ns3:atemp>
            <ns3:hr>130</ns3:hr>
          </ns3:TrackPointExtension>
        </extensions>
      </trkpt>
      <trkpt lat="46.61266945302486419677734375" lon="6.8778811208903789520263671875">
        <ele>775.79998779296875</ele>
        <time>2013-08-15T16:56:56.000Z</time>
        <extensions>
          <ns3:TrackPointExtension>
            <ns3:atemp>17.0</ns3:atemp>
            <ns3:hr>130</ns3:hr>
          </ns3:TrackPointExtension>
        </extensions>
      </trkpt>
      <trkpt lat="46.61271035671234130859375" lon="6.877937950193881988525390625">
        <ele>775.79998779296875</ele>
        <time>2013-08-15T16:56:57.000Z</time>
        <extensions>
          <ns3:TrackPointExtension>
            <ns3:atemp>17.0</ns3:atemp>
            <ns3:hr>130</ns3:hr>
          </ns3:TrackPointExtension>
        </extensions>
      </trkpt>
      <trkpt lat="46.61275402642786502838134765625" lon="6.8779924325644969940185546875">
        <ele>776</ele>
        <time>2013-08-15T16:56:58.000Z</time>
        <extensions>
          <ns3:TrackPointExtension>
            <ns3:atemp>17.0</ns3:atemp>
            <ns3:hr>130</ns3:hr>
          </ns3:TrackPointExtension>
        </extensions>
      </trkpt>
      <trkpt lat="46.6128002107143402099609375" lon="6.878046579658985137939453125">
        <ele>776</ele>
        <time>2013-08-15T16:56:59.000Z</time>
        <extensions>
          <ns3:TrackPointExtension>
            <ns3:atemp>17.0</ns3:atemp>
            <ns3:hr>130</ns3:hr>
          </ns3:TrackPointExtension>
        </extensions>
      </trkpt>
      <trkpt lat="46.61285209469497203826904296875" lon="6.87809921801090240478515625">
        <ele>776</ele>
        <time>2013-08-15T16:57:00.000Z</time>
        <extensions>
          <ns3:TrackPointExtension>
            <ns3:atemp>17.0</ns3:atemp>
            <ns3:hr>130</ns3:hr>
          </ns3:TrackPointExtension>
        </extensions>
      </trkpt>
      <trkpt lat="46.6129029728472232818603515625" lon="6.87815613113343715667724609375">
        <ele>776</ele>
        <time>2013-08-15T16:57:01.000Z</time>
        <extensions>
          <ns3:TrackPointExtension>
            <ns3:atemp>17.0</ns3:atemp>
            <ns3:hr>130</ns3:hr>
          </ns3:TrackPointExtension>
        </extensions>
      </trkpt>
      <trkpt lat="46.612954102456569671630859375" lon="6.87821899540722370147705078125">
        <ele>776</ele>
        <time>2013-08-15T16:57:02.000Z</time>
        <extensions>
          <ns3:TrackPointExtension>
            <ns3:atemp>17.0</ns3:atemp>
            <ns3:hr>130</ns3:hr>
          </ns3:TrackPointExtension>
        </extensions>
      </trkpt>
      <trkpt lat="46.6130028851330280303955078125" lon="6.8782851286232471466064453125">
        <ele>776</ele>
        <time>2013-08-15T16:57:03.000Z</time>
        <extensions>
          <ns3:TrackPointExtension>
            <ns3:atemp>17.0</ns3:atemp>
            <ns3:hr>130</ns3:hr>
          </ns3:TrackPointExtension>
        </extensions>
      </trkpt>
      <trkpt lat="46.6130515001714229583740234375" lon="6.87835444696247577667236328125">
        <ele>776</ele>
        <time>2013-08-15T16:57:04.000Z</time>
        <extensions>
          <ns3:TrackPointExtension>
            <ns3:atemp>17.0</ns3:atemp>
            <ns3:hr>130</ns3:hr>
          </ns3:TrackPointExtension>
        </extensions>
      </trkpt>
      <trkpt lat="46.61309617571532726287841796875" lon="6.87843256630003452301025390625">
        <ele>775.79998779296875</ele>
        <time>2013-08-15T16:57:05.000Z</time>
        <extensions>
          <ns3:TrackPointExtension>
            <ns3:atemp>17.0</ns3:atemp>
            <ns3:hr>129</ns3:hr>
          </ns3:TrackPointExtension>
        </extensions>
      </trkpt>
      <trkpt lat="46.61313523538410663604736328125" lon="6.87851621769368648529052734375">
        <ele>775.4000244140625</ele>
        <time>2013-08-15T16:57:06.000Z</time>
        <extensions>
          <ns3:TrackPointExtension>
            <ns3:atemp>17.0</ns3:atemp>
            <ns3:hr>128</ns3:hr>
          </ns3:TrackPointExtension>
        </extensions>
      </trkpt>
      <trkpt lat="46.61316909827291965484619140625" lon="6.87860841862857341766357421875">
        <ele>775.20001220703125</ele>
        <time>2013-08-15T16:57:07.000Z</time>
        <extensions>
          <ns3:TrackPointExtension>
            <ns3:atemp>17.0</ns3:atemp>
            <ns3:hr>127</ns3:hr>
          </ns3:TrackPointExtension>
        </extensions>
      </trkpt>
      <trkpt lat="46.61319692619144916534423828125" lon="6.87870581634342670440673828125">
        <ele>775</ele>
        <time>2013-08-15T16:57:08.000Z</time>
        <extensions>
          <ns3:TrackPointExtension>
            <ns3:atemp>17.0</ns3:atemp>
            <ns3:hr>127</ns3:hr>
          </ns3:TrackPointExtension>
        </extensions>
      </trkpt>
      <trkpt lat="46.613217629492282867431640625" lon="6.87881268560886383056640625">
        <ele>774.79998779296875</ele>
        <time>2013-08-15T16:57:09.000Z</time>
        <extensions>
          <ns3:TrackPointExtension>
            <ns3:atemp>17.0</ns3:atemp>
            <ns3:hr>126</ns3:hr>
          </ns3:TrackPointExtension>
        </extensions>
      </trkpt>
      <trkpt lat="46.613230369985103607177734375" lon="6.87892810441553592681884765625">
        <ele>774.4000244140625</ele>
        <time>2013-08-15T16:57:10.000Z</time>
        <extensions>
          <ns3:TrackPointExtension>
            <ns3:atemp>17.0</ns3:atemp>
            <ns3:hr>126</ns3:hr>
          </ns3:TrackPointExtension>
        </extensions>
      </trkpt>
      <trkpt lat="46.61323749460279941558837890625" lon="6.87904628925025463104248046875">
        <ele>774</ele>
        <time>2013-08-15T16:57:11.000Z</time>
        <extensions>
          <ns3:TrackPointExtension>
            <ns3:atemp>17.0</ns3:atemp>
            <ns3:hr>126</ns3:hr>
          </ns3:TrackPointExtension>
        </extensions>
      </trkpt>
      <trkpt lat="46.6132416017353534698486328125" lon="6.87917000614106655120849609375">
        <ele>773.5999755859375</ele>
        <time>2013-08-15T16:57:12.000Z</time>
        <extensions>
          <ns3:TrackPointExtension>
            <ns3:atemp>17.0</ns3:atemp>
            <ns3:hr>126</ns3:hr>
          </ns3:TrackPointExtension>
        </extensions>
      </trkpt>
      <trkpt lat="46.61324252374470233917236328125" lon="6.8792949803173542022705078125">
        <ele>773.20001220703125</ele>
        <time>2013-08-15T16:57:13.000Z</time>
        <extensions>
          <ns3:TrackPointExtension>
            <ns3:atemp>17.0</ns3:atemp>
            <ns3:hr>127</ns3:hr>
          </ns3:TrackPointExtension>
        </extensions>
      </trkpt>
      <trkpt lat="46.613244451582431793212890625" lon="6.87942347489297389984130859375">
        <ele>772.5999755859375</ele>
        <time>2013-08-15T16:57:14.000Z</time>
        <extensions>
          <ns3:TrackPointExtension>
            <ns3:atemp>17.0</ns3:atemp>
            <ns3:hr>126</ns3:hr>
          </ns3:TrackPointExtension>
        </extensions>
      </trkpt>
      <trkpt lat="46.6132436133921146392822265625" lon="6.87955674715340137481689453125">
        <ele>772.5999755859375</ele>
        <time>2013-08-15T16:57:15.000Z</time>
        <extensions>
          <ns3:TrackPointExtension>
            <ns3:atemp>17.0</ns3:atemp>
            <ns3:hr>126</ns3:hr>
          </ns3:TrackPointExtension>
        </extensions>
      </trkpt>
      <trkpt lat="46.61323782987892627716064453125" lon="6.8796909414231777191162109375">
        <ele>772.20001220703125</ele>
        <time>2013-08-15T16:57:16.000Z</time>
        <extensions>
          <ns3:TrackPointExtension>
            <ns3:atemp>17.0</ns3:atemp>
            <ns3:hr>125</ns3:hr>
          </ns3:TrackPointExtension>
        </extensions>
      </trkpt>
      <trkpt lat="46.61322978325188159942626953125" lon="6.879828907549381256103515625">
        <ele>771.4000244140625</ele>
        <time>2013-08-15T16:57:17.000Z</time>
        <extensions>
          <ns3:TrackPointExtension>
            <ns3:atemp>17.0</ns3:atemp>
            <ns3:hr>123</ns3:hr>
          </ns3:TrackPointExtension>
        </extensions>
      </trkpt>
      <trkpt lat="46.61321603693068027496337890625" lon="6.87996729277074337005615234375">
        <ele>770.5999755859375</ele>
        <time>2013-08-15T16:57:18.000Z</time>
        <extensions>
          <ns3:TrackPointExtension>
            <ns3:atemp>17.0</ns3:atemp>
            <ns3:hr>122</ns3:hr>
          </ns3:TrackPointExtension>
        </extensions>
      </trkpt>
      <trkpt lat="46.6132013686001300811767578125" lon="6.880105845630168914794921875">
        <ele>770.20001220703125</ele>
        <time>2013-08-15T16:57:19.000Z</time>
        <extensions>
          <ns3:TrackPointExtension>
            <ns3:atemp>17.0</ns3:atemp>
            <ns3:hr>120</ns3:hr>
          </ns3:TrackPointExtension>
        </extensions>
      </trkpt>
      <trkpt lat="46.613189466297626495361328125" lon="6.88024657778441905975341796875">
        <ele>770</ele>
        <time>2013-08-15T16:57:20.000Z</time>
        <extensions>
          <ns3:TrackPointExtension>
            <ns3:atemp>17.0</ns3:atemp>
            <ns3:hr>120</ns3:hr>
          </ns3:TrackPointExtension>
        </extensions>
      </trkpt>
      <trkpt lat="46.61317773163318634033203125" lon="6.88038806430995464324951171875">
        <ele>769.79998779296875</ele>
        <time>2013-08-15T16:57:21.000Z</time>
        <extensions>
          <ns3:TrackPointExtension>
            <ns3:atemp>17.0</ns3:atemp>
            <ns3:hr>120</ns3:hr>
          </ns3:TrackPointExtension>
        </extensions>
      </trkpt>
      <trkpt lat="46.61316256038844585418701171875" lon="6.88052670098841190338134765625">
        <ele>769.20001220703125</ele>
        <time>2013-08-15T16:57:22.000Z</time>
        <extensions>
          <ns3:TrackPointExtension>
            <ns3:atemp>17.0</ns3:atemp>
            <ns3:hr>120</ns3:hr>
          </ns3:TrackPointExtension>
        </extensions>
      </trkpt>
      <trkpt lat="46.61314747296273708343505859375" lon="6.8806665949523448944091796875">
        <ele>768.5999755859375</ele>
        <time>2013-08-15T16:57:23.000Z</time>
        <extensions>
          <ns3:TrackPointExtension>
            <ns3:atemp>17.0</ns3:atemp>
            <ns3:hr>119</ns3:hr>
          </ns3:TrackPointExtension>
        </extensions>
      </trkpt>
      <trkpt lat="46.6131086647510528564453125" lon="6.88079928047955036163330078125">
        <ele>767.79998779296875</ele>
        <time>2013-08-15T16:57:24.000Z</time>
        <extensions>
          <ns3:TrackPointExtension>
            <ns3:atemp>17.0</ns3:atemp>
            <ns3:hr>119</ns3:hr>
          </ns3:TrackPointExtension>
        </extensions>
      </trkpt>
      <trkpt lat="46.6130387596786022186279296875" lon="6.88091143034398555755615234375">
        <ele>767</ele>
        <time>2013-08-15T16:57:25.000Z</time>
        <extensions>
          <ns3:TrackPointExtension>
            <ns3:atemp>17.0</ns3:atemp>
            <ns3:hr>118</ns3:hr>
          </ns3:TrackPointExtension>
        </extensions>
      </trkpt>
      <trkpt lat="46.61295837722718715667724609375" lon="6.8809911422431468963623046875">
        <ele>766.4000244140625</ele>
        <time>2013-08-15T16:57:26.000Z</time>
        <extensions>
          <ns3:TrackPointExtension>
            <ns3:atemp>17.0</ns3:atemp>
            <ns3:hr>117</ns3:hr>
          </ns3:TrackPointExtension>
        </extensions>
      </trkpt>
      <trkpt lat="46.6128707863390445709228515625" lon="6.881029196083545684814453125">
        <ele>766</ele>
        <time>2013-08-15T16:57:27.000Z</time>
        <extensions>
          <ns3:TrackPointExtension>
            <ns3:atemp>17.0</ns3:atemp>
            <ns3:hr>116</ns3:hr>
          </ns3:TrackPointExtension>
        </extensions>
      </trkpt>
      <trkpt lat="46.61277883686125278472900390625" lon="6.88104964792728424072265625">
        <ele>765.79998779296875</ele>
        <time>2013-08-15T16:57:28.000Z</time>
        <extensions>
          <ns3:TrackPointExtension>
            <ns3:atemp>17.0</ns3:atemp>
            <ns3:hr>116</ns3:hr>
          </ns3:TrackPointExtension>
        </extensions>
      </trkpt>
      <trkpt lat="46.6126930899918079376220703125" lon="6.88107923604547977447509765625">
        <ele>765.5999755859375</ele>
        <time>2013-08-15T16:57:29.000Z</time>
        <extensions>
          <ns3:TrackPointExtension>
            <ns3:atemp>17.0</ns3:atemp>
            <ns3:hr>117</ns3:hr>
          </ns3:TrackPointExtension>
        </extensions>
      </trkpt>
      <trkpt lat="46.6126119531691074371337890625" lon="6.88112064264714717864990234375">
        <ele>765.5999755859375</ele>
        <time>2013-08-15T16:57:30.000Z</time>
        <extensions>
          <ns3:TrackPointExtension>
            <ns3:atemp>17.0</ns3:atemp>
            <ns3:hr>117</ns3:hr>
          </ns3:TrackPointExtension>
        </extensions>
      </trkpt>
      <trkpt lat="46.61253207363188266754150390625" lon="6.88116037286818027496337890625">
        <ele>765.5999755859375</ele>
        <time>2013-08-15T16:57:31.000Z</time>
        <extensions>
          <ns3:TrackPointExtension>
            <ns3:atemp>17.0</ns3:atemp>
            <ns3:hr>118</ns3:hr>
          </ns3:TrackPointExtension>
        </extensions>
      </trkpt>
      <trkpt lat="46.61245395429432392120361328125" lon="6.88120110891759395599365234375">
        <ele>765.79998779296875</ele>
        <time>2013-08-15T16:57:32.000Z</time>
        <extensions>
          <ns3:TrackPointExtension>
            <ns3:atemp>17.0</ns3:atemp>
            <ns3:hr>119</ns3:hr>
          </ns3:TrackPointExtension>
        </extensions>
      </trkpt>
      <trkpt lat="46.6123775951564311981201171875" lon="6.881244443356990814208984375">
        <ele>766.20001220703125</ele>
        <time>2013-08-15T16:57:33.000Z</time>
        <extensions>
          <ns3:TrackPointExtension>
            <ns3:atemp>17.0</ns3:atemp>
            <ns3:hr>119</ns3:hr>
          </ns3:TrackPointExtension>
        </extensions>
      </trkpt>
      <trkpt lat="46.61230123601853847503662109375" lon="6.88128828071057796478271484375">
        <ele>766.4000244140625</ele>
        <time>2013-08-15T16:57:34.000Z</time>
        <extensions>
          <ns3:TrackPointExtension>
            <ns3:atemp>17.0</ns3:atemp>
            <ns3:hr>120</ns3:hr>
          </ns3:TrackPointExtension>
        </extensions>
      </trkpt>
      <trkpt lat="46.612226553261280059814453125" lon="6.88133060932159423828125">
        <ele>766.5999755859375</ele>
        <time>2013-08-15T16:57:35.000Z</time>
        <extensions>
          <ns3:TrackPointExtension>
            <ns3:atemp>17.0</ns3:atemp>
            <ns3:hr>120</ns3:hr>
          </ns3:TrackPointExtension>
        </extensions>
      </trkpt>
      <trkpt lat="46.6121543012559413909912109375" lon="6.88137360848486423492431640625">
        <ele>766.79998779296875</ele>
        <time>2013-08-15T16:57:36.000Z</time>
        <extensions>
          <ns3:TrackPointExtension>
            <ns3:atemp>17.0</ns3:atemp>
            <ns3:hr>121</ns3:hr>
          </ns3:TrackPointExtension>
        </extensions>
      </trkpt>
      <trkpt lat="46.61208431236445903778076171875" lon="6.88141652382910251617431640625">
        <ele>767</ele>
        <time>2013-08-15T16:57:37.000Z</time>
        <extensions>
          <ns3:TrackPointExtension>
            <ns3:atemp>17.0</ns3:atemp>
            <ns3:hr>121</ns3:hr>
          </ns3:TrackPointExtension>
        </extensions>
      </trkpt>
      <trkpt lat="46.6120170056819915771484375" lon="6.88145893625915050506591796875">
        <ele>767.79998779296875</ele>
        <time>2013-08-15T16:57:38.000Z</time>
        <extensions>
          <ns3:TrackPointExtension>
            <ns3:atemp>17.0</ns3:atemp>
            <ns3:hr>122</ns3:hr>
          </ns3:TrackPointExtension>
        </extensions>
      </trkpt>
      <trkpt lat="46.6119507886469364166259765625" lon="6.881501264870166778564453125">
        <ele>768</ele>
        <time>2013-08-15T16:57:39.000Z</time>
        <extensions>
          <ns3:TrackPointExtension>
            <ns3:atemp>17.0</ns3:atemp>
            <ns3:hr>122</ns3:hr>
          </ns3:TrackPointExtension>
        </extensions>
      </trkpt>
      <trkpt lat="46.611889265477657318115234375" lon="6.8815430067479610443115234375">
        <ele>768</ele>
        <time>2013-08-15T16:57:40.000Z</time>
        <extensions>
          <ns3:TrackPointExtension>
            <ns3:atemp>17.0</ns3:atemp>
            <ns3:hr>123</ns3:hr>
          </ns3:TrackPointExtension>
        </extensions>
      </trkpt>
      <trkpt lat="46.6118391416966915130615234375" lon="6.8816057033836841583251953125">
        <ele>768</ele>
        <time>2013-08-15T16:57:41.000Z</time>
        <extensions>
          <ns3:TrackPointExtension>
            <ns3:atemp>17.0</ns3:atemp>
            <ns3:hr>123</ns3:hr>
          </ns3:TrackPointExtension>
        </extensions>
      </trkpt>
      <trkpt lat="46.611808799207210540771484375" lon="6.881694383919239044189453125">
        <ele>768</ele>
        <time>2013-08-15T16:57:42.000Z</time>
        <extensions>
          <ns3:TrackPointExtension>
            <ns3:atemp>17.0</ns3:atemp>
            <ns3:hr>123</ns3:hr>
          </ns3:TrackPointExtension>
        </extensions>
      </trkpt>
      <trkpt lat="46.61180770955979824066162109375" lon="6.88179588876664638519287109375">
        <ele>768.20001220703125</ele>
        <time>2013-08-15T16:57:43.000Z</time>
        <extensions>
          <ns3:TrackPointExtension>
            <ns3:atemp>17.0</ns3:atemp>
            <ns3:hr>123</ns3:hr>
          </ns3:TrackPointExtension>
        </extensions>
      </trkpt>
      <trkpt lat="46.61181022413074970245361328125" lon="6.88189228065311908721923828125">
        <ele>768.5999755859375</ele>
        <time>2013-08-15T16:57:44.000Z</time>
        <extensions>
          <ns3:TrackPointExtension>
            <ns3:atemp>17.0</ns3:atemp>
            <ns3:hr>124</ns3:hr>
          </ns3:TrackPointExtension>
        </extensions>
      </trkpt>
      <trkpt lat="46.6118129901587963104248046875" lon="6.8819849006831645965576171875">
        <ele>769</ele>
        <time>2013-08-15T16:57:45.000Z</time>
        <extensions>
          <ns3:TrackPointExtension>
            <ns3:atemp>17.0</ns3:atemp>
            <ns3:hr>124</ns3:hr>
          </ns3:TrackPointExtension>
        </extensions>
      </trkpt>
      <trkpt lat="46.6118099726736545562744140625" lon="6.88207802362740039825439453125">
        <ele>769</ele>
        <time>2013-08-15T16:57:46.000Z</time>
        <extensions>
          <ns3:TrackPointExtension>
            <ns3:atemp>17.0</ns3:atemp>
            <ns3:hr>124</ns3:hr>
          </ns3:TrackPointExtension>
        </extensions>
      </trkpt>
      <trkpt lat="46.6117942146956920623779296875" lon="6.88216385431587696075439453125">
        <ele>769</ele>
        <time>2013-08-15T16:57:47.000Z</time>
        <extensions>
          <ns3:TrackPointExtension>
            <ns3:atemp>17.0</ns3:atemp>
            <ns3:hr>125</ns3:hr>
          </ns3:TrackPointExtension>
        </extensions>
      </trkpt>
      <trkpt lat="46.611768566071987152099609375" lon="6.882252283394336700439453125">
        <ele>768.5999755859375</ele>
        <time>2013-08-15T16:57:48.000Z</time>
        <extensions>
          <ns3:TrackPointExtension>
            <ns3:atemp>17.0</ns3:atemp>
            <ns3:hr>125</ns3:hr>
          </ns3:TrackPointExtension>
        </extensions>
      </trkpt>
      <trkpt lat="46.61173260770738124847412109375" lon="6.88234004192054271697998046875">
        <ele>768.4000244140625</ele>
        <time>2013-08-15T16:57:49.000Z</time>
        <extensions>
          <ns3:TrackPointExtension>
            <ns3:atemp>17.0</ns3:atemp>
            <ns3:hr>125</ns3:hr>
          </ns3:TrackPointExtension>
        </extensions>
      </trkpt>
      <trkpt lat="46.6116943024098873138427734375" lon="6.88242838717997074127197265625">
        <ele>768.20001220703125</ele>
        <time>2013-08-15T16:57:50.000Z</time>
        <extensions>
          <ns3:TrackPointExtension>
            <ns3:atemp>17.0</ns3:atemp>
            <ns3:hr>125</ns3:hr>
          </ns3:TrackPointExtension>
        </extensions>
      </trkpt>
      <trkpt lat="46.611647196114063262939453125" lon="6.882507763803005218505859375">
        <ele>768.20001220703125</ele>
        <time>2013-08-15T16:57:51.000Z</time>
        <extensions>
          <ns3:TrackPointExtension>
            <ns3:atemp>17.0</ns3:atemp>
            <ns3:hr>125</ns3:hr>
          </ns3:TrackPointExtension>
        </extensions>
      </trkpt>
      <trkpt lat="46.6116066277027130126953125" lon="6.882589571177959442138671875">
        <ele>767.79998779296875</ele>
        <time>2013-08-15T16:57:52.000Z</time>
        <extensions>
          <ns3:TrackPointExtension>
            <ns3:atemp>17.0</ns3:atemp>
            <ns3:hr>125</ns3:hr>
          </ns3:TrackPointExtension>
        </extensions>
      </trkpt>
      <trkpt lat="46.6115690767765045166015625" lon="6.882682777941226959228515625">
        <ele>767.5999755859375</ele>
        <time>2013-08-15T16:57:53.000Z</time>
        <extensions>
          <ns3:TrackPointExtension>
            <ns3:atemp>17.0</ns3:atemp>
            <ns3:hr>125</ns3:hr>
          </ns3:TrackPointExtension>
        </extensions>
      </trkpt>
      <trkpt lat="46.61154753528535366058349609375" lon="6.88278243876993656158447265625">
        <ele>767.79998779296875</ele>
        <time>2013-08-15T16:57:54.000Z</time>
        <extensions>
          <ns3:TrackPointExtension>
            <ns3:atemp>17.0</ns3:atemp>
            <ns3:hr>125</ns3:hr>
          </ns3:TrackPointExtension>
        </extensions>
      </trkpt>
      <trkpt lat="46.611562035977840423583984375" lon="6.882872544229030609130859375">
        <ele>768</ele>
        <time>2013-08-15T16:57:55.000Z</time>
        <extensions>
          <ns3:TrackPointExtension>
            <ns3:atemp>17.0</ns3:atemp>
            <ns3:hr>125</ns3:hr>
          </ns3:TrackPointExtension>
        </extensions>
      </trkpt>
      <trkpt lat="46.61158693023025989532470703125" lon="6.882963739335536956787109375">
        <ele>768.4000244140625</ele>
        <time>2013-08-15T16:57:56.000Z</time>
        <extensions>
          <ns3:TrackPointExtension>
            <ns3:atemp>17.0</ns3:atemp>
            <ns3:hr>125</ns3:hr>
          </ns3:TrackPointExtension>
        </extensions>
      </trkpt>
      <trkpt lat="46.61161509342491626739501953125" lon="6.883050911128520965576171875">
        <ele>768.4000244140625</ele>
        <time>2013-08-15T16:57:57.000Z</time>
        <extensions>
          <ns3:TrackPointExtension>
            <ns3:atemp>17.0</ns3:atemp>
            <ns3:hr>125</ns3:hr>
          </ns3:TrackPointExtension>
        </extensions>
      </trkpt>
      <trkpt lat="46.6116356290876865386962890625" lon="6.88314654864370822906494140625">
        <ele>768.79998779296875</ele>
        <time>2013-08-15T16:57:58.000Z</time>
        <extensions>
          <ns3:TrackPointExtension>
            <ns3:atemp>17.0</ns3:atemp>
            <ns3:hr>125</ns3:hr>
          </ns3:TrackPointExtension>
        </extensions>
      </trkpt>
      <trkpt lat="46.61165163852274417877197265625" lon="6.88323958776891231536865234375">
        <ele>768.79998779296875</ele>
        <time>2013-08-15T16:57:59.000Z</time>
        <extensions>
          <ns3:TrackPointExtension>
            <ns3:atemp>17.0</ns3:atemp>
            <ns3:hr>124</ns3:hr>
          </ns3:TrackPointExtension>
        </extensions>
      </trkpt>
      <trkpt lat="46.61168550141155719757080078125" lon="6.88331955112516880035400390625">
        <ele>769</ele>
        <time>2013-08-15T16:58:00.000Z</time>
        <extensions>
          <ns3:TrackPointExtension>
            <ns3:atemp>17.0</ns3:atemp>
            <ns3:hr>125</ns3:hr>
          </ns3:TrackPointExtension>
        </extensions>
      </trkpt>
      <trkpt lat="46.61172975786030292510986328125" lon="6.88339448533952236175537109375">
        <ele>768.79998779296875</ele>
        <time>2013-08-15T16:58:01.000Z</time>
        <extensions>
          <ns3:TrackPointExtension>
            <ns3:atemp>17.0</ns3:atemp>
            <ns3:hr>125</ns3:hr>
          </ns3:TrackPointExtension>
        </extensions>
      </trkpt>
      <trkpt lat="46.61177233792841434478759765625" lon="6.88347025774419307708740234375">
        <ele>768.79998779296875</ele>
        <time>2013-08-15T16:58:02.000Z</time>
        <extensions>
          <ns3:TrackPointExtension>
            <ns3:atemp>17.0</ns3:atemp>
            <ns3:hr>125</ns3:hr>
          </ns3:TrackPointExtension>
        </extensions>
      </trkpt>
      <trkpt lat="46.611812151968479156494140625" lon="6.88354720361530780792236328125">
        <ele>769</ele>
        <time>2013-08-15T16:58:03.000Z</time>
        <extensions>
          <ns3:TrackPointExtension>
            <ns3:atemp>17.0</ns3:atemp>
            <ns3:hr>125</ns3:hr>
          </ns3:TrackPointExtension>
        </extensions>
      </trkpt>
      <trkpt lat="46.61184945143759250640869140625" lon="6.8836237303912639617919921875">
        <ele>768.79998779296875</ele>
        <time>2013-08-15T16:58:04.000Z</time>
        <extensions>
          <ns3:TrackPointExtension>
            <ns3:atemp>17.0</ns3:atemp>
            <ns3:hr>125</ns3:hr>
          </ns3:TrackPointExtension>
        </extensions>
      </trkpt>
      <trkpt lat="46.611888594925403594970703125" lon="6.8836976587772369384765625">
        <ele>768.5999755859375</ele>
        <time>2013-08-15T16:58:05.000Z</time>
        <extensions>
          <ns3:TrackPointExtension>
            <ns3:atemp>17.0</ns3:atemp>
            <ns3:hr>125</ns3:hr>
          </ns3:TrackPointExtension>
        </extensions>
      </trkpt>
      <trkpt lat="46.6119283251464366912841796875" lon="6.88376940786838531494140625">
        <ele>768.5999755859375</ele>
        <time>2013-08-15T16:58:06.000Z</time>
        <extensions>
          <ns3:TrackPointExtension>
            <ns3:atemp>17.0</ns3:atemp>
            <ns3:hr>125</ns3:hr>
          </ns3:TrackPointExtension>
        </extensions>
      </trkpt>
      <trkpt lat="46.61196880973875522613525390625" lon="6.88384182751178741455078125">
        <ele>768.79998779296875</ele>
        <time>2013-08-15T16:58:07.000Z</time>
        <extensions>
          <ns3:TrackPointExtension>
            <ns3:atemp>17.0</ns3:atemp>
            <ns3:hr>125</ns3:hr>
          </ns3:TrackPointExtension>
        </extensions>
      </trkpt>
      <trkpt lat="46.61200753413140773773193359375" lon="6.88391416333615779876708984375">
        <ele>769</ele>
        <time>2013-08-15T16:58:08.000Z</time>
        <extensions>
          <ns3:TrackPointExtension>
            <ns3:atemp>17.0</ns3:atemp>
            <ns3:hr>125</ns3:hr>
          </ns3:TrackPointExtension>
        </extensions>
      </trkpt>
      <trkpt lat="46.6120416484773159027099609375" lon="6.8839885108172893524169921875">
        <ele>769</ele>
        <time>2013-08-15T16:58:09.000Z</time>
        <extensions>
          <ns3:TrackPointExtension>
            <ns3:atemp>17.0</ns3:atemp>
            <ns3:hr>125</ns3:hr>
          </ns3:TrackPointExtension>
        </extensions>
      </trkpt>
      <trkpt lat="46.6120785288512706756591796875" lon="6.88405933789908885955810546875">
        <ele>768.79998779296875</ele>
        <time>2013-08-15T16:58:10.000Z</time>
        <extensions>
          <ns3:TrackPointExtension>
            <ns3:atemp>17.0</ns3:atemp>
            <ns3:hr>125</ns3:hr>
          </ns3:TrackPointExtension>
        </extensions>
      </trkpt>
      <trkpt lat="46.6121144033968448638916015625" lon="6.8841321766376495361328125">
        <ele>768.5999755859375</ele>
        <time>2013-08-15T16:58:11.000Z</time>
        <extensions>
          <ns3:TrackPointExtension>
            <ns3:atemp>17.0</ns3:atemp>
            <ns3:hr>125</ns3:hr>
          </ns3:TrackPointExtension>
        </extensions>
      </trkpt>
      <trkpt lat="46.61214935593307018280029296875" lon="6.88420551829040050506591796875">
        <ele>768.79998779296875</ele>
        <time>2013-08-15T16:58:12.000Z</time>
        <extensions>
          <ns3:TrackPointExtension>
            <ns3:atemp>17.0</ns3:atemp>
            <ns3:hr>126</ns3:hr>
          </ns3:TrackPointExtension>
        </extensions>
      </trkpt>
      <trkpt lat="46.61218489520251750946044921875" lon="6.88427726738154888153076171875">
        <ele>769</ele>
        <time>2013-08-15T16:58:13.000Z</time>
        <extensions>
          <ns3:TrackPointExtension>
            <ns3:atemp>17.0</ns3:atemp>
            <ns3:hr>126</ns3:hr>
          </ns3:TrackPointExtension>
        </extensions>
      </trkpt>
      <trkpt lat="46.612221859395503997802734375" lon="6.88434700481593608856201171875">
        <ele>769.20001220703125</ele>
        <time>2013-08-15T16:58:14.000Z</time>
        <extensions>
          <ns3:TrackPointExtension>
            <ns3:atemp>17.0</ns3:atemp>
            <ns3:hr>126</ns3:hr>
          </ns3:TrackPointExtension>
        </extensions>
      </trkpt>
      <trkpt lat="46.61225563846528530120849609375" lon="6.8844186700880527496337890625">
        <ele>769</ele>
        <time>2013-08-15T16:58:15.000Z</time>
        <extensions>
          <ns3:TrackPointExtension>
            <ns3:atemp>17.0</ns3:atemp>
            <ns3:hr>125</ns3:hr>
          </ns3:TrackPointExtension>
        </extensions>
      </trkpt>
      <trkpt lat="46.61229084245860576629638671875" lon="6.8844902515411376953125">
        <ele>768.79998779296875</ele>
        <time>2013-08-15T16:58:16.000Z</time>
        <extensions>
          <ns3:TrackPointExtension>
            <ns3:atemp>17.0</ns3:atemp>
            <ns3:hr>125</ns3:hr>
          </ns3:TrackPointExtension>
        </extensions>
      </trkpt>
      <trkpt lat="46.61232587881386280059814453125" lon="6.88456141389906406402587890625">
        <ele>768.5999755859375</ele>
        <time>2013-08-15T16:58:17.000Z</time>
        <extensions>
          <ns3:TrackPointExtension>
            <ns3:atemp>17.0</ns3:atemp>
            <ns3:hr>125</ns3:hr>
          </ns3:TrackPointExtension>
        </extensions>
      </trkpt>
      <trkpt lat="46.61236125044524669647216796875" lon="6.88463232479989528656005859375">
        <ele>768.79998779296875</ele>
        <time>2013-08-15T16:58:18.000Z</time>
        <extensions>
          <ns3:TrackPointExtension>
            <ns3:atemp>17.0</ns3:atemp>
            <ns3:hr>125</ns3:hr>
          </ns3:TrackPointExtension>
        </extensions>
      </trkpt>
      <trkpt lat="46.61239410750567913055419921875" lon="6.8847026489675045013427734375">
        <ele>768.79998779296875</ele>
        <time>2013-08-15T16:58:19.000Z</time>
        <extensions>
          <ns3:TrackPointExtension>
            <ns3:atemp>17.0</ns3:atemp>
            <ns3:hr>126</ns3:hr>
          </ns3:TrackPointExtension>
        </extensions>
      </trkpt>
      <trkpt lat="46.61242646165192127227783203125" lon="6.8847730569541454315185546875">
        <ele>768.79998779296875</ele>
        <time>2013-08-15T16:58:20.000Z</time>
        <extensions>
          <ns3:TrackPointExtension>
            <ns3:atemp>17.0</ns3:atemp>
            <ns3:hr>126</ns3:hr>
          </ns3:TrackPointExtension>
        </extensions>
      </trkpt>
      <trkpt lat="46.612455546855926513671875" lon="6.8848421238362789154052734375">
        <ele>768.79998779296875</ele>
        <time>2013-08-15T16:58:21.000Z</time>
        <extensions>
          <ns3:TrackPointExtension>
            <ns3:atemp>17.0</ns3:atemp>
            <ns3:hr>126</ns3:hr>
          </ns3:TrackPointExtension>
        </extensions>
      </trkpt>
      <trkpt lat="46.61248412914574146270751953125" lon="6.88490926288068294525146484375">
        <ele>768.79998779296875</ele>
        <time>2013-08-15T16:58:22.000Z</time>
        <extensions>
          <ns3:TrackPointExtension>
            <ns3:atemp>17.0</ns3:atemp>
            <ns3:hr>125</ns3:hr>
          </ns3:TrackPointExtension>
        </extensions>
      </trkpt>
      <trkpt lat="46.61251028068363666534423828125" lon="6.88496978022158145904541015625">
        <ele>768.79998779296875</ele>
        <time>2013-08-15T16:58:23.000Z</time>
        <extensions>
          <ns3:TrackPointExtension>
            <ns3:atemp>17.0</ns3:atemp>
            <ns3:hr>125</ns3:hr>
          </ns3:TrackPointExtension>
        </extensions>
      </trkpt>
      <trkpt lat="46.6125373542308807373046875" lon="6.8850241787731647491455078125">
        <ele>768.79998779296875</ele>
        <time>2013-08-15T16:58:24.000Z</time>
        <extensions>
          <ns3:TrackPointExtension>
            <ns3:atemp>17.0</ns3:atemp>
            <ns3:hr>124</ns3:hr>
          </ns3:TrackPointExtension>
        </extensions>
      </trkpt>
      <trkpt lat="46.6125636734068393707275390625" lon="6.88507354818284511566162109375">
        <ele>768.5999755859375</ele>
        <time>2013-08-15T16:58:25.000Z</time>
        <extensions>
          <ns3:TrackPointExtension>
            <ns3:atemp>17.0</ns3:atemp>
            <ns3:hr>123</ns3:hr>
          </ns3:TrackPointExtension>
        </extensions>
      </trkpt>
      <trkpt lat="46.61258756183087825775146484375" lon="6.8851165473461151123046875">
        <ele>768.5999755859375</ele>
        <time>2013-08-15T16:58:26.000Z</time>
        <extensions>
          <ns3:TrackPointExtension>
            <ns3:atemp>17.0</ns3:atemp>
            <ns3:hr>123</ns3:hr>
          </ns3:TrackPointExtension>
        </extensions>
      </trkpt>
      <trkpt lat="46.61261388100683689117431640625" lon="6.88515200279653072357177734375">
        <ele>768.20001220703125</ele>
        <time>2013-08-15T16:58:27.000Z</time>
        <extensions>
          <ns3:TrackPointExtension>
            <ns3:atemp>17.0</ns3:atemp>
            <ns3:hr>122</ns3:hr>
          </ns3:TrackPointExtension>
        </extensions>
      </trkpt>
      <trkpt lat="46.61263332702219486236572265625" lon="6.88517295755445957183837890625">
        <ele>768.20001220703125</ele>
        <time>2013-08-15T16:58:28.000Z</time>
        <extensions>
          <ns3:TrackPointExtension>
            <ns3:atemp>17.0</ns3:atemp>
            <ns3:hr>121</ns3:hr>
          </ns3:TrackPointExtension>
        </extensions>
      </trkpt>
      <trkpt lat="46.61264573223888874053955078125" lon="6.88518150709569454193115234375">
        <ele>768.20001220703125</ele>
        <time>2013-08-15T16:58:29.000Z</time>
        <extensions>
          <ns3:TrackPointExtension>
            <ns3:atemp>17.0</ns3:atemp>
            <ns3:hr>121</ns3:hr>
          </ns3:TrackPointExtension>
        </extensions>
      </trkpt>
      <trkpt lat="46.612651348114013671875" lon="6.88518234528601169586181640625">
        <ele>768.20001220703125</ele>
        <time>2013-08-15T16:58:30.000Z</time>
        <extensions>
          <ns3:TrackPointExtension>
            <ns3:atemp>17.0</ns3:atemp>
            <ns3:hr>120</ns3:hr>
          </ns3:TrackPointExtension>
        </extensions>
      </trkpt>
      <trkpt lat="46.6126481629908084869384765625" lon="6.8851713649928569793701171875">
        <ele>768</ele>
        <time>2013-08-15T16:58:31.000Z</time>
        <extensions>
          <ns3:TrackPointExtension>
            <ns3:atemp>17.0</ns3:atemp>
            <ns3:hr>120</ns3:hr>
          </ns3:TrackPointExtension>
        </extensions>
      </trkpt>
      <trkpt lat="46.61264757625758647918701171875" lon="6.885177232325077056884765625">
        <ele>768</ele>
        <time>2013-08-15T16:58:32.000Z</time>
        <extensions>
          <ns3:TrackPointExtension>
            <ns3:atemp>17.0</ns3:atemp>
            <ns3:hr>119</ns3:hr>
          </ns3:TrackPointExtension>
        </extensions>
      </trkpt>
      <trkpt lat="46.61264556460082530975341796875" lon="6.88517413102090358734130859375">
        <ele>768</ele>
        <time>2013-08-15T16:58:33.000Z</time>
        <extensions>
          <ns3:TrackPointExtension>
            <ns3:atemp>17.0</ns3:atemp>
            <ns3:hr>119</ns3:hr>
          </ns3:TrackPointExtension>
        </extensions>
      </trkpt>
      <trkpt lat="46.61264556460082530975341796875" lon="6.88517413102090358734130859375">
        <ele>768</ele>
        <time>2013-08-15T16:58:34.000Z</time>
        <extensions>
          <ns3:TrackPointExtension>
            <ns3:atemp>17.0</ns3:atemp>
            <ns3:hr>119</ns3:hr>
          </ns3:TrackPointExtension>
        </extensions>
      </trkpt>
      <trkpt lat="46.61264556460082530975341796875" lon="6.88517413102090358734130859375">
        <ele>768</ele>
        <time>2013-08-15T16:58:35.000Z</time>
        <extensions>
          <ns3:TrackPointExtension>
            <ns3:atemp>17.0</ns3:atemp>
            <ns3:hr>119</ns3:hr>
          </ns3:TrackPointExtension>
        </extensions>
      </trkpt>
      <trkpt lat="46.61264556460082530975341796875" lon="6.88517413102090358734130859375">
        <ele>768</ele>
        <time>2013-08-15T16:58:36.000Z</time>
        <extensions>
          <ns3:TrackPointExtension>
            <ns3:atemp>17.0</ns3:atemp>
            <ns3:hr>119</ns3:hr>
          </ns3:TrackPointExtension>
        </extensions>
      </trkpt>
      <trkpt lat="46.61264556460082530975341796875" lon="6.88517413102090358734130859375">
        <ele>768</ele>
        <time>2013-08-15T16:58:37.000Z</time>
        <extensions>
          <ns3:TrackPointExtension>
            <ns3:atemp>17.0</ns3:atemp>
            <ns3:hr>119</ns3:hr>
          </ns3:TrackPointExtension>
        </extensions>
      </trkpt>
      <trkpt lat="46.61264556460082530975341796875" lon="6.88517413102090358734130859375">
        <ele>768</ele>
        <time>2013-08-15T16:58:38.000Z</time>
        <extensions>
          <ns3:TrackPointExtension>
            <ns3:atemp>17.0</ns3:atemp>
            <ns3:hr>118</ns3:hr>
          </ns3:TrackPointExtension>
        </extensions>
      </trkpt>
      <trkpt lat="46.61264556460082530975341796875" lon="6.88517413102090358734130859375">
        <ele>767.79998779296875</ele>
        <time>2013-08-15T16:58:39.000Z</time>
        <extensions>
          <ns3:TrackPointExtension>
            <ns3:atemp>17.0</ns3:atemp>
            <ns3:hr>118</ns3:hr>
          </ns3:TrackPointExtension>
        </extensions>
      </trkpt>
      <trkpt lat="46.61264556460082530975341796875" lon="6.88517413102090358734130859375">
        <ele>767.79998779296875</ele>
        <time>2013-08-15T16:58:40.000Z</time>
        <extensions>
          <ns3:TrackPointExtension>
            <ns3:atemp>17.0</ns3:atemp>
            <ns3:hr>118</ns3:hr>
          </ns3:TrackPointExtension>
        </extensions>
      </trkpt>
      <trkpt lat="46.61264556460082530975341796875" lon="6.88517413102090358734130859375">
        <ele>768</ele>
        <time>2013-08-15T16:58:41.000Z</time>
        <extensions>
          <ns3:TrackPointExtension>
            <ns3:atemp>17.0</ns3:atemp>
            <ns3:hr>118</ns3:hr>
          </ns3:TrackPointExtension>
        </extensions>
      </trkpt>
      <trkpt lat="46.61264556460082530975341796875" lon="6.88517413102090358734130859375">
        <ele>768</ele>
        <time>2013-08-15T16:58:42.000Z</time>
        <extensions>
          <ns3:TrackPointExtension>
            <ns3:atemp>17.0</ns3:atemp>
            <ns3:hr>117</ns3:hr>
          </ns3:TrackPointExtension>
        </extensions>
      </trkpt>
      <trkpt lat="46.61264556460082530975341796875" lon="6.88517413102090358734130859375">
        <ele>768</ele>
        <time>2013-08-15T16:58:43.000Z</time>
        <extensions>
          <ns3:TrackPointExtension>
            <ns3:atemp>17.0</ns3:atemp>
            <ns3:hr>116</ns3:hr>
          </ns3:TrackPointExtension>
        </extensions>
      </trkpt>
      <trkpt lat="46.61264556460082530975341796875" lon="6.88517413102090358734130859375">
        <ele>768</ele>
        <time>2013-08-15T16:58:44.000Z</time>
        <extensions>
          <ns3:TrackPointExtension>
            <ns3:atemp>17.0</ns3:atemp>
            <ns3:hr>114</ns3:hr>
          </ns3:TrackPointExtension>
        </extensions>
      </trkpt>
      <trkpt lat="46.61264556460082530975341796875" lon="6.88517413102090358734130859375">
        <ele>767.79998779296875</ele>
        <time>2013-08-15T16:58:45.000Z</time>
        <extensions>
          <ns3:TrackPointExtension>
            <ns3:atemp>17.0</ns3:atemp>
            <ns3:hr>113</ns3:hr>
          </ns3:TrackPointExtension>
        </extensions>
      </trkpt>
      <trkpt lat="46.61264556460082530975341796875" lon="6.88517413102090358734130859375">
        <ele>767.79998779296875</ele>
        <time>2013-08-15T16:58:46.000Z</time>
        <extensions>
          <ns3:TrackPointExtension>
            <ns3:atemp>17.0</ns3:atemp>
            <ns3:hr>113</ns3:hr>
          </ns3:TrackPointExtension>
        </extensions>
      </trkpt>
      <trkpt lat="46.61264556460082530975341796875" lon="6.88517413102090358734130859375">
        <ele>767.79998779296875</ele>
        <time>2013-08-15T16:58:47.000Z</time>
        <extensions>
          <ns3:TrackPointExtension>
            <ns3:atemp>17.0</ns3:atemp>
            <ns3:hr>112</ns3:hr>
          </ns3:TrackPointExtension>
        </extensions>
      </trkpt>
      <trkpt lat="46.61264556460082530975341796875" lon="6.88517413102090358734130859375">
        <ele>768</ele>
        <time>2013-08-15T16:58:48.000Z</time>
        <extensions>
          <ns3:TrackPointExtension>
            <ns3:atemp>17.0</ns3:atemp>
            <ns3:hr>111</ns3:hr>
          </ns3:TrackPointExtension>
        </extensions>
      </trkpt>
      <trkpt lat="46.61264556460082530975341796875" lon="6.88517413102090358734130859375">
        <ele>767.79998779296875</ele>
        <time>2013-08-15T16:58:49.000Z</time>
        <extensions>
          <ns3:TrackPointExtension>
            <ns3:atemp>17.0</ns3:atemp>
            <ns3:hr>110</ns3:hr>
          </ns3:TrackPointExtension>
        </extensions>
      </trkpt>
      <trkpt lat="46.61264556460082530975341796875" lon="6.88517413102090358734130859375">
        <ele>768</ele>
        <time>2013-08-15T16:58:50.000Z</time>
        <extensions>
          <ns3:TrackPointExtension>
            <ns3:atemp>18.0</ns3:atemp>
            <ns3:hr>109</ns3:hr>
          </ns3:TrackPointExtension>
        </extensions>
      </trkpt>
      <trkpt lat="46.61264556460082530975341796875" lon="6.88517413102090358734130859375">
        <ele>768</ele>
        <time>2013-08-15T16:58:51.000Z</time>
        <extensions>
          <ns3:TrackPointExtension>
            <ns3:atemp>18.0</ns3:atemp>
            <ns3:hr>109</ns3:hr>
          </ns3:TrackPointExtension>
        </extensions>
      </trkpt>
      <trkpt lat="46.61264556460082530975341796875" lon="6.88517413102090358734130859375">
        <ele>768</ele>
        <time>2013-08-15T16:58:52.000Z</time>
        <extensions>
          <ns3:TrackPointExtension>
            <ns3:atemp>18.0</ns3:atemp>
            <ns3:hr>109</ns3:hr>
          </ns3:TrackPointExtension>
        </extensions>
      </trkpt>
      <trkpt lat="46.61264556460082530975341796875" lon="6.88517413102090358734130859375">
        <ele>768</ele>
        <time>2013-08-15T16:58:53.000Z</time>
        <extensions>
          <ns3:TrackPointExtension>
            <ns3:atemp>18.0</ns3:atemp>
            <ns3:hr>108</ns3:hr>
          </ns3:TrackPointExtension>
        </extensions>
      </trkpt>
      <trkpt lat="46.61264556460082530975341796875" lon="6.88517413102090358734130859375">
        <ele>768</ele>
        <time>2013-08-15T16:58:54.000Z</time>
        <extensions>
          <ns3:TrackPointExtension>
            <ns3:atemp>18.0</ns3:atemp>
            <ns3:hr>107</ns3:hr>
          </ns3:TrackPointExtension>
        </extensions>
      </trkpt>
      <trkpt lat="46.61264556460082530975341796875" lon="6.88517413102090358734130859375">
        <ele>768</ele>
        <time>2013-08-15T16:58:55.000Z</time>
        <extensions>
          <ns3:TrackPointExtension>
            <ns3:atemp>18.0</ns3:atemp>
            <ns3:hr>107</ns3:hr>
          </ns3:TrackPointExtension>
        </extensions>
      </trkpt>
      <trkpt lat="46.61264556460082530975341796875" lon="6.88517413102090358734130859375">
        <ele>768</ele>
        <time>2013-08-15T16:58:56.000Z</time>
        <extensions>
          <ns3:TrackPointExtension>
            <ns3:atemp>18.0</ns3:atemp>
            <ns3:hr>107</ns3:hr>
          </ns3:TrackPointExtension>
        </extensions>
      </trkpt>
      <trkpt lat="46.61264556460082530975341796875" lon="6.88517413102090358734130859375">
        <ele>768</ele>
        <time>2013-08-15T16:58:57.000Z</time>
        <extensions>
          <ns3:TrackPointExtension>
            <ns3:atemp>18.0</ns3:atemp>
            <ns3:hr>107</ns3:hr>
          </ns3:TrackPointExtension>
        </extensions>
      </trkpt>
      <trkpt lat="46.61264556460082530975341796875" lon="6.88517413102090358734130859375">
        <ele>767.79998779296875</ele>
        <time>2013-08-15T16:58:58.000Z</time>
        <extensions>
          <ns3:TrackPointExtension>
            <ns3:atemp>18.0</ns3:atemp>
            <ns3:hr>107</ns3:hr>
          </ns3:TrackPointExtension>
        </extensions>
      </trkpt>
      <trkpt lat="46.61264556460082530975341796875" lon="6.88517413102090358734130859375">
        <ele>767.79998779296875</ele>
        <time>2013-08-15T16:58:59.000Z</time>
        <extensions>
          <ns3:TrackPointExtension>
            <ns3:atemp>18.0</ns3:atemp>
            <ns3:hr>107</ns3:hr>
          </ns3:TrackPointExtension>
        </extensions>
      </trkpt>
      <trkpt lat="46.61264556460082530975341796875" lon="6.88517413102090358734130859375">
        <ele>767.79998779296875</ele>
        <time>2013-08-15T16:59:00.000Z</time>
        <extensions>
          <ns3:TrackPointExtension>
            <ns3:atemp>18.0</ns3:atemp>
            <ns3:hr>106</ns3:hr>
          </ns3:TrackPointExtension>
        </extensions>
      </trkpt>
      <trkpt lat="46.61264556460082530975341796875" lon="6.88517413102090358734130859375">
        <ele>767.79998779296875</ele>
        <time>2013-08-15T16:59:01.000Z</time>
        <extensions>
          <ns3:TrackPointExtension>
            <ns3:atemp>18.0</ns3:atemp>
            <ns3:hr>106</ns3:hr>
          </ns3:TrackPointExtension>
        </extensions>
      </trkpt>
      <trkpt lat="46.61264556460082530975341796875" lon="6.88517413102090358734130859375">
        <ele>767.79998779296875</ele>
        <time>2013-08-15T16:59:02.000Z</time>
        <extensions>
          <ns3:TrackPointExtension>
            <ns3:atemp>18.0</ns3:atemp>
            <ns3:hr>105</ns3:hr>
          </ns3:TrackPointExtension>
        </extensions>
      </trkpt>
      <trkpt lat="46.61264556460082530975341796875" lon="6.88517413102090358734130859375">
        <ele>767.79998779296875</ele>
        <time>2013-08-15T16:59:03.000Z</time>
        <extensions>
          <ns3:TrackPointExtension>
            <ns3:atemp>18.0</ns3:atemp>
            <ns3:hr>104</ns3:hr>
          </ns3:TrackPointExtension>
        </extensions>
      </trkpt>
      <trkpt lat="46.61264556460082530975341796875" lon="6.88517413102090358734130859375">
        <ele>768</ele>
        <time>2013-08-15T16:59:04.000Z</time>
        <extensions>
          <ns3:TrackPointExtension>
            <ns3:atemp>18.0</ns3:atemp>
            <ns3:hr>104</ns3:hr>
          </ns3:TrackPointExtension>
        </extensions>
      </trkpt>
      <trkpt lat="46.61264556460082530975341796875" lon="6.88517413102090358734130859375">
        <ele>768</ele>
        <time>2013-08-15T16:59:05.000Z</time>
        <extensions>
          <ns3:TrackPointExtension>
            <ns3:atemp>18.0</ns3:atemp>
            <ns3:hr>103</ns3:hr>
          </ns3:TrackPointExtension>
        </extensions>
      </trkpt>
      <trkpt lat="46.61264556460082530975341796875" lon="6.88517413102090358734130859375">
        <ele>768</ele>
        <time>2013-08-15T16:59:06.000Z</time>
        <extensions>
          <ns3:TrackPointExtension>
            <ns3:atemp>18.0</ns3:atemp>
            <ns3:hr>103</ns3:hr>
          </ns3:TrackPointExtension>
        </extensions>
      </trkpt>
      <trkpt lat="46.61264556460082530975341796875" lon="6.88517413102090358734130859375">
        <ele>768</ele>
        <time>2013-08-15T16:59:07.000Z</time>
        <extensions>
          <ns3:TrackPointExtension>
            <ns3:atemp>18.0</ns3:atemp>
            <ns3:hr>102</ns3:hr>
          </ns3:TrackPointExtension>
        </extensions>
      </trkpt>
      <trkpt lat="46.61264556460082530975341796875" lon="6.88517413102090358734130859375">
        <ele>768</ele>
        <time>2013-08-15T16:59:08.000Z</time>
        <extensions>
          <ns3:TrackPointExtension>
            <ns3:atemp>18.0</ns3:atemp>
            <ns3:hr>102</ns3:hr>
          </ns3:TrackPointExtension>
        </extensions>
      </trkpt>
      <trkpt lat="46.61264556460082530975341796875" lon="6.88517413102090358734130859375">
        <ele>767.79998779296875</ele>
        <time>2013-08-15T16:59:09.000Z</time>
        <extensions>
          <ns3:TrackPointExtension>
            <ns3:atemp>18.0</ns3:atemp>
            <ns3:hr>102</ns3:hr>
          </ns3:TrackPointExtension>
        </extensions>
      </trkpt>
      <trkpt lat="46.61264556460082530975341796875" lon="6.88517413102090358734130859375">
        <ele>767.79998779296875</ele>
        <time>2013-08-15T16:59:10.000Z</time>
        <extensions>
          <ns3:TrackPointExtension>
            <ns3:atemp>18.0</ns3:atemp>
            <ns3:hr>102</ns3:hr>
          </ns3:TrackPointExtension>
        </extensions>
      </trkpt>
      <trkpt lat="46.61264556460082530975341796875" lon="6.88517413102090358734130859375">
        <ele>767.79998779296875</ele>
        <time>2013-08-15T16:59:11.000Z</time>
        <extensions>
          <ns3:TrackPointExtension>
            <ns3:atemp>18.0</ns3:atemp>
            <ns3:hr>102</ns3:hr>
          </ns3:TrackPointExtension>
        </extensions>
      </trkpt>
      <trkpt lat="46.6126473248004913330078125" lon="6.88517354428768157958984375">
        <ele>767.79998779296875</ele>
        <time>2013-08-15T16:59:12.000Z</time>
        <extensions>
          <ns3:TrackPointExtension>
            <ns3:atemp>18.0</ns3:atemp>
            <ns3:hr>101</ns3:hr>
          </ns3:TrackPointExtension>
        </extensions>
      </trkpt>
      <trkpt lat="46.6126473248004913330078125" lon="6.88517354428768157958984375">
        <ele>767.79998779296875</ele>
        <time>2013-08-15T16:59:13.000Z</time>
        <extensions>
          <ns3:TrackPointExtension>
            <ns3:atemp>18.0</ns3:atemp>
            <ns3:hr>101</ns3:hr>
          </ns3:TrackPointExtension>
        </extensions>
      </trkpt>
      <trkpt lat="46.6126473248004913330078125" lon="6.88517354428768157958984375">
        <ele>767.79998779296875</ele>
        <time>2013-08-15T16:59:14.000Z</time>
        <extensions>
          <ns3:TrackPointExtension>
            <ns3:atemp>18.0</ns3:atemp>
            <ns3:hr>101</ns3:hr>
          </ns3:TrackPointExtension>
        </extensions>
      </trkpt>
      <trkpt lat="46.6126473248004913330078125" lon="6.88517354428768157958984375">
        <ele>767.79998779296875</ele>
        <time>2013-08-15T16:59:15.000Z</time>
        <extensions>
          <ns3:TrackPointExtension>
            <ns3:atemp>18.0</ns3:atemp>
            <ns3:hr>101</ns3:hr>
          </ns3:TrackPointExtension>
        </extensions>
      </trkpt>
      <trkpt lat="46.6126473248004913330078125" lon="6.88517354428768157958984375">
        <ele>767.79998779296875</ele>
        <time>2013-08-15T16:59:16.000Z</time>
        <extensions>
          <ns3:TrackPointExtension>
            <ns3:atemp>18.0</ns3:atemp>
            <ns3:hr>102</ns3:hr>
          </ns3:TrackPointExtension>
        </extensions>
      </trkpt>
      <trkpt lat="46.6126473248004913330078125" lon="6.88517354428768157958984375">
        <ele>767.5999755859375</ele>
        <time>2013-08-15T16:59:17.000Z</time>
        <extensions>
          <ns3:TrackPointExtension>
            <ns3:atemp>18.0</ns3:atemp>
            <ns3:hr>102</ns3:hr>
          </ns3:TrackPointExtension>
        </extensions>
      </trkpt>
      <trkpt lat="46.6126473248004913330078125" lon="6.88517354428768157958984375">
        <ele>767.5999755859375</ele>
        <time>2013-08-15T16:59:18.000Z</time>
        <extensions>
          <ns3:TrackPointExtension>
            <ns3:atemp>18.0</ns3:atemp>
            <ns3:hr>103</ns3:hr>
          </ns3:TrackPointExtension>
        </extensions>
      </trkpt>
      <trkpt lat="46.6126473248004913330078125" lon="6.88517354428768157958984375">
        <ele>767.5999755859375</ele>
        <time>2013-08-15T16:59:19.000Z</time>
        <extensions>
          <ns3:TrackPointExtension>
            <ns3:atemp>18.0</ns3:atemp>
            <ns3:hr>103</ns3:hr>
          </ns3:TrackPointExtension>
        </extensions>
      </trkpt>
      <trkpt lat="46.6126473248004913330078125" lon="6.88517354428768157958984375">
        <ele>767.79998779296875</ele>
        <time>2013-08-15T16:59:20.000Z</time>
        <extensions>
          <ns3:TrackPointExtension>
            <ns3:atemp>18.0</ns3:atemp>
            <ns3:hr>103</ns3:hr>
          </ns3:TrackPointExtension>
        </extensions>
      </trkpt>
      <trkpt lat="46.6126473248004913330078125" lon="6.88517354428768157958984375">
        <ele>767.79998779296875</ele>
        <time>2013-08-15T16:59:21.000Z</time>
        <extensions>
          <ns3:TrackPointExtension>
            <ns3:atemp>18.0</ns3:atemp>
            <ns3:hr>103</ns3:hr>
          </ns3:TrackPointExtension>
        </extensions>
      </trkpt>
      <trkpt lat="46.6126473248004913330078125" lon="6.88517354428768157958984375">
        <ele>767.79998779296875</ele>
        <time>2013-08-15T16:59:22.000Z</time>
        <extensions>
          <ns3:TrackPointExtension>
            <ns3:atemp>18.0</ns3:atemp>
            <ns3:hr>103</ns3:hr>
          </ns3:TrackPointExtension>
        </extensions>
      </trkpt>
      <trkpt lat="46.6126473248004913330078125" lon="6.88517354428768157958984375">
        <ele>767.79998779296875</ele>
        <time>2013-08-15T16:59:23.000Z</time>
        <extensions>
          <ns3:TrackPointExtension>
            <ns3:atemp>18.0</ns3:atemp>
            <ns3:hr>102</ns3:hr>
          </ns3:TrackPointExtension>
        </extensions>
      </trkpt>
      <trkpt lat="46.6126473248004913330078125" lon="6.88517354428768157958984375">
        <ele>767.79998779296875</ele>
        <time>2013-08-15T16:59:24.000Z</time>
        <extensions>
          <ns3:TrackPointExtension>
            <ns3:atemp>18.0</ns3:atemp>
            <ns3:hr>102</ns3:hr>
          </ns3:TrackPointExtension>
        </extensions>
      </trkpt>
      <trkpt lat="46.6126473248004913330078125" lon="6.88517354428768157958984375">
        <ele>767.79998779296875</ele>
        <time>2013-08-15T16:59:25.000Z</time>
        <extensions>
          <ns3:TrackPointExtension>
            <ns3:atemp>18.0</ns3:atemp>
            <ns3:hr>102</ns3:hr>
          </ns3:TrackPointExtension>
        </extensions>
      </trkpt>
      <trkpt lat="46.6126473248004913330078125" lon="6.88517354428768157958984375">
        <ele>767.79998779296875</ele>
        <time>2013-08-15T16:59:26.000Z</time>
        <extensions>
          <ns3:TrackPointExtension>
            <ns3:atemp>18.0</ns3:atemp>
            <ns3:hr>102</ns3:hr>
          </ns3:TrackPointExtension>
        </extensions>
      </trkpt>
      <trkpt lat="46.6126473248004913330078125" lon="6.88517354428768157958984375">
        <ele>767.79998779296875</ele>
        <time>2013-08-15T16:59:27.000Z</time>
        <extensions>
          <ns3:TrackPointExtension>
            <ns3:atemp>18.0</ns3:atemp>
            <ns3:hr>102</ns3:hr>
          </ns3:TrackPointExtension>
        </extensions>
      </trkpt>
      <trkpt lat="46.6126473248004913330078125" lon="6.88517354428768157958984375">
        <ele>767.79998779296875</ele>
        <time>2013-08-15T16:59:28.000Z</time>
        <extensions>
          <ns3:TrackPointExtension>
            <ns3:atemp>18.0</ns3:atemp>
            <ns3:hr>103</ns3:hr>
          </ns3:TrackPointExtension>
        </extensions>
      </trkpt>
      <trkpt lat="46.6126473248004913330078125" lon="6.88517354428768157958984375">
        <ele>767.79998779296875</ele>
        <time>2013-08-15T16:59:29.000Z</time>
        <extensions>
          <ns3:TrackPointExtension>
            <ns3:atemp>18.0</ns3:atemp>
            <ns3:hr>103</ns3:hr>
          </ns3:TrackPointExtension>
        </extensions>
      </trkpt>
      <trkpt lat="46.6126473248004913330078125" lon="6.88517354428768157958984375">
        <ele>767.79998779296875</ele>
        <time>2013-08-15T16:59:30.000Z</time>
        <extensions>
          <ns3:TrackPointExtension>
            <ns3:atemp>18.0</ns3:atemp>
            <ns3:hr>103</ns3:hr>
          </ns3:TrackPointExtension>
        </extensions>
      </trkpt>
      <trkpt lat="46.6126473248004913330078125" lon="6.88517354428768157958984375">
        <ele>767.79998779296875</ele>
        <time>2013-08-15T16:59:31.000Z</time>
        <extensions>
          <ns3:TrackPointExtension>
            <ns3:atemp>18.0</ns3:atemp>
            <ns3:hr>102</ns3:hr>
          </ns3:TrackPointExtension>
        </extensions>
      </trkpt>
      <trkpt lat="46.6126473248004913330078125" lon="6.88517354428768157958984375">
        <ele>767.79998779296875</ele>
        <time>2013-08-15T16:59:32.000Z</time>
        <extensions>
          <ns3:TrackPointExtension>
            <ns3:atemp>18.0</ns3:atemp>
            <ns3:hr>102</ns3:hr>
          </ns3:TrackPointExtension>
        </extensions>
      </trkpt>
      <trkpt lat="46.6126473248004913330078125" lon="6.88517354428768157958984375">
        <ele>767.79998779296875</ele>
        <time>2013-08-15T16:59:33.000Z</time>
        <extensions>
          <ns3:TrackPointExtension>
            <ns3:atemp>18.0</ns3:atemp>
            <ns3:hr>101</ns3:hr>
          </ns3:TrackPointExtension>
        </extensions>
      </trkpt>
      <trkpt lat="46.6126473248004913330078125" lon="6.88517354428768157958984375">
        <ele>767.79998779296875</ele>
        <time>2013-08-15T16:59:34.000Z</time>
        <extensions>
          <ns3:TrackPointExtension>
            <ns3:atemp>18.0</ns3:atemp>
            <ns3:hr>101</ns3:hr>
          </ns3:TrackPointExtension>
        </extensions>
      </trkpt>
      <trkpt lat="46.6126473248004913330078125" lon="6.88517354428768157958984375">
        <ele>767.79998779296875</ele>
        <time>2013-08-15T16:59:35.000Z</time>
        <extensions>
          <ns3:TrackPointExtension>
            <ns3:atemp>18.0</ns3:atemp>
            <ns3:hr>101</ns3:hr>
          </ns3:TrackPointExtension>
        </extensions>
      </trkpt>
      <trkpt lat="46.6126473248004913330078125" lon="6.88517354428768157958984375">
        <ele>767.79998779296875</ele>
        <time>2013-08-15T16:59:36.000Z</time>
        <extensions>
          <ns3:TrackPointExtension>
            <ns3:atemp>18.0</ns3:atemp>
            <ns3:hr>101</ns3:hr>
          </ns3:TrackPointExtension>
        </extensions>
      </trkpt>
      <trkpt lat="46.6126473248004913330078125" lon="6.88517354428768157958984375">
        <ele>767.79998779296875</ele>
        <time>2013-08-15T16:59:37.000Z</time>
        <extensions>
          <ns3:TrackPointExtension>
            <ns3:atemp>18.0</ns3:atemp>
            <ns3:hr>102</ns3:hr>
          </ns3:TrackPointExtension>
        </extensions>
      </trkpt>
      <trkpt lat="46.6126473248004913330078125" lon="6.88517354428768157958984375">
        <ele>767.79998779296875</ele>
        <time>2013-08-15T16:59:38.000Z</time>
        <extensions>
          <ns3:TrackPointExtension>
            <ns3:atemp>18.0</ns3:atemp>
            <ns3:hr>102</ns3:hr>
          </ns3:TrackPointExtension>
        </extensions>
      </trkpt>
      <trkpt lat="46.6126473248004913330078125" lon="6.88517354428768157958984375">
        <ele>767.79998779296875</ele>
        <time>2013-08-15T16:59:39.000Z</time>
        <extensions>
          <ns3:TrackPointExtension>
            <ns3:atemp>18.0</ns3:atemp>
            <ns3:hr>102</ns3:hr>
          </ns3:TrackPointExtension>
        </extensions>
      </trkpt>
      <trkpt lat="46.6126473248004913330078125" lon="6.88517354428768157958984375">
        <ele>767.79998779296875</ele>
        <time>2013-08-15T16:59:40.000Z</time>
        <extensions>
          <ns3:TrackPointExtension>
            <ns3:atemp>18.0</ns3:atemp>
            <ns3:hr>103</ns3:hr>
          </ns3:TrackPointExtension>
        </extensions>
      </trkpt>
      <trkpt lat="46.6126473248004913330078125" lon="6.88517354428768157958984375">
        <ele>768</ele>
        <time>2013-08-15T16:59:41.000Z</time>
        <extensions>
          <ns3:TrackPointExtension>
            <ns3:atemp>18.0</ns3:atemp>
            <ns3:hr>103</ns3:hr>
          </ns3:TrackPointExtension>
        </extensions>
      </trkpt>
      <trkpt lat="46.6126473248004913330078125" lon="6.88517354428768157958984375">
        <ele>767.79998779296875</ele>
        <time>2013-08-15T16:59:42.000Z</time>
        <extensions>
          <ns3:TrackPointExtension>
            <ns3:atemp>18.0</ns3:atemp>
            <ns3:hr>104</ns3:hr>
          </ns3:TrackPointExtension>
        </extensions>
      </trkpt>
      <trkpt lat="46.6126473248004913330078125" lon="6.88517354428768157958984375">
        <ele>767.79998779296875</ele>
        <time>2013-08-15T16:59:43.000Z</time>
        <extensions>
          <ns3:TrackPointExtension>
            <ns3:atemp>18.0</ns3:atemp>
            <ns3:hr>104</ns3:hr>
          </ns3:TrackPointExtension>
        </extensions>
      </trkpt>
      <trkpt lat="46.6126473248004913330078125" lon="6.88517354428768157958984375">
        <ele>767.79998779296875</ele>
        <time>2013-08-15T16:59:44.000Z</time>
        <extensions>
          <ns3:TrackPointExtension>
            <ns3:atemp>18.0</ns3:atemp>
            <ns3:hr>104</ns3:hr>
          </ns3:TrackPointExtension>
        </extensions>
      </trkpt>
      <trkpt lat="46.6126473248004913330078125" lon="6.88517354428768157958984375">
        <ele>767.79998779296875</ele>
        <time>2013-08-15T16:59:45.000Z</time>
        <extensions>
          <ns3:TrackPointExtension>
            <ns3:atemp>18.0</ns3:atemp>
            <ns3:hr>104</ns3:hr>
          </ns3:TrackPointExtension>
        </extensions>
      </trkpt>
      <trkpt lat="46.6126473248004913330078125" lon="6.88517354428768157958984375">
        <ele>767.79998779296875</ele>
        <time>2013-08-15T16:59:46.000Z</time>
        <extensions>
          <ns3:TrackPointExtension>
            <ns3:atemp>18.0</ns3:atemp>
            <ns3:hr>104</ns3:hr>
          </ns3:TrackPointExtension>
        </extensions>
      </trkpt>
      <trkpt lat="46.6126473248004913330078125" lon="6.88517354428768157958984375">
        <ele>767.79998779296875</ele>
        <time>2013-08-15T16:59:47.000Z</time>
        <extensions>
          <ns3:TrackPointExtension>
            <ns3:atemp>18.0</ns3:atemp>
            <ns3:hr>103</ns3:hr>
          </ns3:TrackPointExtension>
        </extensions>
      </trkpt>
      <trkpt lat="46.6126473248004913330078125" lon="6.88517354428768157958984375">
        <ele>767.79998779296875</ele>
        <time>2013-08-15T16:59:48.000Z</time>
        <extensions>
          <ns3:TrackPointExtension>
            <ns3:atemp>18.0</ns3:atemp>
            <ns3:hr>103</ns3:hr>
          </ns3:TrackPointExtension>
        </extensions>
      </trkpt>
      <trkpt lat="46.6126473248004913330078125" lon="6.88517354428768157958984375">
        <ele>767.79998779296875</ele>
        <time>2013-08-15T16:59:49.000Z</time>
        <extensions>
          <ns3:TrackPointExtension>
            <ns3:atemp>18.0</ns3:atemp>
            <ns3:hr>102</ns3:hr>
          </ns3:TrackPointExtension>
        </extensions>
      </trkpt>
      <trkpt lat="46.6126473248004913330078125" lon="6.88517354428768157958984375">
        <ele>768</ele>
        <time>2013-08-15T16:59:50.000Z</time>
        <extensions>
          <ns3:TrackPointExtension>
            <ns3:atemp>18.0</ns3:atemp>
            <ns3:hr>102</ns3:hr>
          </ns3:TrackPointExtension>
        </extensions>
      </trkpt>
      <trkpt lat="46.6126473248004913330078125" lon="6.88517354428768157958984375">
        <ele>767.79998779296875</ele>
        <time>2013-08-15T16:59:51.000Z</time>
        <extensions>
          <ns3:TrackPointExtension>
            <ns3:atemp>18.0</ns3:atemp>
            <ns3:hr>101</ns3:hr>
          </ns3:TrackPointExtension>
        </extensions>
      </trkpt>
      <trkpt lat="46.6126431338489055633544921875" lon="6.885181926190853118896484375">
        <ele>767.79998779296875</ele>
        <time>2013-08-15T16:59:52.000Z</time>
        <extensions>
          <ns3:TrackPointExtension>
            <ns3:atemp>18.0</ns3:atemp>
            <ns3:hr>101</ns3:hr>
          </ns3:TrackPointExtension>
        </extensions>
      </trkpt>
      <trkpt lat="46.6126431338489055633544921875" lon="6.885181926190853118896484375">
        <ele>767.79998779296875</ele>
        <time>2013-08-15T16:59:53.000Z</time>
        <extensions>
          <ns3:TrackPointExtension>
            <ns3:atemp>18.0</ns3:atemp>
            <ns3:hr>102</ns3:hr>
          </ns3:TrackPointExtension>
        </extensions>
      </trkpt>
      <trkpt lat="46.6126431338489055633544921875" lon="6.885181926190853118896484375">
        <ele>768</ele>
        <time>2013-08-15T16:59:54.000Z</time>
        <extensions>
          <ns3:TrackPointExtension>
            <ns3:atemp>18.0</ns3:atemp>
            <ns3:hr>102</ns3:hr>
          </ns3:TrackPointExtension>
        </extensions>
      </trkpt>
      <trkpt lat="46.6126431338489055633544921875" lon="6.885181926190853118896484375">
        <ele>768</ele>
        <time>2013-08-15T16:59:55.000Z</time>
        <extensions>
          <ns3:TrackPointExtension>
            <ns3:atemp>18.0</ns3:atemp>
            <ns3:hr>102</ns3:hr>
          </ns3:TrackPointExtension>
        </extensions>
      </trkpt>
      <trkpt lat="46.6126431338489055633544921875" lon="6.885181926190853118896484375">
        <ele>768</ele>
        <time>2013-08-15T16:59:56.000Z</time>
        <extensions>
          <ns3:TrackPointExtension>
            <ns3:atemp>18.0</ns3:atemp>
            <ns3:hr>102</ns3:hr>
          </ns3:TrackPointExtension>
        </extensions>
      </trkpt>
      <trkpt lat="46.6126431338489055633544921875" lon="6.885181926190853118896484375">
        <ele>768</ele>
        <time>2013-08-15T16:59:57.000Z</time>
        <extensions>
          <ns3:TrackPointExtension>
            <ns3:atemp>18.0</ns3:atemp>
            <ns3:hr>103</ns3:hr>
          </ns3:TrackPointExtension>
        </extensions>
      </trkpt>
      <trkpt lat="46.6126431338489055633544921875" lon="6.885181926190853118896484375">
        <ele>768</ele>
        <time>2013-08-15T16:59:58.000Z</time>
        <extensions>
          <ns3:TrackPointExtension>
            <ns3:atemp>18.0</ns3:atemp>
            <ns3:hr>103</ns3:hr>
          </ns3:TrackPointExtension>
        </extensions>
      </trkpt>
      <trkpt lat="46.6126431338489055633544921875" lon="6.885181926190853118896484375">
        <ele>768</ele>
        <time>2013-08-15T16:59:59.000Z</time>
        <extensions>
          <ns3:TrackPointExtension>
            <ns3:atemp>18.0</ns3:atemp>
            <ns3:hr>104</ns3:hr>
          </ns3:TrackPointExtension>
        </extensions>
      </trkpt>
      <trkpt lat="46.6126431338489055633544921875" lon="6.885181926190853118896484375">
        <ele>767.79998779296875</ele>
        <time>2013-08-15T17:00:00.000Z</time>
        <extensions>
          <ns3:TrackPointExtension>
            <ns3:atemp>18.0</ns3:atemp>
            <ns3:hr>103</ns3:hr>
          </ns3:TrackPointExtension>
        </extensions>
      </trkpt>
      <trkpt lat="46.6126431338489055633544921875" lon="6.885181926190853118896484375">
        <ele>768</ele>
        <time>2013-08-15T17:00:01.000Z</time>
        <extensions>
          <ns3:TrackPointExtension>
            <ns3:atemp>18.0</ns3:atemp>
            <ns3:hr>103</ns3:hr>
          </ns3:TrackPointExtension>
        </extensions>
      </trkpt>
      <trkpt lat="46.6126431338489055633544921875" lon="6.885181926190853118896484375">
        <ele>768</ele>
        <time>2013-08-15T17:00:02.000Z</time>
        <extensions>
          <ns3:TrackPointExtension>
            <ns3:atemp>18.0</ns3:atemp>
            <ns3:hr>103</ns3:hr>
          </ns3:TrackPointExtension>
        </extensions>
      </trkpt>
      <trkpt lat="46.6126431338489055633544921875" lon="6.885181926190853118896484375">
        <ele>768</ele>
        <time>2013-08-15T17:00:03.000Z</time>
        <extensions>
          <ns3:TrackPointExtension>
            <ns3:atemp>18.0</ns3:atemp>
            <ns3:hr>103</ns3:hr>
          </ns3:TrackPointExtension>
        </extensions>
      </trkpt>
      <trkpt lat="46.6126431338489055633544921875" lon="6.885181926190853118896484375">
        <ele>768</ele>
        <time>2013-08-15T17:00:04.000Z</time>
        <extensions>
          <ns3:TrackPointExtension>
            <ns3:atemp>18.0</ns3:atemp>
            <ns3:hr>103</ns3:hr>
          </ns3:TrackPointExtension>
        </extensions>
      </trkpt>
      <trkpt lat="46.6126431338489055633544921875" lon="6.885181926190853118896484375">
        <ele>767.79998779296875</ele>
        <time>2013-08-15T17:00:05.000Z</time>
        <extensions>
          <ns3:TrackPointExtension>
            <ns3:atemp>18.0</ns3:atemp>
            <ns3:hr>104</ns3:hr>
          </ns3:TrackPointExtension>
        </extensions>
      </trkpt>
      <trkpt lat="46.6126431338489055633544921875" lon="6.885181926190853118896484375">
        <ele>767.79998779296875</ele>
        <time>2013-08-15T17:00:06.000Z</time>
        <extensions>
          <ns3:TrackPointExtension>
            <ns3:atemp>18.0</ns3:atemp>
            <ns3:hr>104</ns3:hr>
          </ns3:TrackPointExtension>
        </extensions>
      </trkpt>
      <trkpt lat="46.6126431338489055633544921875" lon="6.885181926190853118896484375">
        <ele>767.79998779296875</ele>
        <time>2013-08-15T17:00:07.000Z</time>
        <extensions>
          <ns3:TrackPointExtension>
            <ns3:atemp>18.0</ns3:atemp>
            <ns3:hr>104</ns3:hr>
          </ns3:TrackPointExtension>
        </extensions>
      </trkpt>
      <trkpt lat="46.6126414574682712554931640625" lon="6.88518687151372432708740234375">
        <ele>768</ele>
        <time>2013-08-15T17:00:08.000Z</time>
        <extensions>
          <ns3:TrackPointExtension>
            <ns3:atemp>18.0</ns3:atemp>
            <ns3:hr>104</ns3:hr>
          </ns3:TrackPointExtension>
        </extensions>
      </trkpt>
      <trkpt lat="46.6126431338489055633544921875" lon="6.885181926190853118896484375">
        <ele>767.79998779296875</ele>
        <time>2013-08-15T17:00:09.000Z</time>
        <extensions>
          <ns3:TrackPointExtension>
            <ns3:atemp>18.0</ns3:atemp>
            <ns3:hr>105</ns3:hr>
          </ns3:TrackPointExtension>
        </extensions>
      </trkpt>
      <trkpt lat="46.6126431338489055633544921875" lon="6.885181926190853118896484375">
        <ele>767.79998779296875</ele>
        <time>2013-08-15T17:00:10.000Z</time>
        <extensions>
          <ns3:TrackPointExtension>
            <ns3:atemp>18.0</ns3:atemp>
            <ns3:hr>105</ns3:hr>
          </ns3:TrackPointExtension>
        </extensions>
      </trkpt>
      <trkpt lat="46.6126431338489055633544921875" lon="6.885181926190853118896484375">
        <ele>768</ele>
        <time>2013-08-15T17:00:11.000Z</time>
        <extensions>
          <ns3:TrackPointExtension>
            <ns3:atemp>18.0</ns3:atemp>
            <ns3:hr>105</ns3:hr>
          </ns3:TrackPointExtension>
        </extensions>
      </trkpt>
      <trkpt lat="46.6126431338489055633544921875" lon="6.885181926190853118896484375">
        <ele>768</ele>
        <time>2013-08-15T17:00:12.000Z</time>
        <extensions>
          <ns3:TrackPointExtension>
            <ns3:atemp>18.0</ns3:atemp>
            <ns3:hr>105</ns3:hr>
          </ns3:TrackPointExtension>
        </extensions>
      </trkpt>
      <trkpt lat="46.6126431338489055633544921875" lon="6.885181926190853118896484375">
        <ele>768</ele>
        <time>2013-08-15T17:00:13.000Z</time>
        <extensions>
          <ns3:TrackPointExtension>
            <ns3:atemp>18.0</ns3:atemp>
            <ns3:hr>104</ns3:hr>
          </ns3:TrackPointExtension>
        </extensions>
      </trkpt>
      <trkpt lat="46.6126431338489055633544921875" lon="6.885181926190853118896484375">
        <ele>768</ele>
        <time>2013-08-15T17:00:14.000Z</time>
        <extensions>
          <ns3:TrackPointExtension>
            <ns3:atemp>18.0</ns3:atemp>
            <ns3:hr>104</ns3:hr>
          </ns3:TrackPointExtension>
        </extensions>
      </trkpt>
      <trkpt lat="46.6126431338489055633544921875" lon="6.885181926190853118896484375">
        <ele>768</ele>
        <time>2013-08-15T17:00:15.000Z</time>
        <extensions>
          <ns3:TrackPointExtension>
            <ns3:atemp>18.0</ns3:atemp>
            <ns3:hr>104</ns3:hr>
          </ns3:TrackPointExtension>
        </extensions>
      </trkpt>
      <trkpt lat="46.6126431338489055633544921875" lon="6.885181926190853118896484375">
        <ele>768</ele>
        <time>2013-08-15T17:00:16.000Z</time>
        <extensions>
          <ns3:TrackPointExtension>
            <ns3:atemp>18.0</ns3:atemp>
            <ns3:hr>103</ns3:hr>
          </ns3:TrackPointExtension>
        </extensions>
      </trkpt>
      <trkpt lat="46.6126431338489055633544921875" lon="6.885181926190853118896484375">
        <ele>768</ele>
        <time>2013-08-15T17:00:17.000Z</time>
        <extensions>
          <ns3:TrackPointExtension>
            <ns3:atemp>18.0</ns3:atemp>
            <ns3:hr>103</ns3:hr>
          </ns3:TrackPointExtension>
        </extensions>
      </trkpt>
      <trkpt lat="46.6126431338489055633544921875" lon="6.885181926190853118896484375">
        <ele>767.79998779296875</ele>
        <time>2013-08-15T17:00:18.000Z</time>
        <extensions>
          <ns3:TrackPointExtension>
            <ns3:atemp>18.0</ns3:atemp>
            <ns3:hr>103</ns3:hr>
          </ns3:TrackPointExtension>
        </extensions>
      </trkpt>
      <trkpt lat="46.6126431338489055633544921875" lon="6.885181926190853118896484375">
        <ele>767.79998779296875</ele>
        <time>2013-08-15T17:00:19.000Z</time>
        <extensions>
          <ns3:TrackPointExtension>
            <ns3:atemp>18.0</ns3:atemp>
            <ns3:hr>104</ns3:hr>
          </ns3:TrackPointExtension>
        </extensions>
      </trkpt>
      <trkpt lat="46.6126431338489055633544921875" lon="6.885181926190853118896484375">
        <ele>767.79998779296875</ele>
        <time>2013-08-15T17:00:20.000Z</time>
        <extensions>
          <ns3:TrackPointExtension>
            <ns3:atemp>18.0</ns3:atemp>
            <ns3:hr>104</ns3:hr>
          </ns3:TrackPointExtension>
        </extensions>
      </trkpt>
      <trkpt lat="46.6126431338489055633544921875" lon="6.885181926190853118896484375">
        <ele>767.79998779296875</ele>
        <time>2013-08-15T17:00:21.000Z</time>
        <extensions>
          <ns3:TrackPointExtension>
            <ns3:atemp>18.0</ns3:atemp>
            <ns3:hr>104</ns3:hr>
          </ns3:TrackPointExtension>
        </extensions>
      </trkpt>
      <trkpt lat="46.6126431338489055633544921875" lon="6.885181926190853118896484375">
        <ele>768</ele>
        <time>2013-08-15T17:00:22.000Z</time>
        <extensions>
          <ns3:TrackPointExtension>
            <ns3:atemp>18.0</ns3:atemp>
            <ns3:hr>104</ns3:hr>
          </ns3:TrackPointExtension>
        </extensions>
      </trkpt>
      <trkpt lat="46.6126431338489055633544921875" lon="6.885181926190853118896484375">
        <ele>768</ele>
        <time>2013-08-15T17:00:23.000Z</time>
        <extensions>
          <ns3:TrackPointExtension>
            <ns3:atemp>18.0</ns3:atemp>
            <ns3:hr>104</ns3:hr>
          </ns3:TrackPointExtension>
        </extensions>
      </trkpt>
      <trkpt lat="46.6126431338489055633544921875" lon="6.885181926190853118896484375">
        <ele>768</ele>
        <time>2013-08-15T17:00:24.000Z</time>
        <extensions>
          <ns3:TrackPointExtension>
            <ns3:atemp>18.0</ns3:atemp>
            <ns3:hr>104</ns3:hr>
          </ns3:TrackPointExtension>
        </extensions>
      </trkpt>
      <trkpt lat="46.6126431338489055633544921875" lon="6.885181926190853118896484375">
        <ele>767.79998779296875</ele>
        <time>2013-08-15T17:00:25.000Z</time>
        <extensions>
          <ns3:TrackPointExtension>
            <ns3:atemp>18.0</ns3:atemp>
            <ns3:hr>104</ns3:hr>
          </ns3:TrackPointExtension>
        </extensions>
      </trkpt>
      <trkpt lat="46.6126431338489055633544921875" lon="6.885181926190853118896484375">
        <ele>767.79998779296875</ele>
        <time>2013-08-15T17:00:26.000Z</time>
        <extensions>
          <ns3:TrackPointExtension>
            <ns3:atemp>18.0</ns3:atemp>
            <ns3:hr>104</ns3:hr>
          </ns3:TrackPointExtension>
        </extensions>
      </trkpt>
      <trkpt lat="46.6126431338489055633544921875" lon="6.885181926190853118896484375">
        <ele>767.79998779296875</ele>
        <time>2013-08-15T17:00:27.000Z</time>
        <extensions>
          <ns3:TrackPointExtension>
            <ns3:atemp>18.0</ns3:atemp>
            <ns3:hr>104</ns3:hr>
          </ns3:TrackPointExtension>
        </extensions>
      </trkpt>
      <trkpt lat="46.6126431338489055633544921875" lon="6.885181926190853118896484375">
        <ele>767.79998779296875</ele>
        <time>2013-08-15T17:00:28.000Z</time>
        <extensions>
          <ns3:TrackPointExtension>
            <ns3:atemp>18.0</ns3:atemp>
            <ns3:hr>104</ns3:hr>
          </ns3:TrackPointExtension>
        </extensions>
      </trkpt>
      <trkpt lat="46.6126431338489055633544921875" lon="6.885181926190853118896484375">
        <ele>767.79998779296875</ele>
        <time>2013-08-15T17:00:29.000Z</time>
        <extensions>
          <ns3:TrackPointExtension>
            <ns3:atemp>18.0</ns3:atemp>
            <ns3:hr>104</ns3:hr>
          </ns3:TrackPointExtension>
        </extensions>
      </trkpt>
      <trkpt lat="46.6126431338489055633544921875" lon="6.885181926190853118896484375">
        <ele>767.79998779296875</ele>
        <time>2013-08-15T17:00:30.000Z</time>
        <extensions>
          <ns3:TrackPointExtension>
            <ns3:atemp>18.0</ns3:atemp>
            <ns3:hr>104</ns3:hr>
          </ns3:TrackPointExtension>
        </extensions>
      </trkpt>
      <trkpt lat="46.6126431338489055633544921875" lon="6.885181926190853118896484375">
        <ele>767.79998779296875</ele>
        <time>2013-08-15T17:00:31.000Z</time>
        <extensions>
          <ns3:TrackPointExtension>
            <ns3:atemp>18.0</ns3:atemp>
            <ns3:hr>104</ns3:hr>
          </ns3:TrackPointExtension>
        </extensions>
      </trkpt>
      <trkpt lat="46.61263869144022464752197265625" lon="6.88519609160721302032470703125">
        <ele>767.79998779296875</ele>
        <time>2013-08-15T17:00:32.000Z</time>
        <extensions>
          <ns3:TrackPointExtension>
            <ns3:atemp>18.0</ns3:atemp>
            <ns3:hr>104</ns3:hr>
          </ns3:TrackPointExtension>
        </extensions>
      </trkpt>
      <trkpt lat="46.61263869144022464752197265625" lon="6.88519609160721302032470703125">
        <ele>767.79998779296875</ele>
        <time>2013-08-15T17:00:33.000Z</time>
        <extensions>
          <ns3:TrackPointExtension>
            <ns3:atemp>18.0</ns3:atemp>
            <ns3:hr>104</ns3:hr>
          </ns3:TrackPointExtension>
        </extensions>
      </trkpt>
      <trkpt lat="46.61263869144022464752197265625" lon="6.88519609160721302032470703125">
        <ele>767.79998779296875</ele>
        <time>2013-08-15T17:00:34.000Z</time>
        <extensions>
          <ns3:TrackPointExtension>
            <ns3:atemp>18.0</ns3:atemp>
            <ns3:hr>104</ns3:hr>
          </ns3:TrackPointExtension>
        </extensions>
      </trkpt>
      <trkpt lat="46.61263869144022464752197265625" lon="6.88519609160721302032470703125">
        <ele>767.79998779296875</ele>
        <time>2013-08-15T17:00:35.000Z</time>
        <extensions>
          <ns3:TrackPointExtension>
            <ns3:atemp>18.0</ns3:atemp>
            <ns3:hr>104</ns3:hr>
          </ns3:TrackPointExtension>
        </extensions>
      </trkpt>
      <trkpt lat="46.61263869144022464752197265625" lon="6.88519609160721302032470703125">
        <ele>767.79998779296875</ele>
        <time>2013-08-15T17:00:36.000Z</time>
        <extensions>
          <ns3:TrackPointExtension>
            <ns3:atemp>18.0</ns3:atemp>
            <ns3:hr>104</ns3:hr>
          </ns3:TrackPointExtension>
        </extensions>
      </trkpt>
      <trkpt lat="46.61263869144022464752197265625" lon="6.88519609160721302032470703125">
        <ele>767.79998779296875</ele>
        <time>2013-08-15T17:00:37.000Z</time>
        <extensions>
          <ns3:TrackPointExtension>
            <ns3:atemp>18.0</ns3:atemp>
            <ns3:hr>104</ns3:hr>
          </ns3:TrackPointExtension>
        </extensions>
      </trkpt>
      <trkpt lat="46.61263869144022464752197265625" lon="6.88519609160721302032470703125">
        <ele>767.79998779296875</ele>
        <time>2013-08-15T17:00:38.000Z</time>
        <extensions>
          <ns3:TrackPointExtension>
            <ns3:atemp>18.0</ns3:atemp>
            <ns3:hr>104</ns3:hr>
          </ns3:TrackPointExtension>
        </extensions>
      </trkpt>
      <trkpt lat="46.61263869144022464752197265625" lon="6.88519609160721302032470703125">
        <ele>767.79998779296875</ele>
        <time>2013-08-15T17:00:39.000Z</time>
        <extensions>
          <ns3:TrackPointExtension>
            <ns3:atemp>18.0</ns3:atemp>
            <ns3:hr>104</ns3:hr>
          </ns3:TrackPointExtension>
        </extensions>
      </trkpt>
      <trkpt lat="46.61263869144022464752197265625" lon="6.88519609160721302032470703125">
        <ele>767.79998779296875</ele>
        <time>2013-08-15T17:00:40.000Z</time>
        <extensions>
          <ns3:TrackPointExtension>
            <ns3:atemp>18.0</ns3:atemp>
            <ns3:hr>104</ns3:hr>
          </ns3:TrackPointExtension>
        </extensions>
      </trkpt>
      <trkpt lat="46.61263869144022464752197265625" lon="6.88519609160721302032470703125">
        <ele>768</ele>
        <time>2013-08-15T17:00:41.000Z</time>
        <extensions>
          <ns3:TrackPointExtension>
            <ns3:atemp>18.0</ns3:atemp>
            <ns3:hr>105</ns3:hr>
          </ns3:TrackPointExtension>
        </extensions>
      </trkpt>
      <trkpt lat="46.61263869144022464752197265625" lon="6.88519609160721302032470703125">
        <ele>768</ele>
        <time>2013-08-15T17:00:42.000Z</time>
        <extensions>
          <ns3:TrackPointExtension>
            <ns3:atemp>18.0</ns3:atemp>
            <ns3:hr>106</ns3:hr>
          </ns3:TrackPointExtension>
        </extensions>
      </trkpt>
      <trkpt lat="46.61263869144022464752197265625" lon="6.88519609160721302032470703125">
        <ele>768</ele>
        <time>2013-08-15T17:00:43.000Z</time>
        <extensions>
          <ns3:TrackPointExtension>
            <ns3:atemp>18.0</ns3:atemp>
            <ns3:hr>106</ns3:hr>
          </ns3:TrackPointExtension>
        </extensions>
      </trkpt>
      <trkpt lat="46.61264170892536640167236328125" lon="6.88520195893943309783935546875">
        <ele>767.79998779296875</ele>
        <time>2013-08-15T17:00:44.000Z</time>
        <extensions>
          <ns3:TrackPointExtension>
            <ns3:atemp>18.0</ns3:atemp>
            <ns3:hr>106</ns3:hr>
          </ns3:TrackPointExtension>
        </extensions>
      </trkpt>
      <trkpt lat="46.6126562096178531646728515625" lon="6.8852169625461101531982421875">
        <ele>767.79998779296875</ele>
        <time>2013-08-15T17:00:45.000Z</time>
        <extensions>
          <ns3:TrackPointExtension>
            <ns3:atemp>18.0</ns3:atemp>
            <ns3:hr>106</ns3:hr>
          </ns3:TrackPointExtension>
        </extensions>
      </trkpt>
      <trkpt lat="46.61266350187361240386962890625" lon="6.88522526063024997711181640625">
        <ele>767.79998779296875</ele>
        <time>2013-08-15T17:00:46.000Z</time>
        <extensions>
          <ns3:TrackPointExtension>
            <ns3:atemp>18.0</ns3:atemp>
            <ns3:hr>106</ns3:hr>
          </ns3:TrackPointExtension>
        </extensions>
      </trkpt>
      <trkpt lat="46.61267389543354511260986328125" lon="6.8852357380092144012451171875">
        <ele>768</ele>
        <time>2013-08-15T17:00:47.000Z</time>
        <extensions>
          <ns3:TrackPointExtension>
            <ns3:atemp>18.0</ns3:atemp>
            <ns3:hr>106</ns3:hr>
          </ns3:TrackPointExtension>
        </extensions>
      </trkpt>
      <trkpt lat="46.61268361844122409820556640625" lon="6.88523431308567523956298828125">
        <ele>768</ele>
        <time>2013-08-15T17:00:48.000Z</time>
        <extensions>
          <ns3:TrackPointExtension>
            <ns3:atemp>18.0</ns3:atemp>
            <ns3:hr>106</ns3:hr>
          </ns3:TrackPointExtension>
        </extensions>
      </trkpt>
      <trkpt lat="46.612693257629871368408203125" lon="6.88524554483592510223388671875">
        <ele>768</ele>
        <time>2013-08-15T17:00:49.000Z</time>
        <extensions>
          <ns3:TrackPointExtension>
            <ns3:atemp>18.0</ns3:atemp>
            <ns3:hr>105</ns3:hr>
          </ns3:TrackPointExtension>
        </extensions>
      </trkpt>
      <trkpt lat="46.61270708777010440826416015625" lon="6.8852618895471096038818359375">
        <ele>768</ele>
        <time>2013-08-15T17:00:50.000Z</time>
        <extensions>
          <ns3:TrackPointExtension>
            <ns3:atemp>18.0</ns3:atemp>
            <ns3:hr>104</ns3:hr>
          </ns3:TrackPointExtension>
        </extensions>
      </trkpt>
      <trkpt lat="46.61272443830966949462890625" lon="6.88528158701956272125244140625">
        <ele>768.20001220703125</ele>
        <time>2013-08-15T17:00:51.000Z</time>
        <extensions>
          <ns3:TrackPointExtension>
            <ns3:atemp>18.0</ns3:atemp>
            <ns3:hr>104</ns3:hr>
          </ns3:TrackPointExtension>
        </extensions>
      </trkpt>
      <trkpt lat="46.61274187266826629638671875" lon="6.8853041343390941619873046875">
        <ele>768.5999755859375</ele>
        <time>2013-08-15T17:00:52.000Z</time>
        <extensions>
          <ns3:TrackPointExtension>
            <ns3:atemp>18.0</ns3:atemp>
            <ns3:hr>104</ns3:hr>
          </ns3:TrackPointExtension>
        </extensions>
      </trkpt>
      <trkpt lat="46.6127624921500682830810546875" lon="6.8853232450783252716064453125">
        <ele>768.5999755859375</ele>
        <time>2013-08-15T17:00:53.000Z</time>
        <extensions>
          <ns3:TrackPointExtension>
            <ns3:atemp>18.0</ns3:atemp>
            <ns3:hr>104</ns3:hr>
          </ns3:TrackPointExtension>
        </extensions>
      </trkpt>
      <trkpt lat="46.6127909906208515167236328125" lon="6.88533036969602108001708984375">
        <ele>768.79998779296875</ele>
        <time>2013-08-15T17:00:54.000Z</time>
        <extensions>
          <ns3:TrackPointExtension>
            <ns3:atemp>18.0</ns3:atemp>
            <ns3:hr>104</ns3:hr>
          </ns3:TrackPointExtension>
        </extensions>
      </trkpt>
      <trkpt lat="46.61281370557844638824462890625" lon="6.88532173633575439453125">
        <ele>768.79998779296875</ele>
        <time>2013-08-15T17:00:55.000Z</time>
        <extensions>
          <ns3:TrackPointExtension>
            <ns3:atemp>18.0</ns3:atemp>
            <ns3:hr>104</ns3:hr>
          </ns3:TrackPointExtension>
        </extensions>
      </trkpt>
      <trkpt lat="46.6128449700772762298583984375" lon="6.88531260006129741668701171875">
        <ele>769</ele>
        <time>2013-08-15T17:00:56.000Z</time>
        <extensions>
          <ns3:TrackPointExtension>
            <ns3:atemp>18.0</ns3:atemp>
            <ns3:hr>104</ns3:hr>
          </ns3:TrackPointExtension>
        </extensions>
      </trkpt>
      <trkpt lat="46.6128805093467235565185546875" lon="6.88529080711305141448974609375">
        <ele>769.20001220703125</ele>
        <time>2013-08-15T17:00:57.000Z</time>
        <extensions>
          <ns3:TrackPointExtension>
            <ns3:atemp>18.0</ns3:atemp>
            <ns3:hr>105</ns3:hr>
          </ns3:TrackPointExtension>
        </extensions>
      </trkpt>
      <trkpt lat="46.612916551530361175537109375" lon="6.88526281155645847320556640625">
        <ele>769.20001220703125</ele>
        <time>2013-08-15T17:00:58.000Z</time>
        <extensions>
          <ns3:TrackPointExtension>
            <ns3:atemp>18.0</ns3:atemp>
            <ns3:hr>106</ns3:hr>
          </ns3:TrackPointExtension>
        </extensions>
      </trkpt>
      <trkpt lat="46.61295334808528423309326171875" lon="6.88523062504827976226806640625">
        <ele>769.4000244140625</ele>
        <time>2013-08-15T17:00:59.000Z</time>
        <extensions>
          <ns3:TrackPointExtension>
            <ns3:atemp>18.0</ns3:atemp>
            <ns3:hr>106</ns3:hr>
          </ns3:TrackPointExtension>
        </extensions>
      </trkpt>
      <trkpt lat="46.61298804916441440582275390625" lon="6.8851968459784984588623046875">
        <ele>769.5999755859375</ele>
        <time>2013-08-15T17:01:00.000Z</time>
        <extensions>
          <ns3:TrackPointExtension>
            <ns3:atemp>18.0</ns3:atemp>
            <ns3:hr>107</ns3:hr>
          </ns3:TrackPointExtension>
        </extensions>
      </trkpt>
      <trkpt lat="46.613025180995464324951171875" lon="6.88516306690871715545654296875">
        <ele>769.5999755859375</ele>
        <time>2013-08-15T17:01:01.000Z</time>
        <extensions>
          <ns3:TrackPointExtension>
            <ns3:atemp>18.0</ns3:atemp>
            <ns3:hr>107</ns3:hr>
          </ns3:TrackPointExtension>
        </extensions>
      </trkpt>
      <trkpt lat="46.6130679287016391754150390625" lon="6.88513238914310932159423828125">
        <ele>769.79998779296875</ele>
        <time>2013-08-15T17:01:02.000Z</time>
        <extensions>
          <ns3:TrackPointExtension>
            <ns3:atemp>18.0</ns3:atemp>
            <ns3:hr>108</ns3:hr>
          </ns3:TrackPointExtension>
        </extensions>
      </trkpt>
      <trkpt lat="46.61310489289462566375732421875" lon="6.8851033039391040802001953125">
        <ele>769.5999755859375</ele>
        <time>2013-08-15T17:01:03.000Z</time>
        <extensions>
          <ns3:TrackPointExtension>
            <ns3:atemp>18.0</ns3:atemp>
            <ns3:hr>107</ns3:hr>
          </ns3:TrackPointExtension>
        </extensions>
      </trkpt>
      <trkpt lat="46.61314378492534160614013671875" lon="6.88508226536214351654052734375">
        <ele>769.5999755859375</ele>
        <time>2013-08-15T17:01:04.000Z</time>
        <extensions>
          <ns3:TrackPointExtension>
            <ns3:atemp>18.0</ns3:atemp>
            <ns3:hr>108</ns3:hr>
          </ns3:TrackPointExtension>
        </extensions>
      </trkpt>
      <trkpt lat="46.61318602971732616424560546875" lon="6.88506893813610076904296875">
        <ele>769.5999755859375</ele>
        <time>2013-08-15T17:01:05.000Z</time>
        <extensions>
          <ns3:TrackPointExtension>
            <ns3:atemp>18.0</ns3:atemp>
            <ns3:hr>107</ns3:hr>
          </ns3:TrackPointExtension>
        </extensions>
      </trkpt>
      <trkpt lat="46.61323028616607189178466796875" lon="6.8850583769381046295166015625">
        <ele>769.79998779296875</ele>
        <time>2013-08-15T17:01:06.000Z</time>
        <extensions>
          <ns3:TrackPointExtension>
            <ns3:atemp>18.0</ns3:atemp>
            <ns3:hr>107</ns3:hr>
          </ns3:TrackPointExtension>
        </extensions>
      </trkpt>
      <trkpt lat="46.61327621899545192718505859375" lon="6.885051168501377105712890625">
        <ele>769.79998779296875</ele>
        <time>2013-08-15T17:01:07.000Z</time>
        <extensions>
          <ns3:TrackPointExtension>
            <ns3:atemp>18.0</ns3:atemp>
            <ns3:hr>108</ns3:hr>
          </ns3:TrackPointExtension>
        </extensions>
      </trkpt>
      <trkpt lat="46.6133205592632293701171875" lon="6.88506248407065868377685546875">
        <ele>769.79998779296875</ele>
        <time>2013-08-15T17:01:08.000Z</time>
        <extensions>
          <ns3:TrackPointExtension>
            <ns3:atemp>18.0</ns3:atemp>
            <ns3:hr>108</ns3:hr>
          </ns3:TrackPointExtension>
        </extensions>
      </trkpt>
      <trkpt lat="46.613361798226833343505859375" lon="6.8850865401327610015869140625">
        <ele>770</ele>
        <time>2013-08-15T17:01:09.000Z</time>
        <extensions>
          <ns3:TrackPointExtension>
            <ns3:atemp>18.0</ns3:atemp>
            <ns3:hr>109</ns3:hr>
          </ns3:TrackPointExtension>
        </extensions>
      </trkpt>
      <trkpt lat="46.61339901387691497802734375" lon="6.885120570659637451171875">
        <ele>770.4000244140625</ele>
        <time>2013-08-15T17:01:10.000Z</time>
        <extensions>
          <ns3:TrackPointExtension>
            <ns3:atemp>18.0</ns3:atemp>
            <ns3:hr>109</ns3:hr>
          </ns3:TrackPointExtension>
        </extensions>
      </trkpt>
      <trkpt lat="46.6134345531463623046875" lon="6.885152757167816162109375">
        <ele>770.79998779296875</ele>
        <time>2013-08-15T17:01:11.000Z</time>
        <extensions>
          <ns3:TrackPointExtension>
            <ns3:atemp>18.0</ns3:atemp>
            <ns3:hr>109</ns3:hr>
          </ns3:TrackPointExtension>
        </extensions>
      </trkpt>
      <trkpt lat="46.61347277462482452392578125" lon="6.885181255638599395751953125">
        <ele>771</ele>
        <time>2013-08-15T17:01:12.000Z</time>
        <extensions>
          <ns3:TrackPointExtension>
            <ns3:atemp>18.0</ns3:atemp>
            <ns3:hr>110</ns3:hr>
          </ns3:TrackPointExtension>
        </extensions>
      </trkpt>
      <trkpt lat="46.613512672483921051025390625" lon="6.8852005340158939361572265625">
        <ele>771</ele>
        <time>2013-08-15T17:01:13.000Z</time>
        <extensions>
          <ns3:TrackPointExtension>
            <ns3:atemp>18.0</ns3:atemp>
            <ns3:hr>110</ns3:hr>
          </ns3:TrackPointExtension>
        </extensions>
      </trkpt>
      <trkpt lat="46.6135537438094615936279296875" lon="6.88521252013742923736572265625">
        <ele>771</ele>
        <time>2013-08-15T17:01:14.000Z</time>
        <extensions>
          <ns3:TrackPointExtension>
            <ns3:atemp>18.0</ns3:atemp>
            <ns3:hr>110</ns3:hr>
          </ns3:TrackPointExtension>
        </extensions>
      </trkpt>
      <trkpt lat="46.61359590478241443634033203125" lon="6.885224170982837677001953125">
        <ele>771</ele>
        <time>2013-08-15T17:01:15.000Z</time>
        <extensions>
          <ns3:TrackPointExtension>
            <ns3:atemp>18.0</ns3:atemp>
            <ns3:hr>110</ns3:hr>
          </ns3:TrackPointExtension>
        </extensions>
      </trkpt>
      <trkpt lat="46.6136352159082889556884765625" lon="6.885228194296360015869140625">
        <ele>771</ele>
        <time>2013-08-15T17:01:16.000Z</time>
        <extensions>
          <ns3:TrackPointExtension>
            <ns3:atemp>18.0</ns3:atemp>
            <ns3:hr>111</ns3:hr>
          </ns3:TrackPointExtension>
        </extensions>
      </trkpt>
      <trkpt lat="46.61367368884384632110595703125" lon="6.885224841535091400146484375">
        <ele>771.20001220703125</ele>
        <time>2013-08-15T17:01:17.000Z</time>
        <extensions>
          <ns3:TrackPointExtension>
            <ns3:atemp>18.0</ns3:atemp>
            <ns3:hr>111</ns3:hr>
          </ns3:TrackPointExtension>
        </extensions>
      </trkpt>
      <trkpt lat="46.61371526308357715606689453125" lon="6.88522073440253734588623046875">
        <ele>771.20001220703125</ele>
        <time>2013-08-15T17:01:18.000Z</time>
        <extensions>
          <ns3:TrackPointExtension>
            <ns3:atemp>18.0</ns3:atemp>
            <ns3:hr>112</ns3:hr>
          </ns3:TrackPointExtension>
        </extensions>
      </trkpt>
      <trkpt lat="46.61375549621880054473876953125" lon="6.88521738164126873016357421875">
        <ele>771.4000244140625</ele>
        <time>2013-08-15T17:01:19.000Z</time>
        <extensions>
          <ns3:TrackPointExtension>
            <ns3:atemp>18.0</ns3:atemp>
            <ns3:hr>112</ns3:hr>
          </ns3:TrackPointExtension>
        </extensions>
      </trkpt>
      <trkpt lat="46.61379790864884853363037109375" lon="6.885208077728748321533203125">
        <ele>771.5999755859375</ele>
        <time>2013-08-15T17:01:20.000Z</time>
        <extensions>
          <ns3:TrackPointExtension>
            <ns3:atemp>18.0</ns3:atemp>
            <ns3:hr>113</ns3:hr>
          </ns3:TrackPointExtension>
        </extensions>
      </trkpt>
      <trkpt lat="46.61383344791829586029052734375" lon="6.88519592396914958953857421875">
        <ele>771.79998779296875</ele>
        <time>2013-08-15T17:01:21.000Z</time>
        <extensions>
          <ns3:TrackPointExtension>
            <ns3:atemp>18.0</ns3:atemp>
            <ns3:hr>113</ns3:hr>
          </ns3:TrackPointExtension>
        </extensions>
      </trkpt>
      <trkpt lat="46.613872759044170379638671875" lon="6.8851854465901851654052734375">
        <ele>772</ele>
        <time>2013-08-15T17:01:22.000Z</time>
        <extensions>
          <ns3:TrackPointExtension>
            <ns3:atemp>18.0</ns3:atemp>
            <ns3:hr>114</ns3:hr>
          </ns3:TrackPointExtension>
        </extensions>
      </trkpt>
      <trkpt lat="46.6139118187129497528076171875" lon="6.88517865724861621856689453125">
        <ele>772.20001220703125</ele>
        <time>2013-08-15T17:01:23.000Z</time>
        <extensions>
          <ns3:TrackPointExtension>
            <ns3:atemp>18.0</ns3:atemp>
            <ns3:hr>115</ns3:hr>
          </ns3:TrackPointExtension>
        </extensions>
      </trkpt>
      <trkpt lat="46.61395012401044368743896484375" lon="6.885171197354793548583984375">
        <ele>772.4000244140625</ele>
        <time>2013-08-15T17:01:24.000Z</time>
        <extensions>
          <ns3:TrackPointExtension>
            <ns3:atemp>18.0</ns3:atemp>
            <ns3:hr>116</ns3:hr>
          </ns3:TrackPointExtension>
        </extensions>
      </trkpt>
      <trkpt lat="46.6139865852892398834228515625" lon="6.88515937887132167816162109375">
        <ele>772.5999755859375</ele>
        <time>2013-08-15T17:01:25.000Z</time>
        <extensions>
          <ns3:TrackPointExtension>
            <ns3:atemp>18.0</ns3:atemp>
            <ns3:hr>116</ns3:hr>
          </ns3:TrackPointExtension>
        </extensions>
      </trkpt>
      <trkpt lat="46.614022292196750640869140625" lon="6.88515518791973590850830078125">
        <ele>773</ele>
        <time>2013-08-15T17:01:26.000Z</time>
        <extensions>
          <ns3:TrackPointExtension>
            <ns3:atemp>18.0</ns3:atemp>
            <ns3:hr>117</ns3:hr>
          </ns3:TrackPointExtension>
        </extensions>
      </trkpt>
      <trkpt lat="46.61405825056135654449462890625" lon="6.8851435370743274688720703125">
        <ele>773.4000244140625</ele>
        <time>2013-08-15T17:01:27.000Z</time>
        <extensions>
          <ns3:TrackPointExtension>
            <ns3:atemp>18.0</ns3:atemp>
            <ns3:hr>117</ns3:hr>
          </ns3:TrackPointExtension>
        </extensions>
      </trkpt>
      <trkpt lat="46.6140921972692012786865234375" lon="6.88513691537082195281982421875">
        <ele>773.5999755859375</ele>
        <time>2013-08-15T17:01:28.000Z</time>
        <extensions>
          <ns3:TrackPointExtension>
            <ns3:atemp>18.0</ns3:atemp>
            <ns3:hr>118</ns3:hr>
          </ns3:TrackPointExtension>
        </extensions>
      </trkpt>
      <trkpt lat="46.61412698216736316680908203125" lon="6.8851339817047119140625">
        <ele>773.79998779296875</ele>
        <time>2013-08-15T17:01:29.000Z</time>
        <extensions>
          <ns3:TrackPointExtension>
            <ns3:atemp>18.0</ns3:atemp>
            <ns3:hr>118</ns3:hr>
          </ns3:TrackPointExtension>
        </extensions>
      </trkpt>
      <trkpt lat="46.61416302435100078582763671875" lon="6.88512736000120639801025390625">
        <ele>774</ele>
        <time>2013-08-15T17:01:30.000Z</time>
        <extensions>
          <ns3:TrackPointExtension>
            <ns3:atemp>18.0</ns3:atemp>
            <ns3:hr>119</ns3:hr>
          </ns3:TrackPointExtension>
        </extensions>
      </trkpt>
      <trkpt lat="46.61420099437236785888671875" lon="6.88512233085930347442626953125">
        <ele>774.20001220703125</ele>
        <time>2013-08-15T17:01:31.000Z</time>
        <extensions>
          <ns3:TrackPointExtension>
            <ns3:atemp>18.0</ns3:atemp>
            <ns3:hr>119</ns3:hr>
          </ns3:TrackPointExtension>
        </extensions>
      </trkpt>
      <trkpt lat="46.614240892231464385986328125" lon="6.88511797226965427398681640625">
        <ele>774.4000244140625</ele>
        <time>2013-08-15T17:01:32.000Z</time>
        <extensions>
          <ns3:TrackPointExtension>
            <ns3:atemp>18.0</ns3:atemp>
            <ns3:hr>120</ns3:hr>
          </ns3:TrackPointExtension>
        </extensions>
      </trkpt>
      <trkpt lat="46.61428087390959262847900390625" lon="6.8851143680512905120849609375">
        <ele>774.5999755859375</ele>
        <time>2013-08-15T17:01:33.000Z</time>
        <extensions>
          <ns3:TrackPointExtension>
            <ns3:atemp>18.0</ns3:atemp>
            <ns3:hr>121</ns3:hr>
          </ns3:TrackPointExtension>
        </extensions>
      </trkpt>
      <trkpt lat="46.61432211287319660186767578125" lon="6.88511042855679988861083984375">
        <ele>774.5999755859375</ele>
        <time>2013-08-15T17:01:34.000Z</time>
        <extensions>
          <ns3:TrackPointExtension>
            <ns3:atemp>18.0</ns3:atemp>
            <ns3:hr>122</ns3:hr>
          </ns3:TrackPointExtension>
        </extensions>
      </trkpt>
      <trkpt lat="46.6143637709319591522216796875" lon="6.88510623760521411895751953125">
        <ele>774.79998779296875</ele>
        <time>2013-08-15T17:01:35.000Z</time>
        <extensions>
          <ns3:TrackPointExtension>
            <ns3:atemp>18.0</ns3:atemp>
            <ns3:hr>122</ns3:hr>
          </ns3:TrackPointExtension>
        </extensions>
      </trkpt>
      <trkpt lat="46.614404506981372833251953125" lon="6.88509835861623287200927734375">
        <ele>775</ele>
        <time>2013-08-15T17:01:36.000Z</time>
        <extensions>
          <ns3:TrackPointExtension>
            <ns3:atemp>18.0</ns3:atemp>
            <ns3:hr>123</ns3:hr>
          </ns3:TrackPointExtension>
        </extensions>
      </trkpt>
      <trkpt lat="46.6144462488591670989990234375" lon="6.88509752042591571807861328125">
        <ele>775.20001220703125</ele>
        <time>2013-08-15T17:01:37.000Z</time>
        <extensions>
          <ns3:TrackPointExtension>
            <ns3:atemp>18.0</ns3:atemp>
            <ns3:hr>123</ns3:hr>
          </ns3:TrackPointExtension>
        </extensions>
      </trkpt>
      <trkpt lat="46.61448891274631023406982421875" lon="6.88509634695947170257568359375">
        <ele>775.4000244140625</ele>
        <time>2013-08-15T17:01:38.000Z</time>
        <extensions>
          <ns3:TrackPointExtension>
            <ns3:atemp>18.0</ns3:atemp>
            <ns3:hr>124</ns3:hr>
          </ns3:TrackPointExtension>
        </extensions>
      </trkpt>
      <trkpt lat="46.61453425884246826171875" lon="6.8851002864539623260498046875">
        <ele>775.20001220703125</ele>
        <time>2013-08-15T17:01:39.000Z</time>
        <extensions>
          <ns3:TrackPointExtension>
            <ns3:atemp>18.0</ns3:atemp>
            <ns3:hr>124</ns3:hr>
          </ns3:TrackPointExtension>
        </extensions>
      </trkpt>
      <trkpt lat="46.6145790182054042816162109375" lon="6.88510707579553127288818359375">
        <ele>775.20001220703125</ele>
        <time>2013-08-15T17:01:40.000Z</time>
        <extensions>
          <ns3:TrackPointExtension>
            <ns3:atemp>18.0</ns3:atemp>
            <ns3:hr>124</ns3:hr>
          </ns3:TrackPointExtension>
        </extensions>
      </trkpt>
      <trkpt lat="46.61462210118770599365234375" lon="6.88512400723993778228759765625">
        <ele>775.4000244140625</ele>
        <time>2013-08-15T17:01:41.000Z</time>
        <extensions>
          <ns3:TrackPointExtension>
            <ns3:atemp>18.0</ns3:atemp>
            <ns3:hr>124</ns3:hr>
          </ns3:TrackPointExtension>
        </extensions>
      </trkpt>
      <trkpt lat="46.614668034017086029052734375" lon="6.8851442076265811920166015625">
        <ele>775.5999755859375</ele>
        <time>2013-08-15T17:01:42.000Z</time>
        <extensions>
          <ns3:TrackPointExtension>
            <ns3:atemp>18.0</ns3:atemp>
            <ns3:hr>125</ns3:hr>
          </ns3:TrackPointExtension>
        </extensions>
      </trkpt>
      <trkpt lat="46.614711619913578033447265625" lon="6.885166168212890625">
        <ele>775.79998779296875</ele>
        <time>2013-08-15T17:01:43.000Z</time>
        <extensions>
          <ns3:TrackPointExtension>
            <ns3:atemp>18.0</ns3:atemp>
            <ns3:hr>124</ns3:hr>
          </ns3:TrackPointExtension>
        </extensions>
      </trkpt>
      <trkpt lat="46.6147560440003871917724609375" lon="6.8851918168365955352783203125">
        <ele>775.79998779296875</ele>
        <time>2013-08-15T17:01:44.000Z</time>
        <extensions>
          <ns3:TrackPointExtension>
            <ns3:atemp>18.0</ns3:atemp>
            <ns3:hr>124</ns3:hr>
          </ns3:TrackPointExtension>
        </extensions>
      </trkpt>
      <trkpt lat="46.614799462258815765380859375" lon="6.8852213211357593536376953125">
        <ele>776</ele>
        <time>2013-08-15T17:01:45.000Z</time>
        <extensions>
          <ns3:TrackPointExtension>
            <ns3:atemp>18.0</ns3:atemp>
            <ns3:hr>124</ns3:hr>
          </ns3:TrackPointExtension>
        </extensions>
      </trkpt>
      <trkpt lat="46.6148413717746734619140625" lon="6.885252334177494049072265625">
        <ele>775.79998779296875</ele>
        <time>2013-08-15T17:01:46.000Z</time>
        <extensions>
          <ns3:TrackPointExtension>
            <ns3:atemp>18.0</ns3:atemp>
            <ns3:hr>124</ns3:hr>
          </ns3:TrackPointExtension>
        </extensions>
      </trkpt>
      <trkpt lat="46.61488504149019718170166015625" lon="6.8852796591818332672119140625">
        <ele>775.79998779296875</ele>
        <time>2013-08-15T17:01:47.000Z</time>
        <extensions>
          <ns3:TrackPointExtension>
            <ns3:atemp>18.0</ns3:atemp>
            <ns3:hr>124</ns3:hr>
          </ns3:TrackPointExtension>
        </extensions>
      </trkpt>
      <trkpt lat="46.614925526082515716552734375" lon="6.88530840910971164703369140625">
        <ele>776</ele>
        <time>2013-08-15T17:01:48.000Z</time>
        <extensions>
          <ns3:TrackPointExtension>
            <ns3:atemp>18.0</ns3:atemp>
            <ns3:hr>124</ns3:hr>
          </ns3:TrackPointExtension>
        </extensions>
      </trkpt>
      <trkpt lat="46.61496534012258052825927734375" lon="6.88533204607665538787841796875">
        <ele>776.20001220703125</ele>
        <time>2013-08-15T17:01:49.000Z</time>
        <extensions>
          <ns3:TrackPointExtension>
            <ns3:atemp>18.0</ns3:atemp>
            <ns3:hr>124</ns3:hr>
          </ns3:TrackPointExtension>
        </extensions>
      </trkpt>
      <trkpt lat="46.61500590853393077850341796875" lon="6.88536188565194606781005859375">
        <ele>776.4000244140625</ele>
        <time>2013-08-15T17:01:50.000Z</time>
        <extensions>
          <ns3:TrackPointExtension>
            <ns3:atemp>18.0</ns3:atemp>
            <ns3:hr>124</ns3:hr>
          </ns3:TrackPointExtension>
        </extensions>
      </trkpt>
      <trkpt lat="46.61504580639302730560302734375" lon="6.8853946588933467864990234375">
        <ele>776.4000244140625</ele>
        <time>2013-08-15T17:01:51.000Z</time>
        <extensions>
          <ns3:TrackPointExtension>
            <ns3:atemp>18.0</ns3:atemp>
            <ns3:hr>124</ns3:hr>
          </ns3:TrackPointExtension>
        </extensions>
      </trkpt>
      <trkpt lat="46.6150854527950286865234375" lon="6.885426342487335205078125">
        <ele>776.4000244140625</ele>
        <time>2013-08-15T17:01:52.000Z</time>
        <extensions>
          <ns3:TrackPointExtension>
            <ns3:atemp>18.0</ns3:atemp>
            <ns3:hr>124</ns3:hr>
          </ns3:TrackPointExtension>
        </extensions>
      </trkpt>
      <trkpt lat="46.61512325517833232879638671875" lon="6.8854560144245624542236328125">
        <ele>776.4000244140625</ele>
        <time>2013-08-15T17:01:53.000Z</time>
        <extensions>
          <ns3:TrackPointExtension>
            <ns3:atemp>18.0</ns3:atemp>
            <ns3:hr>124</ns3:hr>
          </ns3:TrackPointExtension>
        </extensions>
      </trkpt>
      <trkpt lat="46.6151610575616359710693359375" lon="6.885483674705028533935546875">
        <ele>776.4000244140625</ele>
        <time>2013-08-15T17:01:54.000Z</time>
        <extensions>
          <ns3:TrackPointExtension>
            <ns3:atemp>18.0</ns3:atemp>
            <ns3:hr>124</ns3:hr>
          </ns3:TrackPointExtension>
        </extensions>
      </trkpt>
      <trkpt lat="46.6151976026594638824462890625" lon="6.88551058061420917510986328125">
        <ele>776.5999755859375</ele>
        <time>2013-08-15T17:01:55.000Z</time>
        <extensions>
          <ns3:TrackPointExtension>
            <ns3:atemp>18.0</ns3:atemp>
            <ns3:hr>125</ns3:hr>
          </ns3:TrackPointExtension>
        </extensions>
      </trkpt>
      <trkpt lat="46.6152344830334186553955078125" lon="6.88553924672305583953857421875">
        <ele>776.79998779296875</ele>
        <time>2013-08-15T17:01:56.000Z</time>
        <extensions>
          <ns3:TrackPointExtension>
            <ns3:atemp>18.0</ns3:atemp>
            <ns3:hr>125</ns3:hr>
          </ns3:TrackPointExtension>
        </extensions>
      </trkpt>
      <trkpt lat="46.61527211777865886688232421875" lon="6.8855740316212177276611328125">
        <ele>777</ele>
        <time>2013-08-15T17:01:57.000Z</time>
        <extensions>
          <ns3:TrackPointExtension>
            <ns3:atemp>18.0</ns3:atemp>
            <ns3:hr>125</ns3:hr>
          </ns3:TrackPointExtension>
        </extensions>
      </trkpt>
      <trkpt lat="46.61531184799969196319580078125" lon="6.8856048770248889923095703125">
        <ele>777</ele>
        <time>2013-08-15T17:01:58.000Z</time>
        <extensions>
          <ns3:TrackPointExtension>
            <ns3:atemp>18.0</ns3:atemp>
            <ns3:hr>125</ns3:hr>
          </ns3:TrackPointExtension>
        </extensions>
      </trkpt>
      <trkpt lat="46.615348644554615020751953125" lon="6.885631196200847625732421875">
        <ele>777.20001220703125</ele>
        <time>2013-08-15T17:01:59.000Z</time>
        <extensions>
          <ns3:TrackPointExtension>
            <ns3:atemp>18.0</ns3:atemp>
            <ns3:hr>124</ns3:hr>
          </ns3:TrackPointExtension>
        </extensions>
      </trkpt>
      <trkpt lat="46.61538518965244293212890625" lon="6.88565592281520366668701171875">
        <ele>777.20001220703125</ele>
        <time>2013-08-15T17:02:00.000Z</time>
        <extensions>
          <ns3:TrackPointExtension>
            <ns3:atemp>18.0</ns3:atemp>
            <ns3:hr>125</ns3:hr>
          </ns3:TrackPointExtension>
        </extensions>
      </trkpt>
      <trkpt lat="46.61542181856930255889892578125" lon="6.88568525947630405426025390625">
        <ele>777.20001220703125</ele>
        <time>2013-08-15T17:02:01.000Z</time>
        <extensions>
          <ns3:TrackPointExtension>
            <ns3:atemp>18.0</ns3:atemp>
            <ns3:hr>125</ns3:hr>
          </ns3:TrackPointExtension>
        </extensions>
      </trkpt>
      <trkpt lat="46.615459285676479339599609375" lon="6.88571191392838954925537109375">
        <ele>777.4000244140625</ele>
        <time>2013-08-15T17:02:02.000Z</time>
        <extensions>
          <ns3:TrackPointExtension>
            <ns3:atemp>18.0</ns3:atemp>
            <ns3:hr>125</ns3:hr>
          </ns3:TrackPointExtension>
        </extensions>
      </trkpt>
      <trkpt lat="46.61549624986946582794189453125" lon="6.885742843151092529296875">
        <ele>778</ele>
        <time>2013-08-15T17:02:03.000Z</time>
        <extensions>
          <ns3:TrackPointExtension>
            <ns3:atemp>18.0</ns3:atemp>
            <ns3:hr>125</ns3:hr>
          </ns3:TrackPointExtension>
        </extensions>
      </trkpt>
      <trkpt lat="46.61553279496729373931884765625" lon="6.88577301800251007080078125">
        <ele>778</ele>
        <time>2013-08-15T17:02:04.000Z</time>
        <extensions>
          <ns3:TrackPointExtension>
            <ns3:atemp>18.0</ns3:atemp>
            <ns3:hr>125</ns3:hr>
          </ns3:TrackPointExtension>
        </extensions>
      </trkpt>
      <trkpt lat="46.6155670769512653350830078125" lon="6.88580310903489589691162109375">
        <ele>778.20001220703125</ele>
        <time>2013-08-15T17:02:05.000Z</time>
        <extensions>
          <ns3:TrackPointExtension>
            <ns3:atemp>18.0</ns3:atemp>
            <ns3:hr>125</ns3:hr>
          </ns3:TrackPointExtension>
        </extensions>
      </trkpt>
      <trkpt lat="46.61560135893523693084716796875" lon="6.885832361876964569091796875">
        <ele>778.20001220703125</ele>
        <time>2013-08-15T17:02:06.000Z</time>
        <extensions>
          <ns3:TrackPointExtension>
            <ns3:atemp>18.0</ns3:atemp>
            <ns3:hr>125</ns3:hr>
          </ns3:TrackPointExtension>
        </extensions>
      </trkpt>
      <trkpt lat="46.615635640919208526611328125" lon="6.885860525071620941162109375">
        <ele>778.4000244140625</ele>
        <time>2013-08-15T17:02:07.000Z</time>
        <extensions>
          <ns3:TrackPointExtension>
            <ns3:atemp>18.0</ns3:atemp>
            <ns3:hr>125</ns3:hr>
          </ns3:TrackPointExtension>
        </extensions>
      </trkpt>
      <trkpt lat="46.61566690541803836822509765625" lon="6.88588567078113555908203125">
        <ele>778.5999755859375</ele>
        <time>2013-08-15T17:02:08.000Z</time>
        <extensions>
          <ns3:TrackPointExtension>
            <ns3:atemp>18.0</ns3:atemp>
            <ns3:hr>126</ns3:hr>
          </ns3:TrackPointExtension>
        </extensions>
      </trkpt>
      <trkpt lat="46.61569909192621707916259765625" lon="6.88591458834707736968994140625">
        <ele>778.79998779296875</ele>
        <time>2013-08-15T17:02:09.000Z</time>
        <extensions>
          <ns3:TrackPointExtension>
            <ns3:atemp>18.0</ns3:atemp>
            <ns3:hr>126</ns3:hr>
          </ns3:TrackPointExtension>
        </extensions>
      </trkpt>
      <trkpt lat="46.61573119461536407470703125" lon="6.885945685207843780517578125">
        <ele>779</ele>
        <time>2013-08-15T17:02:10.000Z</time>
        <extensions>
          <ns3:TrackPointExtension>
            <ns3:atemp>18.0</ns3:atemp>
            <ns3:hr>126</ns3:hr>
          </ns3:TrackPointExtension>
        </extensions>
      </trkpt>
      <trkpt lat="46.61576095037162303924560546875" lon="6.8859813921153545379638671875">
        <ele>779.20001220703125</ele>
        <time>2013-08-15T17:02:11.000Z</time>
        <extensions>
          <ns3:TrackPointExtension>
            <ns3:atemp>18.0</ns3:atemp>
            <ns3:hr>126</ns3:hr>
          </ns3:TrackPointExtension>
        </extensions>
      </trkpt>
      <trkpt lat="46.61578827537596225738525390625" lon="6.88601701520383358001708984375">
        <ele>779.5999755859375</ele>
        <time>2013-08-15T17:02:12.000Z</time>
        <extensions>
          <ns3:TrackPointExtension>
            <ns3:atemp>18.0</ns3:atemp>
            <ns3:hr>126</ns3:hr>
          </ns3:TrackPointExtension>
        </extensions>
      </trkpt>
      <trkpt lat="46.61581828258931636810302734375" lon="6.88605196774005889892578125">
        <ele>780</ele>
        <time>2013-08-15T17:02:13.000Z</time>
        <extensions>
          <ns3:TrackPointExtension>
            <ns3:atemp>18.0</ns3:atemp>
            <ns3:hr>127</ns3:hr>
          </ns3:TrackPointExtension>
        </extensions>
      </trkpt>
      <trkpt lat="46.615847535431385040283203125" lon="6.8860853277146816253662109375">
        <ele>780.20001220703125</ele>
        <time>2013-08-15T17:02:14.000Z</time>
        <extensions>
          <ns3:TrackPointExtension>
            <ns3:atemp>18.0</ns3:atemp>
            <ns3:hr>127</ns3:hr>
          </ns3:TrackPointExtension>
        </extensions>
      </trkpt>
      <trkpt lat="46.61587662063539028167724609375" lon="6.886118687689304351806640625">
        <ele>780.4000244140625</ele>
        <time>2013-08-15T17:02:15.000Z</time>
        <extensions>
          <ns3:TrackPointExtension>
            <ns3:atemp>18.0</ns3:atemp>
            <ns3:hr>127</ns3:hr>
          </ns3:TrackPointExtension>
        </extensions>
      </trkpt>
      <trkpt lat="46.6159006766974925994873046875" lon="6.8861393071711063385009765625">
        <ele>780.4000244140625</ele>
        <time>2013-08-15T17:02:16.000Z</time>
        <extensions>
          <ns3:TrackPointExtension>
            <ns3:atemp>18.0</ns3:atemp>
            <ns3:hr>127</ns3:hr>
          </ns3:TrackPointExtension>
        </extensions>
      </trkpt>
      <trkpt lat="46.6159258224070072174072265625" lon="6.88616034574806690216064453125">
        <ele>780.5999755859375</ele>
        <time>2013-08-15T17:02:17.000Z</time>
        <extensions>
          <ns3:TrackPointExtension>
            <ns3:atemp>18.0</ns3:atemp>
            <ns3:hr>128</ns3:hr>
          </ns3:TrackPointExtension>
        </extensions>
      </trkpt>
      <trkpt lat="46.6159452684223651885986328125" lon="6.88618264161050319671630859375">
        <ele>780.5999755859375</ele>
        <time>2013-08-15T17:02:18.000Z</time>
        <extensions>
          <ns3:TrackPointExtension>
            <ns3:atemp>18.0</ns3:atemp>
            <ns3:hr>128</ns3:hr>
          </ns3:TrackPointExtension>
        </extensions>
      </trkpt>
      <trkpt lat="46.6159640438854694366455078125" lon="6.88620929606258869171142578125">
        <ele>780.79998779296875</ele>
        <time>2013-08-15T17:02:19.000Z</time>
        <extensions>
          <ns3:TrackPointExtension>
            <ns3:atemp>18.0</ns3:atemp>
            <ns3:hr>128</ns3:hr>
          </ns3:TrackPointExtension>
        </extensions>
      </trkpt>
      <trkpt lat="46.61598332226276397705078125" lon="6.88623729161918163299560546875">
        <ele>781.20001220703125</ele>
        <time>2013-08-15T17:02:20.000Z</time>
        <extensions>
          <ns3:TrackPointExtension>
            <ns3:atemp>18.0</ns3:atemp>
            <ns3:hr>129</ns3:hr>
          </ns3:TrackPointExtension>
        </extensions>
      </trkpt>
      <trkpt lat="46.61600469611585140228271484375" lon="6.88626428134739398956298828125">
        <ele>781.5999755859375</ele>
        <time>2013-08-15T17:02:21.000Z</time>
        <extensions>
          <ns3:TrackPointExtension>
            <ns3:atemp>18.0</ns3:atemp>
            <ns3:hr>129</ns3:hr>
          </ns3:TrackPointExtension>
        </extensions>
      </trkpt>
      <trkpt lat="46.6160260699689388275146484375" lon="6.886289678514003753662109375">
        <ele>781.79998779296875</ele>
        <time>2013-08-15T17:02:22.000Z</time>
        <extensions>
          <ns3:TrackPointExtension>
            <ns3:atemp>18.0</ns3:atemp>
            <ns3:hr>130</ns3:hr>
          </ns3:TrackPointExtension>
        </extensions>
      </trkpt>
      <trkpt lat="46.6160498745739459991455078125" lon="6.88631809316575527191162109375">
        <ele>782.20001220703125</ele>
        <time>2013-08-15T17:02:23.000Z</time>
        <extensions>
          <ns3:TrackPointExtension>
            <ns3:atemp>18.0</ns3:atemp>
            <ns3:hr>130</ns3:hr>
          </ns3:TrackPointExtension>
        </extensions>
      </trkpt>
      <trkpt lat="46.6160756908357143402099609375" lon="6.8863503634929656982421875">
        <ele>782.4000244140625</ele>
        <time>2013-08-15T17:02:24.000Z</time>
        <extensions>
          <ns3:TrackPointExtension>
            <ns3:atemp>18.0</ns3:atemp>
            <ns3:hr>131</ns3:hr>
          </ns3:TrackPointExtension>
        </extensions>
      </trkpt>
      <trkpt lat="46.616097986698150634765625" lon="6.88637961633503437042236328125">
        <ele>782.79998779296875</ele>
        <time>2013-08-15T17:02:25.000Z</time>
        <extensions>
          <ns3:TrackPointExtension>
            <ns3:atemp>18.0</ns3:atemp>
            <ns3:hr>132</ns3:hr>
          </ns3:TrackPointExtension>
        </extensions>
      </trkpt>
      <trkpt lat="46.6161207854747772216796875" lon="6.886406354606151580810546875">
        <ele>783.20001220703125</ele>
        <time>2013-08-15T17:02:26.000Z</time>
        <extensions>
          <ns3:TrackPointExtension>
            <ns3:atemp>18.0</ns3:atemp>
            <ns3:hr>133</ns3:hr>
          </ns3:TrackPointExtension>
        </extensions>
      </trkpt>
      <trkpt lat="46.616141907870769500732421875" lon="6.88643644563853740692138671875">
        <ele>784</ele>
        <time>2013-08-15T17:02:27.000Z</time>
        <extensions>
          <ns3:TrackPointExtension>
            <ns3:atemp>18.0</ns3:atemp>
            <ns3:hr>133</ns3:hr>
          </ns3:TrackPointExtension>
        </extensions>
      </trkpt>
      <trkpt lat="46.61616244353353977203369140625" lon="6.88646594993770122528076171875">
        <ele>784.20001220703125</ele>
        <time>2013-08-15T17:02:28.000Z</time>
        <extensions>
          <ns3:TrackPointExtension>
            <ns3:atemp>18.0</ns3:atemp>
            <ns3:hr>134</ns3:hr>
          </ns3:TrackPointExtension>
        </extensions>
      </trkpt>
      <trkpt lat="46.61618574522435665130615234375" lon="6.88649327494204044342041015625">
        <ele>784.5999755859375</ele>
        <time>2013-08-15T17:02:29.000Z</time>
        <extensions>
          <ns3:TrackPointExtension>
            <ns3:atemp>18.0</ns3:atemp>
            <ns3:hr>134</ns3:hr>
          </ns3:TrackPointExtension>
        </extensions>
      </trkpt>
      <trkpt lat="46.6162098012864589691162109375" lon="6.886521019041538238525390625">
        <ele>785</ele>
        <time>2013-08-15T17:02:30.000Z</time>
        <extensions>
          <ns3:TrackPointExtension>
            <ns3:atemp>18.0</ns3:atemp>
            <ns3:hr>135</ns3:hr>
          </ns3:TrackPointExtension>
        </extensions>
      </trkpt>
      <trkpt lat="46.6162309236824512481689453125" lon="6.8865459971129894256591796875">
        <ele>785.20001220703125</ele>
        <time>2013-08-15T17:02:31.000Z</time>
        <extensions>
          <ns3:TrackPointExtension>
            <ns3:atemp>18.0</ns3:atemp>
            <ns3:hr>136</ns3:hr>
          </ns3:TrackPointExtension>
        </extensions>
      </trkpt>
      <trkpt lat="46.6162570752203464508056640625" lon="6.886567287147045135498046875">
        <ele>785.5999755859375</ele>
        <time>2013-08-15T17:02:32.000Z</time>
        <extensions>
          <ns3:TrackPointExtension>
            <ns3:atemp>18.0</ns3:atemp>
            <ns3:hr>136</ns3:hr>
          </ns3:TrackPointExtension>
        </extensions>
      </trkpt>
      <trkpt lat="46.6162812151014804840087890625" lon="6.88659100793302059173583984375">
        <ele>785.79998779296875</ele>
        <time>2013-08-15T17:02:33.000Z</time>
        <extensions>
          <ns3:TrackPointExtension>
            <ns3:atemp>18.0</ns3:atemp>
            <ns3:hr>137</ns3:hr>
          </ns3:TrackPointExtension>
        </extensions>
      </trkpt>
      <trkpt lat="46.61630577407777309417724609375" lon="6.886611878871917724609375">
        <ele>786</ele>
        <time>2013-08-15T17:02:34.000Z</time>
        <extensions>
          <ns3:TrackPointExtension>
            <ns3:atemp>18.0</ns3:atemp>
            <ns3:hr>138</ns3:hr>
          </ns3:TrackPointExtension>
        </extensions>
      </trkpt>
      <trkpt lat="46.61632932722568511962890625" lon="6.88663124106824398040771484375">
        <ele>786.4000244140625</ele>
        <time>2013-08-15T17:02:35.000Z</time>
        <extensions>
          <ns3:TrackPointExtension>
            <ns3:atemp>18.0</ns3:atemp>
            <ns3:hr>138</ns3:hr>
          </ns3:TrackPointExtension>
        </extensions>
      </trkpt>
      <trkpt lat="46.61635078489780426025390625" lon="6.8866516090929508209228515625">
        <ele>786.5999755859375</ele>
        <time>2013-08-15T17:02:36.000Z</time>
        <extensions>
          <ns3:TrackPointExtension>
            <ns3:atemp>18.0</ns3:atemp>
            <ns3:hr>138</ns3:hr>
          </ns3:TrackPointExtension>
        </extensions>
      </trkpt>
      <trkpt lat="46.61637383513152599334716796875" lon="6.88667532987892627716064453125">
        <ele>786.79998779296875</ele>
        <time>2013-08-15T17:02:37.000Z</time>
        <extensions>
          <ns3:TrackPointExtension>
            <ns3:atemp>18.0</ns3:atemp>
            <ns3:hr>138</ns3:hr>
          </ns3:TrackPointExtension>
        </extensions>
      </trkpt>
      <trkpt lat="46.61639931611716747283935546875" lon="6.88669645227491855621337890625">
        <ele>787.20001220703125</ele>
        <time>2013-08-15T17:02:38.000Z</time>
        <extensions>
          <ns3:TrackPointExtension>
            <ns3:atemp>18.0</ns3:atemp>
            <ns3:hr>138</ns3:hr>
          </ns3:TrackPointExtension>
        </extensions>
      </trkpt>
      <trkpt lat="46.6164247132837772369384765625" lon="6.886709444224834442138671875">
        <ele>787.4000244140625</ele>
        <time>2013-08-15T17:02:39.000Z</time>
        <extensions>
          <ns3:TrackPointExtension>
            <ns3:atemp>18.0</ns3:atemp>
            <ns3:hr>138</ns3:hr>
          </ns3:TrackPointExtension>
        </extensions>
      </trkpt>
      <trkpt lat="46.616447009146213531494140625" lon="6.88672377727925777435302734375">
        <ele>787.79998779296875</ele>
        <time>2013-08-15T17:02:40.000Z</time>
        <extensions>
          <ns3:TrackPointExtension>
            <ns3:atemp>18.0</ns3:atemp>
            <ns3:hr>138</ns3:hr>
          </ns3:TrackPointExtension>
        </extensions>
      </trkpt>
      <trkpt lat="46.61647056229412555694580078125" lon="6.88674397766590118408203125">
        <ele>788</ele>
        <time>2013-08-15T17:02:41.000Z</time>
        <extensions>
          <ns3:TrackPointExtension>
            <ns3:atemp>18.0</ns3:atemp>
            <ns3:hr>138</ns3:hr>
          </ns3:TrackPointExtension>
        </extensions>
      </trkpt>
      <trkpt lat="46.6164931096136569976806640625" lon="6.88676551915705204010009765625">
        <ele>788.4000244140625</ele>
        <time>2013-08-15T17:02:42.000Z</time>
        <extensions>
          <ns3:TrackPointExtension>
            <ns3:atemp>18.0</ns3:atemp>
            <ns3:hr>138</ns3:hr>
          </ns3:TrackPointExtension>
        </extensions>
      </trkpt>
      <trkpt lat="46.6165142320096492767333984375" lon="6.886790581047534942626953125">
        <ele>788.5999755859375</ele>
        <time>2013-08-15T17:02:43.000Z</time>
        <extensions>
          <ns3:TrackPointExtension>
            <ns3:atemp>18.0</ns3:atemp>
            <ns3:hr>138</ns3:hr>
          </ns3:TrackPointExtension>
        </extensions>
      </trkpt>
      <trkpt lat="46.61653585731983184814453125" lon="6.88680969178676605224609375">
        <ele>788.79998779296875</ele>
        <time>2013-08-15T17:02:44.000Z</time>
        <extensions>
          <ns3:TrackPointExtension>
            <ns3:atemp>18.0</ns3:atemp>
            <ns3:hr>138</ns3:hr>
          </ns3:TrackPointExtension>
        </extensions>
      </trkpt>
      <trkpt lat="46.61655941046774387359619140625" lon="6.886825449764728546142578125">
        <ele>789.20001220703125</ele>
        <time>2013-08-15T17:02:45.000Z</time>
        <extensions>
          <ns3:TrackPointExtension>
            <ns3:atemp>18.0</ns3:atemp>
            <ns3:hr>138</ns3:hr>
          </ns3:TrackPointExtension>
        </extensions>
      </trkpt>
      <trkpt lat="46.61658145487308502197265625" lon="6.886846907436847686767578125">
        <ele>789.4000244140625</ele>
        <time>2013-08-15T17:02:46.000Z</time>
        <extensions>
          <ns3:TrackPointExtension>
            <ns3:atemp>18.0</ns3:atemp>
            <ns3:hr>138</ns3:hr>
          </ns3:TrackPointExtension>
        </extensions>
      </trkpt>
      <trkpt lat="46.61660366691648960113525390625" lon="6.8868692032992839813232421875">
        <ele>789.79998779296875</ele>
        <time>2013-08-15T17:02:47.000Z</time>
        <extensions>
          <ns3:TrackPointExtension>
            <ns3:atemp>18.0</ns3:atemp>
            <ns3:hr>138</ns3:hr>
          </ns3:TrackPointExtension>
        </extensions>
      </trkpt>
      <trkpt lat="46.61662629805505275726318359375" lon="6.8868906609714031219482421875">
        <ele>790</ele>
        <time>2013-08-15T17:02:48.000Z</time>
        <extensions>
          <ns3:TrackPointExtension>
            <ns3:atemp>18.0</ns3:atemp>
            <ns3:hr>139</ns3:hr>
          </ns3:TrackPointExtension>
        </extensions>
      </trkpt>
      <trkpt lat="46.6166490130126476287841796875" lon="6.88691756688058376312255859375">
        <ele>790.20001220703125</ele>
        <time>2013-08-15T17:02:49.000Z</time>
        <extensions>
          <ns3:TrackPointExtension>
            <ns3:atemp>18.0</ns3:atemp>
            <ns3:hr>139</ns3:hr>
          </ns3:TrackPointExtension>
        </extensions>
      </trkpt>
      <trkpt lat="46.6166706383228302001953125" lon="6.88694036565721035003662109375">
        <ele>790.5999755859375</ele>
        <time>2013-08-15T17:02:50.000Z</time>
        <extensions>
          <ns3:TrackPointExtension>
            <ns3:atemp>18.0</ns3:atemp>
            <ns3:hr>140</ns3:hr>
          </ns3:TrackPointExtension>
        </extensions>
      </trkpt>
      <trkpt lat="46.61669570021331310272216796875" lon="6.88696123659610748291015625">
        <ele>791.20001220703125</ele>
        <time>2013-08-15T17:02:51.000Z</time>
        <extensions>
          <ns3:TrackPointExtension>
            <ns3:atemp>18.0</ns3:atemp>
            <ns3:hr>140</ns3:hr>
          </ns3:TrackPointExtension>
        </extensions>
      </trkpt>
      <trkpt lat="46.6167177446186542510986328125" lon="6.8869761563837528228759765625">
        <ele>791.4000244140625</ele>
        <time>2013-08-15T17:02:52.000Z</time>
        <extensions>
          <ns3:TrackPointExtension>
            <ns3:atemp>18.0</ns3:atemp>
            <ns3:hr>140</ns3:hr>
          </ns3:TrackPointExtension>
        </extensions>
      </trkpt>
      <trkpt lat="46.6167415492236614227294921875" lon="6.8869942612946033477783203125">
        <ele>791.79998779296875</ele>
        <time>2013-08-15T17:02:53.000Z</time>
        <extensions>
          <ns3:TrackPointExtension>
            <ns3:atemp>18.0</ns3:atemp>
            <ns3:hr>140</ns3:hr>
          </ns3:TrackPointExtension>
        </extensions>
      </trkpt>
      <trkpt lat="46.61676661111414432525634765625" lon="6.88701295293867588043212890625">
        <ele>792.20001220703125</ele>
        <time>2013-08-15T17:02:54.000Z</time>
        <extensions>
          <ns3:TrackPointExtension>
            <ns3:atemp>18.0</ns3:atemp>
            <ns3:hr>140</ns3:hr>
          </ns3:TrackPointExtension>
        </extensions>
      </trkpt>
      <trkpt lat="46.61679058335721492767333984375" lon="6.887029968202114105224609375">
        <ele>792.4000244140625</ele>
        <time>2013-08-15T17:02:55.000Z</time>
        <extensions>
          <ns3:TrackPointExtension>
            <ns3:atemp>18.0</ns3:atemp>
            <ns3:hr>140</ns3:hr>
          </ns3:TrackPointExtension>
        </extensions>
      </trkpt>
      <trkpt lat="46.61681371740996837615966796875" lon="6.887054108083248138427734375">
        <ele>792.5999755859375</ele>
        <time>2013-08-15T17:02:56.000Z</time>
        <extensions>
          <ns3:TrackPointExtension>
            <ns3:atemp>18.0</ns3:atemp>
            <ns3:hr>140</ns3:hr>
          </ns3:TrackPointExtension>
        </extensions>
      </trkpt>
      <trkpt lat="46.6168364323675632476806640625" lon="6.88707598485052585601806640625">
        <ele>792.79998779296875</ele>
        <time>2013-08-15T17:02:57.000Z</time>
        <extensions>
          <ns3:TrackPointExtension>
            <ns3:atemp>18.0</ns3:atemp>
            <ns3:hr>141</ns3:hr>
          </ns3:TrackPointExtension>
        </extensions>
      </trkpt>
      <trkpt lat="46.61685747094452381134033203125" lon="6.88710272312164306640625">
        <ele>793</ele>
        <time>2013-08-15T17:02:58.000Z</time>
        <extensions>
          <ns3:TrackPointExtension>
            <ns3:atemp>18.0</ns3:atemp>
            <ns3:hr>141</ns3:hr>
          </ns3:TrackPointExtension>
        </extensions>
      </trkpt>
      <trkpt lat="46.61688362248241901397705078125" lon="6.887124516069889068603515625">
        <ele>793.4000244140625</ele>
        <time>2013-08-15T17:02:59.000Z</time>
        <extensions>
          <ns3:TrackPointExtension>
            <ns3:atemp>18.0</ns3:atemp>
            <ns3:hr>141</ns3:hr>
          </ns3:TrackPointExtension>
        </extensions>
      </trkpt>
      <trkpt lat="46.61690759472548961639404296875" lon="6.8871484883129596710205078125">
        <ele>793.5999755859375</ele>
        <time>2013-08-15T17:03:00.000Z</time>
        <extensions>
          <ns3:TrackPointExtension>
            <ns3:atemp>18.0</ns3:atemp>
            <ns3:hr>142</ns3:hr>
          </ns3:TrackPointExtension>
        </extensions>
      </trkpt>
      <trkpt lat="46.6169309802353382110595703125" lon="6.887172795832157135009765625">
        <ele>794</ele>
        <time>2013-08-15T17:03:01.000Z</time>
        <extensions>
          <ns3:TrackPointExtension>
            <ns3:atemp>18.0</ns3:atemp>
            <ns3:hr>142</ns3:hr>
          </ns3:TrackPointExtension>
        </extensions>
      </trkpt>
      <trkpt lat="46.6169536113739013671875" lon="6.88719634898006916046142578125">
        <ele>794.4000244140625</ele>
        <time>2013-08-15T17:03:02.000Z</time>
        <extensions>
          <ns3:TrackPointExtension>
            <ns3:atemp>18.0</ns3:atemp>
            <ns3:hr>142</ns3:hr>
          </ns3:TrackPointExtension>
        </extensions>
      </trkpt>
      <trkpt lat="46.6169749014079570770263671875" lon="6.8872199021279811859130859375">
        <ele>794.5999755859375</ele>
        <time>2013-08-15T17:03:03.000Z</time>
        <extensions>
          <ns3:TrackPointExtension>
            <ns3:atemp>18.0</ns3:atemp>
            <ns3:hr>142</ns3:hr>
          </ns3:TrackPointExtension>
        </extensions>
      </trkpt>
      <trkpt lat="46.6169978678226470947265625" lon="6.8872430361807346343994140625">
        <ele>794.79998779296875</ele>
        <time>2013-08-15T17:03:04.000Z</time>
        <extensions>
          <ns3:TrackPointExtension>
            <ns3:atemp>18.0</ns3:atemp>
            <ns3:hr>142</ns3:hr>
          </ns3:TrackPointExtension>
        </extensions>
      </trkpt>
      <trkpt lat="46.6170201636850833892822265625" lon="6.88727061264216899871826171875">
        <ele>795.20001220703125</ele>
        <time>2013-08-15T17:03:05.000Z</time>
        <extensions>
          <ns3:TrackPointExtension>
            <ns3:atemp>18.0</ns3:atemp>
            <ns3:hr>143</ns3:hr>
          </ns3:TrackPointExtension>
        </extensions>
      </trkpt>
      <trkpt lat="46.61704204045236110687255859375" lon="6.88729458488523960113525390625">
        <ele>795.4000244140625</ele>
        <time>2013-08-15T17:03:06.000Z</time>
        <extensions>
          <ns3:TrackPointExtension>
            <ns3:atemp>18.0</ns3:atemp>
            <ns3:hr>143</ns3:hr>
          </ns3:TrackPointExtension>
        </extensions>
      </trkpt>
      <trkpt lat="46.6170649230480194091796875" lon="6.887314617633819580078125">
        <ele>795.79998779296875</ele>
        <time>2013-08-15T17:03:07.000Z</time>
        <extensions>
          <ns3:TrackPointExtension>
            <ns3:atemp>18.0</ns3:atemp>
            <ns3:hr>143</ns3:hr>
          </ns3:TrackPointExtension>
        </extensions>
      </trkpt>
      <trkpt lat="46.61708696745336055755615234375" lon="6.88733850605785846710205078125">
        <ele>796</ele>
        <time>2013-08-15T17:03:08.000Z</time>
        <extensions>
          <ns3:TrackPointExtension>
            <ns3:atemp>18.0</ns3:atemp>
            <ns3:hr>143</ns3:hr>
          </ns3:TrackPointExtension>
        </extensions>
      </trkpt>
      <trkpt lat="46.61710859276354312896728515625" lon="6.88735979609191417694091796875">
        <ele>796.20001220703125</ele>
        <time>2013-08-15T17:03:09.000Z</time>
        <extensions>
          <ns3:TrackPointExtension>
            <ns3:atemp>18.0</ns3:atemp>
            <ns3:hr>144</ns3:hr>
          </ns3:TrackPointExtension>
        </extensions>
      </trkpt>
      <trkpt lat="46.61713055334985256195068359375" lon="6.88737991265952587127685546875">
        <ele>796.4000244140625</ele>
        <time>2013-08-15T17:03:10.000Z</time>
        <extensions>
          <ns3:TrackPointExtension>
            <ns3:atemp>18.0</ns3:atemp>
            <ns3:hr>144</ns3:hr>
          </ns3:TrackPointExtension>
        </extensions>
      </trkpt>
      <trkpt lat="46.61714849062263965606689453125" lon="6.88740371726453304290771484375">
        <ele>796.5999755859375</ele>
        <time>2013-08-15T17:03:11.000Z</time>
        <extensions>
          <ns3:TrackPointExtension>
            <ns3:atemp>18.0</ns3:atemp>
            <ns3:hr>144</ns3:hr>
          </ns3:TrackPointExtension>
        </extensions>
      </trkpt>
      <trkpt lat="46.617173217236995697021484375" lon="6.88742333091795444488525390625">
        <ele>796.79998779296875</ele>
        <time>2013-08-15T17:03:12.000Z</time>
        <extensions>
          <ns3:TrackPointExtension>
            <ns3:atemp>18.0</ns3:atemp>
            <ns3:hr>145</ns3:hr>
          </ns3:TrackPointExtension>
        </extensions>
      </trkpt>
      <trkpt lat="46.617194674909114837646484375" lon="6.88744998537003993988037109375">
        <ele>797</ele>
        <time>2013-08-15T17:03:13.000Z</time>
        <extensions>
          <ns3:TrackPointExtension>
            <ns3:atemp>18.0</ns3:atemp>
            <ns3:hr>145</ns3:hr>
          </ns3:TrackPointExtension>
        </extensions>
      </trkpt>
      <trkpt lat="46.61721646785736083984375" lon="6.88747890293598175048828125">
        <ele>797.4000244140625</ele>
        <time>2013-08-15T17:03:14.000Z</time>
        <extensions>
          <ns3:TrackPointExtension>
            <ns3:atemp>18.0</ns3:atemp>
            <ns3:hr>145</ns3:hr>
          </ns3:TrackPointExtension>
        </extensions>
      </trkpt>
      <trkpt lat="46.61723633296787738800048828125" lon="6.887502372264862060546875">
        <ele>797.5999755859375</ele>
        <time>2013-08-15T17:03:15.000Z</time>
        <extensions>
          <ns3:TrackPointExtension>
            <ns3:atemp>18.0</ns3:atemp>
            <ns3:hr>144</ns3:hr>
          </ns3:TrackPointExtension>
        </extensions>
      </trkpt>
      <trkpt lat="46.61726030521094799041748046875" lon="6.887525506317615509033203125">
        <ele>797.79998779296875</ele>
        <time>2013-08-15T17:03:16.000Z</time>
        <extensions>
          <ns3:TrackPointExtension>
            <ns3:atemp>18.0</ns3:atemp>
            <ns3:hr>145</ns3:hr>
          </ns3:TrackPointExtension>
        </extensions>
      </trkpt>
      <trkpt lat="46.61728058941662311553955078125" lon="6.88755090348422527313232421875">
        <ele>798</ele>
        <time>2013-08-15T17:03:17.000Z</time>
        <extensions>
          <ns3:TrackPointExtension>
            <ns3:atemp>18.0</ns3:atemp>
            <ns3:hr>145</ns3:hr>
          </ns3:TrackPointExtension>
        </extensions>
      </trkpt>
      <trkpt lat="46.61729768849909305572509765625" lon="6.88757286407053470611572265625">
        <ele>798.4000244140625</ele>
        <time>2013-08-15T17:03:18.000Z</time>
        <extensions>
          <ns3:TrackPointExtension>
            <ns3:atemp>18.0</ns3:atemp>
            <ns3:hr>144</ns3:hr>
          </ns3:TrackPointExtension>
        </extensions>
      </trkpt>
      <trkpt lat="46.61731461994349956512451171875" lon="6.8875947408378124237060546875">
        <ele>798.5999755859375</ele>
        <time>2013-08-15T17:03:19.000Z</time>
        <extensions>
          <ns3:TrackPointExtension>
            <ns3:atemp>18.0</ns3:atemp>
            <ns3:hr>144</ns3:hr>
          </ns3:TrackPointExtension>
        </extensions>
      </trkpt>
      <trkpt lat="46.61733440123498439788818359375" lon="6.8876279331743717193603515625">
        <ele>799.20001220703125</ele>
        <time>2013-08-15T17:03:20.000Z</time>
        <extensions>
          <ns3:TrackPointExtension>
            <ns3:atemp>18.0</ns3:atemp>
            <ns3:hr>145</ns3:hr>
          </ns3:TrackPointExtension>
        </extensions>
      </trkpt>
      <trkpt lat="46.617349572479724884033203125" lon="6.88766037113964557647705078125">
        <ele>799.5999755859375</ele>
        <time>2013-08-15T17:03:21.000Z</time>
        <extensions>
          <ns3:TrackPointExtension>
            <ns3:atemp>18.0</ns3:atemp>
            <ns3:hr>145</ns3:hr>
          </ns3:TrackPointExtension>
        </extensions>
      </trkpt>
      <trkpt lat="46.6173678450286388397216796875" lon="6.88769171945750713348388671875">
        <ele>800</ele>
        <time>2013-08-15T17:03:22.000Z</time>
        <extensions>
          <ns3:TrackPointExtension>
            <ns3:atemp>18.0</ns3:atemp>
            <ns3:hr>145</ns3:hr>
          </ns3:TrackPointExtension>
        </extensions>
      </trkpt>
      <trkpt lat="46.61738519556820392608642578125" lon="6.88772239722311496734619140625">
        <ele>800</ele>
        <time>2013-08-15T17:03:23.000Z</time>
        <extensions>
          <ns3:TrackPointExtension>
            <ns3:atemp>18.0</ns3:atemp>
            <ns3:hr>145</ns3:hr>
          </ns3:TrackPointExtension>
        </extensions>
      </trkpt>
      <trkpt lat="46.61739827133715152740478515625" lon="6.88775424845516681671142578125">
        <ele>800.4000244140625</ele>
        <time>2013-08-15T17:03:24.000Z</time>
        <extensions>
          <ns3:TrackPointExtension>
            <ns3:atemp>18.0</ns3:atemp>
            <ns3:hr>145</ns3:hr>
          </ns3:TrackPointExtension>
        </extensions>
      </trkpt>
      <trkpt lat="46.61741319112479686737060546875" lon="6.88779012300074100494384765625">
        <ele>800.5999755859375</ele>
        <time>2013-08-15T17:03:25.000Z</time>
        <extensions>
          <ns3:TrackPointExtension>
            <ns3:atemp>18.0</ns3:atemp>
            <ns3:hr>145</ns3:hr>
          </ns3:TrackPointExtension>
        </extensions>
      </trkpt>
      <trkpt lat="46.61742794327437877655029296875" lon="6.88782650046050548553466796875">
        <ele>801</ele>
        <time>2013-08-15T17:03:26.000Z</time>
        <extensions>
          <ns3:TrackPointExtension>
            <ns3:atemp>18.0</ns3:atemp>
            <ns3:hr>145</ns3:hr>
          </ns3:TrackPointExtension>
        </extensions>
      </trkpt>
      <trkpt lat="46.6174471378326416015625" lon="6.887867487967014312744140625">
        <ele>801.20001220703125</ele>
        <time>2013-08-15T17:03:27.000Z</time>
        <extensions>
          <ns3:TrackPointExtension>
            <ns3:atemp>18.0</ns3:atemp>
            <ns3:hr>145</ns3:hr>
          </ns3:TrackPointExtension>
        </extensions>
      </trkpt>
      <trkpt lat="46.6174630634486675262451171875" lon="6.88790612854063510894775390625">
        <ele>801.4000244140625</ele>
        <time>2013-08-15T17:03:28.000Z</time>
        <extensions>
          <ns3:TrackPointExtension>
            <ns3:atemp>18.0</ns3:atemp>
            <ns3:hr>145</ns3:hr>
          </ns3:TrackPointExtension>
        </extensions>
      </trkpt>
      <trkpt lat="46.61747387610375881195068359375" lon="6.88794200308620929718017578125">
        <ele>801.5999755859375</ele>
        <time>2013-08-15T17:03:29.000Z</time>
        <extensions>
          <ns3:TrackPointExtension>
            <ns3:atemp>18.0</ns3:atemp>
            <ns3:hr>145</ns3:hr>
          </ns3:TrackPointExtension>
        </extensions>
      </trkpt>
      <trkpt lat="46.617479659616947174072265625" lon="6.88798223622143268585205078125">
        <ele>801.79998779296875</ele>
        <time>2013-08-15T17:03:30.000Z</time>
        <extensions>
          <ns3:TrackPointExtension>
            <ns3:atemp>18.0</ns3:atemp>
            <ns3:hr>145</ns3:hr>
          </ns3:TrackPointExtension>
        </extensions>
      </trkpt>
      <trkpt lat="46.617487370967864990234375" lon="6.888012997806072235107421875">
        <ele>802</ele>
        <time>2013-08-15T17:03:31.000Z</time>
        <extensions>
          <ns3:TrackPointExtension>
            <ns3:atemp>18.0</ns3:atemp>
            <ns3:hr>146</ns3:hr>
          </ns3:TrackPointExtension>
        </extensions>
      </trkpt>
      <trkpt lat="46.61749533377587795257568359375" lon="6.88804442994296550750732421875">
        <ele>802.20001220703125</ele>
        <time>2013-08-15T17:03:32.000Z</time>
        <extensions>
          <ns3:TrackPointExtension>
            <ns3:atemp>18.0</ns3:atemp>
            <ns3:hr>146</ns3:hr>
          </ns3:TrackPointExtension>
        </extensions>
      </trkpt>
      <trkpt lat="46.61750555969774723052978515625" lon="6.8880829028785228729248046875">
        <ele>802.4000244140625</ele>
        <time>2013-08-15T17:03:33.000Z</time>
        <extensions>
          <ns3:TrackPointExtension>
            <ns3:atemp>18.0</ns3:atemp>
            <ns3:hr>146</ns3:hr>
          </ns3:TrackPointExtension>
        </extensions>
      </trkpt>
      <trkpt lat="46.61751511506736278533935546875" lon="6.88811852596700191497802734375">
        <ele>802.79998779296875</ele>
        <time>2013-08-15T17:03:34.000Z</time>
        <extensions>
          <ns3:TrackPointExtension>
            <ns3:atemp>18.0</ns3:atemp>
            <ns3:hr>147</ns3:hr>
          </ns3:TrackPointExtension>
        </extensions>
      </trkpt>
      <trkpt lat="46.6175208985805511474609375" lon="6.88815523870289325714111328125">
        <ele>803</ele>
        <time>2013-08-15T17:03:35.000Z</time>
        <extensions>
          <ns3:TrackPointExtension>
            <ns3:atemp>18.0</ns3:atemp>
            <ns3:hr>147</ns3:hr>
          </ns3:TrackPointExtension>
        </extensions>
      </trkpt>
      <trkpt lat="46.617521233856678009033203125" lon="6.88819848932325839996337890625">
        <ele>803.20001220703125</ele>
        <time>2013-08-15T17:03:36.000Z</time>
        <extensions>
          <ns3:TrackPointExtension>
            <ns3:atemp>18.0</ns3:atemp>
            <ns3:hr>148</ns3:hr>
          </ns3:TrackPointExtension>
        </extensions>
      </trkpt>
      <trkpt lat="46.61752081476151943206787109375" lon="6.88824257813394069671630859375">
        <ele>803.20001220703125</ele>
        <time>2013-08-15T17:03:37.000Z</time>
        <extensions>
          <ns3:TrackPointExtension>
            <ns3:atemp>18.0</ns3:atemp>
            <ns3:hr>148</ns3:hr>
          </ns3:TrackPointExtension>
        </extensions>
      </trkpt>
      <trkpt lat="46.617519557476043701171875" lon="6.88828834332525730133056640625">
        <ele>803.4000244140625</ele>
        <time>2013-08-15T17:03:38.000Z</time>
        <extensions>
          <ns3:TrackPointExtension>
            <ns3:atemp>18.0</ns3:atemp>
            <ns3:hr>148</ns3:hr>
          </ns3:TrackPointExtension>
        </extensions>
      </trkpt>
      <trkpt lat="46.61751813255250453948974609375" lon="6.88833226449787616729736328125">
        <ele>803.79998779296875</ele>
        <time>2013-08-15T17:03:39.000Z</time>
        <extensions>
          <ns3:TrackPointExtension>
            <ns3:atemp>18.0</ns3:atemp>
            <ns3:hr>148</ns3:hr>
          </ns3:TrackPointExtension>
        </extensions>
      </trkpt>
      <trkpt lat="46.617513857781887054443359375" lon="6.8883781135082244873046875">
        <ele>804</ele>
        <time>2013-08-15T17:03:40.000Z</time>
        <extensions>
          <ns3:TrackPointExtension>
            <ns3:atemp>18.0</ns3:atemp>
            <ns3:hr>148</ns3:hr>
          </ns3:TrackPointExtension>
        </extensions>
      </trkpt>
      <trkpt lat="46.61751293577253818511962890625" lon="6.8884228728711605072021484375">
        <ele>804.4000244140625</ele>
        <time>2013-08-15T17:03:41.000Z</time>
        <extensions>
          <ns3:TrackPointExtension>
            <ns3:atemp>18.0</ns3:atemp>
            <ns3:hr>149</ns3:hr>
          </ns3:TrackPointExtension>
        </extensions>
      </trkpt>
      <trkpt lat="46.61750589497387409210205078125" lon="6.888470314443111419677734375">
        <ele>804.5999755859375</ele>
        <time>2013-08-15T17:03:42.000Z</time>
        <extensions>
          <ns3:TrackPointExtension>
            <ns3:atemp>18.0</ns3:atemp>
            <ns3:hr>149</ns3:hr>
          </ns3:TrackPointExtension>
        </extensions>
      </trkpt>
      <trkpt lat="46.6175019554793834686279296875" lon="6.8885133974254131317138671875">
        <ele>804.79998779296875</ele>
        <time>2013-08-15T17:03:43.000Z</time>
        <extensions>
          <ns3:TrackPointExtension>
            <ns3:atemp>18.0</ns3:atemp>
            <ns3:hr>148</ns3:hr>
          </ns3:TrackPointExtension>
        </extensions>
      </trkpt>
      <trkpt lat="46.61749701015651226043701171875" lon="6.88856109045445919036865234375">
        <ele>804.79998779296875</ele>
        <time>2013-08-15T17:03:44.000Z</time>
        <extensions>
          <ns3:TrackPointExtension>
            <ns3:atemp>18.0</ns3:atemp>
            <ns3:hr>148</ns3:hr>
          </ns3:TrackPointExtension>
        </extensions>
      </trkpt>
      <trkpt lat="46.61748804152011871337890625" lon="6.888602413237094879150390625">
        <ele>805</ele>
        <time>2013-08-15T17:03:45.000Z</time>
        <extensions>
          <ns3:TrackPointExtension>
            <ns3:atemp>18.0</ns3:atemp>
            <ns3:hr>149</ns3:hr>
          </ns3:TrackPointExtension>
        </extensions>
      </trkpt>
      <trkpt lat="46.6174726188182830810546875" lon="6.88863300718367099761962890625">
        <ele>805.20001220703125</ele>
        <time>2013-08-15T17:03:46.000Z</time>
        <extensions>
          <ns3:TrackPointExtension>
            <ns3:atemp>18.0</ns3:atemp>
            <ns3:hr>148</ns3:hr>
          </ns3:TrackPointExtension>
        </extensions>
      </trkpt>
      <trkpt lat="46.61746046505868434906005859375" lon="6.88866904936730861663818359375">
        <ele>805.20001220703125</ele>
        <time>2013-08-15T17:03:47.000Z</time>
        <extensions>
          <ns3:TrackPointExtension>
            <ns3:atemp>18.0</ns3:atemp>
            <ns3:hr>149</ns3:hr>
          </ns3:TrackPointExtension>
        </extensions>
      </trkpt>
      <trkpt lat="46.61745057441294193267822265625" lon="6.88870911486446857452392578125">
        <ele>805.5999755859375</ele>
        <time>2013-08-15T17:03:48.000Z</time>
        <extensions>
          <ns3:TrackPointExtension>
            <ns3:atemp>18.0</ns3:atemp>
            <ns3:hr>148</ns3:hr>
          </ns3:TrackPointExtension>
        </extensions>
      </trkpt>
      <trkpt lat="46.61744487471878528594970703125" lon="6.888740547001361846923828125">
        <ele>805.5999755859375</ele>
        <time>2013-08-15T17:03:49.000Z</time>
        <extensions>
          <ns3:TrackPointExtension>
            <ns3:atemp>18.0</ns3:atemp>
            <ns3:hr>149</ns3:hr>
          </ns3:TrackPointExtension>
        </extensions>
      </trkpt>
      <trkpt lat="46.61743280477821826934814453125" lon="6.88878421671688556671142578125">
        <ele>806</ele>
        <time>2013-08-15T17:03:50.000Z</time>
        <extensions>
          <ns3:TrackPointExtension>
            <ns3:atemp>18.0</ns3:atemp>
            <ns3:hr>148</ns3:hr>
          </ns3:TrackPointExtension>
        </extensions>
      </trkpt>
      <trkpt lat="46.61742509342730045318603515625" lon="6.88882679678499698638916015625">
        <ele>806.20001220703125</ele>
        <time>2013-08-15T17:03:51.000Z</time>
        <extensions>
          <ns3:TrackPointExtension>
            <ns3:atemp>18.0</ns3:atemp>
            <ns3:hr>148</ns3:hr>
          </ns3:TrackPointExtension>
        </extensions>
      </trkpt>
      <trkpt lat="46.6174178011715412139892578125" lon="6.88886518590152263641357421875">
        <ele>806.4000244140625</ele>
        <time>2013-08-15T17:03:52.000Z</time>
        <extensions>
          <ns3:TrackPointExtension>
            <ns3:atemp>18.0</ns3:atemp>
            <ns3:hr>148</ns3:hr>
          </ns3:TrackPointExtension>
        </extensions>
      </trkpt>
      <trkpt lat="46.61741252057254314422607421875" lon="6.88890676014125347137451171875">
        <ele>806.5999755859375</ele>
        <time>2013-08-15T17:03:53.000Z</time>
        <extensions>
          <ns3:TrackPointExtension>
            <ns3:atemp>18.0</ns3:atemp>
            <ns3:hr>148</ns3:hr>
          </ns3:TrackPointExtension>
        </extensions>
      </trkpt>
      <trkpt lat="46.6174074076116085052490234375" lon="6.88894598744809627532958984375">
        <ele>806.79998779296875</ele>
        <time>2013-08-15T17:03:54.000Z</time>
        <extensions>
          <ns3:TrackPointExtension>
            <ns3:atemp>18.0</ns3:atemp>
            <ns3:hr>148</ns3:hr>
          </ns3:TrackPointExtension>
        </extensions>
      </trkpt>
      <trkpt lat="46.6174030490219593048095703125" lon="6.8889864720404148101806640625">
        <ele>807</ele>
        <time>2013-08-15T17:03:55.000Z</time>
        <extensions>
          <ns3:TrackPointExtension>
            <ns3:atemp>18.0</ns3:atemp>
            <ns3:hr>148</ns3:hr>
          </ns3:TrackPointExtension>
        </extensions>
      </trkpt>
      <trkpt lat="46.61739609204232692718505859375" lon="6.88902695663273334503173828125">
        <ele>807</ele>
        <time>2013-08-15T17:03:56.000Z</time>
        <extensions>
          <ns3:TrackPointExtension>
            <ns3:atemp>18.0</ns3:atemp>
            <ns3:hr>148</ns3:hr>
          </ns3:TrackPointExtension>
        </extensions>
      </trkpt>
      <trkpt lat="46.61738603375852108001708984375" lon="6.88906467519700527191162109375">
        <ele>807.20001220703125</ele>
        <time>2013-08-15T17:03:57.000Z</time>
        <extensions>
          <ns3:TrackPointExtension>
            <ns3:atemp>18.0</ns3:atemp>
            <ns3:hr>148</ns3:hr>
          </ns3:TrackPointExtension>
        </extensions>
      </trkpt>
      <trkpt lat="46.617379076778888702392578125" lon="6.889106668531894683837890625">
        <ele>807.5999755859375</ele>
        <time>2013-08-15T17:03:58.000Z</time>
        <extensions>
          <ns3:TrackPointExtension>
            <ns3:atemp>18.0</ns3:atemp>
            <ns3:hr>148</ns3:hr>
          </ns3:TrackPointExtension>
        </extensions>
      </trkpt>
      <trkpt lat="46.6173805855214595794677734375" lon="6.8891574628651142120361328125">
        <ele>807.79998779296875</ele>
        <time>2013-08-15T17:03:59.000Z</time>
        <extensions>
          <ns3:TrackPointExtension>
            <ns3:atemp>18.0</ns3:atemp>
            <ns3:hr>147</ns3:hr>
          </ns3:TrackPointExtension>
        </extensions>
      </trkpt>
      <trkpt lat="46.6173869557678699493408203125" lon="6.8891935050487518310546875">
        <ele>808.20001220703125</ele>
        <time>2013-08-15T17:04:00.000Z</time>
        <extensions>
          <ns3:TrackPointExtension>
            <ns3:atemp>18.0</ns3:atemp>
            <ns3:hr>147</ns3:hr>
          </ns3:TrackPointExtension>
        </extensions>
      </trkpt>
      <trkpt lat="46.61739475093781948089599609375" lon="6.889238096773624420166015625">
        <ele>808.4000244140625</ele>
        <time>2013-08-15T17:04:01.000Z</time>
        <extensions>
          <ns3:TrackPointExtension>
            <ns3:atemp>18.0</ns3:atemp>
            <ns3:hr>147</ns3:hr>
          </ns3:TrackPointExtension>
        </extensions>
      </trkpt>
      <trkpt lat="46.61739550530910491943359375" lon="6.88927573151886463165283203125">
        <ele>808.5999755859375</ele>
        <time>2013-08-15T17:04:02.000Z</time>
        <extensions>
          <ns3:TrackPointExtension>
            <ns3:atemp>18.0</ns3:atemp>
            <ns3:hr>147</ns3:hr>
          </ns3:TrackPointExtension>
        </extensions>
      </trkpt>
      <trkpt lat="46.61739760078489780426025390625" lon="6.889308504760265350341796875">
        <ele>808.5999755859375</ele>
        <time>2013-08-15T17:04:03.000Z</time>
        <extensions>
          <ns3:TrackPointExtension>
            <ns3:atemp>18.0</ns3:atemp>
            <ns3:hr>147</ns3:hr>
          </ns3:TrackPointExtension>
        </extensions>
      </trkpt>
      <trkpt lat="46.617403887212276458740234375" lon="6.88933499157428741455078125">
        <ele>808.79998779296875</ele>
        <time>2013-08-15T17:04:04.000Z</time>
        <extensions>
          <ns3:TrackPointExtension>
            <ns3:atemp>18.0</ns3:atemp>
            <ns3:hr>146</ns3:hr>
          </ns3:TrackPointExtension>
        </extensions>
      </trkpt>
      <trkpt lat="46.61740581505000591278076171875" lon="6.88935083337128162384033203125">
        <ele>808.79998779296875</ele>
        <time>2013-08-15T17:04:05.000Z</time>
        <extensions>
          <ns3:TrackPointExtension>
            <ns3:atemp>18.0</ns3:atemp>
            <ns3:hr>146</ns3:hr>
          </ns3:TrackPointExtension>
        </extensions>
      </trkpt>
      <trkpt lat="46.61741034127771854400634765625" lon="6.88936290331184864044189453125">
        <ele>809.20001220703125</ele>
        <time>2013-08-15T17:04:06.000Z</time>
        <extensions>
          <ns3:TrackPointExtension>
            <ns3:atemp>18.0</ns3:atemp>
            <ns3:hr>145</ns3:hr>
          </ns3:TrackPointExtension>
        </extensions>
      </trkpt>
      <trkpt lat="46.61740715615451335906982421875" lon="6.88935083337128162384033203125">
        <ele>809.20001220703125</ele>
        <time>2013-08-15T17:04:07.000Z</time>
        <extensions>
          <ns3:TrackPointExtension>
            <ns3:atemp>18.0</ns3:atemp>
            <ns3:hr>145</ns3:hr>
          </ns3:TrackPointExtension>
        </extensions>
      </trkpt>
      <trkpt lat="46.6174094192683696746826171875" lon="6.8893753923475742340087890625">
        <ele>809.4000244140625</ele>
        <time>2013-08-15T17:04:08.000Z</time>
        <extensions>
          <ns3:TrackPointExtension>
            <ns3:atemp>18.0</ns3:atemp>
            <ns3:hr>144</ns3:hr>
          </ns3:TrackPointExtension>
        </extensions>
      </trkpt>
      <trkpt lat="46.6174121014773845672607421875" lon="6.88938117586076259613037109375">
        <ele>809.4000244140625</ele>
        <time>2013-08-15T17:04:09.000Z</time>
        <extensions>
          <ns3:TrackPointExtension>
            <ns3:atemp>18.0</ns3:atemp>
            <ns3:hr>144</ns3:hr>
          </ns3:TrackPointExtension>
        </extensions>
      </trkpt>
      <trkpt lat="46.6174121014773845672607421875" lon="6.88938117586076259613037109375">
        <ele>809.4000244140625</ele>
        <time>2013-08-15T17:04:10.000Z</time>
        <extensions>
          <ns3:TrackPointExtension>
            <ns3:atemp>18.0</ns3:atemp>
            <ns3:hr>143</ns3:hr>
          </ns3:TrackPointExtension>
        </extensions>
      </trkpt>
      <trkpt lat="46.61742123775184154510498046875" lon="6.88936583697795867919921875">
        <ele>809.4000244140625</ele>
        <time>2013-08-15T17:04:11.000Z</time>
        <extensions>
          <ns3:TrackPointExtension>
            <ns3:atemp>18.0</ns3:atemp>
            <ns3:hr>141</ns3:hr>
          </ns3:TrackPointExtension>
        </extensions>
      </trkpt>
      <trkpt lat="46.61742039956152439117431640625" lon="6.88934865407645702362060546875">
        <ele>809.20001220703125</ele>
        <time>2013-08-15T17:04:12.000Z</time>
        <extensions>
          <ns3:TrackPointExtension>
            <ns3:atemp>18.0</ns3:atemp>
            <ns3:hr>141</ns3:hr>
          </ns3:TrackPointExtension>
        </extensions>
      </trkpt>
      <trkpt lat="46.617417633533477783203125" lon="6.88931780867278575897216796875">
        <ele>809.20001220703125</ele>
        <time>2013-08-15T17:04:13.000Z</time>
        <extensions>
          <ns3:TrackPointExtension>
            <ns3:atemp>18.0</ns3:atemp>
            <ns3:hr>140</ns3:hr>
          </ns3:TrackPointExtension>
        </extensions>
      </trkpt>
      <trkpt lat="46.61741386167705059051513671875" lon="6.88928092829883098602294921875">
        <ele>809</ele>
        <time>2013-08-15T17:04:14.000Z</time>
        <extensions>
          <ns3:TrackPointExtension>
            <ns3:atemp>18.0</ns3:atemp>
            <ns3:hr>139</ns3:hr>
          </ns3:TrackPointExtension>
        </extensions>
      </trkpt>
      <trkpt lat="46.61742073483765125274658203125" lon="6.88924488611519336700439453125">
        <ele>809</ele>
        <time>2013-08-15T17:04:15.000Z</time>
        <extensions>
          <ns3:TrackPointExtension>
            <ns3:atemp>18.0</ns3:atemp>
            <ns3:hr>138</ns3:hr>
          </ns3:TrackPointExtension>
        </extensions>
      </trkpt>
      <trkpt lat="46.61742341704666614532470703125" lon="6.88921563327312469482421875">
        <ele>808.5999755859375</ele>
        <time>2013-08-15T17:04:16.000Z</time>
        <extensions>
          <ns3:TrackPointExtension>
            <ns3:atemp>18.0</ns3:atemp>
            <ns3:hr>137</ns3:hr>
          </ns3:TrackPointExtension>
        </extensions>
      </trkpt>
      <trkpt lat="46.61742878146469593048095703125" lon="6.8891913257539272308349609375">
        <ele>808.4000244140625</ele>
        <time>2013-08-15T17:04:17.000Z</time>
        <extensions>
          <ns3:TrackPointExtension>
            <ns3:atemp>18.0</ns3:atemp>
            <ns3:hr>137</ns3:hr>
          </ns3:TrackPointExtension>
        </extensions>
      </trkpt>
      <trkpt lat="46.617434062063694000244140625" lon="6.88916827552020549774169921875">
        <ele>808</ele>
        <time>2013-08-15T17:04:18.000Z</time>
        <extensions>
          <ns3:TrackPointExtension>
            <ns3:atemp>18.0</ns3:atemp>
            <ns3:hr>136</ns3:hr>
          </ns3:TrackPointExtension>
        </extensions>
      </trkpt>
      <trkpt lat="46.61743783392012119293212890625" lon="6.8891505897045135498046875">
        <ele>808</ele>
        <time>2013-08-15T17:04:19.000Z</time>
        <extensions>
          <ns3:TrackPointExtension>
            <ns3:atemp>18.0</ns3:atemp>
            <ns3:hr>135</ns3:hr>
          </ns3:TrackPointExtension>
        </extensions>
      </trkpt>
      <trkpt lat="46.617440097033977508544921875" lon="6.8891326524317264556884765625">
        <ele>807.5999755859375</ele>
        <time>2013-08-15T17:04:20.000Z</time>
        <extensions>
          <ns3:TrackPointExtension>
            <ns3:atemp>18.0</ns3:atemp>
            <ns3:hr>134</ns3:hr>
          </ns3:TrackPointExtension>
        </extensions>
      </trkpt>
      <trkpt lat="46.61744621582329273223876953125" lon="6.88912452198565006256103515625">
        <ele>807.5999755859375</ele>
        <time>2013-08-15T17:04:21.000Z</time>
        <extensions>
          <ns3:TrackPointExtension>
            <ns3:atemp>18.0</ns3:atemp>
            <ns3:hr>133</ns3:hr>
          </ns3:TrackPointExtension>
        </extensions>
      </trkpt>
      <trkpt lat="46.61743917502462863922119140625" lon="6.88913575373589992523193359375">
        <ele>807.4000244140625</ele>
        <time>2013-08-15T17:04:22.000Z</time>
        <extensions>
          <ns3:TrackPointExtension>
            <ns3:atemp>18.0</ns3:atemp>
            <ns3:hr>133</ns3:hr>
          </ns3:TrackPointExtension>
        </extensions>
      </trkpt>
      <trkpt lat="46.61744420416653156280517578125" lon="6.889100968837738037109375">
        <ele>807.4000244140625</ele>
        <time>2013-08-15T17:04:23.000Z</time>
        <extensions>
          <ns3:TrackPointExtension>
            <ns3:atemp>18.0</ns3:atemp>
            <ns3:hr>132</ns3:hr>
          </ns3:TrackPointExtension>
        </extensions>
      </trkpt>
      <trkpt lat="46.61744001321494579315185546875" lon="6.88911127857863903045654296875">
        <ele>807.20001220703125</ele>
        <time>2013-08-15T17:04:24.000Z</time>
        <extensions>
          <ns3:TrackPointExtension>
            <ns3:atemp>18.0</ns3:atemp>
            <ns3:hr>131</ns3:hr>
          </ns3:TrackPointExtension>
        </extensions>
      </trkpt>
      <trkpt lat="46.61743900738656520843505859375" lon="6.88907615840435028076171875">
        <ele>807</ele>
        <time>2013-08-15T17:04:25.000Z</time>
        <extensions>
          <ns3:TrackPointExtension>
            <ns3:atemp>18.0</ns3:atemp>
            <ns3:hr>130</ns3:hr>
          </ns3:TrackPointExtension>
        </extensions>
      </trkpt>
      <trkpt lat="46.61742769181728363037109375" lon="6.88907079398632049560546875">
        <ele>807</ele>
        <time>2013-08-15T17:04:26.000Z</time>
        <extensions>
          <ns3:TrackPointExtension>
            <ns3:atemp>18.0</ns3:atemp>
            <ns3:hr>129</ns3:hr>
          </ns3:TrackPointExtension>
        </extensions>
      </trkpt>
      <trkpt lat="46.61742039956152439117431640625" lon="6.88907909207046031951904296875">
        <ele>807.4000244140625</ele>
        <time>2013-08-15T17:04:27.000Z</time>
        <extensions>
          <ns3:TrackPointExtension>
            <ns3:atemp>18.0</ns3:atemp>
            <ns3:hr>129</ns3:hr>
          </ns3:TrackPointExtension>
        </extensions>
      </trkpt>
      <trkpt lat="46.61741025745868682861328125" lon="6.88908512704074382781982421875">
        <ele>807.4000244140625</ele>
        <time>2013-08-15T17:04:28.000Z</time>
        <extensions>
          <ns3:TrackPointExtension>
            <ns3:atemp>18.0</ns3:atemp>
            <ns3:hr>129</ns3:hr>
          </ns3:TrackPointExtension>
        </extensions>
      </trkpt>
      <trkpt lat="46.61741017363965511322021484375" lon="6.8890942633152008056640625">
        <ele>807.4000244140625</ele>
        <time>2013-08-15T17:04:29.000Z</time>
        <extensions>
          <ns3:TrackPointExtension>
            <ns3:atemp>18.0</ns3:atemp>
            <ns3:hr>128</ns3:hr>
          </ns3:TrackPointExtension>
        </extensions>
      </trkpt>
      <trkpt lat="46.6174124367535114288330078125" lon="6.88912217505276203155517578125">
        <ele>807.4000244140625</ele>
        <time>2013-08-15T17:04:30.000Z</time>
        <extensions>
          <ns3:TrackPointExtension>
            <ns3:atemp>18.0</ns3:atemp>
            <ns3:hr>127</ns3:hr>
          </ns3:TrackPointExtension>
        </extensions>
      </trkpt>
      <trkpt lat="46.61741520278155803680419921875" lon="6.8891547806560993194580078125">
        <ele>807.5999755859375</ele>
        <time>2013-08-15T17:04:31.000Z</time>
        <extensions>
          <ns3:TrackPointExtension>
            <ns3:atemp>18.0</ns3:atemp>
            <ns3:hr>127</ns3:hr>
          </ns3:TrackPointExtension>
        </extensions>
      </trkpt>
      <trkpt lat="46.6174141131341457366943359375" lon="6.88919040374457836151123046875">
        <ele>808</ele>
        <time>2013-08-15T17:04:32.000Z</time>
        <extensions>
          <ns3:TrackPointExtension>
            <ns3:atemp>18.0</ns3:atemp>
            <ns3:hr>127</ns3:hr>
          </ns3:TrackPointExtension>
        </extensions>
      </trkpt>
      <trkpt lat="46.6174151189625263214111328125" lon="6.8892342410981655120849609375">
        <ele>808.20001220703125</ele>
        <time>2013-08-15T17:04:33.000Z</time>
        <extensions>
          <ns3:TrackPointExtension>
            <ns3:atemp>18.0</ns3:atemp>
            <ns3:hr>127</ns3:hr>
          </ns3:TrackPointExtension>
        </extensions>
      </trkpt>
      <trkpt lat="46.61742241121828556060791015625" lon="6.88927405513823032379150390625">
        <ele>808.4000244140625</ele>
        <time>2013-08-15T17:04:34.000Z</time>
        <extensions>
          <ns3:TrackPointExtension>
            <ns3:atemp>18.0</ns3:atemp>
            <ns3:hr>127</ns3:hr>
          </ns3:TrackPointExtension>
        </extensions>
      </trkpt>
      <trkpt lat="46.61742760799825191497802734375" lon="6.88931286334991455078125">
        <ele>808.5999755859375</ele>
        <time>2013-08-15T17:04:35.000Z</time>
        <extensions>
          <ns3:TrackPointExtension>
            <ns3:atemp>18.0</ns3:atemp>
            <ns3:hr>126</ns3:hr>
          </ns3:TrackPointExtension>
        </extensions>
      </trkpt>
      <trkpt lat="46.61743029020726680755615234375" lon="6.88935284502804279327392578125">
        <ele>808.79998779296875</ele>
        <time>2013-08-15T17:04:36.000Z</time>
        <extensions>
          <ns3:TrackPointExtension>
            <ns3:atemp>18.0</ns3:atemp>
            <ns3:hr>127</ns3:hr>
          </ns3:TrackPointExtension>
        </extensions>
      </trkpt>
      <trkpt lat="46.617439426481723785400390625" lon="6.889389641582965850830078125">
        <ele>809.20001220703125</ele>
        <time>2013-08-15T17:04:37.000Z</time>
        <extensions>
          <ns3:TrackPointExtension>
            <ns3:atemp>18.0</ns3:atemp>
            <ns3:hr>127</ns3:hr>
          </ns3:TrackPointExtension>
        </extensions>
      </trkpt>
      <trkpt lat="46.61743883974850177764892578125" lon="6.8894132785499095916748046875">
        <ele>809.4000244140625</ele>
        <time>2013-08-15T17:04:38.000Z</time>
        <extensions>
          <ns3:TrackPointExtension>
            <ns3:atemp>18.0</ns3:atemp>
            <ns3:hr>127</ns3:hr>
          </ns3:TrackPointExtension>
        </extensions>
      </trkpt>
      <trkpt lat="46.61743749864399433135986328125" lon="6.88944119028747081756591796875">
        <ele>809.79998779296875</ele>
        <time>2013-08-15T17:04:39.000Z</time>
        <extensions>
          <ns3:TrackPointExtension>
            <ns3:atemp>18.0</ns3:atemp>
            <ns3:hr>128</ns3:hr>
          </ns3:TrackPointExtension>
        </extensions>
      </trkpt>
      <trkpt lat="46.6174349002540111541748046875" lon="6.8894709460437297821044921875">
        <ele>810</ele>
        <time>2013-08-15T17:04:40.000Z</time>
        <extensions>
          <ns3:TrackPointExtension>
            <ns3:atemp>18.0</ns3:atemp>
            <ns3:hr>128</ns3:hr>
          </ns3:TrackPointExtension>
        </extensions>
      </trkpt>
      <trkpt lat="46.61743062548339366912841796875" lon="6.88950221054255962371826171875">
        <ele>810.20001220703125</ele>
        <time>2013-08-15T17:04:41.000Z</time>
        <extensions>
          <ns3:TrackPointExtension>
            <ns3:atemp>18.0</ns3:atemp>
            <ns3:hr>128</ns3:hr>
          </ns3:TrackPointExtension>
        </extensions>
      </trkpt>
      <trkpt lat="46.61742878146469593048095703125" lon="6.8895353190600872039794921875">
        <ele>810.5999755859375</ele>
        <time>2013-08-15T17:04:42.000Z</time>
        <extensions>
          <ns3:TrackPointExtension>
            <ns3:atemp>18.0</ns3:atemp>
            <ns3:hr>129</ns3:hr>
          </ns3:TrackPointExtension>
        </extensions>
      </trkpt>
      <trkpt lat="46.6174256801605224609375" lon="6.88957362435758113861083984375">
        <ele>810.79998779296875</ele>
        <time>2013-08-15T17:04:43.000Z</time>
        <extensions>
          <ns3:TrackPointExtension>
            <ns3:atemp>18.0</ns3:atemp>
            <ns3:hr>129</ns3:hr>
          </ns3:TrackPointExtension>
        </extensions>
      </trkpt>
      <trkpt lat="46.6174275241792201995849609375" lon="6.88961335457861423492431640625">
        <ele>811</ele>
        <time>2013-08-15T17:04:44.000Z</time>
        <extensions>
          <ns3:TrackPointExtension>
            <ns3:atemp>18.0</ns3:atemp>
            <ns3:hr>129</ns3:hr>
          </ns3:TrackPointExtension>
        </extensions>
      </trkpt>
      <trkpt lat="46.6174268536269664764404296875" lon="6.88965392298996448516845703125">
        <ele>811.4000244140625</ele>
        <time>2013-08-15T17:04:45.000Z</time>
        <extensions>
          <ns3:TrackPointExtension>
            <ns3:atemp>18.0</ns3:atemp>
            <ns3:hr>130</ns3:hr>
          </ns3:TrackPointExtension>
        </extensions>
      </trkpt>
      <trkpt lat="46.61742492578923702239990234375" lon="6.8896949104964733123779296875">
        <ele>811.79998779296875</ele>
        <time>2013-08-15T17:04:46.000Z</time>
        <extensions>
          <ns3:TrackPointExtension>
            <ns3:atemp>18.0</ns3:atemp>
            <ns3:hr>130</ns3:hr>
          </ns3:TrackPointExtension>
        </extensions>
      </trkpt>
      <trkpt lat="46.61742391996085643768310546875" lon="6.8897338025271892547607421875">
        <ele>812.20001220703125</ele>
        <time>2013-08-15T17:04:47.000Z</time>
        <extensions>
          <ns3:TrackPointExtension>
            <ns3:atemp>18.0</ns3:atemp>
            <ns3:hr>131</ns3:hr>
          </ns3:TrackPointExtension>
        </extensions>
      </trkpt>
      <trkpt lat="46.61741486750543117523193359375" lon="6.88975534401834011077880859375">
        <ele>812.5999755859375</ele>
        <time>2013-08-15T17:04:48.000Z</time>
        <extensions>
          <ns3:TrackPointExtension>
            <ns3:atemp>18.0</ns3:atemp>
            <ns3:hr>131</ns3:hr>
          </ns3:TrackPointExtension>
        </extensions>
      </trkpt>
      <trkpt lat="46.61741235293447971343994140625" lon="6.889791302382946014404296875">
        <ele>812.79998779296875</ele>
        <time>2013-08-15T17:04:49.000Z</time>
        <extensions>
          <ns3:TrackPointExtension>
            <ns3:atemp>18.0</ns3:atemp>
            <ns3:hr>131</ns3:hr>
          </ns3:TrackPointExtension>
        </extensions>
      </trkpt>
      <trkpt lat="46.6174070723354816436767578125" lon="6.88983296044170856475830078125">
        <ele>813</ele>
        <time>2013-08-15T17:04:50.000Z</time>
        <extensions>
          <ns3:TrackPointExtension>
            <ns3:atemp>18.0</ns3:atemp>
            <ns3:hr>132</ns3:hr>
          </ns3:TrackPointExtension>
        </extensions>
      </trkpt>
      <trkpt lat="46.6174090839922428131103515625" lon="6.88987051136791706085205078125">
        <ele>813.5999755859375</ele>
        <time>2013-08-15T17:04:51.000Z</time>
        <extensions>
          <ns3:TrackPointExtension>
            <ns3:atemp>18.0</ns3:atemp>
            <ns3:hr>132</ns3:hr>
          </ns3:TrackPointExtension>
        </extensions>
      </trkpt>
      <trkpt lat="46.6174191422760486602783203125" lon="6.88990923576056957244873046875">
        <ele>814</ele>
        <time>2013-08-15T17:04:52.000Z</time>
        <extensions>
          <ns3:TrackPointExtension>
            <ns3:atemp>18.0</ns3:atemp>
            <ns3:hr>133</ns3:hr>
          </ns3:TrackPointExtension>
        </extensions>
      </trkpt>
      <trkpt lat="46.6174338944256305694580078125" lon="6.8899467028677463531494140625">
        <ele>813.79998779296875</ele>
        <time>2013-08-15T17:04:53.000Z</time>
        <extensions>
          <ns3:TrackPointExtension>
            <ns3:atemp>18.0</ns3:atemp>
            <ns3:hr>133</ns3:hr>
          </ns3:TrackPointExtension>
        </extensions>
      </trkpt>
      <trkpt lat="46.61745912395417690277099609375" lon="6.88998534344136714935302734375">
        <ele>813.79998779296875</ele>
        <time>2013-08-15T17:04:54.000Z</time>
        <extensions>
          <ns3:TrackPointExtension>
            <ns3:atemp>18.0</ns3:atemp>
            <ns3:hr>133</ns3:hr>
          </ns3:TrackPointExtension>
        </extensions>
      </trkpt>
      <trkpt lat="46.617487706243991851806640625" lon="6.8900311924517154693603515625">
        <ele>814</ele>
        <time>2013-08-15T17:04:55.000Z</time>
        <extensions>
          <ns3:TrackPointExtension>
            <ns3:atemp>18.0</ns3:atemp>
            <ns3:hr>133</ns3:hr>
          </ns3:TrackPointExtension>
        </extensions>
      </trkpt>
      <trkpt lat="46.617514528334140777587890625" lon="6.89008592627942562103271484375">
        <ele>814.20001220703125</ele>
        <time>2013-08-15T17:04:56.000Z</time>
        <extensions>
          <ns3:TrackPointExtension>
            <ns3:atemp>18.0</ns3:atemp>
            <ns3:hr>133</ns3:hr>
          </ns3:TrackPointExtension>
        </extensions>
      </trkpt>
      <trkpt lat="46.617542020976543426513671875" lon="6.8901374749839305877685546875">
        <ele>814.4000244140625</ele>
        <time>2013-08-15T17:04:57.000Z</time>
        <extensions>
          <ns3:TrackPointExtension>
            <ns3:atemp>18.0</ns3:atemp>
            <ns3:hr>133</ns3:hr>
          </ns3:TrackPointExtension>
        </extensions>
      </trkpt>
      <trkpt lat="46.617567837238311767578125" lon="6.8901891075074672698974609375">
        <ele>814.5999755859375</ele>
        <time>2013-08-15T17:04:58.000Z</time>
        <extensions>
          <ns3:TrackPointExtension>
            <ns3:atemp>18.0</ns3:atemp>
            <ns3:hr>133</ns3:hr>
          </ns3:TrackPointExtension>
        </extensions>
      </trkpt>
      <trkpt lat="46.61758954636752605438232421875" lon="6.89023344777524471282958984375">
        <ele>814.5999755859375</ele>
        <time>2013-08-15T17:04:59.000Z</time>
        <extensions>
          <ns3:TrackPointExtension>
            <ns3:atemp>18.0</ns3:atemp>
            <ns3:hr>133</ns3:hr>
          </ns3:TrackPointExtension>
        </extensions>
      </trkpt>
      <trkpt lat="46.6176147758960723876953125" lon="6.89028273336589336395263671875">
        <ele>814.5999755859375</ele>
        <time>2013-08-15T17:05:00.000Z</time>
        <extensions>
          <ns3:TrackPointExtension>
            <ns3:atemp>18.0</ns3:atemp>
            <ns3:hr>133</ns3:hr>
          </ns3:TrackPointExtension>
        </extensions>
      </trkpt>
      <trkpt lat="46.61763816140592098236083984375" lon="6.89032933674752712249755859375">
        <ele>814.79998779296875</ele>
        <time>2013-08-15T17:05:01.000Z</time>
        <extensions>
          <ns3:TrackPointExtension>
            <ns3:atemp>18.0</ns3:atemp>
            <ns3:hr>133</ns3:hr>
          </ns3:TrackPointExtension>
        </extensions>
      </trkpt>
      <trkpt lat="46.61765970289707183837890625" lon="6.8903751857578754425048828125">
        <ele>815</ele>
        <time>2013-08-15T17:05:02.000Z</time>
        <extensions>
          <ns3:TrackPointExtension>
            <ns3:atemp>18.0</ns3:atemp>
            <ns3:hr>133</ns3:hr>
          </ns3:TrackPointExtension>
        </extensions>
      </trkpt>
      <trkpt lat="46.6176850162446498870849609375" lon="6.8904271535575389862060546875">
        <ele>815.20001220703125</ele>
        <time>2013-08-15T17:05:03.000Z</time>
        <extensions>
          <ns3:TrackPointExtension>
            <ns3:atemp>18.0</ns3:atemp>
            <ns3:hr>134</ns3:hr>
          </ns3:TrackPointExtension>
        </extensions>
      </trkpt>
      <trkpt lat="46.61770639009773731231689453125" lon="6.89047484658658504486083984375">
        <ele>815.5999755859375</ele>
        <time>2013-08-15T17:05:04.000Z</time>
        <extensions>
          <ns3:TrackPointExtension>
            <ns3:atemp>18.0</ns3:atemp>
            <ns3:hr>134</ns3:hr>
          </ns3:TrackPointExtension>
        </extensions>
      </trkpt>
      <trkpt lat="46.61772868596017360687255859375" lon="6.8905297480523586273193359375">
        <ele>815.79998779296875</ele>
        <time>2013-08-15T17:05:05.000Z</time>
        <extensions>
          <ns3:TrackPointExtension>
            <ns3:atemp>18.0</ns3:atemp>
            <ns3:hr>134</ns3:hr>
          </ns3:TrackPointExtension>
        </extensions>
      </trkpt>
      <trkpt lat="46.61774796433746814727783203125" lon="6.89058179967105388641357421875">
        <ele>815.5999755859375</ele>
        <time>2013-08-15T17:05:06.000Z</time>
        <extensions>
          <ns3:TrackPointExtension>
            <ns3:atemp>18.0</ns3:atemp>
            <ns3:hr>134</ns3:hr>
          </ns3:TrackPointExtension>
        </extensions>
      </trkpt>
      <trkpt lat="46.61776296794414520263671875" lon="6.8906283192336559295654296875">
        <ele>815.79998779296875</ele>
        <time>2013-08-15T17:05:07.000Z</time>
        <extensions>
          <ns3:TrackPointExtension>
            <ns3:atemp>18.0</ns3:atemp>
            <ns3:hr>134</ns3:hr>
          </ns3:TrackPointExtension>
        </extensions>
      </trkpt>
      <trkpt lat="46.61778576672077178955078125" lon="6.89067601226270198822021484375">
        <ele>815.79998779296875</ele>
        <time>2013-08-15T17:05:08.000Z</time>
        <extensions>
          <ns3:TrackPointExtension>
            <ns3:atemp>18.0</ns3:atemp>
            <ns3:hr>134</ns3:hr>
          </ns3:TrackPointExtension>
        </extensions>
      </trkpt>
      <trkpt lat="46.617807559669017791748046875" lon="6.8907304108142852783203125">
        <ele>816.20001220703125</ele>
        <time>2013-08-15T17:05:09.000Z</time>
        <extensions>
          <ns3:TrackPointExtension>
            <ns3:atemp>18.0</ns3:atemp>
            <ns3:hr>134</ns3:hr>
          </ns3:TrackPointExtension>
        </extensions>
      </trkpt>
      <trkpt lat="46.617826335132122039794921875" lon="6.8907812051475048065185546875">
        <ele>816</ele>
        <time>2013-08-15T17:05:10.000Z</time>
        <extensions>
          <ns3:TrackPointExtension>
            <ns3:atemp>18.0</ns3:atemp>
            <ns3:hr>134</ns3:hr>
          </ns3:TrackPointExtension>
        </extensions>
      </trkpt>
      <trkpt lat="46.61785223521292209625244140625" lon="6.89083090983331203460693359375">
        <ele>816.20001220703125</ele>
        <time>2013-08-15T17:05:11.000Z</time>
        <extensions>
          <ns3:TrackPointExtension>
            <ns3:atemp>18.0</ns3:atemp>
            <ns3:hr>134</ns3:hr>
          </ns3:TrackPointExtension>
        </extensions>
      </trkpt>
      <trkpt lat="46.61787335760891437530517578125" lon="6.89087600447237491607666015625">
        <ele>816.4000244140625</ele>
        <time>2013-08-15T17:05:12.000Z</time>
        <extensions>
          <ns3:TrackPointExtension>
            <ns3:atemp>18.0</ns3:atemp>
            <ns3:hr>133</ns3:hr>
          </ns3:TrackPointExtension>
        </extensions>
      </trkpt>
      <trkpt lat="46.61789841949939727783203125" lon="6.89092394895851612091064453125">
        <ele>816.5999755859375</ele>
        <time>2013-08-15T17:05:13.000Z</time>
        <extensions>
          <ns3:TrackPointExtension>
            <ns3:atemp>18.0</ns3:atemp>
            <ns3:hr>134</ns3:hr>
          </ns3:TrackPointExtension>
        </extensions>
      </trkpt>
      <trkpt lat="46.61792666651308536529541015625" lon="6.89096309244632720947265625">
        <ele>816.5999755859375</ele>
        <time>2013-08-15T17:05:14.000Z</time>
        <extensions>
          <ns3:TrackPointExtension>
            <ns3:atemp>18.0</ns3:atemp>
            <ns3:hr>134</ns3:hr>
          </ns3:TrackPointExtension>
        </extensions>
      </trkpt>
      <trkpt lat="46.61795969121158123016357421875" lon="6.891003660857677459716796875">
        <ele>816.5999755859375</ele>
        <time>2013-08-15T17:05:15.000Z</time>
        <extensions>
          <ns3:TrackPointExtension>
            <ns3:atemp>18.0</ns3:atemp>
            <ns3:hr>134</ns3:hr>
          </ns3:TrackPointExtension>
        </extensions>
      </trkpt>
      <trkpt lat="46.61798827350139617919921875" lon="6.89104624092578887939453125">
        <ele>816.79998779296875</ele>
        <time>2013-08-15T17:05:16.000Z</time>
        <extensions>
          <ns3:TrackPointExtension>
            <ns3:atemp>18.0</ns3:atemp>
            <ns3:hr>134</ns3:hr>
          </ns3:TrackPointExtension>
        </extensions>
      </trkpt>
      <trkpt lat="46.61802188493311405181884765625" lon="6.8910866416990756988525390625">
        <ele>817.4000244140625</ele>
        <time>2013-08-15T17:05:17.000Z</time>
        <extensions>
          <ns3:TrackPointExtension>
            <ns3:atemp>18.0</ns3:atemp>
            <ns3:hr>134</ns3:hr>
          </ns3:TrackPointExtension>
        </extensions>
      </trkpt>
      <trkpt lat="46.61805356852710247039794921875" lon="6.89112561754882335662841796875">
        <ele>817.4000244140625</ele>
        <time>2013-08-15T17:05:18.000Z</time>
        <extensions>
          <ns3:TrackPointExtension>
            <ns3:atemp>18.0</ns3:atemp>
            <ns3:hr>135</ns3:hr>
          </ns3:TrackPointExtension>
        </extensions>
      </trkpt>
      <trkpt lat="46.6180900298058986663818359375" lon="6.891169287264347076416015625">
        <ele>817.4000244140625</ele>
        <time>2013-08-15T17:05:19.000Z</time>
        <extensions>
          <ns3:TrackPointExtension>
            <ns3:atemp>18.0</ns3:atemp>
            <ns3:hr>135</ns3:hr>
          </ns3:TrackPointExtension>
        </extensions>
      </trkpt>
      <trkpt lat="46.61811961792409420013427734375" lon="6.89121161587536334991455078125">
        <ele>817.79998779296875</ele>
        <time>2013-08-15T17:05:20.000Z</time>
        <extensions>
          <ns3:TrackPointExtension>
            <ns3:atemp>18.0</ns3:atemp>
            <ns3:hr>135</ns3:hr>
          </ns3:TrackPointExtension>
        </extensions>
      </trkpt>
      <trkpt lat="46.618144512176513671875" lon="6.89125545322895050048828125">
        <ele>818</ele>
        <time>2013-08-15T17:05:21.000Z</time>
        <extensions>
          <ns3:TrackPointExtension>
            <ns3:atemp>18.0</ns3:atemp>
            <ns3:hr>135</ns3:hr>
          </ns3:TrackPointExtension>
        </extensions>
      </trkpt>
      <trkpt lat="46.6181661374866962432861328125" lon="6.891297362744808197021484375">
        <ele>818.20001220703125</ele>
        <time>2013-08-15T17:05:22.000Z</time>
        <extensions>
          <ns3:TrackPointExtension>
            <ns3:atemp>18.0</ns3:atemp>
            <ns3:hr>135</ns3:hr>
          </ns3:TrackPointExtension>
        </extensions>
      </trkpt>
      <trkpt lat="46.6181812249124050140380859375" lon="6.891342289745807647705078125">
        <ele>818.5999755859375</ele>
        <time>2013-08-15T17:05:23.000Z</time>
        <extensions>
          <ns3:TrackPointExtension>
            <ns3:atemp>18.0</ns3:atemp>
            <ns3:hr>136</ns3:hr>
          </ns3:TrackPointExtension>
        </extensions>
      </trkpt>
      <trkpt lat="46.61820477806031703948974609375" lon="6.89139082096517086029052734375">
        <ele>818.79998779296875</ele>
        <time>2013-08-15T17:05:24.000Z</time>
        <extensions>
          <ns3:TrackPointExtension>
            <ns3:atemp>18.0</ns3:atemp>
            <ns3:hr>136</ns3:hr>
          </ns3:TrackPointExtension>
        </extensions>
      </trkpt>
      <trkpt lat="46.61822657100856304168701171875" lon="6.89142988063395023345947265625">
        <ele>819</ele>
        <time>2013-08-15T17:05:25.000Z</time>
        <extensions>
          <ns3:TrackPointExtension>
            <ns3:atemp>18.0</ns3:atemp>
            <ns3:hr>136</ns3:hr>
          </ns3:TrackPointExtension>
        </extensions>
      </trkpt>
      <trkpt lat="46.6182469390332698822021484375" lon="6.89146659336984157562255859375">
        <ele>819</ele>
        <time>2013-08-15T17:05:26.000Z</time>
        <extensions>
          <ns3:TrackPointExtension>
            <ns3:atemp>18.0</ns3:atemp>
            <ns3:hr>136</ns3:hr>
          </ns3:TrackPointExtension>
        </extensions>
      </trkpt>
      <trkpt lat="46.61826529540121555328369140625" lon="6.891497857868671417236328125">
        <ele>819</ele>
        <time>2013-08-15T17:05:27.000Z</time>
        <extensions>
          <ns3:TrackPointExtension>
            <ns3:atemp>18.0</ns3:atemp>
            <ns3:hr>136</ns3:hr>
          </ns3:TrackPointExtension>
        </extensions>
      </trkpt>
      <trkpt lat="46.61828105337917804718017578125" lon="6.89152275212109088897705078125">
        <ele>819</ele>
        <time>2013-08-15T17:05:28.000Z</time>
        <extensions>
          <ns3:TrackPointExtension>
            <ns3:atemp>18.0</ns3:atemp>
            <ns3:hr>136</ns3:hr>
          </ns3:TrackPointExtension>
        </extensions>
      </trkpt>
      <trkpt lat="46.6182945482432842254638671875" lon="6.89154907129704952239990234375">
        <ele>819.20001220703125</ele>
        <time>2013-08-15T17:05:29.000Z</time>
        <extensions>
          <ns3:TrackPointExtension>
            <ns3:atemp>18.0</ns3:atemp>
            <ns3:hr>137</ns3:hr>
          </ns3:TrackPointExtension>
        </extensions>
      </trkpt>
      <trkpt lat="46.61830854602158069610595703125" lon="6.8915751390159130096435546875">
        <ele>819.4000244140625</ele>
        <time>2013-08-15T17:05:30.000Z</time>
        <extensions>
          <ns3:TrackPointExtension>
            <ns3:atemp>18.0</ns3:atemp>
            <ns3:hr>136</ns3:hr>
          </ns3:TrackPointExtension>
        </extensions>
      </trkpt>
      <trkpt lat="46.6183297522366046905517578125" lon="6.8915976025164127349853515625">
        <ele>819.79998779296875</ele>
        <time>2013-08-15T17:05:31.000Z</time>
        <extensions>
          <ns3:TrackPointExtension>
            <ns3:atemp>18.0</ns3:atemp>
            <ns3:hr>137</ns3:hr>
          </ns3:TrackPointExtension>
        </extensions>
      </trkpt>
      <trkpt lat="46.61834676750004291534423828125" lon="6.891623921692371368408203125">
        <ele>820</ele>
        <time>2013-08-15T17:05:32.000Z</time>
        <extensions>
          <ns3:TrackPointExtension>
            <ns3:atemp>18.0</ns3:atemp>
            <ns3:hr>137</ns3:hr>
          </ns3:TrackPointExtension>
        </extensions>
      </trkpt>
      <trkpt lat="46.61835598759353160858154296875" lon="6.89165032468736171722412109375">
        <ele>820.20001220703125</ele>
        <time>2013-08-15T17:05:33.000Z</time>
        <extensions>
          <ns3:TrackPointExtension>
            <ns3:atemp>18.0</ns3:atemp>
            <ns3:hr>137</ns3:hr>
          </ns3:TrackPointExtension>
        </extensions>
      </trkpt>
      <trkpt lat="46.61836822517216205596923828125" lon="6.8916790746152400970458984375">
        <ele>820.4000244140625</ele>
        <time>2013-08-15T17:05:34.000Z</time>
        <extensions>
          <ns3:TrackPointExtension>
            <ns3:atemp>18.0</ns3:atemp>
            <ns3:hr>138</ns3:hr>
          </ns3:TrackPointExtension>
        </extensions>
      </trkpt>
      <trkpt lat="46.61838264204561710357666015625" lon="6.89169944263994693756103515625">
        <ele>820.79998779296875</ele>
        <time>2013-08-15T17:05:35.000Z</time>
        <extensions>
          <ns3:TrackPointExtension>
            <ns3:atemp>18.0</ns3:atemp>
            <ns3:hr>138</ns3:hr>
          </ns3:TrackPointExtension>
        </extensions>
      </trkpt>
      <trkpt lat="46.6183952987194061279296875" lon="6.89171587117016315460205078125">
        <ele>821</ele>
        <time>2013-08-15T17:05:36.000Z</time>
        <extensions>
          <ns3:TrackPointExtension>
            <ns3:atemp>18.0</ns3:atemp>
            <ns3:hr>137</ns3:hr>
          </ns3:TrackPointExtension>
        </extensions>
      </trkpt>
      <trkpt lat="46.6184060275554656982421875" lon="6.891730539500713348388671875">
        <ele>821.4000244140625</ele>
        <time>2013-08-15T17:05:37.000Z</time>
        <extensions>
          <ns3:TrackPointExtension>
            <ns3:atemp>18.0</ns3:atemp>
            <ns3:hr>137</ns3:hr>
          </ns3:TrackPointExtension>
        </extensions>
      </trkpt>
      <trkpt lat="46.618414409458637237548828125" lon="6.8917471356689929962158203125">
        <ele>821.5999755859375</ele>
        <time>2013-08-15T17:05:38.000Z</time>
        <extensions>
          <ns3:TrackPointExtension>
            <ns3:atemp>18.0</ns3:atemp>
            <ns3:hr>138</ns3:hr>
          </ns3:TrackPointExtension>
        </extensions>
      </trkpt>
      <trkpt lat="46.61842413246631622314453125" lon="6.89176096580922603607177734375">
        <ele>822</ele>
        <time>2013-08-15T17:05:39.000Z</time>
        <extensions>
          <ns3:TrackPointExtension>
            <ns3:atemp>18.0</ns3:atemp>
            <ns3:hr>138</ns3:hr>
          </ns3:TrackPointExtension>
        </extensions>
      </trkpt>
      <trkpt lat="46.618429161608219146728515625" lon="6.89177789725363254547119140625">
        <ele>822.20001220703125</ele>
        <time>2013-08-15T17:05:40.000Z</time>
        <extensions>
          <ns3:TrackPointExtension>
            <ns3:atemp>18.0</ns3:atemp>
            <ns3:hr>138</ns3:hr>
          </ns3:TrackPointExtension>
        </extensions>
      </trkpt>
      <trkpt lat="46.6184243001043796539306640625" lon="6.8917642347514629364013671875">
        <ele>822.4000244140625</ele>
        <time>2013-08-15T17:05:41.000Z</time>
        <extensions>
          <ns3:TrackPointExtension>
            <ns3:atemp>18.0</ns3:atemp>
            <ns3:hr>139</ns3:hr>
          </ns3:TrackPointExtension>
        </extensions>
      </trkpt>
      <trkpt lat="46.6184474341571331024169921875" lon="6.89179633744060993194580078125">
        <ele>822.79998779296875</ele>
        <time>2013-08-15T17:05:42.000Z</time>
        <extensions>
          <ns3:TrackPointExtension>
            <ns3:atemp>18.0</ns3:atemp>
            <ns3:hr>139</ns3:hr>
          </ns3:TrackPointExtension>
        </extensions>
      </trkpt>
      <trkpt lat="46.61847232840955257415771484375" lon="6.89181603491306304931640625">
        <ele>823</ele>
        <time>2013-08-15T17:05:43.000Z</time>
        <extensions>
          <ns3:TrackPointExtension>
            <ns3:atemp>18.0</ns3:atemp>
            <ns3:hr>139</ns3:hr>
          </ns3:TrackPointExtension>
        </extensions>
      </trkpt>
      <trkpt lat="46.61850032396614551544189453125" lon="6.8918366543948650360107421875">
        <ele>823.4000244140625</ele>
        <time>2013-08-15T17:05:44.000Z</time>
        <extensions>
          <ns3:TrackPointExtension>
            <ns3:atemp>18.0</ns3:atemp>
            <ns3:hr>139</ns3:hr>
          </ns3:TrackPointExtension>
        </extensions>
      </trkpt>
      <trkpt lat="46.61850032396614551544189453125" lon="6.8918366543948650360107421875">
        <ele>823.79998779296875</ele>
        <time>2013-08-15T17:05:45.000Z</time>
        <extensions>
          <ns3:TrackPointExtension>
            <ns3:atemp>18.0</ns3:atemp>
            <ns3:hr>140</ns3:hr>
          </ns3:TrackPointExtension>
        </extensions>
      </trkpt>
      <trkpt lat="46.6185168363153934478759765625" lon="6.89185492694377899169921875">
        <ele>824</ele>
        <time>2013-08-15T17:05:46.000Z</time>
        <extensions>
          <ns3:TrackPointExtension>
            <ns3:atemp>18.0</ns3:atemp>
            <ns3:hr>140</ns3:hr>
          </ns3:TrackPointExtension>
        </extensions>
      </trkpt>
      <trkpt lat="46.61853435449302196502685546875" lon="6.8918735347688198089599609375">
        <ele>824.4000244140625</ele>
        <time>2013-08-15T17:05:47.000Z</time>
        <extensions>
          <ns3:TrackPointExtension>
            <ns3:atemp>18.0</ns3:atemp>
            <ns3:hr>140</ns3:hr>
          </ns3:TrackPointExtension>
        </extensions>
      </trkpt>
      <trkpt lat="46.61854960955679416656494140625" lon="6.89189440570771694183349609375">
        <ele>824.79998779296875</ele>
        <time>2013-08-15T17:05:48.000Z</time>
        <extensions>
          <ns3:TrackPointExtension>
            <ns3:atemp>18.0</ns3:atemp>
            <ns3:hr>140</ns3:hr>
          </ns3:TrackPointExtension>
        </extensions>
      </trkpt>
      <trkpt lat="46.618566624820232391357421875" lon="6.89191795885562896728515625">
        <ele>825.20001220703125</ele>
        <time>2013-08-15T17:05:49.000Z</time>
        <extensions>
          <ns3:TrackPointExtension>
            <ns3:atemp>18.0</ns3:atemp>
            <ns3:hr>140</ns3:hr>
          </ns3:TrackPointExtension>
        </extensions>
      </trkpt>
      <trkpt lat="46.61859252490103244781494140625" lon="6.89195408485829830169677734375">
        <ele>825.5999755859375</ele>
        <time>2013-08-15T17:05:50.000Z</time>
        <extensions>
          <ns3:TrackPointExtension>
            <ns3:atemp>18.0</ns3:atemp>
            <ns3:hr>141</ns3:hr>
          </ns3:TrackPointExtension>
        </extensions>
      </trkpt>
      <trkpt lat="46.6186071932315826416015625" lon="6.891981326043605804443359375">
        <ele>825.79998779296875</ele>
        <time>2013-08-15T17:05:51.000Z</time>
        <extensions>
          <ns3:TrackPointExtension>
            <ns3:atemp>18.0</ns3:atemp>
            <ns3:hr>141</ns3:hr>
          </ns3:TrackPointExtension>
        </extensions>
      </trkpt>
      <trkpt lat="46.61860342137515544891357421875" lon="6.89196757972240447998046875">
        <ele>826.20001220703125</ele>
        <time>2013-08-15T17:05:52.000Z</time>
        <extensions>
          <ns3:TrackPointExtension>
            <ns3:atemp>18.0</ns3:atemp>
            <ns3:hr>142</ns3:hr>
          </ns3:TrackPointExtension>
        </extensions>
      </trkpt>
      <trkpt lat="46.61863678134977817535400390625" lon="6.8920227326452732086181640625">
        <ele>826.5999755859375</ele>
        <time>2013-08-15T17:05:53.000Z</time>
        <extensions>
          <ns3:TrackPointExtension>
            <ns3:atemp>18.0</ns3:atemp>
            <ns3:hr>142</ns3:hr>
          </ns3:TrackPointExtension>
        </extensions>
      </trkpt>
      <trkpt lat="46.6186526231467723846435546875" lon="6.892044357955455780029296875">
        <ele>826.79998779296875</ele>
        <time>2013-08-15T17:05:54.000Z</time>
        <extensions>
          <ns3:TrackPointExtension>
            <ns3:atemp>18.0</ns3:atemp>
            <ns3:hr>142</ns3:hr>
          </ns3:TrackPointExtension>
        </extensions>
      </trkpt>
      <trkpt lat="46.61867047660052776336669921875" lon="6.892068497836589813232421875">
        <ele>827</ele>
        <time>2013-08-15T17:05:55.000Z</time>
        <extensions>
          <ns3:TrackPointExtension>
            <ns3:atemp>18.0</ns3:atemp>
            <ns3:hr>143</ns3:hr>
          </ns3:TrackPointExtension>
        </extensions>
      </trkpt>
      <trkpt lat="46.6186851449310779571533203125" lon="6.89209439791738986968994140625">
        <ele>827.20001220703125</ele>
        <time>2013-08-15T17:05:56.000Z</time>
        <extensions>
          <ns3:TrackPointExtension>
            <ns3:atemp>18.0</ns3:atemp>
            <ns3:hr>143</ns3:hr>
          </ns3:TrackPointExtension>
        </extensions>
      </trkpt>
      <trkpt lat="46.618707440793514251708984375" lon="6.89212909899652004241943359375">
        <ele>827.4000244140625</ele>
        <time>2013-08-15T17:05:57.000Z</time>
        <extensions>
          <ns3:TrackPointExtension>
            <ns3:atemp>18.0</ns3:atemp>
            <ns3:hr>143</ns3:hr>
          </ns3:TrackPointExtension>
        </extensions>
      </trkpt>
      <trkpt lat="46.61872127093374729156494140625" lon="6.89214519225060939788818359375">
        <ele>827.5999755859375</ele>
        <time>2013-08-15T17:05:58.000Z</time>
        <extensions>
          <ns3:TrackPointExtension>
            <ns3:atemp>18.0</ns3:atemp>
            <ns3:hr>144</ns3:hr>
          </ns3:TrackPointExtension>
        </extensions>
      </trkpt>
      <trkpt lat="46.618736945092678070068359375" lon="6.89216363243758678436279296875">
        <ele>827.79998779296875</ele>
        <time>2013-08-15T17:05:59.000Z</time>
        <extensions>
          <ns3:TrackPointExtension>
            <ns3:atemp>18.0</ns3:atemp>
            <ns3:hr>144</ns3:hr>
          </ns3:TrackPointExtension>
        </extensions>
      </trkpt>
      <trkpt lat="46.61874976940453052520751953125" lon="6.892179138958454132080078125">
        <ele>828</ele>
        <time>2013-08-15T17:06:00.000Z</time>
        <extensions>
          <ns3:TrackPointExtension>
            <ns3:atemp>18.0</ns3:atemp>
            <ns3:hr>144</ns3:hr>
          </ns3:TrackPointExtension>
        </extensions>
      </trkpt>
      <trkpt lat="46.61876100115478038787841796875" lon="6.892197243869304656982421875">
        <ele>828.20001220703125</ele>
        <time>2013-08-15T17:06:01.000Z</time>
        <extensions>
          <ns3:TrackPointExtension>
            <ns3:atemp>18.0</ns3:atemp>
            <ns3:hr>144</ns3:hr>
          </ns3:TrackPointExtension>
        </extensions>
      </trkpt>
      <trkpt lat="46.6187763400375843048095703125" lon="6.8922138400375843048095703125">
        <ele>828.4000244140625</ele>
        <time>2013-08-15T17:06:02.000Z</time>
        <extensions>
          <ns3:TrackPointExtension>
            <ns3:atemp>18.0</ns3:atemp>
            <ns3:hr>144</ns3:hr>
          </ns3:TrackPointExtension>
        </extensions>
      </trkpt>
      <trkpt lat="46.618792600929737091064453125" lon="6.89223286695778369903564453125">
        <ele>828.79998779296875</ele>
        <time>2013-08-15T17:06:03.000Z</time>
        <extensions>
          <ns3:TrackPointExtension>
            <ns3:atemp>18.0</ns3:atemp>
            <ns3:hr>144</ns3:hr>
          </ns3:TrackPointExtension>
        </extensions>
      </trkpt>
      <trkpt lat="46.618814729154109954833984375" lon="6.8922574259340763092041015625">
        <ele>829</ele>
        <time>2013-08-15T17:06:04.000Z</time>
        <extensions>
          <ns3:TrackPointExtension>
            <ns3:atemp>18.0</ns3:atemp>
            <ns3:hr>144</ns3:hr>
          </ns3:TrackPointExtension>
        </extensions>
      </trkpt>
      <trkpt lat="46.61883560009300708770751953125" lon="6.89227242954075336456298828125">
        <ele>829.20001220703125</ele>
        <time>2013-08-15T17:06:05.000Z</time>
        <extensions>
          <ns3:TrackPointExtension>
            <ns3:atemp>18.0</ns3:atemp>
            <ns3:hr>144</ns3:hr>
          </ns3:TrackPointExtension>
        </extensions>
      </trkpt>
      <trkpt lat="46.61885730922222137451171875" lon="6.89229615032672882080078125">
        <ele>829.5999755859375</ele>
        <time>2013-08-15T17:06:06.000Z</time>
        <extensions>
          <ns3:TrackPointExtension>
            <ns3:atemp>18.0</ns3:atemp>
            <ns3:hr>145</ns3:hr>
          </ns3:TrackPointExtension>
        </extensions>
      </trkpt>
      <trkpt lat="46.618875078856945037841796875" lon="6.89231417141854763031005859375">
        <ele>829.79998779296875</ele>
        <time>2013-08-15T17:06:07.000Z</time>
        <extensions>
          <ns3:TrackPointExtension>
            <ns3:atemp>18.0</ns3:atemp>
            <ns3:hr>145</ns3:hr>
          </ns3:TrackPointExtension>
        </extensions>
      </trkpt>
      <trkpt lat="46.618883796036243438720703125" lon="6.89232699573040008544921875">
        <ele>829.79998779296875</ele>
        <time>2013-08-15T17:06:08.000Z</time>
        <extensions>
          <ns3:TrackPointExtension>
            <ns3:atemp>18.0</ns3:atemp>
            <ns3:hr>145</ns3:hr>
          </ns3:TrackPointExtension>
        </extensions>
      </trkpt>
      <trkpt lat="46.61889863200485706329345703125" lon="6.8923397362232208251953125">
        <ele>830.20001220703125</ele>
        <time>2013-08-15T17:06:09.000Z</time>
        <extensions>
          <ns3:TrackPointExtension>
            <ns3:atemp>18.0</ns3:atemp>
            <ns3:hr>145</ns3:hr>
          </ns3:TrackPointExtension>
        </extensions>
      </trkpt>
      <trkpt lat="46.61891908384859561920166015625" lon="6.89236345700919628143310546875">
        <ele>830.4000244140625</ele>
        <time>2013-08-15T17:06:10.000Z</time>
        <extensions>
          <ns3:TrackPointExtension>
            <ns3:atemp>18.0</ns3:atemp>
            <ns3:hr>145</ns3:hr>
          </ns3:TrackPointExtension>
        </extensions>
      </trkpt>
      <trkpt lat="46.6189369373023509979248046875" lon="6.89238776452839374542236328125">
        <ele>830.5999755859375</ele>
        <time>2013-08-15T17:06:11.000Z</time>
        <extensions>
          <ns3:TrackPointExtension>
            <ns3:atemp>18.0</ns3:atemp>
            <ns3:hr>145</ns3:hr>
          </ns3:TrackPointExtension>
        </extensions>
      </trkpt>
      <trkpt lat="46.61895244382321834564208984375" lon="6.8924186937510967254638671875">
        <ele>830.79998779296875</ele>
        <time>2013-08-15T17:06:12.000Z</time>
        <extensions>
          <ns3:TrackPointExtension>
            <ns3:atemp>18.0</ns3:atemp>
            <ns3:hr>145</ns3:hr>
          </ns3:TrackPointExtension>
        </extensions>
      </trkpt>
      <trkpt lat="46.61896903999149799346923828125" lon="6.89244459383189678192138671875">
        <ele>830.79998779296875</ele>
        <time>2013-08-15T17:06:13.000Z</time>
        <extensions>
          <ns3:TrackPointExtension>
            <ns3:atemp>18.0</ns3:atemp>
            <ns3:hr>145</ns3:hr>
          </ns3:TrackPointExtension>
        </extensions>
      </trkpt>
      <trkpt lat="46.61898429505527019500732421875" lon="6.89246554858982563018798828125">
        <ele>831</ele>
        <time>2013-08-15T17:06:14.000Z</time>
        <extensions>
          <ns3:TrackPointExtension>
            <ns3:atemp>18.0</ns3:atemp>
            <ns3:hr>145</ns3:hr>
          </ns3:TrackPointExtension>
        </extensions>
      </trkpt>
      <trkpt lat="46.6190063394606113433837890625" lon="6.89249756745994091033935546875">
        <ele>831.20001220703125</ele>
        <time>2013-08-15T17:06:15.000Z</time>
        <extensions>
          <ns3:TrackPointExtension>
            <ns3:atemp>18.0</ns3:atemp>
            <ns3:hr>145</ns3:hr>
          </ns3:TrackPointExtension>
        </extensions>
      </trkpt>
      <trkpt lat="46.61902737803757190704345703125" lon="6.89252573065459728240966796875">
        <ele>831.4000244140625</ele>
        <time>2013-08-15T17:06:16.000Z</time>
        <extensions>
          <ns3:TrackPointExtension>
            <ns3:atemp>18.0</ns3:atemp>
            <ns3:hr>145</ns3:hr>
          </ns3:TrackPointExtension>
        </extensions>
      </trkpt>
      <trkpt lat="46.61905906163156032562255859375" lon="6.89255238510668277740478515625">
        <ele>831.5999755859375</ele>
        <time>2013-08-15T17:06:17.000Z</time>
        <extensions>
          <ns3:TrackPointExtension>
            <ns3:atemp>18.0</ns3:atemp>
            <ns3:hr>145</ns3:hr>
          </ns3:TrackPointExtension>
        </extensions>
      </trkpt>
      <trkpt lat="46.61908655427396297454833984375" lon="6.8925784528255462646484375">
        <ele>831.79998779296875</ele>
        <time>2013-08-15T17:06:18.000Z</time>
        <extensions>
          <ns3:TrackPointExtension>
            <ns3:atemp>18.0</ns3:atemp>
            <ns3:hr>145</ns3:hr>
          </ns3:TrackPointExtension>
        </extensions>
      </trkpt>
      <trkpt lat="46.61911387927830219268798828125" lon="6.89261005260050296783447265625">
        <ele>831.79998779296875</ele>
        <time>2013-08-15T17:06:19.000Z</time>
        <extensions>
          <ns3:TrackPointExtension>
            <ns3:atemp>18.0</ns3:atemp>
            <ns3:hr>145</ns3:hr>
          </ns3:TrackPointExtension>
        </extensions>
      </trkpt>
      <trkpt lat="46.61914162337779998779296875" lon="6.89263888634741306304931640625">
        <ele>832</ele>
        <time>2013-08-15T17:06:20.000Z</time>
        <extensions>
          <ns3:TrackPointExtension>
            <ns3:atemp>18.0</ns3:atemp>
            <ns3:hr>144</ns3:hr>
          </ns3:TrackPointExtension>
        </extensions>
      </trkpt>
      <trkpt lat="46.61916844546794891357421875" lon="6.89266235567629337310791015625">
        <ele>832.20001220703125</ele>
        <time>2013-08-15T17:06:21.000Z</time>
        <extensions>
          <ns3:TrackPointExtension>
            <ns3:atemp>18.0</ns3:atemp>
            <ns3:hr>144</ns3:hr>
          </ns3:TrackPointExtension>
        </extensions>
      </trkpt>
      <trkpt lat="46.61919669248163700103759765625" lon="6.8926889263093471527099609375">
        <ele>832.4000244140625</ele>
        <time>2013-08-15T17:06:22.000Z</time>
        <extensions>
          <ns3:TrackPointExtension>
            <ns3:atemp>18.0</ns3:atemp>
            <ns3:hr>144</ns3:hr>
          </ns3:TrackPointExtension>
        </extensions>
      </trkpt>
      <trkpt lat="46.6192286275327205657958984375" lon="6.8927160836756229400634765625">
        <ele>832.4000244140625</ele>
        <time>2013-08-15T17:06:23.000Z</time>
        <extensions>
          <ns3:TrackPointExtension>
            <ns3:atemp>18.0</ns3:atemp>
            <ns3:hr>144</ns3:hr>
          </ns3:TrackPointExtension>
        </extensions>
      </trkpt>
      <trkpt lat="46.619261316955089569091796875" lon="6.89274466596543788909912109375">
        <ele>832.4000244140625</ele>
        <time>2013-08-15T17:06:24.000Z</time>
        <extensions>
          <ns3:TrackPointExtension>
            <ns3:atemp>18.0</ns3:atemp>
            <ns3:hr>144</ns3:hr>
          </ns3:TrackPointExtension>
        </extensions>
      </trkpt>
      <trkpt lat="46.61929761059582233428955078125" lon="6.8927817977964878082275390625">
        <ele>832.4000244140625</ele>
        <time>2013-08-15T17:06:25.000Z</time>
        <extensions>
          <ns3:TrackPointExtension>
            <ns3:atemp>18.0</ns3:atemp>
            <ns3:hr>143</ns3:hr>
          </ns3:TrackPointExtension>
        </extensions>
      </trkpt>
      <trkpt lat="46.6193308867514133453369140625" lon="6.892816163599491119384765625">
        <ele>832.4000244140625</ele>
        <time>2013-08-15T17:06:26.000Z</time>
        <extensions>
          <ns3:TrackPointExtension>
            <ns3:atemp>18.0</ns3:atemp>
            <ns3:hr>143</ns3:hr>
          </ns3:TrackPointExtension>
        </extensions>
      </trkpt>
      <trkpt lat="46.6193640790879726409912109375" lon="6.8928520381450653076171875">
        <ele>832.20001220703125</ele>
        <time>2013-08-15T17:06:27.000Z</time>
        <extensions>
          <ns3:TrackPointExtension>
            <ns3:atemp>18.0</ns3:atemp>
            <ns3:hr>143</ns3:hr>
          </ns3:TrackPointExtension>
        </extensions>
      </trkpt>
      <trkpt lat="46.6193979419767856597900390625" lon="6.892890594899654388427734375">
        <ele>832.20001220703125</ele>
        <time>2013-08-15T17:06:28.000Z</time>
        <extensions>
          <ns3:TrackPointExtension>
            <ns3:atemp>18.0</ns3:atemp>
            <ns3:hr>143</ns3:hr>
          </ns3:TrackPointExtension>
        </extensions>
      </trkpt>
      <trkpt lat="46.61943255923688411712646484375" lon="6.89293007366359233856201171875">
        <ele>832</ele>
        <time>2013-08-15T17:06:29.000Z</time>
        <extensions>
          <ns3:TrackPointExtension>
            <ns3:atemp>18.0</ns3:atemp>
            <ns3:hr>143</ns3:hr>
          </ns3:TrackPointExtension>
        </extensions>
      </trkpt>
      <trkpt lat="46.61946558393537998199462890625" lon="6.89296611584722995758056640625">
        <ele>832.20001220703125</ele>
        <time>2013-08-15T17:06:30.000Z</time>
        <extensions>
          <ns3:TrackPointExtension>
            <ns3:atemp>18.0</ns3:atemp>
            <ns3:hr>143</ns3:hr>
          </ns3:TrackPointExtension>
        </extensions>
      </trkpt>
      <trkpt lat="46.6195015422999858856201171875" lon="6.89300953410565853118896484375">
        <ele>832.5999755859375</ele>
        <time>2013-08-15T17:06:31.000Z</time>
        <extensions>
          <ns3:TrackPointExtension>
            <ns3:atemp>18.0</ns3:atemp>
            <ns3:hr>143</ns3:hr>
          </ns3:TrackPointExtension>
        </extensions>
      </trkpt>
      <trkpt lat="46.61953297443687915802001953125" lon="6.8930513598024845123291015625">
        <ele>832.79998779296875</ele>
        <time>2013-08-15T17:06:32.000Z</time>
        <extensions>
          <ns3:TrackPointExtension>
            <ns3:atemp>18.0</ns3:atemp>
            <ns3:hr>142</ns3:hr>
          </ns3:TrackPointExtension>
        </extensions>
      </trkpt>
      <trkpt lat="46.619558371603488922119140625" lon="6.89309301786124706268310546875">
        <ele>832.79998779296875</ele>
        <time>2013-08-15T17:06:33.000Z</time>
        <extensions>
          <ns3:TrackPointExtension>
            <ns3:atemp>18.0</ns3:atemp>
            <ns3:hr>142</ns3:hr>
          </ns3:TrackPointExtension>
        </extensions>
      </trkpt>
      <trkpt lat="46.61958209238946437835693359375" lon="6.89313610084354877471923828125">
        <ele>832.79998779296875</ele>
        <time>2013-08-15T17:06:34.000Z</time>
        <extensions>
          <ns3:TrackPointExtension>
            <ns3:atemp>18.0</ns3:atemp>
            <ns3:hr>142</ns3:hr>
          </ns3:TrackPointExtension>
        </extensions>
      </trkpt>
      <trkpt lat="46.61961126141250133514404296875" lon="6.89317599870264530181884765625">
        <ele>832.79998779296875</ele>
        <time>2013-08-15T17:06:35.000Z</time>
        <extensions>
          <ns3:TrackPointExtension>
            <ns3:atemp>18.0</ns3:atemp>
            <ns3:hr>141</ns3:hr>
          </ns3:TrackPointExtension>
        </extensions>
      </trkpt>
      <trkpt lat="46.61963959224522113800048828125" lon="6.893215477466583251953125">
        <ele>833</ele>
        <time>2013-08-15T17:06:36.000Z</time>
        <extensions>
          <ns3:TrackPointExtension>
            <ns3:atemp>18.0</ns3:atemp>
            <ns3:hr>141</ns3:hr>
          </ns3:TrackPointExtension>
        </extensions>
      </trkpt>
      <trkpt lat="46.6196678392589092254638671875" lon="6.8932588957250118255615234375">
        <ele>833.4000244140625</ele>
        <time>2013-08-15T17:06:37.000Z</time>
        <extensions>
          <ns3:TrackPointExtension>
            <ns3:atemp>18.0</ns3:atemp>
            <ns3:hr>141</ns3:hr>
          </ns3:TrackPointExtension>
        </extensions>
      </trkpt>
      <trkpt lat="46.6196939907968044281005859375" lon="6.89330399036407470703125">
        <ele>833.4000244140625</ele>
        <time>2013-08-15T17:06:38.000Z</time>
        <extensions>
          <ns3:TrackPointExtension>
            <ns3:atemp>18.0</ns3:atemp>
            <ns3:hr>141</ns3:hr>
          </ns3:TrackPointExtension>
        </extensions>
      </trkpt>
      <trkpt lat="46.61972089670598506927490234375" lon="6.8933413736522197723388671875">
        <ele>833.5999755859375</ele>
        <time>2013-08-15T17:06:39.000Z</time>
        <extensions>
          <ns3:TrackPointExtension>
            <ns3:atemp>18.0</ns3:atemp>
            <ns3:hr>140</ns3:hr>
          </ns3:TrackPointExtension>
        </extensions>
      </trkpt>
      <trkpt lat="46.61974604241549968719482421875" lon="6.8933804333209991455078125">
        <ele>833.5999755859375</ele>
        <time>2013-08-15T17:06:40.000Z</time>
        <extensions>
          <ns3:TrackPointExtension>
            <ns3:atemp>18.0</ns3:atemp>
            <ns3:hr>140</ns3:hr>
          </ns3:TrackPointExtension>
        </extensions>
      </trkpt>
      <trkpt lat="46.61976884119212627410888671875" lon="6.89342477358877658843994140625">
        <ele>833.79998779296875</ele>
        <time>2013-08-15T17:06:41.000Z</time>
        <extensions>
          <ns3:TrackPointExtension>
            <ns3:atemp>18.0</ns3:atemp>
            <ns3:hr>141</ns3:hr>
          </ns3:TrackPointExtension>
        </extensions>
      </trkpt>
      <trkpt lat="46.619793064892292022705078125" lon="6.89346903003752231597900390625">
        <ele>833.79998779296875</ele>
        <time>2013-08-15T17:06:42.000Z</time>
        <extensions>
          <ns3:TrackPointExtension>
            <ns3:atemp>18.0</ns3:atemp>
            <ns3:hr>140</ns3:hr>
          </ns3:TrackPointExtension>
        </extensions>
      </trkpt>
      <trkpt lat="46.61982013843953609466552734375" lon="6.89350909553468227386474609375">
        <ele>834</ele>
        <time>2013-08-15T17:06:43.000Z</time>
        <extensions>
          <ns3:TrackPointExtension>
            <ns3:atemp>18.0</ns3:atemp>
            <ns3:hr>140</ns3:hr>
          </ns3:TrackPointExtension>
        </extensions>
      </trkpt>
      <trkpt lat="46.619847379624843597412109375" lon="6.89354740083217620849609375">
        <ele>834</ele>
        <time>2013-08-15T17:06:44.000Z</time>
        <extensions>
          <ns3:TrackPointExtension>
            <ns3:atemp>18.0</ns3:atemp>
            <ns3:hr>140</ns3:hr>
          </ns3:TrackPointExtension>
        </extensions>
      </trkpt>
      <trkpt lat="46.61987495608627796173095703125" lon="6.89358335919678211212158203125">
        <ele>834</ele>
        <time>2013-08-15T17:06:45.000Z</time>
        <extensions>
          <ns3:TrackPointExtension>
            <ns3:atemp>18.0</ns3:atemp>
            <ns3:hr>140</ns3:hr>
          </ns3:TrackPointExtension>
        </extensions>
      </trkpt>
      <trkpt lat="46.61990697495639324188232421875" lon="6.89362241886556148529052734375">
        <ele>834.20001220703125</ele>
        <time>2013-08-15T17:06:46.000Z</time>
        <extensions>
          <ns3:TrackPointExtension>
            <ns3:atemp>18.0</ns3:atemp>
            <ns3:hr>140</ns3:hr>
          </ns3:TrackPointExtension>
        </extensions>
      </trkpt>
      <trkpt lat="46.6199390776455402374267578125" lon="6.8936541862785816192626953125">
        <ele>834.4000244140625</ele>
        <time>2013-08-15T17:06:47.000Z</time>
        <extensions>
          <ns3:TrackPointExtension>
            <ns3:atemp>18.0</ns3:atemp>
            <ns3:hr>139</ns3:hr>
          </ns3:TrackPointExtension>
        </extensions>
      </trkpt>
      <trkpt lat="46.61997252143919467926025390625" lon="6.8936840258538722991943359375">
        <ele>834.4000244140625</ele>
        <time>2013-08-15T17:06:48.000Z</time>
        <extensions>
          <ns3:TrackPointExtension>
            <ns3:atemp>18.0</ns3:atemp>
            <ns3:hr>139</ns3:hr>
          </ns3:TrackPointExtension>
        </extensions>
      </trkpt>
      <trkpt lat="46.62000336684286594390869140625" lon="6.8937296234071254730224609375">
        <ele>834.20001220703125</ele>
        <time>2013-08-15T17:06:49.000Z</time>
        <extensions>
          <ns3:TrackPointExtension>
            <ns3:atemp>17.0</ns3:atemp>
            <ns3:hr>139</ns3:hr>
          </ns3:TrackPointExtension>
        </extensions>
      </trkpt>
      <trkpt lat="46.6200185380876064300537109375" lon="6.8937755562365055084228515625">
        <ele>834.4000244140625</ele>
        <time>2013-08-15T17:06:50.000Z</time>
        <extensions>
          <ns3:TrackPointExtension>
            <ns3:atemp>17.0</ns3:atemp>
            <ns3:hr>139</ns3:hr>
          </ns3:TrackPointExtension>
        </extensions>
      </trkpt>
      <trkpt lat="46.6200356371700763702392578125" lon="6.893824003636837005615234375">
        <ele>834.4000244140625</ele>
        <time>2013-08-15T17:06:51.000Z</time>
        <extensions>
          <ns3:TrackPointExtension>
            <ns3:atemp>17.0</ns3:atemp>
            <ns3:hr>138</ns3:hr>
          </ns3:TrackPointExtension>
        </extensions>
      </trkpt>
      <trkpt lat="46.6200715117156505584716796875" lon="6.89386256039142608642578125">
        <ele>834.4000244140625</ele>
        <time>2013-08-15T17:06:52.000Z</time>
        <extensions>
          <ns3:TrackPointExtension>
            <ns3:atemp>17.0</ns3:atemp>
            <ns3:hr>138</ns3:hr>
          </ns3:TrackPointExtension>
        </extensions>
      </trkpt>
      <trkpt lat="46.6201020218431949615478515625" lon="6.8939061462879180908203125">
        <ele>834.20001220703125</ele>
        <time>2013-08-15T17:06:53.000Z</time>
        <extensions>
          <ns3:TrackPointExtension>
            <ns3:atemp>17.0</ns3:atemp>
            <ns3:hr>138</ns3:hr>
          </ns3:TrackPointExtension>
        </extensions>
      </trkpt>
      <trkpt lat="46.62013261578977108001708984375" lon="6.893950738012790679931640625">
        <ele>834.20001220703125</ele>
        <time>2013-08-15T17:06:54.000Z</time>
        <extensions>
          <ns3:TrackPointExtension>
            <ns3:atemp>17.0</ns3:atemp>
            <ns3:hr>138</ns3:hr>
          </ns3:TrackPointExtension>
        </extensions>
      </trkpt>
      <trkpt lat="46.620162539184093475341796875" lon="6.8939981795847415924072265625">
        <ele>834</ele>
        <time>2013-08-15T17:06:55.000Z</time>
        <extensions>
          <ns3:TrackPointExtension>
            <ns3:atemp>17.0</ns3:atemp>
            <ns3:hr>138</ns3:hr>
          </ns3:TrackPointExtension>
        </extensions>
      </trkpt>
      <trkpt lat="46.620190702378749847412109375" lon="6.8940467946231365203857421875">
        <ele>834.20001220703125</ele>
        <time>2013-08-15T17:06:56.000Z</time>
        <extensions>
          <ns3:TrackPointExtension>
            <ns3:atemp>17.0</ns3:atemp>
            <ns3:hr>137</ns3:hr>
          </ns3:TrackPointExtension>
        </extensions>
      </trkpt>
      <trkpt lat="46.6202193684875965118408203125" lon="6.89409733749926090240478515625">
        <ele>834.20001220703125</ele>
        <time>2013-08-15T17:06:57.000Z</time>
        <extensions>
          <ns3:TrackPointExtension>
            <ns3:atemp>17.0</ns3:atemp>
            <ns3:hr>137</ns3:hr>
          </ns3:TrackPointExtension>
        </extensions>
      </trkpt>
      <trkpt lat="46.62024669349193572998046875" lon="6.89414679072797298431396484375">
        <ele>834.20001220703125</ele>
        <time>2013-08-15T17:06:58.000Z</time>
        <extensions>
          <ns3:TrackPointExtension>
            <ns3:atemp>17.0</ns3:atemp>
            <ns3:hr>137</ns3:hr>
          </ns3:TrackPointExtension>
        </extensions>
      </trkpt>
      <trkpt lat="46.6202716715633869171142578125" lon="6.89419372938573360443115234375">
        <ele>834.20001220703125</ele>
        <time>2013-08-15T17:06:59.000Z</time>
        <extensions>
          <ns3:TrackPointExtension>
            <ns3:atemp>17.0</ns3:atemp>
            <ns3:hr>136</ns3:hr>
          </ns3:TrackPointExtension>
        </extensions>
      </trkpt>
      <trkpt lat="46.6202991642057895660400390625" lon="6.89424745738506317138671875">
        <ele>834.20001220703125</ele>
        <time>2013-08-15T17:07:00.000Z</time>
        <extensions>
          <ns3:TrackPointExtension>
            <ns3:atemp>17.0</ns3:atemp>
            <ns3:hr>136</ns3:hr>
          </ns3:TrackPointExtension>
        </extensions>
      </trkpt>
      <trkpt lat="46.62033109925687313079833984375" lon="6.8942965753376483917236328125">
        <ele>834</ele>
        <time>2013-08-15T17:07:01.000Z</time>
        <extensions>
          <ns3:TrackPointExtension>
            <ns3:atemp>17.0</ns3:atemp>
            <ns3:hr>135</ns3:hr>
          </ns3:TrackPointExtension>
        </extensions>
      </trkpt>
      <trkpt lat="46.62035943008959293365478515625" lon="6.8943525664508342742919921875">
        <ele>834</ele>
        <time>2013-08-15T17:07:02.000Z</time>
        <extensions>
          <ns3:TrackPointExtension>
            <ns3:atemp>17.0</ns3:atemp>
            <ns3:hr>135</ns3:hr>
          </ns3:TrackPointExtension>
        </extensions>
      </trkpt>
      <trkpt lat="46.6203776188194751739501953125" lon="6.89441149123013019561767578125">
        <ele>834</ele>
        <time>2013-08-15T17:07:03.000Z</time>
        <extensions>
          <ns3:TrackPointExtension>
            <ns3:atemp>17.0</ns3:atemp>
            <ns3:hr>135</ns3:hr>
          </ns3:TrackPointExtension>
        </extensions>
      </trkpt>
      <trkpt lat="46.62038792856037616729736328125" lon="6.894485168159008026123046875">
        <ele>834</ele>
        <time>2013-08-15T17:07:04.000Z</time>
        <extensions>
          <ns3:TrackPointExtension>
            <ns3:atemp>17.0</ns3:atemp>
            <ns3:hr>135</ns3:hr>
          </ns3:TrackPointExtension>
        </extensions>
      </trkpt>
      <trkpt lat="46.620387174189090728759765625" lon="6.89456404186785221099853515625">
        <ele>834</ele>
        <time>2013-08-15T17:07:05.000Z</time>
        <extensions>
          <ns3:TrackPointExtension>
            <ns3:atemp>17.0</ns3:atemp>
            <ns3:hr>135</ns3:hr>
          </ns3:TrackPointExtension>
        </extensions>
      </trkpt>
      <trkpt lat="46.62036881782114505767822265625" lon="6.89464366994798183441162109375">
        <ele>834</ele>
        <time>2013-08-15T17:07:06.000Z</time>
        <extensions>
          <ns3:TrackPointExtension>
            <ns3:atemp>17.0</ns3:atemp>
            <ns3:hr>135</ns3:hr>
          </ns3:TrackPointExtension>
        </extensions>
      </trkpt>
      <trkpt lat="46.62034098990261554718017578125" lon="6.89471625722944736480712890625">
        <ele>834</ele>
        <time>2013-08-15T17:07:07.000Z</time>
        <extensions>
          <ns3:TrackPointExtension>
            <ns3:atemp>17.0</ns3:atemp>
            <ns3:hr>135</ns3:hr>
          </ns3:TrackPointExtension>
        </extensions>
      </trkpt>
      <trkpt lat="46.62031299434602260589599609375" lon="6.89478331245481967926025390625">
        <ele>834</ele>
        <time>2013-08-15T17:07:08.000Z</time>
        <extensions>
          <ns3:TrackPointExtension>
            <ns3:atemp>17.0</ns3:atemp>
            <ns3:hr>135</ns3:hr>
          </ns3:TrackPointExtension>
        </extensions>
      </trkpt>
      <trkpt lat="46.6202797181904315948486328125" lon="6.89484349451959133148193359375">
        <ele>833.79998779296875</ele>
        <time>2013-08-15T17:07:09.000Z</time>
        <extensions>
          <ns3:TrackPointExtension>
            <ns3:atemp>17.0</ns3:atemp>
            <ns3:hr>134</ns3:hr>
          </ns3:TrackPointExtension>
        </extensions>
      </trkpt>
      <trkpt lat="46.62024359218776226043701171875" lon="6.8948983959853649139404296875">
        <ele>833.79998779296875</ele>
        <time>2013-08-15T17:07:10.000Z</time>
        <extensions>
          <ns3:TrackPointExtension>
            <ns3:atemp>17.0</ns3:atemp>
            <ns3:hr>133</ns3:hr>
          </ns3:TrackPointExtension>
        </extensions>
      </trkpt>
      <trkpt lat="46.6202026046812534332275390625" lon="6.89495153725147247314453125">
        <ele>833.79998779296875</ele>
        <time>2013-08-15T17:07:11.000Z</time>
        <extensions>
          <ns3:TrackPointExtension>
            <ns3:atemp>17.0</ns3:atemp>
            <ns3:hr>133</ns3:hr>
          </ns3:TrackPointExtension>
        </extensions>
      </trkpt>
      <trkpt lat="46.62015675567090511322021484375" lon="6.8949993140995502471923828125">
        <ele>833.79998779296875</ele>
        <time>2013-08-15T17:07:12.000Z</time>
        <extensions>
          <ns3:TrackPointExtension>
            <ns3:atemp>17.0</ns3:atemp>
            <ns3:hr>133</ns3:hr>
          </ns3:TrackPointExtension>
        </extensions>
      </trkpt>
      <trkpt lat="46.62010512314736843109130859375" lon="6.89504315145313739776611328125">
        <ele>833.5999755859375</ele>
        <time>2013-08-15T17:07:13.000Z</time>
        <extensions>
          <ns3:TrackPointExtension>
            <ns3:atemp>17.0</ns3:atemp>
            <ns3:hr>132</ns3:hr>
          </ns3:TrackPointExtension>
        </extensions>
      </trkpt>
      <trkpt lat="46.62004879675805568695068359375" lon="6.89508371986448764801025390625">
        <ele>833.5999755859375</ele>
        <time>2013-08-15T17:07:14.000Z</time>
        <extensions>
          <ns3:TrackPointExtension>
            <ns3:atemp>17.0</ns3:atemp>
            <ns3:hr>132</ns3:hr>
          </ns3:TrackPointExtension>
        </extensions>
      </trkpt>
      <trkpt lat="46.61999029107391834259033203125" lon="6.89511917531490325927734375">
        <ele>833.4000244140625</ele>
        <time>2013-08-15T17:07:15.000Z</time>
        <extensions>
          <ns3:TrackPointExtension>
            <ns3:atemp>17.0</ns3:atemp>
            <ns3:hr>132</ns3:hr>
          </ns3:TrackPointExtension>
        </extensions>
      </trkpt>
      <trkpt lat="46.61992977373301982879638671875" lon="6.89515379257500171661376953125">
        <ele>833.4000244140625</ele>
        <time>2013-08-15T17:07:16.000Z</time>
        <extensions>
          <ns3:TrackPointExtension>
            <ns3:atemp>17.0</ns3:atemp>
            <ns3:hr>131</ns3:hr>
          </ns3:TrackPointExtension>
        </extensions>
      </trkpt>
      <trkpt lat="46.61987076513469219207763671875" lon="6.89518664963543415069580078125">
        <ele>833.4000244140625</ele>
        <time>2013-08-15T17:07:17.000Z</time>
        <extensions>
          <ns3:TrackPointExtension>
            <ns3:atemp>17.0</ns3:atemp>
            <ns3:hr>130</ns3:hr>
          </ns3:TrackPointExtension>
        </extensions>
      </trkpt>
      <trkpt lat="46.6198173724114894866943359375" lon="6.8952242843806743621826171875">
        <ele>833.4000244140625</ele>
        <time>2013-08-15T17:07:18.000Z</time>
        <extensions>
          <ns3:TrackPointExtension>
            <ns3:atemp>17.0</ns3:atemp>
            <ns3:hr>130</ns3:hr>
          </ns3:TrackPointExtension>
        </extensions>
      </trkpt>
      <trkpt lat="46.61976850591599941253662109375" lon="6.89526443369686603546142578125">
        <ele>833.5999755859375</ele>
        <time>2013-08-15T17:07:19.000Z</time>
        <extensions>
          <ns3:TrackPointExtension>
            <ns3:atemp>17.0</ns3:atemp>
            <ns3:hr>130</ns3:hr>
          </ns3:TrackPointExtension>
        </extensions>
      </trkpt>
      <trkpt lat="46.61972357891499996185302734375" lon="6.89530969597399234771728515625">
        <ele>833.5999755859375</ele>
        <time>2013-08-15T17:07:20.000Z</time>
        <extensions>
          <ns3:TrackPointExtension>
            <ns3:atemp>17.0</ns3:atemp>
            <ns3:hr>129</ns3:hr>
          </ns3:TrackPointExtension>
        </extensions>
      </trkpt>
      <trkpt lat="46.6196846030652523040771484375" lon="6.895344145596027374267578125">
        <ele>833.5999755859375</ele>
        <time>2013-08-15T17:07:21.000Z</time>
        <extensions>
          <ns3:TrackPointExtension>
            <ns3:atemp>17.0</ns3:atemp>
            <ns3:hr>129</ns3:hr>
          </ns3:TrackPointExtension>
        </extensions>
      </trkpt>
      <trkpt lat="46.6196607984602451324462890625" lon="6.895385719835758209228515625">
        <ele>834</ele>
        <time>2013-08-15T17:07:22.000Z</time>
        <extensions>
          <ns3:TrackPointExtension>
            <ns3:atemp>17.0</ns3:atemp>
            <ns3:hr>129</ns3:hr>
          </ns3:TrackPointExtension>
        </extensions>
      </trkpt>
      <trkpt lat="46.61963808350265026092529296875" lon="6.8954242765903472900390625">
        <ele>834.20001220703125</ele>
        <time>2013-08-15T17:07:23.000Z</time>
        <extensions>
          <ns3:TrackPointExtension>
            <ns3:atemp>17.0</ns3:atemp>
            <ns3:hr>130</ns3:hr>
          </ns3:TrackPointExtension>
        </extensions>
      </trkpt>
      <trkpt lat="46.61962232552468776702880859375" lon="6.8954603187739849090576171875">
        <ele>834.4000244140625</ele>
        <time>2013-08-15T17:07:24.000Z</time>
        <extensions>
          <ns3:TrackPointExtension>
            <ns3:atemp>17.0</ns3:atemp>
            <ns3:hr>130</ns3:hr>
          </ns3:TrackPointExtension>
        </extensions>
      </trkpt>
      <trkpt lat="46.61960807628929615020751953125" lon="6.89549024216830730438232421875">
        <ele>834.79998779296875</ele>
        <time>2013-08-15T17:07:25.000Z</time>
        <extensions>
          <ns3:TrackPointExtension>
            <ns3:atemp>17.0</ns3:atemp>
            <ns3:hr>130</ns3:hr>
          </ns3:TrackPointExtension>
        </extensions>
      </trkpt>
      <trkpt lat="46.61959516815841197967529296875" lon="6.895521171391010284423828125">
        <ele>835</ele>
        <time>2013-08-15T17:07:26.000Z</time>
        <extensions>
          <ns3:TrackPointExtension>
            <ns3:atemp>17.0</ns3:atemp>
            <ns3:hr>131</ns3:hr>
          </ns3:TrackPointExtension>
        </extensions>
      </trkpt>
      <trkpt lat="46.61958611570298671722412109375" lon="6.89555830322206020355224609375">
        <ele>835.20001220703125</ele>
        <time>2013-08-15T17:07:27.000Z</time>
        <extensions>
          <ns3:TrackPointExtension>
            <ns3:atemp>17.0</ns3:atemp>
            <ns3:hr>131</ns3:hr>
          </ns3:TrackPointExtension>
        </extensions>
      </trkpt>
      <trkpt lat="46.61957639269530773162841796875" lon="6.89559417776763439178466796875">
        <ele>835.4000244140625</ele>
        <time>2013-08-15T17:07:28.000Z</time>
        <extensions>
          <ns3:TrackPointExtension>
            <ns3:atemp>17.0</ns3:atemp>
            <ns3:hr>131</ns3:hr>
          </ns3:TrackPointExtension>
        </extensions>
      </trkpt>
      <trkpt lat="46.61956499330699443817138671875" lon="6.89563089050352573394775390625">
        <ele>835.5999755859375</ele>
        <time>2013-08-15T17:07:29.000Z</time>
        <extensions>
          <ns3:TrackPointExtension>
            <ns3:atemp>17.0</ns3:atemp>
            <ns3:hr>132</ns3:hr>
          </ns3:TrackPointExtension>
        </extensions>
      </trkpt>
      <trkpt lat="46.61955174989998340606689453125" lon="6.8956696987152099609375">
        <ele>836</ele>
        <time>2013-08-15T17:07:30.000Z</time>
        <extensions>
          <ns3:TrackPointExtension>
            <ns3:atemp>17.0</ns3:atemp>
            <ns3:hr>132</ns3:hr>
          </ns3:TrackPointExtension>
        </extensions>
      </trkpt>
      <trkpt lat="46.61954068578779697418212890625" lon="6.8957084231078624725341796875">
        <ele>836.4000244140625</ele>
        <time>2013-08-15T17:07:31.000Z</time>
        <extensions>
          <ns3:TrackPointExtension>
            <ns3:atemp>17.0</ns3:atemp>
            <ns3:hr>133</ns3:hr>
          </ns3:TrackPointExtension>
        </extensions>
      </trkpt>
      <trkpt lat="46.61953247152268886566162109375" lon="6.89573901705443859100341796875">
        <ele>837</ele>
        <time>2013-08-15T17:07:32.000Z</time>
        <extensions>
          <ns3:TrackPointExtension>
            <ns3:atemp>17.0</ns3:atemp>
            <ns3:hr>133</ns3:hr>
          </ns3:TrackPointExtension>
        </extensions>
      </trkpt>
      <trkpt lat="46.61952559836208820343017578125" lon="6.8957915715873241424560546875">
        <ele>837.20001220703125</ele>
        <time>2013-08-15T17:07:33.000Z</time>
        <extensions>
          <ns3:TrackPointExtension>
            <ns3:atemp>17.0</ns3:atemp>
            <ns3:hr>134</ns3:hr>
          </ns3:TrackPointExtension>
        </extensions>
      </trkpt>
      <trkpt lat="46.61951352842152118682861328125" lon="6.8958351574838161468505859375">
        <ele>837.4000244140625</ele>
        <time>2013-08-15T17:07:34.000Z</time>
        <extensions>
          <ns3:TrackPointExtension>
            <ns3:atemp>17.0</ns3:atemp>
            <ns3:hr>134</ns3:hr>
          </ns3:TrackPointExtension>
        </extensions>
      </trkpt>
      <trkpt lat="46.619506739079952239990234375" lon="6.89588502980768680572509765625">
        <ele>837.4000244140625</ele>
        <time>2013-08-15T17:07:35.000Z</time>
        <extensions>
          <ns3:TrackPointExtension>
            <ns3:atemp>17.0</ns3:atemp>
            <ns3:hr>134</ns3:hr>
          </ns3:TrackPointExtension>
        </extensions>
      </trkpt>
      <trkpt lat="46.61949726752936840057373046875" lon="6.8959243409335613250732421875">
        <ele>837.5999755859375</ele>
        <time>2013-08-15T17:07:36.000Z</time>
        <extensions>
          <ns3:TrackPointExtension>
            <ns3:atemp>17.0</ns3:atemp>
            <ns3:hr>135</ns3:hr>
          </ns3:TrackPointExtension>
        </extensions>
      </trkpt>
      <trkpt lat="46.61949056200683116912841796875" lon="6.89597555436193943023681640625">
        <ele>837.5999755859375</ele>
        <time>2013-08-15T17:07:37.000Z</time>
        <extensions>
          <ns3:TrackPointExtension>
            <ns3:atemp>17.0</ns3:atemp>
            <ns3:hr>135</ns3:hr>
          </ns3:TrackPointExtension>
        </extensions>
      </trkpt>
      <trkpt lat="46.61948637105524539947509765625" lon="6.8960219062864780426025390625">
        <ele>837.79998779296875</ele>
        <time>2013-08-15T17:07:38.000Z</time>
        <extensions>
          <ns3:TrackPointExtension>
            <ns3:atemp>17.0</ns3:atemp>
            <ns3:hr>135</ns3:hr>
          </ns3:TrackPointExtension>
        </extensions>
      </trkpt>
      <trkpt lat="46.6194841079413890838623046875" lon="6.8960680067539215087890625">
        <ele>838.20001220703125</ele>
        <time>2013-08-15T17:07:39.000Z</time>
        <extensions>
          <ns3:TrackPointExtension>
            <ns3:atemp>17.0</ns3:atemp>
            <ns3:hr>135</ns3:hr>
          </ns3:TrackPointExtension>
        </extensions>
      </trkpt>
      <trkpt lat="46.6194824315607547760009765625" lon="6.8961134366691112518310546875">
        <ele>838.4000244140625</ele>
        <time>2013-08-15T17:07:40.000Z</time>
        <extensions>
          <ns3:TrackPointExtension>
            <ns3:atemp>17.0</ns3:atemp>
            <ns3:hr>136</ns3:hr>
          </ns3:TrackPointExtension>
        </extensions>
      </trkpt>
      <trkpt lat="46.61948033608496189117431640625" lon="6.8961632251739501953125">
        <ele>838.4000244140625</ele>
        <time>2013-08-15T17:07:41.000Z</time>
        <extensions>
          <ns3:TrackPointExtension>
            <ns3:atemp>17.0</ns3:atemp>
            <ns3:hr>136</ns3:hr>
          </ns3:TrackPointExtension>
        </extensions>
      </trkpt>
      <trkpt lat="46.6194884665310382843017578125" lon="6.8962187133729457855224609375">
        <ele>838.4000244140625</ele>
        <time>2013-08-15T17:07:42.000Z</time>
        <extensions>
          <ns3:TrackPointExtension>
            <ns3:atemp>17.0</ns3:atemp>
            <ns3:hr>135</ns3:hr>
          </ns3:TrackPointExtension>
        </extensions>
      </trkpt>
      <trkpt lat="46.619496010243892669677734375" lon="6.8962736986577510833740234375">
        <ele>838.4000244140625</ele>
        <time>2013-08-15T17:07:43.000Z</time>
        <extensions>
          <ns3:TrackPointExtension>
            <ns3:atemp>17.0</ns3:atemp>
            <ns3:hr>135</ns3:hr>
          </ns3:TrackPointExtension>
        </extensions>
      </trkpt>
      <trkpt lat="46.619513444602489471435546875" lon="6.8963424302637577056884765625">
        <ele>838.4000244140625</ele>
        <time>2013-08-15T17:07:44.000Z</time>
        <extensions>
          <ns3:TrackPointExtension>
            <ns3:atemp>17.0</ns3:atemp>
            <ns3:hr>135</ns3:hr>
          </ns3:TrackPointExtension>
        </extensions>
      </trkpt>
      <trkpt lat="46.61953515373170375823974609375" lon="6.8964101560413837432861328125">
        <ele>838.20001220703125</ele>
        <time>2013-08-15T17:07:45.000Z</time>
        <extensions>
          <ns3:TrackPointExtension>
            <ns3:atemp>17.0</ns3:atemp>
            <ns3:hr>135</ns3:hr>
          </ns3:TrackPointExtension>
        </extensions>
      </trkpt>
      <trkpt lat="46.6195558570325374603271484375" lon="6.89648299477994441986083984375">
        <ele>838</ele>
        <time>2013-08-15T17:07:46.000Z</time>
        <extensions>
          <ns3:TrackPointExtension>
            <ns3:atemp>17.0</ns3:atemp>
            <ns3:hr>135</ns3:hr>
          </ns3:TrackPointExtension>
        </extensions>
      </trkpt>
      <trkpt lat="46.6195699386298656463623046875" lon="6.89655072055757045745849609375">
        <ele>838</ele>
        <time>2013-08-15T17:07:47.000Z</time>
        <extensions>
          <ns3:TrackPointExtension>
            <ns3:atemp>17.0</ns3:atemp>
            <ns3:hr>134</ns3:hr>
          </ns3:TrackPointExtension>
        </extensions>
      </trkpt>
      <trkpt lat="46.61959215067327022552490234375" lon="6.89663185738027095794677734375">
        <ele>837.79998779296875</ele>
        <time>2013-08-15T17:07:48.000Z</time>
        <extensions>
          <ns3:TrackPointExtension>
            <ns3:atemp>17.0</ns3:atemp>
            <ns3:hr>134</ns3:hr>
          </ns3:TrackPointExtension>
        </extensions>
      </trkpt>
      <trkpt lat="46.61961930803954601287841796875" lon="6.89672120846807956695556640625">
        <ele>837.5999755859375</ele>
        <time>2013-08-15T17:07:49.000Z</time>
        <extensions>
          <ns3:TrackPointExtension>
            <ns3:atemp>17.0</ns3:atemp>
            <ns3:hr>134</ns3:hr>
          </ns3:TrackPointExtension>
        </extensions>
      </trkpt>
      <trkpt lat="46.6196490637958049774169921875" lon="6.8968010880053043365478515625">
        <ele>837.5999755859375</ele>
        <time>2013-08-15T17:07:50.000Z</time>
        <extensions>
          <ns3:TrackPointExtension>
            <ns3:atemp>17.0</ns3:atemp>
            <ns3:hr>133</ns3:hr>
          </ns3:TrackPointExtension>
        </extensions>
      </trkpt>
      <trkpt lat="46.6196926496922969818115234375" lon="6.89687442965805530548095703125">
        <ele>837.4000244140625</ele>
        <time>2013-08-15T17:07:51.000Z</time>
        <extensions>
          <ns3:TrackPointExtension>
            <ns3:atemp>17.0</ns3:atemp>
            <ns3:hr>133</ns3:hr>
          </ns3:TrackPointExtension>
        </extensions>
      </trkpt>
      <trkpt lat="46.61974051035940647125244140625" lon="6.896943412721157073974609375">
        <ele>837.4000244140625</ele>
        <time>2013-08-15T17:07:52.000Z</time>
        <extensions>
          <ns3:TrackPointExtension>
            <ns3:atemp>17.0</ns3:atemp>
            <ns3:hr>133</ns3:hr>
          </ns3:TrackPointExtension>
        </extensions>
      </trkpt>
      <trkpt lat="46.61978409625589847564697265625" lon="6.89701122231781482696533203125">
        <ele>837.20001220703125</ele>
        <time>2013-08-15T17:07:53.000Z</time>
        <extensions>
          <ns3:TrackPointExtension>
            <ns3:atemp>17.0</ns3:atemp>
            <ns3:hr>133</ns3:hr>
          </ns3:TrackPointExtension>
        </extensions>
      </trkpt>
      <trkpt lat="46.61982634104788303375244140625" lon="6.89707718789577484130859375">
        <ele>837</ele>
        <time>2013-08-15T17:07:54.000Z</time>
        <extensions>
          <ns3:TrackPointExtension>
            <ns3:atemp>17.0</ns3:atemp>
            <ns3:hr>132</ns3:hr>
          </ns3:TrackPointExtension>
        </extensions>
      </trkpt>
      <trkpt lat="46.619865484535694122314453125" lon="6.89714181236922740936279296875">
        <ele>837</ele>
        <time>2013-08-15T17:07:55.000Z</time>
        <extensions>
          <ns3:TrackPointExtension>
            <ns3:atemp>17.0</ns3:atemp>
            <ns3:hr>132</ns3:hr>
          </ns3:TrackPointExtension>
        </extensions>
      </trkpt>
      <trkpt lat="46.61990471184253692626953125" lon="6.897206604480743408203125">
        <ele>837</ele>
        <time>2013-08-15T17:07:56.000Z</time>
        <extensions>
          <ns3:TrackPointExtension>
            <ns3:atemp>17.0</ns3:atemp>
            <ns3:hr>132</ns3:hr>
          </ns3:TrackPointExtension>
        </extensions>
      </trkpt>
      <trkpt lat="46.61994217894971370697021484375" lon="6.89727324061095714569091796875">
        <ele>837</ele>
        <time>2013-08-15T17:07:57.000Z</time>
        <extensions>
          <ns3:TrackPointExtension>
            <ns3:atemp>17.0</ns3:atemp>
            <ns3:hr>132</ns3:hr>
          </ns3:TrackPointExtension>
        </extensions>
      </trkpt>
      <trkpt lat="46.61996816284954547882080078125" lon="6.89735270105302333831787109375">
        <ele>836.79998779296875</ele>
        <time>2013-08-15T17:07:58.000Z</time>
        <extensions>
          <ns3:TrackPointExtension>
            <ns3:atemp>17.0</ns3:atemp>
            <ns3:hr>131</ns3:hr>
          </ns3:TrackPointExtension>
        </extensions>
      </trkpt>
      <trkpt lat="46.619970090687274932861328125" lon="6.89743467606604099273681640625">
        <ele>836.5999755859375</ele>
        <time>2013-08-15T17:07:59.000Z</time>
        <extensions>
          <ns3:TrackPointExtension>
            <ns3:atemp>17.0</ns3:atemp>
            <ns3:hr>130</ns3:hr>
          </ns3:TrackPointExtension>
        </extensions>
      </trkpt>
      <trkpt lat="46.61994385533034801483154296875" lon="6.89750575460493564605712890625">
        <ele>836.4000244140625</ele>
        <time>2013-08-15T17:08:00.000Z</time>
        <extensions>
          <ns3:TrackPointExtension>
            <ns3:atemp>17.0</ns3:atemp>
            <ns3:hr>129</ns3:hr>
          </ns3:TrackPointExtension>
        </extensions>
      </trkpt>
      <trkpt lat="46.6199011914432048797607421875" lon="6.89755336381494998931884765625">
        <ele>836</ele>
        <time>2013-08-15T17:08:01.000Z</time>
        <extensions>
          <ns3:TrackPointExtension>
            <ns3:atemp>17.0</ns3:atemp>
            <ns3:hr>128</ns3:hr>
          </ns3:TrackPointExtension>
        </extensions>
      </trkpt>
      <trkpt lat="46.619854085147380828857421875" lon="6.89757951535284519195556640625">
        <ele>835.5999755859375</ele>
        <time>2013-08-15T17:08:02.000Z</time>
        <extensions>
          <ns3:TrackPointExtension>
            <ns3:atemp>17.0</ns3:atemp>
            <ns3:hr>128</ns3:hr>
          </ns3:TrackPointExtension>
        </extensions>
      </trkpt>
      <trkpt lat="46.61980974487960338592529296875" lon="6.8975995481014251708984375">
        <ele>835.79998779296875</ele>
        <time>2013-08-15T17:08:03.000Z</time>
        <extensions>
          <ns3:TrackPointExtension>
            <ns3:atemp>17.0</ns3:atemp>
            <ns3:hr>127</ns3:hr>
          </ns3:TrackPointExtension>
        </extensions>
      </trkpt>
      <trkpt lat="46.61976716481149196624755859375" lon="6.8976183235645294189453125">
        <ele>836</ele>
        <time>2013-08-15T17:08:04.000Z</time>
        <extensions>
          <ns3:TrackPointExtension>
            <ns3:atemp>17.0</ns3:atemp>
            <ns3:hr>127</ns3:hr>
          </ns3:TrackPointExtension>
        </extensions>
      </trkpt>
      <trkpt lat="46.61972609348595142364501953125" lon="6.89763299189507961273193359375">
        <ele>836</ele>
        <time>2013-08-15T17:08:05.000Z</time>
        <extensions>
          <ns3:TrackPointExtension>
            <ns3:atemp>17.0</ns3:atemp>
            <ns3:hr>127</ns3:hr>
          </ns3:TrackPointExtension>
        </extensions>
      </trkpt>
      <trkpt lat="46.6196854412555694580078125" lon="6.8976396135985851287841796875">
        <ele>836.20001220703125</ele>
        <time>2013-08-15T17:08:06.000Z</time>
        <extensions>
          <ns3:TrackPointExtension>
            <ns3:atemp>17.0</ns3:atemp>
            <ns3:hr>127</ns3:hr>
          </ns3:TrackPointExtension>
        </extensions>
      </trkpt>
      <trkpt lat="46.61964328028261661529541015625" lon="6.8976453132927417755126953125">
        <ele>836.4000244140625</ele>
        <time>2013-08-15T17:08:07.000Z</time>
        <extensions>
          <ns3:TrackPointExtension>
            <ns3:atemp>17.0</ns3:atemp>
            <ns3:hr>127</ns3:hr>
          </ns3:TrackPointExtension>
        </extensions>
      </trkpt>
      <trkpt lat="46.6195994429290294647216796875" lon="6.897658221423625946044921875">
        <ele>836.5999755859375</ele>
        <time>2013-08-15T17:08:08.000Z</time>
        <extensions>
          <ns3:TrackPointExtension>
            <ns3:atemp>17.0</ns3:atemp>
            <ns3:hr>127</ns3:hr>
          </ns3:TrackPointExtension>
        </extensions>
      </trkpt>
      <trkpt lat="46.619559042155742645263671875" lon="6.89768378622829914093017578125">
        <ele>836.79998779296875</ele>
        <time>2013-08-15T17:08:09.000Z</time>
        <extensions>
          <ns3:TrackPointExtension>
            <ns3:atemp>17.0</ns3:atemp>
            <ns3:hr>128</ns3:hr>
          </ns3:TrackPointExtension>
        </extensions>
      </trkpt>
      <trkpt lat="46.6195266880095005035400390625" lon="6.8977271206676959991455078125">
        <ele>837.20001220703125</ele>
        <time>2013-08-15T17:08:10.000Z</time>
        <extensions>
          <ns3:TrackPointExtension>
            <ns3:atemp>17.0</ns3:atemp>
            <ns3:hr>128</ns3:hr>
          </ns3:TrackPointExtension>
        </extensions>
      </trkpt>
      <trkpt lat="46.61950749345123767852783203125" lon="6.8977928347885608673095703125">
        <ele>837.4000244140625</ele>
        <time>2013-08-15T17:08:11.000Z</time>
        <extensions>
          <ns3:TrackPointExtension>
            <ns3:atemp>17.0</ns3:atemp>
            <ns3:hr>129</ns3:hr>
          </ns3:TrackPointExtension>
        </extensions>
      </trkpt>
      <trkpt lat="46.61950514651834964752197265625" lon="6.89786651171743869781494140625">
        <ele>837.5999755859375</ele>
        <time>2013-08-15T17:08:12.000Z</time>
        <extensions>
          <ns3:TrackPointExtension>
            <ns3:atemp>17.0</ns3:atemp>
            <ns3:hr>129</ns3:hr>
          </ns3:TrackPointExtension>
        </extensions>
      </trkpt>
      <trkpt lat="46.619516797363758087158203125" lon="6.89794060774147510528564453125">
        <ele>837.79998779296875</ele>
        <time>2013-08-15T17:08:13.000Z</time>
        <extensions>
          <ns3:TrackPointExtension>
            <ns3:atemp>17.0</ns3:atemp>
            <ns3:hr>129</ns3:hr>
          </ns3:TrackPointExtension>
        </extensions>
      </trkpt>
      <trkpt lat="46.61953280679881572723388671875" lon="6.89801285974681377410888671875">
        <ele>837.79998779296875</ele>
        <time>2013-08-15T17:08:14.000Z</time>
        <extensions>
          <ns3:TrackPointExtension>
            <ns3:atemp>17.0</ns3:atemp>
            <ns3:hr>129</ns3:hr>
          </ns3:TrackPointExtension>
        </extensions>
      </trkpt>
      <trkpt lat="46.6195508278906345367431640625" lon="6.89808494411408901214599609375">
        <ele>837.79998779296875</ele>
        <time>2013-08-15T17:08:15.000Z</time>
        <extensions>
          <ns3:TrackPointExtension>
            <ns3:atemp>17.0</ns3:atemp>
            <ns3:hr>129</ns3:hr>
          </ns3:TrackPointExtension>
        </extensions>
      </trkpt>
      <trkpt lat="46.61956801079213619232177734375" lon="6.89815543591976165771484375">
        <ele>837.79998779296875</ele>
        <time>2013-08-15T17:08:16.000Z</time>
        <extensions>
          <ns3:TrackPointExtension>
            <ns3:atemp>17.0</ns3:atemp>
            <ns3:hr>129</ns3:hr>
          </ns3:TrackPointExtension>
        </extensions>
      </trkpt>
      <trkpt lat="46.61958544515073299407958984375" lon="6.8982256762683391571044921875">
        <ele>838.20001220703125</ele>
        <time>2013-08-15T17:08:17.000Z</time>
        <extensions>
          <ns3:TrackPointExtension>
            <ns3:atemp>17.0</ns3:atemp>
            <ns3:hr>130</ns3:hr>
          </ns3:TrackPointExtension>
        </extensions>
      </trkpt>
      <trkpt lat="46.619602628052234649658203125" lon="6.89829516224563121795654296875">
        <ele>838.4000244140625</ele>
        <time>2013-08-15T17:08:18.000Z</time>
        <extensions>
          <ns3:TrackPointExtension>
            <ns3:atemp>17.0</ns3:atemp>
            <ns3:hr>130</ns3:hr>
          </ns3:TrackPointExtension>
        </extensions>
      </trkpt>
      <trkpt lat="46.6196188889443874359130859375" lon="6.898365654051303863525390625">
        <ele>838.5999755859375</ele>
        <time>2013-08-15T17:08:19.000Z</time>
        <extensions>
          <ns3:TrackPointExtension>
            <ns3:atemp>17.0</ns3:atemp>
            <ns3:hr>130</ns3:hr>
          </ns3:TrackPointExtension>
        </extensions>
      </trkpt>
      <trkpt lat="46.61963514983654022216796875" lon="6.8984348885715007781982421875">
        <ele>838.79998779296875</ele>
        <time>2013-08-15T17:08:20.000Z</time>
        <extensions>
          <ns3:TrackPointExtension>
            <ns3:atemp>17.0</ns3:atemp>
            <ns3:hr>130</ns3:hr>
          </ns3:TrackPointExtension>
        </extensions>
      </trkpt>
      <trkpt lat="46.619649566709995269775390625" lon="6.898504458367824554443359375">
        <ele>838.79998779296875</ele>
        <time>2013-08-15T17:08:21.000Z</time>
        <extensions>
          <ns3:TrackPointExtension>
            <ns3:atemp>17.0</ns3:atemp>
            <ns3:hr>130</ns3:hr>
          </ns3:TrackPointExtension>
        </extensions>
      </trkpt>
      <trkpt lat="46.6196628101170063018798828125" lon="6.89857545308768749237060546875">
        <ele>838.79998779296875</ele>
        <time>2013-08-15T17:08:22.000Z</time>
        <extensions>
          <ns3:TrackPointExtension>
            <ns3:atemp>17.0</ns3:atemp>
            <ns3:hr>130</ns3:hr>
          </ns3:TrackPointExtension>
        </extensions>
      </trkpt>
      <trkpt lat="46.61967814899981021881103515625" lon="6.89864485524594783782958984375">
        <ele>838.79998779296875</ele>
        <time>2013-08-15T17:08:23.000Z</time>
        <extensions>
          <ns3:TrackPointExtension>
            <ns3:atemp>17.0</ns3:atemp>
            <ns3:hr>130</ns3:hr>
          </ns3:TrackPointExtension>
        </extensions>
      </trkpt>
      <trkpt lat="46.619695164263248443603515625" lon="6.89871056936681270599365234375">
        <ele>839</ele>
        <time>2013-08-15T17:08:24.000Z</time>
        <extensions>
          <ns3:TrackPointExtension>
            <ns3:atemp>17.0</ns3:atemp>
            <ns3:hr>129</ns3:hr>
          </ns3:TrackPointExtension>
        </extensions>
      </trkpt>
      <trkpt lat="46.61971150897443294525146484375" lon="6.89877846278250217437744140625">
        <ele>839</ele>
        <time>2013-08-15T17:08:25.000Z</time>
        <extensions>
          <ns3:TrackPointExtension>
            <ns3:atemp>17.0</ns3:atemp>
            <ns3:hr>129</ns3:hr>
          </ns3:TrackPointExtension>
        </extensions>
      </trkpt>
      <trkpt lat="46.61972743459045886993408203125" lon="6.8988452665507793426513671875">
        <ele>839</ele>
        <time>2013-08-15T17:08:26.000Z</time>
        <extensions>
          <ns3:TrackPointExtension>
            <ns3:atemp>17.0</ns3:atemp>
            <ns3:hr>129</ns3:hr>
          </ns3:TrackPointExtension>
        </extensions>
      </trkpt>
      <trkpt lat="46.6197417676448822021484375" lon="6.89891173504292964935302734375">
        <ele>838.79998779296875</ele>
        <time>2013-08-15T17:08:27.000Z</time>
        <extensions>
          <ns3:TrackPointExtension>
            <ns3:atemp>17.0</ns3:atemp>
            <ns3:hr>129</ns3:hr>
          </ns3:TrackPointExtension>
        </extensions>
      </trkpt>
      <trkpt lat="46.61975392140448093414306640625" lon="6.898975856602191925048828125">
        <ele>838.79998779296875</ele>
        <time>2013-08-15T17:08:28.000Z</time>
        <extensions>
          <ns3:TrackPointExtension>
            <ns3:atemp>17.0</ns3:atemp>
            <ns3:hr>129</ns3:hr>
          </ns3:TrackPointExtension>
        </extensions>
      </trkpt>
      <trkpt lat="46.61976657807826995849609375" lon="6.89903947524726390838623046875">
        <ele>839</ele>
        <time>2013-08-15T17:08:29.000Z</time>
        <extensions>
          <ns3:TrackPointExtension>
            <ns3:atemp>17.0</ns3:atemp>
            <ns3:hr>129</ns3:hr>
          </ns3:TrackPointExtension>
        </extensions>
      </trkpt>
      <trkpt lat="46.61978040821850299835205078125" lon="6.8990997411310672760009765625">
        <ele>839.20001220703125</ele>
        <time>2013-08-15T17:08:30.000Z</time>
        <extensions>
          <ns3:TrackPointExtension>
            <ns3:atemp>17.0</ns3:atemp>
            <ns3:hr>129</ns3:hr>
          </ns3:TrackPointExtension>
        </extensions>
      </trkpt>
      <trkpt lat="46.61979264579713344573974609375" lon="6.89915413968265056610107421875">
        <ele>839.20001220703125</ele>
        <time>2013-08-15T17:08:31.000Z</time>
        <extensions>
          <ns3:TrackPointExtension>
            <ns3:atemp>17.0</ns3:atemp>
            <ns3:hr>129</ns3:hr>
          </ns3:TrackPointExtension>
        </extensions>
      </trkpt>
      <trkpt lat="46.6198032908141613006591796875" lon="6.8991999886929988861083984375">
        <ele>839.20001220703125</ele>
        <time>2013-08-15T17:08:32.000Z</time>
        <extensions>
          <ns3:TrackPointExtension>
            <ns3:atemp>17.0</ns3:atemp>
            <ns3:hr>129</ns3:hr>
          </ns3:TrackPointExtension>
        </extensions>
      </trkpt>
      <trkpt lat="46.61981242708861827850341796875" lon="6.8992331810295581817626953125">
        <ele>839</ele>
        <time>2013-08-15T17:08:33.000Z</time>
        <extensions>
          <ns3:TrackPointExtension>
            <ns3:atemp>17.0</ns3:atemp>
            <ns3:hr>128</ns3:hr>
          </ns3:TrackPointExtension>
        </extensions>
      </trkpt>
      <trkpt lat="46.61981795914471149444580078125" lon="6.89924969337880611419677734375">
        <ele>839.20001220703125</ele>
        <time>2013-08-15T17:08:34.000Z</time>
        <extensions>
          <ns3:TrackPointExtension>
            <ns3:atemp>17.0</ns3:atemp>
            <ns3:hr>127</ns3:hr>
          </ns3:TrackPointExtension>
        </extensions>
      </trkpt>
      <trkpt lat="46.6198224015533924102783203125" lon="6.89925153739750385284423828125">
        <ele>839</ele>
        <time>2013-08-15T17:08:35.000Z</time>
        <extensions>
          <ns3:TrackPointExtension>
            <ns3:atemp>17.0</ns3:atemp>
            <ns3:hr>126</ns3:hr>
          </ns3:TrackPointExtension>
        </extensions>
      </trkpt>
      <trkpt lat="46.6198220662772655487060546875" lon="6.8992519564926624298095703125">
        <ele>839</ele>
        <time>2013-08-15T17:08:36.000Z</time>
        <extensions>
          <ns3:TrackPointExtension>
            <ns3:atemp>17.0</ns3:atemp>
            <ns3:hr>126</ns3:hr>
          </ns3:TrackPointExtension>
        </extensions>
      </trkpt>
      <trkpt lat="46.61982466466724872589111328125" lon="6.8992499448359012603759765625">
        <ele>838.5999755859375</ele>
        <time>2013-08-15T17:08:37.000Z</time>
        <extensions>
          <ns3:TrackPointExtension>
            <ns3:atemp>17.0</ns3:atemp>
            <ns3:hr>125</ns3:hr>
          </ns3:TrackPointExtension>
        </extensions>
      </trkpt>
      <trkpt lat="46.6198222339153289794921875" lon="6.89924835227429866790771484375">
        <ele>838.5999755859375</ele>
        <time>2013-08-15T17:08:38.000Z</time>
        <extensions>
          <ns3:TrackPointExtension>
            <ns3:atemp>17.0</ns3:atemp>
            <ns3:hr>126</ns3:hr>
          </ns3:TrackPointExtension>
        </extensions>
      </trkpt>
      <trkpt lat="46.6198222339153289794921875" lon="6.89924835227429866790771484375">
        <ele>838.4000244140625</ele>
        <time>2013-08-15T17:08:39.000Z</time>
        <extensions>
          <ns3:TrackPointExtension>
            <ns3:atemp>17.0</ns3:atemp>
            <ns3:hr>125</ns3:hr>
          </ns3:TrackPointExtension>
        </extensions>
      </trkpt>
      <trkpt lat="46.6198222339153289794921875" lon="6.89924835227429866790771484375">
        <ele>838.5999755859375</ele>
        <time>2013-08-15T17:08:40.000Z</time>
        <extensions>
          <ns3:TrackPointExtension>
            <ns3:atemp>17.0</ns3:atemp>
            <ns3:hr>125</ns3:hr>
          </ns3:TrackPointExtension>
        </extensions>
      </trkpt>
      <trkpt lat="46.6198222339153289794921875" lon="6.89924835227429866790771484375">
        <ele>838.5999755859375</ele>
        <time>2013-08-15T17:08:41.000Z</time>
        <extensions>
          <ns3:TrackPointExtension>
            <ns3:atemp>17.0</ns3:atemp>
            <ns3:hr>125</ns3:hr>
          </ns3:TrackPointExtension>
        </extensions>
      </trkpt>
      <trkpt lat="46.6198222339153289794921875" lon="6.89924835227429866790771484375">
        <ele>838.5999755859375</ele>
        <time>2013-08-15T17:08:42.000Z</time>
        <extensions>
          <ns3:TrackPointExtension>
            <ns3:atemp>17.0</ns3:atemp>
            <ns3:hr>124</ns3:hr>
          </ns3:TrackPointExtension>
        </extensions>
      </trkpt>
      <trkpt lat="46.6198222339153289794921875" lon="6.89924835227429866790771484375">
        <ele>838.5999755859375</ele>
        <time>2013-08-15T17:08:43.000Z</time>
        <extensions>
          <ns3:TrackPointExtension>
            <ns3:atemp>17.0</ns3:atemp>
            <ns3:hr>125</ns3:hr>
          </ns3:TrackPointExtension>
        </extensions>
      </trkpt>
      <trkpt lat="46.6198222339153289794921875" lon="6.89924835227429866790771484375">
        <ele>838.5999755859375</ele>
        <time>2013-08-15T17:08:44.000Z</time>
        <extensions>
          <ns3:TrackPointExtension>
            <ns3:atemp>17.0</ns3:atemp>
            <ns3:hr>124</ns3:hr>
          </ns3:TrackPointExtension>
        </extensions>
      </trkpt>
      <trkpt lat="46.6198222339153289794921875" lon="6.89924835227429866790771484375">
        <ele>838.79998779296875</ele>
        <time>2013-08-15T17:08:45.000Z</time>
        <extensions>
          <ns3:TrackPointExtension>
            <ns3:atemp>17.0</ns3:atemp>
            <ns3:hr>124</ns3:hr>
          </ns3:TrackPointExtension>
        </extensions>
      </trkpt>
      <trkpt lat="46.6198222339153289794921875" lon="6.89924835227429866790771484375">
        <ele>838.79998779296875</ele>
        <time>2013-08-15T17:08:46.000Z</time>
        <extensions>
          <ns3:TrackPointExtension>
            <ns3:atemp>17.0</ns3:atemp>
            <ns3:hr>125</ns3:hr>
          </ns3:TrackPointExtension>
        </extensions>
      </trkpt>
      <trkpt lat="46.6198222339153289794921875" lon="6.89924835227429866790771484375">
        <ele>838.79998779296875</ele>
        <time>2013-08-15T17:08:47.000Z</time>
        <extensions>
          <ns3:TrackPointExtension>
            <ns3:atemp>17.0</ns3:atemp>
            <ns3:hr>124</ns3:hr>
          </ns3:TrackPointExtension>
        </extensions>
      </trkpt>
      <trkpt lat="46.6198222339153289794921875" lon="6.89924835227429866790771484375">
        <ele>838.79998779296875</ele>
        <time>2013-08-15T17:08:48.000Z</time>
        <extensions>
          <ns3:TrackPointExtension>
            <ns3:atemp>17.0</ns3:atemp>
            <ns3:hr>124</ns3:hr>
          </ns3:TrackPointExtension>
        </extensions>
      </trkpt>
      <trkpt lat="46.6198222339153289794921875" lon="6.89924835227429866790771484375">
        <ele>838.5999755859375</ele>
        <time>2013-08-15T17:08:49.000Z</time>
        <extensions>
          <ns3:TrackPointExtension>
            <ns3:atemp>17.0</ns3:atemp>
            <ns3:hr>122</ns3:hr>
          </ns3:TrackPointExtension>
        </extensions>
      </trkpt>
      <trkpt lat="46.6198222339153289794921875" lon="6.89924835227429866790771484375">
        <ele>838.5999755859375</ele>
        <time>2013-08-15T17:08:50.000Z</time>
        <extensions>
          <ns3:TrackPointExtension>
            <ns3:atemp>17.0</ns3:atemp>
            <ns3:hr>120</ns3:hr>
          </ns3:TrackPointExtension>
        </extensions>
      </trkpt>
      <trkpt lat="46.6198222339153289794921875" lon="6.89924835227429866790771484375">
        <ele>838.5999755859375</ele>
        <time>2013-08-15T17:08:51.000Z</time>
        <extensions>
          <ns3:TrackPointExtension>
            <ns3:atemp>17.0</ns3:atemp>
            <ns3:hr>118</ns3:hr>
          </ns3:TrackPointExtension>
        </extensions>
      </trkpt>
      <trkpt lat="46.6198222339153289794921875" lon="6.89924835227429866790771484375">
        <ele>838.5999755859375</ele>
        <time>2013-08-15T17:08:52.000Z</time>
        <extensions>
          <ns3:TrackPointExtension>
            <ns3:atemp>17.0</ns3:atemp>
            <ns3:hr>116</ns3:hr>
          </ns3:TrackPointExtension>
        </extensions>
      </trkpt>
      <trkpt lat="46.6198222339153289794921875" lon="6.89924835227429866790771484375">
        <ele>838.79998779296875</ele>
        <time>2013-08-15T17:08:53.000Z</time>
        <extensions>
          <ns3:TrackPointExtension>
            <ns3:atemp>17.0</ns3:atemp>
            <ns3:hr>114</ns3:hr>
          </ns3:TrackPointExtension>
        </extensions>
      </trkpt>
      <trkpt lat="46.6198222339153289794921875" lon="6.89924835227429866790771484375">
        <ele>838.79998779296875</ele>
        <time>2013-08-15T17:08:54.000Z</time>
        <extensions>
          <ns3:TrackPointExtension>
            <ns3:atemp>17.0</ns3:atemp>
            <ns3:hr>112</ns3:hr>
          </ns3:TrackPointExtension>
        </extensions>
      </trkpt>
      <trkpt lat="46.6198222339153289794921875" lon="6.89924835227429866790771484375">
        <ele>838.79998779296875</ele>
        <time>2013-08-15T17:08:55.000Z</time>
        <extensions>
          <ns3:TrackPointExtension>
            <ns3:atemp>17.0</ns3:atemp>
            <ns3:hr>110</ns3:hr>
          </ns3:TrackPointExtension>
        </extensions>
      </trkpt>
      <trkpt lat="46.6198222339153289794921875" lon="6.89924835227429866790771484375">
        <ele>838.79998779296875</ele>
        <time>2013-08-15T17:08:56.000Z</time>
        <extensions>
          <ns3:TrackPointExtension>
            <ns3:atemp>17.0</ns3:atemp>
            <ns3:hr>110</ns3:hr>
          </ns3:TrackPointExtension>
        </extensions>
      </trkpt>
      <trkpt lat="46.6198222339153289794921875" lon="6.89924835227429866790771484375">
        <ele>838.79998779296875</ele>
        <time>2013-08-15T17:08:57.000Z</time>
        <extensions>
          <ns3:TrackPointExtension>
            <ns3:atemp>17.0</ns3:atemp>
            <ns3:hr>110</ns3:hr>
          </ns3:TrackPointExtension>
        </extensions>
      </trkpt>
      <trkpt lat="46.6198222339153289794921875" lon="6.89924835227429866790771484375">
        <ele>838.79998779296875</ele>
        <time>2013-08-15T17:08:58.000Z</time>
        <extensions>
          <ns3:TrackPointExtension>
            <ns3:atemp>17.0</ns3:atemp>
            <ns3:hr>110</ns3:hr>
          </ns3:TrackPointExtension>
        </extensions>
      </trkpt>
      <trkpt lat="46.6198222339153289794921875" lon="6.89924835227429866790771484375">
        <ele>838.79998779296875</ele>
        <time>2013-08-15T17:08:59.000Z</time>
        <extensions>
          <ns3:TrackPointExtension>
            <ns3:atemp>17.0</ns3:atemp>
            <ns3:hr>111</ns3:hr>
          </ns3:TrackPointExtension>
        </extensions>
      </trkpt>
      <trkpt lat="46.6198222339153289794921875" lon="6.89924835227429866790771484375">
        <ele>838.79998779296875</ele>
        <time>2013-08-15T17:09:00.000Z</time>
        <extensions>
          <ns3:TrackPointExtension>
            <ns3:atemp>17.0</ns3:atemp>
            <ns3:hr>112</ns3:hr>
          </ns3:TrackPointExtension>
        </extensions>
      </trkpt>
      <trkpt lat="46.6198200546205043792724609375" lon="6.899249441921710968017578125">
        <ele>838.79998779296875</ele>
        <time>2013-08-15T17:09:01.000Z</time>
        <extensions>
          <ns3:TrackPointExtension>
            <ns3:atemp>17.0</ns3:atemp>
            <ns3:hr>112</ns3:hr>
          </ns3:TrackPointExtension>
        </extensions>
      </trkpt>
      <trkpt lat="46.6198200546205043792724609375" lon="6.899249441921710968017578125">
        <ele>838.5999755859375</ele>
        <time>2013-08-15T17:09:02.000Z</time>
        <extensions>
          <ns3:TrackPointExtension>
            <ns3:atemp>17.0</ns3:atemp>
            <ns3:hr>113</ns3:hr>
          </ns3:TrackPointExtension>
        </extensions>
      </trkpt>
      <trkpt lat="46.6198200546205043792724609375" lon="6.899249441921710968017578125">
        <ele>838.79998779296875</ele>
        <time>2013-08-15T17:09:03.000Z</time>
        <extensions>
          <ns3:TrackPointExtension>
            <ns3:atemp>17.0</ns3:atemp>
            <ns3:hr>113</ns3:hr>
          </ns3:TrackPointExtension>
        </extensions>
      </trkpt>
      <trkpt lat="46.6198200546205043792724609375" lon="6.899249441921710968017578125">
        <ele>838.79998779296875</ele>
        <time>2013-08-15T17:09:04.000Z</time>
        <extensions>
          <ns3:TrackPointExtension>
            <ns3:atemp>17.0</ns3:atemp>
            <ns3:hr>113</ns3:hr>
          </ns3:TrackPointExtension>
        </extensions>
      </trkpt>
      <trkpt lat="46.6198200546205043792724609375" lon="6.899249441921710968017578125">
        <ele>838.79998779296875</ele>
        <time>2013-08-15T17:09:05.000Z</time>
        <extensions>
          <ns3:TrackPointExtension>
            <ns3:atemp>17.0</ns3:atemp>
            <ns3:hr>113</ns3:hr>
          </ns3:TrackPointExtension>
        </extensions>
      </trkpt>
      <trkpt lat="46.6198200546205043792724609375" lon="6.899249441921710968017578125">
        <ele>838.79998779296875</ele>
        <time>2013-08-15T17:09:06.000Z</time>
        <extensions>
          <ns3:TrackPointExtension>
            <ns3:atemp>17.0</ns3:atemp>
            <ns3:hr>112</ns3:hr>
          </ns3:TrackPointExtension>
        </extensions>
      </trkpt>
      <trkpt lat="46.6198200546205043792724609375" lon="6.899249441921710968017578125">
        <ele>838.79998779296875</ele>
        <time>2013-08-15T17:09:07.000Z</time>
        <extensions>
          <ns3:TrackPointExtension>
            <ns3:atemp>17.0</ns3:atemp>
            <ns3:hr>112</ns3:hr>
          </ns3:TrackPointExtension>
        </extensions>
      </trkpt>
      <trkpt lat="46.6198200546205043792724609375" lon="6.899249441921710968017578125">
        <ele>838.79998779296875</ele>
        <time>2013-08-15T17:09:08.000Z</time>
        <extensions>
          <ns3:TrackPointExtension>
            <ns3:atemp>17.0</ns3:atemp>
            <ns3:hr>112</ns3:hr>
          </ns3:TrackPointExtension>
        </extensions>
      </trkpt>
      <trkpt lat="46.6198200546205043792724609375" lon="6.899249441921710968017578125">
        <ele>838.79998779296875</ele>
        <time>2013-08-15T17:09:09.000Z</time>
        <extensions>
          <ns3:TrackPointExtension>
            <ns3:atemp>17.0</ns3:atemp>
            <ns3:hr>112</ns3:hr>
          </ns3:TrackPointExtension>
        </extensions>
      </trkpt>
      <trkpt lat="46.6198200546205043792724609375" lon="6.899249441921710968017578125">
        <ele>838.79998779296875</ele>
        <time>2013-08-15T17:09:10.000Z</time>
        <extensions>
          <ns3:TrackPointExtension>
            <ns3:atemp>17.0</ns3:atemp>
            <ns3:hr>112</ns3:hr>
          </ns3:TrackPointExtension>
        </extensions>
      </trkpt>
      <trkpt lat="46.6198200546205043792724609375" lon="6.899249441921710968017578125">
        <ele>838.79998779296875</ele>
        <time>2013-08-15T17:09:11.000Z</time>
        <extensions>
          <ns3:TrackPointExtension>
            <ns3:atemp>17.0</ns3:atemp>
            <ns3:hr>113</ns3:hr>
          </ns3:TrackPointExtension>
        </extensions>
      </trkpt>
      <trkpt lat="46.6198200546205043792724609375" lon="6.899249441921710968017578125">
        <ele>838.79998779296875</ele>
        <time>2013-08-15T17:09:12.000Z</time>
        <extensions>
          <ns3:TrackPointExtension>
            <ns3:atemp>17.0</ns3:atemp>
            <ns3:hr>113</ns3:hr>
          </ns3:TrackPointExtension>
        </extensions>
      </trkpt>
      <trkpt lat="46.6198200546205043792724609375" lon="6.899249441921710968017578125">
        <ele>838.79998779296875</ele>
        <time>2013-08-15T17:09:13.000Z</time>
        <extensions>
          <ns3:TrackPointExtension>
            <ns3:atemp>17.0</ns3:atemp>
            <ns3:hr>113</ns3:hr>
          </ns3:TrackPointExtension>
        </extensions>
      </trkpt>
      <trkpt lat="46.6198200546205043792724609375" lon="6.899249441921710968017578125">
        <ele>838.79998779296875</ele>
        <time>2013-08-15T17:09:14.000Z</time>
        <extensions>
          <ns3:TrackPointExtension>
            <ns3:atemp>17.0</ns3:atemp>
            <ns3:hr>112</ns3:hr>
          </ns3:TrackPointExtension>
        </extensions>
      </trkpt>
      <trkpt lat="46.6198200546205043792724609375" lon="6.899249441921710968017578125">
        <ele>838.79998779296875</ele>
        <time>2013-08-15T17:09:15.000Z</time>
        <extensions>
          <ns3:TrackPointExtension>
            <ns3:atemp>17.0</ns3:atemp>
            <ns3:hr>111</ns3:hr>
          </ns3:TrackPointExtension>
        </extensions>
      </trkpt>
      <trkpt lat="46.6198200546205043792724609375" lon="6.899249441921710968017578125">
        <ele>838.5999755859375</ele>
        <time>2013-08-15T17:09:16.000Z</time>
        <extensions>
          <ns3:TrackPointExtension>
            <ns3:atemp>17.0</ns3:atemp>
            <ns3:hr>110</ns3:hr>
          </ns3:TrackPointExtension>
        </extensions>
      </trkpt>
      <trkpt lat="46.6198200546205043792724609375" lon="6.899249441921710968017578125">
        <ele>838.5999755859375</ele>
        <time>2013-08-15T17:09:17.000Z</time>
        <extensions>
          <ns3:TrackPointExtension>
            <ns3:atemp>17.0</ns3:atemp>
            <ns3:hr>110</ns3:hr>
          </ns3:TrackPointExtension>
        </extensions>
      </trkpt>
      <trkpt lat="46.6198200546205043792724609375" lon="6.899249441921710968017578125">
        <ele>838.5999755859375</ele>
        <time>2013-08-15T17:09:18.000Z</time>
        <extensions>
          <ns3:TrackPointExtension>
            <ns3:atemp>17.0</ns3:atemp>
            <ns3:hr>109</ns3:hr>
          </ns3:TrackPointExtension>
        </extensions>
      </trkpt>
      <trkpt lat="46.6198200546205043792724609375" lon="6.899249441921710968017578125">
        <ele>838.5999755859375</ele>
        <time>2013-08-15T17:09:19.000Z</time>
        <extensions>
          <ns3:TrackPointExtension>
            <ns3:atemp>17.0</ns3:atemp>
            <ns3:hr>108</ns3:hr>
          </ns3:TrackPointExtension>
        </extensions>
      </trkpt>
      <trkpt lat="46.6198200546205043792724609375" lon="6.899249441921710968017578125">
        <ele>838.5999755859375</ele>
        <time>2013-08-15T17:09:20.000Z</time>
        <extensions>
          <ns3:TrackPointExtension>
            <ns3:atemp>17.0</ns3:atemp>
            <ns3:hr>106</ns3:hr>
          </ns3:TrackPointExtension>
        </extensions>
      </trkpt>
      <trkpt lat="46.6198200546205043792724609375" lon="6.899249441921710968017578125">
        <ele>838.79998779296875</ele>
        <time>2013-08-15T17:09:21.000Z</time>
        <extensions>
          <ns3:TrackPointExtension>
            <ns3:atemp>17.0</ns3:atemp>
            <ns3:hr>106</ns3:hr>
          </ns3:TrackPointExtension>
        </extensions>
      </trkpt>
      <trkpt lat="46.6198200546205043792724609375" lon="6.899249441921710968017578125">
        <ele>838.79998779296875</ele>
        <time>2013-08-15T17:09:22.000Z</time>
        <extensions>
          <ns3:TrackPointExtension>
            <ns3:atemp>17.0</ns3:atemp>
            <ns3:hr>105</ns3:hr>
          </ns3:TrackPointExtension>
        </extensions>
      </trkpt>
      <trkpt lat="46.6198200546205043792724609375" lon="6.899249441921710968017578125">
        <ele>838.79998779296875</ele>
        <time>2013-08-15T17:09:23.000Z</time>
        <extensions>
          <ns3:TrackPointExtension>
            <ns3:atemp>17.0</ns3:atemp>
            <ns3:hr>104</ns3:hr>
          </ns3:TrackPointExtension>
        </extensions>
      </trkpt>
      <trkpt lat="46.6198200546205043792724609375" lon="6.899249441921710968017578125">
        <ele>838.5999755859375</ele>
        <time>2013-08-15T17:09:24.000Z</time>
        <extensions>
          <ns3:TrackPointExtension>
            <ns3:atemp>17.0</ns3:atemp>
            <ns3:hr>104</ns3:hr>
          </ns3:TrackPointExtension>
        </extensions>
      </trkpt>
      <trkpt lat="46.6198200546205043792724609375" lon="6.899249441921710968017578125">
        <ele>838.5999755859375</ele>
        <time>2013-08-15T17:09:25.000Z</time>
        <extensions>
          <ns3:TrackPointExtension>
            <ns3:atemp>17.0</ns3:atemp>
            <ns3:hr>104</ns3:hr>
          </ns3:TrackPointExtension>
        </extensions>
      </trkpt>
      <trkpt lat="46.6198200546205043792724609375" lon="6.899249441921710968017578125">
        <ele>838.5999755859375</ele>
        <time>2013-08-15T17:09:26.000Z</time>
        <extensions>
          <ns3:TrackPointExtension>
            <ns3:atemp>17.0</ns3:atemp>
            <ns3:hr>104</ns3:hr>
          </ns3:TrackPointExtension>
        </extensions>
      </trkpt>
      <trkpt lat="46.6198200546205043792724609375" lon="6.899249441921710968017578125">
        <ele>838.5999755859375</ele>
        <time>2013-08-15T17:09:27.000Z</time>
        <extensions>
          <ns3:TrackPointExtension>
            <ns3:atemp>17.0</ns3:atemp>
            <ns3:hr>104</ns3:hr>
          </ns3:TrackPointExtension>
        </extensions>
      </trkpt>
      <trkpt lat="46.6198200546205043792724609375" lon="6.899249441921710968017578125">
        <ele>838.5999755859375</ele>
        <time>2013-08-15T17:09:28.000Z</time>
        <extensions>
          <ns3:TrackPointExtension>
            <ns3:atemp>17.0</ns3:atemp>
            <ns3:hr>104</ns3:hr>
          </ns3:TrackPointExtension>
        </extensions>
      </trkpt>
      <trkpt lat="46.6198200546205043792724609375" lon="6.899249441921710968017578125">
        <ele>838.5999755859375</ele>
        <time>2013-08-15T17:09:29.000Z</time>
        <extensions>
          <ns3:TrackPointExtension>
            <ns3:atemp>17.0</ns3:atemp>
            <ns3:hr>104</ns3:hr>
          </ns3:TrackPointExtension>
        </extensions>
      </trkpt>
      <trkpt lat="46.6198200546205043792724609375" lon="6.899249441921710968017578125">
        <ele>838.5999755859375</ele>
        <time>2013-08-15T17:09:30.000Z</time>
        <extensions>
          <ns3:TrackPointExtension>
            <ns3:atemp>17.0</ns3:atemp>
            <ns3:hr>104</ns3:hr>
          </ns3:TrackPointExtension>
        </extensions>
      </trkpt>
      <trkpt lat="46.6198200546205043792724609375" lon="6.899249441921710968017578125">
        <ele>838.79998779296875</ele>
        <time>2013-08-15T17:09:31.000Z</time>
        <extensions>
          <ns3:TrackPointExtension>
            <ns3:atemp>17.0</ns3:atemp>
            <ns3:hr>104</ns3:hr>
          </ns3:TrackPointExtension>
        </extensions>
      </trkpt>
      <trkpt lat="46.6198200546205043792724609375" lon="6.899249441921710968017578125">
        <ele>838.5999755859375</ele>
        <time>2013-08-15T17:09:32.000Z</time>
        <extensions>
          <ns3:TrackPointExtension>
            <ns3:atemp>17.0</ns3:atemp>
            <ns3:hr>103</ns3:hr>
          </ns3:TrackPointExtension>
        </extensions>
      </trkpt>
      <trkpt lat="46.6198200546205043792724609375" lon="6.899249441921710968017578125">
        <ele>838.79998779296875</ele>
        <time>2013-08-15T17:09:33.000Z</time>
        <extensions>
          <ns3:TrackPointExtension>
            <ns3:atemp>17.0</ns3:atemp>
            <ns3:hr>103</ns3:hr>
          </ns3:TrackPointExtension>
        </extensions>
      </trkpt>
      <trkpt lat="46.6198200546205043792724609375" lon="6.899249441921710968017578125">
        <ele>838.5999755859375</ele>
        <time>2013-08-15T17:09:34.000Z</time>
        <extensions>
          <ns3:TrackPointExtension>
            <ns3:atemp>17.0</ns3:atemp>
            <ns3:hr>103</ns3:hr>
          </ns3:TrackPointExtension>
        </extensions>
      </trkpt>
      <trkpt lat="46.6198200546205043792724609375" lon="6.899249441921710968017578125">
        <ele>838.5999755859375</ele>
        <time>2013-08-15T17:09:35.000Z</time>
        <extensions>
          <ns3:TrackPointExtension>
            <ns3:atemp>17.0</ns3:atemp>
            <ns3:hr>103</ns3:hr>
          </ns3:TrackPointExtension>
        </extensions>
      </trkpt>
      <trkpt lat="46.6198200546205043792724609375" lon="6.899249441921710968017578125">
        <ele>838.5999755859375</ele>
        <time>2013-08-15T17:09:36.000Z</time>
        <extensions>
          <ns3:TrackPointExtension>
            <ns3:atemp>17.0</ns3:atemp>
            <ns3:hr>102</ns3:hr>
          </ns3:TrackPointExtension>
        </extensions>
      </trkpt>
      <trkpt lat="46.6198200546205043792724609375" lon="6.899249441921710968017578125">
        <ele>838.5999755859375</ele>
        <time>2013-08-15T17:09:37.000Z</time>
        <extensions>
          <ns3:TrackPointExtension>
            <ns3:atemp>17.0</ns3:atemp>
            <ns3:hr>102</ns3:hr>
          </ns3:TrackPointExtension>
        </extensions>
      </trkpt>
      <trkpt lat="46.6198200546205043792724609375" lon="6.899249441921710968017578125">
        <ele>838.5999755859375</ele>
        <time>2013-08-15T17:09:38.000Z</time>
        <extensions>
          <ns3:TrackPointExtension>
            <ns3:atemp>17.0</ns3:atemp>
            <ns3:hr>102</ns3:hr>
          </ns3:TrackPointExtension>
        </extensions>
      </trkpt>
      <trkpt lat="46.6198200546205043792724609375" lon="6.899249441921710968017578125">
        <ele>838.79998779296875</ele>
        <time>2013-08-15T17:09:39.000Z</time>
        <extensions>
          <ns3:TrackPointExtension>
            <ns3:atemp>17.0</ns3:atemp>
            <ns3:hr>101</ns3:hr>
          </ns3:TrackPointExtension>
        </extensions>
      </trkpt>
      <trkpt lat="46.6198200546205043792724609375" lon="6.899249441921710968017578125">
        <ele>838.5999755859375</ele>
        <time>2013-08-15T17:09:40.000Z</time>
        <extensions>
          <ns3:TrackPointExtension>
            <ns3:atemp>17.0</ns3:atemp>
            <ns3:hr>102</ns3:hr>
          </ns3:TrackPointExtension>
        </extensions>
      </trkpt>
      <trkpt lat="46.6198203898966312408447265625" lon="6.8992482684552669525146484375">
        <ele>838.5999755859375</ele>
        <time>2013-08-15T17:09:41.000Z</time>
        <extensions>
          <ns3:TrackPointExtension>
            <ns3:atemp>17.0</ns3:atemp>
            <ns3:hr>102</ns3:hr>
          </ns3:TrackPointExtension>
        </extensions>
      </trkpt>
      <trkpt lat="46.6198203898966312408447265625" lon="6.8992482684552669525146484375">
        <ele>838.79998779296875</ele>
        <time>2013-08-15T17:09:42.000Z</time>
        <extensions>
          <ns3:TrackPointExtension>
            <ns3:atemp>17.0</ns3:atemp>
            <ns3:hr>102</ns3:hr>
          </ns3:TrackPointExtension>
        </extensions>
      </trkpt>
      <trkpt lat="46.6198203898966312408447265625" lon="6.8992482684552669525146484375">
        <ele>838.79998779296875</ele>
        <time>2013-08-15T17:09:43.000Z</time>
        <extensions>
          <ns3:TrackPointExtension>
            <ns3:atemp>17.0</ns3:atemp>
            <ns3:hr>102</ns3:hr>
          </ns3:TrackPointExtension>
        </extensions>
      </trkpt>
      <trkpt lat="46.6198203898966312408447265625" lon="6.8992482684552669525146484375">
        <ele>838.79998779296875</ele>
        <time>2013-08-15T17:09:44.000Z</time>
        <extensions>
          <ns3:TrackPointExtension>
            <ns3:atemp>17.0</ns3:atemp>
            <ns3:hr>102</ns3:hr>
          </ns3:TrackPointExtension>
        </extensions>
      </trkpt>
      <trkpt lat="46.6198203898966312408447265625" lon="6.8992482684552669525146484375">
        <ele>838.5999755859375</ele>
        <time>2013-08-15T17:09:45.000Z</time>
        <extensions>
          <ns3:TrackPointExtension>
            <ns3:atemp>17.0</ns3:atemp>
            <ns3:hr>102</ns3:hr>
          </ns3:TrackPointExtension>
        </extensions>
      </trkpt>
      <trkpt lat="46.6198203898966312408447265625" lon="6.8992482684552669525146484375">
        <ele>838.5999755859375</ele>
        <time>2013-08-15T17:09:46.000Z</time>
        <extensions>
          <ns3:TrackPointExtension>
            <ns3:atemp>17.0</ns3:atemp>
            <ns3:hr>102</ns3:hr>
          </ns3:TrackPointExtension>
        </extensions>
      </trkpt>
      <trkpt lat="46.6198203898966312408447265625" lon="6.8992482684552669525146484375">
        <ele>838.5999755859375</ele>
        <time>2013-08-15T17:09:47.000Z</time>
        <extensions>
          <ns3:TrackPointExtension>
            <ns3:atemp>17.0</ns3:atemp>
            <ns3:hr>103</ns3:hr>
          </ns3:TrackPointExtension>
        </extensions>
      </trkpt>
      <trkpt lat="46.6198203898966312408447265625" lon="6.8992482684552669525146484375">
        <ele>838.79998779296875</ele>
        <time>2013-08-15T17:09:48.000Z</time>
        <extensions>
          <ns3:TrackPointExtension>
            <ns3:atemp>17.0</ns3:atemp>
            <ns3:hr>104</ns3:hr>
          </ns3:TrackPointExtension>
        </extensions>
      </trkpt>
      <trkpt lat="46.61982080899178981781005859375" lon="6.89924784936010837554931640625">
        <ele>838.79998779296875</ele>
        <time>2013-08-15T17:09:49.000Z</time>
        <extensions>
          <ns3:TrackPointExtension>
            <ns3:atemp>17.0</ns3:atemp>
            <ns3:hr>105</ns3:hr>
          </ns3:TrackPointExtension>
        </extensions>
      </trkpt>
      <trkpt lat="46.6198203898966312408447265625" lon="6.8992482684552669525146484375">
        <ele>838.79998779296875</ele>
        <time>2013-08-15T17:09:50.000Z</time>
        <extensions>
          <ns3:TrackPointExtension>
            <ns3:atemp>17.0</ns3:atemp>
            <ns3:hr>105</ns3:hr>
          </ns3:TrackPointExtension>
        </extensions>
      </trkpt>
      <trkpt lat="46.6198210604488849639892578125" lon="6.89924449659883975982666015625">
        <ele>838.79998779296875</ele>
        <time>2013-08-15T17:09:51.000Z</time>
        <extensions>
          <ns3:TrackPointExtension>
            <ns3:atemp>17.0</ns3:atemp>
            <ns3:hr>106</ns3:hr>
          </ns3:TrackPointExtension>
        </extensions>
      </trkpt>
      <trkpt lat="46.6198210604488849639892578125" lon="6.89924449659883975982666015625">
        <ele>838.79998779296875</ele>
        <time>2013-08-15T17:09:52.000Z</time>
        <extensions>
          <ns3:TrackPointExtension>
            <ns3:atemp>17.0</ns3:atemp>
            <ns3:hr>105</ns3:hr>
          </ns3:TrackPointExtension>
        </extensions>
      </trkpt>
      <trkpt lat="46.6198210604488849639892578125" lon="6.89924449659883975982666015625">
        <ele>838.79998779296875</ele>
        <time>2013-08-15T17:09:53.000Z</time>
        <extensions>
          <ns3:TrackPointExtension>
            <ns3:atemp>17.0</ns3:atemp>
            <ns3:hr>104</ns3:hr>
          </ns3:TrackPointExtension>
        </extensions>
      </trkpt>
      <trkpt lat="46.6198210604488849639892578125" lon="6.89924449659883975982666015625">
        <ele>838.79998779296875</ele>
        <time>2013-08-15T17:09:54.000Z</time>
        <extensions>
          <ns3:TrackPointExtension>
            <ns3:atemp>17.0</ns3:atemp>
            <ns3:hr>102</ns3:hr>
          </ns3:TrackPointExtension>
        </extensions>
      </trkpt>
      <trkpt lat="46.619820892810821533203125" lon="6.89924516715109348297119140625">
        <ele>838.79998779296875</ele>
        <time>2013-08-15T17:09:55.000Z</time>
        <extensions>
          <ns3:TrackPointExtension>
            <ns3:atemp>17.0</ns3:atemp>
            <ns3:hr>100</ns3:hr>
          </ns3:TrackPointExtension>
        </extensions>
      </trkpt>
      <trkpt lat="46.61982215009629726409912109375" lon="6.89925204031169414520263671875">
        <ele>838.79998779296875</ele>
        <time>2013-08-15T17:09:56.000Z</time>
        <extensions>
          <ns3:TrackPointExtension>
            <ns3:atemp>17.0</ns3:atemp>
            <ns3:hr>99</ns3:hr>
          </ns3:TrackPointExtension>
        </extensions>
      </trkpt>
      <trkpt lat="46.6198220662772655487060546875" lon="6.899257488548755645751953125">
        <ele>838.5999755859375</ele>
        <time>2013-08-15T17:09:57.000Z</time>
        <extensions>
          <ns3:TrackPointExtension>
            <ns3:atemp>17.0</ns3:atemp>
            <ns3:hr>99</ns3:hr>
          </ns3:TrackPointExtension>
        </extensions>
      </trkpt>
      <trkpt lat="46.61981963552534580230712890625" lon="6.8992667086422443389892578125">
        <ele>838.79998779296875</ele>
        <time>2013-08-15T17:09:58.000Z</time>
        <extensions>
          <ns3:TrackPointExtension>
            <ns3:atemp>17.0</ns3:atemp>
            <ns3:hr>100</ns3:hr>
          </ns3:TrackPointExtension>
        </extensions>
      </trkpt>
      <trkpt lat="46.619817875325679779052734375" lon="6.89927835948765277862548828125">
        <ele>838.79998779296875</ele>
        <time>2013-08-15T17:09:59.000Z</time>
        <extensions>
          <ns3:TrackPointExtension>
            <ns3:atemp>17.0</ns3:atemp>
            <ns3:hr>101</ns3:hr>
          </ns3:TrackPointExtension>
        </extensions>
      </trkpt>
      <trkpt lat="46.619815528392791748046875" lon="6.8992975540459156036376953125">
        <ele>839</ele>
        <time>2013-08-15T17:10:00.000Z</time>
        <extensions>
          <ns3:TrackPointExtension>
            <ns3:atemp>17.0</ns3:atemp>
            <ns3:hr>102</ns3:hr>
          </ns3:TrackPointExtension>
        </extensions>
      </trkpt>
      <trkpt lat="46.61982332356274127960205078125" lon="6.8993176706135272979736328125">
        <ele>839</ele>
        <time>2013-08-15T17:10:01.000Z</time>
        <extensions>
          <ns3:TrackPointExtension>
            <ns3:atemp>17.0</ns3:atemp>
            <ns3:hr>102</ns3:hr>
          </ns3:TrackPointExtension>
        </extensions>
      </trkpt>
      <trkpt lat="46.6198388300836086273193359375" lon="6.8993282318115234375">
        <ele>839</ele>
        <time>2013-08-15T17:10:02.000Z</time>
        <extensions>
          <ns3:TrackPointExtension>
            <ns3:atemp>17.0</ns3:atemp>
            <ns3:hr>102</ns3:hr>
          </ns3:TrackPointExtension>
        </extensions>
      </trkpt>
      <trkpt lat="46.61985668353736400604248046875" lon="6.8993253819644451141357421875">
        <ele>839</ele>
        <time>2013-08-15T17:10:03.000Z</time>
        <extensions>
          <ns3:TrackPointExtension>
            <ns3:atemp>17.0</ns3:atemp>
            <ns3:hr>102</ns3:hr>
          </ns3:TrackPointExtension>
        </extensions>
      </trkpt>
      <trkpt lat="46.6198773868381977081298828125" lon="6.89931272529065608978271484375">
        <ele>839</ele>
        <time>2013-08-15T17:10:04.000Z</time>
        <extensions>
          <ns3:TrackPointExtension>
            <ns3:atemp>17.0</ns3:atemp>
            <ns3:hr>102</ns3:hr>
          </ns3:TrackPointExtension>
        </extensions>
      </trkpt>
      <trkpt lat="46.61990211345255374908447265625" lon="6.89929612912237644195556640625">
        <ele>839</ele>
        <time>2013-08-15T17:10:05.000Z</time>
        <extensions>
          <ns3:TrackPointExtension>
            <ns3:atemp>17.0</ns3:atemp>
            <ns3:hr>102</ns3:hr>
          </ns3:TrackPointExtension>
        </extensions>
      </trkpt>
      <trkpt lat="46.619928181171417236328125" lon="6.89927500672638416290283203125">
        <ele>839</ele>
        <time>2013-08-15T17:10:06.000Z</time>
        <extensions>
          <ns3:TrackPointExtension>
            <ns3:atemp>17.0</ns3:atemp>
            <ns3:hr>102</ns3:hr>
          </ns3:TrackPointExtension>
        </extensions>
      </trkpt>
      <trkpt lat="46.6199585236608982086181640625" lon="6.8992509506642818450927734375">
        <ele>839.20001220703125</ele>
        <time>2013-08-15T17:10:07.000Z</time>
        <extensions>
          <ns3:TrackPointExtension>
            <ns3:atemp>17.0</ns3:atemp>
            <ns3:hr>102</ns3:hr>
          </ns3:TrackPointExtension>
        </extensions>
      </trkpt>
      <trkpt lat="46.6199930571019649505615234375" lon="6.89922303892672061920166015625">
        <ele>839.20001220703125</ele>
        <time>2013-08-15T17:10:08.000Z</time>
        <extensions>
          <ns3:TrackPointExtension>
            <ns3:atemp>17.0</ns3:atemp>
            <ns3:hr>102</ns3:hr>
          </ns3:TrackPointExtension>
        </extensions>
      </trkpt>
      <trkpt lat="46.620031110942363739013671875" lon="6.899191103875637054443359375">
        <ele>839.20001220703125</ele>
        <time>2013-08-15T17:10:09.000Z</time>
        <extensions>
          <ns3:TrackPointExtension>
            <ns3:atemp>17.0</ns3:atemp>
            <ns3:hr>103</ns3:hr>
          </ns3:TrackPointExtension>
        </extensions>
      </trkpt>
      <trkpt lat="46.62007226608693599700927734375" lon="6.89915481023490428924560546875">
        <ele>839</ele>
        <time>2013-08-15T17:10:10.000Z</time>
        <extensions>
          <ns3:TrackPointExtension>
            <ns3:atemp>17.0</ns3:atemp>
            <ns3:hr>103</ns3:hr>
          </ns3:TrackPointExtension>
        </extensions>
      </trkpt>
      <trkpt lat="46.62011685781180858612060546875" lon="6.899113990366458892822265625">
        <ele>838.79998779296875</ele>
        <time>2013-08-15T17:10:11.000Z</time>
        <extensions>
          <ns3:TrackPointExtension>
            <ns3:atemp>17.0</ns3:atemp>
            <ns3:hr>104</ns3:hr>
          </ns3:TrackPointExtension>
        </extensions>
      </trkpt>
      <trkpt lat="46.62016463465988636016845703125" lon="6.8990655429661273956298828125">
        <ele>838.5999755859375</ele>
        <time>2013-08-15T17:10:12.000Z</time>
        <extensions>
          <ns3:TrackPointExtension>
            <ns3:atemp>17.0</ns3:atemp>
            <ns3:hr>104</ns3:hr>
          </ns3:TrackPointExtension>
        </extensions>
      </trkpt>
      <trkpt lat="46.6202160157263278961181640625" lon="6.899016089737415313720703125">
        <ele>838.20001220703125</ele>
        <time>2013-08-15T17:10:13.000Z</time>
        <extensions>
          <ns3:TrackPointExtension>
            <ns3:atemp>17.0</ns3:atemp>
            <ns3:hr>105</ns3:hr>
          </ns3:TrackPointExtension>
        </extensions>
      </trkpt>
      <trkpt lat="46.62027628161013126373291015625" lon="6.8989790417253971099853515625">
        <ele>838</ele>
        <time>2013-08-15T17:10:14.000Z</time>
        <extensions>
          <ns3:TrackPointExtension>
            <ns3:atemp>17.0</ns3:atemp>
            <ns3:hr>105</ns3:hr>
          </ns3:TrackPointExtension>
        </extensions>
      </trkpt>
      <trkpt lat="46.6203390620648860931396484375" lon="6.89896118827164173126220703125">
        <ele>837.5999755859375</ele>
        <time>2013-08-15T17:10:15.000Z</time>
        <extensions>
          <ns3:TrackPointExtension>
            <ns3:atemp>17.0</ns3:atemp>
            <ns3:hr>105</ns3:hr>
          </ns3:TrackPointExtension>
        </extensions>
      </trkpt>
      <trkpt lat="46.6203990764915943145751953125" lon="6.898967139422893524169921875">
        <ele>837.4000244140625</ele>
        <time>2013-08-15T17:10:16.000Z</time>
        <extensions>
          <ns3:TrackPointExtension>
            <ns3:atemp>17.0</ns3:atemp>
            <ns3:hr>104</ns3:hr>
          </ns3:TrackPointExtension>
        </extensions>
      </trkpt>
      <trkpt lat="46.6204525530338287353515625" lon="6.8989971466362476348876953125">
        <ele>837</ele>
        <time>2013-08-15T17:10:17.000Z</time>
        <extensions>
          <ns3:TrackPointExtension>
            <ns3:atemp>17.0</ns3:atemp>
            <ns3:hr>105</ns3:hr>
          </ns3:TrackPointExtension>
        </extensions>
      </trkpt>
      <trkpt lat="46.620499826967716217041015625" lon="6.89904416911303997039794921875">
        <ele>836.79998779296875</ele>
        <time>2013-08-15T17:10:18.000Z</time>
        <extensions>
          <ns3:TrackPointExtension>
            <ns3:atemp>17.0</ns3:atemp>
            <ns3:hr>105</ns3:hr>
          </ns3:TrackPointExtension>
        </extensions>
      </trkpt>
      <trkpt lat="46.62054366432130336761474609375" lon="6.8990963883697986602783203125">
        <ele>836.5999755859375</ele>
        <time>2013-08-15T17:10:19.000Z</time>
        <extensions>
          <ns3:TrackPointExtension>
            <ns3:atemp>17.0</ns3:atemp>
            <ns3:hr>105</ns3:hr>
          </ns3:TrackPointExtension>
        </extensions>
      </trkpt>
      <trkpt lat="46.6205839812755584716796875" lon="6.8991490267217159271240234375">
        <ele>836.5999755859375</ele>
        <time>2013-08-15T17:10:20.000Z</time>
        <extensions>
          <ns3:TrackPointExtension>
            <ns3:atemp>17.0</ns3:atemp>
            <ns3:hr>106</ns3:hr>
          </ns3:TrackPointExtension>
        </extensions>
      </trkpt>
      <trkpt lat="46.62062094546854496002197265625" lon="6.89920174889266490936279296875">
        <ele>836.79998779296875</ele>
        <time>2013-08-15T17:10:21.000Z</time>
        <extensions>
          <ns3:TrackPointExtension>
            <ns3:atemp>17.0</ns3:atemp>
            <ns3:hr>107</ns3:hr>
          </ns3:TrackPointExtension>
        </extensions>
      </trkpt>
      <trkpt lat="46.62065564654767513275146484375" lon="6.89925556071102619171142578125">
        <ele>837</ele>
        <time>2013-08-15T17:10:22.000Z</time>
        <extensions>
          <ns3:TrackPointExtension>
            <ns3:atemp>17.0</ns3:atemp>
            <ns3:hr>108</ns3:hr>
          </ns3:TrackPointExtension>
        </extensions>
      </trkpt>
      <trkpt lat="46.6206907667219638824462890625" lon="6.899306774139404296875">
        <ele>837.20001220703125</ele>
        <time>2013-08-15T17:10:23.000Z</time>
        <extensions>
          <ns3:TrackPointExtension>
            <ns3:atemp>17.0</ns3:atemp>
            <ns3:hr>109</ns3:hr>
          </ns3:TrackPointExtension>
        </extensions>
      </trkpt>
      <trkpt lat="46.62073108367621898651123046875" lon="6.89934591762721538543701171875">
        <ele>837.5999755859375</ele>
        <time>2013-08-15T17:10:24.000Z</time>
        <extensions>
          <ns3:TrackPointExtension>
            <ns3:atemp>17.0</ns3:atemp>
            <ns3:hr>110</ns3:hr>
          </ns3:TrackPointExtension>
        </extensions>
      </trkpt>
      <trkpt lat="46.62077433429658412933349609375" lon="6.89937341026961803436279296875">
        <ele>837.79998779296875</ele>
        <time>2013-08-15T17:10:25.000Z</time>
        <extensions>
          <ns3:TrackPointExtension>
            <ns3:atemp>17.0</ns3:atemp>
            <ns3:hr>110</ns3:hr>
          </ns3:TrackPointExtension>
        </extensions>
      </trkpt>
      <trkpt lat="46.6208181716501712799072265625" lon="6.89939302392303943634033203125">
        <ele>838</ele>
        <time>2013-08-15T17:10:26.000Z</time>
        <extensions>
          <ns3:TrackPointExtension>
            <ns3:atemp>17.0</ns3:atemp>
            <ns3:hr>111</ns3:hr>
          </ns3:TrackPointExtension>
        </extensions>
      </trkpt>
      <trkpt lat="46.6208634339272975921630859375" lon="6.899407692253589630126953125">
        <ele>838</ele>
        <time>2013-08-15T17:10:27.000Z</time>
        <extensions>
          <ns3:TrackPointExtension>
            <ns3:atemp>17.0</ns3:atemp>
            <ns3:hr>112</ns3:hr>
          </ns3:TrackPointExtension>
        </extensions>
      </trkpt>
      <trkpt lat="46.6209086962044239044189453125" lon="6.899420432746410369873046875">
        <ele>838.20001220703125</ele>
        <time>2013-08-15T17:10:28.000Z</time>
        <extensions>
          <ns3:TrackPointExtension>
            <ns3:atemp>17.0</ns3:atemp>
            <ns3:hr>113</ns3:hr>
          </ns3:TrackPointExtension>
        </extensions>
      </trkpt>
      <trkpt lat="46.62095370702445507049560546875" lon="6.8994341790676116943359375">
        <ele>838.4000244140625</ele>
        <time>2013-08-15T17:10:29.000Z</time>
        <extensions>
          <ns3:TrackPointExtension>
            <ns3:atemp>17.0</ns3:atemp>
            <ns3:hr>114</ns3:hr>
          </ns3:TrackPointExtension>
        </extensions>
      </trkpt>
      <trkpt lat="46.6209985502064228057861328125" lon="6.89944867976009845733642578125">
        <ele>838.4000244140625</ele>
        <time>2013-08-15T17:10:30.000Z</time>
        <extensions>
          <ns3:TrackPointExtension>
            <ns3:atemp>17.0</ns3:atemp>
            <ns3:hr>114</ns3:hr>
          </ns3:TrackPointExtension>
        </extensions>
      </trkpt>
      <trkpt lat="46.621043980121612548828125" lon="6.89945873804390430450439453125">
        <ele>838.20001220703125</ele>
        <time>2013-08-15T17:10:31.000Z</time>
        <extensions>
          <ns3:TrackPointExtension>
            <ns3:atemp>17.0</ns3:atemp>
            <ns3:hr>114</ns3:hr>
          </ns3:TrackPointExtension>
        </extensions>
      </trkpt>
      <trkpt lat="46.62108882330358028411865234375" lon="6.89946812577545642852783203125">
        <ele>838.20001220703125</ele>
        <time>2013-08-15T17:10:32.000Z</time>
        <extensions>
          <ns3:TrackPointExtension>
            <ns3:atemp>17.0</ns3:atemp>
            <ns3:hr>115</ns3:hr>
          </ns3:TrackPointExtension>
        </extensions>
      </trkpt>
      <trkpt lat="46.621135510504245758056640625" lon="6.89947642385959625244140625">
        <ele>838.20001220703125</ele>
        <time>2013-08-15T17:10:33.000Z</time>
        <extensions>
          <ns3:TrackPointExtension>
            <ns3:atemp>17.0</ns3:atemp>
            <ns3:hr>115</ns3:hr>
          </ns3:TrackPointExtension>
        </extensions>
      </trkpt>
      <trkpt lat="46.6211802698671817779541015625" lon="6.89949159510433673858642578125">
        <ele>838.4000244140625</ele>
        <time>2013-08-15T17:10:34.000Z</time>
        <extensions>
          <ns3:TrackPointExtension>
            <ns3:atemp>17.0</ns3:atemp>
            <ns3:hr>115</ns3:hr>
          </ns3:TrackPointExtension>
        </extensions>
      </trkpt>
      <trkpt lat="46.62122259847819805145263671875" lon="6.89950098283588886260986328125">
        <ele>838.4000244140625</ele>
        <time>2013-08-15T17:10:35.000Z</time>
        <extensions>
          <ns3:TrackPointExtension>
            <ns3:atemp>17.0</ns3:atemp>
            <ns3:hr>116</ns3:hr>
          </ns3:TrackPointExtension>
        </extensions>
      </trkpt>
      <trkpt lat="46.6212674416601657867431640625" lon="6.89950349740684032440185546875">
        <ele>838.20001220703125</ele>
        <time>2013-08-15T17:10:36.000Z</time>
        <extensions>
          <ns3:TrackPointExtension>
            <ns3:atemp>17.0</ns3:atemp>
            <ns3:hr>116</ns3:hr>
          </ns3:TrackPointExtension>
        </extensions>
      </trkpt>
      <trkpt lat="46.62131379358470439910888671875" lon="6.8995030783116817474365234375">
        <ele>838.20001220703125</ele>
        <time>2013-08-15T17:10:37.000Z</time>
        <extensions>
          <ns3:TrackPointExtension>
            <ns3:atemp>17.0</ns3:atemp>
            <ns3:hr>117</ns3:hr>
          </ns3:TrackPointExtension>
        </extensions>
      </trkpt>
      <trkpt lat="46.62136022932827472686767578125" lon="6.899496205151081085205078125">
        <ele>838</ele>
        <time>2013-08-15T17:10:38.000Z</time>
        <extensions>
          <ns3:TrackPointExtension>
            <ns3:atemp>17.0</ns3:atemp>
            <ns3:hr>117</ns3:hr>
          </ns3:TrackPointExtension>
        </extensions>
      </trkpt>
      <trkpt lat="46.6214079223573207855224609375" lon="6.899482794106006622314453125">
        <ele>838</ele>
        <time>2013-08-15T17:10:39.000Z</time>
        <extensions>
          <ns3:TrackPointExtension>
            <ns3:atemp>17.0</ns3:atemp>
            <ns3:hr>118</ns3:hr>
          </ns3:TrackPointExtension>
        </extensions>
      </trkpt>
      <trkpt lat="46.6214582137763500213623046875" lon="6.89946846105158329010009765625">
        <ele>838.20001220703125</ele>
        <time>2013-08-15T17:10:40.000Z</time>
        <extensions>
          <ns3:TrackPointExtension>
            <ns3:atemp>17.0</ns3:atemp>
            <ns3:hr>119</ns3:hr>
          </ns3:TrackPointExtension>
        </extensions>
      </trkpt>
      <trkpt lat="46.6215066611766815185546875" lon="6.89945270307362079620361328125">
        <ele>838.5999755859375</ele>
        <time>2013-08-15T17:10:41.000Z</time>
        <extensions>
          <ns3:TrackPointExtension>
            <ns3:atemp>17.0</ns3:atemp>
            <ns3:hr>119</ns3:hr>
          </ns3:TrackPointExtension>
        </extensions>
      </trkpt>
      <trkpt lat="46.621555276215076446533203125" lon="6.8994400463998317718505859375">
        <ele>838.79998779296875</ele>
        <time>2013-08-15T17:10:42.000Z</time>
        <extensions>
          <ns3:TrackPointExtension>
            <ns3:atemp>17.0</ns3:atemp>
            <ns3:hr>120</ns3:hr>
          </ns3:TrackPointExtension>
        </extensions>
      </trkpt>
      <trkpt lat="46.62160565145313739776611328125" lon="6.89943040721118450164794921875">
        <ele>838.79998779296875</ele>
        <time>2013-08-15T17:10:43.000Z</time>
        <extensions>
          <ns3:TrackPointExtension>
            <ns3:atemp>17.0</ns3:atemp>
            <ns3:hr>121</ns3:hr>
          </ns3:TrackPointExtension>
        </extensions>
      </trkpt>
      <trkpt lat="46.62165577523410320281982421875" lon="6.899425126612186431884765625">
        <ele>839</ele>
        <time>2013-08-15T17:10:44.000Z</time>
        <extensions>
          <ns3:TrackPointExtension>
            <ns3:atemp>17.0</ns3:atemp>
            <ns3:hr>121</ns3:hr>
          </ns3:TrackPointExtension>
        </extensions>
      </trkpt>
      <trkpt lat="46.6217056475579738616943359375" lon="6.89942822791635990142822265625">
        <ele>839</ele>
        <time>2013-08-15T17:10:45.000Z</time>
        <extensions>
          <ns3:TrackPointExtension>
            <ns3:atemp>17.0</ns3:atemp>
            <ns3:hr>122</ns3:hr>
          </ns3:TrackPointExtension>
        </extensions>
      </trkpt>
      <trkpt lat="46.62175476551055908203125" lon="6.89943560399115085601806640625">
        <ele>838.79998779296875</ele>
        <time>2013-08-15T17:10:46.000Z</time>
        <extensions>
          <ns3:TrackPointExtension>
            <ns3:atemp>17.0</ns3:atemp>
            <ns3:hr>123</ns3:hr>
          </ns3:TrackPointExtension>
        </extensions>
      </trkpt>
      <trkpt lat="46.6218042187392711639404296875" lon="6.8994454108178615570068359375">
        <ele>838.79998779296875</ele>
        <time>2013-08-15T17:10:47.000Z</time>
        <extensions>
          <ns3:TrackPointExtension>
            <ns3:atemp>17.0</ns3:atemp>
            <ns3:hr>123</ns3:hr>
          </ns3:TrackPointExtension>
        </extensions>
      </trkpt>
      <trkpt lat="46.62185409106314182281494140625" lon="6.89945957623422145843505859375">
        <ele>838.79998779296875</ele>
        <time>2013-08-15T17:10:48.000Z</time>
        <extensions>
          <ns3:TrackPointExtension>
            <ns3:atemp>17.0</ns3:atemp>
            <ns3:hr>124</ns3:hr>
          </ns3:TrackPointExtension>
        </extensions>
      </trkpt>
      <trkpt lat="46.621902287006378173828125" lon="6.89947508275508880615234375">
        <ele>839</ele>
        <time>2013-08-15T17:10:49.000Z</time>
        <extensions>
          <ns3:TrackPointExtension>
            <ns3:atemp>17.0</ns3:atemp>
            <ns3:hr>124</ns3:hr>
          </ns3:TrackPointExtension>
        </extensions>
      </trkpt>
      <trkpt lat="46.621948219835758209228515625" lon="6.89949226565659046173095703125">
        <ele>839</ele>
        <time>2013-08-15T17:10:50.000Z</time>
        <extensions>
          <ns3:TrackPointExtension>
            <ns3:atemp>17.0</ns3:atemp>
            <ns3:hr>124</ns3:hr>
          </ns3:TrackPointExtension>
        </extensions>
      </trkpt>
      <trkpt lat="46.6219933144748210906982421875" lon="6.8995091132819652557373046875">
        <ele>839</ele>
        <time>2013-08-15T17:10:51.000Z</time>
        <extensions>
          <ns3:TrackPointExtension>
            <ns3:atemp>17.0</ns3:atemp>
            <ns3:hr>124</ns3:hr>
          </ns3:TrackPointExtension>
        </extensions>
      </trkpt>
      <trkpt lat="46.62203882820904254913330078125" lon="6.89952596090734004974365234375">
        <ele>839</ele>
        <time>2013-08-15T17:10:52.000Z</time>
        <extensions>
          <ns3:TrackPointExtension>
            <ns3:atemp>17.0</ns3:atemp>
            <ns3:hr>124</ns3:hr>
          </ns3:TrackPointExtension>
        </extensions>
      </trkpt>
      <trkpt lat="46.6220831684768199920654296875" lon="6.89954389818012714385986328125">
        <ele>839</ele>
        <time>2013-08-15T17:10:53.000Z</time>
        <extensions>
          <ns3:TrackPointExtension>
            <ns3:atemp>17.0</ns3:atemp>
            <ns3:hr>124</ns3:hr>
          </ns3:TrackPointExtension>
        </extensions>
      </trkpt>
      <trkpt lat="46.62212566472589969635009765625" lon="6.89956183545291423797607421875">
        <ele>839.20001220703125</ele>
        <time>2013-08-15T17:10:54.000Z</time>
        <extensions>
          <ns3:TrackPointExtension>
            <ns3:atemp>17.0</ns3:atemp>
            <ns3:hr>124</ns3:hr>
          </ns3:TrackPointExtension>
        </extensions>
      </trkpt>
      <trkpt lat="46.622168160974979400634765625" lon="6.89957792870700359344482421875">
        <ele>839.20001220703125</ele>
        <time>2013-08-15T17:10:55.000Z</time>
        <extensions>
          <ns3:TrackPointExtension>
            <ns3:atemp>17.0</ns3:atemp>
            <ns3:hr>124</ns3:hr>
          </ns3:TrackPointExtension>
        </extensions>
      </trkpt>
      <trkpt lat="46.62220998667180538177490234375" lon="6.8995751626789569854736328125">
        <ele>839.20001220703125</ele>
        <time>2013-08-15T17:10:56.000Z</time>
        <extensions>
          <ns3:TrackPointExtension>
            <ns3:atemp>18.0</ns3:atemp>
            <ns3:hr>124</ns3:hr>
          </ns3:TrackPointExtension>
        </extensions>
      </trkpt>
      <trkpt lat="46.622247956693172454833984375" lon="6.89954423345625400543212890625">
        <ele>839.20001220703125</ele>
        <time>2013-08-15T17:10:57.000Z</time>
        <extensions>
          <ns3:TrackPointExtension>
            <ns3:atemp>18.0</ns3:atemp>
            <ns3:hr>124</ns3:hr>
          </ns3:TrackPointExtension>
        </extensions>
      </trkpt>
      <trkpt lat="46.62228642962872982025146484375" lon="6.899493522942066192626953125">
        <ele>839.20001220703125</ele>
        <time>2013-08-15T17:10:58.000Z</time>
        <extensions>
          <ns3:TrackPointExtension>
            <ns3:atemp>18.0</ns3:atemp>
            <ns3:hr>124</ns3:hr>
          </ns3:TrackPointExtension>
        </extensions>
      </trkpt>
      <trkpt lat="46.62232934497296810150146484375" lon="6.899435520172119140625">
        <ele>839</ele>
        <time>2013-08-15T17:10:59.000Z</time>
        <extensions>
          <ns3:TrackPointExtension>
            <ns3:atemp>18.0</ns3:atemp>
            <ns3:hr>123</ns3:hr>
          </ns3:TrackPointExtension>
        </extensions>
      </trkpt>
      <trkpt lat="46.622377373278141021728515625" lon="6.8993750028312206268310546875">
        <ele>839.20001220703125</ele>
        <time>2013-08-15T17:11:00.000Z</time>
        <extensions>
          <ns3:TrackPointExtension>
            <ns3:atemp>18.0</ns3:atemp>
            <ns3:hr>123</ns3:hr>
          </ns3:TrackPointExtension>
        </extensions>
      </trkpt>
      <trkpt lat="46.62242741324007511138916015625" lon="6.89930903725326061248779296875">
        <ele>839.20001220703125</ele>
        <time>2013-08-15T17:11:01.000Z</time>
        <extensions>
          <ns3:TrackPointExtension>
            <ns3:atemp>18.0</ns3:atemp>
            <ns3:hr>123</ns3:hr>
          </ns3:TrackPointExtension>
        </extensions>
      </trkpt>
      <trkpt lat="46.622473262250423431396484375" lon="6.899232007563114166259765625">
        <ele>839.20001220703125</ele>
        <time>2013-08-15T17:11:02.000Z</time>
        <extensions>
          <ns3:TrackPointExtension>
            <ns3:atemp>18.0</ns3:atemp>
            <ns3:hr>123</ns3:hr>
          </ns3:TrackPointExtension>
        </extensions>
      </trkpt>
      <trkpt lat="46.62251307629048824310302734375" lon="6.89914491958916187286376953125">
        <ele>839</ele>
        <time>2013-08-15T17:11:03.000Z</time>
        <extensions>
          <ns3:TrackPointExtension>
            <ns3:atemp>18.0</ns3:atemp>
            <ns3:hr>123</ns3:hr>
          </ns3:TrackPointExtension>
        </extensions>
      </trkpt>
      <trkpt lat="46.6225445084273815155029296875" lon="6.89904903061687946319580078125">
        <ele>838.79998779296875</ele>
        <time>2013-08-15T17:11:04.000Z</time>
        <extensions>
          <ns3:TrackPointExtension>
            <ns3:atemp>18.0</ns3:atemp>
            <ns3:hr>123</ns3:hr>
          </ns3:TrackPointExtension>
        </extensions>
      </trkpt>
      <trkpt lat="46.62256772629916667938232421875" lon="6.89894995652139186859130859375">
        <ele>838.79998779296875</ele>
        <time>2013-08-15T17:11:05.000Z</time>
        <extensions>
          <ns3:TrackPointExtension>
            <ns3:atemp>18.0</ns3:atemp>
            <ns3:hr>123</ns3:hr>
          </ns3:TrackPointExtension>
        </extensions>
      </trkpt>
      <trkpt lat="46.62258516065776348114013671875" lon="6.89885004423558712005615234375">
        <ele>838.5999755859375</ele>
        <time>2013-08-15T17:11:06.000Z</time>
        <extensions>
          <ns3:TrackPointExtension>
            <ns3:atemp>18.0</ns3:atemp>
            <ns3:hr>123</ns3:hr>
          </ns3:TrackPointExtension>
        </extensions>
      </trkpt>
      <trkpt lat="46.62260024808347225189208984375" lon="6.89874996431171894073486328125">
        <ele>838.4000244140625</ele>
        <time>2013-08-15T17:11:07.000Z</time>
        <extensions>
          <ns3:TrackPointExtension>
            <ns3:atemp>18.0</ns3:atemp>
            <ns3:hr>123</ns3:hr>
          </ns3:TrackPointExtension>
        </extensions>
      </trkpt>
      <trkpt lat="46.62261449731886386871337890625" lon="6.89865055494010448455810546875">
        <ele>838.20001220703125</ele>
        <time>2013-08-15T17:11:08.000Z</time>
        <extensions>
          <ns3:TrackPointExtension>
            <ns3:atemp>18.0</ns3:atemp>
            <ns3:hr>123</ns3:hr>
          </ns3:TrackPointExtension>
        </extensions>
      </trkpt>
      <trkpt lat="46.62262707017362117767333984375" lon="6.898552067577838897705078125">
        <ele>838.4000244140625</ele>
        <time>2013-08-15T17:11:09.000Z</time>
        <extensions>
          <ns3:TrackPointExtension>
            <ns3:atemp>18.0</ns3:atemp>
            <ns3:hr>123</ns3:hr>
          </ns3:TrackPointExtension>
        </extensions>
      </trkpt>
      <trkpt lat="46.6226403973996639251708984375" lon="6.89845643006265163421630859375">
        <ele>838.20001220703125</ele>
        <time>2013-08-15T17:11:10.000Z</time>
        <extensions>
          <ns3:TrackPointExtension>
            <ns3:atemp>18.0</ns3:atemp>
            <ns3:hr>123</ns3:hr>
          </ns3:TrackPointExtension>
        </extensions>
      </trkpt>
      <trkpt lat="46.62265590392053127288818359375" lon="6.89836196601390838623046875">
        <ele>838.4000244140625</ele>
        <time>2013-08-15T17:11:11.000Z</time>
        <extensions>
          <ns3:TrackPointExtension>
            <ns3:atemp>18.0</ns3:atemp>
            <ns3:hr>122</ns3:hr>
          </ns3:TrackPointExtension>
        </extensions>
      </trkpt>
      <trkpt lat="46.622672416269779205322265625" lon="6.89827186055481433868408203125">
        <ele>838.4000244140625</ele>
        <time>2013-08-15T17:11:12.000Z</time>
        <extensions>
          <ns3:TrackPointExtension>
            <ns3:atemp>18.0</ns3:atemp>
            <ns3:hr>123</ns3:hr>
          </ns3:TrackPointExtension>
        </extensions>
      </trkpt>
      <trkpt lat="46.622687838971614837646484375" lon="6.8981867842376232147216796875">
        <ele>838.5999755859375</ele>
        <time>2013-08-15T17:11:13.000Z</time>
        <extensions>
          <ns3:TrackPointExtension>
            <ns3:atemp>18.0</ns3:atemp>
            <ns3:hr>123</ns3:hr>
          </ns3:TrackPointExtension>
        </extensions>
      </trkpt>
      <trkpt lat="46.6227020882070064544677734375" lon="6.8981064856052398681640625">
        <ele>838.79998779296875</ele>
        <time>2013-08-15T17:11:14.000Z</time>
        <extensions>
          <ns3:TrackPointExtension>
            <ns3:atemp>18.0</ns3:atemp>
            <ns3:hr>123</ns3:hr>
          </ns3:TrackPointExtension>
        </extensions>
      </trkpt>
      <trkpt lat="46.6227175109088420867919921875" lon="6.8980308808386325836181640625">
        <ele>838.79998779296875</ele>
        <time>2013-08-15T17:11:15.000Z</time>
        <extensions>
          <ns3:TrackPointExtension>
            <ns3:atemp>18.0</ns3:atemp>
            <ns3:hr>123</ns3:hr>
          </ns3:TrackPointExtension>
        </extensions>
      </trkpt>
      <trkpt lat="46.62273553200066089630126953125" lon="6.8979604728519916534423828125">
        <ele>839.20001220703125</ele>
        <time>2013-08-15T17:11:16.000Z</time>
        <extensions>
          <ns3:TrackPointExtension>
            <ns3:atemp>18.0</ns3:atemp>
            <ns3:hr>123</ns3:hr>
          </ns3:TrackPointExtension>
        </extensions>
      </trkpt>
      <trkpt lat="46.62275313399732112884521484375" lon="6.89789199270308017730712890625">
        <ele>839.4000244140625</ele>
        <time>2013-08-15T17:11:17.000Z</time>
        <extensions>
          <ns3:TrackPointExtension>
            <ns3:atemp>18.0</ns3:atemp>
            <ns3:hr>123</ns3:hr>
          </ns3:TrackPointExtension>
        </extensions>
      </trkpt>
      <trkpt lat="46.62276939488947391510009765625" lon="6.897825859487056732177734375">
        <ele>839.5999755859375</ele>
        <time>2013-08-15T17:11:18.000Z</time>
        <extensions>
          <ns3:TrackPointExtension>
            <ns3:atemp>18.0</ns3:atemp>
            <ns3:hr>123</ns3:hr>
          </ns3:TrackPointExtension>
        </extensions>
      </trkpt>
      <trkpt lat="46.62278515286743640899658203125" lon="6.89776374958455562591552734375">
        <ele>840</ele>
        <time>2013-08-15T17:11:19.000Z</time>
        <extensions>
          <ns3:TrackPointExtension>
            <ns3:atemp>18.0</ns3:atemp>
            <ns3:hr>124</ns3:hr>
          </ns3:TrackPointExtension>
        </extensions>
      </trkpt>
      <trkpt lat="46.62279956974089145660400390625" lon="6.8977046571671962738037109375">
        <ele>840</ele>
        <time>2013-08-15T17:11:20.000Z</time>
        <extensions>
          <ns3:TrackPointExtension>
            <ns3:atemp>18.0</ns3:atemp>
            <ns3:hr>124</ns3:hr>
          </ns3:TrackPointExtension>
        </extensions>
      </trkpt>
      <trkpt lat="46.62281331606209278106689453125" lon="6.8976478278636932373046875">
        <ele>840.20001220703125</ele>
        <time>2013-08-15T17:11:21.000Z</time>
        <extensions>
          <ns3:TrackPointExtension>
            <ns3:atemp>18.0</ns3:atemp>
            <ns3:hr>124</ns3:hr>
          </ns3:TrackPointExtension>
        </extensions>
      </trkpt>
      <trkpt lat="46.62283024750649929046630859375" lon="6.89759510569274425506591796875">
        <ele>840.4000244140625</ele>
        <time>2013-08-15T17:11:22.000Z</time>
        <extensions>
          <ns3:TrackPointExtension>
            <ns3:atemp>18.0</ns3:atemp>
            <ns3:hr>125</ns3:hr>
          </ns3:TrackPointExtension>
        </extensions>
      </trkpt>
      <trkpt lat="46.6228504478931427001953125" lon="6.8975470773875713348388671875">
        <ele>840.5999755859375</ele>
        <time>2013-08-15T17:11:23.000Z</time>
        <extensions>
          <ns3:TrackPointExtension>
            <ns3:atemp>18.0</ns3:atemp>
            <ns3:hr>125</ns3:hr>
          </ns3:TrackPointExtension>
        </extensions>
      </trkpt>
      <trkpt lat="46.62287265993654727935791015625" lon="6.897506676614284515380859375">
        <ele>841</ele>
        <time>2013-08-15T17:11:24.000Z</time>
        <extensions>
          <ns3:TrackPointExtension>
            <ns3:atemp>18.0</ns3:atemp>
            <ns3:hr>126</ns3:hr>
          </ns3:TrackPointExtension>
        </extensions>
      </trkpt>
      <trkpt lat="46.62289814092218875885009765625" lon="6.897474490106105804443359375">
        <ele>841.5999755859375</ele>
        <time>2013-08-15T17:11:25.000Z</time>
        <extensions>
          <ns3:TrackPointExtension>
            <ns3:atemp>18.0</ns3:atemp>
            <ns3:hr>127</ns3:hr>
          </ns3:TrackPointExtension>
        </extensions>
      </trkpt>
      <trkpt lat="46.62292932160198688507080078125" lon="6.8974439799785614013671875">
        <ele>841.79998779296875</ele>
        <time>2013-08-15T17:11:26.000Z</time>
        <extensions>
          <ns3:TrackPointExtension>
            <ns3:atemp>18.0</ns3:atemp>
            <ns3:hr>127</ns3:hr>
          </ns3:TrackPointExtension>
        </extensions>
      </trkpt>
      <trkpt lat="46.62296486087143421173095703125" lon="6.8974019028246402740478515625">
        <ele>842</ele>
        <time>2013-08-15T17:11:27.000Z</time>
        <extensions>
          <ns3:TrackPointExtension>
            <ns3:atemp>18.0</ns3:atemp>
            <ns3:hr>127</ns3:hr>
          </ns3:TrackPointExtension>
        </extensions>
      </trkpt>
      <trkpt lat="46.62300241179764270782470703125" lon="6.89735203050076961517333984375">
        <ele>841.79998779296875</ele>
        <time>2013-08-15T17:11:28.000Z</time>
        <extensions>
          <ns3:TrackPointExtension>
            <ns3:atemp>18.0</ns3:atemp>
            <ns3:hr>128</ns3:hr>
          </ns3:TrackPointExtension>
        </extensions>
      </trkpt>
      <trkpt lat="46.62304155528545379638671875" lon="6.8972989730536937713623046875">
        <ele>841.20001220703125</ele>
        <time>2013-08-15T17:11:29.000Z</time>
        <extensions>
          <ns3:TrackPointExtension>
            <ns3:atemp>18.0</ns3:atemp>
            <ns3:hr>128</ns3:hr>
          </ns3:TrackPointExtension>
        </extensions>
      </trkpt>
      <trkpt lat="46.62308405153453350067138671875" lon="6.897244155406951904296875">
        <ele>841</ele>
        <time>2013-08-15T17:11:30.000Z</time>
        <extensions>
          <ns3:TrackPointExtension>
            <ns3:atemp>18.0</ns3:atemp>
            <ns3:hr>128</ns3:hr>
          </ns3:TrackPointExtension>
        </extensions>
      </trkpt>
      <trkpt lat="46.62313182838261127471923828125" lon="6.8971891701221466064453125">
        <ele>840.79998779296875</ele>
        <time>2013-08-15T17:11:31.000Z</time>
        <extensions>
          <ns3:TrackPointExtension>
            <ns3:atemp>18.0</ns3:atemp>
            <ns3:hr>128</ns3:hr>
          </ns3:TrackPointExtension>
        </extensions>
      </trkpt>
      <trkpt lat="46.62318211980164051055908203125" lon="6.897135190665721893310546875">
        <ele>840.79998779296875</ele>
        <time>2013-08-15T17:11:32.000Z</time>
        <extensions>
          <ns3:TrackPointExtension>
            <ns3:atemp>18.0</ns3:atemp>
            <ns3:hr>128</ns3:hr>
          </ns3:TrackPointExtension>
        </extensions>
      </trkpt>
      <trkpt lat="46.62323542870581150054931640625" lon="6.89708179794251918792724609375">
        <ele>840.4000244140625</ele>
        <time>2013-08-15T17:11:33.000Z</time>
        <extensions>
          <ns3:TrackPointExtension>
            <ns3:atemp>18.0</ns3:atemp>
            <ns3:hr>128</ns3:hr>
          </ns3:TrackPointExtension>
        </extensions>
      </trkpt>
      <trkpt lat="46.623293347656726837158203125" lon="6.89702999778091907501220703125">
        <ele>840.4000244140625</ele>
        <time>2013-08-15T17:11:34.000Z</time>
        <extensions>
          <ns3:TrackPointExtension>
            <ns3:atemp>18.0</ns3:atemp>
            <ns3:hr>127</ns3:hr>
          </ns3:TrackPointExtension>
        </extensions>
      </trkpt>
      <trkpt lat="46.62335612811148166656494140625" lon="6.89698205329477787017822265625">
        <ele>840.20001220703125</ele>
        <time>2013-08-15T17:11:35.000Z</time>
        <extensions>
          <ns3:TrackPointExtension>
            <ns3:atemp>18.0</ns3:atemp>
            <ns3:hr>127</ns3:hr>
          </ns3:TrackPointExtension>
        </extensions>
      </trkpt>
      <trkpt lat="46.62342200987040996551513671875" lon="6.8969397246837615966796875">
        <ele>840</ele>
        <time>2013-08-15T17:11:36.000Z</time>
        <extensions>
          <ns3:TrackPointExtension>
            <ns3:atemp>18.0</ns3:atemp>
            <ns3:hr>127</ns3:hr>
          </ns3:TrackPointExtension>
        </extensions>
      </trkpt>
      <trkpt lat="46.6234886460006237030029296875" lon="6.89689991064369678497314453125">
        <ele>839.5999755859375</ele>
        <time>2013-08-15T17:11:37.000Z</time>
        <extensions>
          <ns3:TrackPointExtension>
            <ns3:atemp>18.0</ns3:atemp>
            <ns3:hr>126</ns3:hr>
          </ns3:TrackPointExtension>
        </extensions>
      </trkpt>
      <trkpt lat="46.62355561740696430206298828125" lon="6.89685992896556854248046875">
        <ele>839.4000244140625</ele>
        <time>2013-08-15T17:11:38.000Z</time>
        <extensions>
          <ns3:TrackPointExtension>
            <ns3:atemp>18.0</ns3:atemp>
            <ns3:hr>126</ns3:hr>
          </ns3:TrackPointExtension>
        </extensions>
      </trkpt>
      <trkpt lat="46.62362317554652690887451171875" lon="6.8968178518116474151611328125">
        <ele>839.20001220703125</ele>
        <time>2013-08-15T17:11:39.000Z</time>
        <extensions>
          <ns3:TrackPointExtension>
            <ns3:atemp>18.0</ns3:atemp>
            <ns3:hr>125</ns3:hr>
          </ns3:TrackPointExtension>
        </extensions>
      </trkpt>
      <trkpt lat="46.62368939258158206939697265625" lon="6.896771751344203948974609375">
        <ele>838.4000244140625</ele>
        <time>2013-08-15T17:11:40.000Z</time>
        <extensions>
          <ns3:TrackPointExtension>
            <ns3:atemp>18.0</ns3:atemp>
            <ns3:hr>125</ns3:hr>
          </ns3:TrackPointExtension>
        </extensions>
      </trkpt>
      <trkpt lat="46.62375477142632007598876953125" lon="6.8967249803245067596435546875">
        <ele>838.20001220703125</ele>
        <time>2013-08-15T17:11:41.000Z</time>
        <extensions>
          <ns3:TrackPointExtension>
            <ns3:atemp>18.0</ns3:atemp>
            <ns3:hr>125</ns3:hr>
          </ns3:TrackPointExtension>
        </extensions>
      </trkpt>
      <trkpt lat="46.62381939589977264404296875" lon="6.8966810591518878936767578125">
        <ele>838</ele>
        <time>2013-08-15T17:11:42.000Z</time>
        <extensions>
          <ns3:TrackPointExtension>
            <ns3:atemp>18.0</ns3:atemp>
            <ns3:hr>124</ns3:hr>
          </ns3:TrackPointExtension>
        </extensions>
      </trkpt>
      <trkpt lat="46.6238822601735591888427734375" lon="6.8966398201882839202880859375">
        <ele>837.79998779296875</ele>
        <time>2013-08-15T17:11:43.000Z</time>
        <extensions>
          <ns3:TrackPointExtension>
            <ns3:atemp>18.0</ns3:atemp>
            <ns3:hr>123</ns3:hr>
          </ns3:TrackPointExtension>
        </extensions>
      </trkpt>
      <trkpt lat="46.62394520826637744903564453125" lon="6.89660335890948772430419921875">
        <ele>837.79998779296875</ele>
        <time>2013-08-15T17:11:44.000Z</time>
        <extensions>
          <ns3:TrackPointExtension>
            <ns3:atemp>18.0</ns3:atemp>
            <ns3:hr>122</ns3:hr>
          </ns3:TrackPointExtension>
        </extensions>
      </trkpt>
      <trkpt lat="46.62400371395051479339599609375" lon="6.8965684063732624053955078125">
        <ele>837.5999755859375</ele>
        <time>2013-08-15T17:11:45.000Z</time>
        <extensions>
          <ns3:TrackPointExtension>
            <ns3:atemp>18.0</ns3:atemp>
            <ns3:hr>121</ns3:hr>
          </ns3:TrackPointExtension>
        </extensions>
      </trkpt>
      <trkpt lat="46.62405869923532009124755859375" lon="6.89652867615222930908203125">
        <ele>837.4000244140625</ele>
        <time>2013-08-15T17:11:46.000Z</time>
        <extensions>
          <ns3:TrackPointExtension>
            <ns3:atemp>18.0</ns3:atemp>
            <ns3:hr>121</ns3:hr>
          </ns3:TrackPointExtension>
        </extensions>
      </trkpt>
      <trkpt lat="46.62410379387438297271728515625" lon="6.8964795581996440887451171875">
        <ele>836.79998779296875</ele>
        <time>2013-08-15T17:11:47.000Z</time>
        <extensions>
          <ns3:TrackPointExtension>
            <ns3:atemp>18.0</ns3:atemp>
            <ns3:hr>121</ns3:hr>
          </ns3:TrackPointExtension>
        </extensions>
      </trkpt>
      <trkpt lat="46.6241419315338134765625" lon="6.8964193761348724365234375">
        <ele>836.20001220703125</ele>
        <time>2013-08-15T17:11:48.000Z</time>
        <extensions>
          <ns3:TrackPointExtension>
            <ns3:atemp>18.0</ns3:atemp>
            <ns3:hr>120</ns3:hr>
          </ns3:TrackPointExtension>
        </extensions>
      </trkpt>
      <trkpt lat="46.6241826675832271575927734375" lon="6.89635022543370723724365234375">
        <ele>835.4000244140625</ele>
        <time>2013-08-15T17:11:49.000Z</time>
        <extensions>
          <ns3:TrackPointExtension>
            <ns3:atemp>18.0</ns3:atemp>
            <ns3:hr>120</ns3:hr>
          </ns3:TrackPointExtension>
        </extensions>
      </trkpt>
      <trkpt lat="46.62422239780426025390625" lon="6.8962673284113407135009765625">
        <ele>834.5999755859375</ele>
        <time>2013-08-15T17:11:50.000Z</time>
        <extensions>
          <ns3:TrackPointExtension>
            <ns3:atemp>18.0</ns3:atemp>
            <ns3:hr>119</ns3:hr>
          </ns3:TrackPointExtension>
        </extensions>
      </trkpt>
      <trkpt lat="46.62425634451210498809814453125" lon="6.8961700983345508575439453125">
        <ele>833.79998779296875</ele>
        <time>2013-08-15T17:11:51.000Z</time>
        <extensions>
          <ns3:TrackPointExtension>
            <ns3:atemp>18.0</ns3:atemp>
            <ns3:hr>118</ns3:hr>
          </ns3:TrackPointExtension>
        </extensions>
      </trkpt>
      <trkpt lat="46.62428484298288822174072265625" lon="6.8960550986230373382568359375">
        <ele>833.20001220703125</ele>
        <time>2013-08-15T17:11:52.000Z</time>
        <extensions>
          <ns3:TrackPointExtension>
            <ns3:atemp>18.0</ns3:atemp>
            <ns3:hr>117</ns3:hr>
          </ns3:TrackPointExtension>
        </extensions>
      </trkpt>
      <trkpt lat="46.6243050433695316314697265625" lon="6.89592492766678333282470703125">
        <ele>832.4000244140625</ele>
        <time>2013-08-15T17:11:53.000Z</time>
        <extensions>
          <ns3:TrackPointExtension>
            <ns3:atemp>18.0</ns3:atemp>
            <ns3:hr>116</ns3:hr>
          </ns3:TrackPointExtension>
        </extensions>
      </trkpt>
      <trkpt lat="46.6243177838623523712158203125" lon="6.895788721740245819091796875">
        <ele>831.5999755859375</ele>
        <time>2013-08-15T17:11:54.000Z</time>
        <extensions>
          <ns3:TrackPointExtension>
            <ns3:atemp>18.0</ns3:atemp>
            <ns3:hr>115</ns3:hr>
          </ns3:TrackPointExtension>
        </extensions>
      </trkpt>
      <trkpt lat="46.62432742305099964141845703125" lon="6.89565234817564487457275390625">
        <ele>830.4000244140625</ele>
        <time>2013-08-15T17:11:55.000Z</time>
        <extensions>
          <ns3:TrackPointExtension>
            <ns3:atemp>18.0</ns3:atemp>
            <ns3:hr>115</ns3:hr>
          </ns3:TrackPointExtension>
        </extensions>
      </trkpt>
      <trkpt lat="46.624338738620281219482421875" lon="6.89551387913525104522705078125">
        <ele>829.79998779296875</ele>
        <time>2013-08-15T17:11:56.000Z</time>
        <extensions>
          <ns3:TrackPointExtension>
            <ns3:atemp>18.0</ns3:atemp>
            <ns3:hr>115</ns3:hr>
          </ns3:TrackPointExtension>
        </extensions>
      </trkpt>
      <trkpt lat="46.6243513114750385284423828125" lon="6.89538127742707729339599609375">
        <ele>829.4000244140625</ele>
        <time>2013-08-15T17:11:57.000Z</time>
        <extensions>
          <ns3:TrackPointExtension>
            <ns3:atemp>18.0</ns3:atemp>
            <ns3:hr>114</ns3:hr>
          </ns3:TrackPointExtension>
        </extensions>
      </trkpt>
      <trkpt lat="46.624369919300079345703125" lon="6.8952581472694873809814453125">
        <ele>828.79998779296875</ele>
        <time>2013-08-15T17:11:58.000Z</time>
        <extensions>
          <ns3:TrackPointExtension>
            <ns3:atemp>18.0</ns3:atemp>
            <ns3:hr>113</ns3:hr>
          </ns3:TrackPointExtension>
        </extensions>
      </trkpt>
      <trkpt lat="46.62440302781760692596435546875" lon="6.8951505236327648162841796875">
        <ele>827.5999755859375</ele>
        <time>2013-08-15T17:11:59.000Z</time>
        <extensions>
          <ns3:TrackPointExtension>
            <ns3:atemp>18.0</ns3:atemp>
            <ns3:hr>113</ns3:hr>
          </ns3:TrackPointExtension>
        </extensions>
      </trkpt>
      <trkpt lat="46.624446697533130645751953125" lon="6.89505212008953094482421875">
        <ele>826.20001220703125</ele>
        <time>2013-08-15T17:12:00.000Z</time>
        <extensions>
          <ns3:TrackPointExtension>
            <ns3:atemp>18.0</ns3:atemp>
            <ns3:hr>111</ns3:hr>
          </ns3:TrackPointExtension>
        </extensions>
      </trkpt>
      <trkpt lat="46.62449103780090808868408203125" lon="6.89496100880205631256103515625">
        <ele>824.79998779296875</ele>
        <time>2013-08-15T17:12:01.000Z</time>
        <extensions>
          <ns3:TrackPointExtension>
            <ns3:atemp>18.0</ns3:atemp>
            <ns3:hr>111</ns3:hr>
          </ns3:TrackPointExtension>
        </extensions>
      </trkpt>
      <trkpt lat="46.6245295107364654541015625" lon="6.89487467519938945770263671875">
        <ele>823.79998779296875</ele>
        <time>2013-08-15T17:12:02.000Z</time>
        <extensions>
          <ns3:TrackPointExtension>
            <ns3:atemp>18.0</ns3:atemp>
            <ns3:hr>110</ns3:hr>
          </ns3:TrackPointExtension>
        </extensions>
      </trkpt>
      <trkpt lat="46.62456211633980274200439453125" lon="6.8947847373783588409423828125">
        <ele>822.4000244140625</ele>
        <time>2013-08-15T17:12:03.000Z</time>
        <extensions>
          <ns3:TrackPointExtension>
            <ns3:atemp>18.0</ns3:atemp>
            <ns3:hr>110</ns3:hr>
          </ns3:TrackPointExtension>
        </extensions>
      </trkpt>
      <trkpt lat="46.62458491511642932891845703125" lon="6.894689016044139862060546875">
        <ele>820.79998779296875</ele>
        <time>2013-08-15T17:12:04.000Z</time>
        <extensions>
          <ns3:TrackPointExtension>
            <ns3:atemp>18.0</ns3:atemp>
            <ns3:hr>109</ns3:hr>
          </ns3:TrackPointExtension>
        </extensions>
      </trkpt>
      <trkpt lat="46.62460000254213809967041015625" lon="6.89458482898771762847900390625">
        <ele>820.5999755859375</ele>
        <time>2013-08-15T17:12:05.000Z</time>
        <extensions>
          <ns3:TrackPointExtension>
            <ns3:atemp>18.0</ns3:atemp>
            <ns3:hr>109</ns3:hr>
          </ns3:TrackPointExtension>
        </extensions>
      </trkpt>
      <trkpt lat="46.62460955791175365447998046875" lon="6.89447435550391674041748046875">
        <ele>820</ele>
        <time>2013-08-15T17:12:06.000Z</time>
        <extensions>
          <ns3:TrackPointExtension>
            <ns3:atemp>18.0</ns3:atemp>
            <ns3:hr>108</ns3:hr>
          </ns3:TrackPointExtension>
        </extensions>
      </trkpt>
      <trkpt lat="46.62461777217686176300048828125" lon="6.894361786544322967529296875">
        <ele>820</ele>
        <time>2013-08-15T17:12:07.000Z</time>
        <extensions>
          <ns3:TrackPointExtension>
            <ns3:atemp>18.0</ns3:atemp>
            <ns3:hr>108</ns3:hr>
          </ns3:TrackPointExtension>
        </extensions>
      </trkpt>
      <trkpt lat="46.62462732754647731781005859375" lon="6.89425776712596416473388671875">
        <ele>819</ele>
        <time>2013-08-15T17:12:08.000Z</time>
        <extensions>
          <ns3:TrackPointExtension>
            <ns3:atemp>18.0</ns3:atemp>
            <ns3:hr>108</ns3:hr>
          </ns3:TrackPointExtension>
        </extensions>
      </trkpt>
      <trkpt lat="46.62463822402060031890869140625" lon="6.89417227171361446380615234375">
        <ele>818.20001220703125</ele>
        <time>2013-08-15T17:12:09.000Z</time>
        <extensions>
          <ns3:TrackPointExtension>
            <ns3:atemp>18.0</ns3:atemp>
            <ns3:hr>107</ns3:hr>
          </ns3:TrackPointExtension>
        </extensions>
      </trkpt>
      <trkpt lat="46.62464476190507411956787109375" lon="6.89410303719341754913330078125">
        <ele>817</ele>
        <time>2013-08-15T17:12:10.000Z</time>
        <extensions>
          <ns3:TrackPointExtension>
            <ns3:atemp>18.0</ns3:atemp>
            <ns3:hr>107</ns3:hr>
          </ns3:TrackPointExtension>
        </extensions>
      </trkpt>
      <trkpt lat="46.6246352903544902801513671875" lon="6.89404771663248538970947265625">
        <ele>816</ele>
        <time>2013-08-15T17:12:11.000Z</time>
        <extensions>
          <ns3:TrackPointExtension>
            <ns3:atemp>18.0</ns3:atemp>
            <ns3:hr>107</ns3:hr>
          </ns3:TrackPointExtension>
        </extensions>
      </trkpt>
      <trkpt lat="46.62460687570273876190185546875" lon="6.89400329254567623138427734375">
        <ele>815.4000244140625</ele>
        <time>2013-08-15T17:12:12.000Z</time>
        <extensions>
          <ns3:TrackPointExtension>
            <ns3:atemp>18.0</ns3:atemp>
            <ns3:hr>106</ns3:hr>
          </ns3:TrackPointExtension>
        </extensions>
      </trkpt>
      <trkpt lat="46.62456345744431018829345703125" lon="6.89396305941045284271240234375">
        <ele>814.79998779296875</ele>
        <time>2013-08-15T17:12:13.000Z</time>
        <extensions>
          <ns3:TrackPointExtension>
            <ns3:atemp>18.0</ns3:atemp>
            <ns3:hr>105</ns3:hr>
          </ns3:TrackPointExtension>
        </extensions>
      </trkpt>
      <trkpt lat="46.62451165728271007537841796875" lon="6.89391796477138996124267578125">
        <ele>814.4000244140625</ele>
        <time>2013-08-15T17:12:14.000Z</time>
        <extensions>
          <ns3:TrackPointExtension>
            <ns3:atemp>18.0</ns3:atemp>
            <ns3:hr>105</ns3:hr>
          </ns3:TrackPointExtension>
        </extensions>
      </trkpt>
      <trkpt lat="46.62445373833179473876953125" lon="6.89386432059109210968017578125">
        <ele>813.79998779296875</ele>
        <time>2013-08-15T17:12:15.000Z</time>
        <extensions>
          <ns3:TrackPointExtension>
            <ns3:atemp>18.0</ns3:atemp>
            <ns3:hr>104</ns3:hr>
          </ns3:TrackPointExtension>
        </extensions>
      </trkpt>
      <trkpt lat="46.62438861094415187835693359375" lon="6.8938043899834156036376953125">
        <ele>813.4000244140625</ele>
        <time>2013-08-15T17:12:16.000Z</time>
        <extensions>
          <ns3:TrackPointExtension>
            <ns3:atemp>18.0</ns3:atemp>
            <ns3:hr>104</ns3:hr>
          </ns3:TrackPointExtension>
        </extensions>
      </trkpt>
      <trkpt lat="46.6243154369294643402099609375" lon="6.89373825676739215850830078125">
        <ele>812.5999755859375</ele>
        <time>2013-08-15T17:12:17.000Z</time>
        <extensions>
          <ns3:TrackPointExtension>
            <ns3:atemp>18.0</ns3:atemp>
            <ns3:hr>104</ns3:hr>
          </ns3:TrackPointExtension>
        </extensions>
      </trkpt>
      <trkpt lat="46.62424058653414249420166015625" lon="6.8936739675700664520263671875">
        <ele>812.20001220703125</ele>
        <time>2013-08-15T17:12:18.000Z</time>
        <extensions>
          <ns3:TrackPointExtension>
            <ns3:atemp>18.0</ns3:atemp>
            <ns3:hr>104</ns3:hr>
          </ns3:TrackPointExtension>
        </extensions>
      </trkpt>
      <trkpt lat="46.624160371720790863037109375" lon="6.89362728036940097808837890625">
        <ele>811.20001220703125</ele>
        <time>2013-08-15T17:12:19.000Z</time>
        <extensions>
          <ns3:TrackPointExtension>
            <ns3:atemp>18.0</ns3:atemp>
            <ns3:hr>104</ns3:hr>
          </ns3:TrackPointExtension>
        </extensions>
      </trkpt>
      <trkpt lat="46.62407395429909229278564453125" lon="6.89359308220446109771728515625">
        <ele>810.20001220703125</ele>
        <time>2013-08-15T17:12:20.000Z</time>
        <extensions>
          <ns3:TrackPointExtension>
            <ns3:atemp>18.0</ns3:atemp>
            <ns3:hr>104</ns3:hr>
          </ns3:TrackPointExtension>
        </extensions>
      </trkpt>
      <trkpt lat="46.623987369239330291748046875" lon="6.89356483519077301025390625">
        <ele>809.79998779296875</ele>
        <time>2013-08-15T17:12:21.000Z</time>
        <extensions>
          <ns3:TrackPointExtension>
            <ns3:atemp>18.0</ns3:atemp>
            <ns3:hr>103</ns3:hr>
          </ns3:TrackPointExtension>
        </extensions>
      </trkpt>
      <trkpt lat="46.62391335703432559967041015625" lon="6.8935467302799224853515625">
        <ele>809.4000244140625</ele>
        <time>2013-08-15T17:12:22.000Z</time>
        <extensions>
          <ns3:TrackPointExtension>
            <ns3:atemp>18.0</ns3:atemp>
            <ns3:hr>103</ns3:hr>
          </ns3:TrackPointExtension>
        </extensions>
      </trkpt>
      <trkpt lat="46.6238551028072834014892578125" lon="6.893529631197452545166015625">
        <ele>809.20001220703125</ele>
        <time>2013-08-15T17:12:23.000Z</time>
        <extensions>
          <ns3:TrackPointExtension>
            <ns3:atemp>18.0</ns3:atemp>
            <ns3:hr>103</ns3:hr>
          </ns3:TrackPointExtension>
        </extensions>
      </trkpt>
      <trkpt lat="46.6238031350076198577880859375" lon="6.89350783824920654296875">
        <ele>808.20001220703125</ele>
        <time>2013-08-15T17:12:24.000Z</time>
        <extensions>
          <ns3:TrackPointExtension>
            <ns3:atemp>18.0</ns3:atemp>
            <ns3:hr>104</ns3:hr>
          </ns3:TrackPointExtension>
        </extensions>
      </trkpt>
      <trkpt lat="46.62375611253082752227783203125" lon="6.89347841776907444000244140625">
        <ele>806.79998779296875</ele>
        <time>2013-08-15T17:12:25.000Z</time>
        <extensions>
          <ns3:TrackPointExtension>
            <ns3:atemp>18.0</ns3:atemp>
            <ns3:hr>104</ns3:hr>
          </ns3:TrackPointExtension>
        </extensions>
      </trkpt>
      <trkpt lat="46.62371554411947727203369140625" lon="6.8934422917664051055908203125">
        <ele>805.79998779296875</ele>
        <time>2013-08-15T17:12:26.000Z</time>
        <extensions>
          <ns3:TrackPointExtension>
            <ns3:atemp>18.0</ns3:atemp>
            <ns3:hr>104</ns3:hr>
          </ns3:TrackPointExtension>
        </extensions>
      </trkpt>
      <trkpt lat="46.62368134595453739166259765625" lon="6.89340566284954547882080078125">
        <ele>804.79998779296875</ele>
        <time>2013-08-15T17:12:27.000Z</time>
        <extensions>
          <ns3:TrackPointExtension>
            <ns3:atemp>18.0</ns3:atemp>
            <ns3:hr>103</ns3:hr>
          </ns3:TrackPointExtension>
        </extensions>
      </trkpt>
      <trkpt lat="46.62365351803600788116455078125" lon="6.89337096177041530609130859375">
        <ele>803</ele>
        <time>2013-08-15T17:12:28.000Z</time>
        <extensions>
          <ns3:TrackPointExtension>
            <ns3:atemp>18.0</ns3:atemp>
            <ns3:hr>103</ns3:hr>
          </ns3:TrackPointExtension>
        </extensions>
      </trkpt>
      <trkpt lat="46.6236311383545398712158203125" lon="6.89332838170230388641357421875">
        <ele>802.5999755859375</ele>
        <time>2013-08-15T17:12:29.000Z</time>
        <extensions>
          <ns3:TrackPointExtension>
            <ns3:atemp>18.0</ns3:atemp>
            <ns3:hr>103</ns3:hr>
          </ns3:TrackPointExtension>
        </extensions>
      </trkpt>
      <trkpt lat="46.62361814640462398529052734375" lon="6.8932759948074817657470703125">
        <ele>802</ele>
        <time>2013-08-15T17:12:30.000Z</time>
        <extensions>
          <ns3:TrackPointExtension>
            <ns3:atemp>18.0</ns3:atemp>
            <ns3:hr>102</ns3:hr>
          </ns3:TrackPointExtension>
        </extensions>
      </trkpt>
      <trkpt lat="46.6236147098243236541748046875" lon="6.8932173214852809906005859375">
        <ele>801.79998779296875</ele>
        <time>2013-08-15T17:12:31.000Z</time>
        <extensions>
          <ns3:TrackPointExtension>
            <ns3:atemp>18.0</ns3:atemp>
            <ns3:hr>102</ns3:hr>
          </ns3:TrackPointExtension>
        </extensions>
      </trkpt>
      <trkpt lat="46.62361881695687770843505859375" lon="6.89315001480281352996826171875">
        <ele>801.4000244140625</ele>
        <time>2013-08-15T17:12:32.000Z</time>
        <extensions>
          <ns3:TrackPointExtension>
            <ns3:atemp>18.0</ns3:atemp>
            <ns3:hr>102</ns3:hr>
          </ns3:TrackPointExtension>
        </extensions>
      </trkpt>
      <trkpt lat="46.62363030016422271728515625" lon="6.89307122491300106048583984375">
        <ele>800.79998779296875</ele>
        <time>2013-08-15T17:12:33.000Z</time>
        <extensions>
          <ns3:TrackPointExtension>
            <ns3:atemp>18.0</ns3:atemp>
            <ns3:hr>102</ns3:hr>
          </ns3:TrackPointExtension>
        </extensions>
      </trkpt>
      <trkpt lat="46.6236485727131366729736328125" lon="6.89298908226191997528076171875">
        <ele>800.4000244140625</ele>
        <time>2013-08-15T17:12:34.000Z</time>
        <extensions>
          <ns3:TrackPointExtension>
            <ns3:atemp>18.0</ns3:atemp>
            <ns3:hr>103</ns3:hr>
          </ns3:TrackPointExtension>
        </extensions>
      </trkpt>
      <trkpt lat="46.62367028184235095977783203125" lon="6.89290442503988742828369140625">
        <ele>799.5999755859375</ele>
        <time>2013-08-15T17:12:35.000Z</time>
        <extensions>
          <ns3:TrackPointExtension>
            <ns3:atemp>18.0</ns3:atemp>
            <ns3:hr>103</ns3:hr>
          </ns3:TrackPointExtension>
        </extensions>
      </trkpt>
      <trkpt lat="46.62369760684669017791748046875" lon="6.89281155355274677276611328125">
        <ele>799</ele>
        <time>2013-08-15T17:12:36.000Z</time>
        <extensions>
          <ns3:TrackPointExtension>
            <ns3:atemp>18.0</ns3:atemp>
            <ns3:hr>102</ns3:hr>
          </ns3:TrackPointExtension>
        </extensions>
      </trkpt>
      <trkpt lat="46.623723506927490234375" lon="6.8927140720188617706298828125">
        <ele>798</ele>
        <time>2013-08-15T17:12:37.000Z</time>
        <extensions>
          <ns3:TrackPointExtension>
            <ns3:atemp>18.0</ns3:atemp>
            <ns3:hr>103</ns3:hr>
          </ns3:TrackPointExtension>
        </extensions>
      </trkpt>
      <trkpt lat="46.62374454550445079803466796875" lon="6.8926201947033405303955078125">
        <ele>797.20001220703125</ele>
        <time>2013-08-15T17:12:38.000Z</time>
        <extensions>
          <ns3:TrackPointExtension>
            <ns3:atemp>18.0</ns3:atemp>
            <ns3:hr>103</ns3:hr>
          </ns3:TrackPointExtension>
        </extensions>
      </trkpt>
      <trkpt lat="46.62375963293015956878662109375" lon="6.89253176562488079071044921875">
        <ele>796.20001220703125</ele>
        <time>2013-08-15T17:12:39.000Z</time>
        <extensions>
          <ns3:TrackPointExtension>
            <ns3:atemp>18.0</ns3:atemp>
            <ns3:hr>103</ns3:hr>
          </ns3:TrackPointExtension>
        </extensions>
      </trkpt>
      <trkpt lat="46.62376977503299713134765625" lon="6.89244844950735569000244140625">
        <ele>795</ele>
        <time>2013-08-15T17:12:40.000Z</time>
        <extensions>
          <ns3:TrackPointExtension>
            <ns3:atemp>18.0</ns3:atemp>
            <ns3:hr>103</ns3:hr>
          </ns3:TrackPointExtension>
        </extensions>
      </trkpt>
      <trkpt lat="46.62377958185970783233642578125" lon="6.89236949197947978973388671875">
        <ele>793.79998779296875</ele>
        <time>2013-08-15T17:12:41.000Z</time>
        <extensions>
          <ns3:TrackPointExtension>
            <ns3:atemp>18.0</ns3:atemp>
            <ns3:hr>103</ns3:hr>
          </ns3:TrackPointExtension>
        </extensions>
      </trkpt>
      <trkpt lat="46.62378855049610137939453125" lon="6.8922869302332401275634765625">
        <ele>792.5999755859375</ele>
        <time>2013-08-15T17:12:42.000Z</time>
        <extensions>
          <ns3:TrackPointExtension>
            <ns3:atemp>18.0</ns3:atemp>
            <ns3:hr>103</ns3:hr>
          </ns3:TrackPointExtension>
        </extensions>
      </trkpt>
      <trkpt lat="46.6237957589328289031982421875" lon="6.8922007642686367034912109375">
        <ele>791.79998779296875</ele>
        <time>2013-08-15T17:12:43.000Z</time>
        <extensions>
          <ns3:TrackPointExtension>
            <ns3:atemp>18.0</ns3:atemp>
            <ns3:hr>104</ns3:hr>
          </ns3:TrackPointExtension>
        </extensions>
      </trkpt>
      <trkpt lat="46.62379869259893894195556640625" lon="6.892113424837589263916015625">
        <ele>791</ele>
        <time>2013-08-15T17:12:44.000Z</time>
        <extensions>
          <ns3:TrackPointExtension>
            <ns3:atemp>18.0</ns3:atemp>
            <ns3:hr>105</ns3:hr>
          </ns3:TrackPointExtension>
        </extensions>
      </trkpt>
      <trkpt lat="46.6237997822463512420654296875" lon="6.8920200504362583160400390625">
        <ele>790</ele>
        <time>2013-08-15T17:12:45.000Z</time>
        <extensions>
          <ns3:TrackPointExtension>
            <ns3:atemp>18.0</ns3:atemp>
            <ns3:hr>105</ns3:hr>
          </ns3:TrackPointExtension>
        </extensions>
      </trkpt>
      <trkpt lat="46.62379399873316287994384765625" lon="6.8919127620756626129150390625">
        <ele>789</ele>
        <time>2013-08-15T17:12:46.000Z</time>
        <extensions>
          <ns3:TrackPointExtension>
            <ns3:atemp>18.0</ns3:atemp>
            <ns3:hr>105</ns3:hr>
          </ns3:TrackPointExtension>
        </extensions>
      </trkpt>
      <trkpt lat="46.62378008477389812469482421875" lon="6.89179818145930767059326171875">
        <ele>788.79998779296875</ele>
        <time>2013-08-15T17:12:47.000Z</time>
        <extensions>
          <ns3:TrackPointExtension>
            <ns3:atemp>18.0</ns3:atemp>
            <ns3:hr>106</ns3:hr>
          </ns3:TrackPointExtension>
        </extensions>
      </trkpt>
      <trkpt lat="46.62375636398792266845703125" lon="6.89167932607233524322509765625">
        <ele>788.4000244140625</ele>
        <time>2013-08-15T17:12:48.000Z</time>
        <extensions>
          <ns3:TrackPointExtension>
            <ns3:atemp>18.0</ns3:atemp>
            <ns3:hr>105</ns3:hr>
          </ns3:TrackPointExtension>
        </extensions>
      </trkpt>
      <trkpt lat="46.623727194964885711669921875" lon="6.89156248234212398529052734375">
        <ele>787.79998779296875</ele>
        <time>2013-08-15T17:12:49.000Z</time>
        <extensions>
          <ns3:TrackPointExtension>
            <ns3:atemp>18.0</ns3:atemp>
            <ns3:hr>105</ns3:hr>
          </ns3:TrackPointExtension>
        </extensions>
      </trkpt>
      <trkpt lat="46.6236971877515316009521484375" lon="6.8914411962032318115234375">
        <ele>786.5999755859375</ele>
        <time>2013-08-15T17:12:50.000Z</time>
        <extensions>
          <ns3:TrackPointExtension>
            <ns3:atemp>18.0</ns3:atemp>
            <ns3:hr>105</ns3:hr>
          </ns3:TrackPointExtension>
        </extensions>
      </trkpt>
      <trkpt lat="46.6236730478703975677490234375" lon="6.89131043851375579833984375">
        <ele>785.79998779296875</ele>
        <time>2013-08-15T17:12:51.000Z</time>
        <extensions>
          <ns3:TrackPointExtension>
            <ns3:atemp>18.0</ns3:atemp>
            <ns3:hr>104</ns3:hr>
          </ns3:TrackPointExtension>
        </extensions>
      </trkpt>
      <trkpt lat="46.62367430515587329864501953125" lon="6.8911650963127613067626953125">
        <ele>784.5999755859375</ele>
        <time>2013-08-15T17:12:52.000Z</time>
        <extensions>
          <ns3:TrackPointExtension>
            <ns3:atemp>18.0</ns3:atemp>
            <ns3:hr>105</ns3:hr>
          </ns3:TrackPointExtension>
        </extensions>
      </trkpt>
      <trkpt lat="46.6236904822289943695068359375" lon="6.89102453179657459259033203125">
        <ele>784</ele>
        <time>2013-08-15T17:12:53.000Z</time>
        <extensions>
          <ns3:TrackPointExtension>
            <ns3:atemp>18.0</ns3:atemp>
            <ns3:hr>105</ns3:hr>
          </ns3:TrackPointExtension>
        </extensions>
      </trkpt>
      <trkpt lat="46.6237109340727329254150390625" lon="6.890887655317783355712890625">
        <ele>783</ele>
        <time>2013-08-15T17:12:54.000Z</time>
        <extensions>
          <ns3:TrackPointExtension>
            <ns3:atemp>18.0</ns3:atemp>
            <ns3:hr>105</ns3:hr>
          </ns3:TrackPointExtension>
        </extensions>
      </trkpt>
      <trkpt lat="46.62373096682131290435791015625" lon="6.89075295813381671905517578125">
        <ele>782.20001220703125</ele>
        <time>2013-08-15T17:12:55.000Z</time>
        <extensions>
          <ns3:TrackPointExtension>
            <ns3:atemp>18.0</ns3:atemp>
            <ns3:hr>105</ns3:hr>
          </ns3:TrackPointExtension>
        </extensions>
      </trkpt>
      <trkpt lat="46.623747982084751129150390625" lon="6.89062002114951610565185546875">
        <ele>781.79998779296875</ele>
        <time>2013-08-15T17:12:56.000Z</time>
        <extensions>
          <ns3:TrackPointExtension>
            <ns3:atemp>18.0</ns3:atemp>
            <ns3:hr>105</ns3:hr>
          </ns3:TrackPointExtension>
        </extensions>
      </trkpt>
      <trkpt lat="46.6237585432827472686767578125" lon="6.89048557542264461517333984375">
        <ele>781.20001220703125</ele>
        <time>2013-08-15T17:12:57.000Z</time>
        <extensions>
          <ns3:TrackPointExtension>
            <ns3:atemp>18.0</ns3:atemp>
            <ns3:hr>105</ns3:hr>
          </ns3:TrackPointExtension>
        </extensions>
      </trkpt>
      <trkpt lat="46.6237659193575382232666015625" lon="6.89035649411380290985107421875">
        <ele>780.79998779296875</ele>
        <time>2013-08-15T17:12:58.000Z</time>
        <extensions>
          <ns3:TrackPointExtension>
            <ns3:atemp>18.0</ns3:atemp>
            <ns3:hr>104</ns3:hr>
          </ns3:TrackPointExtension>
        </extensions>
      </trkpt>
      <trkpt lat="46.623771451413631439208984375" lon="6.890231184661388397216796875">
        <ele>780.4000244140625</ele>
        <time>2013-08-15T17:12:59.000Z</time>
        <extensions>
          <ns3:TrackPointExtension>
            <ns3:atemp>18.0</ns3:atemp>
            <ns3:hr>103</ns3:hr>
          </ns3:TrackPointExtension>
        </extensions>
      </trkpt>
      <trkpt lat="46.62377673201262950897216796875" lon="6.89010453410446643829345703125">
        <ele>780.5999755859375</ele>
        <time>2013-08-15T17:13:00.000Z</time>
        <extensions>
          <ns3:TrackPointExtension>
            <ns3:atemp>18.0</ns3:atemp>
            <ns3:hr>103</ns3:hr>
          </ns3:TrackPointExtension>
        </extensions>
      </trkpt>
      <trkpt lat="46.6237811744213104248046875" lon="6.88998014666140079498291015625">
        <ele>780.4000244140625</ele>
        <time>2013-08-15T17:13:01.000Z</time>
        <extensions>
          <ns3:TrackPointExtension>
            <ns3:atemp>18.0</ns3:atemp>
            <ns3:hr>103</ns3:hr>
          </ns3:TrackPointExtension>
        </extensions>
      </trkpt>
      <trkpt lat="46.62378477863967418670654296875" lon="6.88985668122768402099609375">
        <ele>779.79998779296875</ele>
        <time>2013-08-15T17:13:02.000Z</time>
        <extensions>
          <ns3:TrackPointExtension>
            <ns3:atemp>18.0</ns3:atemp>
            <ns3:hr>104</ns3:hr>
          </ns3:TrackPointExtension>
        </extensions>
      </trkpt>
      <trkpt lat="46.62378662265837192535400390625" lon="6.8897338025271892547607421875">
        <ele>779.20001220703125</ele>
        <time>2013-08-15T17:13:03.000Z</time>
        <extensions>
          <ns3:TrackPointExtension>
            <ns3:atemp>18.0</ns3:atemp>
            <ns3:hr>105</ns3:hr>
          </ns3:TrackPointExtension>
        </extensions>
      </trkpt>
      <trkpt lat="46.62378896959125995635986328125" lon="6.88960991799831390380859375">
        <ele>778.79998779296875</ele>
        <time>2013-08-15T17:13:04.000Z</time>
        <extensions>
          <ns3:TrackPointExtension>
            <ns3:atemp>18.0</ns3:atemp>
            <ns3:hr>106</ns3:hr>
          </ns3:TrackPointExtension>
        </extensions>
      </trkpt>
      <trkpt lat="46.62379165180027484893798828125" lon="6.88948377035558223724365234375">
        <ele>778.5999755859375</ele>
        <time>2013-08-15T17:13:05.000Z</time>
        <extensions>
          <ns3:TrackPointExtension>
            <ns3:atemp>18.0</ns3:atemp>
            <ns3:hr>107</ns3:hr>
          </ns3:TrackPointExtension>
        </extensions>
      </trkpt>
      <trkpt lat="46.6237954236567020416259765625" lon="6.8893571197986602783203125">
        <ele>778.4000244140625</ele>
        <time>2013-08-15T17:13:06.000Z</time>
        <extensions>
          <ns3:TrackPointExtension>
            <ns3:atemp>18.0</ns3:atemp>
            <ns3:hr>108</ns3:hr>
          </ns3:TrackPointExtension>
        </extensions>
      </trkpt>
      <trkpt lat="46.62379969842731952667236328125" lon="6.8892295472323894500732421875">
        <ele>778.20001220703125</ele>
        <time>2013-08-15T17:13:07.000Z</time>
        <extensions>
          <ns3:TrackPointExtension>
            <ns3:atemp>18.0</ns3:atemp>
            <ns3:hr>108</ns3:hr>
          </ns3:TrackPointExtension>
        </extensions>
      </trkpt>
      <trkpt lat="46.62380338646471500396728515625" lon="6.8891023099422454833984375">
        <ele>777.79998779296875</ele>
        <time>2013-08-15T17:13:08.000Z</time>
        <extensions>
          <ns3:TrackPointExtension>
            <ns3:atemp>18.0</ns3:atemp>
            <ns3:hr>109</ns3:hr>
          </ns3:TrackPointExtension>
        </extensions>
      </trkpt>
      <trkpt lat="46.6238044761121273040771484375" lon="6.8889760784804821014404296875">
        <ele>777.5999755859375</ele>
        <time>2013-08-15T17:13:09.000Z</time>
        <extensions>
          <ns3:TrackPointExtension>
            <ns3:atemp>18.0</ns3:atemp>
            <ns3:hr>110</ns3:hr>
          </ns3:TrackPointExtension>
        </extensions>
      </trkpt>
      <trkpt lat="46.62380330264568328857421875" lon="6.88885311596095561981201171875">
        <ele>777.4000244140625</ele>
        <time>2013-08-15T17:13:10.000Z</time>
        <extensions>
          <ns3:TrackPointExtension>
            <ns3:atemp>18.0</ns3:atemp>
            <ns3:hr>110</ns3:hr>
          </ns3:TrackPointExtension>
        </extensions>
      </trkpt>
      <trkpt lat="46.6237987764179706573486328125" lon="6.888730488717555999755859375">
        <ele>777.4000244140625</ele>
        <time>2013-08-15T17:13:11.000Z</time>
        <extensions>
          <ns3:TrackPointExtension>
            <ns3:atemp>18.0</ns3:atemp>
            <ns3:hr>110</ns3:hr>
          </ns3:TrackPointExtension>
        </extensions>
      </trkpt>
      <trkpt lat="46.6237870417535305023193359375" lon="6.88860937021672725677490234375">
        <ele>777.5999755859375</ele>
        <time>2013-08-15T17:13:12.000Z</time>
        <extensions>
          <ns3:TrackPointExtension>
            <ns3:atemp>18.0</ns3:atemp>
            <ns3:hr>110</ns3:hr>
          </ns3:TrackPointExtension>
        </extensions>
      </trkpt>
      <trkpt lat="46.62376583553850650787353515625" lon="6.88849135302007198333740234375">
        <ele>777.4000244140625</ele>
        <time>2013-08-15T17:13:13.000Z</time>
        <extensions>
          <ns3:TrackPointExtension>
            <ns3:atemp>18.0</ns3:atemp>
            <ns3:hr>111</ns3:hr>
          </ns3:TrackPointExtension>
        </extensions>
      </trkpt>
      <trkpt lat="46.62374119274318218231201171875" lon="6.88837601803243160247802734375">
        <ele>777.20001220703125</ele>
        <time>2013-08-15T17:13:14.000Z</time>
        <extensions>
          <ns3:TrackPointExtension>
            <ns3:atemp>18.0</ns3:atemp>
            <ns3:hr>111</ns3:hr>
          </ns3:TrackPointExtension>
        </extensions>
      </trkpt>
      <trkpt lat="46.62371889688074588775634765625" lon="6.8882612697780132293701171875">
        <ele>776.5999755859375</ele>
        <time>2013-08-15T17:13:15.000Z</time>
        <extensions>
          <ns3:TrackPointExtension>
            <ns3:atemp>18.0</ns3:atemp>
            <ns3:hr>111</ns3:hr>
          </ns3:TrackPointExtension>
        </extensions>
      </trkpt>
      <trkpt lat="46.6236968524754047393798828125" lon="6.8881516344845294952392578125">
        <ele>775.5999755859375</ele>
        <time>2013-08-15T17:13:16.000Z</time>
        <extensions>
          <ns3:TrackPointExtension>
            <ns3:atemp>18.0</ns3:atemp>
            <ns3:hr>111</ns3:hr>
          </ns3:TrackPointExtension>
        </extensions>
      </trkpt>
      <trkpt lat="46.62367464043200016021728515625" lon="6.8880426697432994842529296875">
        <ele>775</ele>
        <time>2013-08-15T17:13:17.000Z</time>
        <extensions>
          <ns3:TrackPointExtension>
            <ns3:atemp>18.0</ns3:atemp>
            <ns3:hr>111</ns3:hr>
          </ns3:TrackPointExtension>
        </extensions>
      </trkpt>
      <trkpt lat="46.623654104769229888916015625" lon="6.887934543192386627197265625">
        <ele>774.79998779296875</ele>
        <time>2013-08-15T17:13:18.000Z</time>
        <extensions>
          <ns3:TrackPointExtension>
            <ns3:atemp>18.0</ns3:atemp>
            <ns3:hr>111</ns3:hr>
          </ns3:TrackPointExtension>
        </extensions>
      </trkpt>
      <trkpt lat="46.623634658753871917724609375" lon="6.88782624900341033935546875">
        <ele>775</ele>
        <time>2013-08-15T17:13:19.000Z</time>
        <extensions>
          <ns3:TrackPointExtension>
            <ns3:atemp>18.0</ns3:atemp>
            <ns3:hr>111</ns3:hr>
          </ns3:TrackPointExtension>
        </extensions>
      </trkpt>
      <trkpt lat="46.6236180625855922698974609375" lon="6.88772055320441722869873046875">
        <ele>775.4000244140625</ele>
        <time>2013-08-15T17:13:20.000Z</time>
        <extensions>
          <ns3:TrackPointExtension>
            <ns3:atemp>18.0</ns3:atemp>
            <ns3:hr>111</ns3:hr>
          </ns3:TrackPointExtension>
        </extensions>
      </trkpt>
      <trkpt lat="46.6236039809882640838623046875" lon="6.88761259429156780242919921875">
        <ele>775.20001220703125</ele>
        <time>2013-08-15T17:13:21.000Z</time>
        <extensions>
          <ns3:TrackPointExtension>
            <ns3:atemp>18.0</ns3:atemp>
            <ns3:hr>111</ns3:hr>
          </ns3:TrackPointExtension>
        </extensions>
      </trkpt>
      <trkpt lat="46.62358939647674560546875" lon="6.88750396482646465301513671875">
        <ele>774.5999755859375</ele>
        <time>2013-08-15T17:13:22.000Z</time>
        <extensions>
          <ns3:TrackPointExtension>
            <ns3:atemp>18.0</ns3:atemp>
            <ns3:hr>111</ns3:hr>
          </ns3:TrackPointExtension>
        </extensions>
      </trkpt>
      <trkpt lat="46.6235728003084659576416015625" lon="6.887393407523632049560546875">
        <ele>774</ele>
        <time>2013-08-15T17:13:23.000Z</time>
        <extensions>
          <ns3:TrackPointExtension>
            <ns3:atemp>18.0</ns3:atemp>
            <ns3:hr>110</ns3:hr>
          </ns3:TrackPointExtension>
        </extensions>
      </trkpt>
      <trkpt lat="46.62355779670178890228271484375" lon="6.8872805871069431304931640625">
        <ele>772.79998779296875</ele>
        <time>2013-08-15T17:13:24.000Z</time>
        <extensions>
          <ns3:TrackPointExtension>
            <ns3:atemp>18.0</ns3:atemp>
            <ns3:hr>110</ns3:hr>
          </ns3:TrackPointExtension>
        </extensions>
      </trkpt>
      <trkpt lat="46.623543798923492431640625" lon="6.88717053271830081939697265625">
        <ele>772</ele>
        <time>2013-08-15T17:13:25.000Z</time>
        <extensions>
          <ns3:TrackPointExtension>
            <ns3:atemp>18.0</ns3:atemp>
            <ns3:hr>111</ns3:hr>
          </ns3:TrackPointExtension>
        </extensions>
      </trkpt>
      <trkpt lat="46.623532064259052276611328125" lon="6.88706290908157825469970703125">
        <ele>770.4000244140625</ele>
        <time>2013-08-15T17:13:26.000Z</time>
        <extensions>
          <ns3:TrackPointExtension>
            <ns3:atemp>18.0</ns3:atemp>
            <ns3:hr>111</ns3:hr>
          </ns3:TrackPointExtension>
        </extensions>
      </trkpt>
      <trkpt lat="46.623522005975246429443359375" lon="6.88695679418742656707763671875">
        <ele>769.79998779296875</ele>
        <time>2013-08-15T17:13:27.000Z</time>
        <extensions>
          <ns3:TrackPointExtension>
            <ns3:atemp>18.0</ns3:atemp>
            <ns3:hr>110</ns3:hr>
          </ns3:TrackPointExtension>
        </extensions>
      </trkpt>
      <trkpt lat="46.6235156357288360595703125" lon="6.88685260713100433349609375">
        <ele>768.5999755859375</ele>
        <time>2013-08-15T17:13:28.000Z</time>
        <extensions>
          <ns3:TrackPointExtension>
            <ns3:atemp>18.0</ns3:atemp>
            <ns3:hr>110</ns3:hr>
          </ns3:TrackPointExtension>
        </extensions>
      </trkpt>
      <trkpt lat="46.62351488135755062103271484375" lon="6.8867473304271697998046875">
        <ele>768</ele>
        <time>2013-08-15T17:13:29.000Z</time>
        <extensions>
          <ns3:TrackPointExtension>
            <ns3:atemp>18.0</ns3:atemp>
            <ns3:hr>110</ns3:hr>
          </ns3:TrackPointExtension>
        </extensions>
      </trkpt>
      <trkpt lat="46.62352007813751697540283203125" lon="6.88663878478109836578369140625">
        <ele>767.5999755859375</ele>
        <time>2013-08-15T17:13:30.000Z</time>
        <extensions>
          <ns3:TrackPointExtension>
            <ns3:atemp>18.0</ns3:atemp>
            <ns3:hr>110</ns3:hr>
          </ns3:TrackPointExtension>
        </extensions>
      </trkpt>
      <trkpt lat="46.62353214807808399200439453125" lon="6.88652462325990200042724609375">
        <ele>767.20001220703125</ele>
        <time>2013-08-15T17:13:31.000Z</time>
        <extensions>
          <ns3:TrackPointExtension>
            <ns3:atemp>18.0</ns3:atemp>
            <ns3:hr>109</ns3:hr>
          </ns3:TrackPointExtension>
        </extensions>
      </trkpt>
      <trkpt lat="46.6235503368079662322998046875" lon="6.8864035047590732574462890625">
        <ele>766.79998779296875</ele>
        <time>2013-08-15T17:13:32.000Z</time>
        <extensions>
          <ns3:TrackPointExtension>
            <ns3:atemp>18.0</ns3:atemp>
            <ns3:hr>109</ns3:hr>
          </ns3:TrackPointExtension>
        </extensions>
      </trkpt>
      <trkpt lat="46.62357204593718051910400390625" lon="6.88627459108829498291015625">
        <ele>766.20001220703125</ele>
        <time>2013-08-15T17:13:33.000Z</time>
        <extensions>
          <ns3:TrackPointExtension>
            <ns3:atemp>18.0</ns3:atemp>
            <ns3:hr>108</ns3:hr>
          </ns3:TrackPointExtension>
        </extensions>
      </trkpt>
      <trkpt lat="46.6235959343612194061279296875" lon="6.88613737933337688446044921875">
        <ele>765.20001220703125</ele>
        <time>2013-08-15T17:13:34.000Z</time>
        <extensions>
          <ns3:TrackPointExtension>
            <ns3:atemp>17.0</ns3:atemp>
            <ns3:hr>108</ns3:hr>
          </ns3:TrackPointExtension>
        </extensions>
      </trkpt>
      <trkpt lat="46.62362091243267059326171875" lon="6.88599907793104648590087890625">
        <ele>764.79998779296875</ele>
        <time>2013-08-15T17:13:35.000Z</time>
        <extensions>
          <ns3:TrackPointExtension>
            <ns3:atemp>17.0</ns3:atemp>
            <ns3:hr>108</ns3:hr>
          </ns3:TrackPointExtension>
        </extensions>
      </trkpt>
      <trkpt lat="46.62365368567407131195068359375" lon="6.88586630858480930328369140625">
        <ele>764.4000244140625</ele>
        <time>2013-08-15T17:13:36.000Z</time>
        <extensions>
          <ns3:TrackPointExtension>
            <ns3:atemp>17.0</ns3:atemp>
            <ns3:hr>108</ns3:hr>
          </ns3:TrackPointExtension>
        </extensions>
      </trkpt>
      <trkpt lat="46.62370045669376850128173828125" lon="6.88576136715710163116455078125">
        <ele>763.5999755859375</ele>
        <time>2013-08-15T17:13:37.000Z</time>
        <extensions>
          <ns3:TrackPointExtension>
            <ns3:atemp>17.0</ns3:atemp>
            <ns3:hr>107</ns3:hr>
          </ns3:TrackPointExtension>
        </extensions>
      </trkpt>
      <trkpt lat="46.623754687607288360595703125" lon="6.88566346652805805206298828125">
        <ele>762.79998779296875</ele>
        <time>2013-08-15T17:13:38.000Z</time>
        <extensions>
          <ns3:TrackPointExtension>
            <ns3:atemp>17.0</ns3:atemp>
            <ns3:hr>107</ns3:hr>
          </ns3:TrackPointExtension>
        </extensions>
      </trkpt>
      <trkpt lat="46.62381143309175968170166015625" lon="6.88557998277246952056884765625">
        <ele>762</ele>
        <time>2013-08-15T17:13:39.000Z</time>
        <extensions>
          <ns3:TrackPointExtension>
            <ns3:atemp>17.0</ns3:atemp>
            <ns3:hr>106</ns3:hr>
          </ns3:TrackPointExtension>
        </extensions>
      </trkpt>
      <trkpt lat="46.623865328729152679443359375" lon="6.88550479710102081298828125">
        <ele>761.5999755859375</ele>
        <time>2013-08-15T17:13:40.000Z</time>
        <extensions>
          <ns3:TrackPointExtension>
            <ns3:atemp>17.0</ns3:atemp>
            <ns3:hr>105</ns3:hr>
          </ns3:TrackPointExtension>
        </extensions>
      </trkpt>
      <trkpt lat="46.62391436286270618438720703125" lon="6.8854315392673015594482421875">
        <ele>761.20001220703125</ele>
        <time>2013-08-15T17:13:41.000Z</time>
        <extensions>
          <ns3:TrackPointExtension>
            <ns3:atemp>17.0</ns3:atemp>
            <ns3:hr>104</ns3:hr>
          </ns3:TrackPointExtension>
        </extensions>
      </trkpt>
      <trkpt lat="46.62395618855953216552734375" lon="6.88535618595778942108154296875">
        <ele>760.5999755859375</ele>
        <time>2013-08-15T17:13:42.000Z</time>
        <extensions>
          <ns3:TrackPointExtension>
            <ns3:atemp>17.0</ns3:atemp>
            <ns3:hr>104</ns3:hr>
          </ns3:TrackPointExtension>
        </extensions>
      </trkpt>
      <trkpt lat="46.62399566732347011566162109375" lon="6.88527789898216724395751953125">
        <ele>759.5999755859375</ele>
        <time>2013-08-15T17:13:43.000Z</time>
        <extensions>
          <ns3:TrackPointExtension>
            <ns3:atemp>17.0</ns3:atemp>
            <ns3:hr>103</ns3:hr>
          </ns3:TrackPointExtension>
        </extensions>
      </trkpt>
      <trkpt lat="46.62403573282063007354736328125" lon="6.88519860617816448211669921875">
        <ele>758.79998779296875</ele>
        <time>2013-08-15T17:13:44.000Z</time>
        <extensions>
          <ns3:TrackPointExtension>
            <ns3:atemp>17.0</ns3:atemp>
            <ns3:hr>103</ns3:hr>
          </ns3:TrackPointExtension>
        </extensions>
      </trkpt>
      <trkpt lat="46.6240757144987583160400390625" lon="6.88511813990771770477294921875">
        <ele>758</ele>
        <time>2013-08-15T17:13:45.000Z</time>
        <extensions>
          <ns3:TrackPointExtension>
            <ns3:atemp>17.0</ns3:atemp>
            <ns3:hr>103</ns3:hr>
          </ns3:TrackPointExtension>
        </extensions>
      </trkpt>
      <trkpt lat="46.624113433063030242919921875" lon="6.88502065837383270263671875">
        <ele>757.4000244140625</ele>
        <time>2013-08-15T17:13:46.000Z</time>
        <extensions>
          <ns3:TrackPointExtension>
            <ns3:atemp>17.0</ns3:atemp>
            <ns3:hr>103</ns3:hr>
          </ns3:TrackPointExtension>
        </extensions>
      </trkpt>
      <trkpt lat="46.62414788268506526947021484375" lon="6.884902976453304290771484375">
        <ele>756.5999755859375</ele>
        <time>2013-08-15T17:13:47.000Z</time>
        <extensions>
          <ns3:TrackPointExtension>
            <ns3:atemp>17.0</ns3:atemp>
            <ns3:hr>104</ns3:hr>
          </ns3:TrackPointExtension>
        </extensions>
      </trkpt>
      <trkpt lat="46.624179817736148834228515625" lon="6.88478085212409496307373046875">
        <ele>755.79998779296875</ele>
        <time>2013-08-15T17:13:48.000Z</time>
        <extensions>
          <ns3:TrackPointExtension>
            <ns3:atemp>17.0</ns3:atemp>
            <ns3:hr>104</ns3:hr>
          </ns3:TrackPointExtension>
        </extensions>
      </trkpt>
      <trkpt lat="46.62420588545501232147216796875" lon="6.8846637569367885589599609375">
        <ele>754.5999755859375</ele>
        <time>2013-08-15T17:13:49.000Z</time>
        <extensions>
          <ns3:TrackPointExtension>
            <ns3:atemp>17.0</ns3:atemp>
            <ns3:hr>103</ns3:hr>
          </ns3:TrackPointExtension>
        </extensions>
      </trkpt>
      <trkpt lat="46.62422181107103824615478515625" lon="6.88455437310039997100830078125">
        <ele>752.79998779296875</ele>
        <time>2013-08-15T17:13:50.000Z</time>
        <extensions>
          <ns3:TrackPointExtension>
            <ns3:atemp>17.0</ns3:atemp>
            <ns3:hr>103</ns3:hr>
          </ns3:TrackPointExtension>
        </extensions>
      </trkpt>
      <trkpt lat="46.62422063760459423065185546875" lon="6.88445345498621463775634765625">
        <ele>751</ele>
        <time>2013-08-15T17:13:51.000Z</time>
        <extensions>
          <ns3:TrackPointExtension>
            <ns3:atemp>17.0</ns3:atemp>
            <ns3:hr>103</ns3:hr>
          </ns3:TrackPointExtension>
        </extensions>
      </trkpt>
      <trkpt lat="46.6242212243378162384033203125" lon="6.88436293043196201324462890625">
        <ele>749.5999755859375</ele>
        <time>2013-08-15T17:13:52.000Z</time>
        <extensions>
          <ns3:TrackPointExtension>
            <ns3:atemp>17.0</ns3:atemp>
            <ns3:hr>102</ns3:hr>
          </ns3:TrackPointExtension>
        </extensions>
      </trkpt>
      <trkpt lat="46.62422315217554569244384765625" lon="6.88428363762795925140380859375">
        <ele>749</ele>
        <time>2013-08-15T17:13:53.000Z</time>
        <extensions>
          <ns3:TrackPointExtension>
            <ns3:atemp>17.0</ns3:atemp>
            <ns3:hr>103</ns3:hr>
          </ns3:TrackPointExtension>
        </extensions>
      </trkpt>
      <trkpt lat="46.62422834895551204681396484375" lon="6.8842126429080963134765625">
        <ele>748.79998779296875</ele>
        <time>2013-08-15T17:13:54.000Z</time>
        <extensions>
          <ns3:TrackPointExtension>
            <ns3:atemp>17.0</ns3:atemp>
            <ns3:hr>103</ns3:hr>
          </ns3:TrackPointExtension>
        </extensions>
      </trkpt>
      <trkpt lat="46.62423379719257354736328125" lon="6.88413443975150585174560546875">
        <ele>748.79998779296875</ele>
        <time>2013-08-15T17:13:55.000Z</time>
        <extensions>
          <ns3:TrackPointExtension>
            <ns3:atemp>17.0</ns3:atemp>
            <ns3:hr>103</ns3:hr>
          </ns3:TrackPointExtension>
        </extensions>
      </trkpt>
      <trkpt lat="46.624237485229969024658203125" lon="6.8840518780052661895751953125">
        <ele>748.79998779296875</ele>
        <time>2013-08-15T17:13:56.000Z</time>
        <extensions>
          <ns3:TrackPointExtension>
            <ns3:atemp>17.0</ns3:atemp>
            <ns3:hr>104</ns3:hr>
          </ns3:TrackPointExtension>
        </extensions>
      </trkpt>
      <trkpt lat="46.6242423467338085174560546875" lon="6.8839704059064388275146484375">
        <ele>748.79998779296875</ele>
        <time>2013-08-15T17:13:57.000Z</time>
        <extensions>
          <ns3:TrackPointExtension>
            <ns3:atemp>17.0</ns3:atemp>
            <ns3:hr>106</ns3:hr>
          </ns3:TrackPointExtension>
        </extensions>
      </trkpt>
      <trkpt lat="46.62424779497087001800537109375" lon="6.88388876616954803466796875">
        <ele>749</ele>
        <time>2013-08-15T17:13:58.000Z</time>
        <extensions>
          <ns3:TrackPointExtension>
            <ns3:atemp>17.0</ns3:atemp>
            <ns3:hr>107</ns3:hr>
          </ns3:TrackPointExtension>
        </extensions>
      </trkpt>
      <trkpt lat="46.6242584399878978729248046875" lon="6.88381257466971874237060546875">
        <ele>749.20001220703125</ele>
        <time>2013-08-15T17:13:59.000Z</time>
        <extensions>
          <ns3:TrackPointExtension>
            <ns3:atemp>17.0</ns3:atemp>
            <ns3:hr>108</ns3:hr>
          </ns3:TrackPointExtension>
        </extensions>
      </trkpt>
      <trkpt lat="46.6242735274136066436767578125" lon="6.88374065794050693511962890625">
        <ele>749.20001220703125</ele>
        <time>2013-08-15T17:14:00.000Z</time>
        <extensions>
          <ns3:TrackPointExtension>
            <ns3:atemp>17.0</ns3:atemp>
            <ns3:hr>109</ns3:hr>
          </ns3:TrackPointExtension>
        </extensions>
      </trkpt>
      <trkpt lat="46.624297834932804107666015625" lon="6.8836800567805767059326171875">
        <ele>749.4000244140625</ele>
        <time>2013-08-15T17:14:01.000Z</time>
        <extensions>
          <ns3:TrackPointExtension>
            <ns3:atemp>17.0</ns3:atemp>
            <ns3:hr>108</ns3:hr>
          </ns3:TrackPointExtension>
        </extensions>
      </trkpt>
      <trkpt lat="46.62433329038321971893310546875" lon="6.88364191912114620208740234375">
        <ele>749.4000244140625</ele>
        <time>2013-08-15T17:14:02.000Z</time>
        <extensions>
          <ns3:TrackPointExtension>
            <ns3:atemp>17.0</ns3:atemp>
            <ns3:hr>107</ns3:hr>
          </ns3:TrackPointExtension>
        </extensions>
      </trkpt>
      <trkpt lat="46.6243794746696949005126953125" lon="6.88362129963934421539306640625">
        <ele>749.5999755859375</ele>
        <time>2013-08-15T17:14:03.000Z</time>
        <extensions>
          <ns3:TrackPointExtension>
            <ns3:atemp>17.0</ns3:atemp>
            <ns3:hr>106</ns3:hr>
          </ns3:TrackPointExtension>
        </extensions>
      </trkpt>
      <trkpt lat="46.6244304366409778594970703125" lon="6.8836133368313312530517578125">
        <ele>749.5999755859375</ele>
        <time>2013-08-15T17:14:04.000Z</time>
        <extensions>
          <ns3:TrackPointExtension>
            <ns3:atemp>17.0</ns3:atemp>
            <ns3:hr>106</ns3:hr>
          </ns3:TrackPointExtension>
        </extensions>
      </trkpt>
      <trkpt lat="46.624482907354831695556640625" lon="6.88360906206071376800537109375">
        <ele>749.4000244140625</ele>
        <time>2013-08-15T17:14:05.000Z</time>
        <extensions>
          <ns3:TrackPointExtension>
            <ns3:atemp>17.0</ns3:atemp>
            <ns3:hr>106</ns3:hr>
          </ns3:TrackPointExtension>
        </extensions>
      </trkpt>
      <trkpt lat="46.62453780882060527801513671875" lon="6.88360855914652347564697265625">
        <ele>749</ele>
        <time>2013-08-15T17:14:06.000Z</time>
        <extensions>
          <ns3:TrackPointExtension>
            <ns3:atemp>17.0</ns3:atemp>
            <ns3:hr>106</ns3:hr>
          </ns3:TrackPointExtension>
        </extensions>
      </trkpt>
      <trkpt lat="46.624600589275360107421875" lon="6.88362113200128078460693359375">
        <ele>748.79998779296875</ele>
        <time>2013-08-15T17:14:07.000Z</time>
        <extensions>
          <ns3:TrackPointExtension>
            <ns3:atemp>17.0</ns3:atemp>
            <ns3:hr>107</ns3:hr>
          </ns3:TrackPointExtension>
        </extensions>
      </trkpt>
      <trkpt lat="46.6246637888252735137939453125" lon="6.8836438469588756561279296875">
        <ele>748.4000244140625</ele>
        <time>2013-08-15T17:14:08.000Z</time>
        <extensions>
          <ns3:TrackPointExtension>
            <ns3:atemp>17.0</ns3:atemp>
            <ns3:hr>108</ns3:hr>
          </ns3:TrackPointExtension>
        </extensions>
      </trkpt>
      <trkpt lat="46.62472556345164775848388671875" lon="6.88367092050611972808837890625">
        <ele>748.20001220703125</ele>
        <time>2013-08-15T17:14:09.000Z</time>
        <extensions>
          <ns3:TrackPointExtension>
            <ns3:atemp>17.0</ns3:atemp>
            <ns3:hr>108</ns3:hr>
          </ns3:TrackPointExtension>
        </extensions>
      </trkpt>
      <trkpt lat="46.62478926591575145721435546875" lon="6.88370293937623500823974609375">
        <ele>748.20001220703125</ele>
        <time>2013-08-15T17:14:10.000Z</time>
        <extensions>
          <ns3:TrackPointExtension>
            <ns3:atemp>17.0</ns3:atemp>
            <ns3:hr>109</ns3:hr>
          </ns3:TrackPointExtension>
        </extensions>
      </trkpt>
      <trkpt lat="46.62485196255147457122802734375" lon="6.883733533322811126708984375">
        <ele>748</ele>
        <time>2013-08-15T17:14:11.000Z</time>
        <extensions>
          <ns3:TrackPointExtension>
            <ns3:atemp>17.0</ns3:atemp>
            <ns3:hr>110</ns3:hr>
          </ns3:TrackPointExtension>
        </extensions>
      </trkpt>
      <trkpt lat="46.62491247989237308502197265625" lon="6.88377083279192447662353515625">
        <ele>747.79998779296875</ele>
        <time>2013-08-15T17:14:12.000Z</time>
        <extensions>
          <ns3:TrackPointExtension>
            <ns3:atemp>17.0</ns3:atemp>
            <ns3:hr>110</ns3:hr>
          </ns3:TrackPointExtension>
        </extensions>
      </trkpt>
      <trkpt lat="46.6249749250710010528564453125" lon="6.88381089828908443450927734375">
        <ele>747.79998779296875</ele>
        <time>2013-08-15T17:14:13.000Z</time>
        <extensions>
          <ns3:TrackPointExtension>
            <ns3:atemp>17.0</ns3:atemp>
            <ns3:hr>110</ns3:hr>
          </ns3:TrackPointExtension>
        </extensions>
      </trkpt>
      <trkpt lat="46.62503904663026332855224609375" lon="6.8838503770530223846435546875">
        <ele>748</ele>
        <time>2013-08-15T17:14:14.000Z</time>
        <extensions>
          <ns3:TrackPointExtension>
            <ns3:atemp>17.0</ns3:atemp>
            <ns3:hr>111</ns3:hr>
          </ns3:TrackPointExtension>
        </extensions>
      </trkpt>
      <trkpt lat="46.6251053474843502044677734375" lon="6.88389019109308719635009765625">
        <ele>747.79998779296875</ele>
        <time>2013-08-15T17:14:15.000Z</time>
        <extensions>
          <ns3:TrackPointExtension>
            <ns3:atemp>17.0</ns3:atemp>
            <ns3:hr>111</ns3:hr>
          </ns3:TrackPointExtension>
        </extensions>
      </trkpt>
      <trkpt lat="46.625169217586517333984375" lon="6.8839248083531856536865234375">
        <ele>747.79998779296875</ele>
        <time>2013-08-15T17:14:16.000Z</time>
        <extensions>
          <ns3:TrackPointExtension>
            <ns3:atemp>17.0</ns3:atemp>
            <ns3:hr>112</ns3:hr>
          </ns3:TrackPointExtension>
        </extensions>
      </trkpt>
      <trkpt lat="46.62522948347032070159912109375" lon="6.88395607285201549530029296875">
        <ele>747.20001220703125</ele>
        <time>2013-08-15T17:14:17.000Z</time>
        <extensions>
          <ns3:TrackPointExtension>
            <ns3:atemp>17.0</ns3:atemp>
            <ns3:hr>111</ns3:hr>
          </ns3:TrackPointExtension>
        </extensions>
      </trkpt>
      <trkpt lat="46.6252858936786651611328125" lon="6.88398742116987705230712890625">
        <ele>747</ele>
        <time>2013-08-15T17:14:18.000Z</time>
        <extensions>
          <ns3:TrackPointExtension>
            <ns3:atemp>17.0</ns3:atemp>
            <ns3:hr>111</ns3:hr>
          </ns3:TrackPointExtension>
        </extensions>
      </trkpt>
      <trkpt lat="46.62533962167799472808837890625" lon="6.8840170092880725860595703125">
        <ele>746.5999755859375</ele>
        <time>2013-08-15T17:14:19.000Z</time>
        <extensions>
          <ns3:TrackPointExtension>
            <ns3:atemp>17.0</ns3:atemp>
            <ns3:hr>112</ns3:hr>
          </ns3:TrackPointExtension>
        </extensions>
      </trkpt>
      <trkpt lat="46.6253933496773242950439453125" lon="6.88404425047338008880615234375">
        <ele>746.5999755859375</ele>
        <time>2013-08-15T17:14:20.000Z</time>
        <extensions>
          <ns3:TrackPointExtension>
            <ns3:atemp>17.0</ns3:atemp>
            <ns3:hr>112</ns3:hr>
          </ns3:TrackPointExtension>
        </extensions>
      </trkpt>
      <trkpt lat="46.6254469938576221466064453125" lon="6.8840736709535121917724609375">
        <ele>746.4000244140625</ele>
        <time>2013-08-15T17:14:21.000Z</time>
        <extensions>
          <ns3:TrackPointExtension>
            <ns3:atemp>17.0</ns3:atemp>
            <ns3:hr>112</ns3:hr>
          </ns3:TrackPointExtension>
        </extensions>
      </trkpt>
      <trkpt lat="46.62550206296145915985107421875" lon="6.884105689823627471923828125">
        <ele>746.20001220703125</ele>
        <time>2013-08-15T17:14:22.000Z</time>
        <extensions>
          <ns3:TrackPointExtension>
            <ns3:atemp>17.0</ns3:atemp>
            <ns3:hr>113</ns3:hr>
          </ns3:TrackPointExtension>
        </extensions>
      </trkpt>
      <trkpt lat="46.62555755116045475006103515625" lon="6.88413728959858417510986328125">
        <ele>745.79998779296875</ele>
        <time>2013-08-15T17:14:23.000Z</time>
        <extensions>
          <ns3:TrackPointExtension>
            <ns3:atemp>17.0</ns3:atemp>
            <ns3:hr>113</ns3:hr>
          </ns3:TrackPointExtension>
        </extensions>
      </trkpt>
      <trkpt lat="46.6256112791597843170166015625" lon="6.88417249359190464019775390625">
        <ele>745.79998779296875</ele>
        <time>2013-08-15T17:14:24.000Z</time>
        <extensions>
          <ns3:TrackPointExtension>
            <ns3:atemp>17.0</ns3:atemp>
            <ns3:hr>113</ns3:hr>
          </ns3:TrackPointExtension>
        </extensions>
      </trkpt>
      <trkpt lat="46.62566341459751129150390625" lon="6.884208284318447113037109375">
        <ele>745.79998779296875</ele>
        <time>2013-08-15T17:14:25.000Z</time>
        <extensions>
          <ns3:TrackPointExtension>
            <ns3:atemp>17.0</ns3:atemp>
            <ns3:hr>114</ns3:hr>
          </ns3:TrackPointExtension>
        </extensions>
      </trkpt>
      <trkpt lat="46.6257158853113651275634765625" lon="6.88424843363463878631591796875">
        <ele>745.79998779296875</ele>
        <time>2013-08-15T17:14:26.000Z</time>
        <extensions>
          <ns3:TrackPointExtension>
            <ns3:atemp>17.0</ns3:atemp>
            <ns3:hr>114</ns3:hr>
          </ns3:TrackPointExtension>
        </extensions>
      </trkpt>
      <trkpt lat="46.6257695294916629791259765625" lon="6.8842899240553379058837890625">
        <ele>745.5999755859375</ele>
        <time>2013-08-15T17:14:27.000Z</time>
        <extensions>
          <ns3:TrackPointExtension>
            <ns3:atemp>17.0</ns3:atemp>
            <ns3:hr>115</ns3:hr>
          </ns3:TrackPointExtension>
        </extensions>
      </trkpt>
      <trkpt lat="46.62582443095743656158447265625" lon="6.88432822935283184051513671875">
        <ele>745.4000244140625</ele>
        <time>2013-08-15T17:14:28.000Z</time>
        <extensions>
          <ns3:TrackPointExtension>
            <ns3:atemp>17.0</ns3:atemp>
            <ns3:hr>115</ns3:hr>
          </ns3:TrackPointExtension>
        </extensions>
      </trkpt>
      <trkpt lat="46.62588109262287616729736328125" lon="6.88436485826969146728515625">
        <ele>745.20001220703125</ele>
        <time>2013-08-15T17:14:29.000Z</time>
        <extensions>
          <ns3:TrackPointExtension>
            <ns3:atemp>17.0</ns3:atemp>
            <ns3:hr>116</ns3:hr>
          </ns3:TrackPointExtension>
        </extensions>
      </trkpt>
      <trkpt lat="46.6259368322789669036865234375" lon="6.88440375030040740966796875">
        <ele>744.79998779296875</ele>
        <time>2013-08-15T17:14:30.000Z</time>
        <extensions>
          <ns3:TrackPointExtension>
            <ns3:atemp>17.0</ns3:atemp>
            <ns3:hr>116</ns3:hr>
          </ns3:TrackPointExtension>
        </extensions>
      </trkpt>
      <trkpt lat="46.62599123083055019378662109375" lon="6.88444389961659908294677734375">
        <ele>744.5999755859375</ele>
        <time>2013-08-15T17:14:31.000Z</time>
        <extensions>
          <ns3:TrackPointExtension>
            <ns3:atemp>17.0</ns3:atemp>
            <ns3:hr>117</ns3:hr>
          </ns3:TrackPointExtension>
        </extensions>
      </trkpt>
      <trkpt lat="46.626044623553752899169921875" lon="6.8844847194850444793701171875">
        <ele>744.4000244140625</ele>
        <time>2013-08-15T17:14:32.000Z</time>
        <extensions>
          <ns3:TrackPointExtension>
            <ns3:atemp>17.0</ns3:atemp>
            <ns3:hr>117</ns3:hr>
          </ns3:TrackPointExtension>
        </extensions>
      </trkpt>
      <trkpt lat="46.62609583698213100433349609375" lon="6.88452805392444133758544921875">
        <ele>744.5999755859375</ele>
        <time>2013-08-15T17:14:33.000Z</time>
        <extensions>
          <ns3:TrackPointExtension>
            <ns3:atemp>17.0</ns3:atemp>
            <ns3:hr>117</ns3:hr>
          </ns3:TrackPointExtension>
        </extensions>
      </trkpt>
      <trkpt lat="46.6261450387537479400634765625" lon="6.8845557980239391326904296875">
        <ele>744.4000244140625</ele>
        <time>2013-08-15T17:14:34.000Z</time>
        <extensions>
          <ns3:TrackPointExtension>
            <ns3:atemp>17.0</ns3:atemp>
            <ns3:hr>116</ns3:hr>
          </ns3:TrackPointExtension>
        </extensions>
      </trkpt>
      <trkpt lat="46.62619315087795257568359375" lon="6.88456845469772815704345703125">
        <ele>744.4000244140625</ele>
        <time>2013-08-15T17:14:35.000Z</time>
        <extensions>
          <ns3:TrackPointExtension>
            <ns3:atemp>17.0</ns3:atemp>
            <ns3:hr>116</ns3:hr>
          </ns3:TrackPointExtension>
        </extensions>
      </trkpt>
      <trkpt lat="46.6262298636138439178466796875" lon="6.88455521129071712493896484375">
        <ele>743.79998779296875</ele>
        <time>2013-08-15T17:14:36.000Z</time>
        <extensions>
          <ns3:TrackPointExtension>
            <ns3:atemp>17.0</ns3:atemp>
            <ns3:hr>116</ns3:hr>
          </ns3:TrackPointExtension>
        </extensions>
      </trkpt>
      <trkpt lat="46.62625744007527828216552734375" lon="6.88450701534748077392578125">
        <ele>743.5999755859375</ele>
        <time>2013-08-15T17:14:37.000Z</time>
        <extensions>
          <ns3:TrackPointExtension>
            <ns3:atemp>17.0</ns3:atemp>
            <ns3:hr>115</ns3:hr>
          </ns3:TrackPointExtension>
        </extensions>
      </trkpt>
      <trkpt lat="46.6262809932231903076171875" lon="6.88443736173212528228759765625">
        <ele>743.4000244140625</ele>
        <time>2013-08-15T17:14:38.000Z</time>
        <extensions>
          <ns3:TrackPointExtension>
            <ns3:atemp>17.0</ns3:atemp>
            <ns3:hr>116</ns3:hr>
          </ns3:TrackPointExtension>
        </extensions>
      </trkpt>
      <trkpt lat="46.62630588747560977935791015625" lon="6.88436058349907398223876953125">
        <ele>743.5999755859375</ele>
        <time>2013-08-15T17:14:39.000Z</time>
        <extensions>
          <ns3:TrackPointExtension>
            <ns3:atemp>17.0</ns3:atemp>
            <ns3:hr>116</ns3:hr>
          </ns3:TrackPointExtension>
        </extensions>
      </trkpt>
      <trkpt lat="46.62633539177477359771728515625" lon="6.8842895887792110443115234375">
        <ele>743.5999755859375</ele>
        <time>2013-08-15T17:14:40.000Z</time>
        <extensions>
          <ns3:TrackPointExtension>
            <ns3:atemp>17.0</ns3:atemp>
            <ns3:hr>117</ns3:hr>
          </ns3:TrackPointExtension>
        </extensions>
      </trkpt>
      <trkpt lat="46.6263730265200138092041015625" lon="6.88422949053347110748291015625">
        <ele>744</ele>
        <time>2013-08-15T17:14:41.000Z</time>
        <extensions>
          <ns3:TrackPointExtension>
            <ns3:atemp>17.0</ns3:atemp>
            <ns3:hr>117</ns3:hr>
          </ns3:TrackPointExtension>
        </extensions>
      </trkpt>
      <trkpt lat="46.6264139302074909210205078125" lon="6.88418456353247165679931640625">
        <ele>744.20001220703125</ele>
        <time>2013-08-15T17:14:42.000Z</time>
        <extensions>
          <ns3:TrackPointExtension>
            <ns3:atemp>17.0</ns3:atemp>
            <ns3:hr>118</ns3:hr>
          </ns3:TrackPointExtension>
        </extensions>
      </trkpt>
      <trkpt lat="46.62645810283720493316650390625" lon="6.884151287376880645751953125">
        <ele>744.5999755859375</ele>
        <time>2013-08-15T17:14:43.000Z</time>
        <extensions>
          <ns3:TrackPointExtension>
            <ns3:atemp>17.0</ns3:atemp>
            <ns3:hr>119</ns3:hr>
          </ns3:TrackPointExtension>
        </extensions>
      </trkpt>
      <trkpt lat="46.62650160491466522216796875" lon="6.88412907533347606658935546875">
        <ele>744.79998779296875</ele>
        <time>2013-08-15T17:14:44.000Z</time>
        <extensions>
          <ns3:TrackPointExtension>
            <ns3:atemp>17.0</ns3:atemp>
            <ns3:hr>119</ns3:hr>
          </ns3:TrackPointExtension>
        </extensions>
      </trkpt>
      <trkpt lat="46.62654594518244266510009765625" lon="6.884123794734477996826171875">
        <ele>745.20001220703125</ele>
        <time>2013-08-15T17:14:45.000Z</time>
        <extensions>
          <ns3:TrackPointExtension>
            <ns3:atemp>17.0</ns3:atemp>
            <ns3:hr>120</ns3:hr>
          </ns3:TrackPointExtension>
        </extensions>
      </trkpt>
      <trkpt lat="46.62659606896340847015380859375" lon="6.8841348588466644287109375">
        <ele>745.20001220703125</ele>
        <time>2013-08-15T17:14:46.000Z</time>
        <extensions>
          <ns3:TrackPointExtension>
            <ns3:atemp>17.0</ns3:atemp>
            <ns3:hr>121</ns3:hr>
          </ns3:TrackPointExtension>
        </extensions>
      </trkpt>
      <trkpt lat="46.62664887495338916778564453125" lon="6.88415874727070331573486328125">
        <ele>745.20001220703125</ele>
        <time>2013-08-15T17:14:47.000Z</time>
        <extensions>
          <ns3:TrackPointExtension>
            <ns3:atemp>17.0</ns3:atemp>
            <ns3:hr>122</ns3:hr>
          </ns3:TrackPointExtension>
        </extensions>
      </trkpt>
      <trkpt lat="46.6267009265720844268798828125" lon="6.884186156094074249267578125">
        <ele>745.20001220703125</ele>
        <time>2013-08-15T17:14:48.000Z</time>
        <extensions>
          <ns3:TrackPointExtension>
            <ns3:atemp>17.0</ns3:atemp>
            <ns3:hr>123</ns3:hr>
          </ns3:TrackPointExtension>
        </extensions>
      </trkpt>
      <trkpt lat="46.6267522238194942474365234375" lon="6.8842121399939060211181640625">
        <ele>745.4000244140625</ele>
        <time>2013-08-15T17:14:49.000Z</time>
        <extensions>
          <ns3:TrackPointExtension>
            <ns3:atemp>17.0</ns3:atemp>
            <ns3:hr>123</ns3:hr>
          </ns3:TrackPointExtension>
        </extensions>
      </trkpt>
      <trkpt lat="46.62680377252399921417236328125" lon="6.88423703424632549285888671875">
        <ele>745.5999755859375</ele>
        <time>2013-08-15T17:14:50.000Z</time>
        <extensions>
          <ns3:TrackPointExtension>
            <ns3:atemp>17.0</ns3:atemp>
            <ns3:hr>124</ns3:hr>
          </ns3:TrackPointExtension>
        </extensions>
      </trkpt>
      <trkpt lat="46.62685607559978961944580078125" lon="6.88426050357520580291748046875">
        <ele>745.5999755859375</ele>
        <time>2013-08-15T17:14:51.000Z</time>
        <extensions>
          <ns3:TrackPointExtension>
            <ns3:atemp>17.0</ns3:atemp>
            <ns3:hr>124</ns3:hr>
          </ns3:TrackPointExtension>
        </extensions>
      </trkpt>
      <trkpt lat="46.62690787576138973236083984375" lon="6.88428279943764209747314453125">
        <ele>745.5999755859375</ele>
        <time>2013-08-15T17:14:52.000Z</time>
        <extensions>
          <ns3:TrackPointExtension>
            <ns3:atemp>17.0</ns3:atemp>
            <ns3:hr>125</ns3:hr>
          </ns3:TrackPointExtension>
        </extensions>
      </trkpt>
      <trkpt lat="46.62696168757975101470947265625" lon="6.88430610112845897674560546875">
        <ele>745.5999755859375</ele>
        <time>2013-08-15T17:14:53.000Z</time>
        <extensions>
          <ns3:TrackPointExtension>
            <ns3:atemp>17.0</ns3:atemp>
            <ns3:hr>125</ns3:hr>
          </ns3:TrackPointExtension>
        </extensions>
      </trkpt>
      <trkpt lat="46.62701432593166828155517578125" lon="6.88433267176151275634765625">
        <ele>745.79998779296875</ele>
        <time>2013-08-15T17:14:54.000Z</time>
        <extensions>
          <ns3:TrackPointExtension>
            <ns3:atemp>17.0</ns3:atemp>
            <ns3:hr>125</ns3:hr>
          </ns3:TrackPointExtension>
        </extensions>
      </trkpt>
      <trkpt lat="46.62706763483583927154541015625" lon="6.8843601644039154052734375">
        <ele>745.79998779296875</ele>
        <time>2013-08-15T17:14:55.000Z</time>
        <extensions>
          <ns3:TrackPointExtension>
            <ns3:atemp>17.0</ns3:atemp>
            <ns3:hr>126</ns3:hr>
          </ns3:TrackPointExtension>
        </extensions>
      </trkpt>
      <trkpt lat="46.6271232068538665771484375" lon="6.88438899815082550048828125">
        <ele>745.5999755859375</ele>
        <time>2013-08-15T17:14:56.000Z</time>
        <extensions>
          <ns3:TrackPointExtension>
            <ns3:atemp>17.0</ns3:atemp>
            <ns3:hr>126</ns3:hr>
          </ns3:TrackPointExtension>
        </extensions>
      </trkpt>
      <trkpt lat="46.62718062289059162139892578125" lon="6.88441850244998931884765625">
        <ele>745.5999755859375</ele>
        <time>2013-08-15T17:14:57.000Z</time>
        <extensions>
          <ns3:TrackPointExtension>
            <ns3:atemp>17.0</ns3:atemp>
            <ns3:hr>127</ns3:hr>
          </ns3:TrackPointExtension>
        </extensions>
      </trkpt>
      <trkpt lat="46.62724063731729984283447265625" lon="6.88444666564464569091796875">
        <ele>745.5999755859375</ele>
        <time>2013-08-15T17:14:58.000Z</time>
        <extensions>
          <ns3:TrackPointExtension>
            <ns3:atemp>17.0</ns3:atemp>
            <ns3:hr>127</ns3:hr>
          </ns3:TrackPointExtension>
        </extensions>
      </trkpt>
      <trkpt lat="46.62730232812464237213134765625" lon="6.884474493563175201416015625">
        <ele>745.5999755859375</ele>
        <time>2013-08-15T17:14:59.000Z</time>
        <extensions>
          <ns3:TrackPointExtension>
            <ns3:atemp>17.0</ns3:atemp>
            <ns3:hr>127</ns3:hr>
          </ns3:TrackPointExtension>
        </extensions>
      </trkpt>
      <trkpt lat="46.627363264560699462890625" lon="6.88450559042394161224365234375">
        <ele>745.4000244140625</ele>
        <time>2013-08-15T17:15:00.000Z</time>
        <extensions>
          <ns3:TrackPointExtension>
            <ns3:atemp>17.0</ns3:atemp>
            <ns3:hr>127</ns3:hr>
          </ns3:TrackPointExtension>
        </extensions>
      </trkpt>
      <trkpt lat="46.6274214349687099456787109375" lon="6.88453895039856433868408203125">
        <ele>745.20001220703125</ele>
        <time>2013-08-15T17:15:01.000Z</time>
        <extensions>
          <ns3:TrackPointExtension>
            <ns3:atemp>17.0</ns3:atemp>
            <ns3:hr>128</ns3:hr>
          </ns3:TrackPointExtension>
        </extensions>
      </trkpt>
      <trkpt lat="46.62747834809124469757080078125" lon="6.88457348383963108062744140625">
        <ele>745</ele>
        <time>2013-08-15T17:15:02.000Z</time>
        <extensions>
          <ns3:TrackPointExtension>
            <ns3:atemp>17.0</ns3:atemp>
            <ns3:hr>128</ns3:hr>
          </ns3:TrackPointExtension>
        </extensions>
      </trkpt>
      <trkpt lat="46.62753635086119174957275390625" lon="6.88461162149906158447265625">
        <ele>745</ele>
        <time>2013-08-15T17:15:03.000Z</time>
        <extensions>
          <ns3:TrackPointExtension>
            <ns3:atemp>17.0</ns3:atemp>
            <ns3:hr>128</ns3:hr>
          </ns3:TrackPointExtension>
        </extensions>
      </trkpt>
      <trkpt lat="46.62759401835501194000244140625" lon="6.88464774750173091888427734375">
        <ele>745</ele>
        <time>2013-08-15T17:15:04.000Z</time>
        <extensions>
          <ns3:TrackPointExtension>
            <ns3:atemp>17.0</ns3:atemp>
            <ns3:hr>128</ns3:hr>
          </ns3:TrackPointExtension>
        </extensions>
      </trkpt>
      <trkpt lat="46.627651937305927276611328125" lon="6.884682364761829376220703125">
        <ele>744.79998779296875</ele>
        <time>2013-08-15T17:15:05.000Z</time>
        <extensions>
          <ns3:TrackPointExtension>
            <ns3:atemp>17.0</ns3:atemp>
            <ns3:hr>128</ns3:hr>
          </ns3:TrackPointExtension>
        </extensions>
      </trkpt>
      <trkpt lat="46.6277121193706989288330078125" lon="6.88471346162259578704833984375">
        <ele>745</ele>
        <time>2013-08-15T17:15:06.000Z</time>
        <extensions>
          <ns3:TrackPointExtension>
            <ns3:atemp>17.0</ns3:atemp>
            <ns3:hr>128</ns3:hr>
          </ns3:TrackPointExtension>
        </extensions>
      </trkpt>
      <trkpt lat="46.62777305580675601959228515625" lon="6.88474439084529876708984375">
        <ele>745</ele>
        <time>2013-08-15T17:15:07.000Z</time>
        <extensions>
          <ns3:TrackPointExtension>
            <ns3:atemp>17.0</ns3:atemp>
            <ns3:hr>127</ns3:hr>
          </ns3:TrackPointExtension>
        </extensions>
      </trkpt>
      <trkpt lat="46.62783105857670307159423828125" lon="6.8847750686109066009521484375">
        <ele>745</ele>
        <time>2013-08-15T17:15:08.000Z</time>
        <extensions>
          <ns3:TrackPointExtension>
            <ns3:atemp>17.0</ns3:atemp>
            <ns3:hr>128</ns3:hr>
          </ns3:TrackPointExtension>
        </extensions>
      </trkpt>
      <trkpt lat="46.62788487039506435394287109375" lon="6.884800381958484649658203125">
        <ele>745.20001220703125</ele>
        <time>2013-08-15T17:15:09.000Z</time>
        <extensions>
          <ns3:TrackPointExtension>
            <ns3:atemp>17.0</ns3:atemp>
            <ns3:hr>128</ns3:hr>
          </ns3:TrackPointExtension>
        </extensions>
      </trkpt>
      <trkpt lat="46.62793801166117191314697265625" lon="6.88482192344963550567626953125">
        <ele>745.4000244140625</ele>
        <time>2013-08-15T17:15:10.000Z</time>
        <extensions>
          <ns3:TrackPointExtension>
            <ns3:atemp>17.0</ns3:atemp>
            <ns3:hr>128</ns3:hr>
          </ns3:TrackPointExtension>
        </extensions>
      </trkpt>
      <trkpt lat="46.62799182347953319549560546875" lon="6.88484338112175464630126953125">
        <ele>745.4000244140625</ele>
        <time>2013-08-15T17:15:11.000Z</time>
        <extensions>
          <ns3:TrackPointExtension>
            <ns3:atemp>17.0</ns3:atemp>
            <ns3:hr>128</ns3:hr>
          </ns3:TrackPointExtension>
        </extensions>
      </trkpt>
      <trkpt lat="46.6280472278594970703125" lon="6.8848605640232563018798828125">
        <ele>745.4000244140625</ele>
        <time>2013-08-15T17:15:12.000Z</time>
        <extensions>
          <ns3:TrackPointExtension>
            <ns3:atemp>17.0</ns3:atemp>
            <ns3:hr>129</ns3:hr>
          </ns3:TrackPointExtension>
        </extensions>
      </trkpt>
      <trkpt lat="46.62810380570590496063232421875" lon="6.88487305305898189544677734375">
        <ele>745.4000244140625</ele>
        <time>2013-08-15T17:15:13.000Z</time>
        <extensions>
          <ns3:TrackPointExtension>
            <ns3:atemp>17.0</ns3:atemp>
            <ns3:hr>129</ns3:hr>
          </ns3:TrackPointExtension>
        </extensions>
      </trkpt>
      <trkpt lat="46.62815979681909084320068359375" lon="6.8848867155611515045166015625">
        <ele>745.5999755859375</ele>
        <time>2013-08-15T17:15:14.000Z</time>
        <extensions>
          <ns3:TrackPointExtension>
            <ns3:atemp>17.0</ns3:atemp>
            <ns3:hr>129</ns3:hr>
          </ns3:TrackPointExtension>
        </extensions>
      </trkpt>
      <trkpt lat="46.62821863777935504913330078125" lon="6.884899623692035675048828125">
        <ele>745.79998779296875</ele>
        <time>2013-08-15T17:15:15.000Z</time>
        <extensions>
          <ns3:TrackPointExtension>
            <ns3:atemp>17.0</ns3:atemp>
            <ns3:hr>130</ns3:hr>
          </ns3:TrackPointExtension>
        </extensions>
      </trkpt>
      <trkpt lat="46.6282740421593189239501953125" lon="6.884917058050632476806640625">
        <ele>746</ele>
        <time>2013-08-15T17:15:16.000Z</time>
        <extensions>
          <ns3:TrackPointExtension>
            <ns3:atemp>17.0</ns3:atemp>
            <ns3:hr>130</ns3:hr>
          </ns3:TrackPointExtension>
        </extensions>
      </trkpt>
      <trkpt lat="46.62832927890121936798095703125" lon="6.88494463451206684112548828125">
        <ele>745.79998779296875</ele>
        <time>2013-08-15T17:15:17.000Z</time>
        <extensions>
          <ns3:TrackPointExtension>
            <ns3:atemp>17.0</ns3:atemp>
            <ns3:hr>131</ns3:hr>
          </ns3:TrackPointExtension>
        </extensions>
      </trkpt>
      <trkpt lat="46.62838493473827838897705078125" lon="6.88497967086732387542724609375">
        <ele>746</ele>
        <time>2013-08-15T17:15:18.000Z</time>
        <extensions>
          <ns3:TrackPointExtension>
            <ns3:atemp>17.0</ns3:atemp>
            <ns3:hr>131</ns3:hr>
          </ns3:TrackPointExtension>
        </extensions>
      </trkpt>
      <trkpt lat="46.62843857891857624053955078125" lon="6.88502258621156215667724609375">
        <ele>746</ele>
        <time>2013-08-15T17:15:19.000Z</time>
        <extensions>
          <ns3:TrackPointExtension>
            <ns3:atemp>17.0</ns3:atemp>
            <ns3:hr>131</ns3:hr>
          </ns3:TrackPointExtension>
        </extensions>
      </trkpt>
      <trkpt lat="46.62849155254662036895751953125" lon="6.8850670941174030303955078125">
        <ele>746</ele>
        <time>2013-08-15T17:15:20.000Z</time>
        <extensions>
          <ns3:TrackPointExtension>
            <ns3:atemp>17.0</ns3:atemp>
            <ns3:hr>132</ns3:hr>
          </ns3:TrackPointExtension>
        </extensions>
      </trkpt>
      <trkpt lat="46.6285402514040470123291015625" lon="6.8851133622229099273681640625">
        <ele>746</ele>
        <time>2013-08-15T17:15:21.000Z</time>
        <extensions>
          <ns3:TrackPointExtension>
            <ns3:atemp>17.0</ns3:atemp>
            <ns3:hr>132</ns3:hr>
          </ns3:TrackPointExtension>
        </extensions>
      </trkpt>
      <trkpt lat="46.62858626805245876312255859375" lon="6.885152757167816162109375">
        <ele>746</ele>
        <time>2013-08-15T17:15:22.000Z</time>
        <extensions>
          <ns3:TrackPointExtension>
            <ns3:atemp>17.0</ns3:atemp>
            <ns3:hr>132</ns3:hr>
          </ns3:TrackPointExtension>
        </extensions>
      </trkpt>
      <trkpt lat="46.628640331327915191650390625" lon="6.88519625924527645111083984375">
        <ele>746</ele>
        <time>2013-08-15T17:15:23.000Z</time>
        <extensions>
          <ns3:TrackPointExtension>
            <ns3:atemp>17.0</ns3:atemp>
            <ns3:hr>133</ns3:hr>
          </ns3:TrackPointExtension>
        </extensions>
      </trkpt>
      <trkpt lat="46.6286909580230712890625" lon="6.8852357380092144012451171875">
        <ele>746</ele>
        <time>2013-08-15T17:15:24.000Z</time>
        <extensions>
          <ns3:TrackPointExtension>
            <ns3:atemp>17.0</ns3:atemp>
            <ns3:hr>133</ns3:hr>
          </ns3:TrackPointExtension>
        </extensions>
      </trkpt>
      <trkpt lat="46.62874124944210052490234375" lon="6.88527622260153293609619140625">
        <ele>746</ele>
        <time>2013-08-15T17:15:25.000Z</time>
        <extensions>
          <ns3:TrackPointExtension>
            <ns3:atemp>17.0</ns3:atemp>
            <ns3:hr>133</ns3:hr>
          </ns3:TrackPointExtension>
        </extensions>
      </trkpt>
      <trkpt lat="46.6287964023649692535400390625" lon="6.885322742164134979248046875">
        <ele>745.79998779296875</ele>
        <time>2013-08-15T17:15:26.000Z</time>
        <extensions>
          <ns3:TrackPointExtension>
            <ns3:atemp>17.0</ns3:atemp>
            <ns3:hr>133</ns3:hr>
          </ns3:TrackPointExtension>
        </extensions>
      </trkpt>
      <trkpt lat="46.62885566242039203643798828125" lon="6.8853735364973545074462890625">
        <ele>745.5999755859375</ele>
        <time>2013-08-15T17:15:27.000Z</time>
        <extensions>
          <ns3:TrackPointExtension>
            <ns3:atemp>17.0</ns3:atemp>
            <ns3:hr>133</ns3:hr>
          </ns3:TrackPointExtension>
        </extensions>
      </trkpt>
      <trkpt lat="46.62891768850386142730712890625" lon="6.88542441464960575103759765625">
        <ele>745.4000244140625</ele>
        <time>2013-08-15T17:15:28.000Z</time>
        <extensions>
          <ns3:TrackPointExtension>
            <ns3:atemp>17.0</ns3:atemp>
            <ns3:hr>133</ns3:hr>
          </ns3:TrackPointExtension>
        </extensions>
      </trkpt>
      <trkpt lat="46.62898642010986804962158203125" lon="6.8854664079844951629638671875">
        <ele>745.4000244140625</ele>
        <time>2013-08-15T17:15:29.000Z</time>
        <extensions>
          <ns3:TrackPointExtension>
            <ns3:atemp>17.0</ns3:atemp>
            <ns3:hr>133</ns3:hr>
          </ns3:TrackPointExtension>
        </extensions>
      </trkpt>
      <trkpt lat="46.6290505416691303253173828125" lon="6.8855143524706363677978515625">
        <ele>745.4000244140625</ele>
        <time>2013-08-15T17:15:30.000Z</time>
        <extensions>
          <ns3:TrackPointExtension>
            <ns3:atemp>17.0</ns3:atemp>
            <ns3:hr>132</ns3:hr>
          </ns3:TrackPointExtension>
        </extensions>
      </trkpt>
      <trkpt lat="46.62911751307547092437744140625" lon="6.88554796390235424041748046875">
        <ele>745.20001220703125</ele>
        <time>2013-08-15T17:15:31.000Z</time>
        <extensions>
          <ns3:TrackPointExtension>
            <ns3:atemp>17.0</ns3:atemp>
            <ns3:hr>132</ns3:hr>
          </ns3:TrackPointExtension>
        </extensions>
      </trkpt>
      <trkpt lat="46.62918305955827236175537109375" lon="6.88558065332472324371337890625">
        <ele>745</ele>
        <time>2013-08-15T17:15:32.000Z</time>
        <extensions>
          <ns3:TrackPointExtension>
            <ns3:atemp>17.0</ns3:atemp>
            <ns3:hr>132</ns3:hr>
          </ns3:TrackPointExtension>
        </extensions>
      </trkpt>
      <trkpt lat="46.62924625910818576812744140625" lon="6.885610409080982208251953125">
        <ele>745</ele>
        <time>2013-08-15T17:15:33.000Z</time>
        <extensions>
          <ns3:TrackPointExtension>
            <ns3:atemp>17.0</ns3:atemp>
            <ns3:hr>132</ns3:hr>
          </ns3:TrackPointExtension>
        </extensions>
      </trkpt>
      <trkpt lat="46.6293063573539257049560546875" lon="6.88563756644725799560546875">
        <ele>745.4000244140625</ele>
        <time>2013-08-15T17:15:34.000Z</time>
        <extensions>
          <ns3:TrackPointExtension>
            <ns3:atemp>17.0</ns3:atemp>
            <ns3:hr>132</ns3:hr>
          </ns3:TrackPointExtension>
        </extensions>
      </trkpt>
      <trkpt lat="46.6293655335903167724609375" lon="6.88566111959517002105712890625">
        <ele>745.5999755859375</ele>
        <time>2013-08-15T17:15:35.000Z</time>
        <extensions>
          <ns3:TrackPointExtension>
            <ns3:atemp>17.0</ns3:atemp>
            <ns3:hr>131</ns3:hr>
          </ns3:TrackPointExtension>
        </extensions>
      </trkpt>
      <trkpt lat="46.629422865808010101318359375" lon="6.88568358309566974639892578125">
        <ele>745.5999755859375</ele>
        <time>2013-08-15T17:15:36.000Z</time>
        <extensions>
          <ns3:TrackPointExtension>
            <ns3:atemp>17.0</ns3:atemp>
            <ns3:hr>131</ns3:hr>
          </ns3:TrackPointExtension>
        </extensions>
      </trkpt>
      <trkpt lat="46.62947952747344970703125" lon="6.8857068009674549102783203125">
        <ele>745.4000244140625</ele>
        <time>2013-08-15T17:15:37.000Z</time>
        <extensions>
          <ns3:TrackPointExtension>
            <ns3:atemp>17.0</ns3:atemp>
            <ns3:hr>131</ns3:hr>
          </ns3:TrackPointExtension>
        </extensions>
      </trkpt>
      <trkpt lat="46.6295371949672698974609375" lon="6.8857309408485889434814453125">
        <ele>745.4000244140625</ele>
        <time>2013-08-15T17:15:38.000Z</time>
        <extensions>
          <ns3:TrackPointExtension>
            <ns3:atemp>17.0</ns3:atemp>
            <ns3:hr>132</ns3:hr>
          </ns3:TrackPointExtension>
        </extensions>
      </trkpt>
      <trkpt lat="46.6295926831662654876708984375" lon="6.88575332053005695343017578125">
        <ele>745.5999755859375</ele>
        <time>2013-08-15T17:15:39.000Z</time>
        <extensions>
          <ns3:TrackPointExtension>
            <ns3:atemp>17.0</ns3:atemp>
            <ns3:hr>131</ns3:hr>
          </ns3:TrackPointExtension>
        </extensions>
      </trkpt>
      <trkpt lat="46.6296476684510707855224609375" lon="6.88576857559382915496826171875">
        <ele>746.20001220703125</ele>
        <time>2013-08-15T17:15:40.000Z</time>
        <extensions>
          <ns3:TrackPointExtension>
            <ns3:atemp>17.0</ns3:atemp>
            <ns3:hr>132</ns3:hr>
          </ns3:TrackPointExtension>
        </extensions>
      </trkpt>
      <trkpt lat="46.629702150821685791015625" lon="6.88578282482922077178955078125">
        <ele>746.4000244140625</ele>
        <time>2013-08-15T17:15:41.000Z</time>
        <extensions>
          <ns3:TrackPointExtension>
            <ns3:atemp>17.0</ns3:atemp>
            <ns3:hr>132</ns3:hr>
          </ns3:TrackPointExtension>
        </extensions>
      </trkpt>
      <trkpt lat="46.6297509334981441497802734375" lon="6.88579807989299297332763671875">
        <ele>746.4000244140625</ele>
        <time>2013-08-15T17:15:42.000Z</time>
        <extensions>
          <ns3:TrackPointExtension>
            <ns3:atemp>17.0</ns3:atemp>
            <ns3:hr>131</ns3:hr>
          </ns3:TrackPointExtension>
        </extensions>
      </trkpt>
      <trkpt lat="46.629793010652065277099609375" lon="6.885815598070621490478515625">
        <ele>746.4000244140625</ele>
        <time>2013-08-15T17:15:43.000Z</time>
        <extensions>
          <ns3:TrackPointExtension>
            <ns3:atemp>17.0</ns3:atemp>
            <ns3:hr>132</ns3:hr>
          </ns3:TrackPointExtension>
        </extensions>
      </trkpt>
      <trkpt lat="46.62983567453920841217041015625" lon="6.88583831302821636199951171875">
        <ele>746.4000244140625</ele>
        <time>2013-08-15T17:15:44.000Z</time>
        <extensions>
          <ns3:TrackPointExtension>
            <ns3:atemp>17.0</ns3:atemp>
            <ns3:hr>131</ns3:hr>
          </ns3:TrackPointExtension>
        </extensions>
      </trkpt>
      <trkpt lat="46.629880182445049285888671875" lon="6.8858637101948261260986328125">
        <ele>746.5999755859375</ele>
        <time>2013-08-15T17:15:45.000Z</time>
        <extensions>
          <ns3:TrackPointExtension>
            <ns3:atemp>16.0</ns3:atemp>
            <ns3:hr>132</ns3:hr>
          </ns3:TrackPointExtension>
        </extensions>
      </trkpt>
      <trkpt lat="46.629929803311824798583984375" lon="6.88588156364858150482177734375">
        <ele>746.79998779296875</ele>
        <time>2013-08-15T17:15:46.000Z</time>
        <extensions>
          <ns3:TrackPointExtension>
            <ns3:atemp>16.0</ns3:atemp>
            <ns3:hr>132</ns3:hr>
          </ns3:TrackPointExtension>
        </extensions>
      </trkpt>
      <trkpt lat="46.6299784183502197265625" lon="6.88589639961719512939453125">
        <ele>746.79998779296875</ele>
        <time>2013-08-15T17:15:47.000Z</time>
        <extensions>
          <ns3:TrackPointExtension>
            <ns3:atemp>16.0</ns3:atemp>
            <ns3:hr>132</ns3:hr>
          </ns3:TrackPointExtension>
        </extensions>
      </trkpt>
      <trkpt lat="46.63002443499863147735595703125" lon="6.8859156779944896697998046875">
        <ele>747</ele>
        <time>2013-08-15T17:15:48.000Z</time>
        <extensions>
          <ns3:TrackPointExtension>
            <ns3:atemp>16.0</ns3:atemp>
            <ns3:hr>132</ns3:hr>
          </ns3:TrackPointExtension>
        </extensions>
      </trkpt>
      <trkpt lat="46.63007296621799468994140625" lon="6.885941661894321441650390625">
        <ele>747.20001220703125</ele>
        <time>2013-08-15T17:15:49.000Z</time>
        <extensions>
          <ns3:TrackPointExtension>
            <ns3:atemp>16.0</ns3:atemp>
            <ns3:hr>132</ns3:hr>
          </ns3:TrackPointExtension>
        </extensions>
      </trkpt>
      <trkpt lat="46.63012233562767505645751953125" lon="6.8859693221747875213623046875">
        <ele>747.4000244140625</ele>
        <time>2013-08-15T17:15:50.000Z</time>
        <extensions>
          <ns3:TrackPointExtension>
            <ns3:atemp>16.0</ns3:atemp>
            <ns3:hr>133</ns3:hr>
          </ns3:TrackPointExtension>
        </extensions>
      </trkpt>
      <trkpt lat="46.63016617298126220703125" lon="6.88599220477044582366943359375">
        <ele>747.5999755859375</ele>
        <time>2013-08-15T17:15:51.000Z</time>
        <extensions>
          <ns3:TrackPointExtension>
            <ns3:atemp>16.0</ns3:atemp>
            <ns3:hr>133</ns3:hr>
          </ns3:TrackPointExtension>
        </extensions>
      </trkpt>
      <trkpt lat="46.6302131116390228271484375" lon="6.8860125727951526641845703125">
        <ele>747.79998779296875</ele>
        <time>2013-08-15T17:15:52.000Z</time>
        <extensions>
          <ns3:TrackPointExtension>
            <ns3:atemp>16.0</ns3:atemp>
            <ns3:hr>133</ns3:hr>
          </ns3:TrackPointExtension>
        </extensions>
      </trkpt>
      <trkpt lat="46.630262397229671478271484375" lon="6.886027157306671142578125">
        <ele>747.79998779296875</ele>
        <time>2013-08-15T17:15:53.000Z</time>
        <extensions>
          <ns3:TrackPointExtension>
            <ns3:atemp>16.0</ns3:atemp>
            <ns3:hr>133</ns3:hr>
          </ns3:TrackPointExtension>
        </extensions>
      </trkpt>
      <trkpt lat="46.63031897507607936859130859375" lon="6.8860350362956523895263671875">
        <ele>747.79998779296875</ele>
        <time>2013-08-15T17:15:54.000Z</time>
        <extensions>
          <ns3:TrackPointExtension>
            <ns3:atemp>16.0</ns3:atemp>
            <ns3:hr>133</ns3:hr>
          </ns3:TrackPointExtension>
        </extensions>
      </trkpt>
      <trkpt lat="46.6303718648850917816162109375" lon="6.8860464356839656829833984375">
        <ele>747.79998779296875</ele>
        <time>2013-08-15T17:15:55.000Z</time>
        <extensions>
          <ns3:TrackPointExtension>
            <ns3:atemp>16.0</ns3:atemp>
            <ns3:hr>133</ns3:hr>
          </ns3:TrackPointExtension>
        </extensions>
      </trkpt>
      <trkpt lat="46.6304191388189792633056640625" lon="6.88606445677578449249267578125">
        <ele>748</ele>
        <time>2013-08-15T17:15:56.000Z</time>
        <extensions>
          <ns3:TrackPointExtension>
            <ns3:atemp>16.0</ns3:atemp>
            <ns3:hr>134</ns3:hr>
          </ns3:TrackPointExtension>
        </extensions>
      </trkpt>
      <trkpt lat="46.63045979104936122894287109375" lon="6.8860806338489055633544921875">
        <ele>748.4000244140625</ele>
        <time>2013-08-15T17:15:57.000Z</time>
        <extensions>
          <ns3:TrackPointExtension>
            <ns3:atemp>16.0</ns3:atemp>
            <ns3:hr>134</ns3:hr>
          </ns3:TrackPointExtension>
        </extensions>
      </trkpt>
      <trkpt lat="46.63050103001296520233154296875" lon="6.88609312288463115692138671875">
        <ele>748.4000244140625</ele>
        <time>2013-08-15T17:15:58.000Z</time>
        <extensions>
          <ns3:TrackPointExtension>
            <ns3:atemp>16.0</ns3:atemp>
            <ns3:hr>134</ns3:hr>
          </ns3:TrackPointExtension>
        </extensions>
      </trkpt>
      <trkpt lat="46.63054210133850574493408203125" lon="6.88610158860683441162109375">
        <ele>748.79998779296875</ele>
        <time>2013-08-15T17:15:59.000Z</time>
        <extensions>
          <ns3:TrackPointExtension>
            <ns3:atemp>16.0</ns3:atemp>
            <ns3:hr>134</ns3:hr>
          </ns3:TrackPointExtension>
        </extensions>
      </trkpt>
      <trkpt lat="46.6305824182927608489990234375" lon="6.886116005480289459228515625">
        <ele>748.79998779296875</ele>
        <time>2013-08-15T17:16:00.000Z</time>
        <extensions>
          <ns3:TrackPointExtension>
            <ns3:atemp>16.0</ns3:atemp>
            <ns3:hr>134</ns3:hr>
          </ns3:TrackPointExtension>
        </extensions>
      </trkpt>
      <trkpt lat="46.63062307052314281463623046875" lon="6.88612882979214191436767578125">
        <ele>749.20001220703125</ele>
        <time>2013-08-15T17:16:01.000Z</time>
        <extensions>
          <ns3:TrackPointExtension>
            <ns3:atemp>16.0</ns3:atemp>
            <ns3:hr>134</ns3:hr>
          </ns3:TrackPointExtension>
        </extensions>
      </trkpt>
      <trkpt lat="46.63066196255385875701904296875" lon="6.88614492304623126983642578125">
        <ele>749.20001220703125</ele>
        <time>2013-08-15T17:16:02.000Z</time>
        <extensions>
          <ns3:TrackPointExtension>
            <ns3:atemp>16.0</ns3:atemp>
            <ns3:hr>135</ns3:hr>
          </ns3:TrackPointExtension>
        </extensions>
      </trkpt>
      <trkpt lat="46.6307012736797332763671875" lon="6.88616151921451091766357421875">
        <ele>749.4000244140625</ele>
        <time>2013-08-15T17:16:03.000Z</time>
        <extensions>
          <ns3:TrackPointExtension>
            <ns3:atemp>16.0</ns3:atemp>
            <ns3:hr>135</ns3:hr>
          </ns3:TrackPointExtension>
        </extensions>
      </trkpt>
      <trkpt lat="46.630739830434322357177734375" lon="6.88617493025958538055419921875">
        <ele>750</ele>
        <time>2013-08-15T17:16:04.000Z</time>
        <extensions>
          <ns3:TrackPointExtension>
            <ns3:atemp>16.0</ns3:atemp>
            <ns3:hr>135</ns3:hr>
          </ns3:TrackPointExtension>
        </extensions>
      </trkpt>
      <trkpt lat="46.63077972829341888427734375" lon="6.88618884421885013580322265625">
        <ele>750.20001220703125</ele>
        <time>2013-08-15T17:16:05.000Z</time>
        <extensions>
          <ns3:TrackPointExtension>
            <ns3:atemp>16.0</ns3:atemp>
            <ns3:hr>135</ns3:hr>
          </ns3:TrackPointExtension>
        </extensions>
      </trkpt>
      <trkpt lat="46.63082088343799114227294921875" lon="6.88620627857744693756103515625">
        <ele>750.4000244140625</ele>
        <time>2013-08-15T17:16:06.000Z</time>
        <extensions>
          <ns3:TrackPointExtension>
            <ns3:atemp>16.0</ns3:atemp>
            <ns3:hr>135</ns3:hr>
          </ns3:TrackPointExtension>
        </extensions>
      </trkpt>
      <trkpt lat="46.63086396642029285430908203125" lon="6.88623259775340557098388671875">
        <ele>750.20001220703125</ele>
        <time>2013-08-15T17:16:07.000Z</time>
        <extensions>
          <ns3:TrackPointExtension>
            <ns3:atemp>16.0</ns3:atemp>
            <ns3:hr>135</ns3:hr>
          </ns3:TrackPointExtension>
        </extensions>
      </trkpt>
      <trkpt lat="46.63091442547738552093505859375" lon="6.88626579008996486663818359375">
        <ele>750.20001220703125</ele>
        <time>2013-08-15T17:16:08.000Z</time>
        <extensions>
          <ns3:TrackPointExtension>
            <ns3:atemp>16.0</ns3:atemp>
            <ns3:hr>136</ns3:hr>
          </ns3:TrackPointExtension>
        </extensions>
      </trkpt>
      <trkpt lat="46.6309636272490024566650390625" lon="6.8863009102642536163330078125">
        <ele>750.4000244140625</ele>
        <time>2013-08-15T17:16:09.000Z</time>
        <extensions>
          <ns3:TrackPointExtension>
            <ns3:atemp>16.0</ns3:atemp>
            <ns3:hr>136</ns3:hr>
          </ns3:TrackPointExtension>
        </extensions>
      </trkpt>
      <trkpt lat="46.63101349957287311553955078125" lon="6.88633988611400127410888671875">
        <ele>750.4000244140625</ele>
        <time>2013-08-15T17:16:10.000Z</time>
        <extensions>
          <ns3:TrackPointExtension>
            <ns3:atemp>16.0</ns3:atemp>
            <ns3:hr>135</ns3:hr>
          </ns3:TrackPointExtension>
        </extensions>
      </trkpt>
      <trkpt lat="46.63106345571577548980712890625" lon="6.88637877814471721649169921875">
        <ele>750.5999755859375</ele>
        <time>2013-08-15T17:16:11.000Z</time>
        <extensions>
          <ns3:TrackPointExtension>
            <ns3:atemp>16.0</ns3:atemp>
            <ns3:hr>135</ns3:hr>
          </ns3:TrackPointExtension>
        </extensions>
      </trkpt>
      <trkpt lat="46.6311131604015827178955078125" lon="6.8864227831363677978515625">
        <ele>750.5999755859375</ele>
        <time>2013-08-15T17:16:12.000Z</time>
        <extensions>
          <ns3:TrackPointExtension>
            <ns3:atemp>16.0</ns3:atemp>
            <ns3:hr>135</ns3:hr>
          </ns3:TrackPointExtension>
        </extensions>
      </trkpt>
      <trkpt lat="46.63116890005767345428466796875" lon="6.8864668719470500946044921875">
        <ele>750.5999755859375</ele>
        <time>2013-08-15T17:16:13.000Z</time>
        <extensions>
          <ns3:TrackPointExtension>
            <ns3:atemp>16.0</ns3:atemp>
            <ns3:hr>135</ns3:hr>
          </ns3:TrackPointExtension>
        </extensions>
      </trkpt>
      <trkpt lat="46.63122975267469882965087890625" lon="6.88651523552834987640380859375">
        <ele>750.79998779296875</ele>
        <time>2013-08-15T17:16:14.000Z</time>
        <extensions>
          <ns3:TrackPointExtension>
            <ns3:atemp>16.0</ns3:atemp>
            <ns3:hr>135</ns3:hr>
          </ns3:TrackPointExtension>
        </extensions>
      </trkpt>
      <trkpt lat="46.63129060529172420501708984375" lon="6.886561252176761627197265625">
        <ele>750.79998779296875</ele>
        <time>2013-08-15T17:16:15.000Z</time>
        <extensions>
          <ns3:TrackPointExtension>
            <ns3:atemp>16.0</ns3:atemp>
            <ns3:hr>135</ns3:hr>
          </ns3:TrackPointExtension>
        </extensions>
      </trkpt>
      <trkpt lat="46.63134994916617870330810546875" lon="6.88660223968327045440673828125">
        <ele>750.79998779296875</ele>
        <time>2013-08-15T17:16:16.000Z</time>
        <extensions>
          <ns3:TrackPointExtension>
            <ns3:atemp>16.0</ns3:atemp>
            <ns3:hr>135</ns3:hr>
          </ns3:TrackPointExtension>
        </extensions>
      </trkpt>
      <trkpt lat="46.63140996359288692474365234375" lon="6.88664431683719158172607421875">
        <ele>750.79998779296875</ele>
        <time>2013-08-15T17:16:17.000Z</time>
        <extensions>
          <ns3:TrackPointExtension>
            <ns3:atemp>16.0</ns3:atemp>
            <ns3:hr>135</ns3:hr>
          </ns3:TrackPointExtension>
        </extensions>
      </trkpt>
      <trkpt lat="46.63146545179188251495361328125" lon="6.88668454997241497039794921875">
        <ele>750.79998779296875</ele>
        <time>2013-08-15T17:16:18.000Z</time>
        <extensions>
          <ns3:TrackPointExtension>
            <ns3:atemp>16.0</ns3:atemp>
            <ns3:hr>135</ns3:hr>
          </ns3:TrackPointExtension>
        </extensions>
      </trkpt>
      <trkpt lat="46.63152345456182956695556640625" lon="6.88672310672700405120849609375">
        <ele>750.5999755859375</ele>
        <time>2013-08-15T17:16:19.000Z</time>
        <extensions>
          <ns3:TrackPointExtension>
            <ns3:atemp>16.0</ns3:atemp>
            <ns3:hr>135</ns3:hr>
          </ns3:TrackPointExtension>
        </extensions>
      </trkpt>
      <trkpt lat="46.6315825469791889190673828125" lon="6.8867588974535465240478515625">
        <ele>750.5999755859375</ele>
        <time>2013-08-15T17:16:20.000Z</time>
        <extensions>
          <ns3:TrackPointExtension>
            <ns3:atemp>16.0</ns3:atemp>
            <ns3:hr>135</ns3:hr>
          </ns3:TrackPointExtension>
        </extensions>
      </trkpt>
      <trkpt lat="46.6316400468349456787109375" lon="6.88679200597107410430908203125">
        <ele>750.5999755859375</ele>
        <time>2013-08-15T17:16:21.000Z</time>
        <extensions>
          <ns3:TrackPointExtension>
            <ns3:atemp>16.0</ns3:atemp>
            <ns3:hr>135</ns3:hr>
          </ns3:TrackPointExtension>
        </extensions>
      </trkpt>
      <trkpt lat="46.63169662468135356903076171875" lon="6.8868195824325084686279296875">
        <ele>750.5999755859375</ele>
        <time>2013-08-15T17:16:22.000Z</time>
        <extensions>
          <ns3:TrackPointExtension>
            <ns3:atemp>16.0</ns3:atemp>
            <ns3:hr>134</ns3:hr>
          </ns3:TrackPointExtension>
        </extensions>
      </trkpt>
      <trkpt lat="46.63175496272742748260498046875" lon="6.88683760352432727813720703125">
        <ele>750.79998779296875</ele>
        <time>2013-08-15T17:16:23.000Z</time>
        <extensions>
          <ns3:TrackPointExtension>
            <ns3:atemp>16.0</ns3:atemp>
            <ns3:hr>134</ns3:hr>
          </ns3:TrackPointExtension>
        </extensions>
      </trkpt>
      <trkpt lat="46.6318090260028839111328125" lon="6.88685738481581211090087890625">
        <ele>750.79998779296875</ele>
        <time>2013-08-15T17:16:24.000Z</time>
        <extensions>
          <ns3:TrackPointExtension>
            <ns3:atemp>16.0</ns3:atemp>
            <ns3:hr>134</ns3:hr>
          </ns3:TrackPointExtension>
        </extensions>
      </trkpt>
      <trkpt lat="46.631861664354801177978515625" lon="6.8868799321353435516357421875">
        <ele>750.5999755859375</ele>
        <time>2013-08-15T17:16:25.000Z</time>
        <extensions>
          <ns3:TrackPointExtension>
            <ns3:atemp>16.0</ns3:atemp>
            <ns3:hr>134</ns3:hr>
          </ns3:TrackPointExtension>
        </extensions>
      </trkpt>
      <trkpt lat="46.63191589526832103729248046875" lon="6.88689895905554294586181640625">
        <ele>750.79998779296875</ele>
        <time>2013-08-15T17:16:26.000Z</time>
        <extensions>
          <ns3:TrackPointExtension>
            <ns3:atemp>16.0</ns3:atemp>
            <ns3:hr>134</ns3:hr>
          </ns3:TrackPointExtension>
        </extensions>
      </trkpt>
      <trkpt lat="46.63197088055312633514404296875" lon="6.88691421411931514739990234375">
        <ele>751</ele>
        <time>2013-08-15T17:16:27.000Z</time>
        <extensions>
          <ns3:TrackPointExtension>
            <ns3:atemp>16.0</ns3:atemp>
            <ns3:hr>134</ns3:hr>
          </ns3:TrackPointExtension>
        </extensions>
      </trkpt>
      <trkpt lat="46.63202536292374134063720703125" lon="6.886929385364055633544921875">
        <ele>751.20001220703125</ele>
        <time>2013-08-15T17:16:28.000Z</time>
        <extensions>
          <ns3:TrackPointExtension>
            <ns3:atemp>16.0</ns3:atemp>
            <ns3:hr>134</ns3:hr>
          </ns3:TrackPointExtension>
        </extensions>
      </trkpt>
      <trkpt lat="46.63207833655178546905517578125" lon="6.8869466520845890045166015625">
        <ele>751.4000244140625</ele>
        <time>2013-08-15T17:16:29.000Z</time>
        <extensions>
          <ns3:TrackPointExtension>
            <ns3:atemp>16.0</ns3:atemp>
            <ns3:hr>134</ns3:hr>
          </ns3:TrackPointExtension>
        </extensions>
      </trkpt>
      <trkpt lat="46.6321310587227344512939453125" lon="6.8869660980999469757080078125">
        <ele>751.5999755859375</ele>
        <time>2013-08-15T17:16:30.000Z</time>
        <extensions>
          <ns3:TrackPointExtension>
            <ns3:atemp>16.0</ns3:atemp>
            <ns3:hr>134</ns3:hr>
          </ns3:TrackPointExtension>
        </extensions>
      </trkpt>
      <trkpt lat="46.6321843676269054412841796875" lon="6.8869860470294952392578125">
        <ele>751.79998779296875</ele>
        <time>2013-08-15T17:16:31.000Z</time>
        <extensions>
          <ns3:TrackPointExtension>
            <ns3:atemp>16.0</ns3:atemp>
            <ns3:hr>134</ns3:hr>
          </ns3:TrackPointExtension>
        </extensions>
      </trkpt>
      <trkpt lat="46.6322393529117107391357421875" lon="6.88700457103550434112548828125">
        <ele>752</ele>
        <time>2013-08-15T17:16:32.000Z</time>
        <extensions>
          <ns3:TrackPointExtension>
            <ns3:atemp>16.0</ns3:atemp>
            <ns3:hr>134</ns3:hr>
          </ns3:TrackPointExtension>
        </extensions>
      </trkpt>
      <trkpt lat="46.63229224272072315216064453125" lon="6.88701932318508625030517578125">
        <ele>752</ele>
        <time>2013-08-15T17:16:33.000Z</time>
        <extensions>
          <ns3:TrackPointExtension>
            <ns3:atemp>16.0</ns3:atemp>
            <ns3:hr>134</ns3:hr>
          </ns3:TrackPointExtension>
        </extensions>
      </trkpt>
      <trkpt lat="46.632344461977481842041015625" lon="6.88703239895403385162353515625">
        <ele>752.20001220703125</ele>
        <time>2013-08-15T17:16:34.000Z</time>
        <extensions>
          <ns3:TrackPointExtension>
            <ns3:atemp>16.0</ns3:atemp>
            <ns3:hr>134</ns3:hr>
          </ns3:TrackPointExtension>
        </extensions>
      </trkpt>
      <trkpt lat="46.63239399902522563934326171875" lon="6.88703776337206363677978515625">
        <ele>752.20001220703125</ele>
        <time>2013-08-15T17:16:35.000Z</time>
        <extensions>
          <ns3:TrackPointExtension>
            <ns3:atemp>16.0</ns3:atemp>
            <ns3:hr>135</ns3:hr>
          </ns3:TrackPointExtension>
        </extensions>
      </trkpt>
      <trkpt lat="46.6324460506439208984375" lon="6.88704111613333225250244140625">
        <ele>752.20001220703125</ele>
        <time>2013-08-15T17:16:36.000Z</time>
        <extensions>
          <ns3:TrackPointExtension>
            <ns3:atemp>16.0</ns3:atemp>
            <ns3:hr>135</ns3:hr>
          </ns3:TrackPointExtension>
        </extensions>
      </trkpt>
      <trkpt lat="46.63249240256845951080322265625" lon="6.88704446889460086822509765625">
        <ele>752.20001220703125</ele>
        <time>2013-08-15T17:16:37.000Z</time>
        <extensions>
          <ns3:TrackPointExtension>
            <ns3:atemp>16.0</ns3:atemp>
            <ns3:hr>135</ns3:hr>
          </ns3:TrackPointExtension>
        </extensions>
      </trkpt>
      <trkpt lat="46.63253447972238063812255859375" lon="6.88704413361847400665283203125">
        <ele>752</ele>
        <time>2013-08-15T17:16:38.000Z</time>
        <extensions>
          <ns3:TrackPointExtension>
            <ns3:atemp>16.0</ns3:atemp>
            <ns3:hr>136</ns3:hr>
          </ns3:TrackPointExtension>
        </extensions>
      </trkpt>
      <trkpt lat="46.63257488049566745758056640625" lon="6.887041032314300537109375">
        <ele>752.20001220703125</ele>
        <time>2013-08-15T17:16:39.000Z</time>
        <extensions>
          <ns3:TrackPointExtension>
            <ns3:atemp>16.0</ns3:atemp>
            <ns3:hr>136</ns3:hr>
          </ns3:TrackPointExtension>
        </extensions>
      </trkpt>
      <trkpt lat="46.6326163709163665771484375" lon="6.88703675754368305206298828125">
        <ele>752.5999755859375</ele>
        <time>2013-08-15T17:16:40.000Z</time>
        <extensions>
          <ns3:TrackPointExtension>
            <ns3:atemp>16.0</ns3:atemp>
            <ns3:hr>136</ns3:hr>
          </ns3:TrackPointExtension>
        </extensions>
      </trkpt>
      <trkpt lat="46.63265861570835113525390625" lon="6.8870294652879238128662109375">
        <ele>752.79998779296875</ele>
        <time>2013-08-15T17:16:41.000Z</time>
        <extensions>
          <ns3:TrackPointExtension>
            <ns3:atemp>16.0</ns3:atemp>
            <ns3:hr>136</ns3:hr>
          </ns3:TrackPointExtension>
        </extensions>
      </trkpt>
      <trkpt lat="46.63269742392003536224365234375" lon="6.887019909918308258056640625">
        <ele>753</ele>
        <time>2013-08-15T17:16:42.000Z</time>
        <extensions>
          <ns3:TrackPointExtension>
            <ns3:atemp>16.0</ns3:atemp>
            <ns3:hr>137</ns3:hr>
          </ns3:TrackPointExtension>
        </extensions>
      </trkpt>
      <trkpt lat="46.6327358968555927276611328125" lon="6.88700616359710693359375">
        <ele>753</ele>
        <time>2013-08-15T17:16:43.000Z</time>
        <extensions>
          <ns3:TrackPointExtension>
            <ns3:atemp>16.0</ns3:atemp>
            <ns3:hr>137</ns3:hr>
          </ns3:TrackPointExtension>
        </extensions>
      </trkpt>
      <trkpt lat="46.63277034647762775421142578125" lon="6.88699568621814250946044921875">
        <ele>753.20001220703125</ele>
        <time>2013-08-15T17:16:44.000Z</time>
        <extensions>
          <ns3:TrackPointExtension>
            <ns3:atemp>16.0</ns3:atemp>
            <ns3:hr>137</ns3:hr>
          </ns3:TrackPointExtension>
        </extensions>
      </trkpt>
      <trkpt lat="46.63280211389064788818359375" lon="6.886988393962383270263671875">
        <ele>753.20001220703125</ele>
        <time>2013-08-15T17:16:45.000Z</time>
        <extensions>
          <ns3:TrackPointExtension>
            <ns3:atemp>16.0</ns3:atemp>
            <ns3:hr>137</ns3:hr>
          </ns3:TrackPointExtension>
        </extensions>
      </trkpt>
      <trkpt lat="46.6328309476375579833984375" lon="6.8869774974882602691650390625">
        <ele>753.4000244140625</ele>
        <time>2013-08-15T17:16:46.000Z</time>
        <extensions>
          <ns3:TrackPointExtension>
            <ns3:atemp>16.0</ns3:atemp>
            <ns3:hr>137</ns3:hr>
          </ns3:TrackPointExtension>
        </extensions>
      </trkpt>
      <trkpt lat="46.63285885937511920928955078125" lon="6.8869630806148052215576171875">
        <ele>753.5999755859375</ele>
        <time>2013-08-15T17:16:47.000Z</time>
        <extensions>
          <ns3:TrackPointExtension>
            <ns3:atemp>16.0</ns3:atemp>
            <ns3:hr>137</ns3:hr>
          </ns3:TrackPointExtension>
        </extensions>
      </trkpt>
      <trkpt lat="46.63288769312202930450439453125" lon="6.88694673590362071990966796875">
        <ele>753.5999755859375</ele>
        <time>2013-08-15T17:16:48.000Z</time>
        <extensions>
          <ns3:TrackPointExtension>
            <ns3:atemp>16.0</ns3:atemp>
            <ns3:hr>137</ns3:hr>
          </ns3:TrackPointExtension>
        </extensions>
      </trkpt>
      <trkpt lat="46.63291552104055881500244140625" lon="6.886934079229831695556640625">
        <ele>753.79998779296875</ele>
        <time>2013-08-15T17:16:49.000Z</time>
        <extensions>
          <ns3:TrackPointExtension>
            <ns3:atemp>16.0</ns3:atemp>
            <ns3:hr>137</ns3:hr>
          </ns3:TrackPointExtension>
        </extensions>
      </trkpt>
      <trkpt lat="46.63294066675007343292236328125" lon="6.88692259602248668670654296875">
        <ele>754.4000244140625</ele>
        <time>2013-08-15T17:16:50.000Z</time>
        <extensions>
          <ns3:TrackPointExtension>
            <ns3:atemp>16.0</ns3:atemp>
            <ns3:hr>137</ns3:hr>
          </ns3:TrackPointExtension>
        </extensions>
      </trkpt>
      <trkpt lat="46.63296514190733432769775390625" lon="6.8869109451770782470703125">
        <ele>754.5999755859375</ele>
        <time>2013-08-15T17:16:51.000Z</time>
        <extensions>
          <ns3:TrackPointExtension>
            <ns3:atemp>16.0</ns3:atemp>
            <ns3:hr>138</ns3:hr>
          </ns3:TrackPointExtension>
        </extensions>
      </trkpt>
      <trkpt lat="46.63299120962619781494140625" lon="6.8868960253894329071044921875">
        <ele>754.79998779296875</ele>
        <time>2013-08-15T17:16:52.000Z</time>
        <extensions>
          <ns3:TrackPointExtension>
            <ns3:atemp>16.0</ns3:atemp>
            <ns3:hr>138</ns3:hr>
          </ns3:TrackPointExtension>
        </extensions>
      </trkpt>
      <trkpt lat="46.63301534950733184814453125" lon="6.88688571564853191375732421875">
        <ele>755.5999755859375</ele>
        <time>2013-08-15T17:16:53.000Z</time>
        <extensions>
          <ns3:TrackPointExtension>
            <ns3:atemp>16.0</ns3:atemp>
            <ns3:hr>138</ns3:hr>
          </ns3:TrackPointExtension>
        </extensions>
      </trkpt>
      <trkpt lat="46.63303940556943416595458984375" lon="6.88687196932733058929443359375">
        <ele>755.79998779296875</ele>
        <time>2013-08-15T17:16:54.000Z</time>
        <extensions>
          <ns3:TrackPointExtension>
            <ns3:atemp>16.0</ns3:atemp>
            <ns3:hr>138</ns3:hr>
          </ns3:TrackPointExtension>
        </extensions>
      </trkpt>
      <trkpt lat="46.63306253962218761444091796875" lon="6.88685872592031955718994140625">
        <ele>756</ele>
        <time>2013-08-15T17:16:55.000Z</time>
        <extensions>
          <ns3:TrackPointExtension>
            <ns3:atemp>16.0</ns3:atemp>
            <ns3:hr>138</ns3:hr>
          </ns3:TrackPointExtension>
        </extensions>
      </trkpt>
      <trkpt lat="46.63308483548462390899658203125" lon="6.88685017637908458709716796875">
        <ele>756.20001220703125</ele>
        <time>2013-08-15T17:16:56.000Z</time>
        <extensions>
          <ns3:TrackPointExtension>
            <ns3:atemp>16.0</ns3:atemp>
            <ns3:hr>139</ns3:hr>
          </ns3:TrackPointExtension>
        </extensions>
      </trkpt>
      <trkpt lat="46.63310444913804531097412109375" lon="6.88684481196105480194091796875">
        <ele>756.5999755859375</ele>
        <time>2013-08-15T17:16:57.000Z</time>
        <extensions>
          <ns3:TrackPointExtension>
            <ns3:atemp>16.0</ns3:atemp>
            <ns3:hr>139</ns3:hr>
          </ns3:TrackPointExtension>
        </extensions>
      </trkpt>
      <trkpt lat="46.63312540389597415924072265625" lon="6.88683986663818359375">
        <ele>757</ele>
        <time>2013-08-15T17:16:58.000Z</time>
        <extensions>
          <ns3:TrackPointExtension>
            <ns3:atemp>16.0</ns3:atemp>
            <ns3:hr>139</ns3:hr>
          </ns3:TrackPointExtension>
        </extensions>
      </trkpt>
      <trkpt lat="46.6331482864916324615478515625" lon="6.8868366815149784088134765625">
        <ele>757.20001220703125</ele>
        <time>2013-08-15T17:16:59.000Z</time>
        <extensions>
          <ns3:TrackPointExtension>
            <ns3:atemp>16.0</ns3:atemp>
            <ns3:hr>139</ns3:hr>
          </ns3:TrackPointExtension>
        </extensions>
      </trkpt>
      <trkpt lat="46.63317033089697360992431640625" lon="6.886838190257549285888671875">
        <ele>757.4000244140625</ele>
        <time>2013-08-15T17:17:00.000Z</time>
        <extensions>
          <ns3:TrackPointExtension>
            <ns3:atemp>16.0</ns3:atemp>
            <ns3:hr>139</ns3:hr>
          </ns3:TrackPointExtension>
        </extensions>
      </trkpt>
      <trkpt lat="46.63319296203553676605224609375" lon="6.88683911226689815521240234375">
        <ele>757.5999755859375</ele>
        <time>2013-08-15T17:17:01.000Z</time>
        <extensions>
          <ns3:TrackPointExtension>
            <ns3:atemp>16.0</ns3:atemp>
            <ns3:hr>139</ns3:hr>
          </ns3:TrackPointExtension>
        </extensions>
      </trkpt>
      <trkpt lat="46.63322196342051029205322265625" lon="6.88684263266623020172119140625">
        <ele>758</ele>
        <time>2013-08-15T17:17:02.000Z</time>
        <extensions>
          <ns3:TrackPointExtension>
            <ns3:atemp>16.0</ns3:atemp>
            <ns3:hr>140</ns3:hr>
          </ns3:TrackPointExtension>
        </extensions>
      </trkpt>
      <trkpt lat="46.633251048624515533447265625" lon="6.88685252331197261810302734375">
        <ele>758.20001220703125</ele>
        <time>2013-08-15T17:17:03.000Z</time>
        <extensions>
          <ns3:TrackPointExtension>
            <ns3:atemp>16.0</ns3:atemp>
            <ns3:hr>140</ns3:hr>
          </ns3:TrackPointExtension>
        </extensions>
      </trkpt>
      <trkpt lat="46.63328466005623340606689453125" lon="6.88686576671898365020751953125">
        <ele>758</ele>
        <time>2013-08-15T17:17:04.000Z</time>
        <extensions>
          <ns3:TrackPointExtension>
            <ns3:atemp>16.0</ns3:atemp>
            <ns3:hr>140</ns3:hr>
          </ns3:TrackPointExtension>
        </extensions>
      </trkpt>
      <trkpt lat="46.6333145834505558013916015625" lon="6.8868819437921047210693359375">
        <ele>757.79998779296875</ele>
        <time>2013-08-15T17:17:05.000Z</time>
        <extensions>
          <ns3:TrackPointExtension>
            <ns3:atemp>16.0</ns3:atemp>
            <ns3:hr>140</ns3:hr>
          </ns3:TrackPointExtension>
        </extensions>
      </trkpt>
      <trkpt lat="46.63335607387125492095947265625" lon="6.886917315423488616943359375">
        <ele>757.5999755859375</ele>
        <time>2013-08-15T17:17:06.000Z</time>
        <extensions>
          <ns3:TrackPointExtension>
            <ns3:atemp>16.0</ns3:atemp>
            <ns3:hr>139</ns3:hr>
          </ns3:TrackPointExtension>
        </extensions>
      </trkpt>
      <trkpt lat="46.63340158760547637939453125" lon="6.88695461489260196685791015625">
        <ele>757.20001220703125</ele>
        <time>2013-08-15T17:17:07.000Z</time>
        <extensions>
          <ns3:TrackPointExtension>
            <ns3:atemp>16.0</ns3:atemp>
            <ns3:hr>139</ns3:hr>
          </ns3:TrackPointExtension>
        </extensions>
      </trkpt>
      <trkpt lat="46.6334647871553897857666015625" lon="6.88699618913233280181884765625">
        <ele>756.79998779296875</ele>
        <time>2013-08-15T17:17:08.000Z</time>
        <extensions>
          <ns3:TrackPointExtension>
            <ns3:atemp>16.0</ns3:atemp>
            <ns3:hr>139</ns3:hr>
          </ns3:TrackPointExtension>
        </extensions>
      </trkpt>
      <trkpt lat="46.63351918570697307586669921875" lon="6.8870385177433490753173828125">
        <ele>756.5999755859375</ele>
        <time>2013-08-15T17:17:09.000Z</time>
        <extensions>
          <ns3:TrackPointExtension>
            <ns3:atemp>16.0</ns3:atemp>
            <ns3:hr>139</ns3:hr>
          </ns3:TrackPointExtension>
        </extensions>
      </trkpt>
      <trkpt lat="46.63357249461114406585693359375" lon="6.88707112334668636322021484375">
        <ele>756</ele>
        <time>2013-08-15T17:17:10.000Z</time>
        <extensions>
          <ns3:TrackPointExtension>
            <ns3:atemp>16.0</ns3:atemp>
            <ns3:hr>139</ns3:hr>
          </ns3:TrackPointExtension>
        </extensions>
      </trkpt>
      <trkpt lat="46.63362278603017330169677734375" lon="6.88708956353366374969482421875">
        <ele>755.5999755859375</ele>
        <time>2013-08-15T17:17:11.000Z</time>
        <extensions>
          <ns3:TrackPointExtension>
            <ns3:atemp>16.0</ns3:atemp>
            <ns3:hr>139</ns3:hr>
          </ns3:TrackPointExtension>
        </extensions>
      </trkpt>
      <trkpt lat="46.6336807049810886383056640625" lon="6.887091659009456634521484375">
        <ele>755.4000244140625</ele>
        <time>2013-08-15T17:17:12.000Z</time>
        <extensions>
          <ns3:TrackPointExtension>
            <ns3:atemp>16.0</ns3:atemp>
            <ns3:hr>138</ns3:hr>
          </ns3:TrackPointExtension>
        </extensions>
      </trkpt>
      <trkpt lat="46.63374030031263828277587890625" lon="6.887071542441844940185546875">
        <ele>755.20001220703125</ele>
        <time>2013-08-15T17:17:13.000Z</time>
        <extensions>
          <ns3:TrackPointExtension>
            <ns3:atemp>16.0</ns3:atemp>
            <ns3:hr>138</ns3:hr>
          </ns3:TrackPointExtension>
        </extensions>
      </trkpt>
      <trkpt lat="46.6337916813790798187255859375" lon="6.88707162626087665557861328125">
        <ele>755</ele>
        <time>2013-08-15T17:17:14.000Z</time>
        <extensions>
          <ns3:TrackPointExtension>
            <ns3:atemp>16.0</ns3:atemp>
            <ns3:hr>137</ns3:hr>
          </ns3:TrackPointExtension>
        </extensions>
      </trkpt>
      <trkpt lat="46.63386401720345020294189453125" lon="6.8871008791029453277587890625">
        <ele>755</ele>
        <time>2013-08-15T17:17:15.000Z</time>
        <extensions>
          <ns3:TrackPointExtension>
            <ns3:atemp>16.0</ns3:atemp>
            <ns3:hr>137</ns3:hr>
          </ns3:TrackPointExtension>
        </extensions>
      </trkpt>
      <trkpt lat="46.63393878377974033355712890625" lon="6.88713197596371173858642578125">
        <ele>754.4000244140625</ele>
        <time>2013-08-15T17:17:16.000Z</time>
        <extensions>
          <ns3:TrackPointExtension>
            <ns3:atemp>16.0</ns3:atemp>
            <ns3:hr>136</ns3:hr>
          </ns3:TrackPointExtension>
        </extensions>
      </trkpt>
      <trkpt lat="46.63400231860578060150146484375" lon="6.8871496617794036865234375">
        <ele>753</ele>
        <time>2013-08-15T17:17:17.000Z</time>
        <extensions>
          <ns3:TrackPointExtension>
            <ns3:atemp>16.0</ns3:atemp>
            <ns3:hr>136</ns3:hr>
          </ns3:TrackPointExtension>
        </extensions>
      </trkpt>
      <trkpt lat="46.63407339714467525482177734375" lon="6.8871572054922580718994140625">
        <ele>752.5999755859375</ele>
        <time>2013-08-15T17:17:18.000Z</time>
        <extensions>
          <ns3:TrackPointExtension>
            <ns3:atemp>16.0</ns3:atemp>
            <ns3:hr>135</ns3:hr>
          </ns3:TrackPointExtension>
        </extensions>
      </trkpt>
      <trkpt lat="46.63414313457906246185302734375" lon="6.8871612288057804107666015625">
        <ele>751.20001220703125</ele>
        <time>2013-08-15T17:17:19.000Z</time>
        <extensions>
          <ns3:TrackPointExtension>
            <ns3:atemp>16.0</ns3:atemp>
            <ns3:hr>134</ns3:hr>
          </ns3:TrackPointExtension>
        </extensions>
      </trkpt>
      <trkpt lat="46.6342084296047687530517578125" lon="6.88717086799442768096923828125">
        <ele>749.5999755859375</ele>
        <time>2013-08-15T17:17:20.000Z</time>
        <extensions>
          <ns3:TrackPointExtension>
            <ns3:atemp>16.0</ns3:atemp>
            <ns3:hr>134</ns3:hr>
          </ns3:TrackPointExtension>
        </extensions>
      </trkpt>
      <trkpt lat="46.6343023069202899932861328125" lon="6.88721361570060253143310546875">
        <ele>748.5999755859375</ele>
        <time>2013-08-15T17:17:21.000Z</time>
        <extensions>
          <ns3:TrackPointExtension>
            <ns3:atemp>16.0</ns3:atemp>
            <ns3:hr>133</ns3:hr>
          </ns3:TrackPointExtension>
        </extensions>
      </trkpt>
      <trkpt lat="46.63438939489424228668212890625" lon="6.88726139254868030548095703125">
        <ele>748.4000244140625</ele>
        <time>2013-08-15T17:17:22.000Z</time>
        <extensions>
          <ns3:TrackPointExtension>
            <ns3:atemp>16.0</ns3:atemp>
            <ns3:hr>132</ns3:hr>
          </ns3:TrackPointExtension>
        </extensions>
      </trkpt>
      <trkpt lat="46.6344689391553401947021484375" lon="6.88731956295669078826904296875">
        <ele>748.4000244140625</ele>
        <time>2013-08-15T17:17:23.000Z</time>
        <extensions>
          <ns3:TrackPointExtension>
            <ns3:atemp>16.0</ns3:atemp>
            <ns3:hr>131</ns3:hr>
          </ns3:TrackPointExtension>
        </extensions>
      </trkpt>
      <trkpt lat="46.6345500759780406951904296875" lon="6.8873856961727142333984375">
        <ele>748</ele>
        <time>2013-08-15T17:17:24.000Z</time>
        <extensions>
          <ns3:TrackPointExtension>
            <ns3:atemp>16.0</ns3:atemp>
            <ns3:hr>131</ns3:hr>
          </ns3:TrackPointExtension>
        </extensions>
      </trkpt>
      <trkpt lat="46.63463179953396320343017578125" lon="6.8874572776257991790771484375">
        <ele>747.4000244140625</ele>
        <time>2013-08-15T17:17:25.000Z</time>
        <extensions>
          <ns3:TrackPointExtension>
            <ns3:atemp>16.0</ns3:atemp>
            <ns3:hr>130</ns3:hr>
          </ns3:TrackPointExtension>
        </extensions>
      </trkpt>
      <trkpt lat="46.63471461273729801177978515625" lon="6.8875347264111042022705078125">
        <ele>746.79998779296875</ele>
        <time>2013-08-15T17:17:26.000Z</time>
        <extensions>
          <ns3:TrackPointExtension>
            <ns3:atemp>16.0</ns3:atemp>
            <ns3:hr>129</ns3:hr>
          </ns3:TrackPointExtension>
        </extensions>
      </trkpt>
      <trkpt lat="46.63478166796267032623291015625" lon="6.887605302035808563232421875">
        <ele>746.4000244140625</ele>
        <time>2013-08-15T17:17:27.000Z</time>
        <extensions>
          <ns3:TrackPointExtension>
            <ns3:atemp>16.0</ns3:atemp>
            <ns3:hr>129</ns3:hr>
          </ns3:TrackPointExtension>
        </extensions>
      </trkpt>
      <trkpt lat="46.63484520278871059417724609375" lon="6.887671016156673431396484375">
        <ele>745.4000244140625</ele>
        <time>2013-08-15T17:17:28.000Z</time>
        <extensions>
          <ns3:TrackPointExtension>
            <ns3:atemp>16.0</ns3:atemp>
            <ns3:hr>128</ns3:hr>
          </ns3:TrackPointExtension>
        </extensions>
      </trkpt>
      <trkpt lat="46.6349034570157527923583984375" lon="6.88772658817470073699951171875">
        <ele>744</ele>
        <time>2013-08-15T17:17:29.000Z</time>
        <extensions>
          <ns3:TrackPointExtension>
            <ns3:atemp>16.0</ns3:atemp>
            <ns3:hr>127</ns3:hr>
          </ns3:TrackPointExtension>
        </extensions>
      </trkpt>
      <trkpt lat="46.63495601154863834381103515625" lon="6.88776992261409759521484375">
        <ele>742.4000244140625</ele>
        <time>2013-08-15T17:17:30.000Z</time>
        <extensions>
          <ns3:TrackPointExtension>
            <ns3:atemp>16.0</ns3:atemp>
            <ns3:hr>126</ns3:hr>
          </ns3:TrackPointExtension>
        </extensions>
      </trkpt>
      <trkpt lat="46.63500420749187469482421875" lon="6.88779096119105815887451171875">
        <ele>741.20001220703125</ele>
        <time>2013-08-15T17:17:31.000Z</time>
        <extensions>
          <ns3:TrackPointExtension>
            <ns3:atemp>16.0</ns3:atemp>
            <ns3:hr>125</ns3:hr>
          </ns3:TrackPointExtension>
        </extensions>
      </trkpt>
      <trkpt lat="46.635044775903224945068359375" lon="6.887782998383045196533203125">
        <ele>740.5999755859375</ele>
        <time>2013-08-15T17:17:32.000Z</time>
        <extensions>
          <ns3:TrackPointExtension>
            <ns3:atemp>16.0</ns3:atemp>
            <ns3:hr>124</ns3:hr>
          </ns3:TrackPointExtension>
        </extensions>
      </trkpt>
      <trkpt lat="46.63507386110723018646240234375" lon="6.88775693066418170928955078125">
        <ele>740</ele>
        <time>2013-08-15T17:17:33.000Z</time>
        <extensions>
          <ns3:TrackPointExtension>
            <ns3:atemp>16.0</ns3:atemp>
            <ns3:hr>124</ns3:hr>
          </ns3:TrackPointExtension>
        </extensions>
      </trkpt>
      <trkpt lat="46.6350972466170787811279296875" lon="6.88772692345082759857177734375">
        <ele>740</ele>
        <time>2013-08-15T17:17:34.000Z</time>
        <extensions>
          <ns3:TrackPointExtension>
            <ns3:atemp>16.0</ns3:atemp>
            <ns3:hr>124</ns3:hr>
          </ns3:TrackPointExtension>
        </extensions>
      </trkpt>
      <trkpt lat="46.635117866098880767822265625" lon="6.887693144381046295166015625">
        <ele>740</ele>
        <time>2013-08-15T17:17:35.000Z</time>
        <extensions>
          <ns3:TrackPointExtension>
            <ns3:atemp>16.0</ns3:atemp>
            <ns3:hr>124</ns3:hr>
          </ns3:TrackPointExtension>
        </extensions>
      </trkpt>
      <trkpt lat="46.6351371444761753082275390625" lon="6.88765500672161579132080078125">
        <ele>740</ele>
        <time>2013-08-15T17:17:36.000Z</time>
        <extensions>
          <ns3:TrackPointExtension>
            <ns3:atemp>16.0</ns3:atemp>
            <ns3:hr>124</ns3:hr>
          </ns3:TrackPointExtension>
        </extensions>
      </trkpt>
      <trkpt lat="46.6351545788347721099853515625" lon="6.88761142082512378692626953125">
        <ele>740.20001220703125</ele>
        <time>2013-08-15T17:17:37.000Z</time>
        <extensions>
          <ns3:TrackPointExtension>
            <ns3:atemp>16.0</ns3:atemp>
            <ns3:hr>124</ns3:hr>
          </ns3:TrackPointExtension>
        </extensions>
      </trkpt>
      <trkpt lat="46.6351753659546375274658203125" lon="6.8875712715089321136474609375">
        <ele>740.5999755859375</ele>
        <time>2013-08-15T17:17:38.000Z</time>
        <extensions>
          <ns3:TrackPointExtension>
            <ns3:atemp>16.0</ns3:atemp>
            <ns3:hr>125</ns3:hr>
          </ns3:TrackPointExtension>
        </extensions>
      </trkpt>
      <trkpt lat="46.63519724272191524505615234375" lon="6.88753791153430938720703125">
        <ele>740.79998779296875</ele>
        <time>2013-08-15T17:17:39.000Z</time>
        <extensions>
          <ns3:TrackPointExtension>
            <ns3:atemp>16.0</ns3:atemp>
            <ns3:hr>125</ns3:hr>
          </ns3:TrackPointExtension>
        </extensions>
      </trkpt>
      <trkpt lat="46.6352199576795101165771484375" lon="6.887502372264862060546875">
        <ele>741</ele>
        <time>2013-08-15T17:17:40.000Z</time>
        <extensions>
          <ns3:TrackPointExtension>
            <ns3:atemp>16.0</ns3:atemp>
            <ns3:hr>125</ns3:hr>
          </ns3:TrackPointExtension>
        </extensions>
      </trkpt>
      <trkpt lat="46.63524434901773929595947265625" lon="6.88746951520442962646484375">
        <ele>741.5999755859375</ele>
        <time>2013-08-15T17:17:41.000Z</time>
        <extensions>
          <ns3:TrackPointExtension>
            <ns3:atemp>16.0</ns3:atemp>
            <ns3:hr>125</ns3:hr>
          </ns3:TrackPointExtension>
        </extensions>
      </trkpt>
      <trkpt lat="46.635266058146953582763671875" lon="6.8874338082969188690185546875">
        <ele>741.79998779296875</ele>
        <time>2013-08-15T17:17:42.000Z</time>
        <extensions>
          <ns3:TrackPointExtension>
            <ns3:atemp>16.0</ns3:atemp>
            <ns3:hr>125</ns3:hr>
          </ns3:TrackPointExtension>
        </extensions>
      </trkpt>
      <trkpt lat="46.63528709672391414642333984375" lon="6.88739784993231296539306640625">
        <ele>742</ele>
        <time>2013-08-15T17:17:43.000Z</time>
        <extensions>
          <ns3:TrackPointExtension>
            <ns3:atemp>16.0</ns3:atemp>
            <ns3:hr>126</ns3:hr>
          </ns3:TrackPointExtension>
        </extensions>
      </trkpt>
      <trkpt lat="46.63531106896698474884033203125" lon="6.88736264593899250030517578125">
        <ele>742.4000244140625</ele>
        <time>2013-08-15T17:17:44.000Z</time>
        <extensions>
          <ns3:TrackPointExtension>
            <ns3:atemp>16.0</ns3:atemp>
            <ns3:hr>126</ns3:hr>
          </ns3:TrackPointExtension>
        </extensions>
      </trkpt>
      <trkpt lat="46.6353393159806728363037109375" lon="6.88733213581144809722900390625">
        <ele>742.5999755859375</ele>
        <time>2013-08-15T17:17:45.000Z</time>
        <extensions>
          <ns3:TrackPointExtension>
            <ns3:atemp>16.0</ns3:atemp>
            <ns3:hr>126</ns3:hr>
          </ns3:TrackPointExtension>
        </extensions>
      </trkpt>
      <trkpt lat="46.6353691555559635162353515625" lon="6.88729693181812763214111328125">
        <ele>742.79998779296875</ele>
        <time>2013-08-15T17:17:46.000Z</time>
        <extensions>
          <ns3:TrackPointExtension>
            <ns3:atemp>16.0</ns3:atemp>
            <ns3:hr>127</ns3:hr>
          </ns3:TrackPointExtension>
        </extensions>
      </trkpt>
      <trkpt lat="46.63539589382708072662353515625" lon="6.8872621469199657440185546875">
        <ele>743</ele>
        <time>2013-08-15T17:17:47.000Z</time>
        <extensions>
          <ns3:TrackPointExtension>
            <ns3:atemp>16.0</ns3:atemp>
            <ns3:hr>127</ns3:hr>
          </ns3:TrackPointExtension>
        </extensions>
      </trkpt>
      <trkpt lat="46.63541953079402446746826171875" lon="6.887234486639499664306640625">
        <ele>743.20001220703125</ele>
        <time>2013-08-15T17:17:48.000Z</time>
        <extensions>
          <ns3:TrackPointExtension>
            <ns3:atemp>16.0</ns3:atemp>
            <ns3:hr>127</ns3:hr>
          </ns3:TrackPointExtension>
        </extensions>
      </trkpt>
      <trkpt lat="46.63544015027582645416259765625" lon="6.88721336424350738525390625">
        <ele>743.4000244140625</ele>
        <time>2013-08-15T17:17:49.000Z</time>
        <extensions>
          <ns3:TrackPointExtension>
            <ns3:atemp>16.0</ns3:atemp>
            <ns3:hr>128</ns3:hr>
          </ns3:TrackPointExtension>
        </extensions>
      </trkpt>
      <trkpt lat="46.6354616917669773101806640625" lon="6.88719752244651317596435546875">
        <ele>743.5999755859375</ele>
        <time>2013-08-15T17:17:50.000Z</time>
        <extensions>
          <ns3:TrackPointExtension>
            <ns3:atemp>16.0</ns3:atemp>
            <ns3:hr>129</ns3:hr>
          </ns3:TrackPointExtension>
        </extensions>
      </trkpt>
      <trkpt lat="46.63548474200069904327392578125" lon="6.8871843628585338592529296875">
        <ele>743.79998779296875</ele>
        <time>2013-08-15T17:17:51.000Z</time>
        <extensions>
          <ns3:TrackPointExtension>
            <ns3:atemp>16.0</ns3:atemp>
            <ns3:hr>129</ns3:hr>
          </ns3:TrackPointExtension>
        </extensions>
      </trkpt>
      <trkpt lat="46.63550955243408679962158203125" lon="6.88717254437506198883056640625">
        <ele>744.20001220703125</ele>
        <time>2013-08-15T17:17:52.000Z</time>
        <extensions>
          <ns3:TrackPointExtension>
            <ns3:atemp>16.0</ns3:atemp>
            <ns3:hr>130</ns3:hr>
          </ns3:TrackPointExtension>
        </extensions>
      </trkpt>
      <trkpt lat="46.6355347819626331329345703125" lon="6.887162737548351287841796875">
        <ele>744.4000244140625</ele>
        <time>2013-08-15T17:17:53.000Z</time>
        <extensions>
          <ns3:TrackPointExtension>
            <ns3:atemp>16.0</ns3:atemp>
            <ns3:hr>131</ns3:hr>
          </ns3:TrackPointExtension>
        </extensions>
      </trkpt>
      <trkpt lat="46.63556135259568691253662109375" lon="6.88716315664350986480712890625">
        <ele>744.79998779296875</ele>
        <time>2013-08-15T17:17:54.000Z</time>
        <extensions>
          <ns3:TrackPointExtension>
            <ns3:atemp>16.0</ns3:atemp>
            <ns3:hr>131</ns3:hr>
          </ns3:TrackPointExtension>
        </extensions>
      </trkpt>
      <trkpt lat="46.6355894319713115692138671875" lon="6.8871665932238101959228515625">
        <ele>745</ele>
        <time>2013-08-15T17:17:55.000Z</time>
        <extensions>
          <ns3:TrackPointExtension>
            <ns3:atemp>16.0</ns3:atemp>
            <ns3:hr>132</ns3:hr>
          </ns3:TrackPointExtension>
        </extensions>
      </trkpt>
      <trkpt lat="46.63562254048883914947509765625" lon="6.8871743045747280120849609375">
        <ele>745.20001220703125</ele>
        <time>2013-08-15T17:17:56.000Z</time>
        <extensions>
          <ns3:TrackPointExtension>
            <ns3:atemp>16.0</ns3:atemp>
            <ns3:hr>132</ns3:hr>
          </ns3:TrackPointExtension>
        </extensions>
      </trkpt>
      <trkpt lat="46.63566294126212596893310546875" lon="6.8871853686869144439697265625">
        <ele>745.4000244140625</ele>
        <time>2013-08-15T17:17:57.000Z</time>
        <extensions>
          <ns3:TrackPointExtension>
            <ns3:atemp>16.0</ns3:atemp>
            <ns3:hr>133</ns3:hr>
          </ns3:TrackPointExtension>
        </extensions>
      </trkpt>
      <trkpt lat="46.6357000730931758880615234375" lon="6.8871917389333248138427734375">
        <ele>745.79998779296875</ele>
        <time>2013-08-15T17:17:58.000Z</time>
        <extensions>
          <ns3:TrackPointExtension>
            <ns3:atemp>16.0</ns3:atemp>
            <ns3:hr>134</ns3:hr>
          </ns3:TrackPointExtension>
        </extensions>
      </trkpt>
      <trkpt lat="46.6357342712581157684326171875" lon="6.88719852827489376068115234375">
        <ele>746.20001220703125</ele>
        <time>2013-08-15T17:17:59.000Z</time>
        <extensions>
          <ns3:TrackPointExtension>
            <ns3:atemp>16.0</ns3:atemp>
            <ns3:hr>134</ns3:hr>
          </ns3:TrackPointExtension>
        </extensions>
      </trkpt>
      <trkpt lat="46.63576503284275531768798828125" lon="6.887198276817798614501953125">
        <ele>746.4000244140625</ele>
        <time>2013-08-15T17:18:00.000Z</time>
        <extensions>
          <ns3:TrackPointExtension>
            <ns3:atemp>16.0</ns3:atemp>
            <ns3:hr>135</ns3:hr>
          </ns3:TrackPointExtension>
        </extensions>
      </trkpt>
      <trkpt lat="46.6357894241809844970703125" lon="6.88719567842781543731689453125">
        <ele>746.5999755859375</ele>
        <time>2013-08-15T17:18:01.000Z</time>
        <extensions>
          <ns3:TrackPointExtension>
            <ns3:atemp>16.0</ns3:atemp>
            <ns3:hr>136</ns3:hr>
          </ns3:TrackPointExtension>
        </extensions>
      </trkpt>
      <trkpt lat="46.63581289350986480712890625" lon="6.887191236019134521484375">
        <ele>747</ele>
        <time>2013-08-15T17:18:02.000Z</time>
        <extensions>
          <ns3:TrackPointExtension>
            <ns3:atemp>16.0</ns3:atemp>
            <ns3:hr>136</ns3:hr>
          </ns3:TrackPointExtension>
        </extensions>
      </trkpt>
      <trkpt lat="46.63583728484809398651123046875" lon="6.88718612305819988250732421875">
        <ele>747.4000244140625</ele>
        <time>2013-08-15T17:18:03.000Z</time>
        <extensions>
          <ns3:TrackPointExtension>
            <ns3:atemp>16.0</ns3:atemp>
            <ns3:hr>137</ns3:hr>
          </ns3:TrackPointExtension>
        </extensions>
      </trkpt>
      <trkpt lat="46.63586494512856006622314453125" lon="6.88718109391629695892333984375">
        <ele>747.79998779296875</ele>
        <time>2013-08-15T17:18:04.000Z</time>
        <extensions>
          <ns3:TrackPointExtension>
            <ns3:atemp>16.0</ns3:atemp>
            <ns3:hr>137</ns3:hr>
          </ns3:TrackPointExtension>
        </extensions>
      </trkpt>
      <trkpt lat="46.63589444942772388458251953125" lon="6.88717455603182315826416015625">
        <ele>748.20001220703125</ele>
        <time>2013-08-15T17:18:05.000Z</time>
        <extensions>
          <ns3:TrackPointExtension>
            <ns3:atemp>16.0</ns3:atemp>
            <ns3:hr>138</ns3:hr>
          </ns3:TrackPointExtension>
        </extensions>
      </trkpt>
      <trkpt lat="46.63592261262238025665283203125" lon="6.88716751523315906524658203125">
        <ele>748.20001220703125</ele>
        <time>2013-08-15T17:18:06.000Z</time>
        <extensions>
          <ns3:TrackPointExtension>
            <ns3:atemp>16.0</ns3:atemp>
            <ns3:hr>138</ns3:hr>
          </ns3:TrackPointExtension>
        </extensions>
      </trkpt>
      <trkpt lat="46.63595094345510005950927734375" lon="6.8871622346341609954833984375">
        <ele>748.4000244140625</ele>
        <time>2013-08-15T17:18:07.000Z</time>
        <extensions>
          <ns3:TrackPointExtension>
            <ns3:atemp>16.0</ns3:atemp>
            <ns3:hr>139</ns3:hr>
          </ns3:TrackPointExtension>
        </extensions>
      </trkpt>
      <trkpt lat="46.635981537401676177978515625" lon="6.8871541880071163177490234375">
        <ele>748.4000244140625</ele>
        <time>2013-08-15T17:18:08.000Z</time>
        <extensions>
          <ns3:TrackPointExtension>
            <ns3:atemp>16.0</ns3:atemp>
            <ns3:hr>139</ns3:hr>
          </ns3:TrackPointExtension>
        </extensions>
      </trkpt>
      <trkpt lat="46.63601464591920375823974609375" lon="6.8871488235890865325927734375">
        <ele>748.4000244140625</ele>
        <time>2013-08-15T17:18:09.000Z</time>
        <extensions>
          <ns3:TrackPointExtension>
            <ns3:atemp>16.0</ns3:atemp>
            <ns3:hr>139</ns3:hr>
          </ns3:TrackPointExtension>
        </extensions>
      </trkpt>
      <trkpt lat="46.636046580970287322998046875" lon="6.887140609323978424072265625">
        <ele>748.5999755859375</ele>
        <time>2013-08-15T17:18:10.000Z</time>
        <extensions>
          <ns3:TrackPointExtension>
            <ns3:atemp>16.0</ns3:atemp>
            <ns3:hr>140</ns3:hr>
          </ns3:TrackPointExtension>
        </extensions>
      </trkpt>
      <trkpt lat="46.63607776165008544921875" lon="6.887120492756366729736328125">
        <ele>748.79998779296875</ele>
        <time>2013-08-15T17:18:11.000Z</time>
        <extensions>
          <ns3:TrackPointExtension>
            <ns3:atemp>16.0</ns3:atemp>
            <ns3:hr>140</ns3:hr>
          </ns3:TrackPointExtension>
        </extensions>
      </trkpt>
      <trkpt lat="46.6361121274530887603759765625" lon="6.88708922825753688812255859375">
        <ele>749</ele>
        <time>2013-08-15T17:18:12.000Z</time>
        <extensions>
          <ns3:TrackPointExtension>
            <ns3:atemp>16.0</ns3:atemp>
            <ns3:hr>140</ns3:hr>
          </ns3:TrackPointExtension>
        </extensions>
      </trkpt>
      <trkpt lat="46.6361429728567600250244140625" lon="6.8870638310909271240234375">
        <ele>749.20001220703125</ele>
        <time>2013-08-15T17:18:13.000Z</time>
        <extensions>
          <ns3:TrackPointExtension>
            <ns3:atemp>16.0</ns3:atemp>
            <ns3:hr>140</ns3:hr>
          </ns3:TrackPointExtension>
        </extensions>
      </trkpt>
      <trkpt lat="46.63617490790784358978271484375" lon="6.8870423734188079833984375">
        <ele>749.20001220703125</ele>
        <time>2013-08-15T17:18:14.000Z</time>
        <extensions>
          <ns3:TrackPointExtension>
            <ns3:atemp>16.0</ns3:atemp>
            <ns3:hr>140</ns3:hr>
          </ns3:TrackPointExtension>
        </extensions>
      </trkpt>
      <trkpt lat="46.63620759733021259307861328125" lon="6.88702787272632122039794921875">
        <ele>749.4000244140625</ele>
        <time>2013-08-15T17:18:15.000Z</time>
        <extensions>
          <ns3:TrackPointExtension>
            <ns3:atemp>16.0</ns3:atemp>
            <ns3:hr>141</ns3:hr>
          </ns3:TrackPointExtension>
        </extensions>
      </trkpt>
      <trkpt lat="46.63624095730483531951904296875" lon="6.8870222568511962890625">
        <ele>749.5999755859375</ele>
        <time>2013-08-15T17:18:16.000Z</time>
        <extensions>
          <ns3:TrackPointExtension>
            <ns3:atemp>16.0</ns3:atemp>
            <ns3:hr>141</ns3:hr>
          </ns3:TrackPointExtension>
        </extensions>
      </trkpt>
      <trkpt lat="46.63627834059298038482666015625" lon="6.88702586106956005096435546875">
        <ele>749.5999755859375</ele>
        <time>2013-08-15T17:18:17.000Z</time>
        <extensions>
          <ns3:TrackPointExtension>
            <ns3:atemp>16.0</ns3:atemp>
            <ns3:hr>141</ns3:hr>
          </ns3:TrackPointExtension>
        </extensions>
      </trkpt>
      <trkpt lat="46.63631589151918888092041015625" lon="6.88702535815536975860595703125">
        <ele>749.79998779296875</ele>
        <time>2013-08-15T17:18:18.000Z</time>
        <extensions>
          <ns3:TrackPointExtension>
            <ns3:atemp>16.0</ns3:atemp>
            <ns3:hr>141</ns3:hr>
          </ns3:TrackPointExtension>
        </extensions>
      </trkpt>
      <trkpt lat="46.63635461591184139251708984375" lon="6.88702167011797428131103515625">
        <ele>750</ele>
        <time>2013-08-15T17:18:19.000Z</time>
        <extensions>
          <ns3:TrackPointExtension>
            <ns3:atemp>16.0</ns3:atemp>
            <ns3:hr>141</ns3:hr>
          </ns3:TrackPointExtension>
        </extensions>
      </trkpt>
      <trkpt lat="46.63639359176158905029296875" lon="6.8870177306234836578369140625">
        <ele>750</ele>
        <time>2013-08-15T17:18:20.000Z</time>
        <extensions>
          <ns3:TrackPointExtension>
            <ns3:atemp>16.0</ns3:atemp>
            <ns3:hr>141</ns3:hr>
          </ns3:TrackPointExtension>
        </extensions>
      </trkpt>
      <trkpt lat="46.63643575273454189300537109375" lon="6.88701211474835872650146484375">
        <ele>750</ele>
        <time>2013-08-15T17:18:21.000Z</time>
        <extensions>
          <ns3:TrackPointExtension>
            <ns3:atemp>16.0</ns3:atemp>
            <ns3:hr>141</ns3:hr>
          </ns3:TrackPointExtension>
        </extensions>
      </trkpt>
      <trkpt lat="46.6364769078791141510009765625" lon="6.88700306229293346405029296875">
        <ele>750</ele>
        <time>2013-08-15T17:18:22.000Z</time>
        <extensions>
          <ns3:TrackPointExtension>
            <ns3:atemp>16.0</ns3:atemp>
            <ns3:hr>141</ns3:hr>
          </ns3:TrackPointExtension>
        </extensions>
      </trkpt>
      <trkpt lat="46.6365124471485614776611328125" lon="6.886983700096607208251953125">
        <ele>750.4000244140625</ele>
        <time>2013-08-15T17:18:23.000Z</time>
        <extensions>
          <ns3:TrackPointExtension>
            <ns3:atemp>16.0</ns3:atemp>
            <ns3:hr>141</ns3:hr>
          </ns3:TrackPointExtension>
        </extensions>
      </trkpt>
      <trkpt lat="46.6365292109549045562744140625" lon="6.88695930875837802886962890625">
        <ele>750.5999755859375</ele>
        <time>2013-08-15T17:18:24.000Z</time>
        <extensions>
          <ns3:TrackPointExtension>
            <ns3:atemp>16.0</ns3:atemp>
            <ns3:hr>141</ns3:hr>
          </ns3:TrackPointExtension>
        </extensions>
      </trkpt>
      <trkpt lat="46.636537425220012664794921875" lon="6.88692460767924785614013671875">
        <ele>751</ele>
        <time>2013-08-15T17:18:25.000Z</time>
        <extensions>
          <ns3:TrackPointExtension>
            <ns3:atemp>16.0</ns3:atemp>
            <ns3:hr>141</ns3:hr>
          </ns3:TrackPointExtension>
        </extensions>
      </trkpt>
      <trkpt lat="46.63653851486742496490478515625" lon="6.8868846260011196136474609375">
        <ele>751</ele>
        <time>2013-08-15T17:18:26.000Z</time>
        <extensions>
          <ns3:TrackPointExtension>
            <ns3:atemp>16.0</ns3:atemp>
            <ns3:hr>142</ns3:hr>
          </ns3:TrackPointExtension>
        </extensions>
      </trkpt>
      <trkpt lat="46.6365323960781097412109375" lon="6.8868460692465305328369140625">
        <ele>751.20001220703125</ele>
        <time>2013-08-15T17:18:27.000Z</time>
        <extensions>
          <ns3:TrackPointExtension>
            <ns3:atemp>16.0</ns3:atemp>
            <ns3:hr>141</ns3:hr>
          </ns3:TrackPointExtension>
        </extensions>
      </trkpt>
      <trkpt lat="46.636520661413669586181640625" lon="6.88681279309093952178955078125">
        <ele>751.5999755859375</ele>
        <time>2013-08-15T17:18:28.000Z</time>
        <extensions>
          <ns3:TrackPointExtension>
            <ns3:atemp>16.0</ns3:atemp>
            <ns3:hr>141</ns3:hr>
          </ns3:TrackPointExtension>
        </extensions>
      </trkpt>
      <trkpt lat="46.63651035167276859283447265625" lon="6.88678815029561519622802734375">
        <ele>752.20001220703125</ele>
        <time>2013-08-15T17:18:29.000Z</time>
        <extensions>
          <ns3:TrackPointExtension>
            <ns3:atemp>16.0</ns3:atemp>
            <ns3:hr>142</ns3:hr>
          </ns3:TrackPointExtension>
        </extensions>
      </trkpt>
      <trkpt lat="46.63649694062769412994384765625" lon="6.88676937483251094818115234375">
        <ele>752.20001220703125</ele>
        <time>2013-08-15T17:18:30.000Z</time>
        <extensions>
          <ns3:TrackPointExtension>
            <ns3:atemp>16.0</ns3:atemp>
            <ns3:hr>142</ns3:hr>
          </ns3:TrackPointExtension>
        </extensions>
      </trkpt>
      <trkpt lat="46.636483110487461090087890625" lon="6.8867558799684047698974609375">
        <ele>752.5999755859375</ele>
        <time>2013-08-15T17:18:31.000Z</time>
        <extensions>
          <ns3:TrackPointExtension>
            <ns3:atemp>16.0</ns3:atemp>
            <ns3:hr>142</ns3:hr>
          </ns3:TrackPointExtension>
        </extensions>
      </trkpt>
      <trkpt lat="46.6364681906998157501220703125" lon="6.88675076700747013092041015625">
        <ele>752.79998779296875</ele>
        <time>2013-08-15T17:18:32.000Z</time>
        <extensions>
          <ns3:TrackPointExtension>
            <ns3:atemp>16.0</ns3:atemp>
            <ns3:hr>142</ns3:hr>
          </ns3:TrackPointExtension>
        </extensions>
      </trkpt>
      <trkpt lat="46.63645184598863124847412109375" lon="6.88674540258944034576416015625">
        <ele>753</ele>
        <time>2013-08-15T17:18:33.000Z</time>
        <extensions>
          <ns3:TrackPointExtension>
            <ns3:atemp>16.0</ns3:atemp>
            <ns3:hr>143</ns3:hr>
          </ns3:TrackPointExtension>
        </extensions>
      </trkpt>
      <trkpt lat="46.63642720319330692291259765625" lon="6.8867394514381885528564453125">
        <ele>753.20001220703125</ele>
        <time>2013-08-15T17:18:34.000Z</time>
        <extensions>
          <ns3:TrackPointExtension>
            <ns3:atemp>16.0</ns3:atemp>
            <ns3:hr>143</ns3:hr>
          </ns3:TrackPointExtension>
        </extensions>
      </trkpt>
      <trkpt lat="46.6363954357802867889404296875" lon="6.88673190772533416748046875">
        <ele>753.4000244140625</ele>
        <time>2013-08-15T17:18:35.000Z</time>
        <extensions>
          <ns3:TrackPointExtension>
            <ns3:atemp>16.0</ns3:atemp>
            <ns3:hr>143</ns3:hr>
          </ns3:TrackPointExtension>
        </extensions>
      </trkpt>
      <trkpt lat="46.63636500947177410125732421875" lon="6.88672117888927459716796875">
        <ele>753.5999755859375</ele>
        <time>2013-08-15T17:18:36.000Z</time>
        <extensions>
          <ns3:TrackPointExtension>
            <ns3:atemp>16.0</ns3:atemp>
            <ns3:hr>143</ns3:hr>
          </ns3:TrackPointExtension>
        </extensions>
      </trkpt>
      <trkpt lat="46.6363337449729442596435546875" lon="6.8867069296538829803466796875">
        <ele>753.79998779296875</ele>
        <time>2013-08-15T17:18:37.000Z</time>
        <extensions>
          <ns3:TrackPointExtension>
            <ns3:atemp>16.0</ns3:atemp>
            <ns3:hr>143</ns3:hr>
          </ns3:TrackPointExtension>
        </extensions>
      </trkpt>
      <trkpt lat="46.63630507886409759521484375" lon="6.88669276423752307891845703125">
        <ele>754</ele>
        <time>2013-08-15T17:18:38.000Z</time>
        <extensions>
          <ns3:TrackPointExtension>
            <ns3:atemp>16.0</ns3:atemp>
            <ns3:hr>143</ns3:hr>
          </ns3:TrackPointExtension>
        </extensions>
      </trkpt>
      <trkpt lat="46.636277250945568084716796875" lon="6.88668237067759037017822265625">
        <ele>754.4000244140625</ele>
        <time>2013-08-15T17:18:39.000Z</time>
        <extensions>
          <ns3:TrackPointExtension>
            <ns3:atemp>16.0</ns3:atemp>
            <ns3:hr>143</ns3:hr>
          </ns3:TrackPointExtension>
        </extensions>
      </trkpt>
      <trkpt lat="46.6362529434263706207275390625" lon="6.88667382113635540008544921875">
        <ele>754.4000244140625</ele>
        <time>2013-08-15T17:18:40.000Z</time>
        <extensions>
          <ns3:TrackPointExtension>
            <ns3:atemp>16.0</ns3:atemp>
            <ns3:hr>143</ns3:hr>
          </ns3:TrackPointExtension>
        </extensions>
      </trkpt>
      <trkpt lat="46.63623039610683917999267578125" lon="6.88666309230029582977294921875">
        <ele>754.5999755859375</ele>
        <time>2013-08-15T17:18:41.000Z</time>
        <extensions>
          <ns3:TrackPointExtension>
            <ns3:atemp>16.0</ns3:atemp>
            <ns3:hr>143</ns3:hr>
          </ns3:TrackPointExtension>
        </extensions>
      </trkpt>
      <trkpt lat="46.6362060047686100006103515625" lon="6.8866485916078090667724609375">
        <ele>754.79998779296875</ele>
        <time>2013-08-15T17:18:42.000Z</time>
        <extensions>
          <ns3:TrackPointExtension>
            <ns3:atemp>16.0</ns3:atemp>
            <ns3:hr>144</ns3:hr>
          </ns3:TrackPointExtension>
        </extensions>
      </trkpt>
      <trkpt lat="46.6361810266971588134765625" lon="6.88663777895271778106689453125">
        <ele>754.79998779296875</ele>
        <time>2013-08-15T17:18:43.000Z</time>
        <extensions>
          <ns3:TrackPointExtension>
            <ns3:atemp>16.0</ns3:atemp>
            <ns3:hr>144</ns3:hr>
          </ns3:TrackPointExtension>
        </extensions>
      </trkpt>
      <trkpt lat="46.63615487515926361083984375" lon="6.88662730157375335693359375">
        <ele>755</ele>
        <time>2013-08-15T17:18:44.000Z</time>
        <extensions>
          <ns3:TrackPointExtension>
            <ns3:atemp>16.0</ns3:atemp>
            <ns3:hr>144</ns3:hr>
          </ns3:TrackPointExtension>
        </extensions>
      </trkpt>
      <trkpt lat="46.6361285559833049774169921875" lon="6.88661648891866207122802734375">
        <ele>755.4000244140625</ele>
        <time>2013-08-15T17:18:45.000Z</time>
        <extensions>
          <ns3:TrackPointExtension>
            <ns3:atemp>16.0</ns3:atemp>
            <ns3:hr>144</ns3:hr>
          </ns3:TrackPointExtension>
        </extensions>
      </trkpt>
      <trkpt lat="46.63609678857028484344482421875" lon="6.88660944811999797821044921875">
        <ele>755.79998779296875</ele>
        <time>2013-08-15T17:18:46.000Z</time>
        <extensions>
          <ns3:TrackPointExtension>
            <ns3:atemp>16.0</ns3:atemp>
            <ns3:hr>144</ns3:hr>
          </ns3:TrackPointExtension>
        </extensions>
      </trkpt>
      <trkpt lat="46.63606502115726470947265625" lon="6.886595450341701507568359375">
        <ele>756</ele>
        <time>2013-08-15T17:18:47.000Z</time>
        <extensions>
          <ns3:TrackPointExtension>
            <ns3:atemp>16.0</ns3:atemp>
            <ns3:hr>145</ns3:hr>
          </ns3:TrackPointExtension>
        </extensions>
      </trkpt>
      <trkpt lat="46.63603291846811771392822265625" lon="6.88657927326858043670654296875">
        <ele>756</ele>
        <time>2013-08-15T17:18:48.000Z</time>
        <extensions>
          <ns3:TrackPointExtension>
            <ns3:atemp>16.0</ns3:atemp>
            <ns3:hr>145</ns3:hr>
          </ns3:TrackPointExtension>
        </extensions>
      </trkpt>
      <trkpt lat="46.63599167950451374053955078125" lon="6.88656183890998363494873046875">
        <ele>756.4000244140625</ele>
        <time>2013-08-15T17:18:49.000Z</time>
        <extensions>
          <ns3:TrackPointExtension>
            <ns3:atemp>16.0</ns3:atemp>
            <ns3:hr>145</ns3:hr>
          </ns3:TrackPointExtension>
        </extensions>
      </trkpt>
      <trkpt lat="46.635954044759273529052734375" lon="6.88654909841716289520263671875">
        <ele>756.79998779296875</ele>
        <time>2013-08-15T17:18:50.000Z</time>
        <extensions>
          <ns3:TrackPointExtension>
            <ns3:atemp>16.0</ns3:atemp>
            <ns3:hr>146</ns3:hr>
          </ns3:TrackPointExtension>
        </extensions>
      </trkpt>
      <trkpt lat="46.6359153203666210174560546875" lon="6.8865381181240081787109375">
        <ele>757</ele>
        <time>2013-08-15T17:18:51.000Z</time>
        <extensions>
          <ns3:TrackPointExtension>
            <ns3:atemp>16.0</ns3:atemp>
            <ns3:hr>146</ns3:hr>
          </ns3:TrackPointExtension>
        </extensions>
      </trkpt>
      <trkpt lat="46.6358827985823154449462890625" lon="6.8865191750228404998779296875">
        <ele>757.20001220703125</ele>
        <time>2013-08-15T17:18:52.000Z</time>
        <extensions>
          <ns3:TrackPointExtension>
            <ns3:atemp>16.0</ns3:atemp>
            <ns3:hr>146</ns3:hr>
          </ns3:TrackPointExtension>
        </extensions>
      </trkpt>
      <trkpt lat="46.63584616966545581817626953125" lon="6.88650433905422687530517578125">
        <ele>757.5999755859375</ele>
        <time>2013-08-15T17:18:53.000Z</time>
        <extensions>
          <ns3:TrackPointExtension>
            <ns3:atemp>16.0</ns3:atemp>
            <ns3:hr>146</ns3:hr>
          </ns3:TrackPointExtension>
        </extensions>
      </trkpt>
      <trkpt lat="46.6358135640621185302734375" lon="6.88648891635239124298095703125">
        <ele>757.79998779296875</ele>
        <time>2013-08-15T17:18:54.000Z</time>
        <extensions>
          <ns3:TrackPointExtension>
            <ns3:atemp>16.0</ns3:atemp>
            <ns3:hr>146</ns3:hr>
          </ns3:TrackPointExtension>
        </extensions>
      </trkpt>
      <trkpt lat="46.635780371725559234619140625" lon="6.886473409831523895263671875">
        <ele>757.79998779296875</ele>
        <time>2013-08-15T17:18:55.000Z</time>
        <extensions>
          <ns3:TrackPointExtension>
            <ns3:atemp>16.0</ns3:atemp>
            <ns3:hr>147</ns3:hr>
          </ns3:TrackPointExtension>
        </extensions>
      </trkpt>
      <trkpt lat="46.635746844112873077392578125" lon="6.886458657681941986083984375">
        <ele>758</ele>
        <time>2013-08-15T17:18:56.000Z</time>
        <extensions>
          <ns3:TrackPointExtension>
            <ns3:atemp>16.0</ns3:atemp>
            <ns3:hr>147</ns3:hr>
          </ns3:TrackPointExtension>
        </extensions>
      </trkpt>
      <trkpt lat="46.6357118077576160430908203125" lon="6.886445581912994384765625">
        <ele>758</ele>
        <time>2013-08-15T17:18:57.000Z</time>
        <extensions>
          <ns3:TrackPointExtension>
            <ns3:atemp>16.0</ns3:atemp>
            <ns3:hr>147</ns3:hr>
          </ns3:TrackPointExtension>
        </extensions>
      </trkpt>
      <trkpt lat="46.63568012416362762451171875" lon="6.88643225468695163726806640625">
        <ele>758.20001220703125</ele>
        <time>2013-08-15T17:18:58.000Z</time>
        <extensions>
          <ns3:TrackPointExtension>
            <ns3:atemp>16.0</ns3:atemp>
            <ns3:hr>147</ns3:hr>
          </ns3:TrackPointExtension>
        </extensions>
      </trkpt>
      <trkpt lat="46.63564936257898807525634765625" lon="6.88642102293670177459716796875">
        <ele>758.20001220703125</ele>
        <time>2013-08-15T17:18:59.000Z</time>
        <extensions>
          <ns3:TrackPointExtension>
            <ns3:atemp>16.0</ns3:atemp>
            <ns3:hr>147</ns3:hr>
          </ns3:TrackPointExtension>
        </extensions>
      </trkpt>
      <trkpt lat="46.635619103908538818359375" lon="6.88640912063419818878173828125">
        <ele>758.4000244140625</ele>
        <time>2013-08-15T17:19:00.000Z</time>
        <extensions>
          <ns3:TrackPointExtension>
            <ns3:atemp>16.0</ns3:atemp>
            <ns3:hr>146</ns3:hr>
          </ns3:TrackPointExtension>
        </extensions>
      </trkpt>
      <trkpt lat="46.63559102453291416168212890625" lon="6.886396966874599456787109375">
        <ele>758.5999755859375</ele>
        <time>2013-08-15T17:19:01.000Z</time>
        <extensions>
          <ns3:TrackPointExtension>
            <ns3:atemp>16.0</ns3:atemp>
            <ns3:hr>147</ns3:hr>
          </ns3:TrackPointExtension>
        </extensions>
      </trkpt>
      <trkpt lat="46.635563783347606658935546875" lon="6.88637911342084407806396484375">
        <ele>758.5999755859375</ele>
        <time>2013-08-15T17:19:02.000Z</time>
        <extensions>
          <ns3:TrackPointExtension>
            <ns3:atemp>16.0</ns3:atemp>
            <ns3:hr>147</ns3:hr>
          </ns3:TrackPointExtension>
        </extensions>
      </trkpt>
      <trkpt lat="46.63553738035261631011962890625" lon="6.88635631464421749114990234375">
        <ele>758.5999755859375</ele>
        <time>2013-08-15T17:19:03.000Z</time>
        <extensions>
          <ns3:TrackPointExtension>
            <ns3:atemp>16.0</ns3:atemp>
            <ns3:hr>146</ns3:hr>
          </ns3:TrackPointExtension>
        </extensions>
      </trkpt>
      <trkpt lat="46.63550578057765960693359375" lon="6.8863364495337009429931640625">
        <ele>758.79998779296875</ele>
        <time>2013-08-15T17:19:04.000Z</time>
        <extensions>
          <ns3:TrackPointExtension>
            <ns3:atemp>16.0</ns3:atemp>
            <ns3:hr>146</ns3:hr>
          </ns3:TrackPointExtension>
        </extensions>
      </trkpt>
      <trkpt lat="46.63546948693692684173583984375" lon="6.8863181769847869873046875">
        <ele>759</ele>
        <time>2013-08-15T17:19:05.000Z</time>
        <extensions>
          <ns3:TrackPointExtension>
            <ns3:atemp>16.0</ns3:atemp>
            <ns3:hr>146</ns3:hr>
          </ns3:TrackPointExtension>
        </extensions>
      </trkpt>
      <trkpt lat="46.6354295052587985992431640625" lon="6.88630484975874423980712890625">
        <ele>759</ele>
        <time>2013-08-15T17:19:06.000Z</time>
        <extensions>
          <ns3:TrackPointExtension>
            <ns3:atemp>16.0</ns3:atemp>
            <ns3:hr>146</ns3:hr>
          </ns3:TrackPointExtension>
        </extensions>
      </trkpt>
      <trkpt lat="46.63538700900971889495849609375" lon="6.8862958811223506927490234375">
        <ele>759.20001220703125</ele>
        <time>2013-08-15T17:19:07.000Z</time>
        <extensions>
          <ns3:TrackPointExtension>
            <ns3:atemp>16.0</ns3:atemp>
            <ns3:hr>146</ns3:hr>
          </ns3:TrackPointExtension>
        </extensions>
      </trkpt>
      <trkpt lat="46.63534208200871944427490234375" lon="6.8862965516746044158935546875">
        <ele>759.20001220703125</ele>
        <time>2013-08-15T17:19:08.000Z</time>
        <extensions>
          <ns3:TrackPointExtension>
            <ns3:atemp>16.0</ns3:atemp>
            <ns3:hr>145</ns3:hr>
          </ns3:TrackPointExtension>
        </extensions>
      </trkpt>
      <trkpt lat="46.63529698736965656280517578125" lon="6.88629982061684131622314453125">
        <ele>759.4000244140625</ele>
        <time>2013-08-15T17:19:09.000Z</time>
        <extensions>
          <ns3:TrackPointExtension>
            <ns3:atemp>16.0</ns3:atemp>
            <ns3:hr>145</ns3:hr>
          </ns3:TrackPointExtension>
        </extensions>
      </trkpt>
      <trkpt lat="46.6352508030831813812255859375" lon="6.88631239347159862518310546875">
        <ele>759.4000244140625</ele>
        <time>2013-08-15T17:19:10.000Z</time>
        <extensions>
          <ns3:TrackPointExtension>
            <ns3:atemp>16.0</ns3:atemp>
            <ns3:hr>145</ns3:hr>
          </ns3:TrackPointExtension>
        </extensions>
      </trkpt>
      <trkpt lat="46.63520537316799163818359375" lon="6.8863334320485591888427734375">
        <ele>759.5999755859375</ele>
        <time>2013-08-15T17:19:11.000Z</time>
        <extensions>
          <ns3:TrackPointExtension>
            <ns3:atemp>16.0</ns3:atemp>
            <ns3:hr>145</ns3:hr>
          </ns3:TrackPointExtension>
        </extensions>
      </trkpt>
      <trkpt lat="46.63515969179570674896240234375" lon="6.88635111786425113677978515625">
        <ele>759.5999755859375</ele>
        <time>2013-08-15T17:19:12.000Z</time>
        <extensions>
          <ns3:TrackPointExtension>
            <ns3:atemp>16.0</ns3:atemp>
            <ns3:hr>145</ns3:hr>
          </ns3:TrackPointExtension>
        </extensions>
      </trkpt>
      <trkpt lat="46.63511417806148529052734375" lon="6.8863656185567378997802734375">
        <ele>759.79998779296875</ele>
        <time>2013-08-15T17:19:13.000Z</time>
        <extensions>
          <ns3:TrackPointExtension>
            <ns3:atemp>16.0</ns3:atemp>
            <ns3:hr>145</ns3:hr>
          </ns3:TrackPointExtension>
        </extensions>
      </trkpt>
      <trkpt lat="46.635060869157314300537109375" lon="6.88638011924922466278076171875">
        <ele>760</ele>
        <time>2013-08-15T17:19:14.000Z</time>
        <extensions>
          <ns3:TrackPointExtension>
            <ns3:atemp>16.0</ns3:atemp>
            <ns3:hr>144</ns3:hr>
          </ns3:TrackPointExtension>
        </extensions>
      </trkpt>
      <trkpt lat="46.6349946521222591400146484375" lon="6.88639503903687000274658203125">
        <ele>760.20001220703125</ele>
        <time>2013-08-15T17:19:15.000Z</time>
        <extensions>
          <ns3:TrackPointExtension>
            <ns3:atemp>16.0</ns3:atemp>
            <ns3:hr>144</ns3:hr>
          </ns3:TrackPointExtension>
        </extensions>
      </trkpt>
      <trkpt lat="46.634919382631778717041015625" lon="6.88640333712100982666015625">
        <ele>760.20001220703125</ele>
        <time>2013-08-15T17:19:16.000Z</time>
        <extensions>
          <ns3:TrackPointExtension>
            <ns3:atemp>16.0</ns3:atemp>
            <ns3:hr>145</ns3:hr>
          </ns3:TrackPointExtension>
        </extensions>
      </trkpt>
      <trkpt lat="46.634862385690212249755859375" lon="6.8864035047590732574462890625">
        <ele>760.4000244140625</ele>
        <time>2013-08-15T17:19:17.000Z</time>
        <extensions>
          <ns3:TrackPointExtension>
            <ns3:atemp>16.0</ns3:atemp>
            <ns3:hr>144</ns3:hr>
          </ns3:TrackPointExtension>
        </extensions>
      </trkpt>
      <trkpt lat="46.63481754250824451446533203125" lon="6.88640660606324672698974609375">
        <ele>760.4000244140625</ele>
        <time>2013-08-15T17:19:18.000Z</time>
        <extensions>
          <ns3:TrackPointExtension>
            <ns3:atemp>16.0</ns3:atemp>
            <ns3:hr>144</ns3:hr>
          </ns3:TrackPointExtension>
        </extensions>
      </trkpt>
      <trkpt lat="46.63477211259305477142333984375" lon="6.886403001844882965087890625">
        <ele>760.5999755859375</ele>
        <time>2013-08-15T17:19:19.000Z</time>
        <extensions>
          <ns3:TrackPointExtension>
            <ns3:atemp>16.0</ns3:atemp>
            <ns3:hr>144</ns3:hr>
          </ns3:TrackPointExtension>
        </extensions>
      </trkpt>
      <trkpt lat="46.63472651503980159759521484375" lon="6.886394955217838287353515625">
        <ele>760.5999755859375</ele>
        <time>2013-08-15T17:19:20.000Z</time>
        <extensions>
          <ns3:TrackPointExtension>
            <ns3:atemp>16.0</ns3:atemp>
            <ns3:hr>145</ns3:hr>
          </ns3:TrackPointExtension>
        </extensions>
      </trkpt>
      <trkpt lat="46.6346841864287853240966796875" lon="6.8863817118108272552490234375">
        <ele>761</ele>
        <time>2013-08-15T17:19:21.000Z</time>
        <extensions>
          <ns3:TrackPointExtension>
            <ns3:atemp>16.0</ns3:atemp>
            <ns3:hr>145</ns3:hr>
          </ns3:TrackPointExtension>
        </extensions>
      </trkpt>
      <trkpt lat="46.63464571349322795867919921875" lon="6.88636243343353271484375">
        <ele>761.20001220703125</ele>
        <time>2013-08-15T17:19:22.000Z</time>
        <extensions>
          <ns3:TrackPointExtension>
            <ns3:atemp>16.0</ns3:atemp>
            <ns3:hr>145</ns3:hr>
          </ns3:TrackPointExtension>
        </extensions>
      </trkpt>
      <trkpt lat="46.63460900075733661651611328125" lon="6.88634709455072879791259765625">
        <ele>761.4000244140625</ele>
        <time>2013-08-15T17:19:23.000Z</time>
        <extensions>
          <ns3:TrackPointExtension>
            <ns3:atemp>16.0</ns3:atemp>
            <ns3:hr>144</ns3:hr>
          </ns3:TrackPointExtension>
        </extensions>
      </trkpt>
      <trkpt lat="46.6345701925456523895263671875" lon="6.88632882200181484222412109375">
        <ele>761.5999755859375</ele>
        <time>2013-08-15T17:19:24.000Z</time>
        <extensions>
          <ns3:TrackPointExtension>
            <ns3:atemp>16.0</ns3:atemp>
            <ns3:hr>144</ns3:hr>
          </ns3:TrackPointExtension>
        </extensions>
      </trkpt>
      <trkpt lat="46.6345309652388095855712890625" lon="6.8863082863390445709228515625">
        <ele>761.5999755859375</ele>
        <time>2013-08-15T17:19:25.000Z</time>
        <extensions>
          <ns3:TrackPointExtension>
            <ns3:atemp>16.0</ns3:atemp>
            <ns3:hr>144</ns3:hr>
          </ns3:TrackPointExtension>
        </extensions>
      </trkpt>
      <trkpt lat="46.6344912350177764892578125" lon="6.88628741540014743804931640625">
        <ele>761.5999755859375</ele>
        <time>2013-08-15T17:19:26.000Z</time>
        <extensions>
          <ns3:TrackPointExtension>
            <ns3:atemp>16.0</ns3:atemp>
            <ns3:hr>144</ns3:hr>
          </ns3:TrackPointExtension>
        </extensions>
      </trkpt>
      <trkpt lat="46.63444890640676021575927734375" lon="6.88626528717577457427978515625">
        <ele>761.5999755859375</ele>
        <time>2013-08-15T17:19:27.000Z</time>
        <extensions>
          <ns3:TrackPointExtension>
            <ns3:atemp>16.0</ns3:atemp>
            <ns3:hr>144</ns3:hr>
          </ns3:TrackPointExtension>
        </extensions>
      </trkpt>
      <trkpt lat="46.63440062664449214935302734375" lon="6.8862439133226871490478515625">
        <ele>761.79998779296875</ele>
        <time>2013-08-15T17:19:28.000Z</time>
        <extensions>
          <ns3:TrackPointExtension>
            <ns3:atemp>16.0</ns3:atemp>
            <ns3:hr>144</ns3:hr>
          </ns3:TrackPointExtension>
        </extensions>
      </trkpt>
      <trkpt lat="46.6343556158244609832763671875" lon="6.886225640773773193359375">
        <ele>762</ele>
        <time>2013-08-15T17:19:29.000Z</time>
        <extensions>
          <ns3:TrackPointExtension>
            <ns3:atemp>16.0</ns3:atemp>
            <ns3:hr>144</ns3:hr>
          </ns3:TrackPointExtension>
        </extensions>
      </trkpt>
      <trkpt lat="46.634312532842159271240234375" lon="6.8862201087176799774169921875">
        <ele>762.20001220703125</ele>
        <time>2013-08-15T17:19:30.000Z</time>
        <extensions>
          <ns3:TrackPointExtension>
            <ns3:atemp>16.0</ns3:atemp>
            <ns3:hr>144</ns3:hr>
          </ns3:TrackPointExtension>
        </extensions>
      </trkpt>
      <trkpt lat="46.63427171297371387481689453125" lon="6.8862261436879634857177734375">
        <ele>762.20001220703125</ele>
        <time>2013-08-15T17:19:31.000Z</time>
        <extensions>
          <ns3:TrackPointExtension>
            <ns3:atemp>16.0</ns3:atemp>
            <ns3:hr>144</ns3:hr>
          </ns3:TrackPointExtension>
        </extensions>
      </trkpt>
      <trkpt lat="46.6342285461723804473876953125" lon="6.88624332658946514129638671875">
        <ele>762.4000244140625</ele>
        <time>2013-08-15T17:19:32.000Z</time>
        <extensions>
          <ns3:TrackPointExtension>
            <ns3:atemp>16.0</ns3:atemp>
            <ns3:hr>144</ns3:hr>
          </ns3:TrackPointExtension>
        </extensions>
      </trkpt>
      <trkpt lat="46.63418705575168132781982421875" lon="6.88626579008996486663818359375">
        <ele>762.5999755859375</ele>
        <time>2013-08-15T17:19:33.000Z</time>
        <extensions>
          <ns3:TrackPointExtension>
            <ns3:atemp>16.0</ns3:atemp>
            <ns3:hr>144</ns3:hr>
          </ns3:TrackPointExtension>
        </extensions>
      </trkpt>
      <trkpt lat="46.63414992392063140869140625" lon="6.88628708012402057647705078125">
        <ele>762.79998779296875</ele>
        <time>2013-08-15T17:19:34.000Z</time>
        <extensions>
          <ns3:TrackPointExtension>
            <ns3:atemp>16.0</ns3:atemp>
            <ns3:hr>144</ns3:hr>
          </ns3:TrackPointExtension>
        </extensions>
      </trkpt>
      <trkpt lat="46.63411262445151805877685546875" lon="6.88630769960582256317138671875">
        <ele>763</ele>
        <time>2013-08-15T17:19:35.000Z</time>
        <extensions>
          <ns3:TrackPointExtension>
            <ns3:atemp>16.0</ns3:atemp>
            <ns3:hr>143</ns3:hr>
          </ns3:TrackPointExtension>
        </extensions>
      </trkpt>
      <trkpt lat="46.63407775573432445526123046875" lon="6.88632898963987827301025390625">
        <ele>763</ele>
        <time>2013-08-15T17:19:36.000Z</time>
        <extensions>
          <ns3:TrackPointExtension>
            <ns3:atemp>16.0</ns3:atemp>
            <ns3:hr>143</ns3:hr>
          </ns3:TrackPointExtension>
        </extensions>
      </trkpt>
      <trkpt lat="46.634043641388416290283203125" lon="6.88634826801717281341552734375">
        <ele>763.20001220703125</ele>
        <time>2013-08-15T17:19:37.000Z</time>
        <extensions>
          <ns3:TrackPointExtension>
            <ns3:atemp>16.0</ns3:atemp>
            <ns3:hr>143</ns3:hr>
          </ns3:TrackPointExtension>
        </extensions>
      </trkpt>
      <trkpt lat="46.63401313126087188720703125" lon="6.886365450918674468994140625">
        <ele>763.4000244140625</ele>
        <time>2013-08-15T17:19:38.000Z</time>
        <extensions>
          <ns3:TrackPointExtension>
            <ns3:atemp>16.0</ns3:atemp>
            <ns3:hr>144</ns3:hr>
          </ns3:TrackPointExtension>
        </extensions>
      </trkpt>
      <trkpt lat="46.6339884884655475616455078125" lon="6.88637861050665378570556640625">
        <ele>763.79998779296875</ele>
        <time>2013-08-15T17:19:39.000Z</time>
        <extensions>
          <ns3:TrackPointExtension>
            <ns3:atemp>16.0</ns3:atemp>
            <ns3:hr>144</ns3:hr>
          </ns3:TrackPointExtension>
        </extensions>
      </trkpt>
      <trkpt lat="46.63396661169826984405517578125" lon="6.88638363964855670928955078125">
        <ele>764</ele>
        <time>2013-08-15T17:19:40.000Z</time>
        <extensions>
          <ns3:TrackPointExtension>
            <ns3:atemp>16.0</ns3:atemp>
            <ns3:hr>143</ns3:hr>
          </ns3:TrackPointExtension>
        </extensions>
      </trkpt>
      <trkpt lat="46.6339425556361675262451171875" lon="6.88637374900281429290771484375">
        <ele>764.20001220703125</ele>
        <time>2013-08-15T17:19:41.000Z</time>
        <extensions>
          <ns3:TrackPointExtension>
            <ns3:atemp>16.0</ns3:atemp>
            <ns3:hr>143</ns3:hr>
          </ns3:TrackPointExtension>
        </extensions>
      </trkpt>
      <trkpt lat="46.633926965296268463134765625" lon="6.88634776510298252105712890625">
        <ele>764.5999755859375</ele>
        <time>2013-08-15T17:19:42.000Z</time>
        <extensions>
          <ns3:TrackPointExtension>
            <ns3:atemp>16.0</ns3:atemp>
            <ns3:hr>143</ns3:hr>
          </ns3:TrackPointExtension>
        </extensions>
      </trkpt>
      <trkpt lat="46.63392486982047557830810546875" lon="6.88632345758378505706787109375">
        <ele>765</ele>
        <time>2013-08-15T17:19:43.000Z</time>
        <extensions>
          <ns3:TrackPointExtension>
            <ns3:atemp>16.0</ns3:atemp>
            <ns3:hr>143</ns3:hr>
          </ns3:TrackPointExtension>
        </extensions>
      </trkpt>
      <trkpt lat="46.633924953639507293701171875" lon="6.886298395693302154541015625">
        <ele>765.20001220703125</ele>
        <time>2013-08-15T17:19:44.000Z</time>
        <extensions>
          <ns3:TrackPointExtension>
            <ns3:atemp>16.0</ns3:atemp>
            <ns3:hr>143</ns3:hr>
          </ns3:TrackPointExtension>
        </extensions>
      </trkpt>
      <trkpt lat="46.6339226067066192626953125" lon="6.8862725794315338134765625">
        <ele>765.4000244140625</ele>
        <time>2013-08-15T17:19:45.000Z</time>
        <extensions>
          <ns3:TrackPointExtension>
            <ns3:atemp>16.0</ns3:atemp>
            <ns3:hr>144</ns3:hr>
          </ns3:TrackPointExtension>
        </extensions>
      </trkpt>
      <trkpt lat="46.6339301504194736480712890625" lon="6.886243410408496856689453125">
        <ele>765.79998779296875</ele>
        <time>2013-08-15T17:19:46.000Z</time>
        <extensions>
          <ns3:TrackPointExtension>
            <ns3:atemp>16.0</ns3:atemp>
            <ns3:hr>144</ns3:hr>
          </ns3:TrackPointExtension>
        </extensions>
      </trkpt>
      <trkpt lat="46.63394113071262836456298828125" lon="6.886214576661586761474609375">
        <ele>766.20001220703125</ele>
        <time>2013-08-15T17:19:47.000Z</time>
        <extensions>
          <ns3:TrackPointExtension>
            <ns3:atemp>16.0</ns3:atemp>
            <ns3:hr>144</ns3:hr>
          </ns3:TrackPointExtension>
        </extensions>
      </trkpt>
      <trkpt lat="46.63395345211029052734375" lon="6.8861926160752773284912109375">
        <ele>766.4000244140625</ele>
        <time>2013-08-15T17:19:48.000Z</time>
        <extensions>
          <ns3:TrackPointExtension>
            <ns3:atemp>16.0</ns3:atemp>
            <ns3:hr>144</ns3:hr>
          </ns3:TrackPointExtension>
        </extensions>
      </trkpt>
      <trkpt lat="46.633966527879238128662109375" lon="6.8861728347837924957275390625">
        <ele>766.79998779296875</ele>
        <time>2013-08-15T17:19:49.000Z</time>
        <extensions>
          <ns3:TrackPointExtension>
            <ns3:atemp>16.0</ns3:atemp>
            <ns3:hr>144</ns3:hr>
          </ns3:TrackPointExtension>
        </extensions>
      </trkpt>
      <trkpt lat="46.633977927267551422119140625" lon="6.8861510418355464935302734375">
        <ele>767</ele>
        <time>2013-08-15T17:19:50.000Z</time>
        <extensions>
          <ns3:TrackPointExtension>
            <ns3:atemp>16.0</ns3:atemp>
            <ns3:hr>144</ns3:hr>
          </ns3:TrackPointExtension>
        </extensions>
      </trkpt>
      <trkpt lat="46.6339881531894207000732421875" lon="6.88612430356442928314208984375">
        <ele>767.20001220703125</ele>
        <time>2013-08-15T17:19:51.000Z</time>
        <extensions>
          <ns3:TrackPointExtension>
            <ns3:atemp>16.0</ns3:atemp>
            <ns3:hr>144</ns3:hr>
          </ns3:TrackPointExtension>
        </extensions>
      </trkpt>
      <trkpt lat="46.63400416262447834014892578125" lon="6.88609127886593341827392578125">
        <ele>767.4000244140625</ele>
        <time>2013-08-15T17:19:52.000Z</time>
        <extensions>
          <ns3:TrackPointExtension>
            <ns3:atemp>16.0</ns3:atemp>
            <ns3:hr>145</ns3:hr>
          </ns3:TrackPointExtension>
        </extensions>
      </trkpt>
      <trkpt lat="46.634023524820804595947265625" lon="6.8860494531691074371337890625">
        <ele>767.5999755859375</ele>
        <time>2013-08-15T17:19:53.000Z</time>
        <extensions>
          <ns3:TrackPointExtension>
            <ns3:atemp>16.0</ns3:atemp>
            <ns3:hr>145</ns3:hr>
          </ns3:TrackPointExtension>
        </extensions>
      </trkpt>
      <trkpt lat="46.63404506631195545196533203125" lon="6.8860001675784587860107421875">
        <ele>767.5999755859375</ele>
        <time>2013-08-15T17:19:54.000Z</time>
        <extensions>
          <ns3:TrackPointExtension>
            <ns3:atemp>16.0</ns3:atemp>
            <ns3:hr>144</ns3:hr>
          </ns3:TrackPointExtension>
        </extensions>
      </trkpt>
      <trkpt lat="46.634067110717296600341796875" lon="6.88594400882720947265625">
        <ele>767.5999755859375</ele>
        <time>2013-08-15T17:19:55.000Z</time>
        <extensions>
          <ns3:TrackPointExtension>
            <ns3:atemp>16.0</ns3:atemp>
            <ns3:hr>144</ns3:hr>
          </ns3:TrackPointExtension>
        </extensions>
      </trkpt>
      <trkpt lat="46.634088568389415740966796875" lon="6.8858881853520870208740234375">
        <ele>767.5999755859375</ele>
        <time>2013-08-15T17:19:56.000Z</time>
        <extensions>
          <ns3:TrackPointExtension>
            <ns3:atemp>16.0</ns3:atemp>
            <ns3:hr>144</ns3:hr>
          </ns3:TrackPointExtension>
        </extensions>
      </trkpt>
      <trkpt lat="46.6341125406324863433837890625" lon="6.885832361876964569091796875">
        <ele>767.5999755859375</ele>
        <time>2013-08-15T17:19:57.000Z</time>
        <extensions>
          <ns3:TrackPointExtension>
            <ns3:atemp>16.0</ns3:atemp>
            <ns3:hr>144</ns3:hr>
          </ns3:TrackPointExtension>
        </extensions>
      </trkpt>
      <trkpt lat="46.63413559086620807647705078125" lon="6.8857795558869838714599609375">
        <ele>767.79998779296875</ele>
        <time>2013-08-15T17:19:58.000Z</time>
        <extensions>
          <ns3:TrackPointExtension>
            <ns3:atemp>16.0</ns3:atemp>
            <ns3:hr>144</ns3:hr>
          </ns3:TrackPointExtension>
        </extensions>
      </trkpt>
      <trkpt lat="46.63415386341512203216552734375" lon="6.88572582788765430450439453125">
        <ele>767.79998779296875</ele>
        <time>2013-08-15T17:19:59.000Z</time>
        <extensions>
          <ns3:TrackPointExtension>
            <ns3:atemp>16.0</ns3:atemp>
            <ns3:hr>144</ns3:hr>
          </ns3:TrackPointExtension>
        </extensions>
      </trkpt>
      <trkpt lat="46.6341681964695453643798828125" lon="6.88567469827830791473388671875">
        <ele>768</ele>
        <time>2013-08-15T17:20:00.000Z</time>
        <extensions>
          <ns3:TrackPointExtension>
            <ns3:atemp>16.0</ns3:atemp>
            <ns3:hr>144</ns3:hr>
          </ns3:TrackPointExtension>
        </extensions>
      </trkpt>
      <trkpt lat="46.63417666219174861907958984375" lon="6.8856246583163738250732421875">
        <ele>768</ele>
        <time>2013-08-15T17:20:01.000Z</time>
        <extensions>
          <ns3:TrackPointExtension>
            <ns3:atemp>16.0</ns3:atemp>
            <ns3:hr>144</ns3:hr>
          </ns3:TrackPointExtension>
        </extensions>
      </trkpt>
      <trkpt lat="46.63418856449425220489501953125" lon="6.88557495363056659698486328125">
        <ele>768.20001220703125</ele>
        <time>2013-08-15T17:20:02.000Z</time>
        <extensions>
          <ns3:TrackPointExtension>
            <ns3:atemp>16.0</ns3:atemp>
            <ns3:hr>144</ns3:hr>
          </ns3:TrackPointExtension>
        </extensions>
      </trkpt>
      <trkpt lat="46.63420264609158039093017578125" lon="6.88552533276379108428955078125">
        <ele>768.5999755859375</ele>
        <time>2013-08-15T17:20:03.000Z</time>
        <extensions>
          <ns3:TrackPointExtension>
            <ns3:atemp>16.0</ns3:atemp>
            <ns3:hr>144</ns3:hr>
          </ns3:TrackPointExtension>
        </extensions>
      </trkpt>
      <trkpt lat="46.63421521894633769989013671875" lon="6.885474957525730133056640625">
        <ele>769</ele>
        <time>2013-08-15T17:20:04.000Z</time>
        <extensions>
          <ns3:TrackPointExtension>
            <ns3:atemp>16.0</ns3:atemp>
            <ns3:hr>144</ns3:hr>
          </ns3:TrackPointExtension>
        </extensions>
      </trkpt>
      <trkpt lat="46.6342261992394924163818359375" lon="6.88542810268700122833251953125">
        <ele>769</ele>
        <time>2013-08-15T17:20:05.000Z</time>
        <extensions>
          <ns3:TrackPointExtension>
            <ns3:atemp>16.0</ns3:atemp>
            <ns3:hr>144</ns3:hr>
          </ns3:TrackPointExtension>
        </extensions>
      </trkpt>
      <trkpt lat="46.6342375986278057098388671875" lon="6.88538049347698688507080078125">
        <ele>769.20001220703125</ele>
        <time>2013-08-15T17:20:06.000Z</time>
        <extensions>
          <ns3:TrackPointExtension>
            <ns3:atemp>16.0</ns3:atemp>
            <ns3:hr>144</ns3:hr>
          </ns3:TrackPointExtension>
        </extensions>
      </trkpt>
      <trkpt lat="46.634249500930309295654296875" lon="6.88533456064760684967041015625">
        <ele>769.20001220703125</ele>
        <time>2013-08-15T17:20:07.000Z</time>
        <extensions>
          <ns3:TrackPointExtension>
            <ns3:atemp>16.0</ns3:atemp>
            <ns3:hr>144</ns3:hr>
          </ns3:TrackPointExtension>
        </extensions>
      </trkpt>
      <trkpt lat="46.6342659294605255126953125" lon="6.8852887116372585296630859375">
        <ele>769.4000244140625</ele>
        <time>2013-08-15T17:20:08.000Z</time>
        <extensions>
          <ns3:TrackPointExtension>
            <ns3:atemp>16.0</ns3:atemp>
            <ns3:hr>144</ns3:hr>
          </ns3:TrackPointExtension>
        </extensions>
      </trkpt>
      <trkpt lat="46.63428512401878833770751953125" lon="6.8852360732853412628173828125">
        <ele>769.5999755859375</ele>
        <time>2013-08-15T17:20:09.000Z</time>
        <extensions>
          <ns3:TrackPointExtension>
            <ns3:atemp>16.0</ns3:atemp>
            <ns3:hr>144</ns3:hr>
          </ns3:TrackPointExtension>
        </extensions>
      </trkpt>
      <trkpt lat="46.63429685868322849273681640625" lon="6.885185278952121734619140625">
        <ele>769.79998779296875</ele>
        <time>2013-08-15T17:20:10.000Z</time>
        <extensions>
          <ns3:TrackPointExtension>
            <ns3:atemp>16.0</ns3:atemp>
            <ns3:hr>145</ns3:hr>
          </ns3:TrackPointExtension>
        </extensions>
      </trkpt>
      <trkpt lat="46.6342979483306407928466796875" lon="6.88514680601656436920166015625">
        <ele>769.79998779296875</ele>
        <time>2013-08-15T17:20:11.000Z</time>
        <extensions>
          <ns3:TrackPointExtension>
            <ns3:atemp>16.0</ns3:atemp>
            <ns3:hr>144</ns3:hr>
          </ns3:TrackPointExtension>
        </extensions>
      </trkpt>
      <trkpt lat="46.634289734065532684326171875" lon="6.88510623760521411895751953125">
        <ele>770</ele>
        <time>2013-08-15T17:20:12.000Z</time>
        <extensions>
          <ns3:TrackPointExtension>
            <ns3:atemp>16.0</ns3:atemp>
            <ns3:hr>144</ns3:hr>
          </ns3:TrackPointExtension>
        </extensions>
      </trkpt>
      <trkpt lat="46.63427808322012424468994140625" lon="6.88507564365863800048828125">
        <ele>770.4000244140625</ele>
        <time>2013-08-15T17:20:13.000Z</time>
        <extensions>
          <ns3:TrackPointExtension>
            <ns3:atemp>16.0</ns3:atemp>
            <ns3:hr>144</ns3:hr>
          </ns3:TrackPointExtension>
        </extensions>
      </trkpt>
      <trkpt lat="46.63426953367888927459716796875" lon="6.88504471443593502044677734375">
        <ele>770.4000244140625</ele>
        <time>2013-08-15T17:20:14.000Z</time>
        <extensions>
          <ns3:TrackPointExtension>
            <ns3:atemp>16.0</ns3:atemp>
            <ns3:hr>144</ns3:hr>
          </ns3:TrackPointExtension>
        </extensions>
      </trkpt>
      <trkpt lat="46.63426852785050868988037109375" lon="6.8850147910416126251220703125">
        <ele>770.20001220703125</ele>
        <time>2013-08-15T17:20:15.000Z</time>
        <extensions>
          <ns3:TrackPointExtension>
            <ns3:atemp>16.0</ns3:atemp>
            <ns3:hr>144</ns3:hr>
          </ns3:TrackPointExtension>
        </extensions>
      </trkpt>
      <trkpt lat="46.63427758030593395233154296875" lon="6.884974725544452667236328125">
        <ele>770.20001220703125</ele>
        <time>2013-08-15T17:20:16.000Z</time>
        <extensions>
          <ns3:TrackPointExtension>
            <ns3:atemp>16.0</ns3:atemp>
            <ns3:hr>144</ns3:hr>
          </ns3:TrackPointExtension>
        </extensions>
      </trkpt>
      <trkpt lat="46.6342932544648647308349609375" lon="6.88492150045931339263916015625">
        <ele>770.20001220703125</ele>
        <time>2013-08-15T17:20:17.000Z</time>
        <extensions>
          <ns3:TrackPointExtension>
            <ns3:atemp>16.0</ns3:atemp>
            <ns3:hr>143</ns3:hr>
          </ns3:TrackPointExtension>
        </extensions>
      </trkpt>
      <trkpt lat="46.63431831635534763336181640625" lon="6.8848598934710025787353515625">
        <ele>769.79998779296875</ele>
        <time>2013-08-15T17:20:18.000Z</time>
        <extensions>
          <ns3:TrackPointExtension>
            <ns3:atemp>16.0</ns3:atemp>
            <ns3:hr>142</ns3:hr>
          </ns3:TrackPointExtension>
        </extensions>
      </trkpt>
      <trkpt lat="46.63435117341578006744384765625" lon="6.8848005495965480804443359375">
        <ele>769.79998779296875</ele>
        <time>2013-08-15T17:20:19.000Z</time>
        <extensions>
          <ns3:TrackPointExtension>
            <ns3:atemp>16.0</ns3:atemp>
            <ns3:hr>142</ns3:hr>
          </ns3:TrackPointExtension>
        </extensions>
      </trkpt>
      <trkpt lat="46.63438285700976848602294921875" lon="6.8847249448299407958984375">
        <ele>769.79998779296875</ele>
        <time>2013-08-15T17:20:20.000Z</time>
        <extensions>
          <ns3:TrackPointExtension>
            <ns3:atemp>16.0</ns3:atemp>
            <ns3:hr>142</ns3:hr>
          </ns3:TrackPointExtension>
        </extensions>
      </trkpt>
      <trkpt lat="46.6344095952808856964111328125" lon="6.88463383354246616363525390625">
        <ele>769.79998779296875</ele>
        <time>2013-08-15T17:20:21.000Z</time>
        <extensions>
          <ns3:TrackPointExtension>
            <ns3:atemp>16.0</ns3:atemp>
            <ns3:hr>141</ns3:hr>
          </ns3:TrackPointExtension>
        </extensions>
      </trkpt>
      <trkpt lat="46.63439802825450897216796875" lon="6.88450324349105358123779296875">
        <ele>769.5999755859375</ele>
        <time>2013-08-15T17:20:22.000Z</time>
        <extensions>
          <ns3:TrackPointExtension>
            <ns3:atemp>16.0</ns3:atemp>
            <ns3:hr>140</ns3:hr>
          </ns3:TrackPointExtension>
        </extensions>
      </trkpt>
      <trkpt lat="46.6343764029443264007568359375" lon="6.88439964316785335540771484375">
        <ele>769.4000244140625</ele>
        <time>2013-08-15T17:20:23.000Z</time>
        <extensions>
          <ns3:TrackPointExtension>
            <ns3:atemp>16.0</ns3:atemp>
            <ns3:hr>140</ns3:hr>
          </ns3:TrackPointExtension>
        </extensions>
      </trkpt>
      <trkpt lat="46.63436575792729854583740234375" lon="6.8843137286603450775146484375">
        <ele>768.79998779296875</ele>
        <time>2013-08-15T17:20:24.000Z</time>
        <extensions>
          <ns3:TrackPointExtension>
            <ns3:atemp>16.0</ns3:atemp>
            <ns3:hr>139</ns3:hr>
          </ns3:TrackPointExtension>
        </extensions>
      </trkpt>
      <trkpt lat="46.63435502909123897552490234375" lon="6.884247176349163055419921875">
        <ele>768.20001220703125</ele>
        <time>2013-08-15T17:20:25.000Z</time>
        <extensions>
          <ns3:TrackPointExtension>
            <ns3:atemp>16.0</ns3:atemp>
            <ns3:hr>138</ns3:hr>
          </ns3:TrackPointExtension>
        </extensions>
      </trkpt>
      <trkpt lat="46.63433843292295932769775390625" lon="6.8841920234262943267822265625">
        <ele>767.5999755859375</ele>
        <time>2013-08-15T17:20:26.000Z</time>
        <extensions>
          <ns3:TrackPointExtension>
            <ns3:atemp>16.0</ns3:atemp>
            <ns3:hr>137</ns3:hr>
          </ns3:TrackPointExtension>
        </extensions>
      </trkpt>
      <trkpt lat="46.63432024419307708740234375" lon="6.8841437436640262603759765625">
        <ele>767.20001220703125</ele>
        <time>2013-08-15T17:20:27.000Z</time>
        <extensions>
          <ns3:TrackPointExtension>
            <ns3:atemp>16.0</ns3:atemp>
            <ns3:hr>137</ns3:hr>
          </ns3:TrackPointExtension>
        </extensions>
      </trkpt>
      <trkpt lat="46.63430172018706798553466796875" lon="6.8841055221855640411376953125">
        <ele>767</ele>
        <time>2013-08-15T17:20:28.000Z</time>
        <extensions>
          <ns3:TrackPointExtension>
            <ns3:atemp>16.0</ns3:atemp>
            <ns3:hr>136</ns3:hr>
          </ns3:TrackPointExtension>
        </extensions>
      </trkpt>
      <trkpt lat="46.63428294472396373748779296875" lon="6.88407174311578273773193359375">
        <ele>766.79998779296875</ele>
        <time>2013-08-15T17:20:29.000Z</time>
        <extensions>
          <ns3:TrackPointExtension>
            <ns3:atemp>16.0</ns3:atemp>
            <ns3:hr>135</ns3:hr>
          </ns3:TrackPointExtension>
        </extensions>
      </trkpt>
      <trkpt lat="46.63426165468990802764892578125" lon="6.88404165208339691162109375">
        <ele>766.5999755859375</ele>
        <time>2013-08-15T17:20:30.000Z</time>
        <extensions>
          <ns3:TrackPointExtension>
            <ns3:atemp>16.0</ns3:atemp>
            <ns3:hr>135</ns3:hr>
          </ns3:TrackPointExtension>
        </extensions>
      </trkpt>
      <trkpt lat="46.6342379339039325714111328125" lon="6.8840126506984233856201171875">
        <ele>766.79998779296875</ele>
        <time>2013-08-15T17:20:31.000Z</time>
        <extensions>
          <ns3:TrackPointExtension>
            <ns3:atemp>16.0</ns3:atemp>
            <ns3:hr>134</ns3:hr>
          </ns3:TrackPointExtension>
        </extensions>
      </trkpt>
      <trkpt lat="46.63421035744249820709228515625" lon="6.88398591242730617523193359375">
        <ele>766.79998779296875</ele>
        <time>2013-08-15T17:20:32.000Z</time>
        <extensions>
          <ns3:TrackPointExtension>
            <ns3:atemp>16.0</ns3:atemp>
            <ns3:hr>134</ns3:hr>
          </ns3:TrackPointExtension>
        </extensions>
      </trkpt>
      <trkpt lat="46.63418076932430267333984375" lon="6.88395716249942779541015625">
        <ele>766.79998779296875</ele>
        <time>2013-08-15T17:20:33.000Z</time>
        <extensions>
          <ns3:TrackPointExtension>
            <ns3:atemp>16.0</ns3:atemp>
            <ns3:hr>134</ns3:hr>
          </ns3:TrackPointExtension>
        </extensions>
      </trkpt>
      <trkpt lat="46.63415218703448772430419921875" lon="6.8839214555919170379638671875">
        <ele>767</ele>
        <time>2013-08-15T17:20:34.000Z</time>
        <extensions>
          <ns3:TrackPointExtension>
            <ns3:atemp>16.0</ns3:atemp>
            <ns3:hr>134</ns3:hr>
          </ns3:TrackPointExtension>
        </extensions>
      </trkpt>
      <trkpt lat="46.63412385620176792144775390625" lon="6.88388046808540821075439453125">
        <ele>767.20001220703125</ele>
        <time>2013-08-15T17:20:35.000Z</time>
        <extensions>
          <ns3:TrackPointExtension>
            <ns3:atemp>16.0</ns3:atemp>
            <ns3:hr>133</ns3:hr>
          </ns3:TrackPointExtension>
        </extensions>
      </trkpt>
      <trkpt lat="46.6340957768261432647705078125" lon="6.8838362954556941986083984375">
        <ele>767.4000244140625</ele>
        <time>2013-08-15T17:20:36.000Z</time>
        <extensions>
          <ns3:TrackPointExtension>
            <ns3:atemp>16.0</ns3:atemp>
            <ns3:hr>133</ns3:hr>
          </ns3:TrackPointExtension>
        </extensions>
      </trkpt>
      <trkpt lat="46.634066104888916015625" lon="6.8837930448353290557861328125">
        <ele>767.4000244140625</ele>
        <time>2013-08-15T17:20:37.000Z</time>
        <extensions>
          <ns3:TrackPointExtension>
            <ns3:atemp>16.0</ns3:atemp>
            <ns3:hr>133</ns3:hr>
          </ns3:TrackPointExtension>
        </extensions>
      </trkpt>
      <trkpt lat="46.634037606418132781982421875" lon="6.8837494589388370513916015625">
        <ele>767.5999755859375</ele>
        <time>2013-08-15T17:20:38.000Z</time>
        <extensions>
          <ns3:TrackPointExtension>
            <ns3:atemp>16.0</ns3:atemp>
            <ns3:hr>133</ns3:hr>
          </ns3:TrackPointExtension>
        </extensions>
      </trkpt>
      <trkpt lat="46.63401070050895214080810546875" lon="6.8837057054042816162109375">
        <ele>767.79998779296875</ele>
        <time>2013-08-15T17:20:39.000Z</time>
        <extensions>
          <ns3:TrackPointExtension>
            <ns3:atemp>16.0</ns3:atemp>
            <ns3:hr>132</ns3:hr>
          </ns3:TrackPointExtension>
        </extensions>
      </trkpt>
      <trkpt lat="46.6339834593236446380615234375" lon="6.88365943729877471923828125">
        <ele>768</ele>
        <time>2013-08-15T17:20:40.000Z</time>
        <extensions>
          <ns3:TrackPointExtension>
            <ns3:atemp>16.0</ns3:atemp>
            <ns3:hr>132</ns3:hr>
          </ns3:TrackPointExtension>
        </extensions>
      </trkpt>
      <trkpt lat="46.633954457938671112060546875" lon="6.88361207954585552215576171875">
        <ele>768.20001220703125</ele>
        <time>2013-08-15T17:20:41.000Z</time>
        <extensions>
          <ns3:TrackPointExtension>
            <ns3:atemp>16.0</ns3:atemp>
            <ns3:hr>132</ns3:hr>
          </ns3:TrackPointExtension>
        </extensions>
      </trkpt>
      <trkpt lat="46.63392470218241214752197265625" lon="6.88356698490679264068603515625">
        <ele>768.4000244140625</ele>
        <time>2013-08-15T17:20:42.000Z</time>
        <extensions>
          <ns3:TrackPointExtension>
            <ns3:atemp>16.0</ns3:atemp>
            <ns3:hr>132</ns3:hr>
          </ns3:TrackPointExtension>
        </extensions>
      </trkpt>
      <trkpt lat="46.6338962875306606292724609375" lon="6.8835231475532054901123046875">
        <ele>768.5999755859375</ele>
        <time>2013-08-15T17:20:43.000Z</time>
        <extensions>
          <ns3:TrackPointExtension>
            <ns3:atemp>16.0</ns3:atemp>
            <ns3:hr>132</ns3:hr>
          </ns3:TrackPointExtension>
        </extensions>
      </trkpt>
      <trkpt lat="46.6338701359927654266357421875" lon="6.883481405675411224365234375">
        <ele>768.79998779296875</ele>
        <time>2013-08-15T17:20:44.000Z</time>
        <extensions>
          <ns3:TrackPointExtension>
            <ns3:atemp>16.0</ns3:atemp>
            <ns3:hr>132</ns3:hr>
          </ns3:TrackPointExtension>
        </extensions>
      </trkpt>
      <trkpt lat="46.633843146264553070068359375" lon="6.88343790359795093536376953125">
        <ele>769.20001220703125</ele>
        <time>2013-08-15T17:20:45.000Z</time>
        <extensions>
          <ns3:TrackPointExtension>
            <ns3:atemp>16.0</ns3:atemp>
            <ns3:hr>132</ns3:hr>
          </ns3:TrackPointExtension>
        </extensions>
      </trkpt>
      <trkpt lat="46.633816324174404144287109375" lon="6.883394233882427215576171875">
        <ele>769.4000244140625</ele>
        <time>2013-08-15T17:20:46.000Z</time>
        <extensions>
          <ns3:TrackPointExtension>
            <ns3:atemp>16.0</ns3:atemp>
            <ns3:hr>133</ns3:hr>
          </ns3:TrackPointExtension>
        </extensions>
      </trkpt>
      <trkpt lat="46.63378790952265262603759765625" lon="6.88335240818560123443603515625">
        <ele>769.5999755859375</ele>
        <time>2013-08-15T17:20:47.000Z</time>
        <extensions>
          <ns3:TrackPointExtension>
            <ns3:atemp>16.0</ns3:atemp>
            <ns3:hr>133</ns3:hr>
          </ns3:TrackPointExtension>
        </extensions>
      </trkpt>
      <trkpt lat="46.6337589919567108154296875" lon="6.88331267796456813812255859375">
        <ele>769.5999755859375</ele>
        <time>2013-08-15T17:20:48.000Z</time>
        <extensions>
          <ns3:TrackPointExtension>
            <ns3:atemp>16.0</ns3:atemp>
            <ns3:hr>133</ns3:hr>
          </ns3:TrackPointExtension>
        </extensions>
      </trkpt>
      <trkpt lat="46.6337293200194835662841796875" lon="6.88327227719128131866455078125">
        <ele>769.5999755859375</ele>
        <time>2013-08-15T17:20:49.000Z</time>
        <extensions>
          <ns3:TrackPointExtension>
            <ns3:atemp>16.0</ns3:atemp>
            <ns3:hr>133</ns3:hr>
          </ns3:TrackPointExtension>
        </extensions>
      </trkpt>
      <trkpt lat="46.633700989186763763427734375" lon="6.88323539681732654571533203125">
        <ele>769.5999755859375</ele>
        <time>2013-08-15T17:20:50.000Z</time>
        <extensions>
          <ns3:TrackPointExtension>
            <ns3:atemp>16.0</ns3:atemp>
            <ns3:hr>134</ns3:hr>
          </ns3:TrackPointExtension>
        </extensions>
      </trkpt>
      <trkpt lat="46.63367290981113910675048828125" lon="6.8832016177475452423095703125">
        <ele>769.79998779296875</ele>
        <time>2013-08-15T17:20:51.000Z</time>
        <extensions>
          <ns3:TrackPointExtension>
            <ns3:atemp>16.0</ns3:atemp>
            <ns3:hr>134</ns3:hr>
          </ns3:TrackPointExtension>
        </extensions>
      </trkpt>
      <trkpt lat="46.63364675827324390411376953125" lon="6.8831719458103179931640625">
        <ele>770.20001220703125</ele>
        <time>2013-08-15T17:20:52.000Z</time>
        <extensions>
          <ns3:TrackPointExtension>
            <ns3:atemp>16.0</ns3:atemp>
            <ns3:hr>134</ns3:hr>
          </ns3:TrackPointExtension>
        </extensions>
      </trkpt>
      <trkpt lat="46.6336216963827610015869140625" lon="6.88314369879662990570068359375">
        <ele>770.5999755859375</ele>
        <time>2013-08-15T17:20:53.000Z</time>
        <extensions>
          <ns3:TrackPointExtension>
            <ns3:atemp>16.0</ns3:atemp>
            <ns3:hr>134</ns3:hr>
          </ns3:TrackPointExtension>
        </extensions>
      </trkpt>
      <trkpt lat="46.633597053587436676025390625" lon="6.88311989419162273406982421875">
        <ele>770.79998779296875</ele>
        <time>2013-08-15T17:20:54.000Z</time>
        <extensions>
          <ns3:TrackPointExtension>
            <ns3:atemp>16.0</ns3:atemp>
            <ns3:hr>135</ns3:hr>
          </ns3:TrackPointExtension>
        </extensions>
      </trkpt>
      <trkpt lat="46.6335710696876049041748046875" lon="6.8830956704914569854736328125">
        <ele>771</ele>
        <time>2013-08-15T17:20:55.000Z</time>
        <extensions>
          <ns3:TrackPointExtension>
            <ns3:atemp>16.0</ns3:atemp>
            <ns3:hr>135</ns3:hr>
          </ns3:TrackPointExtension>
        </extensions>
      </trkpt>
      <trkpt lat="46.63354818709194660186767578125" lon="6.883066333830356597900390625">
        <ele>771.20001220703125</ele>
        <time>2013-08-15T17:20:56.000Z</time>
        <extensions>
          <ns3:TrackPointExtension>
            <ns3:atemp>16.0</ns3:atemp>
            <ns3:hr>135</ns3:hr>
          </ns3:TrackPointExtension>
        </extensions>
      </trkpt>
      <trkpt lat="46.63352907635271549224853515625" lon="6.88303289003670215606689453125">
        <ele>771.5999755859375</ele>
        <time>2013-08-15T17:20:57.000Z</time>
        <extensions>
          <ns3:TrackPointExtension>
            <ns3:atemp>16.0</ns3:atemp>
            <ns3:hr>136</ns3:hr>
          </ns3:TrackPointExtension>
        </extensions>
      </trkpt>
      <trkpt lat="46.633508540689945220947265625" lon="6.8830027990043163299560546875">
        <ele>771.5999755859375</ele>
        <time>2013-08-15T17:20:58.000Z</time>
        <extensions>
          <ns3:TrackPointExtension>
            <ns3:atemp>16.0</ns3:atemp>
            <ns3:hr>136</ns3:hr>
          </ns3:TrackPointExtension>
        </extensions>
      </trkpt>
      <trkpt lat="46.63348850794136524200439453125" lon="6.88297254033386707305908203125">
        <ele>771.79998779296875</ele>
        <time>2013-08-15T17:20:59.000Z</time>
        <extensions>
          <ns3:TrackPointExtension>
            <ns3:atemp>16.0</ns3:atemp>
            <ns3:hr>136</ns3:hr>
          </ns3:TrackPointExtension>
        </extensions>
      </trkpt>
      <trkpt lat="46.6334688104689121246337890625" lon="6.88294370658695697784423828125">
        <ele>771.79998779296875</ele>
        <time>2013-08-15T17:21:00.000Z</time>
        <extensions>
          <ns3:TrackPointExtension>
            <ns3:atemp>16.0</ns3:atemp>
            <ns3:hr>136</ns3:hr>
          </ns3:TrackPointExtension>
        </extensions>
      </trkpt>
      <trkpt lat="46.633451543748378753662109375" lon="6.8829159624874591827392578125">
        <ele>772</ele>
        <time>2013-08-15T17:21:01.000Z</time>
        <extensions>
          <ns3:TrackPointExtension>
            <ns3:atemp>16.0</ns3:atemp>
            <ns3:hr>137</ns3:hr>
          </ns3:TrackPointExtension>
        </extensions>
      </trkpt>
      <trkpt lat="46.633435785770416259765625" lon="6.88288771547377109527587890625">
        <ele>772.20001220703125</ele>
        <time>2013-08-15T17:21:02.000Z</time>
        <extensions>
          <ns3:TrackPointExtension>
            <ns3:atemp>16.0</ns3:atemp>
            <ns3:hr>137</ns3:hr>
          </ns3:TrackPointExtension>
        </extensions>
      </trkpt>
      <trkpt lat="46.633423380553722381591796875" lon="6.8828608095645904541015625">
        <ele>772.5999755859375</ele>
        <time>2013-08-15T17:21:03.000Z</time>
        <extensions>
          <ns3:TrackPointExtension>
            <ns3:atemp>16.0</ns3:atemp>
            <ns3:hr>137</ns3:hr>
          </ns3:TrackPointExtension>
        </extensions>
      </trkpt>
      <trkpt lat="46.633409298956394195556640625" lon="6.88283734023571014404296875">
        <ele>773</ele>
        <time>2013-08-15T17:21:04.000Z</time>
        <extensions>
          <ns3:TrackPointExtension>
            <ns3:atemp>16.0</ns3:atemp>
            <ns3:hr>137</ns3:hr>
          </ns3:TrackPointExtension>
        </extensions>
      </trkpt>
      <trkpt lat="46.6333968937397003173828125" lon="6.882814206182956695556640625">
        <ele>773.20001220703125</ele>
        <time>2013-08-15T17:21:05.000Z</time>
        <extensions>
          <ns3:TrackPointExtension>
            <ns3:atemp>16.0</ns3:atemp>
            <ns3:hr>137</ns3:hr>
          </ns3:TrackPointExtension>
        </extensions>
      </trkpt>
      <trkpt lat="46.63338356651365756988525390625" lon="6.8827878870069980621337890625">
        <ele>773.4000244140625</ele>
        <time>2013-08-15T17:21:06.000Z</time>
        <extensions>
          <ns3:TrackPointExtension>
            <ns3:atemp>16.0</ns3:atemp>
            <ns3:hr>138</ns3:hr>
          </ns3:TrackPointExtension>
        </extensions>
      </trkpt>
      <trkpt lat="46.63337501697242259979248046875" lon="6.88275963999330997467041015625">
        <ele>773.5999755859375</ele>
        <time>2013-08-15T17:21:07.000Z</time>
        <extensions>
          <ns3:TrackPointExtension>
            <ns3:atemp>16.0</ns3:atemp>
            <ns3:hr>138</ns3:hr>
          </ns3:TrackPointExtension>
        </extensions>
      </trkpt>
      <trkpt lat="46.63336378522217273712158203125" lon="6.88272778876125812530517578125">
        <ele>773.79998779296875</ele>
        <time>2013-08-15T17:21:08.000Z</time>
        <extensions>
          <ns3:TrackPointExtension>
            <ns3:atemp>16.0</ns3:atemp>
            <ns3:hr>138</ns3:hr>
          </ns3:TrackPointExtension>
        </extensions>
      </trkpt>
      <trkpt lat="46.6333414055407047271728515625" lon="6.88268671743571758270263671875">
        <ele>773.79998779296875</ele>
        <time>2013-08-15T17:21:09.000Z</time>
        <extensions>
          <ns3:TrackPointExtension>
            <ns3:atemp>16.0</ns3:atemp>
            <ns3:hr>138</ns3:hr>
          </ns3:TrackPointExtension>
        </extensions>
      </trkpt>
      <trkpt lat="46.6333164274692535400390625" lon="6.88265151344239711761474609375">
        <ele>774</ele>
        <time>2013-08-15T17:21:10.000Z</time>
        <extensions>
          <ns3:TrackPointExtension>
            <ns3:atemp>16.0</ns3:atemp>
            <ns3:hr>138</ns3:hr>
          </ns3:TrackPointExtension>
        </extensions>
      </trkpt>
      <trkpt lat="46.6332894377410411834716796875" lon="6.88261262141168117523193359375">
        <ele>774</ele>
        <time>2013-08-15T17:21:11.000Z</time>
        <extensions>
          <ns3:TrackPointExtension>
            <ns3:atemp>16.0</ns3:atemp>
            <ns3:hr>138</ns3:hr>
          </ns3:TrackPointExtension>
        </extensions>
      </trkpt>
      <trkpt lat="46.6332616098225116729736328125" lon="6.88257356174290180206298828125">
        <ele>774</ele>
        <time>2013-08-15T17:21:12.000Z</time>
        <extensions>
          <ns3:TrackPointExtension>
            <ns3:atemp>16.0</ns3:atemp>
            <ns3:hr>138</ns3:hr>
          </ns3:TrackPointExtension>
        </extensions>
      </trkpt>
      <trkpt lat="46.6332367993891239166259765625" lon="6.88253534026443958282470703125">
        <ele>774.20001220703125</ele>
        <time>2013-08-15T17:21:13.000Z</time>
        <extensions>
          <ns3:TrackPointExtension>
            <ns3:atemp>16.0</ns3:atemp>
            <ns3:hr>139</ns3:hr>
          </ns3:TrackPointExtension>
        </extensions>
      </trkpt>
      <trkpt lat="46.633217521011829376220703125" lon="6.8825002200901508331298828125">
        <ele>774.20001220703125</ele>
        <time>2013-08-15T17:21:14.000Z</time>
        <extensions>
          <ns3:TrackPointExtension>
            <ns3:atemp>16.0</ns3:atemp>
            <ns3:hr>139</ns3:hr>
          </ns3:TrackPointExtension>
        </extensions>
      </trkpt>
      <trkpt lat="46.6331972368061542510986328125" lon="6.88244976103305816650390625">
        <ele>774.4000244140625</ele>
        <time>2013-08-15T17:21:15.000Z</time>
        <extensions>
          <ns3:TrackPointExtension>
            <ns3:atemp>16.0</ns3:atemp>
            <ns3:hr>139</ns3:hr>
          </ns3:TrackPointExtension>
        </extensions>
      </trkpt>
      <trkpt lat="46.6331757791340351104736328125" lon="6.88240475021302700042724609375">
        <ele>774.5999755859375</ele>
        <time>2013-08-15T17:21:16.000Z</time>
        <extensions>
          <ns3:TrackPointExtension>
            <ns3:atemp>16.0</ns3:atemp>
            <ns3:hr>139</ns3:hr>
          </ns3:TrackPointExtension>
        </extensions>
      </trkpt>
      <trkpt lat="46.63314853794872760772705078125" lon="6.88236501999199390411376953125">
        <ele>775</ele>
        <time>2013-08-15T17:21:17.000Z</time>
        <extensions>
          <ns3:TrackPointExtension>
            <ns3:atemp>16.0</ns3:atemp>
            <ns3:hr>139</ns3:hr>
          </ns3:TrackPointExtension>
        </extensions>
      </trkpt>
      <trkpt lat="46.633120961487293243408203125" lon="6.88232361339032649993896484375">
        <ele>775</ele>
        <time>2013-08-15T17:21:18.000Z</time>
        <extensions>
          <ns3:TrackPointExtension>
            <ns3:atemp>16.0</ns3:atemp>
            <ns3:hr>139</ns3:hr>
          </ns3:TrackPointExtension>
        </extensions>
      </trkpt>
      <trkpt lat="46.63309522904455661773681640625" lon="6.882279105484485626220703125">
        <ele>775</ele>
        <time>2013-08-15T17:21:19.000Z</time>
        <extensions>
          <ns3:TrackPointExtension>
            <ns3:atemp>16.0</ns3:atemp>
            <ns3:hr>139</ns3:hr>
          </ns3:TrackPointExtension>
        </extensions>
      </trkpt>
      <trkpt lat="46.633071005344390869140625" lon="6.8822350166738033294677734375">
        <ele>775</ele>
        <time>2013-08-15T17:21:20.000Z</time>
        <extensions>
          <ns3:TrackPointExtension>
            <ns3:atemp>16.0</ns3:atemp>
            <ns3:hr>139</ns3:hr>
          </ns3:TrackPointExtension>
        </extensions>
      </trkpt>
      <trkpt lat="46.63304661400616168975830078125" lon="6.8821924366056919097900390625">
        <ele>775</ele>
        <time>2013-08-15T17:21:21.000Z</time>
        <extensions>
          <ns3:TrackPointExtension>
            <ns3:atemp>16.0</ns3:atemp>
            <ns3:hr>139</ns3:hr>
          </ns3:TrackPointExtension>
        </extensions>
      </trkpt>
      <trkpt lat="46.63302197121083736419677734375" lon="6.882151700556278228759765625">
        <ele>774.79998779296875</ele>
        <time>2013-08-15T17:21:22.000Z</time>
        <extensions>
          <ns3:TrackPointExtension>
            <ns3:atemp>16.0</ns3:atemp>
            <ns3:hr>139</ns3:hr>
          </ns3:TrackPointExtension>
        </extensions>
      </trkpt>
      <trkpt lat="46.633000932633876800537109375" lon="6.8821045942604541778564453125">
        <ele>775.20001220703125</ele>
        <time>2013-08-15T17:21:23.000Z</time>
        <extensions>
          <ns3:TrackPointExtension>
            <ns3:atemp>16.0</ns3:atemp>
            <ns3:hr>139</ns3:hr>
          </ns3:TrackPointExtension>
        </extensions>
      </trkpt>
      <trkpt lat="46.63297637365758419036865234375" lon="6.88206377439200878143310546875">
        <ele>775.20001220703125</ele>
        <time>2013-08-15T17:21:24.000Z</time>
        <extensions>
          <ns3:TrackPointExtension>
            <ns3:atemp>16.0</ns3:atemp>
            <ns3:hr>140</ns3:hr>
          </ns3:TrackPointExtension>
        </extensions>
      </trkpt>
      <trkpt lat="46.6329511441290378570556640625" lon="6.88202555291354656219482421875">
        <ele>775.5999755859375</ele>
        <time>2013-08-15T17:21:25.000Z</time>
        <extensions>
          <ns3:TrackPointExtension>
            <ns3:atemp>16.0</ns3:atemp>
            <ns3:hr>139</ns3:hr>
          </ns3:TrackPointExtension>
        </extensions>
      </trkpt>
      <trkpt lat="46.6329221427440643310546875" lon="6.8819855712354183197021484375">
        <ele>775.5999755859375</ele>
        <time>2013-08-15T17:21:26.000Z</time>
        <extensions>
          <ns3:TrackPointExtension>
            <ns3:atemp>16.0</ns3:atemp>
            <ns3:hr>139</ns3:hr>
          </ns3:TrackPointExtension>
        </extensions>
      </trkpt>
      <trkpt lat="46.632889620959758758544921875" lon="6.88194575719535350799560546875">
        <ele>775.79998779296875</ele>
        <time>2013-08-15T17:21:27.000Z</time>
        <extensions>
          <ns3:TrackPointExtension>
            <ns3:atemp>16.0</ns3:atemp>
            <ns3:hr>139</ns3:hr>
          </ns3:TrackPointExtension>
        </extensions>
      </trkpt>
      <trkpt lat="46.63285718299448490142822265625" lon="6.88190569169819355010986328125">
        <ele>775.79998779296875</ele>
        <time>2013-08-15T17:21:28.000Z</time>
        <extensions>
          <ns3:TrackPointExtension>
            <ns3:atemp>16.0</ns3:atemp>
            <ns3:hr>139</ns3:hr>
          </ns3:TrackPointExtension>
        </extensions>
      </trkpt>
      <trkpt lat="46.632825918495655059814453125" lon="6.88186411745846271514892578125">
        <ele>775.79998779296875</ele>
        <time>2013-08-15T17:21:29.000Z</time>
        <extensions>
          <ns3:TrackPointExtension>
            <ns3:atemp>16.0</ns3:atemp>
            <ns3:hr>139</ns3:hr>
          </ns3:TrackPointExtension>
        </extensions>
      </trkpt>
      <trkpt lat="46.63279918022453784942626953125" lon="6.88181734643876552581787109375">
        <ele>775.5999755859375</ele>
        <time>2013-08-15T17:21:30.000Z</time>
        <extensions>
          <ns3:TrackPointExtension>
            <ns3:atemp>16.0</ns3:atemp>
            <ns3:hr>139</ns3:hr>
          </ns3:TrackPointExtension>
        </extensions>
      </trkpt>
      <trkpt lat="46.6327721066772937774658203125" lon="6.88177376054227352142333984375">
        <ele>775.79998779296875</ele>
        <time>2013-08-15T17:21:31.000Z</time>
        <extensions>
          <ns3:TrackPointExtension>
            <ns3:atemp>16.0</ns3:atemp>
            <ns3:hr>139</ns3:hr>
          </ns3:TrackPointExtension>
        </extensions>
      </trkpt>
      <trkpt lat="46.63274846971035003662109375" lon="6.88173335976898670196533203125">
        <ele>775.79998779296875</ele>
        <time>2013-08-15T17:21:32.000Z</time>
        <extensions>
          <ns3:TrackPointExtension>
            <ns3:atemp>16.0</ns3:atemp>
            <ns3:hr>139</ns3:hr>
          </ns3:TrackPointExtension>
        </extensions>
      </trkpt>
      <trkpt lat="46.63272592239081859588623046875" lon="6.88168977387249469757080078125">
        <ele>776.20001220703125</ele>
        <time>2013-08-15T17:21:33.000Z</time>
        <extensions>
          <ns3:TrackPointExtension>
            <ns3:atemp>16.0</ns3:atemp>
            <ns3:hr>138</ns3:hr>
          </ns3:TrackPointExtension>
        </extensions>
      </trkpt>
      <trkpt lat="46.6327030397951602935791015625" lon="6.88163705170154571533203125">
        <ele>776.4000244140625</ele>
        <time>2013-08-15T17:21:34.000Z</time>
        <extensions>
          <ns3:TrackPointExtension>
            <ns3:atemp>16.0</ns3:atemp>
            <ns3:hr>139</ns3:hr>
          </ns3:TrackPointExtension>
        </extensions>
      </trkpt>
      <trkpt lat="46.63268116302788257598876953125" lon="6.8815872631967067718505859375">
        <ele>776.4000244140625</ele>
        <time>2013-08-15T17:21:35.000Z</time>
        <extensions>
          <ns3:TrackPointExtension>
            <ns3:atemp>16.0</ns3:atemp>
            <ns3:hr>138</ns3:hr>
          </ns3:TrackPointExtension>
        </extensions>
      </trkpt>
      <trkpt lat="46.63265618495643138885498046875" lon="6.88153915107250213623046875">
        <ele>776.4000244140625</ele>
        <time>2013-08-15T17:21:36.000Z</time>
        <extensions>
          <ns3:TrackPointExtension>
            <ns3:atemp>16.0</ns3:atemp>
            <ns3:hr>138</ns3:hr>
          </ns3:TrackPointExtension>
        </extensions>
      </trkpt>
      <trkpt lat="46.63263204507529735565185546875" lon="6.8814977444708347320556640625">
        <ele>776.4000244140625</ele>
        <time>2013-08-15T17:21:37.000Z</time>
        <extensions>
          <ns3:TrackPointExtension>
            <ns3:atemp>16.0</ns3:atemp>
            <ns3:hr>138</ns3:hr>
          </ns3:TrackPointExtension>
        </extensions>
      </trkpt>
      <trkpt lat="46.63260539062321186065673828125" lon="6.88146027736365795135498046875">
        <ele>776.4000244140625</ele>
        <time>2013-08-15T17:21:38.000Z</time>
        <extensions>
          <ns3:TrackPointExtension>
            <ns3:atemp>16.0</ns3:atemp>
            <ns3:hr>137</ns3:hr>
          </ns3:TrackPointExtension>
        </extensions>
      </trkpt>
      <trkpt lat="46.6325752995908260345458984375" lon="6.8814258277416229248046875">
        <ele>776.4000244140625</ele>
        <time>2013-08-15T17:21:39.000Z</time>
        <extensions>
          <ns3:TrackPointExtension>
            <ns3:atemp>16.0</ns3:atemp>
            <ns3:hr>137</ns3:hr>
          </ns3:TrackPointExtension>
        </extensions>
      </trkpt>
      <trkpt lat="46.63254537619650363922119140625" lon="6.88140093348920345306396484375">
        <ele>776.4000244140625</ele>
        <time>2013-08-15T17:21:40.000Z</time>
        <extensions>
          <ns3:TrackPointExtension>
            <ns3:atemp>16.0</ns3:atemp>
            <ns3:hr>137</ns3:hr>
          </ns3:TrackPointExtension>
        </extensions>
      </trkpt>
      <trkpt lat="46.632518470287322998046875" lon="6.881373859941959381103515625">
        <ele>776.5999755859375</ele>
        <time>2013-08-15T17:21:41.000Z</time>
        <extensions>
          <ns3:TrackPointExtension>
            <ns3:atemp>16.0</ns3:atemp>
            <ns3:hr>137</ns3:hr>
          </ns3:TrackPointExtension>
        </extensions>
      </trkpt>
      <trkpt lat="46.63249692879617214202880859375" lon="6.88134158961474895477294921875">
        <ele>776.79998779296875</ele>
        <time>2013-08-15T17:21:42.000Z</time>
        <extensions>
          <ns3:TrackPointExtension>
            <ns3:atemp>16.0</ns3:atemp>
            <ns3:hr>137</ns3:hr>
          </ns3:TrackPointExtension>
        </extensions>
      </trkpt>
      <trkpt lat="46.63247354328632354736328125" lon="6.8813042901456356048583984375">
        <ele>776.79998779296875</ele>
        <time>2013-08-15T17:21:43.000Z</time>
        <extensions>
          <ns3:TrackPointExtension>
            <ns3:atemp>16.0</ns3:atemp>
            <ns3:hr>137</ns3:hr>
          </ns3:TrackPointExtension>
        </extensions>
      </trkpt>
      <trkpt lat="46.63244646973907947540283203125" lon="6.88127000816166400909423828125">
        <ele>776.4000244140625</ele>
        <time>2013-08-15T17:21:44.000Z</time>
        <extensions>
          <ns3:TrackPointExtension>
            <ns3:atemp>16.0</ns3:atemp>
            <ns3:hr>136</ns3:hr>
          </ns3:TrackPointExtension>
        </extensions>
      </trkpt>
      <trkpt lat="46.63241922855377197265625" lon="6.88123346306383609771728515625">
        <ele>776.20001220703125</ele>
        <time>2013-08-15T17:21:45.000Z</time>
        <extensions>
          <ns3:TrackPointExtension>
            <ns3:atemp>16.0</ns3:atemp>
            <ns3:hr>136</ns3:hr>
          </ns3:TrackPointExtension>
        </extensions>
      </trkpt>
      <trkpt lat="46.6323945857584476470947265625" lon="6.88119540922343730926513671875">
        <ele>776</ele>
        <time>2013-08-15T17:21:46.000Z</time>
        <extensions>
          <ns3:TrackPointExtension>
            <ns3:atemp>16.0</ns3:atemp>
            <ns3:hr>135</ns3:hr>
          </ns3:TrackPointExtension>
        </extensions>
      </trkpt>
      <trkpt lat="46.6323727928102016448974609375" lon="6.8811540864408016204833984375">
        <ele>776.20001220703125</ele>
        <time>2013-08-15T17:21:47.000Z</time>
        <extensions>
          <ns3:TrackPointExtension>
            <ns3:atemp>16.0</ns3:atemp>
            <ns3:hr>134</ns3:hr>
          </ns3:TrackPointExtension>
        </extensions>
      </trkpt>
      <trkpt lat="46.63235208950936794281005859375" lon="6.8810991011559963226318359375">
        <ele>776</ele>
        <time>2013-08-15T17:21:48.000Z</time>
        <extensions>
          <ns3:TrackPointExtension>
            <ns3:atemp>16.0</ns3:atemp>
            <ns3:hr>134</ns3:hr>
          </ns3:TrackPointExtension>
        </extensions>
      </trkpt>
      <trkpt lat="46.63232761435210704803466796875" lon="6.8810397572815418243408203125">
        <ele>776</ele>
        <time>2013-08-15T17:21:49.000Z</time>
        <extensions>
          <ns3:TrackPointExtension>
            <ns3:atemp>16.0</ns3:atemp>
            <ns3:hr>133</ns3:hr>
          </ns3:TrackPointExtension>
        </extensions>
      </trkpt>
      <trkpt lat="46.632296182215213775634765625" lon="6.88097655773162841796875">
        <ele>775.5999755859375</ele>
        <time>2013-08-15T17:21:50.000Z</time>
        <extensions>
          <ns3:TrackPointExtension>
            <ns3:atemp>16.0</ns3:atemp>
            <ns3:hr>133</ns3:hr>
          </ns3:TrackPointExtension>
        </extensions>
      </trkpt>
      <trkpt lat="46.632260978221893310546875" lon="6.88090749084949493408203125">
        <ele>775.5999755859375</ele>
        <time>2013-08-15T17:21:51.000Z</time>
        <extensions>
          <ns3:TrackPointExtension>
            <ns3:atemp>16.0</ns3:atemp>
            <ns3:hr>133</ns3:hr>
          </ns3:TrackPointExtension>
        </extensions>
      </trkpt>
      <trkpt lat="46.63222619332373142242431640625" lon="6.88083113171160221099853515625">
        <ele>775</ele>
        <time>2013-08-15T17:21:52.000Z</time>
        <extensions>
          <ns3:TrackPointExtension>
            <ns3:atemp>16.0</ns3:atemp>
            <ns3:hr>133</ns3:hr>
          </ns3:TrackPointExtension>
        </extensions>
      </trkpt>
      <trkpt lat="46.632190234959125518798828125" lon="6.88074999488890171051025390625">
        <ele>774.5999755859375</ele>
        <time>2013-08-15T17:21:53.000Z</time>
        <extensions>
          <ns3:TrackPointExtension>
            <ns3:atemp>16.0</ns3:atemp>
            <ns3:hr>133</ns3:hr>
          </ns3:TrackPointExtension>
        </extensions>
      </trkpt>
      <trkpt lat="46.63215008564293384552001953125" lon="6.88066483475267887115478515625">
        <ele>774.4000244140625</ele>
        <time>2013-08-15T17:21:54.000Z</time>
        <extensions>
          <ns3:TrackPointExtension>
            <ns3:atemp>16.0</ns3:atemp>
            <ns3:hr>132</ns3:hr>
          </ns3:TrackPointExtension>
        </extensions>
      </trkpt>
      <trkpt lat="46.6321042366325855255126953125" lon="6.88057833351194858551025390625">
        <ele>774.20001220703125</ele>
        <time>2013-08-15T17:21:55.000Z</time>
        <extensions>
          <ns3:TrackPointExtension>
            <ns3:atemp>16.0</ns3:atemp>
            <ns3:hr>131</ns3:hr>
          </ns3:TrackPointExtension>
        </extensions>
      </trkpt>
      <trkpt lat="46.632056124508380889892578125" lon="6.88049518503248691558837890625">
        <ele>773.5999755859375</ele>
        <time>2013-08-15T17:21:56.000Z</time>
        <extensions>
          <ns3:TrackPointExtension>
            <ns3:atemp>16.0</ns3:atemp>
            <ns3:hr>131</ns3:hr>
          </ns3:TrackPointExtension>
        </extensions>
      </trkpt>
      <trkpt lat="46.6320086829364299774169921875" lon="6.88041589222848415374755859375">
        <ele>772.79998779296875</ele>
        <time>2013-08-15T17:21:57.000Z</time>
        <extensions>
          <ns3:TrackPointExtension>
            <ns3:atemp>16.0</ns3:atemp>
            <ns3:hr>130</ns3:hr>
          </ns3:TrackPointExtension>
        </extensions>
      </trkpt>
      <trkpt lat="46.631962917745113372802734375" lon="6.8803400360047817230224609375">
        <ele>772.20001220703125</ele>
        <time>2013-08-15T17:21:58.000Z</time>
        <extensions>
          <ns3:TrackPointExtension>
            <ns3:atemp>16.0</ns3:atemp>
            <ns3:hr>130</ns3:hr>
          </ns3:TrackPointExtension>
        </extensions>
      </trkpt>
      <trkpt lat="46.63191455416381359100341796875" lon="6.88026401214301586151123046875">
        <ele>771.79998779296875</ele>
        <time>2013-08-15T17:21:59.000Z</time>
        <extensions>
          <ns3:TrackPointExtension>
            <ns3:atemp>16.0</ns3:atemp>
            <ns3:hr>129</ns3:hr>
          </ns3:TrackPointExtension>
        </extensions>
      </trkpt>
      <trkpt lat="46.63186409510672092437744140625" lon="6.8801901675760746002197265625">
        <ele>771.4000244140625</ele>
        <time>2013-08-15T17:22:00.000Z</time>
        <extensions>
          <ns3:TrackPointExtension>
            <ns3:atemp>16.0</ns3:atemp>
            <ns3:hr>128</ns3:hr>
          </ns3:TrackPointExtension>
        </extensions>
      </trkpt>
      <trkpt lat="46.63181237876415252685546875" lon="6.8801222741603851318359375">
        <ele>771</ele>
        <time>2013-08-15T17:22:01.000Z</time>
        <extensions>
          <ns3:TrackPointExtension>
            <ns3:atemp>16.0</ns3:atemp>
            <ns3:hr>127</ns3:hr>
          </ns3:TrackPointExtension>
        </extensions>
      </trkpt>
      <trkpt lat="46.6317594051361083984375" lon="6.88005865551531314849853515625">
        <ele>770.79998779296875</ele>
        <time>2013-08-15T17:22:02.000Z</time>
        <extensions>
          <ns3:TrackPointExtension>
            <ns3:atemp>16.0</ns3:atemp>
            <ns3:hr>127</ns3:hr>
          </ns3:TrackPointExtension>
        </extensions>
      </trkpt>
      <trkpt lat="46.6317059285938739776611328125" lon="6.88000568188726902008056640625">
        <ele>770.79998779296875</ele>
        <time>2013-08-15T17:22:03.000Z</time>
        <extensions>
          <ns3:TrackPointExtension>
            <ns3:atemp>16.0</ns3:atemp>
            <ns3:hr>125</ns3:hr>
          </ns3:TrackPointExtension>
        </extensions>
      </trkpt>
      <trkpt lat="46.63165421225130558013916015625" lon="6.87995723448693752288818359375">
        <ele>770.4000244140625</ele>
        <time>2013-08-15T17:22:04.000Z</time>
        <extensions>
          <ns3:TrackPointExtension>
            <ns3:atemp>16.0</ns3:atemp>
            <ns3:hr>125</ns3:hr>
          </ns3:TrackPointExtension>
        </extensions>
      </trkpt>
      <trkpt lat="46.63160224445164203643798828125" lon="6.87990593723952770233154296875">
        <ele>769.79998779296875</ele>
        <time>2013-08-15T17:22:05.000Z</time>
        <extensions>
          <ns3:TrackPointExtension>
            <ns3:atemp>16.0</ns3:atemp>
            <ns3:hr>125</ns3:hr>
          </ns3:TrackPointExtension>
        </extensions>
      </trkpt>
      <trkpt lat="46.63155027665197849273681640625" lon="6.87985061667859554290771484375">
        <ele>770.20001220703125</ele>
        <time>2013-08-15T17:22:06.000Z</time>
        <extensions>
          <ns3:TrackPointExtension>
            <ns3:atemp>16.0</ns3:atemp>
            <ns3:hr>125</ns3:hr>
          </ns3:TrackPointExtension>
        </extensions>
      </trkpt>
      <trkpt lat="46.63149964995682239532470703125" lon="6.87979496084153652191162109375">
        <ele>770.20001220703125</ele>
        <time>2013-08-15T17:22:07.000Z</time>
        <extensions>
          <ns3:TrackPointExtension>
            <ns3:atemp>16.0</ns3:atemp>
            <ns3:hr>124</ns3:hr>
          </ns3:TrackPointExtension>
        </extensions>
      </trkpt>
      <trkpt lat="46.63144449703395366668701171875" lon="6.87974617816507816314697265625">
        <ele>770.20001220703125</ele>
        <time>2013-08-15T17:22:08.000Z</time>
        <extensions>
          <ns3:TrackPointExtension>
            <ns3:atemp>16.0</ns3:atemp>
            <ns3:hr>124</ns3:hr>
          </ns3:TrackPointExtension>
        </extensions>
      </trkpt>
      <trkpt lat="46.63138599134981632232666015625" lon="6.87970594502985477447509765625">
        <ele>770</ele>
        <time>2013-08-15T17:22:09.000Z</time>
        <extensions>
          <ns3:TrackPointExtension>
            <ns3:atemp>16.0</ns3:atemp>
            <ns3:hr>124</ns3:hr>
          </ns3:TrackPointExtension>
        </extensions>
      </trkpt>
      <trkpt lat="46.63132597692310810089111328125" lon="6.87966537661850452423095703125">
        <ele>769.79998779296875</ele>
        <time>2013-08-15T17:22:10.000Z</time>
        <extensions>
          <ns3:TrackPointExtension>
            <ns3:atemp>16.0</ns3:atemp>
            <ns3:hr>124</ns3:hr>
          </ns3:TrackPointExtension>
        </extensions>
      </trkpt>
      <trkpt lat="46.63126713596284389495849609375" lon="6.87962966971099376678466796875">
        <ele>769.4000244140625</ele>
        <time>2013-08-15T17:22:11.000Z</time>
        <extensions>
          <ns3:TrackPointExtension>
            <ns3:atemp>16.0</ns3:atemp>
            <ns3:hr>123</ns3:hr>
          </ns3:TrackPointExtension>
        </extensions>
      </trkpt>
      <trkpt lat="46.63120661862194538116455078125" lon="6.8796019256114959716796875">
        <ele>769</ele>
        <time>2013-08-15T17:22:12.000Z</time>
        <extensions>
          <ns3:TrackPointExtension>
            <ns3:atemp>16.0</ns3:atemp>
            <ns3:hr>123</ns3:hr>
          </ns3:TrackPointExtension>
        </extensions>
      </trkpt>
      <trkpt lat="46.6311500407755374908447265625" lon="6.87957451678812503814697265625">
        <ele>769</ele>
        <time>2013-08-15T17:22:13.000Z</time>
        <extensions>
          <ns3:TrackPointExtension>
            <ns3:atemp>16.0</ns3:atemp>
            <ns3:hr>123</ns3:hr>
          </ns3:TrackPointExtension>
        </extensions>
      </trkpt>
      <trkpt lat="46.63109497167170047760009765625" lon="6.8795467726886272430419921875">
        <ele>769.4000244140625</ele>
        <time>2013-08-15T17:22:14.000Z</time>
        <extensions>
          <ns3:TrackPointExtension>
            <ns3:atemp>16.0</ns3:atemp>
            <ns3:hr>122</ns3:hr>
          </ns3:TrackPointExtension>
        </extensions>
      </trkpt>
      <trkpt lat="46.6310392320156097412109375" lon="6.87951617874205112457275390625">
        <ele>769.5999755859375</ele>
        <time>2013-08-15T17:22:15.000Z</time>
        <extensions>
          <ns3:TrackPointExtension>
            <ns3:atemp>16.0</ns3:atemp>
            <ns3:hr>122</ns3:hr>
          </ns3:TrackPointExtension>
        </extensions>
      </trkpt>
      <trkpt lat="46.63098315708339214324951171875" lon="6.8794839084148406982421875">
        <ele>769.4000244140625</ele>
        <time>2013-08-15T17:22:16.000Z</time>
        <extensions>
          <ns3:TrackPointExtension>
            <ns3:atemp>16.0</ns3:atemp>
            <ns3:hr>122</ns3:hr>
          </ns3:TrackPointExtension>
        </extensions>
      </trkpt>
      <trkpt lat="46.63092733360826969146728515625" lon="6.8794532306492328643798828125">
        <ele>769.20001220703125</ele>
        <time>2013-08-15T17:22:17.000Z</time>
        <extensions>
          <ns3:TrackPointExtension>
            <ns3:atemp>16.0</ns3:atemp>
            <ns3:hr>122</ns3:hr>
          </ns3:TrackPointExtension>
        </extensions>
      </trkpt>
      <trkpt lat="46.63087184540927410125732421875" lon="6.87942045740783214569091796875">
        <ele>769</ele>
        <time>2013-08-15T17:22:18.000Z</time>
        <extensions>
          <ns3:TrackPointExtension>
            <ns3:atemp>16.0</ns3:atemp>
            <ns3:hr>122</ns3:hr>
          </ns3:TrackPointExtension>
        </extensions>
      </trkpt>
      <trkpt lat="46.6308184526860713958740234375" lon="6.87938894145190715789794921875">
        <ele>769</ele>
        <time>2013-08-15T17:22:19.000Z</time>
        <extensions>
          <ns3:TrackPointExtension>
            <ns3:atemp>16.0</ns3:atemp>
            <ns3:hr>122</ns3:hr>
          </ns3:TrackPointExtension>
        </extensions>
      </trkpt>
      <trkpt lat="46.63076640106737613677978515625" lon="6.8793536536395549774169921875">
        <ele>769</ele>
        <time>2013-08-15T17:22:20.000Z</time>
        <extensions>
          <ns3:TrackPointExtension>
            <ns3:atemp>16.0</ns3:atemp>
            <ns3:hr>123</ns3:hr>
          </ns3:TrackPointExtension>
        </extensions>
      </trkpt>
      <trkpt lat="46.630715020000934600830078125" lon="6.87932096421718597412109375">
        <ele>769</ele>
        <time>2013-08-15T17:22:21.000Z</time>
        <extensions>
          <ns3:TrackPointExtension>
            <ns3:atemp>16.0</ns3:atemp>
            <ns3:hr>123</ns3:hr>
          </ns3:TrackPointExtension>
        </extensions>
      </trkpt>
      <trkpt lat="46.63066782988607883453369140625" lon="6.87929271720349788665771484375">
        <ele>768.79998779296875</ele>
        <time>2013-08-15T17:22:22.000Z</time>
        <extensions>
          <ns3:TrackPointExtension>
            <ns3:atemp>16.0</ns3:atemp>
            <ns3:hr>123</ns3:hr>
          </ns3:TrackPointExtension>
        </extensions>
      </trkpt>
      <trkpt lat="46.63062474690377712249755859375" lon="6.87926555983722209930419921875">
        <ele>769</ele>
        <time>2013-08-15T17:22:23.000Z</time>
        <extensions>
          <ns3:TrackPointExtension>
            <ns3:atemp>16.0</ns3:atemp>
            <ns3:hr>123</ns3:hr>
          </ns3:TrackPointExtension>
        </extensions>
      </trkpt>
      <trkpt lat="46.63059004582464694976806640625" lon="6.87924393452703952789306640625">
        <ele>769.20001220703125</ele>
        <time>2013-08-15T17:22:24.000Z</time>
        <extensions>
          <ns3:TrackPointExtension>
            <ns3:atemp>16.0</ns3:atemp>
            <ns3:hr>123</ns3:hr>
          </ns3:TrackPointExtension>
        </extensions>
      </trkpt>
      <trkpt lat="46.630563475191593170166015625" lon="6.8792265839874744415283203125">
        <ele>769.4000244140625</ele>
        <time>2013-08-15T17:22:25.000Z</time>
        <extensions>
          <ns3:TrackPointExtension>
            <ns3:atemp>16.0</ns3:atemp>
            <ns3:hr>123</ns3:hr>
          </ns3:TrackPointExtension>
        </extensions>
      </trkpt>
      <trkpt lat="46.63054310716688632965087890625" lon="6.87921560369431972503662109375">
        <ele>769.5999755859375</ele>
        <time>2013-08-15T17:22:26.000Z</time>
        <extensions>
          <ns3:TrackPointExtension>
            <ns3:atemp>16.0</ns3:atemp>
            <ns3:hr>123</ns3:hr>
          </ns3:TrackPointExtension>
        </extensions>
      </trkpt>
      <trkpt lat="46.6305304504930973052978515625" lon="6.87920822761952877044677734375">
        <ele>769.5999755859375</ele>
        <time>2013-08-15T17:22:27.000Z</time>
        <extensions>
          <ns3:TrackPointExtension>
            <ns3:atemp>16.0</ns3:atemp>
            <ns3:hr>123</ns3:hr>
          </ns3:TrackPointExtension>
        </extensions>
      </trkpt>
      <trkpt lat="46.6305344738066196441650390625" lon="6.8792103230953216552734375">
        <ele>769.5999755859375</ele>
        <time>2013-08-15T17:22:28.000Z</time>
        <extensions>
          <ns3:TrackPointExtension>
            <ns3:atemp>16.0</ns3:atemp>
            <ns3:hr>123</ns3:hr>
          </ns3:TrackPointExtension>
        </extensions>
      </trkpt>
      <trkpt lat="46.630525924265384674072265625" lon="6.87920604832470417022705078125">
        <ele>769.4000244140625</ele>
        <time>2013-08-15T17:22:29.000Z</time>
        <extensions>
          <ns3:TrackPointExtension>
            <ns3:atemp>16.0</ns3:atemp>
            <ns3:hr>122</ns3:hr>
          </ns3:TrackPointExtension>
        </extensions>
      </trkpt>
      <trkpt lat="46.630525924265384674072265625" lon="6.87920604832470417022705078125">
        <ele>769.4000244140625</ele>
        <time>2013-08-15T17:22:30.000Z</time>
        <extensions>
          <ns3:TrackPointExtension>
            <ns3:atemp>16.0</ns3:atemp>
            <ns3:hr>122</ns3:hr>
          </ns3:TrackPointExtension>
        </extensions>
      </trkpt>
      <trkpt lat="46.630525924265384674072265625" lon="6.87920604832470417022705078125">
        <ele>769.5999755859375</ele>
        <time>2013-08-15T17:22:31.000Z</time>
        <extensions>
          <ns3:TrackPointExtension>
            <ns3:atemp>16.0</ns3:atemp>
            <ns3:hr>121</ns3:hr>
          </ns3:TrackPointExtension>
        </extensions>
      </trkpt>
      <trkpt lat="46.630525924265384674072265625" lon="6.87920604832470417022705078125">
        <ele>769.5999755859375</ele>
        <time>2013-08-15T17:22:32.000Z</time>
        <extensions>
          <ns3:TrackPointExtension>
            <ns3:atemp>16.0</ns3:atemp>
            <ns3:hr>121</ns3:hr>
          </ns3:TrackPointExtension>
        </extensions>
      </trkpt>
      <trkpt lat="46.630525924265384674072265625" lon="6.87920604832470417022705078125">
        <ele>769.5999755859375</ele>
        <time>2013-08-15T17:22:33.000Z</time>
        <extensions>
          <ns3:TrackPointExtension>
            <ns3:atemp>16.0</ns3:atemp>
            <ns3:hr>121</ns3:hr>
          </ns3:TrackPointExtension>
        </extensions>
      </trkpt>
      <trkpt lat="46.630525924265384674072265625" lon="6.87920604832470417022705078125">
        <ele>769.5999755859375</ele>
        <time>2013-08-15T17:22:34.000Z</time>
        <extensions>
          <ns3:TrackPointExtension>
            <ns3:atemp>16.0</ns3:atemp>
            <ns3:hr>121</ns3:hr>
          </ns3:TrackPointExtension>
        </extensions>
      </trkpt>
      <trkpt lat="46.630525924265384674072265625" lon="6.87920604832470417022705078125">
        <ele>769.4000244140625</ele>
        <time>2013-08-15T17:22:35.000Z</time>
        <extensions>
          <ns3:TrackPointExtension>
            <ns3:atemp>16.0</ns3:atemp>
            <ns3:hr>121</ns3:hr>
          </ns3:TrackPointExtension>
        </extensions>
      </trkpt>
      <trkpt lat="46.630525924265384674072265625" lon="6.87920604832470417022705078125">
        <ele>769.4000244140625</ele>
        <time>2013-08-15T17:22:36.000Z</time>
        <extensions>
          <ns3:TrackPointExtension>
            <ns3:atemp>16.0</ns3:atemp>
            <ns3:hr>121</ns3:hr>
          </ns3:TrackPointExtension>
        </extensions>
      </trkpt>
      <trkpt lat="46.630525924265384674072265625" lon="6.87920604832470417022705078125">
        <ele>769.4000244140625</ele>
        <time>2013-08-15T17:22:37.000Z</time>
        <extensions>
          <ns3:TrackPointExtension>
            <ns3:atemp>16.0</ns3:atemp>
            <ns3:hr>122</ns3:hr>
          </ns3:TrackPointExtension>
        </extensions>
      </trkpt>
      <trkpt lat="46.630525924265384674072265625" lon="6.87920604832470417022705078125">
        <ele>769.4000244140625</ele>
        <time>2013-08-15T17:22:38.000Z</time>
        <extensions>
          <ns3:TrackPointExtension>
            <ns3:atemp>16.0</ns3:atemp>
            <ns3:hr>122</ns3:hr>
          </ns3:TrackPointExtension>
        </extensions>
      </trkpt>
      <trkpt lat="46.630525924265384674072265625" lon="6.87920604832470417022705078125">
        <ele>769.5999755859375</ele>
        <time>2013-08-15T17:22:39.000Z</time>
        <extensions>
          <ns3:TrackPointExtension>
            <ns3:atemp>16.0</ns3:atemp>
            <ns3:hr>123</ns3:hr>
          </ns3:TrackPointExtension>
        </extensions>
      </trkpt>
      <trkpt lat="46.630525924265384674072265625" lon="6.87920604832470417022705078125">
        <ele>769.4000244140625</ele>
        <time>2013-08-15T17:22:40.000Z</time>
        <extensions>
          <ns3:TrackPointExtension>
            <ns3:atemp>16.0</ns3:atemp>
            <ns3:hr>123</ns3:hr>
          </ns3:TrackPointExtension>
        </extensions>
      </trkpt>
      <trkpt lat="46.630525924265384674072265625" lon="6.87920604832470417022705078125">
        <ele>769.4000244140625</ele>
        <time>2013-08-15T17:22:41.000Z</time>
        <extensions>
          <ns3:TrackPointExtension>
            <ns3:atemp>16.0</ns3:atemp>
            <ns3:hr>123</ns3:hr>
          </ns3:TrackPointExtension>
        </extensions>
      </trkpt>
      <trkpt lat="46.630525924265384674072265625" lon="6.87920604832470417022705078125">
        <ele>769.4000244140625</ele>
        <time>2013-08-15T17:22:42.000Z</time>
        <extensions>
          <ns3:TrackPointExtension>
            <ns3:atemp>16.0</ns3:atemp>
            <ns3:hr>123</ns3:hr>
          </ns3:TrackPointExtension>
        </extensions>
      </trkpt>
      <trkpt lat="46.630525924265384674072265625" lon="6.87920604832470417022705078125">
        <ele>769.4000244140625</ele>
        <time>2013-08-15T17:22:43.000Z</time>
        <extensions>
          <ns3:TrackPointExtension>
            <ns3:atemp>16.0</ns3:atemp>
            <ns3:hr>123</ns3:hr>
          </ns3:TrackPointExtension>
        </extensions>
      </trkpt>
      <trkpt lat="46.630525924265384674072265625" lon="6.87920604832470417022705078125">
        <ele>769.4000244140625</ele>
        <time>2013-08-15T17:22:44.000Z</time>
        <extensions>
          <ns3:TrackPointExtension>
            <ns3:atemp>16.0</ns3:atemp>
            <ns3:hr>123</ns3:hr>
          </ns3:TrackPointExtension>
        </extensions>
      </trkpt>
      <trkpt lat="46.630525924265384674072265625" lon="6.87920604832470417022705078125">
        <ele>769.4000244140625</ele>
        <time>2013-08-15T17:22:45.000Z</time>
        <extensions>
          <ns3:TrackPointExtension>
            <ns3:atemp>16.0</ns3:atemp>
            <ns3:hr>123</ns3:hr>
          </ns3:TrackPointExtension>
        </extensions>
      </trkpt>
      <trkpt lat="46.630525924265384674072265625" lon="6.87920604832470417022705078125">
        <ele>769.4000244140625</ele>
        <time>2013-08-15T17:22:46.000Z</time>
        <extensions>
          <ns3:TrackPointExtension>
            <ns3:atemp>16.0</ns3:atemp>
            <ns3:hr>123</ns3:hr>
          </ns3:TrackPointExtension>
        </extensions>
      </trkpt>
      <trkpt lat="46.63052282296121120452880859375" lon="6.87920428812503814697265625">
        <ele>769.4000244140625</ele>
        <time>2013-08-15T17:22:47.000Z</time>
        <extensions>
          <ns3:TrackPointExtension>
            <ns3:atemp>16.0</ns3:atemp>
            <ns3:hr>123</ns3:hr>
          </ns3:TrackPointExtension>
        </extensions>
      </trkpt>
      <trkpt lat="46.63049499504268169403076171875" lon="6.87918953597545623779296875">
        <ele>769.5999755859375</ele>
        <time>2013-08-15T17:22:48.000Z</time>
        <extensions>
          <ns3:TrackPointExtension>
            <ns3:atemp>16.0</ns3:atemp>
            <ns3:hr>124</ns3:hr>
          </ns3:TrackPointExtension>
        </extensions>
      </trkpt>
      <trkpt lat="46.6304694302380084991455078125" lon="6.87916782684624195098876953125">
        <ele>769.5999755859375</ele>
        <time>2013-08-15T17:22:49.000Z</time>
        <extensions>
          <ns3:TrackPointExtension>
            <ns3:atemp>16.0</ns3:atemp>
            <ns3:hr>124</ns3:hr>
          </ns3:TrackPointExtension>
        </extensions>
      </trkpt>
      <trkpt lat="46.6304345615208148956298828125" lon="6.87915089540183544158935546875">
        <ele>769.5999755859375</ele>
        <time>2013-08-15T17:22:50.000Z</time>
        <extensions>
          <ns3:TrackPointExtension>
            <ns3:atemp>16.0</ns3:atemp>
            <ns3:hr>124</ns3:hr>
          </ns3:TrackPointExtension>
        </extensions>
      </trkpt>
      <trkpt lat="46.63039977662265300750732421875" lon="6.8791303597390651702880859375">
        <ele>769.79998779296875</ele>
        <time>2013-08-15T17:22:51.000Z</time>
        <extensions>
          <ns3:TrackPointExtension>
            <ns3:atemp>16.0</ns3:atemp>
            <ns3:hr>124</ns3:hr>
          </ns3:TrackPointExtension>
        </extensions>
      </trkpt>
      <trkpt lat="46.630361974239349365234375" lon="6.8791092373430728912353515625">
        <ele>770</ele>
        <time>2013-08-15T17:22:52.000Z</time>
        <extensions>
          <ns3:TrackPointExtension>
            <ns3:atemp>16.0</ns3:atemp>
            <ns3:hr>123</ns3:hr>
          </ns3:TrackPointExtension>
        </extensions>
      </trkpt>
      <trkpt lat="46.630322076380252838134765625" lon="6.87908886931836605072021484375">
        <ele>770.4000244140625</ele>
        <time>2013-08-15T17:22:53.000Z</time>
        <extensions>
          <ns3:TrackPointExtension>
            <ns3:atemp>16.0</ns3:atemp>
            <ns3:hr>123</ns3:hr>
          </ns3:TrackPointExtension>
        </extensions>
      </trkpt>
      <trkpt lat="46.63028561510145664215087890625" lon="6.87906975857913494110107421875">
        <ele>770.5999755859375</ele>
        <time>2013-08-15T17:22:54.000Z</time>
        <extensions>
          <ns3:TrackPointExtension>
            <ns3:atemp>16.0</ns3:atemp>
            <ns3:hr>123</ns3:hr>
          </ns3:TrackPointExtension>
        </extensions>
      </trkpt>
      <trkpt lat="46.63024739362299442291259765625" lon="6.87905198894441127777099609375">
        <ele>770.79998779296875</ele>
        <time>2013-08-15T17:22:55.000Z</time>
        <extensions>
          <ns3:TrackPointExtension>
            <ns3:atemp>16.0</ns3:atemp>
            <ns3:hr>122</ns3:hr>
          </ns3:TrackPointExtension>
        </extensions>
      </trkpt>
      <trkpt lat="46.63021453656256198883056640625" lon="6.8790291063487529754638671875">
        <ele>771.20001220703125</ele>
        <time>2013-08-15T17:22:56.000Z</time>
        <extensions>
          <ns3:TrackPointExtension>
            <ns3:atemp>16.0</ns3:atemp>
            <ns3:hr>122</ns3:hr>
          </ns3:TrackPointExtension>
        </extensions>
      </trkpt>
      <trkpt lat="46.63018050603568553924560546875" lon="6.8790064752101898193359375">
        <ele>771.20001220703125</ele>
        <time>2013-08-15T17:22:57.000Z</time>
        <extensions>
          <ns3:TrackPointExtension>
            <ns3:atemp>16.0</ns3:atemp>
            <ns3:hr>122</ns3:hr>
          </ns3:TrackPointExtension>
        </extensions>
      </trkpt>
      <trkpt lat="46.63014580495655536651611328125" lon="6.87898493371903896331787109375">
        <ele>771.20001220703125</ele>
        <time>2013-08-15T17:22:58.000Z</time>
        <extensions>
          <ns3:TrackPointExtension>
            <ns3:atemp>16.0</ns3:atemp>
            <ns3:hr>122</ns3:hr>
          </ns3:TrackPointExtension>
        </extensions>
      </trkpt>
      <trkpt lat="46.630114875733852386474609375" lon="6.878967918455600738525390625">
        <ele>771.20001220703125</ele>
        <time>2013-08-15T17:22:59.000Z</time>
        <extensions>
          <ns3:TrackPointExtension>
            <ns3:atemp>16.0</ns3:atemp>
            <ns3:hr>122</ns3:hr>
          </ns3:TrackPointExtension>
        </extensions>
      </trkpt>
      <trkpt lat="46.63008361123502254486083984375" lon="6.87894880771636962890625">
        <ele>771.20001220703125</ele>
        <time>2013-08-15T17:23:00.000Z</time>
        <extensions>
          <ns3:TrackPointExtension>
            <ns3:atemp>16.0</ns3:atemp>
            <ns3:hr>122</ns3:hr>
          </ns3:TrackPointExtension>
        </extensions>
      </trkpt>
      <trkpt lat="46.6300506703555583953857421875" lon="6.8789301998913288116455078125">
        <ele>771.4000244140625</ele>
        <time>2013-08-15T17:23:01.000Z</time>
        <extensions>
          <ns3:TrackPointExtension>
            <ns3:atemp>16.0</ns3:atemp>
            <ns3:hr>122</ns3:hr>
          </ns3:TrackPointExtension>
        </extensions>
      </trkpt>
      <trkpt lat="46.630016975104808807373046875" lon="6.87891234643757343292236328125">
        <ele>771.5999755859375</ele>
        <time>2013-08-15T17:23:02.000Z</time>
        <extensions>
          <ns3:TrackPointExtension>
            <ns3:atemp>16.0</ns3:atemp>
            <ns3:hr>122</ns3:hr>
          </ns3:TrackPointExtension>
        </extensions>
      </trkpt>
      <trkpt lat="46.62998177111148834228515625" lon="6.87889449298381805419921875">
        <ele>772</ele>
        <time>2013-08-15T17:23:03.000Z</time>
        <extensions>
          <ns3:TrackPointExtension>
            <ns3:atemp>16.0</ns3:atemp>
            <ns3:hr>123</ns3:hr>
          </ns3:TrackPointExtension>
        </extensions>
      </trkpt>
      <trkpt lat="46.6299457289278507232666015625" lon="6.87887663953006267547607421875">
        <ele>772.20001220703125</ele>
        <time>2013-08-15T17:23:04.000Z</time>
        <extensions>
          <ns3:TrackPointExtension>
            <ns3:atemp>16.0</ns3:atemp>
            <ns3:hr>123</ns3:hr>
          </ns3:TrackPointExtension>
        </extensions>
      </trkpt>
      <trkpt lat="46.6299101896584033966064453125" lon="6.87885920517146587371826171875">
        <ele>772.20001220703125</ele>
        <time>2013-08-15T17:23:05.000Z</time>
        <extensions>
          <ns3:TrackPointExtension>
            <ns3:atemp>16.0</ns3:atemp>
            <ns3:hr>124</ns3:hr>
          </ns3:TrackPointExtension>
        </extensions>
      </trkpt>
      <trkpt lat="46.62987272255122661590576171875" lon="6.87883841805160045623779296875">
        <ele>772.4000244140625</ele>
        <time>2013-08-15T17:23:06.000Z</time>
        <extensions>
          <ns3:TrackPointExtension>
            <ns3:atemp>16.0</ns3:atemp>
            <ns3:hr>124</ns3:hr>
          </ns3:TrackPointExtension>
        </extensions>
      </trkpt>
      <trkpt lat="46.6298349201679229736328125" lon="6.8788208998739719390869140625">
        <ele>772.4000244140625</ele>
        <time>2013-08-15T17:23:07.000Z</time>
        <extensions>
          <ns3:TrackPointExtension>
            <ns3:atemp>16.0</ns3:atemp>
            <ns3:hr>124</ns3:hr>
          </ns3:TrackPointExtension>
        </extensions>
      </trkpt>
      <trkpt lat="46.62979611195623874664306640625" lon="6.87880463898181915283203125">
        <ele>772.4000244140625</ele>
        <time>2013-08-15T17:23:08.000Z</time>
        <extensions>
          <ns3:TrackPointExtension>
            <ns3:atemp>16.0</ns3:atemp>
            <ns3:hr>125</ns3:hr>
          </ns3:TrackPointExtension>
        </extensions>
      </trkpt>
      <trkpt lat="46.629757471382617950439453125" lon="6.8787890486419200897216796875">
        <ele>772.5999755859375</ele>
        <time>2013-08-15T17:23:09.000Z</time>
        <extensions>
          <ns3:TrackPointExtension>
            <ns3:atemp>16.0</ns3:atemp>
            <ns3:hr>125</ns3:hr>
          </ns3:TrackPointExtension>
        </extensions>
      </trkpt>
      <trkpt lat="46.62971732206642627716064453125" lon="6.8787763081490993499755859375">
        <ele>772.79998779296875</ele>
        <time>2013-08-15T17:23:10.000Z</time>
        <extensions>
          <ns3:TrackPointExtension>
            <ns3:atemp>16.0</ns3:atemp>
            <ns3:hr>126</ns3:hr>
          </ns3:TrackPointExtension>
        </extensions>
      </trkpt>
      <trkpt lat="46.629677005112171173095703125" lon="6.8787682615220546722412109375">
        <ele>773.4000244140625</ele>
        <time>2013-08-15T17:23:11.000Z</time>
        <extensions>
          <ns3:TrackPointExtension>
            <ns3:atemp>16.0</ns3:atemp>
            <ns3:hr>126</ns3:hr>
          </ns3:TrackPointExtension>
        </extensions>
      </trkpt>
      <trkpt lat="46.629638113081455230712890625" lon="6.87875677831470966339111328125">
        <ele>773.4000244140625</ele>
        <time>2013-08-15T17:23:12.000Z</time>
        <extensions>
          <ns3:TrackPointExtension>
            <ns3:atemp>16.0</ns3:atemp>
            <ns3:hr>127</ns3:hr>
          </ns3:TrackPointExtension>
        </extensions>
      </trkpt>
      <trkpt lat="46.62960031069815158843994140625" lon="6.878741271793842315673828125">
        <ele>773.4000244140625</ele>
        <time>2013-08-15T17:23:13.000Z</time>
        <extensions>
          <ns3:TrackPointExtension>
            <ns3:atemp>16.0</ns3:atemp>
            <ns3:hr>127</ns3:hr>
          </ns3:TrackPointExtension>
        </extensions>
      </trkpt>
      <trkpt lat="46.62956493906676769256591796875" lon="6.87872492708265781402587890625">
        <ele>773.5999755859375</ele>
        <time>2013-08-15T17:23:14.000Z</time>
        <extensions>
          <ns3:TrackPointExtension>
            <ns3:atemp>16.0</ns3:atemp>
            <ns3:hr>128</ns3:hr>
          </ns3:TrackPointExtension>
        </extensions>
      </trkpt>
      <trkpt lat="46.6295318305492401123046875" lon="6.87870673835277557373046875">
        <ele>774.20001220703125</ele>
        <time>2013-08-15T17:23:15.000Z</time>
        <extensions>
          <ns3:TrackPointExtension>
            <ns3:atemp>16.0</ns3:atemp>
            <ns3:hr>129</ns3:hr>
          </ns3:TrackPointExtension>
        </extensions>
      </trkpt>
      <trkpt lat="46.62950056605041027069091796875" lon="6.8786926567554473876953125">
        <ele>774.4000244140625</ele>
        <time>2013-08-15T17:23:16.000Z</time>
        <extensions>
          <ns3:TrackPointExtension>
            <ns3:atemp>16.0</ns3:atemp>
            <ns3:hr>130</ns3:hr>
          </ns3:TrackPointExtension>
        </extensions>
      </trkpt>
      <trkpt lat="46.6294728219509124755859375" lon="6.87867782078683376312255859375">
        <ele>775</ele>
        <time>2013-08-15T17:23:17.000Z</time>
        <extensions>
          <ns3:TrackPointExtension>
            <ns3:atemp>16.0</ns3:atemp>
            <ns3:hr>130</ns3:hr>
          </ns3:TrackPointExtension>
        </extensions>
      </trkpt>
      <trkpt lat="46.62944658659398555755615234375" lon="6.878663487732410430908203125">
        <ele>775.20001220703125</ele>
        <time>2013-08-15T17:23:18.000Z</time>
        <extensions>
          <ns3:TrackPointExtension>
            <ns3:atemp>16.0</ns3:atemp>
            <ns3:hr>131</ns3:hr>
          </ns3:TrackPointExtension>
        </extensions>
      </trkpt>
      <trkpt lat="46.62942211143672466278076171875" lon="6.87864932231605052947998046875">
        <ele>775</ele>
        <time>2013-08-15T17:23:19.000Z</time>
        <extensions>
          <ns3:TrackPointExtension>
            <ns3:atemp>16.0</ns3:atemp>
            <ns3:hr>131</ns3:hr>
          </ns3:TrackPointExtension>
        </extensions>
      </trkpt>
      <trkpt lat="46.62939361296594142913818359375" lon="6.87863389961421489715576171875">
        <ele>775.4000244140625</ele>
        <time>2013-08-15T17:23:20.000Z</time>
        <extensions>
          <ns3:TrackPointExtension>
            <ns3:atemp>16.0</ns3:atemp>
            <ns3:hr>132</ns3:hr>
          </ns3:TrackPointExtension>
        </extensions>
      </trkpt>
      <trkpt lat="46.6293640248477458953857421875" lon="6.87862032093107700347900390625">
        <ele>775.4000244140625</ele>
        <time>2013-08-15T17:23:21.000Z</time>
        <extensions>
          <ns3:TrackPointExtension>
            <ns3:atemp>16.0</ns3:atemp>
            <ns3:hr>132</ns3:hr>
          </ns3:TrackPointExtension>
        </extensions>
      </trkpt>
      <trkpt lat="46.62933225743472576141357421875" lon="6.878610514104366302490234375">
        <ele>775.5999755859375</ele>
        <time>2013-08-15T17:23:22.000Z</time>
        <extensions>
          <ns3:TrackPointExtension>
            <ns3:atemp>16.0</ns3:atemp>
            <ns3:hr>133</ns3:hr>
          </ns3:TrackPointExtension>
        </extensions>
      </trkpt>
      <trkpt lat="46.62929512560367584228515625" lon="6.8785960972309112548828125">
        <ele>775.5999755859375</ele>
        <time>2013-08-15T17:23:23.000Z</time>
        <extensions>
          <ns3:TrackPointExtension>
            <ns3:atemp>16.0</ns3:atemp>
            <ns3:hr>133</ns3:hr>
          </ns3:TrackPointExtension>
        </extensions>
      </trkpt>
      <trkpt lat="46.6292610950767993927001953125" lon="6.8785826861858367919921875">
        <ele>775.5999755859375</ele>
        <time>2013-08-15T17:23:24.000Z</time>
        <extensions>
          <ns3:TrackPointExtension>
            <ns3:atemp>16.0</ns3:atemp>
            <ns3:hr>134</ns3:hr>
          </ns3:TrackPointExtension>
        </extensions>
      </trkpt>
      <trkpt lat="46.62919898517429828643798828125" lon="6.8785546906292438507080078125">
        <ele>775.5999755859375</ele>
        <time>2013-08-15T17:23:26.000Z</time>
        <extensions>
          <ns3:TrackPointExtension>
            <ns3:atemp>16.0</ns3:atemp>
            <ns3:hr>133</ns3:hr>
          </ns3:TrackPointExtension>
        </extensions>
      </trkpt>
      <trkpt lat="46.6291688941419124603271484375" lon="6.8785412795841693878173828125">
        <ele>775.79998779296875</ele>
        <time>2013-08-15T17:23:27.000Z</time>
        <extensions>
          <ns3:TrackPointExtension>
            <ns3:atemp>16.0</ns3:atemp>
            <ns3:hr>133</ns3:hr>
          </ns3:TrackPointExtension>
        </extensions>
      </trkpt>
      <trkpt lat="46.62913645617663860321044921875" lon="6.87853013165295124053955078125">
        <ele>776</ele>
        <time>2013-08-15T17:23:28.000Z</time>
        <extensions>
          <ns3:TrackPointExtension>
            <ns3:atemp>16.0</ns3:atemp>
            <ns3:hr>133</ns3:hr>
          </ns3:TrackPointExtension>
        </extensions>
      </trkpt>
      <trkpt lat="46.62910745479166507720947265625" lon="6.878519318997859954833984375">
        <ele>776</ele>
        <time>2013-08-15T17:23:29.000Z</time>
        <extensions>
          <ns3:TrackPointExtension>
            <ns3:atemp>16.0</ns3:atemp>
            <ns3:hr>133</ns3:hr>
          </ns3:TrackPointExtension>
        </extensions>
      </trkpt>
      <trkpt lat="46.6290776990354061126708984375" lon="6.8785054050385951995849609375">
        <ele>775.5999755859375</ele>
        <time>2013-08-15T17:23:30.000Z</time>
        <extensions>
          <ns3:TrackPointExtension>
            <ns3:atemp>16.0</ns3:atemp>
            <ns3:hr>133</ns3:hr>
          </ns3:TrackPointExtension>
        </extensions>
      </trkpt>
      <trkpt lat="46.62904777564108371734619140625" lon="6.87848185189068317413330078125">
        <ele>775.5999755859375</ele>
        <time>2013-08-15T17:23:31.000Z</time>
        <extensions>
          <ns3:TrackPointExtension>
            <ns3:atemp>16.0</ns3:atemp>
            <ns3:hr>133</ns3:hr>
          </ns3:TrackPointExtension>
        </extensions>
      </trkpt>
      <trkpt lat="46.62901860661804676055908203125" lon="6.878457963466644287109375">
        <ele>775.5999755859375</ele>
        <time>2013-08-15T17:23:32.000Z</time>
        <extensions>
          <ns3:TrackPointExtension>
            <ns3:atemp>16.0</ns3:atemp>
            <ns3:hr>133</ns3:hr>
          </ns3:TrackPointExtension>
        </extensions>
      </trkpt>
      <trkpt lat="46.62898859940469264984130859375" lon="6.87843139283359050750732421875">
        <ele>775.79998779296875</ele>
        <time>2013-08-15T17:23:33.000Z</time>
        <extensions>
          <ns3:TrackPointExtension>
            <ns3:atemp>16.0</ns3:atemp>
            <ns3:hr>133</ns3:hr>
          </ns3:TrackPointExtension>
        </extensions>
      </trkpt>
      <trkpt lat="46.62894434295594692230224609375" lon="6.87838084995746612548828125">
        <ele>776</ele>
        <time>2013-08-15T17:23:34.000Z</time>
        <extensions>
          <ns3:TrackPointExtension>
            <ns3:atemp>16.0</ns3:atemp>
            <ns3:hr>133</ns3:hr>
          </ns3:TrackPointExtension>
        </extensions>
      </trkpt>
      <trkpt lat="46.62889522500336170196533203125" lon="6.87832091934978961944580078125">
        <ele>775.5999755859375</ele>
        <time>2013-08-15T17:23:35.000Z</time>
        <extensions>
          <ns3:TrackPointExtension>
            <ns3:atemp>16.0</ns3:atemp>
            <ns3:hr>132</ns3:hr>
          </ns3:TrackPointExtension>
        </extensions>
      </trkpt>
      <trkpt lat="46.628851555287837982177734375" lon="6.878259144723415374755859375">
        <ele>775.4000244140625</ele>
        <time>2013-08-15T17:23:36.000Z</time>
        <extensions>
          <ns3:TrackPointExtension>
            <ns3:atemp>16.0</ns3:atemp>
            <ns3:hr>132</ns3:hr>
          </ns3:TrackPointExtension>
        </extensions>
      </trkpt>
      <trkpt lat="46.62880285643041133880615234375" lon="6.87818982638418674468994140625">
        <ele>775</ele>
        <time>2013-08-15T17:23:37.000Z</time>
        <extensions>
          <ns3:TrackPointExtension>
            <ns3:atemp>16.0</ns3:atemp>
            <ns3:hr>132</ns3:hr>
          </ns3:TrackPointExtension>
        </extensions>
      </trkpt>
      <trkpt lat="46.6287521459162235260009765625" lon="6.878114640712738037109375">
        <ele>775.20001220703125</ele>
        <time>2013-08-15T17:23:38.000Z</time>
        <extensions>
          <ns3:TrackPointExtension>
            <ns3:atemp>16.0</ns3:atemp>
            <ns3:hr>132</ns3:hr>
          </ns3:TrackPointExtension>
        </extensions>
      </trkpt>
      <trkpt lat="46.6287085600197315216064453125" lon="6.87803928740322589874267578125">
        <ele>775</ele>
        <time>2013-08-15T17:23:39.000Z</time>
        <extensions>
          <ns3:TrackPointExtension>
            <ns3:atemp>16.0</ns3:atemp>
            <ns3:hr>132</ns3:hr>
          </ns3:TrackPointExtension>
        </extensions>
      </trkpt>
      <trkpt lat="46.6286629624664783477783203125" lon="6.87795446254312992095947265625">
        <ele>774.20001220703125</ele>
        <time>2013-08-15T17:23:40.000Z</time>
        <extensions>
          <ns3:TrackPointExtension>
            <ns3:atemp>16.0</ns3:atemp>
            <ns3:hr>132</ns3:hr>
          </ns3:TrackPointExtension>
        </extensions>
      </trkpt>
      <trkpt lat="46.62862180732190608978271484375" lon="6.87786896713078022003173828125">
        <ele>772.79998779296875</ele>
        <time>2013-08-15T17:23:41.000Z</time>
        <extensions>
          <ns3:TrackPointExtension>
            <ns3:atemp>16.0</ns3:atemp>
            <ns3:hr>132</ns3:hr>
          </ns3:TrackPointExtension>
        </extensions>
      </trkpt>
      <trkpt lat="46.62858157418668270111083984375" lon="6.877789087593555450439453125">
        <ele>772.20001220703125</ele>
        <time>2013-08-15T17:23:42.000Z</time>
        <extensions>
          <ns3:TrackPointExtension>
            <ns3:atemp>16.0</ns3:atemp>
            <ns3:hr>132</ns3:hr>
          </ns3:TrackPointExtension>
        </extensions>
      </trkpt>
      <trkpt lat="46.62854947149753570556640625" lon="6.87770820222795009613037109375">
        <ele>771.4000244140625</ele>
        <time>2013-08-15T17:23:43.000Z</time>
        <extensions>
          <ns3:TrackPointExtension>
            <ns3:atemp>16.0</ns3:atemp>
            <ns3:hr>132</ns3:hr>
          </ns3:TrackPointExtension>
        </extensions>
      </trkpt>
      <trkpt lat="46.6285154409706592559814453125" lon="6.87762723304331302642822265625">
        <ele>770.5999755859375</ele>
        <time>2013-08-15T17:23:44.000Z</time>
        <extensions>
          <ns3:TrackPointExtension>
            <ns3:atemp>16.0</ns3:atemp>
            <ns3:hr>131</ns3:hr>
          </ns3:TrackPointExtension>
        </extensions>
      </trkpt>
      <trkpt lat="46.62847780622541904449462890625" lon="6.87754936516284942626953125">
        <ele>770</ele>
        <time>2013-08-15T17:23:45.000Z</time>
        <extensions>
          <ns3:TrackPointExtension>
            <ns3:atemp>16.0</ns3:atemp>
            <ns3:hr>131</ns3:hr>
          </ns3:TrackPointExtension>
        </extensions>
      </trkpt>
      <trkpt lat="46.628437824547290802001953125" lon="6.877477280795574188232421875">
        <ele>769.4000244140625</ele>
        <time>2013-08-15T17:23:46.000Z</time>
        <extensions>
          <ns3:TrackPointExtension>
            <ns3:atemp>16.0</ns3:atemp>
            <ns3:hr>131</ns3:hr>
          </ns3:TrackPointExtension>
        </extensions>
      </trkpt>
      <trkpt lat="46.6283991001546382904052734375" lon="6.87740293331444263458251953125">
        <ele>768.4000244140625</ele>
        <time>2013-08-15T17:23:47.000Z</time>
        <extensions>
          <ns3:TrackPointExtension>
            <ns3:atemp>16.0</ns3:atemp>
            <ns3:hr>130</ns3:hr>
          </ns3:TrackPointExtension>
        </extensions>
      </trkpt>
      <trkpt lat="46.62835769355297088623046875" lon="6.87733076512813568115234375">
        <ele>767.4000244140625</ele>
        <time>2013-08-15T17:23:48.000Z</time>
        <extensions>
          <ns3:TrackPointExtension>
            <ns3:atemp>16.0</ns3:atemp>
            <ns3:hr>129</ns3:hr>
          </ns3:TrackPointExtension>
        </extensions>
      </trkpt>
      <trkpt lat="46.6283169575035572052001953125" lon="6.87726580537855625152587890625">
        <ele>766.4000244140625</ele>
        <time>2013-08-15T17:23:49.000Z</time>
        <extensions>
          <ns3:TrackPointExtension>
            <ns3:atemp>16.0</ns3:atemp>
            <ns3:hr>128</ns3:hr>
          </ns3:TrackPointExtension>
        </extensions>
      </trkpt>
      <trkpt lat="46.62827647291123867034912109375" lon="6.8772162683308124542236328125">
        <ele>765.5999755859375</ele>
        <time>2013-08-15T17:23:50.000Z</time>
        <extensions>
          <ns3:TrackPointExtension>
            <ns3:atemp>16.0</ns3:atemp>
            <ns3:hr>127</ns3:hr>
          </ns3:TrackPointExtension>
        </extensions>
      </trkpt>
      <trkpt lat="46.6282354854047298431396484375" lon="6.87717578373849391937255859375">
        <ele>764.79998779296875</ele>
        <time>2013-08-15T17:23:51.000Z</time>
        <extensions>
          <ns3:TrackPointExtension>
            <ns3:atemp>16.0</ns3:atemp>
            <ns3:hr>126</ns3:hr>
          </ns3:TrackPointExtension>
        </extensions>
      </trkpt>
      <trkpt lat="46.628186702728271484375" lon="6.877135969698429107666015625">
        <ele>764.4000244140625</ele>
        <time>2013-08-15T17:23:52.000Z</time>
        <extensions>
          <ns3:TrackPointExtension>
            <ns3:atemp>16.0</ns3:atemp>
            <ns3:hr>125</ns3:hr>
          </ns3:TrackPointExtension>
        </extensions>
      </trkpt>
      <trkpt lat="46.62813842296600341796875" lon="6.87710688449442386627197265625">
        <ele>764</ele>
        <time>2013-08-15T17:23:53.000Z</time>
        <extensions>
          <ns3:TrackPointExtension>
            <ns3:atemp>16.0</ns3:atemp>
            <ns3:hr>124</ns3:hr>
          </ns3:TrackPointExtension>
        </extensions>
      </trkpt>
      <trkpt lat="46.628090478479862213134765625" lon="6.8770784698426723480224609375">
        <ele>763.4000244140625</ele>
        <time>2013-08-15T17:23:54.000Z</time>
        <extensions>
          <ns3:TrackPointExtension>
            <ns3:atemp>16.0</ns3:atemp>
            <ns3:hr>122</ns3:hr>
          </ns3:TrackPointExtension>
        </extensions>
      </trkpt>
      <trkpt lat="46.62803842686116695404052734375" lon="6.87705340795218944549560546875">
        <ele>762.4000244140625</ele>
        <time>2013-08-15T17:23:55.000Z</time>
        <extensions>
          <ns3:TrackPointExtension>
            <ns3:atemp>16.0</ns3:atemp>
            <ns3:hr>122</ns3:hr>
          </ns3:TrackPointExtension>
        </extensions>
      </trkpt>
      <trkpt lat="46.62797690369188785552978515625" lon="6.8770362250506877899169921875">
        <ele>762</ele>
        <time>2013-08-15T17:23:56.000Z</time>
        <extensions>
          <ns3:TrackPointExtension>
            <ns3:atemp>16.0</ns3:atemp>
            <ns3:hr>121</ns3:hr>
          </ns3:TrackPointExtension>
        </extensions>
      </trkpt>
      <trkpt lat="46.6279129497706890106201171875" lon="6.877020634710788726806640625">
        <ele>761.79998779296875</ele>
        <time>2013-08-15T17:23:57.000Z</time>
        <extensions>
          <ns3:TrackPointExtension>
            <ns3:atemp>16.0</ns3:atemp>
            <ns3:hr>120</ns3:hr>
          </ns3:TrackPointExtension>
        </extensions>
      </trkpt>
      <trkpt lat="46.6278401948511600494384765625" lon="6.87701351009309291839599609375">
        <ele>761.79998779296875</ele>
        <time>2013-08-15T17:23:58.000Z</time>
        <extensions>
          <ns3:TrackPointExtension>
            <ns3:atemp>16.0</ns3:atemp>
            <ns3:hr>119</ns3:hr>
          </ns3:TrackPointExtension>
        </extensions>
      </trkpt>
      <trkpt lat="46.62776769138872623443603515625" lon="6.87702021561563014984130859375">
        <ele>761.20001220703125</ele>
        <time>2013-08-15T17:23:59.000Z</time>
        <extensions>
          <ns3:TrackPointExtension>
            <ns3:atemp>16.0</ns3:atemp>
            <ns3:hr>119</ns3:hr>
          </ns3:TrackPointExtension>
        </extensions>
      </trkpt>
      <trkpt lat="46.62769460119307041168212890625" lon="6.8770328722894191741943359375">
        <ele>760.79998779296875</ele>
        <time>2013-08-15T17:24:00.000Z</time>
        <extensions>
          <ns3:TrackPointExtension>
            <ns3:atemp>16.0</ns3:atemp>
            <ns3:hr>119</ns3:hr>
          </ns3:TrackPointExtension>
        </extensions>
      </trkpt>
      <trkpt lat="46.6276239417493343353271484375" lon="6.8770472891628742218017578125">
        <ele>760</ele>
        <time>2013-08-15T17:24:01.000Z</time>
        <extensions>
          <ns3:TrackPointExtension>
            <ns3:atemp>16.0</ns3:atemp>
            <ns3:hr>118</ns3:hr>
          </ns3:TrackPointExtension>
        </extensions>
      </trkpt>
      <trkpt lat="46.6275555454194545745849609375" lon="6.87707168050110340118408203125">
        <ele>759.79998779296875</ele>
        <time>2013-08-15T17:24:02.000Z</time>
        <extensions>
          <ns3:TrackPointExtension>
            <ns3:atemp>16.0</ns3:atemp>
            <ns3:hr>118</ns3:hr>
          </ns3:TrackPointExtension>
        </extensions>
      </trkpt>
      <trkpt lat="46.6274853050708770751953125" lon="6.87709649093449115753173828125">
        <ele>758.79998779296875</ele>
        <time>2013-08-15T17:24:03.000Z</time>
        <extensions>
          <ns3:TrackPointExtension>
            <ns3:atemp>16.0</ns3:atemp>
            <ns3:hr>117</ns3:hr>
          </ns3:TrackPointExtension>
        </extensions>
      </trkpt>
      <trkpt lat="46.627400480210781097412109375" lon="6.8771425075829029083251953125">
        <ele>758.5999755859375</ele>
        <time>2013-08-15T17:24:04.000Z</time>
        <extensions>
          <ns3:TrackPointExtension>
            <ns3:atemp>16.0</ns3:atemp>
            <ns3:hr>116</ns3:hr>
          </ns3:TrackPointExtension>
        </extensions>
      </trkpt>
      <trkpt lat="46.62732127122581005096435546875" lon="6.87719087116420269012451171875">
        <ele>757.79998779296875</ele>
        <time>2013-08-15T17:24:05.000Z</time>
        <extensions>
          <ns3:TrackPointExtension>
            <ns3:atemp>16.0</ns3:atemp>
            <ns3:hr>117</ns3:hr>
          </ns3:TrackPointExtension>
        </extensions>
      </trkpt>
      <trkpt lat="46.62723745219409465789794921875" lon="6.87723512761294841766357421875">
        <ele>756.79998779296875</ele>
        <time>2013-08-15T17:24:06.000Z</time>
        <extensions>
          <ns3:TrackPointExtension>
            <ns3:atemp>16.0</ns3:atemp>
            <ns3:hr>116</ns3:hr>
          </ns3:TrackPointExtension>
        </extensions>
      </trkpt>
      <trkpt lat="46.62715514190495014190673828125" lon="6.87729463912546634674072265625">
        <ele>755.79998779296875</ele>
        <time>2013-08-15T17:24:07.000Z</time>
        <extensions>
          <ns3:TrackPointExtension>
            <ns3:atemp>16.0</ns3:atemp>
            <ns3:hr>116</ns3:hr>
          </ns3:TrackPointExtension>
        </extensions>
      </trkpt>
      <trkpt lat="46.627077944576740264892578125" lon="6.87735398299992084503173828125">
        <ele>754.79998779296875</ele>
        <time>2013-08-15T17:24:08.000Z</time>
        <extensions>
          <ns3:TrackPointExtension>
            <ns3:atemp>16.0</ns3:atemp>
            <ns3:hr>115</ns3:hr>
          </ns3:TrackPointExtension>
        </extensions>
      </trkpt>
      <trkpt lat="46.626999489963054656982421875" lon="6.87742137350142002105712890625">
        <ele>754.4000244140625</ele>
        <time>2013-08-15T17:24:09.000Z</time>
        <extensions>
          <ns3:TrackPointExtension>
            <ns3:atemp>16.0</ns3:atemp>
            <ns3:hr>114</ns3:hr>
          </ns3:TrackPointExtension>
        </extensions>
      </trkpt>
      <trkpt lat="46.6269188560545444488525390625" lon="6.877516843378543853759765625">
        <ele>754</ele>
        <time>2013-08-15T17:24:10.000Z</time>
        <extensions>
          <ns3:TrackPointExtension>
            <ns3:atemp>16.0</ns3:atemp>
            <ns3:hr>112</ns3:hr>
          </ns3:TrackPointExtension>
        </extensions>
      </trkpt>
      <trkpt lat="46.6268494538962841033935546875" lon="6.877602674067020416259765625">
        <ele>753.5999755859375</ele>
        <time>2013-08-15T17:24:11.000Z</time>
        <extensions>
          <ns3:TrackPointExtension>
            <ns3:atemp>16.0</ns3:atemp>
            <ns3:hr>111</ns3:hr>
          </ns3:TrackPointExtension>
        </extensions>
      </trkpt>
      <trkpt lat="46.62678449414670467376708984375" lon="6.87768255360424518585205078125">
        <ele>752.79998779296875</ele>
        <time>2013-08-15T17:24:12.000Z</time>
        <extensions>
          <ns3:TrackPointExtension>
            <ns3:atemp>16.0</ns3:atemp>
            <ns3:hr>109</ns3:hr>
          </ns3:TrackPointExtension>
        </extensions>
      </trkpt>
      <trkpt lat="46.626721210777759552001953125" lon="6.8777503632009029388427734375">
        <ele>752.20001220703125</ele>
        <time>2013-08-15T17:24:13.000Z</time>
        <extensions>
          <ns3:TrackPointExtension>
            <ns3:atemp>16.0</ns3:atemp>
            <ns3:hr>109</ns3:hr>
          </ns3:TrackPointExtension>
        </extensions>
      </trkpt>
      <trkpt lat="46.62666949443519115447998046875" lon="6.87780124135315418243408203125">
        <ele>751</ele>
        <time>2013-08-15T17:24:14.000Z</time>
        <extensions>
          <ns3:TrackPointExtension>
            <ns3:atemp>16.0</ns3:atemp>
            <ns3:hr>108</ns3:hr>
          </ns3:TrackPointExtension>
        </extensions>
      </trkpt>
      <trkpt lat="46.626627333462238311767578125" lon="6.87783141620457172393798828125">
        <ele>750</ele>
        <time>2013-08-15T17:24:15.000Z</time>
        <extensions>
          <ns3:TrackPointExtension>
            <ns3:atemp>16.0</ns3:atemp>
            <ns3:hr>108</ns3:hr>
          </ns3:TrackPointExtension>
        </extensions>
      </trkpt>
      <trkpt lat="46.6265825740993022918701171875" lon="6.8778526224195957183837890625">
        <ele>749.20001220703125</ele>
        <time>2013-08-15T17:24:16.000Z</time>
        <extensions>
          <ns3:TrackPointExtension>
            <ns3:atemp>16.0</ns3:atemp>
            <ns3:hr>108</ns3:hr>
          </ns3:TrackPointExtension>
        </extensions>
      </trkpt>
      <trkpt lat="46.62654661573469638824462890625" lon="6.877860166132450103759765625">
        <ele>749.20001220703125</ele>
        <time>2013-08-15T17:24:17.000Z</time>
        <extensions>
          <ns3:TrackPointExtension>
            <ns3:atemp>16.0</ns3:atemp>
            <ns3:hr>107</ns3:hr>
          </ns3:TrackPointExtension>
        </extensions>
      </trkpt>
      <trkpt lat="46.62652582861483097076416015625" lon="6.87785019166767597198486328125">
        <ele>749.20001220703125</ele>
        <time>2013-08-15T17:24:18.000Z</time>
        <extensions>
          <ns3:TrackPointExtension>
            <ns3:atemp>16.0</ns3:atemp>
            <ns3:hr>107</ns3:hr>
          </ns3:TrackPointExtension>
        </extensions>
      </trkpt>
      <trkpt lat="46.62651761434972286224365234375" lon="6.87783460132777690887451171875">
        <ele>749.20001220703125</ele>
        <time>2013-08-15T17:24:19.000Z</time>
        <extensions>
          <ns3:TrackPointExtension>
            <ns3:atemp>16.0</ns3:atemp>
            <ns3:hr>107</ns3:hr>
          </ns3:TrackPointExtension>
        </extensions>
      </trkpt>
      <trkpt lat="46.62651141174137592315673828125" lon="6.87781364656984806060791015625">
        <ele>749.20001220703125</ele>
        <time>2013-08-15T17:24:20.000Z</time>
        <extensions>
          <ns3:TrackPointExtension>
            <ns3:atemp>16.0</ns3:atemp>
            <ns3:hr>107</ns3:hr>
          </ns3:TrackPointExtension>
        </extensions>
      </trkpt>
      <trkpt lat="46.6265044547617435455322265625" lon="6.8777862377464771270751953125">
        <ele>749</ele>
        <time>2013-08-15T17:24:21.000Z</time>
        <extensions>
          <ns3:TrackPointExtension>
            <ns3:atemp>16.0</ns3:atemp>
            <ns3:hr>107</ns3:hr>
          </ns3:TrackPointExtension>
        </extensions>
      </trkpt>
      <trkpt lat="46.62649598903954029083251953125" lon="6.87774717807769775390625">
        <ele>749</ele>
        <time>2013-08-15T17:24:22.000Z</time>
        <extensions>
          <ns3:TrackPointExtension>
            <ns3:atemp>16.0</ns3:atemp>
            <ns3:hr>107</ns3:hr>
          </ns3:TrackPointExtension>
        </extensions>
      </trkpt>
      <trkpt lat="46.626492552459239959716796875" lon="6.87770199961960315704345703125">
        <ele>749</ele>
        <time>2013-08-15T17:24:23.000Z</time>
        <extensions>
          <ns3:TrackPointExtension>
            <ns3:atemp>16.0</ns3:atemp>
            <ns3:hr>108</ns3:hr>
          </ns3:TrackPointExtension>
        </extensions>
      </trkpt>
      <trkpt lat="46.62649498321115970611572265625" lon="6.87764282338321208953857421875">
        <ele>749</ele>
        <time>2013-08-15T17:24:24.000Z</time>
        <extensions>
          <ns3:TrackPointExtension>
            <ns3:atemp>16.0</ns3:atemp>
            <ns3:hr>108</ns3:hr>
          </ns3:TrackPointExtension>
        </extensions>
      </trkpt>
      <trkpt lat="46.62649598903954029083251953125" lon="6.87756956554949283599853515625">
        <ele>749</ele>
        <time>2013-08-15T17:24:25.000Z</time>
        <extensions>
          <ns3:TrackPointExtension>
            <ns3:atemp>16.0</ns3:atemp>
            <ns3:hr>109</ns3:hr>
          </ns3:TrackPointExtension>
        </extensions>
      </trkpt>
      <trkpt lat="46.6264964081346988677978515625" lon="6.87748742289841175079345703125">
        <ele>748.20001220703125</ele>
        <time>2013-08-15T17:24:26.000Z</time>
        <extensions>
          <ns3:TrackPointExtension>
            <ns3:atemp>16.0</ns3:atemp>
            <ns3:hr>109</ns3:hr>
          </ns3:TrackPointExtension>
        </extensions>
      </trkpt>
      <trkpt lat="46.6264980845153331756591796875" lon="6.877398155629634857177734375">
        <ele>747</ele>
        <time>2013-08-15T17:24:27.000Z</time>
        <extensions>
          <ns3:TrackPointExtension>
            <ns3:atemp>16.0</ns3:atemp>
            <ns3:hr>108</ns3:hr>
          </ns3:TrackPointExtension>
        </extensions>
      </trkpt>
      <trkpt lat="46.62650562822818756103515625" lon="6.8773074634373188018798828125">
        <ele>746</ele>
        <time>2013-08-15T17:24:28.000Z</time>
        <extensions>
          <ns3:TrackPointExtension>
            <ns3:atemp>16.0</ns3:atemp>
            <ns3:hr>108</ns3:hr>
          </ns3:TrackPointExtension>
        </extensions>
      </trkpt>
      <trkpt lat="46.62651828490197658538818359375" lon="6.877217106521129608154296875">
        <ele>745.20001220703125</ele>
        <time>2013-08-15T17:24:29.000Z</time>
        <extensions>
          <ns3:TrackPointExtension>
            <ns3:atemp>16.0</ns3:atemp>
            <ns3:hr>107</ns3:hr>
          </ns3:TrackPointExtension>
        </extensions>
      </trkpt>
      <trkpt lat="46.6265349648892879486083984375" lon="6.8771290965378284454345703125">
        <ele>744.5999755859375</ele>
        <time>2013-08-15T17:24:30.000Z</time>
        <extensions>
          <ns3:TrackPointExtension>
            <ns3:atemp>16.0</ns3:atemp>
            <ns3:hr>107</ns3:hr>
          </ns3:TrackPointExtension>
        </extensions>
      </trkpt>
      <trkpt lat="46.62655432708561420440673828125" lon="6.87704267911612987518310546875">
        <ele>744</ele>
        <time>2013-08-15T17:24:31.000Z</time>
        <extensions>
          <ns3:TrackPointExtension>
            <ns3:atemp>16.0</ns3:atemp>
            <ns3:hr>107</ns3:hr>
          </ns3:TrackPointExtension>
        </extensions>
      </trkpt>
      <trkpt lat="46.626580059528350830078125" lon="6.876962296664714813232421875">
        <ele>744.20001220703125</ele>
        <time>2013-08-15T17:24:32.000Z</time>
        <extensions>
          <ns3:TrackPointExtension>
            <ns3:atemp>16.0</ns3:atemp>
            <ns3:hr>107</ns3:hr>
          </ns3:TrackPointExtension>
        </extensions>
      </trkpt>
      <trkpt lat="46.626612581312656402587890625" lon="6.8768823333084583282470703125">
        <ele>744.20001220703125</ele>
        <time>2013-08-15T17:24:33.000Z</time>
        <extensions>
          <ns3:TrackPointExtension>
            <ns3:atemp>16.0</ns3:atemp>
            <ns3:hr>107</ns3:hr>
          </ns3:TrackPointExtension>
        </extensions>
      </trkpt>
      <trkpt lat="46.626648791134357452392578125" lon="6.8767988495528697967529296875">
        <ele>743.79998779296875</ele>
        <time>2013-08-15T17:24:34.000Z</time>
        <extensions>
          <ns3:TrackPointExtension>
            <ns3:atemp>16.0</ns3:atemp>
            <ns3:hr>107</ns3:hr>
          </ns3:TrackPointExtension>
        </extensions>
      </trkpt>
      <trkpt lat="46.62668474949896335601806640625" lon="6.87671251595020294189453125">
        <ele>743.20001220703125</ele>
        <time>2013-08-15T17:24:35.000Z</time>
        <extensions>
          <ns3:TrackPointExtension>
            <ns3:atemp>16.0</ns3:atemp>
            <ns3:hr>107</ns3:hr>
          </ns3:TrackPointExtension>
        </extensions>
      </trkpt>
      <trkpt lat="46.6267186962068080902099609375" lon="6.8766308762133121490478515625">
        <ele>742.5999755859375</ele>
        <time>2013-08-15T17:24:36.000Z</time>
        <extensions>
          <ns3:TrackPointExtension>
            <ns3:atemp>16.0</ns3:atemp>
            <ns3:hr>106</ns3:hr>
          </ns3:TrackPointExtension>
        </extensions>
      </trkpt>
      <trkpt lat="46.62674979306757450103759765625" lon="6.87656390480697154998779296875">
        <ele>742.20001220703125</ele>
        <time>2013-08-15T17:24:37.000Z</time>
        <extensions>
          <ns3:TrackPointExtension>
            <ns3:atemp>16.0</ns3:atemp>
            <ns3:hr>106</ns3:hr>
          </ns3:TrackPointExtension>
        </extensions>
      </trkpt>
      <trkpt lat="46.626766808331012725830078125" lon="6.87650942243635654449462890625">
        <ele>741.5999755859375</ele>
        <time>2013-08-15T17:24:38.000Z</time>
        <extensions>
          <ns3:TrackPointExtension>
            <ns3:atemp>16.0</ns3:atemp>
            <ns3:hr>106</ns3:hr>
          </ns3:TrackPointExtension>
        </extensions>
      </trkpt>
      <trkpt lat="46.62676940672099590301513671875" lon="6.8764662556350231170654296875">
        <ele>741.20001220703125</ele>
        <time>2013-08-15T17:24:39.000Z</time>
        <extensions>
          <ns3:TrackPointExtension>
            <ns3:atemp>16.0</ns3:atemp>
            <ns3:hr>106</ns3:hr>
          </ns3:TrackPointExtension>
        </extensions>
      </trkpt>
      <trkpt lat="46.6267609409987926483154296875" lon="6.8764380924403667449951171875">
        <ele>741</ele>
        <time>2013-08-15T17:24:40.000Z</time>
        <extensions>
          <ns3:TrackPointExtension>
            <ns3:atemp>16.0</ns3:atemp>
            <ns3:hr>106</ns3:hr>
          </ns3:TrackPointExtension>
        </extensions>
      </trkpt>
      <trkpt lat="46.62674074061214923858642578125" lon="6.87641001306474208831787109375">
        <ele>740.5999755859375</ele>
        <time>2013-08-15T17:24:41.000Z</time>
        <extensions>
          <ns3:TrackPointExtension>
            <ns3:atemp>16.0</ns3:atemp>
            <ns3:hr>106</ns3:hr>
          </ns3:TrackPointExtension>
        </extensions>
      </trkpt>
      <trkpt lat="46.62671224214136600494384765625" lon="6.87638855539262294769287109375">
        <ele>740.4000244140625</ele>
        <time>2013-08-15T17:24:42.000Z</time>
        <extensions>
          <ns3:TrackPointExtension>
            <ns3:atemp>16.0</ns3:atemp>
            <ns3:hr>106</ns3:hr>
          </ns3:TrackPointExtension>
        </extensions>
      </trkpt>
      <trkpt lat="46.62666882388293743133544921875" lon="6.87637589871883392333984375">
        <ele>739.5999755859375</ele>
        <time>2013-08-15T17:24:43.000Z</time>
        <extensions>
          <ns3:TrackPointExtension>
            <ns3:atemp>16.0</ns3:atemp>
            <ns3:hr>107</ns3:hr>
          </ns3:TrackPointExtension>
        </extensions>
      </trkpt>
      <trkpt lat="46.62662423215806484222412109375" lon="6.87637598253786563873291015625">
        <ele>738.79998779296875</ele>
        <time>2013-08-15T17:24:44.000Z</time>
        <extensions>
          <ns3:TrackPointExtension>
            <ns3:atemp>16.0</ns3:atemp>
            <ns3:hr>107</ns3:hr>
          </ns3:TrackPointExtension>
        </extensions>
      </trkpt>
      <trkpt lat="46.626573689281940460205078125" lon="6.87638151459395885467529296875">
        <ele>737.79998779296875</ele>
        <time>2013-08-15T17:24:45.000Z</time>
        <extensions>
          <ns3:TrackPointExtension>
            <ns3:atemp>16.0</ns3:atemp>
            <ns3:hr>107</ns3:hr>
          </ns3:TrackPointExtension>
        </extensions>
      </trkpt>
      <trkpt lat="46.62651778198778629302978515625" lon="6.87638671137392520904541015625">
        <ele>737.20001220703125</ele>
        <time>2013-08-15T17:24:46.000Z</time>
        <extensions>
          <ns3:TrackPointExtension>
            <ns3:atemp>16.0</ns3:atemp>
            <ns3:hr>108</ns3:hr>
          </ns3:TrackPointExtension>
        </extensions>
      </trkpt>
      <trkpt lat="46.62645324133336544036865234375" lon="6.87639333307743072509765625">
        <ele>736.5999755859375</ele>
        <time>2013-08-15T17:24:47.000Z</time>
        <extensions>
          <ns3:TrackPointExtension>
            <ns3:atemp>16.0</ns3:atemp>
            <ns3:hr>108</ns3:hr>
          </ns3:TrackPointExtension>
        </extensions>
      </trkpt>
      <trkpt lat="46.62638249807059764862060546875" lon="6.87640196643769741058349609375">
        <ele>736</ele>
        <time>2013-08-15T17:24:48.000Z</time>
        <extensions>
          <ns3:TrackPointExtension>
            <ns3:atemp>16.0</ns3:atemp>
            <ns3:hr>108</ns3:hr>
          </ns3:TrackPointExtension>
        </extensions>
      </trkpt>
      <trkpt lat="46.62631527520716190338134765625" lon="6.87641705386340618133544921875">
        <ele>734.79998779296875</ele>
        <time>2013-08-15T17:24:49.000Z</time>
        <extensions>
          <ns3:TrackPointExtension>
            <ns3:atemp>16.0</ns3:atemp>
            <ns3:hr>108</ns3:hr>
          </ns3:TrackPointExtension>
        </extensions>
      </trkpt>
      <trkpt lat="46.62625006400048732757568359375" lon="6.8764458037912845611572265625">
        <ele>734.20001220703125</ele>
        <time>2013-08-15T17:24:50.000Z</time>
        <extensions>
          <ns3:TrackPointExtension>
            <ns3:atemp>16.0</ns3:atemp>
            <ns3:hr>109</ns3:hr>
          </ns3:TrackPointExtension>
        </extensions>
      </trkpt>
      <trkpt lat="46.62617973983287811279296875" lon="6.8764813430607318878173828125">
        <ele>733.5999755859375</ele>
        <time>2013-08-15T17:24:51.000Z</time>
        <extensions>
          <ns3:TrackPointExtension>
            <ns3:atemp>16.0</ns3:atemp>
            <ns3:hr>109</ns3:hr>
          </ns3:TrackPointExtension>
        </extensions>
      </trkpt>
      <trkpt lat="46.62609986029565334320068359375" lon="6.87651495449244976043701171875">
        <ele>733.79998779296875</ele>
        <time>2013-08-15T17:24:52.000Z</time>
        <extensions>
          <ns3:TrackPointExtension>
            <ns3:atemp>16.0</ns3:atemp>
            <ns3:hr>109</ns3:hr>
          </ns3:TrackPointExtension>
        </extensions>
      </trkpt>
      <trkpt lat="46.62601553834974765777587890625" lon="6.8765463866293430328369140625">
        <ele>731.5999755859375</ele>
        <time>2013-08-15T17:24:53.000Z</time>
        <extensions>
          <ns3:TrackPointExtension>
            <ns3:atemp>16.0</ns3:atemp>
            <ns3:hr>109</ns3:hr>
          </ns3:TrackPointExtension>
        </extensions>
      </trkpt>
      <trkpt lat="46.62593926303088665008544921875" lon="6.87658284790813922882080078125">
        <ele>731.20001220703125</ele>
        <time>2013-08-15T17:24:54.000Z</time>
        <extensions>
          <ns3:TrackPointExtension>
            <ns3:atemp>16.0</ns3:atemp>
            <ns3:hr>109</ns3:hr>
          </ns3:TrackPointExtension>
        </extensions>
      </trkpt>
      <trkpt lat="46.625848822295665740966796875" lon="6.8766322173178195953369140625">
        <ele>730.5999755859375</ele>
        <time>2013-08-15T17:24:55.000Z</time>
        <extensions>
          <ns3:TrackPointExtension>
            <ns3:atemp>16.0</ns3:atemp>
            <ns3:hr>109</ns3:hr>
          </ns3:TrackPointExtension>
        </extensions>
      </trkpt>
      <trkpt lat="46.625762321054935455322265625" lon="6.87667898833751678466796875">
        <ele>730.5999755859375</ele>
        <time>2013-08-15T17:24:56.000Z</time>
        <extensions>
          <ns3:TrackPointExtension>
            <ns3:atemp>16.0</ns3:atemp>
            <ns3:hr>109</ns3:hr>
          </ns3:TrackPointExtension>
        </extensions>
      </trkpt>
      <trkpt lat="46.625664420425891876220703125" lon="6.87672517262399196624755859375">
        <ele>729.79998779296875</ele>
        <time>2013-08-15T17:24:57.000Z</time>
        <extensions>
          <ns3:TrackPointExtension>
            <ns3:atemp>16.0</ns3:atemp>
            <ns3:hr>109</ns3:hr>
          </ns3:TrackPointExtension>
        </extensions>
      </trkpt>
      <trkpt lat="46.6255633346736431121826171875" lon="6.8767777271568775177001953125">
        <ele>729.5999755859375</ele>
        <time>2013-08-15T17:24:58.000Z</time>
        <extensions>
          <ns3:TrackPointExtension>
            <ns3:atemp>16.0</ns3:atemp>
            <ns3:hr>109</ns3:hr>
          </ns3:TrackPointExtension>
        </extensions>
      </trkpt>
      <trkpt lat="46.62546903826296329498291015625" lon="6.87682961113750934600830078125">
        <ele>728.4000244140625</ele>
        <time>2013-08-15T17:24:59.000Z</time>
        <extensions>
          <ns3:TrackPointExtension>
            <ns3:atemp>16.0</ns3:atemp>
            <ns3:hr>109</ns3:hr>
          </ns3:TrackPointExtension>
        </extensions>
      </trkpt>
      <trkpt lat="46.62536434829235076904296875" lon="6.87688375823199748992919921875">
        <ele>727.5999755859375</ele>
        <time>2013-08-15T17:25:00.000Z</time>
        <extensions>
          <ns3:TrackPointExtension>
            <ns3:atemp>16.0</ns3:atemp>
            <ns3:hr>109</ns3:hr>
          </ns3:TrackPointExtension>
        </extensions>
      </trkpt>
      <trkpt lat="46.625266782939434051513671875" lon="6.8769319541752338409423828125">
        <ele>727</ele>
        <time>2013-08-15T17:25:01.000Z</time>
        <extensions>
          <ns3:TrackPointExtension>
            <ns3:atemp>16.0</ns3:atemp>
            <ns3:hr>109</ns3:hr>
          </ns3:TrackPointExtension>
        </extensions>
      </trkpt>
      <trkpt lat="46.62517516873776912689208984375" lon="6.8769745342433452606201171875">
        <ele>726.5999755859375</ele>
        <time>2013-08-15T17:25:02.000Z</time>
        <extensions>
          <ns3:TrackPointExtension>
            <ns3:atemp>16.0</ns3:atemp>
            <ns3:hr>109</ns3:hr>
          </ns3:TrackPointExtension>
        </extensions>
      </trkpt>
      <trkpt lat="46.6250959597527980804443359375" lon="6.8770080618560314178466796875">
        <ele>725.4000244140625</ele>
        <time>2013-08-15T17:25:03.000Z</time>
        <extensions>
          <ns3:TrackPointExtension>
            <ns3:atemp>16.0</ns3:atemp>
            <ns3:hr>109</ns3:hr>
          </ns3:TrackPointExtension>
        </extensions>
      </trkpt>
      <trkpt lat="46.62502429448068141937255859375" lon="6.8770345486700534820556640625">
        <ele>724.5999755859375</ele>
        <time>2013-08-15T17:25:04.000Z</time>
        <extensions>
          <ns3:TrackPointExtension>
            <ns3:atemp>16.0</ns3:atemp>
            <ns3:hr>110</ns3:hr>
          </ns3:TrackPointExtension>
        </extensions>
      </trkpt>
      <trkpt lat="46.62495438940823078155517578125" lon="6.87704418785870075225830078125">
        <ele>723.4000244140625</ele>
        <time>2013-08-15T17:25:05.000Z</time>
        <extensions>
          <ns3:TrackPointExtension>
            <ns3:atemp>16.0</ns3:atemp>
            <ns3:hr>110</ns3:hr>
          </ns3:TrackPointExtension>
        </extensions>
      </trkpt>
      <trkpt lat="46.62488984875380992889404296875" lon="6.87701694667339324951171875">
        <ele>722.5999755859375</ele>
        <time>2013-08-15T17:25:06.000Z</time>
        <extensions>
          <ns3:TrackPointExtension>
            <ns3:atemp>16.0</ns3:atemp>
            <ns3:hr>110</ns3:hr>
          </ns3:TrackPointExtension>
        </extensions>
      </trkpt>
      <trkpt lat="46.624835617840290069580078125" lon="6.876981072127819061279296875">
        <ele>721.5999755859375</ele>
        <time>2013-08-15T17:25:07.000Z</time>
        <extensions>
          <ns3:TrackPointExtension>
            <ns3:atemp>16.0</ns3:atemp>
            <ns3:hr>110</ns3:hr>
          </ns3:TrackPointExtension>
        </extensions>
      </trkpt>
      <trkpt lat="46.62477568723261356353759765625" lon="6.8769460357725620269775390625">
        <ele>720.79998779296875</ele>
        <time>2013-08-15T17:25:08.000Z</time>
        <extensions>
          <ns3:TrackPointExtension>
            <ns3:atemp>16.0</ns3:atemp>
            <ns3:hr>110</ns3:hr>
          </ns3:TrackPointExtension>
        </extensions>
      </trkpt>
      <trkpt lat="46.62471801973879337310791015625" lon="6.87691661529242992401123046875">
        <ele>720.20001220703125</ele>
        <time>2013-08-15T17:25:09.000Z</time>
        <extensions>
          <ns3:TrackPointExtension>
            <ns3:atemp>16.0</ns3:atemp>
            <ns3:hr>110</ns3:hr>
          </ns3:TrackPointExtension>
        </extensions>
      </trkpt>
      <trkpt lat="46.62465984933078289031982421875" lon="6.8768974207341670989990234375">
        <ele>719.4000244140625</ele>
        <time>2013-08-15T17:25:10.000Z</time>
        <extensions>
          <ns3:TrackPointExtension>
            <ns3:atemp>16.0</ns3:atemp>
            <ns3:hr>111</ns3:hr>
          </ns3:TrackPointExtension>
        </extensions>
      </trkpt>
      <trkpt lat="46.62460436113178730010986328125" lon="6.876877136528491973876953125">
        <ele>719</ele>
        <time>2013-08-15T17:25:11.000Z</time>
        <extensions>
          <ns3:TrackPointExtension>
            <ns3:atemp>16.0</ns3:atemp>
            <ns3:hr>111</ns3:hr>
          </ns3:TrackPointExtension>
        </extensions>
      </trkpt>
      <trkpt lat="46.624549292027950286865234375" lon="6.87686406075954437255859375">
        <ele>718.79998779296875</ele>
        <time>2013-08-15T17:25:12.000Z</time>
        <extensions>
          <ns3:TrackPointExtension>
            <ns3:atemp>16.0</ns3:atemp>
            <ns3:hr>112</ns3:hr>
          </ns3:TrackPointExtension>
        </extensions>
      </trkpt>
      <trkpt lat="46.62449263036251068115234375" lon="6.876852326095104217529296875">
        <ele>719</ele>
        <time>2013-08-15T17:25:13.000Z</time>
        <extensions>
          <ns3:TrackPointExtension>
            <ns3:atemp>16.0</ns3:atemp>
            <ns3:hr>112</ns3:hr>
          </ns3:TrackPointExtension>
        </extensions>
      </trkpt>
      <trkpt lat="46.6244317777454853057861328125" lon="6.87684939242899417877197265625">
        <ele>718.79998779296875</ele>
        <time>2013-08-15T17:25:14.000Z</time>
        <extensions>
          <ns3:TrackPointExtension>
            <ns3:atemp>16.0</ns3:atemp>
            <ns3:hr>113</ns3:hr>
          </ns3:TrackPointExtension>
        </extensions>
      </trkpt>
      <trkpt lat="46.6243680752813816070556640625" lon="6.8768638931214809417724609375">
        <ele>718.79998779296875</ele>
        <time>2013-08-15T17:25:15.000Z</time>
        <extensions>
          <ns3:TrackPointExtension>
            <ns3:atemp>16.0</ns3:atemp>
            <ns3:hr>114</ns3:hr>
          </ns3:TrackPointExtension>
        </extensions>
      </trkpt>
      <trkpt lat="46.62430931814014911651611328125" lon="6.8768930621445178985595703125">
        <ele>719</ele>
        <time>2013-08-15T17:25:16.000Z</time>
        <extensions>
          <ns3:TrackPointExtension>
            <ns3:atemp>16.0</ns3:atemp>
            <ns3:hr>114</ns3:hr>
          </ns3:TrackPointExtension>
        </extensions>
      </trkpt>
      <trkpt lat="46.62425064481794834136962890625" lon="6.87693379819393157958984375">
        <ele>719.20001220703125</ele>
        <time>2013-08-15T17:25:17.000Z</time>
        <extensions>
          <ns3:TrackPointExtension>
            <ns3:atemp>16.0</ns3:atemp>
            <ns3:hr>115</ns3:hr>
          </ns3:TrackPointExtension>
        </extensions>
      </trkpt>
      <trkpt lat="46.624198257923126220703125" lon="6.8769679963588714599609375">
        <ele>719.20001220703125</ele>
        <time>2013-08-15T17:25:18.000Z</time>
        <extensions>
          <ns3:TrackPointExtension>
            <ns3:atemp>16.0</ns3:atemp>
            <ns3:hr>115</ns3:hr>
          </ns3:TrackPointExtension>
        </extensions>
      </trkpt>
      <trkpt lat="46.62414670921862125396728515625" lon="6.87699741683900356292724609375">
        <ele>719.4000244140625</ele>
        <time>2013-08-15T17:25:19.000Z</time>
        <extensions>
          <ns3:TrackPointExtension>
            <ns3:atemp>16.0</ns3:atemp>
            <ns3:hr>116</ns3:hr>
          </ns3:TrackPointExtension>
        </extensions>
      </trkpt>
      <trkpt lat="46.62409574724733829498291015625" lon="6.87701485119760036468505859375">
        <ele>719.4000244140625</ele>
        <time>2013-08-15T17:25:20.000Z</time>
        <extensions>
          <ns3:TrackPointExtension>
            <ns3:atemp>16.0</ns3:atemp>
            <ns3:hr>116</ns3:hr>
          </ns3:TrackPointExtension>
        </extensions>
      </trkpt>
      <trkpt lat="46.6240438632667064666748046875" lon="6.87702356837689876556396484375">
        <ele>719.4000244140625</ele>
        <time>2013-08-15T17:25:21.000Z</time>
        <extensions>
          <ns3:TrackPointExtension>
            <ns3:atemp>16.0</ns3:atemp>
            <ns3:hr>116</ns3:hr>
          </ns3:TrackPointExtension>
        </extensions>
      </trkpt>
      <trkpt lat="46.62399080581963062286376953125" lon="6.8770251609385013580322265625">
        <ele>719</ele>
        <time>2013-08-15T17:25:22.000Z</time>
        <extensions>
          <ns3:TrackPointExtension>
            <ns3:atemp>16.0</ns3:atemp>
            <ns3:hr>117</ns3:hr>
          </ns3:TrackPointExtension>
        </extensions>
      </trkpt>
      <trkpt lat="46.62394353188574314117431640625" lon="6.877028681337833404541015625">
        <ele>718.79998779296875</ele>
        <time>2013-08-15T17:25:23.000Z</time>
        <extensions>
          <ns3:TrackPointExtension>
            <ns3:atemp>16.0</ns3:atemp>
            <ns3:hr>117</ns3:hr>
          </ns3:TrackPointExtension>
        </extensions>
      </trkpt>
      <trkpt lat="46.62390849553048610687255859375" lon="6.87702625058591365814208984375">
        <ele>717.79998779296875</ele>
        <time>2013-08-15T17:25:24.000Z</time>
        <extensions>
          <ns3:TrackPointExtension>
            <ns3:atemp>16.0</ns3:atemp>
            <ns3:hr>118</ns3:hr>
          </ns3:TrackPointExtension>
        </extensions>
      </trkpt>
      <trkpt lat="46.62388108670711517333984375" lon="6.8770050443708896636962890625">
        <ele>717</ele>
        <time>2013-08-15T17:25:25.000Z</time>
        <extensions>
          <ns3:TrackPointExtension>
            <ns3:atemp>16.0</ns3:atemp>
            <ns3:hr>118</ns3:hr>
          </ns3:TrackPointExtension>
        </extensions>
      </trkpt>
      <trkpt lat="46.62385736592113971710205078125" lon="6.87696808017790317535400390625">
        <ele>716.4000244140625</ele>
        <time>2013-08-15T17:25:26.000Z</time>
        <extensions>
          <ns3:TrackPointExtension>
            <ns3:atemp>16.0</ns3:atemp>
            <ns3:hr>118</ns3:hr>
          </ns3:TrackPointExtension>
        </extensions>
      </trkpt>
      <trkpt lat="46.62384026683866977691650390625" lon="6.87691225670278072357177734375">
        <ele>716</ele>
        <time>2013-08-15T17:25:27.000Z</time>
        <extensions>
          <ns3:TrackPointExtension>
            <ns3:atemp>16.0</ns3:atemp>
            <ns3:hr>118</ns3:hr>
          </ns3:TrackPointExtension>
        </extensions>
      </trkpt>
      <trkpt lat="46.62382182665169239044189453125" lon="6.87684662640094757080078125">
        <ele>715.5999755859375</ele>
        <time>2013-08-15T17:25:28.000Z</time>
        <extensions>
          <ns3:TrackPointExtension>
            <ns3:atemp>16.0</ns3:atemp>
            <ns3:hr>118</ns3:hr>
          </ns3:TrackPointExtension>
        </extensions>
      </trkpt>
      <trkpt lat="46.6237954236567020416259765625" lon="6.8767696805298328399658203125">
        <ele>715</ele>
        <time>2013-08-15T17:25:29.000Z</time>
        <extensions>
          <ns3:TrackPointExtension>
            <ns3:atemp>16.0</ns3:atemp>
            <ns3:hr>117</ns3:hr>
          </ns3:TrackPointExtension>
        </extensions>
      </trkpt>
      <trkpt lat="46.62377354688942432403564453125" lon="6.87667035497725009918212890625">
        <ele>714.4000244140625</ele>
        <time>2013-08-15T17:25:30.000Z</time>
        <extensions>
          <ns3:TrackPointExtension>
            <ns3:atemp>16.0</ns3:atemp>
            <ns3:hr>117</ns3:hr>
          </ns3:TrackPointExtension>
        </extensions>
      </trkpt>
      <trkpt lat="46.6237672604620456695556640625" lon="6.87657178379595279693603515625">
        <ele>713.79998779296875</ele>
        <time>2013-08-15T17:25:31.000Z</time>
        <extensions>
          <ns3:TrackPointExtension>
            <ns3:atemp>16.0</ns3:atemp>
            <ns3:hr>117</ns3:hr>
          </ns3:TrackPointExtension>
        </extensions>
      </trkpt>
      <trkpt lat="46.623777486383914947509765625" lon="6.87643029727041721343994140625">
        <ele>713.20001220703125</ele>
        <time>2013-08-15T17:25:32.000Z</time>
        <extensions>
          <ns3:TrackPointExtension>
            <ns3:atemp>16.0</ns3:atemp>
            <ns3:hr>117</ns3:hr>
          </ns3:TrackPointExtension>
        </extensions>
      </trkpt>
      <trkpt lat="46.62378251552581787109375" lon="6.87628445215523242950439453125">
        <ele>712.79998779296875</ele>
        <time>2013-08-15T17:25:33.000Z</time>
        <extensions>
          <ns3:TrackPointExtension>
            <ns3:atemp>16.0</ns3:atemp>
            <ns3:hr>117</ns3:hr>
          </ns3:TrackPointExtension>
        </extensions>
      </trkpt>
      <trkpt lat="46.62377916276454925537109375" lon="6.87614665366709232330322265625">
        <ele>712.4000244140625</ele>
        <time>2013-08-15T17:25:34.000Z</time>
        <extensions>
          <ns3:TrackPointExtension>
            <ns3:atemp>16.0</ns3:atemp>
            <ns3:hr>117</ns3:hr>
          </ns3:TrackPointExtension>
        </extensions>
      </trkpt>
      <trkpt lat="46.623752675950527191162109375" lon="6.87600131146609783172607421875">
        <ele>712.20001220703125</ele>
        <time>2013-08-15T17:25:35.000Z</time>
        <extensions>
          <ns3:TrackPointExtension>
            <ns3:atemp>16.0</ns3:atemp>
            <ns3:hr>116</ns3:hr>
          </ns3:TrackPointExtension>
        </extensions>
      </trkpt>
      <trkpt lat="46.6237095929682254791259765625" lon="6.87585596926510334014892578125">
        <ele>711.4000244140625</ele>
        <time>2013-08-15T17:25:36.000Z</time>
        <extensions>
          <ns3:TrackPointExtension>
            <ns3:atemp>16.0</ns3:atemp>
            <ns3:hr>116</ns3:hr>
          </ns3:TrackPointExtension>
        </extensions>
      </trkpt>
      <trkpt lat="46.62366458214819431304931640625" lon="6.87571029178798198699951171875">
        <ele>710.79998779296875</ele>
        <time>2013-08-15T17:25:37.000Z</time>
        <extensions>
          <ns3:TrackPointExtension>
            <ns3:atemp>16.0</ns3:atemp>
            <ns3:hr>116</ns3:hr>
          </ns3:TrackPointExtension>
        </extensions>
      </trkpt>
      <trkpt lat="46.6235855408012866973876953125" lon="6.87556394375860691070556640625">
        <ele>710</ele>
        <time>2013-08-15T17:25:38.000Z</time>
        <extensions>
          <ns3:TrackPointExtension>
            <ns3:atemp>16.0</ns3:atemp>
            <ns3:hr>116</ns3:hr>
          </ns3:TrackPointExtension>
        </extensions>
      </trkpt>
      <trkpt lat="46.623514629900455474853515625" lon="6.87537920661270618438720703125">
        <ele>709.20001220703125</ele>
        <time>2013-08-15T17:25:39.000Z</time>
        <extensions>
          <ns3:TrackPointExtension>
            <ns3:atemp>16.0</ns3:atemp>
            <ns3:hr>115</ns3:hr>
          </ns3:TrackPointExtension>
        </extensions>
      </trkpt>
      <trkpt lat="46.6234849579632282257080078125" lon="6.87518642283976078033447265625">
        <ele>708</ele>
        <time>2013-08-15T17:25:40.000Z</time>
        <extensions>
          <ns3:TrackPointExtension>
            <ns3:atemp>16.0</ns3:atemp>
            <ns3:hr>115</ns3:hr>
          </ns3:TrackPointExtension>
        </extensions>
      </trkpt>
      <trkpt lat="46.62345905788242816925048828125" lon="6.87499858438968658447265625">
        <ele>705.79998779296875</ele>
        <time>2013-08-15T17:25:41.000Z</time>
        <extensions>
          <ns3:TrackPointExtension>
            <ns3:atemp>16.0</ns3:atemp>
            <ns3:hr>115</ns3:hr>
          </ns3:TrackPointExtension>
        </extensions>
      </trkpt>
      <trkpt lat="46.62341647781431674957275390625" lon="6.8748200498521327972412109375">
        <ele>705</ele>
        <time>2013-08-15T17:25:42.000Z</time>
        <extensions>
          <ns3:TrackPointExtension>
            <ns3:atemp>16.0</ns3:atemp>
            <ns3:hr>114</ns3:hr>
          </ns3:TrackPointExtension>
        </extensions>
      </trkpt>
      <trkpt lat="46.62340189330279827117919921875" lon="6.87466607429087162017822265625">
        <ele>704.4000244140625</ele>
        <time>2013-08-15T17:25:43.000Z</time>
        <extensions>
          <ns3:TrackPointExtension>
            <ns3:atemp>16.0</ns3:atemp>
            <ns3:hr>114</ns3:hr>
          </ns3:TrackPointExtension>
        </extensions>
      </trkpt>
      <trkpt lat="46.62338529713451862335205078125" lon="6.87450765632092952728271484375">
        <ele>703.79998779296875</ele>
        <time>2013-08-15T17:25:44.000Z</time>
        <extensions>
          <ns3:TrackPointExtension>
            <ns3:atemp>16.0</ns3:atemp>
            <ns3:hr>115</ns3:hr>
          </ns3:TrackPointExtension>
        </extensions>
      </trkpt>
      <trkpt lat="46.623352356255054473876953125" lon="6.87435493804514408111572265625">
        <ele>703</ele>
        <time>2013-08-15T17:25:45.000Z</time>
        <extensions>
          <ns3:TrackPointExtension>
            <ns3:atemp>16.0</ns3:atemp>
            <ns3:hr>115</ns3:hr>
          </ns3:TrackPointExtension>
        </extensions>
      </trkpt>
      <trkpt lat="46.62331757135689258575439453125" lon="6.8742028065025806427001953125">
        <ele>702.4000244140625</ele>
        <time>2013-08-15T17:25:46.000Z</time>
        <extensions>
          <ns3:TrackPointExtension>
            <ns3:atemp>16.0</ns3:atemp>
            <ns3:hr>114</ns3:hr>
          </ns3:TrackPointExtension>
        </extensions>
      </trkpt>
      <trkpt lat="46.62328890524804592132568359375" lon="6.87404774129390716552734375">
        <ele>701.79998779296875</ele>
        <time>2013-08-15T17:25:47.000Z</time>
        <extensions>
          <ns3:TrackPointExtension>
            <ns3:atemp>16.0</ns3:atemp>
            <ns3:hr>114</ns3:hr>
          </ns3:TrackPointExtension>
        </extensions>
      </trkpt>
      <trkpt lat="46.62326342426240444183349609375" lon="6.87388840131461620330810546875">
        <ele>701.20001220703125</ele>
        <time>2013-08-15T17:25:48.000Z</time>
        <extensions>
          <ns3:TrackPointExtension>
            <ns3:atemp>16.0</ns3:atemp>
            <ns3:hr>113</ns3:hr>
          </ns3:TrackPointExtension>
        </extensions>
      </trkpt>
      <trkpt lat="46.62325202487409114837646484375" lon="6.87372914515435695648193359375">
        <ele>700.79998779296875</ele>
        <time>2013-08-15T17:25:49.000Z</time>
        <extensions>
          <ns3:TrackPointExtension>
            <ns3:atemp>16.0</ns3:atemp>
            <ns3:hr>112</ns3:hr>
          </ns3:TrackPointExtension>
        </extensions>
      </trkpt>
      <trkpt lat="46.623259149491786956787109375" lon="6.8735714815557003021240234375">
        <ele>700.20001220703125</ele>
        <time>2013-08-15T17:25:50.000Z</time>
        <extensions>
          <ns3:TrackPointExtension>
            <ns3:atemp>16.0</ns3:atemp>
            <ns3:hr>110</ns3:hr>
          </ns3:TrackPointExtension>
        </extensions>
      </trkpt>
      <trkpt lat="46.62328488193452358245849609375" lon="6.87341985292732715606689453125">
        <ele>699.79998779296875</ele>
        <time>2013-08-15T17:25:51.000Z</time>
        <extensions>
          <ns3:TrackPointExtension>
            <ns3:atemp>16.0</ns3:atemp>
            <ns3:hr>109</ns3:hr>
          </ns3:TrackPointExtension>
        </extensions>
      </trkpt>
      <trkpt lat="46.62330768071115016937255859375" lon="6.87327082268893718719482421875">
        <ele>699.5999755859375</ele>
        <time>2013-08-15T17:25:52.000Z</time>
        <extensions>
          <ns3:TrackPointExtension>
            <ns3:atemp>16.0</ns3:atemp>
            <ns3:hr>108</ns3:hr>
          </ns3:TrackPointExtension>
        </extensions>
      </trkpt>
      <trkpt lat="46.62333182059228420257568359375" lon="6.87312380410730838775634765625">
        <ele>699.20001220703125</ele>
        <time>2013-08-15T17:25:53.000Z</time>
        <extensions>
          <ns3:TrackPointExtension>
            <ns3:atemp>16.0</ns3:atemp>
            <ns3:hr>108</ns3:hr>
          </ns3:TrackPointExtension>
        </extensions>
      </trkpt>
      <trkpt lat="46.62334866821765899658203125" lon="6.87297812663018703460693359375">
        <ele>698.5999755859375</ele>
        <time>2013-08-15T17:25:54.000Z</time>
        <extensions>
          <ns3:TrackPointExtension>
            <ns3:atemp>16.0</ns3:atemp>
            <ns3:hr>108</ns3:hr>
          </ns3:TrackPointExtension>
        </extensions>
      </trkpt>
      <trkpt lat="46.62334732711315155029296875" lon="6.8728308565914630889892578125">
        <ele>697.79998779296875</ele>
        <time>2013-08-15T17:25:55.000Z</time>
        <extensions>
          <ns3:TrackPointExtension>
            <ns3:atemp>16.0</ns3:atemp>
            <ns3:hr>108</ns3:hr>
          </ns3:TrackPointExtension>
        </extensions>
      </trkpt>
      <trkpt lat="46.6233384422957897186279296875" lon="6.8726870231330394744873046875">
        <ele>696.79998779296875</ele>
        <time>2013-08-15T17:25:56.000Z</time>
        <extensions>
          <ns3:TrackPointExtension>
            <ns3:atemp>16.0</ns3:atemp>
            <ns3:hr>109</ns3:hr>
          </ns3:TrackPointExtension>
        </extensions>
      </trkpt>
      <trkpt lat="46.62331555970013141632080078125" lon="6.87254830263555049896240234375">
        <ele>696</ele>
        <time>2013-08-15T17:25:57.000Z</time>
        <extensions>
          <ns3:TrackPointExtension>
            <ns3:atemp>16.0</ns3:atemp>
            <ns3:hr>109</ns3:hr>
          </ns3:TrackPointExtension>
        </extensions>
      </trkpt>
      <trkpt lat="46.62327901460230350494384765625" lon="6.87241771258413791656494140625">
        <ele>695</ele>
        <time>2013-08-15T17:25:58.000Z</time>
        <extensions>
          <ns3:TrackPointExtension>
            <ns3:atemp>16.0</ns3:atemp>
            <ns3:hr>108</ns3:hr>
          </ns3:TrackPointExtension>
        </extensions>
      </trkpt>
      <trkpt lat="46.6232264600694179534912109375" lon="6.87230187468230724334716796875">
        <ele>694.4000244140625</ele>
        <time>2013-08-15T17:25:59.000Z</time>
        <extensions>
          <ns3:TrackPointExtension>
            <ns3:atemp>16.0</ns3:atemp>
            <ns3:hr>108</ns3:hr>
          </ns3:TrackPointExtension>
        </extensions>
      </trkpt>
      <trkpt lat="46.6231671161949634552001953125" lon="6.8721963465213775634765625">
        <ele>693.79998779296875</ele>
        <time>2013-08-15T17:26:00.000Z</time>
        <extensions>
          <ns3:TrackPointExtension>
            <ns3:atemp>16.0</ns3:atemp>
            <ns3:hr>108</ns3:hr>
          </ns3:TrackPointExtension>
        </extensions>
      </trkpt>
      <trkpt lat="46.623106263577938079833984375" lon="6.8721002899110317230224609375">
        <ele>694</ele>
        <time>2013-08-15T17:26:01.000Z</time>
        <extensions>
          <ns3:TrackPointExtension>
            <ns3:atemp>16.0</ns3:atemp>
            <ns3:hr>108</ns3:hr>
          </ns3:TrackPointExtension>
        </extensions>
      </trkpt>
      <trkpt lat="46.6230403818190097808837890625" lon="6.8720131181180477142333984375">
        <ele>694</ele>
        <time>2013-08-15T17:26:02.000Z</time>
        <extensions>
          <ns3:TrackPointExtension>
            <ns3:atemp>16.0</ns3:atemp>
            <ns3:hr>108</ns3:hr>
          </ns3:TrackPointExtension>
        </extensions>
      </trkpt>
      <trkpt lat="46.62297240458428859710693359375" lon="6.8719333223998546600341796875">
        <ele>694</ele>
        <time>2013-08-15T17:26:03.000Z</time>
        <extensions>
          <ns3:TrackPointExtension>
            <ns3:atemp>16.0</ns3:atemp>
            <ns3:hr>109</ns3:hr>
          </ns3:TrackPointExtension>
        </extensions>
      </trkpt>
      <trkpt lat="46.62290417589247226715087890625" lon="6.87185126356780529022216796875">
        <ele>693.4000244140625</ele>
        <time>2013-08-15T17:26:04.000Z</time>
        <extensions>
          <ns3:TrackPointExtension>
            <ns3:atemp>16.0</ns3:atemp>
            <ns3:hr>109</ns3:hr>
          </ns3:TrackPointExtension>
        </extensions>
      </trkpt>
      <trkpt lat="46.62284315563738346099853515625" lon="6.87176275067031383514404296875">
        <ele>692.20001220703125</ele>
        <time>2013-08-15T17:26:05.000Z</time>
        <extensions>
          <ns3:TrackPointExtension>
            <ns3:atemp>16.0</ns3:atemp>
            <ns3:hr>109</ns3:hr>
          </ns3:TrackPointExtension>
        </extensions>
      </trkpt>
      <trkpt lat="46.62279839627444744110107421875" lon="6.87166552059352397918701171875">
        <ele>691.79998779296875</ele>
        <time>2013-08-15T17:26:06.000Z</time>
        <extensions>
          <ns3:TrackPointExtension>
            <ns3:atemp>16.0</ns3:atemp>
            <ns3:hr>109</ns3:hr>
          </ns3:TrackPointExtension>
        </extensions>
      </trkpt>
      <trkpt lat="46.62277107127010822296142578125" lon="6.87156669795513153076171875">
        <ele>692</ele>
        <time>2013-08-15T17:26:07.000Z</time>
        <extensions>
          <ns3:TrackPointExtension>
            <ns3:atemp>16.0</ns3:atemp>
            <ns3:hr>108</ns3:hr>
          </ns3:TrackPointExtension>
        </extensions>
      </trkpt>
      <trkpt lat="46.6227594204246997833251953125" lon="6.8714703060686588287353515625">
        <ele>692.4000244140625</ele>
        <time>2013-08-15T17:26:08.000Z</time>
        <extensions>
          <ns3:TrackPointExtension>
            <ns3:atemp>16.0</ns3:atemp>
            <ns3:hr>108</ns3:hr>
          </ns3:TrackPointExtension>
        </extensions>
      </trkpt>
      <trkpt lat="46.6227610968053340911865234375" lon="6.8713774345815181732177734375">
        <ele>692.5999755859375</ele>
        <time>2013-08-15T17:26:09.000Z</time>
        <extensions>
          <ns3:TrackPointExtension>
            <ns3:atemp>16.0</ns3:atemp>
            <ns3:hr>108</ns3:hr>
          </ns3:TrackPointExtension>
        </extensions>
      </trkpt>
      <trkpt lat="46.62277207709848880767822265625" lon="6.8712929449975490570068359375">
        <ele>692.79998779296875</ele>
        <time>2013-08-15T17:26:10.000Z</time>
        <extensions>
          <ns3:TrackPointExtension>
            <ns3:atemp>16.0</ns3:atemp>
            <ns3:hr>108</ns3:hr>
          </ns3:TrackPointExtension>
        </extensions>
      </trkpt>
      <trkpt lat="46.62278649397194385528564453125" lon="6.87121205963194370269775390625">
        <ele>692.79998779296875</ele>
        <time>2013-08-15T17:26:11.000Z</time>
        <extensions>
          <ns3:TrackPointExtension>
            <ns3:atemp>16.0</ns3:atemp>
            <ns3:hr>108</ns3:hr>
          </ns3:TrackPointExtension>
        </extensions>
      </trkpt>
      <trkpt lat="46.622803173959255218505859375" lon="6.8711313419044017791748046875">
        <ele>693.20001220703125</ele>
        <time>2013-08-15T17:26:12.000Z</time>
        <extensions>
          <ns3:TrackPointExtension>
            <ns3:atemp>16.0</ns3:atemp>
            <ns3:hr>109</ns3:hr>
          </ns3:TrackPointExtension>
        </extensions>
      </trkpt>
      <trkpt lat="46.622822284698486328125" lon="6.87105196528136730194091796875">
        <ele>693.79998779296875</ele>
        <time>2013-08-15T17:26:13.000Z</time>
        <extensions>
          <ns3:TrackPointExtension>
            <ns3:atemp>16.0</ns3:atemp>
            <ns3:hr>110</ns3:hr>
          </ns3:TrackPointExtension>
        </extensions>
      </trkpt>
      <trkpt lat="46.622842065989971160888671875" lon="6.870971582829952239990234375">
        <ele>694</ele>
        <time>2013-08-15T17:26:14.000Z</time>
        <extensions>
          <ns3:TrackPointExtension>
            <ns3:atemp>16.0</ns3:atemp>
            <ns3:hr>110</ns3:hr>
          </ns3:TrackPointExtension>
        </extensions>
      </trkpt>
      <trkpt lat="46.6228620149195194244384765625" lon="6.87089614570140838623046875">
        <ele>694</ele>
        <time>2013-08-15T17:26:15.000Z</time>
        <extensions>
          <ns3:TrackPointExtension>
            <ns3:atemp>16.0</ns3:atemp>
            <ns3:hr>111</ns3:hr>
          </ns3:TrackPointExtension>
        </extensions>
      </trkpt>
      <trkpt lat="46.62288062274456024169921875" lon="6.87081710435450077056884765625">
        <ele>693.79998779296875</ele>
        <time>2013-08-15T17:26:16.000Z</time>
        <extensions>
          <ns3:TrackPointExtension>
            <ns3:atemp>16.0</ns3:atemp>
            <ns3:hr>111</ns3:hr>
          </ns3:TrackPointExtension>
        </extensions>
      </trkpt>
      <trkpt lat="46.62289998494088649749755859375" lon="6.870738901197910308837890625">
        <ele>693.79998779296875</ele>
        <time>2013-08-15T17:26:17.000Z</time>
        <extensions>
          <ns3:TrackPointExtension>
            <ns3:atemp>16.0</ns3:atemp>
            <ns3:hr>112</ns3:hr>
          </ns3:TrackPointExtension>
        </extensions>
      </trkpt>
      <trkpt lat="46.6229210235178470611572265625" lon="6.87066237442195415496826171875">
        <ele>693.79998779296875</ele>
        <time>2013-08-15T17:26:18.000Z</time>
        <extensions>
          <ns3:TrackPointExtension>
            <ns3:atemp>16.0</ns3:atemp>
            <ns3:hr>113</ns3:hr>
          </ns3:TrackPointExtension>
        </extensions>
      </trkpt>
      <trkpt lat="46.6229394637048244476318359375" lon="6.8705858476459980010986328125">
        <ele>693.79998779296875</ele>
        <time>2013-08-15T17:26:19.000Z</time>
        <extensions>
          <ns3:TrackPointExtension>
            <ns3:atemp>16.0</ns3:atemp>
            <ns3:hr>113</ns3:hr>
          </ns3:TrackPointExtension>
        </extensions>
      </trkpt>
      <trkpt lat="46.6229599155485630035400390625" lon="6.8705090694129467010498046875">
        <ele>693.5999755859375</ele>
        <time>2013-08-15T17:26:20.000Z</time>
        <extensions>
          <ns3:TrackPointExtension>
            <ns3:atemp>16.0</ns3:atemp>
            <ns3:hr>114</ns3:hr>
          </ns3:TrackPointExtension>
        </extensions>
      </trkpt>
      <trkpt lat="46.62298229523003101348876953125" lon="6.8704341351985931396484375">
        <ele>693.5999755859375</ele>
        <time>2013-08-15T17:26:21.000Z</time>
        <extensions>
          <ns3:TrackPointExtension>
            <ns3:atemp>16.0</ns3:atemp>
            <ns3:hr>114</ns3:hr>
          </ns3:TrackPointExtension>
        </extensions>
      </trkpt>
      <trkpt lat="46.62300475873053073883056640625" lon="6.87035995535552501678466796875">
        <ele>693.5999755859375</ele>
        <time>2013-08-15T17:26:22.000Z</time>
        <extensions>
          <ns3:TrackPointExtension>
            <ns3:atemp>16.0</ns3:atemp>
            <ns3:hr>115</ns3:hr>
          </ns3:TrackPointExtension>
        </extensions>
      </trkpt>
      <trkpt lat="46.6230283118784427642822265625" lon="6.87028619460761547088623046875">
        <ele>693.79998779296875</ele>
        <time>2013-08-15T17:26:23.000Z</time>
        <extensions>
          <ns3:TrackPointExtension>
            <ns3:atemp>16.0</ns3:atemp>
            <ns3:hr>115</ns3:hr>
          </ns3:TrackPointExtension>
        </extensions>
      </trkpt>
      <trkpt lat="46.62305337376892566680908203125" lon="6.87021528370678424835205078125">
        <ele>694.20001220703125</ele>
        <time>2013-08-15T17:26:24.000Z</time>
        <extensions>
          <ns3:TrackPointExtension>
            <ns3:atemp>16.0</ns3:atemp>
            <ns3:hr>116</ns3:hr>
          </ns3:TrackPointExtension>
        </extensions>
      </trkpt>
      <trkpt lat="46.62308036349713802337646484375" lon="6.87014789320528507232666015625">
        <ele>694.4000244140625</ele>
        <time>2013-08-15T17:26:25.000Z</time>
        <extensions>
          <ns3:TrackPointExtension>
            <ns3:atemp>16.0</ns3:atemp>
            <ns3:hr>116</ns3:hr>
          </ns3:TrackPointExtension>
        </extensions>
      </trkpt>
      <trkpt lat="46.62310768850147724151611328125" lon="6.8700815923511981964111328125">
        <ele>694.5999755859375</ele>
        <time>2013-08-15T17:26:26.000Z</time>
        <extensions>
          <ns3:TrackPointExtension>
            <ns3:atemp>16.0</ns3:atemp>
            <ns3:hr>116</ns3:hr>
          </ns3:TrackPointExtension>
        </extensions>
      </trkpt>
      <trkpt lat="46.62313601933419704437255859375" lon="6.87001638114452362060546875">
        <ele>694.79998779296875</ele>
        <time>2013-08-15T17:26:27.000Z</time>
        <extensions>
          <ns3:TrackPointExtension>
            <ns3:atemp>16.0</ns3:atemp>
            <ns3:hr>117</ns3:hr>
          </ns3:TrackPointExtension>
        </extensions>
      </trkpt>
      <trkpt lat="46.62316761910915374755859375" lon="6.86995427124202251434326171875">
        <ele>695.20001220703125</ele>
        <time>2013-08-15T17:26:28.000Z</time>
        <extensions>
          <ns3:TrackPointExtension>
            <ns3:atemp>16.0</ns3:atemp>
            <ns3:hr>118</ns3:hr>
          </ns3:TrackPointExtension>
        </extensions>
      </trkpt>
      <trkpt lat="46.6232003085315227508544921875" lon="6.8698928318917751312255859375">
        <ele>695.4000244140625</ele>
        <time>2013-08-15T17:26:29.000Z</time>
        <extensions>
          <ns3:TrackPointExtension>
            <ns3:atemp>16.0</ns3:atemp>
            <ns3:hr>119</ns3:hr>
          </ns3:TrackPointExtension>
        </extensions>
      </trkpt>
      <trkpt lat="46.6232345066964626312255859375" lon="6.86983139254152774810791015625">
        <ele>695.4000244140625</ele>
        <time>2013-08-15T17:26:30.000Z</time>
        <extensions>
          <ns3:TrackPointExtension>
            <ns3:atemp>16.0</ns3:atemp>
            <ns3:hr>119</ns3:hr>
          </ns3:TrackPointExtension>
        </extensions>
      </trkpt>
      <trkpt lat="46.623271219432353973388671875" lon="6.86977230012416839599609375">
        <ele>695.5999755859375</ele>
        <time>2013-08-15T17:26:31.000Z</time>
        <extensions>
          <ns3:TrackPointExtension>
            <ns3:atemp>16.0</ns3:atemp>
            <ns3:hr>120</ns3:hr>
          </ns3:TrackPointExtension>
        </extensions>
      </trkpt>
      <trkpt lat="46.62331220693886280059814453125" lon="6.8697174824774265289306640625">
        <ele>695.5999755859375</ele>
        <time>2013-08-15T17:26:32.000Z</time>
        <extensions>
          <ns3:TrackPointExtension>
            <ns3:atemp>16.0</ns3:atemp>
            <ns3:hr>120</ns3:hr>
          </ns3:TrackPointExtension>
        </extensions>
      </trkpt>
      <trkpt lat="46.6233575530350208282470703125" lon="6.8696635030210018157958984375">
        <ele>695.4000244140625</ele>
        <time>2013-08-15T17:26:33.000Z</time>
        <extensions>
          <ns3:TrackPointExtension>
            <ns3:atemp>16.0</ns3:atemp>
            <ns3:hr>121</ns3:hr>
          </ns3:TrackPointExtension>
        </extensions>
      </trkpt>
      <trkpt lat="46.62340424023568630218505859375" lon="6.86961530707776546478271484375">
        <ele>695.20001220703125</ele>
        <time>2013-08-15T17:26:34.000Z</time>
        <extensions>
          <ns3:TrackPointExtension>
            <ns3:atemp>16.0</ns3:atemp>
            <ns3:hr>121</ns3:hr>
          </ns3:TrackPointExtension>
        </extensions>
      </trkpt>
      <trkpt lat="46.623453609645366668701171875" lon="6.86957406811416149139404296875">
        <ele>695.4000244140625</ele>
        <time>2013-08-15T17:26:35.000Z</time>
        <extensions>
          <ns3:TrackPointExtension>
            <ns3:atemp>16.0</ns3:atemp>
            <ns3:hr>121</ns3:hr>
          </ns3:TrackPointExtension>
        </extensions>
      </trkpt>
      <trkpt lat="46.62350398488342761993408203125" lon="6.86953802593052387237548828125">
        <ele>695.4000244140625</ele>
        <time>2013-08-15T17:26:36.000Z</time>
        <extensions>
          <ns3:TrackPointExtension>
            <ns3:atemp>16.0</ns3:atemp>
            <ns3:hr>122</ns3:hr>
          </ns3:TrackPointExtension>
        </extensions>
      </trkpt>
      <trkpt lat="46.6235557012259960174560546875" lon="6.8695005588233470916748046875">
        <ele>695.5999755859375</ele>
        <time>2013-08-15T17:26:37.000Z</time>
        <extensions>
          <ns3:TrackPointExtension>
            <ns3:atemp>16.0</ns3:atemp>
            <ns3:hr>123</ns3:hr>
          </ns3:TrackPointExtension>
        </extensions>
      </trkpt>
      <trkpt lat="46.62360590882599353790283203125" lon="6.86945957131683826446533203125">
        <ele>695.79998779296875</ele>
        <time>2013-08-15T17:26:38.000Z</time>
        <extensions>
          <ns3:TrackPointExtension>
            <ns3:atemp>16.0</ns3:atemp>
            <ns3:hr>123</ns3:hr>
          </ns3:TrackPointExtension>
        </extensions>
      </trkpt>
      <trkpt lat="46.623654775321483612060546875" lon="6.86941565014421939849853515625">
        <ele>695.79998779296875</ele>
        <time>2013-08-15T17:26:39.000Z</time>
        <extensions>
          <ns3:TrackPointExtension>
            <ns3:atemp>16.0</ns3:atemp>
            <ns3:hr>123</ns3:hr>
          </ns3:TrackPointExtension>
        </extensions>
      </trkpt>
      <trkpt lat="46.62370028905570507049560546875" lon="6.86936728656291961669921875">
        <ele>695.5999755859375</ele>
        <time>2013-08-15T17:26:40.000Z</time>
        <extensions>
          <ns3:TrackPointExtension>
            <ns3:atemp>16.0</ns3:atemp>
            <ns3:hr>123</ns3:hr>
          </ns3:TrackPointExtension>
        </extensions>
      </trkpt>
      <trkpt lat="46.62373892962932586669921875" lon="6.86931188218295574188232421875">
        <ele>695.4000244140625</ele>
        <time>2013-08-15T17:26:41.000Z</time>
        <extensions>
          <ns3:TrackPointExtension>
            <ns3:atemp>16.0</ns3:atemp>
            <ns3:hr>124</ns3:hr>
          </ns3:TrackPointExtension>
        </extensions>
      </trkpt>
      <trkpt lat="46.62377237342298030853271484375" lon="6.86925731599330902099609375">
        <ele>695.5999755859375</ele>
        <time>2013-08-15T17:26:42.000Z</time>
        <extensions>
          <ns3:TrackPointExtension>
            <ns3:atemp>16.0</ns3:atemp>
            <ns3:hr>124</ns3:hr>
          </ns3:TrackPointExtension>
        </extensions>
      </trkpt>
      <trkpt lat="46.623799614608287811279296875" lon="6.86920166015625">
        <ele>695.5999755859375</ele>
        <time>2013-08-15T17:26:43.000Z</time>
        <extensions>
          <ns3:TrackPointExtension>
            <ns3:atemp>16.0</ns3:atemp>
            <ns3:hr>124</ns3:hr>
          </ns3:TrackPointExtension>
        </extensions>
      </trkpt>
      <trkpt lat="46.62382082082331180572509765625" lon="6.86914600431919097900390625">
        <ele>696</ele>
        <time>2013-08-15T17:26:44.000Z</time>
        <extensions>
          <ns3:TrackPointExtension>
            <ns3:atemp>16.0</ns3:atemp>
            <ns3:hr>124</ns3:hr>
          </ns3:TrackPointExtension>
        </extensions>
      </trkpt>
      <trkpt lat="46.62383540533483028411865234375" lon="6.869094707071781158447265625">
        <ele>696.20001220703125</ele>
        <time>2013-08-15T17:26:45.000Z</time>
        <extensions>
          <ns3:TrackPointExtension>
            <ns3:atemp>16.0</ns3:atemp>
            <ns3:hr>125</ns3:hr>
          </ns3:TrackPointExtension>
        </extensions>
      </trkpt>
      <trkpt lat="46.62384881637990474700927734375" lon="6.86904885806143283843994140625">
        <ele>696.5999755859375</ele>
        <time>2013-08-15T17:26:46.000Z</time>
        <extensions>
          <ns3:TrackPointExtension>
            <ns3:atemp>16.0</ns3:atemp>
            <ns3:hr>125</ns3:hr>
          </ns3:TrackPointExtension>
        </extensions>
      </trkpt>
      <trkpt lat="46.62386105395853519439697265625" lon="6.86900577507913112640380859375">
        <ele>696.79998779296875</ele>
        <time>2013-08-15T17:26:47.000Z</time>
        <extensions>
          <ns3:TrackPointExtension>
            <ns3:atemp>16.0</ns3:atemp>
            <ns3:hr>125</ns3:hr>
          </ns3:TrackPointExtension>
        </extensions>
      </trkpt>
      <trkpt lat="46.6238732077181339263916015625" lon="6.8689642846584320068359375">
        <ele>696.79998779296875</ele>
        <time>2013-08-15T17:26:48.000Z</time>
        <extensions>
          <ns3:TrackPointExtension>
            <ns3:atemp>16.0</ns3:atemp>
            <ns3:hr>125</ns3:hr>
          </ns3:TrackPointExtension>
        </extensions>
      </trkpt>
      <trkpt lat="46.6238844394683837890625" lon="6.86892279423773288726806640625">
        <ele>697.20001220703125</ele>
        <time>2013-08-15T17:26:49.000Z</time>
        <extensions>
          <ns3:TrackPointExtension>
            <ns3:atemp>16.0</ns3:atemp>
            <ns3:hr>125</ns3:hr>
          </ns3:TrackPointExtension>
        </extensions>
      </trkpt>
      <trkpt lat="46.62389256991446018218994140625" lon="6.86888189055025577545166015625">
        <ele>697.4000244140625</ele>
        <time>2013-08-15T17:26:50.000Z</time>
        <extensions>
          <ns3:TrackPointExtension>
            <ns3:atemp>16.0</ns3:atemp>
            <ns3:hr>126</ns3:hr>
          </ns3:TrackPointExtension>
        </extensions>
      </trkpt>
      <trkpt lat="46.6239020414650440216064453125" lon="6.8688427470624446868896484375">
        <ele>697.79998779296875</ele>
        <time>2013-08-15T17:26:51.000Z</time>
        <extensions>
          <ns3:TrackPointExtension>
            <ns3:atemp>16.0</ns3:atemp>
            <ns3:hr>126</ns3:hr>
          </ns3:TrackPointExtension>
        </extensions>
      </trkpt>
      <trkpt lat="46.6239097528159618377685546875" lon="6.86879974789917469024658203125">
        <ele>698.20001220703125</ele>
        <time>2013-08-15T17:26:52.000Z</time>
        <extensions>
          <ns3:TrackPointExtension>
            <ns3:atemp>16.0</ns3:atemp>
            <ns3:hr>127</ns3:hr>
          </ns3:TrackPointExtension>
        </extensions>
      </trkpt>
      <trkpt lat="46.6239177994430065155029296875" lon="6.868756748735904693603515625">
        <ele>698.79998779296875</ele>
        <time>2013-08-15T17:26:53.000Z</time>
        <extensions>
          <ns3:TrackPointExtension>
            <ns3:atemp>16.0</ns3:atemp>
            <ns3:hr>127</ns3:hr>
          </ns3:TrackPointExtension>
        </extensions>
      </trkpt>
      <trkpt lat="46.62392525933682918548583984375" lon="6.86871324665844440460205078125">
        <ele>699.20001220703125</ele>
        <time>2013-08-15T17:26:54.000Z</time>
        <extensions>
          <ns3:TrackPointExtension>
            <ns3:atemp>16.0</ns3:atemp>
            <ns3:hr>128</ns3:hr>
          </ns3:TrackPointExtension>
        </extensions>
      </trkpt>
      <trkpt lat="46.62393330596387386322021484375" lon="6.86867133714258670806884765625">
        <ele>699.4000244140625</ele>
        <time>2013-08-15T17:26:55.000Z</time>
        <extensions>
          <ns3:TrackPointExtension>
            <ns3:atemp>16.0</ns3:atemp>
            <ns3:hr>128</ns3:hr>
          </ns3:TrackPointExtension>
        </extensions>
      </trkpt>
      <trkpt lat="46.62394336424767971038818359375" lon="6.86862833797931671142578125">
        <ele>699.79998779296875</ele>
        <time>2013-08-15T17:26:56.000Z</time>
        <extensions>
          <ns3:TrackPointExtension>
            <ns3:atemp>16.0</ns3:atemp>
            <ns3:hr>129</ns3:hr>
          </ns3:TrackPointExtension>
        </extensions>
      </trkpt>
      <trkpt lat="46.62395417690277099609375" lon="6.86858676373958587646484375">
        <ele>700.20001220703125</ele>
        <time>2013-08-15T17:26:57.000Z</time>
        <extensions>
          <ns3:TrackPointExtension>
            <ns3:atemp>16.0</ns3:atemp>
            <ns3:hr>130</ns3:hr>
          </ns3:TrackPointExtension>
        </extensions>
      </trkpt>
      <trkpt lat="46.62396247498691082000732421875" lon="6.8685446865856647491455078125">
        <ele>700.5999755859375</ele>
        <time>2013-08-15T17:26:58.000Z</time>
        <extensions>
          <ns3:TrackPointExtension>
            <ns3:atemp>16.0</ns3:atemp>
            <ns3:hr>130</ns3:hr>
          </ns3:TrackPointExtension>
        </extensions>
      </trkpt>
      <trkpt lat="46.6239684261381626129150390625" lon="6.86850336380302906036376953125">
        <ele>700.79998779296875</ele>
        <time>2013-08-15T17:26:59.000Z</time>
        <extensions>
          <ns3:TrackPointExtension>
            <ns3:atemp>16.0</ns3:atemp>
            <ns3:hr>131</ns3:hr>
          </ns3:TrackPointExtension>
        </extensions>
      </trkpt>
      <trkpt lat="46.62397362291812896728515625" lon="6.86846212483942508697509765625">
        <ele>701</ele>
        <time>2013-08-15T17:27:00.000Z</time>
        <extensions>
          <ns3:TrackPointExtension>
            <ns3:atemp>16.0</ns3:atemp>
            <ns3:hr>131</ns3:hr>
          </ns3:TrackPointExtension>
        </extensions>
      </trkpt>
      <trkpt lat="46.623983345925807952880859375" lon="6.86842038296163082122802734375">
        <ele>701.20001220703125</ele>
        <time>2013-08-15T17:27:01.000Z</time>
        <extensions>
          <ns3:TrackPointExtension>
            <ns3:atemp>16.0</ns3:atemp>
            <ns3:hr>132</ns3:hr>
          </ns3:TrackPointExtension>
        </extensions>
      </trkpt>
      <trkpt lat="46.62399197928607463836669921875" lon="6.86837889254093170166015625">
        <ele>701.5999755859375</ele>
        <time>2013-08-15T17:27:02.000Z</time>
        <extensions>
          <ns3:TrackPointExtension>
            <ns3:atemp>16.0</ns3:atemp>
            <ns3:hr>133</ns3:hr>
          </ns3:TrackPointExtension>
        </extensions>
      </trkpt>
      <trkpt lat="46.6239965893328189849853515625" lon="6.86833589337766170501708984375">
        <ele>701.79998779296875</ele>
        <time>2013-08-15T17:27:03.000Z</time>
        <extensions>
          <ns3:TrackPointExtension>
            <ns3:atemp>16.0</ns3:atemp>
            <ns3:hr>133</ns3:hr>
          </ns3:TrackPointExtension>
        </extensions>
      </trkpt>
      <trkpt lat="46.62399818189442157745361328125" lon="6.8682932294905185699462890625">
        <ele>702.20001220703125</ele>
        <time>2013-08-15T17:27:04.000Z</time>
        <extensions>
          <ns3:TrackPointExtension>
            <ns3:atemp>16.0</ns3:atemp>
            <ns3:hr>134</ns3:hr>
          </ns3:TrackPointExtension>
        </extensions>
      </trkpt>
      <trkpt lat="46.6240006126463413238525390625" lon="6.86824855394661426544189453125">
        <ele>702.5999755859375</ele>
        <time>2013-08-15T17:27:05.000Z</time>
        <extensions>
          <ns3:TrackPointExtension>
            <ns3:atemp>16.0</ns3:atemp>
            <ns3:hr>134</ns3:hr>
          </ns3:TrackPointExtension>
        </extensions>
      </trkpt>
      <trkpt lat="46.62400270812213420867919921875" lon="6.8682050518691539764404296875">
        <ele>702.79998779296875</ele>
        <time>2013-08-15T17:27:06.000Z</time>
        <extensions>
          <ns3:TrackPointExtension>
            <ns3:atemp>16.0</ns3:atemp>
            <ns3:hr>135</ns3:hr>
          </ns3:TrackPointExtension>
        </extensions>
      </trkpt>
      <trkpt lat="46.62400522269308567047119140625" lon="6.86815970577299594879150390625">
        <ele>703.20001220703125</ele>
        <time>2013-08-15T17:27:07.000Z</time>
        <extensions>
          <ns3:TrackPointExtension>
            <ns3:atemp>16.0</ns3:atemp>
            <ns3:hr>136</ns3:hr>
          </ns3:TrackPointExtension>
        </extensions>
      </trkpt>
      <trkpt lat="46.6240096651017665863037109375" lon="6.86811528168618679046630859375">
        <ele>703.5999755859375</ele>
        <time>2013-08-15T17:27:08.000Z</time>
        <extensions>
          <ns3:TrackPointExtension>
            <ns3:atemp>16.0</ns3:atemp>
            <ns3:hr>136</ns3:hr>
          </ns3:TrackPointExtension>
        </extensions>
      </trkpt>
      <trkpt lat="46.624017544090747833251953125" lon="6.8680706061422824859619140625">
        <ele>703.79998779296875</ele>
        <time>2013-08-15T17:27:09.000Z</time>
        <extensions>
          <ns3:TrackPointExtension>
            <ns3:atemp>16.0</ns3:atemp>
            <ns3:hr>137</ns3:hr>
          </ns3:TrackPointExtension>
        </extensions>
      </trkpt>
      <trkpt lat="46.62402324378490447998046875" lon="6.86802509240806102752685546875">
        <ele>704</ele>
        <time>2013-08-15T17:27:10.000Z</time>
        <extensions>
          <ns3:TrackPointExtension>
            <ns3:atemp>16.0</ns3:atemp>
            <ns3:hr>137</ns3:hr>
          </ns3:TrackPointExtension>
        </extensions>
      </trkpt>
      <trkpt lat="46.62402567453682422637939453125" lon="6.867979578673839569091796875">
        <ele>704.4000244140625</ele>
        <time>2013-08-15T17:27:11.000Z</time>
        <extensions>
          <ns3:TrackPointExtension>
            <ns3:atemp>16.0</ns3:atemp>
            <ns3:hr>138</ns3:hr>
          </ns3:TrackPointExtension>
        </extensions>
      </trkpt>
      <trkpt lat="46.6240260936319828033447265625" lon="6.867932975292205810546875">
        <ele>704.5999755859375</ele>
        <time>2013-08-15T17:27:12.000Z</time>
        <extensions>
          <ns3:TrackPointExtension>
            <ns3:atemp>16.0</ns3:atemp>
            <ns3:hr>138</ns3:hr>
          </ns3:TrackPointExtension>
        </extensions>
      </trkpt>
      <trkpt lat="46.624026261270046234130859375" lon="6.86788829974830150604248046875">
        <ele>704.79998779296875</ele>
        <time>2013-08-15T17:27:13.000Z</time>
        <extensions>
          <ns3:TrackPointExtension>
            <ns3:atemp>16.0</ns3:atemp>
            <ns3:hr>138</ns3:hr>
          </ns3:TrackPointExtension>
        </extensions>
      </trkpt>
      <trkpt lat="46.6240240819752216339111328125" lon="6.86784286983311176300048828125">
        <ele>705</ele>
        <time>2013-08-15T17:27:14.000Z</time>
        <extensions>
          <ns3:TrackPointExtension>
            <ns3:atemp>16.0</ns3:atemp>
            <ns3:hr>138</ns3:hr>
          </ns3:TrackPointExtension>
        </extensions>
      </trkpt>
      <trkpt lat="46.62402215413749217987060546875" lon="6.8677948415279388427734375">
        <ele>705.20001220703125</ele>
        <time>2013-08-15T17:27:15.000Z</time>
        <extensions>
          <ns3:TrackPointExtension>
            <ns3:atemp>16.0</ns3:atemp>
            <ns3:hr>139</ns3:hr>
          </ns3:TrackPointExtension>
        </extensions>
      </trkpt>
      <trkpt lat="46.624024249613285064697265625" lon="6.86774589121341705322265625">
        <ele>705.4000244140625</ele>
        <time>2013-08-15T17:27:16.000Z</time>
        <extensions>
          <ns3:TrackPointExtension>
            <ns3:atemp>16.0</ns3:atemp>
            <ns3:hr>139</ns3:hr>
          </ns3:TrackPointExtension>
        </extensions>
      </trkpt>
      <trkpt lat="46.624023914337158203125" lon="6.8676971085369586944580078125">
        <ele>705.79998779296875</ele>
        <time>2013-08-15T17:27:17.000Z</time>
        <extensions>
          <ns3:TrackPointExtension>
            <ns3:atemp>16.0</ns3:atemp>
            <ns3:hr>139</ns3:hr>
          </ns3:TrackPointExtension>
        </extensions>
      </trkpt>
      <trkpt lat="46.62402265705168247222900390625" lon="6.8676478229463100433349609375">
        <ele>706.20001220703125</ele>
        <time>2013-08-15T17:27:18.000Z</time>
        <extensions>
          <ns3:TrackPointExtension>
            <ns3:atemp>16.0</ns3:atemp>
            <ns3:hr>140</ns3:hr>
          </ns3:TrackPointExtension>
        </extensions>
      </trkpt>
      <trkpt lat="46.62402056157588958740234375" lon="6.86759702861309051513671875">
        <ele>706.4000244140625</ele>
        <time>2013-08-15T17:27:19.000Z</time>
        <extensions>
          <ns3:TrackPointExtension>
            <ns3:atemp>16.0</ns3:atemp>
            <ns3:hr>140</ns3:hr>
          </ns3:TrackPointExtension>
        </extensions>
      </trkpt>
      <trkpt lat="46.6240180470049381256103515625" lon="6.86754665337502956390380859375">
        <ele>706.5999755859375</ele>
        <time>2013-08-15T17:27:20.000Z</time>
        <extensions>
          <ns3:TrackPointExtension>
            <ns3:atemp>16.0</ns3:atemp>
            <ns3:hr>140</ns3:hr>
          </ns3:TrackPointExtension>
        </extensions>
      </trkpt>
      <trkpt lat="46.6240146942436695098876953125" lon="6.8674956075847148895263671875">
        <ele>706.5999755859375</ele>
        <time>2013-08-15T17:27:21.000Z</time>
        <extensions>
          <ns3:TrackPointExtension>
            <ns3:atemp>16.0</ns3:atemp>
            <ns3:hr>140</ns3:hr>
          </ns3:TrackPointExtension>
        </extensions>
      </trkpt>
      <trkpt lat="46.62401041947305202484130859375" lon="6.86744355596601963043212890625">
        <ele>706.79998779296875</ele>
        <time>2013-08-15T17:27:22.000Z</time>
        <extensions>
          <ns3:TrackPointExtension>
            <ns3:atemp>16.0</ns3:atemp>
            <ns3:hr>140</ns3:hr>
          </ns3:TrackPointExtension>
        </extensions>
      </trkpt>
      <trkpt lat="46.62400446832180023193359375" lon="6.86739158816635608673095703125">
        <ele>706.79998779296875</ele>
        <time>2013-08-15T17:27:23.000Z</time>
        <extensions>
          <ns3:TrackPointExtension>
            <ns3:atemp>16.0</ns3:atemp>
            <ns3:hr>139</ns3:hr>
          </ns3:TrackPointExtension>
        </extensions>
      </trkpt>
      <trkpt lat="46.62399910390377044677734375" lon="6.86733744107186794281005859375">
        <ele>707</ele>
        <time>2013-08-15T17:27:24.000Z</time>
        <extensions>
          <ns3:TrackPointExtension>
            <ns3:atemp>16.0</ns3:atemp>
            <ns3:hr>140</ns3:hr>
          </ns3:TrackPointExtension>
        </extensions>
      </trkpt>
      <trkpt lat="46.6239939071238040924072265625" lon="6.867283545434474945068359375">
        <ele>707.20001220703125</ele>
        <time>2013-08-15T17:27:25.000Z</time>
        <extensions>
          <ns3:TrackPointExtension>
            <ns3:atemp>16.0</ns3:atemp>
            <ns3:hr>140</ns3:hr>
          </ns3:TrackPointExtension>
        </extensions>
      </trkpt>
      <trkpt lat="46.62398762069642543792724609375" lon="6.86722713522613048553466796875">
        <ele>707.20001220703125</ele>
        <time>2013-08-15T17:27:26.000Z</time>
        <extensions>
          <ns3:TrackPointExtension>
            <ns3:atemp>16.0</ns3:atemp>
            <ns3:hr>140</ns3:hr>
          </ns3:TrackPointExtension>
        </extensions>
      </trkpt>
      <trkpt lat="46.62398141808807849884033203125" lon="6.86716745607554912567138671875">
        <ele>707.4000244140625</ele>
        <time>2013-08-15T17:27:27.000Z</time>
        <extensions>
          <ns3:TrackPointExtension>
            <ns3:atemp>16.0</ns3:atemp>
            <ns3:hr>140</ns3:hr>
          </ns3:TrackPointExtension>
        </extensions>
      </trkpt>
      <trkpt lat="46.6239761374890804290771484375" lon="6.867105178534984588623046875">
        <ele>707.4000244140625</ele>
        <time>2013-08-15T17:27:28.000Z</time>
        <extensions>
          <ns3:TrackPointExtension>
            <ns3:atemp>16.0</ns3:atemp>
            <ns3:hr>139</ns3:hr>
          </ns3:TrackPointExtension>
        </extensions>
      </trkpt>
      <trkpt lat="46.623972617089748382568359375" lon="6.867040805518627166748046875">
        <ele>707.4000244140625</ele>
        <time>2013-08-15T17:27:29.000Z</time>
        <extensions>
          <ns3:TrackPointExtension>
            <ns3:atemp>16.0</ns3:atemp>
            <ns3:hr>140</ns3:hr>
          </ns3:TrackPointExtension>
        </extensions>
      </trkpt>
      <trkpt lat="46.623967252671718597412109375" lon="6.86697450466454029083251953125">
        <ele>707.5999755859375</ele>
        <time>2013-08-15T17:27:30.000Z</time>
        <extensions>
          <ns3:TrackPointExtension>
            <ns3:atemp>16.0</ns3:atemp>
            <ns3:hr>140</ns3:hr>
          </ns3:TrackPointExtension>
        </extensions>
      </trkpt>
      <trkpt lat="46.6239620558917522430419921875" lon="6.86690778471529483795166015625">
        <ele>707.5999755859375</ele>
        <time>2013-08-15T17:27:31.000Z</time>
        <extensions>
          <ns3:TrackPointExtension>
            <ns3:atemp>16.0</ns3:atemp>
            <ns3:hr>140</ns3:hr>
          </ns3:TrackPointExtension>
        </extensions>
      </trkpt>
      <trkpt lat="46.62395811639726161956787109375" lon="6.86683787964284420013427734375">
        <ele>707.79998779296875</ele>
        <time>2013-08-15T17:27:32.000Z</time>
        <extensions>
          <ns3:TrackPointExtension>
            <ns3:atemp>16.0</ns3:atemp>
            <ns3:hr>140</ns3:hr>
          </ns3:TrackPointExtension>
        </extensions>
      </trkpt>
      <trkpt lat="46.6239523328840732574462890625" lon="6.86676864512264728546142578125">
        <ele>707.5999755859375</ele>
        <time>2013-08-15T17:27:33.000Z</time>
        <extensions>
          <ns3:TrackPointExtension>
            <ns3:atemp>16.0</ns3:atemp>
            <ns3:hr>140</ns3:hr>
          </ns3:TrackPointExtension>
        </extensions>
      </trkpt>
      <trkpt lat="46.6239466331899166107177734375" lon="6.86669773422181606292724609375">
        <ele>707.79998779296875</ele>
        <time>2013-08-15T17:27:34.000Z</time>
        <extensions>
          <ns3:TrackPointExtension>
            <ns3:atemp>16.0</ns3:atemp>
            <ns3:hr>140</ns3:hr>
          </ns3:TrackPointExtension>
        </extensions>
      </trkpt>
      <trkpt lat="46.6239382512867450714111328125" lon="6.86662833206355571746826171875">
        <ele>707.79998779296875</ele>
        <time>2013-08-15T17:27:35.000Z</time>
        <extensions>
          <ns3:TrackPointExtension>
            <ns3:atemp>16.0</ns3:atemp>
            <ns3:hr>139</ns3:hr>
          </ns3:TrackPointExtension>
        </extensions>
      </trkpt>
      <trkpt lat="46.62393079139292240142822265625" lon="6.86655809171497821807861328125">
        <ele>707.79998779296875</ele>
        <time>2013-08-15T17:27:36.000Z</time>
        <extensions>
          <ns3:TrackPointExtension>
            <ns3:atemp>16.0</ns3:atemp>
            <ns3:hr>139</ns3:hr>
          </ns3:TrackPointExtension>
        </extensions>
      </trkpt>
      <trkpt lat="46.62392106838524341583251953125" lon="6.86648793518543243408203125">
        <ele>707.79998779296875</ele>
        <time>2013-08-15T17:27:37.000Z</time>
        <extensions>
          <ns3:TrackPointExtension>
            <ns3:atemp>16.0</ns3:atemp>
            <ns3:hr>139</ns3:hr>
          </ns3:TrackPointExtension>
        </extensions>
      </trkpt>
      <trkpt lat="46.62390883080661296844482421875" lon="6.86641744337975978851318359375">
        <ele>707.79998779296875</ele>
        <time>2013-08-15T17:27:38.000Z</time>
        <extensions>
          <ns3:TrackPointExtension>
            <ns3:atemp>16.0</ns3:atemp>
            <ns3:hr>139</ns3:hr>
          </ns3:TrackPointExtension>
        </extensions>
      </trkpt>
      <trkpt lat="46.623894162476062774658203125" lon="6.86634804122149944305419921875">
        <ele>707.79998779296875</ele>
        <time>2013-08-15T17:27:39.000Z</time>
        <extensions>
          <ns3:TrackPointExtension>
            <ns3:atemp>16.0</ns3:atemp>
            <ns3:hr>139</ns3:hr>
          </ns3:TrackPointExtension>
        </extensions>
      </trkpt>
      <trkpt lat="46.62387781776487827301025390625" lon="6.86627930961549282073974609375">
        <ele>707.79998779296875</ele>
        <time>2013-08-15T17:27:40.000Z</time>
        <extensions>
          <ns3:TrackPointExtension>
            <ns3:atemp>16.0</ns3:atemp>
            <ns3:hr>138</ns3:hr>
          </ns3:TrackPointExtension>
        </extensions>
      </trkpt>
      <trkpt lat="46.6238601319491863250732421875" lon="6.86621091328561305999755859375">
        <ele>707.79998779296875</ele>
        <time>2013-08-15T17:27:41.000Z</time>
        <extensions>
          <ns3:TrackPointExtension>
            <ns3:atemp>16.0</ns3:atemp>
            <ns3:hr>138</ns3:hr>
          </ns3:TrackPointExtension>
        </extensions>
      </trkpt>
      <trkpt lat="46.62384110502898693084716796875" lon="6.86614234931766986846923828125">
        <ele>707.79998779296875</ele>
        <time>2013-08-15T17:27:42.000Z</time>
        <extensions>
          <ns3:TrackPointExtension>
            <ns3:atemp>16.0</ns3:atemp>
            <ns3:hr>138</ns3:hr>
          </ns3:TrackPointExtension>
        </extensions>
      </trkpt>
      <trkpt lat="46.62382073700428009033203125" lon="6.8660780601203441619873046875">
        <ele>707.79998779296875</ele>
        <time>2013-08-15T17:27:43.000Z</time>
        <extensions>
          <ns3:TrackPointExtension>
            <ns3:atemp>16.0</ns3:atemp>
            <ns3:hr>137</ns3:hr>
          </ns3:TrackPointExtension>
        </extensions>
      </trkpt>
      <trkpt lat="46.623797602951526641845703125" lon="6.86601611785590648651123046875">
        <ele>707.79998779296875</ele>
        <time>2013-08-15T17:27:44.000Z</time>
        <extensions>
          <ns3:TrackPointExtension>
            <ns3:atemp>16.0</ns3:atemp>
            <ns3:hr>137</ns3:hr>
          </ns3:TrackPointExtension>
        </extensions>
      </trkpt>
      <trkpt lat="46.62377245724201202392578125" lon="6.86595794744789600372314453125">
        <ele>707.5999755859375</ele>
        <time>2013-08-15T17:27:45.000Z</time>
        <extensions>
          <ns3:TrackPointExtension>
            <ns3:atemp>16.0</ns3:atemp>
            <ns3:hr>136</ns3:hr>
          </ns3:TrackPointExtension>
        </extensions>
      </trkpt>
      <trkpt lat="46.62374706007540225982666015625" lon="6.86590254306793212890625">
        <ele>707.5999755859375</ele>
        <time>2013-08-15T17:27:46.000Z</time>
        <extensions>
          <ns3:TrackPointExtension>
            <ns3:atemp>16.0</ns3:atemp>
            <ns3:hr>135</ns3:hr>
          </ns3:TrackPointExtension>
        </extensions>
      </trkpt>
      <trkpt lat="46.6237213276326656341552734375" lon="6.8658483959734439849853515625">
        <ele>707.5999755859375</ele>
        <time>2013-08-15T17:27:47.000Z</time>
        <extensions>
          <ns3:TrackPointExtension>
            <ns3:atemp>16.0</ns3:atemp>
            <ns3:hr>134</ns3:hr>
          </ns3:TrackPointExtension>
        </extensions>
      </trkpt>
      <trkpt lat="46.6236975230276584625244140625" lon="6.865795589983463287353515625">
        <ele>707.79998779296875</ele>
        <time>2013-08-15T17:27:48.000Z</time>
        <extensions>
          <ns3:TrackPointExtension>
            <ns3:atemp>16.0</ns3:atemp>
            <ns3:hr>134</ns3:hr>
          </ns3:TrackPointExtension>
        </extensions>
      </trkpt>
      <trkpt lat="46.6236747242510318756103515625" lon="6.86574555002152919769287109375">
        <ele>707.79998779296875</ele>
        <time>2013-08-15T17:27:49.000Z</time>
        <extensions>
          <ns3:TrackPointExtension>
            <ns3:atemp>16.0</ns3:atemp>
            <ns3:hr>133</ns3:hr>
          </ns3:TrackPointExtension>
        </extensions>
      </trkpt>
      <trkpt lat="46.62365552969276905059814453125" lon="6.86569576151669025421142578125">
        <ele>708</ele>
        <time>2013-08-15T17:27:50.000Z</time>
        <extensions>
          <ns3:TrackPointExtension>
            <ns3:atemp>16.0</ns3:atemp>
            <ns3:hr>132</ns3:hr>
          </ns3:TrackPointExtension>
        </extensions>
      </trkpt>
      <trkpt lat="46.623640693724155426025390625" lon="6.86564915813505649566650390625">
        <ele>707.79998779296875</ele>
        <time>2013-08-15T17:27:51.000Z</time>
        <extensions>
          <ns3:TrackPointExtension>
            <ns3:atemp>16.0</ns3:atemp>
            <ns3:hr>131</ns3:hr>
          </ns3:TrackPointExtension>
        </extensions>
      </trkpt>
      <trkpt lat="46.62363088689744472503662109375" lon="6.86560087837278842926025390625">
        <ele>707.79998779296875</ele>
        <time>2013-08-15T17:27:52.000Z</time>
        <extensions>
          <ns3:TrackPointExtension>
            <ns3:atemp>16.0</ns3:atemp>
            <ns3:hr>130</ns3:hr>
          </ns3:TrackPointExtension>
        </extensions>
      </trkpt>
      <trkpt lat="46.62362015806138515472412109375" lon="6.8655489943921566009521484375">
        <ele>708</ele>
        <time>2013-08-15T17:27:53.000Z</time>
        <extensions>
          <ns3:TrackPointExtension>
            <ns3:atemp>16.0</ns3:atemp>
            <ns3:hr>130</ns3:hr>
          </ns3:TrackPointExtension>
        </extensions>
      </trkpt>
      <trkpt lat="46.62360104732215404510498046875" lon="6.865494512021541595458984375">
        <ele>708.20001220703125</ele>
        <time>2013-08-15T17:27:54.000Z</time>
        <extensions>
          <ns3:TrackPointExtension>
            <ns3:atemp>16.0</ns3:atemp>
            <ns3:hr>130</ns3:hr>
          </ns3:TrackPointExtension>
        </extensions>
      </trkpt>
      <trkpt lat="46.62357891909778118133544921875" lon="6.86543977819383144378662109375">
        <ele>708.5999755859375</ele>
        <time>2013-08-15T17:27:55.000Z</time>
        <extensions>
          <ns3:TrackPointExtension>
            <ns3:atemp>16.0</ns3:atemp>
            <ns3:hr>129</ns3:hr>
          </ns3:TrackPointExtension>
        </extensions>
      </trkpt>
      <trkpt lat="46.623552180826663970947265625" lon="6.8653877265751361846923828125">
        <ele>708.79998779296875</ele>
        <time>2013-08-15T17:27:56.000Z</time>
        <extensions>
          <ns3:TrackPointExtension>
            <ns3:atemp>16.0</ns3:atemp>
            <ns3:hr>129</ns3:hr>
          </ns3:TrackPointExtension>
        </extensions>
      </trkpt>
      <trkpt lat="46.62352292798459529876708984375" lon="6.86533919535577297210693359375">
        <ele>709</ele>
        <time>2013-08-15T17:27:57.000Z</time>
        <extensions>
          <ns3:TrackPointExtension>
            <ns3:atemp>16.0</ns3:atemp>
            <ns3:hr>129</ns3:hr>
          </ns3:TrackPointExtension>
        </extensions>
      </trkpt>
      <trkpt lat="46.62349375896155834197998046875" lon="6.86529125086963176727294921875">
        <ele>709</ele>
        <time>2013-08-15T17:27:58.000Z</time>
        <extensions>
          <ns3:TrackPointExtension>
            <ns3:atemp>16.0</ns3:atemp>
            <ns3:hr>129</ns3:hr>
          </ns3:TrackPointExtension>
        </extensions>
      </trkpt>
      <trkpt lat="46.62346559576690196990966796875" lon="6.86524380929768085479736328125">
        <ele>709</ele>
        <time>2013-08-15T17:27:59.000Z</time>
        <extensions>
          <ns3:TrackPointExtension>
            <ns3:atemp>16.0</ns3:atemp>
            <ns3:hr>129</ns3:hr>
          </ns3:TrackPointExtension>
        </extensions>
      </trkpt>
      <trkpt lat="46.6234417073428630828857421875" lon="6.865192763507366180419921875">
        <ele>709.20001220703125</ele>
        <time>2013-08-15T17:28:00.000Z</time>
        <extensions>
          <ns3:TrackPointExtension>
            <ns3:atemp>16.0</ns3:atemp>
            <ns3:hr>129</ns3:hr>
          </ns3:TrackPointExtension>
        </extensions>
      </trkpt>
      <trkpt lat="46.6234246082603931427001953125" lon="6.86513786204159259796142578125">
        <ele>709.5999755859375</ele>
        <time>2013-08-15T17:28:01.000Z</time>
        <extensions>
          <ns3:TrackPointExtension>
            <ns3:atemp>16.0</ns3:atemp>
            <ns3:hr>129</ns3:hr>
          </ns3:TrackPointExtension>
        </extensions>
      </trkpt>
      <trkpt lat="46.62341027520596981048583984375" lon="6.86508371494710445404052734375">
        <ele>709.79998779296875</ele>
        <time>2013-08-15T17:28:02.000Z</time>
        <extensions>
          <ns3:TrackPointExtension>
            <ns3:atemp>16.0</ns3:atemp>
            <ns3:hr>129</ns3:hr>
          </ns3:TrackPointExtension>
        </extensions>
      </trkpt>
      <trkpt lat="46.623397953808307647705078125" lon="6.8650293163955211639404296875">
        <ele>709.79998779296875</ele>
        <time>2013-08-15T17:28:03.000Z</time>
        <extensions>
          <ns3:TrackPointExtension>
            <ns3:atemp>16.0</ns3:atemp>
            <ns3:hr>129</ns3:hr>
          </ns3:TrackPointExtension>
        </extensions>
      </trkpt>
      <trkpt lat="46.62339485250413417816162109375" lon="6.8649760074913501739501953125">
        <ele>710</ele>
        <time>2013-08-15T17:28:04.000Z</time>
        <extensions>
          <ns3:TrackPointExtension>
            <ns3:atemp>16.0</ns3:atemp>
            <ns3:hr>128</ns3:hr>
          </ns3:TrackPointExtension>
        </extensions>
      </trkpt>
      <trkpt lat="46.62340541370213031768798828125" lon="6.86493015848100185394287109375">
        <ele>710.20001220703125</ele>
        <time>2013-08-15T17:28:05.000Z</time>
        <extensions>
          <ns3:TrackPointExtension>
            <ns3:atemp>16.0</ns3:atemp>
            <ns3:hr>128</ns3:hr>
          </ns3:TrackPointExtension>
        </extensions>
      </trkpt>
      <trkpt lat="46.62342418916523456573486328125" lon="6.8648945353925228118896484375">
        <ele>710.20001220703125</ele>
        <time>2013-08-15T17:28:06.000Z</time>
        <extensions>
          <ns3:TrackPointExtension>
            <ns3:atemp>16.0</ns3:atemp>
            <ns3:hr>128</ns3:hr>
          </ns3:TrackPointExtension>
        </extensions>
      </trkpt>
      <trkpt lat="46.62344313226640224456787109375" lon="6.8648670427501201629638671875">
        <ele>710.20001220703125</ele>
        <time>2013-08-15T17:28:07.000Z</time>
        <extensions>
          <ns3:TrackPointExtension>
            <ns3:atemp>16.0</ns3:atemp>
            <ns3:hr>128</ns3:hr>
          </ns3:TrackPointExtension>
        </extensions>
      </trkpt>
      <trkpt lat="46.62345939315855503082275390625" lon="6.8648455850780010223388671875">
        <ele>710.4000244140625</ele>
        <time>2013-08-15T17:28:08.000Z</time>
        <extensions>
          <ns3:TrackPointExtension>
            <ns3:atemp>16.0</ns3:atemp>
            <ns3:hr>129</ns3:hr>
          </ns3:TrackPointExtension>
        </extensions>
      </trkpt>
      <trkpt lat="46.62347381003201007843017578125" lon="6.8648234568536281585693359375">
        <ele>710.4000244140625</ele>
        <time>2013-08-15T17:28:09.000Z</time>
        <extensions>
          <ns3:TrackPointExtension>
            <ns3:atemp>16.0</ns3:atemp>
            <ns3:hr>129</ns3:hr>
          </ns3:TrackPointExtension>
        </extensions>
      </trkpt>
      <trkpt lat="46.6234903223812580108642578125" lon="6.8648026697337627410888671875">
        <ele>710.5999755859375</ele>
        <time>2013-08-15T17:28:10.000Z</time>
        <extensions>
          <ns3:TrackPointExtension>
            <ns3:atemp>16.0</ns3:atemp>
            <ns3:hr>129</ns3:hr>
          </ns3:TrackPointExtension>
        </extensions>
      </trkpt>
      <trkpt lat="46.623507253825664520263671875" lon="6.86478666029870510101318359375">
        <ele>711.20001220703125</ele>
        <time>2013-08-15T17:28:11.000Z</time>
        <extensions>
          <ns3:TrackPointExtension>
            <ns3:atemp>16.0</ns3:atemp>
            <ns3:hr>129</ns3:hr>
          </ns3:TrackPointExtension>
        </extensions>
      </trkpt>
      <trkpt lat="46.62352301180362701416015625" lon="6.8647714890539646148681640625">
        <ele>711.4000244140625</ele>
        <time>2013-08-15T17:28:12.000Z</time>
        <extensions>
          <ns3:TrackPointExtension>
            <ns3:atemp>16.0</ns3:atemp>
            <ns3:hr>130</ns3:hr>
          </ns3:TrackPointExtension>
        </extensions>
      </trkpt>
      <trkpt lat="46.6235375963151454925537109375" lon="6.86475564725697040557861328125">
        <ele>711.5999755859375</ele>
        <time>2013-08-15T17:28:13.000Z</time>
        <extensions>
          <ns3:TrackPointExtension>
            <ns3:atemp>16.0</ns3:atemp>
            <ns3:hr>130</ns3:hr>
          </ns3:TrackPointExtension>
        </extensions>
      </trkpt>
      <trkpt lat="46.6235530190169811248779296875" lon="6.86473921872675418853759765625">
        <ele>711.79998779296875</ele>
        <time>2013-08-15T17:28:14.000Z</time>
        <extensions>
          <ns3:TrackPointExtension>
            <ns3:atemp>16.0</ns3:atemp>
            <ns3:hr>131</ns3:hr>
          </ns3:TrackPointExtension>
        </extensions>
      </trkpt>
      <trkpt lat="46.62356953136622905731201171875" lon="6.86472144909203052520751953125">
        <ele>712</ele>
        <time>2013-08-15T17:28:15.000Z</time>
        <extensions>
          <ns3:TrackPointExtension>
            <ns3:atemp>16.0</ns3:atemp>
            <ns3:hr>131</ns3:hr>
          </ns3:TrackPointExtension>
        </extensions>
      </trkpt>
      <trkpt lat="46.623585708439350128173828125" lon="6.864710636436939239501953125">
        <ele>712.4000244140625</ele>
        <time>2013-08-15T17:28:16.000Z</time>
        <extensions>
          <ns3:TrackPointExtension>
            <ns3:atemp>16.0</ns3:atemp>
            <ns3:hr>132</ns3:hr>
          </ns3:TrackPointExtension>
        </extensions>
      </trkpt>
      <trkpt lat="46.62359677255153656005859375" lon="6.86470091342926025390625">
        <ele>712.79998779296875</ele>
        <time>2013-08-15T17:28:17.000Z</time>
        <extensions>
          <ns3:TrackPointExtension>
            <ns3:atemp>16.0</ns3:atemp>
            <ns3:hr>133</ns3:hr>
          </ns3:TrackPointExtension>
        </extensions>
      </trkpt>
      <trkpt lat="46.6236069984734058380126953125" lon="6.86469244770705699920654296875">
        <ele>713</ele>
        <time>2013-08-15T17:28:18.000Z</time>
        <extensions>
          <ns3:TrackPointExtension>
            <ns3:atemp>16.0</ns3:atemp>
            <ns3:hr>133</ns3:hr>
          </ns3:TrackPointExtension>
        </extensions>
      </trkpt>
      <trkpt lat="46.6236183978617191314697265625" lon="6.86468456871807575225830078125">
        <ele>713.20001220703125</ele>
        <time>2013-08-15T17:28:19.000Z</time>
        <extensions>
          <ns3:TrackPointExtension>
            <ns3:atemp>16.0</ns3:atemp>
            <ns3:hr>134</ns3:hr>
          </ns3:TrackPointExtension>
        </extensions>
      </trkpt>
      <trkpt lat="46.62363071925938129425048828125" lon="6.864676773548126220703125">
        <ele>713.4000244140625</ele>
        <time>2013-08-15T17:28:20.000Z</time>
        <extensions>
          <ns3:TrackPointExtension>
            <ns3:atemp>16.0</ns3:atemp>
            <ns3:hr>134</ns3:hr>
          </ns3:TrackPointExtension>
        </extensions>
      </trkpt>
      <trkpt lat="46.62364178337156772613525390625" lon="6.86466931365430355072021484375">
        <ele>713.5999755859375</ele>
        <time>2013-08-15T17:28:21.000Z</time>
        <extensions>
          <ns3:TrackPointExtension>
            <ns3:atemp>16.0</ns3:atemp>
            <ns3:hr>134</ns3:hr>
          </ns3:TrackPointExtension>
        </extensions>
      </trkpt>
      <trkpt lat="46.623654775321483612060546875" lon="6.86466076411306858062744140625">
        <ele>713.79998779296875</ele>
        <time>2013-08-15T17:28:22.000Z</time>
        <extensions>
          <ns3:TrackPointExtension>
            <ns3:atemp>16.0</ns3:atemp>
            <ns3:hr>134</ns3:hr>
          </ns3:TrackPointExtension>
        </extensions>
      </trkpt>
      <trkpt lat="46.62366810254752635955810546875" lon="6.86465196311473846435546875">
        <ele>714.20001220703125</ele>
        <time>2013-08-15T17:28:23.000Z</time>
        <extensions>
          <ns3:TrackPointExtension>
            <ns3:atemp>16.0</ns3:atemp>
            <ns3:hr>135</ns3:hr>
          </ns3:TrackPointExtension>
        </extensions>
      </trkpt>
      <trkpt lat="46.623679585754871368408203125" lon="6.864644587039947509765625">
        <ele>714.4000244140625</ele>
        <time>2013-08-15T17:28:24.000Z</time>
        <extensions>
          <ns3:TrackPointExtension>
            <ns3:atemp>16.0</ns3:atemp>
            <ns3:hr>135</ns3:hr>
          </ns3:TrackPointExtension>
        </extensions>
      </trkpt>
      <trkpt lat="46.62369039840996265411376953125" lon="6.86463427729904651641845703125">
        <ele>714.5999755859375</ele>
        <time>2013-08-15T17:28:25.000Z</time>
        <extensions>
          <ns3:TrackPointExtension>
            <ns3:atemp>16.0</ns3:atemp>
            <ns3:hr>135</ns3:hr>
          </ns3:TrackPointExtension>
        </extensions>
      </trkpt>
      <trkpt lat="46.6237007081508636474609375" lon="6.86462522484362125396728515625">
        <ele>714.79998779296875</ele>
        <time>2013-08-15T17:28:26.000Z</time>
        <extensions>
          <ns3:TrackPointExtension>
            <ns3:atemp>16.0</ns3:atemp>
            <ns3:hr>135</ns3:hr>
          </ns3:TrackPointExtension>
        </extensions>
      </trkpt>
      <trkpt lat="46.6237127780914306640625" lon="6.86461566947400569915771484375">
        <ele>715</ele>
        <time>2013-08-15T17:28:27.000Z</time>
        <extensions>
          <ns3:TrackPointExtension>
            <ns3:atemp>16.0</ns3:atemp>
            <ns3:hr>135</ns3:hr>
          </ns3:TrackPointExtension>
        </extensions>
      </trkpt>
      <trkpt lat="46.6237085871398448944091796875" lon="6.86461851932108402252197265625">
        <ele>715.4000244140625</ele>
        <time>2013-08-15T17:28:28.000Z</time>
        <extensions>
          <ns3:TrackPointExtension>
            <ns3:atemp>16.0</ns3:atemp>
            <ns3:hr>135</ns3:hr>
          </ns3:TrackPointExtension>
        </extensions>
      </trkpt>
      <trkpt lat="46.62372820079326629638671875" lon="6.8646028451621532440185546875">
        <ele>715.5999755859375</ele>
        <time>2013-08-15T17:28:29.000Z</time>
        <extensions>
          <ns3:TrackPointExtension>
            <ns3:atemp>16.0</ns3:atemp>
            <ns3:hr>135</ns3:hr>
          </ns3:TrackPointExtension>
        </extensions>
      </trkpt>
      <trkpt lat="46.62372820079326629638671875" lon="6.8646028451621532440185546875">
        <ele>715.5999755859375</ele>
        <time>2013-08-15T17:28:30.000Z</time>
        <extensions>
          <ns3:TrackPointExtension>
            <ns3:atemp>16.0</ns3:atemp>
            <ns3:hr>134</ns3:hr>
          </ns3:TrackPointExtension>
        </extensions>
      </trkpt>
      <trkpt lat="46.62372820079326629638671875" lon="6.8646028451621532440185546875">
        <ele>715.5999755859375</ele>
        <time>2013-08-15T17:28:31.000Z</time>
        <extensions>
          <ns3:TrackPointExtension>
            <ns3:atemp>16.0</ns3:atemp>
            <ns3:hr>134</ns3:hr>
          </ns3:TrackPointExtension>
        </extensions>
      </trkpt>
      <trkpt lat="46.62372820079326629638671875" lon="6.8646028451621532440185546875">
        <ele>715.5999755859375</ele>
        <time>2013-08-15T17:28:32.000Z</time>
        <extensions>
          <ns3:TrackPointExtension>
            <ns3:atemp>16.0</ns3:atemp>
            <ns3:hr>134</ns3:hr>
          </ns3:TrackPointExtension>
        </extensions>
      </trkpt>
      <trkpt lat="46.62372820079326629638671875" lon="6.8646028451621532440185546875">
        <ele>715.5999755859375</ele>
        <time>2013-08-15T17:28:33.000Z</time>
        <extensions>
          <ns3:TrackPointExtension>
            <ns3:atemp>16.0</ns3:atemp>
            <ns3:hr>134</ns3:hr>
          </ns3:TrackPointExtension>
        </extensions>
      </trkpt>
      <trkpt lat="46.62372820079326629638671875" lon="6.8646028451621532440185546875">
        <ele>715.5999755859375</ele>
        <time>2013-08-15T17:28:34.000Z</time>
        <extensions>
          <ns3:TrackPointExtension>
            <ns3:atemp>16.0</ns3:atemp>
            <ns3:hr>133</ns3:hr>
          </ns3:TrackPointExtension>
        </extensions>
      </trkpt>
      <trkpt lat="46.62372820079326629638671875" lon="6.8646028451621532440185546875">
        <ele>715.79998779296875</ele>
        <time>2013-08-15T17:28:35.000Z</time>
        <extensions>
          <ns3:TrackPointExtension>
            <ns3:atemp>16.0</ns3:atemp>
            <ns3:hr>133</ns3:hr>
          </ns3:TrackPointExtension>
        </extensions>
      </trkpt>
      <trkpt lat="46.62372820079326629638671875" lon="6.8646028451621532440185546875">
        <ele>715.79998779296875</ele>
        <time>2013-08-15T17:28:36.000Z</time>
        <extensions>
          <ns3:TrackPointExtension>
            <ns3:atemp>16.0</ns3:atemp>
            <ns3:hr>132</ns3:hr>
          </ns3:TrackPointExtension>
        </extensions>
      </trkpt>
      <trkpt lat="46.62372820079326629638671875" lon="6.8646028451621532440185546875">
        <ele>715.79998779296875</ele>
        <time>2013-08-15T17:28:37.000Z</time>
        <extensions>
          <ns3:TrackPointExtension>
            <ns3:atemp>16.0</ns3:atemp>
            <ns3:hr>132</ns3:hr>
          </ns3:TrackPointExtension>
        </extensions>
      </trkpt>
      <trkpt lat="46.62372820079326629638671875" lon="6.8646028451621532440185546875">
        <ele>715.79998779296875</ele>
        <time>2013-08-15T17:28:38.000Z</time>
        <extensions>
          <ns3:TrackPointExtension>
            <ns3:atemp>16.0</ns3:atemp>
            <ns3:hr>131</ns3:hr>
          </ns3:TrackPointExtension>
        </extensions>
      </trkpt>
      <trkpt lat="46.62372820079326629638671875" lon="6.8646028451621532440185546875">
        <ele>715.79998779296875</ele>
        <time>2013-08-15T17:28:39.000Z</time>
        <extensions>
          <ns3:TrackPointExtension>
            <ns3:atemp>16.0</ns3:atemp>
            <ns3:hr>131</ns3:hr>
          </ns3:TrackPointExtension>
        </extensions>
      </trkpt>
      <trkpt lat="46.62372820079326629638671875" lon="6.8646028451621532440185546875">
        <ele>715.79998779296875</ele>
        <time>2013-08-15T17:28:40.000Z</time>
        <extensions>
          <ns3:TrackPointExtension>
            <ns3:atemp>16.0</ns3:atemp>
            <ns3:hr>131</ns3:hr>
          </ns3:TrackPointExtension>
        </extensions>
      </trkpt>
      <trkpt lat="46.62372820079326629638671875" lon="6.8646028451621532440185546875">
        <ele>716</ele>
        <time>2013-08-15T17:28:41.000Z</time>
        <extensions>
          <ns3:TrackPointExtension>
            <ns3:atemp>16.0</ns3:atemp>
            <ns3:hr>132</ns3:hr>
          </ns3:TrackPointExtension>
        </extensions>
      </trkpt>
      <trkpt lat="46.62372820079326629638671875" lon="6.8646028451621532440185546875">
        <ele>716</ele>
        <time>2013-08-15T17:28:42.000Z</time>
        <extensions>
          <ns3:TrackPointExtension>
            <ns3:atemp>16.0</ns3:atemp>
            <ns3:hr>132</ns3:hr>
          </ns3:TrackPointExtension>
        </extensions>
      </trkpt>
      <trkpt lat="46.62372820079326629638671875" lon="6.8646028451621532440185546875">
        <ele>716.20001220703125</ele>
        <time>2013-08-15T17:28:43.000Z</time>
        <extensions>
          <ns3:TrackPointExtension>
            <ns3:atemp>16.0</ns3:atemp>
            <ns3:hr>132</ns3:hr>
          </ns3:TrackPointExtension>
        </extensions>
      </trkpt>
      <trkpt lat="46.62372820079326629638671875" lon="6.8646028451621532440185546875">
        <ele>716.20001220703125</ele>
        <time>2013-08-15T17:28:44.000Z</time>
        <extensions>
          <ns3:TrackPointExtension>
            <ns3:atemp>16.0</ns3:atemp>
            <ns3:hr>132</ns3:hr>
          </ns3:TrackPointExtension>
        </extensions>
      </trkpt>
      <trkpt lat="46.62372820079326629638671875" lon="6.8646028451621532440185546875">
        <ele>716.20001220703125</ele>
        <time>2013-08-15T17:28:45.000Z</time>
        <extensions>
          <ns3:TrackPointExtension>
            <ns3:atemp>16.0</ns3:atemp>
            <ns3:hr>132</ns3:hr>
          </ns3:TrackPointExtension>
        </extensions>
      </trkpt>
      <trkpt lat="46.62372820079326629638671875" lon="6.8646028451621532440185546875">
        <ele>716.20001220703125</ele>
        <time>2013-08-15T17:28:46.000Z</time>
        <extensions>
          <ns3:TrackPointExtension>
            <ns3:atemp>16.0</ns3:atemp>
            <ns3:hr>131</ns3:hr>
          </ns3:TrackPointExtension>
        </extensions>
      </trkpt>
      <trkpt lat="46.62372820079326629638671875" lon="6.8646028451621532440185546875">
        <ele>716.20001220703125</ele>
        <time>2013-08-15T17:28:47.000Z</time>
        <extensions>
          <ns3:TrackPointExtension>
            <ns3:atemp>16.0</ns3:atemp>
            <ns3:hr>130</ns3:hr>
          </ns3:TrackPointExtension>
        </extensions>
      </trkpt>
      <trkpt lat="46.62372820079326629638671875" lon="6.8646028451621532440185546875">
        <ele>716</ele>
        <time>2013-08-15T17:28:48.000Z</time>
        <extensions>
          <ns3:TrackPointExtension>
            <ns3:atemp>16.0</ns3:atemp>
            <ns3:hr>130</ns3:hr>
          </ns3:TrackPointExtension>
        </extensions>
      </trkpt>
      <trkpt lat="46.62372820079326629638671875" lon="6.8646028451621532440185546875">
        <ele>716</ele>
        <time>2013-08-15T17:28:49.000Z</time>
        <extensions>
          <ns3:TrackPointExtension>
            <ns3:atemp>16.0</ns3:atemp>
            <ns3:hr>130</ns3:hr>
          </ns3:TrackPointExtension>
        </extensions>
      </trkpt>
      <trkpt lat="46.62372820079326629638671875" lon="6.8646028451621532440185546875">
        <ele>715.79998779296875</ele>
        <time>2013-08-15T17:28:50.000Z</time>
        <extensions>
          <ns3:TrackPointExtension>
            <ns3:atemp>16.0</ns3:atemp>
            <ns3:hr>129</ns3:hr>
          </ns3:TrackPointExtension>
        </extensions>
      </trkpt>
      <trkpt lat="46.62372820079326629638671875" lon="6.8646028451621532440185546875">
        <ele>716</ele>
        <time>2013-08-15T17:28:51.000Z</time>
        <extensions>
          <ns3:TrackPointExtension>
            <ns3:atemp>16.0</ns3:atemp>
            <ns3:hr>129</ns3:hr>
          </ns3:TrackPointExtension>
        </extensions>
      </trkpt>
      <trkpt lat="46.62372820079326629638671875" lon="6.8646028451621532440185546875">
        <ele>716</ele>
        <time>2013-08-15T17:28:52.000Z</time>
        <extensions>
          <ns3:TrackPointExtension>
            <ns3:atemp>16.0</ns3:atemp>
            <ns3:hr>128</ns3:hr>
          </ns3:TrackPointExtension>
        </extensions>
      </trkpt>
      <trkpt lat="46.62372820079326629638671875" lon="6.8646028451621532440185546875">
        <ele>716.20001220703125</ele>
        <time>2013-08-15T17:28:53.000Z</time>
        <extensions>
          <ns3:TrackPointExtension>
            <ns3:atemp>16.0</ns3:atemp>
            <ns3:hr>128</ns3:hr>
          </ns3:TrackPointExtension>
        </extensions>
      </trkpt>
      <trkpt lat="46.62372820079326629638671875" lon="6.8646028451621532440185546875">
        <ele>716.20001220703125</ele>
        <time>2013-08-15T17:28:54.000Z</time>
        <extensions>
          <ns3:TrackPointExtension>
            <ns3:atemp>16.0</ns3:atemp>
            <ns3:hr>127</ns3:hr>
          </ns3:TrackPointExtension>
        </extensions>
      </trkpt>
      <trkpt lat="46.62372820079326629638671875" lon="6.8646028451621532440185546875">
        <ele>716.20001220703125</ele>
        <time>2013-08-15T17:28:55.000Z</time>
        <extensions>
          <ns3:TrackPointExtension>
            <ns3:atemp>16.0</ns3:atemp>
            <ns3:hr>127</ns3:hr>
          </ns3:TrackPointExtension>
        </extensions>
      </trkpt>
      <trkpt lat="46.62372820079326629638671875" lon="6.8646028451621532440185546875">
        <ele>716</ele>
        <time>2013-08-15T17:28:56.000Z</time>
        <extensions>
          <ns3:TrackPointExtension>
            <ns3:atemp>16.0</ns3:atemp>
            <ns3:hr>127</ns3:hr>
          </ns3:TrackPointExtension>
        </extensions>
      </trkpt>
      <trkpt lat="46.62372820079326629638671875" lon="6.8646028451621532440185546875">
        <ele>716</ele>
        <time>2013-08-15T17:28:57.000Z</time>
        <extensions>
          <ns3:TrackPointExtension>
            <ns3:atemp>16.0</ns3:atemp>
            <ns3:hr>126</ns3:hr>
          </ns3:TrackPointExtension>
        </extensions>
      </trkpt>
      <trkpt lat="46.62372820079326629638671875" lon="6.8646028451621532440185546875">
        <ele>716</ele>
        <time>2013-08-15T17:28:58.000Z</time>
        <extensions>
          <ns3:TrackPointExtension>
            <ns3:atemp>16.0</ns3:atemp>
            <ns3:hr>125</ns3:hr>
          </ns3:TrackPointExtension>
        </extensions>
      </trkpt>
      <trkpt lat="46.62372820079326629638671875" lon="6.8646028451621532440185546875">
        <ele>716</ele>
        <time>2013-08-15T17:28:59.000Z</time>
        <extensions>
          <ns3:TrackPointExtension>
            <ns3:atemp>16.0</ns3:atemp>
            <ns3:hr>125</ns3:hr>
          </ns3:TrackPointExtension>
        </extensions>
      </trkpt>
      <trkpt lat="46.62372820079326629638671875" lon="6.8646028451621532440185546875">
        <ele>716</ele>
        <time>2013-08-15T17:29:01.000Z</time>
        <extensions>
          <ns3:TrackPointExtension>
            <ns3:atemp>16.0</ns3:atemp>
            <ns3:hr>124</ns3:hr>
          </ns3:TrackPointExtension>
        </extensions>
      </trkpt>
      <trkpt lat="46.62372820079326629638671875" lon="6.8646028451621532440185546875">
        <ele>716</ele>
        <time>2013-08-15T17:29:02.000Z</time>
        <extensions>
          <ns3:TrackPointExtension>
            <ns3:atemp>16.0</ns3:atemp>
            <ns3:hr>124</ns3:hr>
          </ns3:TrackPointExtension>
        </extensions>
      </trkpt>
      <trkpt lat="46.62372820079326629638671875" lon="6.8646028451621532440185546875">
        <ele>716</ele>
        <time>2013-08-15T17:29:03.000Z</time>
        <extensions>
          <ns3:TrackPointExtension>
            <ns3:atemp>16.0</ns3:atemp>
            <ns3:hr>124</ns3:hr>
          </ns3:TrackPointExtension>
        </extensions>
      </trkpt>
      <trkpt lat="46.62372820079326629638671875" lon="6.8646028451621532440185546875">
        <ele>716</ele>
        <time>2013-08-15T17:29:04.000Z</time>
        <extensions>
          <ns3:TrackPointExtension>
            <ns3:atemp>16.0</ns3:atemp>
            <ns3:hr>123</ns3:hr>
          </ns3:TrackPointExtension>
        </extensions>
      </trkpt>
      <trkpt lat="46.62372820079326629638671875" lon="6.8646028451621532440185546875">
        <ele>716</ele>
        <time>2013-08-15T17:29:05.000Z</time>
        <extensions>
          <ns3:TrackPointExtension>
            <ns3:atemp>16.0</ns3:atemp>
            <ns3:hr>123</ns3:hr>
          </ns3:TrackPointExtension>
        </extensions>
      </trkpt>
      <trkpt lat="46.62372820079326629638671875" lon="6.8646028451621532440185546875">
        <ele>716</ele>
        <time>2013-08-15T17:29:06.000Z</time>
        <extensions>
          <ns3:TrackPointExtension>
            <ns3:atemp>16.0</ns3:atemp>
            <ns3:hr>122</ns3:hr>
          </ns3:TrackPointExtension>
        </extensions>
      </trkpt>
      <trkpt lat="46.62372820079326629638671875" lon="6.8646028451621532440185546875">
        <ele>716</ele>
        <time>2013-08-15T17:29:07.000Z</time>
        <extensions>
          <ns3:TrackPointExtension>
            <ns3:atemp>16.0</ns3:atemp>
            <ns3:hr>122</ns3:hr>
          </ns3:TrackPointExtension>
        </extensions>
      </trkpt>
      <trkpt lat="46.62372820079326629638671875" lon="6.8646028451621532440185546875">
        <ele>716</ele>
        <time>2013-08-15T17:29:08.000Z</time>
        <extensions>
          <ns3:TrackPointExtension>
            <ns3:atemp>16.0</ns3:atemp>
            <ns3:hr>121</ns3:hr>
          </ns3:TrackPointExtension>
        </extensions>
      </trkpt>
      <trkpt lat="46.62372820079326629638671875" lon="6.8646028451621532440185546875">
        <ele>716</ele>
        <time>2013-08-15T17:29:09.000Z</time>
        <extensions>
          <ns3:TrackPointExtension>
            <ns3:atemp>16.0</ns3:atemp>
            <ns3:hr>121</ns3:hr>
          </ns3:TrackPointExtension>
        </extensions>
      </trkpt>
      <trkpt lat="46.62373448722064495086669921875" lon="6.864602006971836090087890625">
        <ele>716</ele>
        <time>2013-08-15T17:29:10.000Z</time>
        <extensions>
          <ns3:TrackPointExtension>
            <ns3:atemp>16.0</ns3:atemp>
            <ns3:hr>120</ns3:hr>
          </ns3:TrackPointExtension>
        </extensions>
      </trkpt>
      <trkpt lat="46.62373448722064495086669921875" lon="6.864602006971836090087890625">
        <ele>716</ele>
        <time>2013-08-15T17:29:11.000Z</time>
        <extensions>
          <ns3:TrackPointExtension>
            <ns3:atemp>16.0</ns3:atemp>
            <ns3:hr>120</ns3:hr>
          </ns3:TrackPointExtension>
        </extensions>
      </trkpt>
      <trkpt lat="46.62373448722064495086669921875" lon="6.864602006971836090087890625">
        <ele>716</ele>
        <time>2013-08-15T17:29:12.000Z</time>
        <extensions>
          <ns3:TrackPointExtension>
            <ns3:atemp>16.0</ns3:atemp>
            <ns3:hr>119</ns3:hr>
          </ns3:TrackPointExtension>
        </extensions>
      </trkpt>
      <trkpt lat="46.62373448722064495086669921875" lon="6.864602006971836090087890625">
        <ele>716</ele>
        <time>2013-08-15T17:29:13.000Z</time>
        <extensions>
          <ns3:TrackPointExtension>
            <ns3:atemp>16.0</ns3:atemp>
            <ns3:hr>118</ns3:hr>
          </ns3:TrackPointExtension>
        </extensions>
      </trkpt>
      <trkpt lat="46.62373448722064495086669921875" lon="6.864602006971836090087890625">
        <ele>716</ele>
        <time>2013-08-15T17:29:14.000Z</time>
        <extensions>
          <ns3:TrackPointExtension>
            <ns3:atemp>16.0</ns3:atemp>
            <ns3:hr>118</ns3:hr>
          </ns3:TrackPointExtension>
        </extensions>
      </trkpt>
      <trkpt lat="46.62373448722064495086669921875" lon="6.864602006971836090087890625">
        <ele>716</ele>
        <time>2013-08-15T17:29:15.000Z</time>
        <extensions>
          <ns3:TrackPointExtension>
            <ns3:atemp>16.0</ns3:atemp>
            <ns3:hr>117</ns3:hr>
          </ns3:TrackPointExtension>
        </extensions>
      </trkpt>
      <trkpt lat="46.62373448722064495086669921875" lon="6.864602006971836090087890625">
        <ele>716</ele>
        <time>2013-08-15T17:29:16.000Z</time>
        <extensions>
          <ns3:TrackPointExtension>
            <ns3:atemp>16.0</ns3:atemp>
            <ns3:hr>117</ns3:hr>
          </ns3:TrackPointExtension>
        </extensions>
      </trkpt>
      <trkpt lat="46.62373448722064495086669921875" lon="6.864602006971836090087890625">
        <ele>716</ele>
        <time>2013-08-15T17:29:17.000Z</time>
        <extensions>
          <ns3:TrackPointExtension>
            <ns3:atemp>16.0</ns3:atemp>
            <ns3:hr>117</ns3:hr>
          </ns3:TrackPointExtension>
        </extensions>
      </trkpt>
      <trkpt lat="46.62373448722064495086669921875" lon="6.864602006971836090087890625">
        <ele>716</ele>
        <time>2013-08-15T17:29:18.000Z</time>
        <extensions>
          <ns3:TrackPointExtension>
            <ns3:atemp>16.0</ns3:atemp>
            <ns3:hr>116</ns3:hr>
          </ns3:TrackPointExtension>
        </extensions>
      </trkpt>
      <trkpt lat="46.62373448722064495086669921875" lon="6.864602006971836090087890625">
        <ele>715.79998779296875</ele>
        <time>2013-08-15T17:29:19.000Z</time>
        <extensions>
          <ns3:TrackPointExtension>
            <ns3:atemp>16.0</ns3:atemp>
            <ns3:hr>116</ns3:hr>
          </ns3:TrackPointExtension>
        </extensions>
      </trkpt>
      <trkpt lat="46.62373448722064495086669921875" lon="6.864602006971836090087890625">
        <ele>716</ele>
        <time>2013-08-15T17:29:20.000Z</time>
        <extensions>
          <ns3:TrackPointExtension>
            <ns3:atemp>16.0</ns3:atemp>
            <ns3:hr>116</ns3:hr>
          </ns3:TrackPointExtension>
        </extensions>
      </trkpt>
      <trkpt lat="46.62373448722064495086669921875" lon="6.864602006971836090087890625">
        <ele>715.79998779296875</ele>
        <time>2013-08-15T17:29:21.000Z</time>
        <extensions>
          <ns3:TrackPointExtension>
            <ns3:atemp>16.0</ns3:atemp>
            <ns3:hr>117</ns3:hr>
          </ns3:TrackPointExtension>
        </extensions>
      </trkpt>
      <trkpt lat="46.62373448722064495086669921875" lon="6.864602006971836090087890625">
        <ele>716</ele>
        <time>2013-08-15T17:29:22.000Z</time>
        <extensions>
          <ns3:TrackPointExtension>
            <ns3:atemp>16.0</ns3:atemp>
            <ns3:hr>118</ns3:hr>
          </ns3:TrackPointExtension>
        </extensions>
      </trkpt>
      <trkpt lat="46.62373448722064495086669921875" lon="6.864602006971836090087890625">
        <ele>716</ele>
        <time>2013-08-15T17:29:23.000Z</time>
        <extensions>
          <ns3:TrackPointExtension>
            <ns3:atemp>16.0</ns3:atemp>
            <ns3:hr>117</ns3:hr>
          </ns3:TrackPointExtension>
        </extensions>
      </trkpt>
      <trkpt lat="46.62373448722064495086669921875" lon="6.864602006971836090087890625">
        <ele>716</ele>
        <time>2013-08-15T17:29:24.000Z</time>
        <extensions>
          <ns3:TrackPointExtension>
            <ns3:atemp>16.0</ns3:atemp>
            <ns3:hr>117</ns3:hr>
          </ns3:TrackPointExtension>
        </extensions>
      </trkpt>
      <trkpt lat="46.62373448722064495086669921875" lon="6.864602006971836090087890625">
        <ele>715.79998779296875</ele>
        <time>2013-08-15T17:29:25.000Z</time>
        <extensions>
          <ns3:TrackPointExtension>
            <ns3:atemp>16.0</ns3:atemp>
            <ns3:hr>117</ns3:hr>
          </ns3:TrackPointExtension>
        </extensions>
      </trkpt>
      <trkpt lat="46.62373448722064495086669921875" lon="6.864602006971836090087890625">
        <ele>716</ele>
        <time>2013-08-15T17:29:26.000Z</time>
        <extensions>
          <ns3:TrackPointExtension>
            <ns3:atemp>16.0</ns3:atemp>
            <ns3:hr>117</ns3:hr>
          </ns3:TrackPointExtension>
        </extensions>
      </trkpt>
      <trkpt lat="46.62376449443399906158447265625" lon="6.864576525986194610595703125">
        <ele>716</ele>
        <time>2013-08-15T17:29:27.000Z</time>
        <extensions>
          <ns3:TrackPointExtension>
            <ns3:atemp>16.0</ns3:atemp>
            <ns3:hr>117</ns3:hr>
          </ns3:TrackPointExtension>
        </extensions>
      </trkpt>
      <trkpt lat="46.62379416637122631072998046875" lon="6.8645508773624897003173828125">
        <ele>716.20001220703125</ele>
        <time>2013-08-15T17:29:28.000Z</time>
        <extensions>
          <ns3:TrackPointExtension>
            <ns3:atemp>16.0</ns3:atemp>
            <ns3:hr>118</ns3:hr>
          </ns3:TrackPointExtension>
        </extensions>
      </trkpt>
      <trkpt lat="46.62382015027105808258056640625" lon="6.8645210377871990203857421875">
        <ele>716.4000244140625</ele>
        <time>2013-08-15T17:29:29.000Z</time>
        <extensions>
          <ns3:TrackPointExtension>
            <ns3:atemp>16.0</ns3:atemp>
            <ns3:hr>118</ns3:hr>
          </ns3:TrackPointExtension>
        </extensions>
      </trkpt>
      <trkpt lat="46.6238423623144626617431640625" lon="6.86449413187801837921142578125">
        <ele>716.5999755859375</ele>
        <time>2013-08-15T17:29:30.000Z</time>
        <extensions>
          <ns3:TrackPointExtension>
            <ns3:atemp>16.0</ns3:atemp>
            <ns3:hr>118</ns3:hr>
          </ns3:TrackPointExtension>
        </extensions>
      </trkpt>
      <trkpt lat="46.6238641552627086639404296875" lon="6.8644677288830280303955078125">
        <ele>717</ele>
        <time>2013-08-15T17:29:31.000Z</time>
        <extensions>
          <ns3:TrackPointExtension>
            <ns3:atemp>16.0</ns3:atemp>
            <ns3:hr>118</ns3:hr>
          </ns3:TrackPointExtension>
        </extensions>
      </trkpt>
      <trkpt lat="46.62388066761195659637451171875" lon="6.86444199644029140472412109375">
        <ele>717.4000244140625</ele>
        <time>2013-08-15T17:29:32.000Z</time>
        <extensions>
          <ns3:TrackPointExtension>
            <ns3:atemp>16.0</ns3:atemp>
            <ns3:hr>118</ns3:hr>
          </ns3:TrackPointExtension>
        </extensions>
      </trkpt>
      <trkpt lat="46.623895168304443359375" lon="6.86441618017852306365966796875">
        <ele>717.79998779296875</ele>
        <time>2013-08-15T17:29:33.000Z</time>
        <extensions>
          <ns3:TrackPointExtension>
            <ns3:atemp>16.0</ns3:atemp>
            <ns3:hr>118</ns3:hr>
          </ns3:TrackPointExtension>
        </extensions>
      </trkpt>
      <trkpt lat="46.62390665151178836822509765625" lon="6.86439120210707187652587890625">
        <ele>718</ele>
        <time>2013-08-15T17:29:34.000Z</time>
        <extensions>
          <ns3:TrackPointExtension>
            <ns3:atemp>16.0</ns3:atemp>
            <ns3:hr>118</ns3:hr>
          </ns3:TrackPointExtension>
        </extensions>
      </trkpt>
      <trkpt lat="46.6239166259765625" lon="6.864364631474018096923828125">
        <ele>718.20001220703125</ele>
        <time>2013-08-15T17:29:35.000Z</time>
        <extensions>
          <ns3:TrackPointExtension>
            <ns3:atemp>16.0</ns3:atemp>
            <ns3:hr>118</ns3:hr>
          </ns3:TrackPointExtension>
        </extensions>
      </trkpt>
      <trkpt lat="46.62392861209809780120849609375" lon="6.86433789320290088653564453125">
        <ele>718.4000244140625</ele>
        <time>2013-08-15T17:29:36.000Z</time>
        <extensions>
          <ns3:TrackPointExtension>
            <ns3:atemp>16.0</ns3:atemp>
            <ns3:hr>118</ns3:hr>
          </ns3:TrackPointExtension>
        </extensions>
      </trkpt>
      <trkpt lat="46.62393565289676189422607421875" lon="6.8643111549317836761474609375">
        <ele>718.5999755859375</ele>
        <time>2013-08-15T17:29:37.000Z</time>
        <extensions>
          <ns3:TrackPointExtension>
            <ns3:atemp>16.0</ns3:atemp>
            <ns3:hr>119</ns3:hr>
          </ns3:TrackPointExtension>
        </extensions>
      </trkpt>
      <trkpt lat="46.62394277751445770263671875" lon="6.8642918765544891357421875">
        <ele>719</ele>
        <time>2013-08-15T17:29:38.000Z</time>
        <extensions>
          <ns3:TrackPointExtension>
            <ns3:atemp>16.0</ns3:atemp>
            <ns3:hr>119</ns3:hr>
          </ns3:TrackPointExtension>
        </extensions>
      </trkpt>
      <trkpt lat="46.62394990213215351104736328125" lon="6.8642702512443065643310546875">
        <ele>719.4000244140625</ele>
        <time>2013-08-15T17:29:39.000Z</time>
        <extensions>
          <ns3:TrackPointExtension>
            <ns3:atemp>16.0</ns3:atemp>
            <ns3:hr>120</ns3:hr>
          </ns3:TrackPointExtension>
        </extensions>
      </trkpt>
      <trkpt lat="46.6239556856453418731689453125" lon="6.864249296486377716064453125">
        <ele>719.79998779296875</ele>
        <time>2013-08-15T17:29:40.000Z</time>
        <extensions>
          <ns3:TrackPointExtension>
            <ns3:atemp>16.0</ns3:atemp>
            <ns3:hr>120</ns3:hr>
          </ns3:TrackPointExtension>
        </extensions>
      </trkpt>
      <trkpt lat="46.623963899910449981689453125" lon="6.864226497709751129150390625">
        <ele>720.20001220703125</ele>
        <time>2013-08-15T17:29:41.000Z</time>
        <extensions>
          <ns3:TrackPointExtension>
            <ns3:atemp>16.0</ns3:atemp>
            <ns3:hr>121</ns3:hr>
          </ns3:TrackPointExtension>
        </extensions>
      </trkpt>
      <trkpt lat="46.62397404201328754425048828125" lon="6.864203698933124542236328125">
        <ele>720.4000244140625</ele>
        <time>2013-08-15T17:29:42.000Z</time>
        <extensions>
          <ns3:TrackPointExtension>
            <ns3:atemp>16.0</ns3:atemp>
            <ns3:hr>122</ns3:hr>
          </ns3:TrackPointExtension>
        </extensions>
      </trkpt>
      <trkpt lat="46.6239868663251399993896484375" lon="6.8641814030706882476806640625">
        <ele>721.20001220703125</ele>
        <time>2013-08-15T17:29:43.000Z</time>
        <extensions>
          <ns3:TrackPointExtension>
            <ns3:atemp>16.0</ns3:atemp>
            <ns3:hr>123</ns3:hr>
          </ns3:TrackPointExtension>
        </extensions>
      </trkpt>
      <trkpt lat="46.62400153465569019317626953125" lon="6.8641565926373004913330078125">
        <ele>721.4000244140625</ele>
        <time>2013-08-15T17:29:44.000Z</time>
        <extensions>
          <ns3:TrackPointExtension>
            <ns3:atemp>16.0</ns3:atemp>
            <ns3:hr>124</ns3:hr>
          </ns3:TrackPointExtension>
        </extensions>
      </trkpt>
      <trkpt lat="46.62402047775685787200927734375" lon="6.864131279289722442626953125">
        <ele>721.79998779296875</ele>
        <time>2013-08-15T17:29:45.000Z</time>
        <extensions>
          <ns3:TrackPointExtension>
            <ns3:atemp>16.0</ns3:atemp>
            <ns3:hr>125</ns3:hr>
          </ns3:TrackPointExtension>
        </extensions>
      </trkpt>
      <trkpt lat="46.6240381635725498199462890625" lon="6.864107809960842132568359375">
        <ele>722</ele>
        <time>2013-08-15T17:29:46.000Z</time>
        <extensions>
          <ns3:TrackPointExtension>
            <ns3:atemp>16.0</ns3:atemp>
            <ns3:hr>126</ns3:hr>
          </ns3:TrackPointExtension>
        </extensions>
      </trkpt>
      <trkpt lat="46.62405685521662235260009765625" lon="6.86408828012645244598388671875">
        <ele>722.20001220703125</ele>
        <time>2013-08-15T17:29:47.000Z</time>
        <extensions>
          <ns3:TrackPointExtension>
            <ns3:atemp>16.0</ns3:atemp>
            <ns3:hr>126</ns3:hr>
          </ns3:TrackPointExtension>
        </extensions>
      </trkpt>
      <trkpt lat="46.62407311610877513885498046875" lon="6.86406732536852359771728515625">
        <ele>722.4000244140625</ele>
        <time>2013-08-15T17:29:48.000Z</time>
        <extensions>
          <ns3:TrackPointExtension>
            <ns3:atemp>16.0</ns3:atemp>
            <ns3:hr>127</ns3:hr>
          </ns3:TrackPointExtension>
        </extensions>
      </trkpt>
      <trkpt lat="46.6240918077528476715087890625" lon="6.86404217965900897979736328125">
        <ele>722.79998779296875</ele>
        <time>2013-08-15T17:29:49.000Z</time>
        <extensions>
          <ns3:TrackPointExtension>
            <ns3:atemp>16.0</ns3:atemp>
            <ns3:hr>128</ns3:hr>
          </ns3:TrackPointExtension>
        </extensions>
      </trkpt>
      <trkpt lat="46.62410865537822246551513671875" lon="6.8640196323394775390625">
        <ele>723</ele>
        <time>2013-08-15T17:29:50.000Z</time>
        <extensions>
          <ns3:TrackPointExtension>
            <ns3:atemp>16.0</ns3:atemp>
            <ns3:hr>129</ns3:hr>
          </ns3:TrackPointExtension>
        </extensions>
      </trkpt>
      <trkpt lat="46.62412173114717006683349609375" lon="6.8640097416937351226806640625">
        <ele>723.20001220703125</ele>
        <time>2013-08-15T17:29:51.000Z</time>
        <extensions>
          <ns3:TrackPointExtension>
            <ns3:atemp>16.0</ns3:atemp>
            <ns3:hr>129</ns3:hr>
          </ns3:TrackPointExtension>
        </extensions>
      </trkpt>
      <trkpt lat="46.624137572944164276123046875" lon="6.86400353908538818359375">
        <ele>723.4000244140625</ele>
        <time>2013-08-15T17:29:52.000Z</time>
        <extensions>
          <ns3:TrackPointExtension>
            <ns3:atemp>16.0</ns3:atemp>
            <ns3:hr>130</ns3:hr>
          </ns3:TrackPointExtension>
        </extensions>
      </trkpt>
      <trkpt lat="46.6241548396646976470947265625" lon="6.8640107475221157073974609375">
        <ele>723.79998779296875</ele>
        <time>2013-08-15T17:29:53.000Z</time>
        <extensions>
          <ns3:TrackPointExtension>
            <ns3:atemp>16.0</ns3:atemp>
            <ns3:hr>131</ns3:hr>
          </ns3:TrackPointExtension>
        </extensions>
      </trkpt>
      <trkpt lat="46.62416766397655010223388671875" lon="6.86401351355016231536865234375">
        <ele>724</ele>
        <time>2013-08-15T17:29:54.000Z</time>
        <extensions>
          <ns3:TrackPointExtension>
            <ns3:atemp>16.0</ns3:atemp>
            <ns3:hr>131</ns3:hr>
          </ns3:TrackPointExtension>
        </extensions>
      </trkpt>
      <trkpt lat="46.62417906336486339569091796875" lon="6.86401418410241603851318359375">
        <ele>724.20001220703125</ele>
        <time>2013-08-15T17:29:55.000Z</time>
        <extensions>
          <ns3:TrackPointExtension>
            <ns3:atemp>16.0</ns3:atemp>
            <ns3:hr>132</ns3:hr>
          </ns3:TrackPointExtension>
        </extensions>
      </trkpt>
      <trkpt lat="46.62419666536152362823486328125" lon="6.864016950130462646484375">
        <ele>724.79998779296875</ele>
        <time>2013-08-15T17:29:56.000Z</time>
        <extensions>
          <ns3:TrackPointExtension>
            <ns3:atemp>16.0</ns3:atemp>
            <ns3:hr>132</ns3:hr>
          </ns3:TrackPointExtension>
        </extensions>
      </trkpt>
      <trkpt lat="46.62421703338623046875" lon="6.864012591540813446044921875">
        <ele>725</ele>
        <time>2013-08-15T17:29:57.000Z</time>
        <extensions>
          <ns3:TrackPointExtension>
            <ns3:atemp>16.0</ns3:atemp>
            <ns3:hr>133</ns3:hr>
          </ns3:TrackPointExtension>
        </extensions>
      </trkpt>
      <trkpt lat="46.62424444220960140228271484375" lon="6.8640050478279590606689453125">
        <ele>725.4000244140625</ele>
        <time>2013-08-15T17:29:58.000Z</time>
        <extensions>
          <ns3:TrackPointExtension>
            <ns3:atemp>16.0</ns3:atemp>
            <ns3:hr>134</ns3:hr>
          </ns3:TrackPointExtension>
        </extensions>
      </trkpt>
      <trkpt lat="46.62426673807203769683837890625" lon="6.86400412581861019134521484375">
        <ele>725.4000244140625</ele>
        <time>2013-08-15T17:29:59.000Z</time>
        <extensions>
          <ns3:TrackPointExtension>
            <ns3:atemp>16.0</ns3:atemp>
            <ns3:hr>134</ns3:hr>
          </ns3:TrackPointExtension>
        </extensions>
      </trkpt>
      <trkpt lat="46.624284088611602783203125" lon="6.86400831677019596099853515625">
        <ele>725.79998779296875</ele>
        <time>2013-08-15T17:30:00.000Z</time>
        <extensions>
          <ns3:TrackPointExtension>
            <ns3:atemp>16.0</ns3:atemp>
            <ns3:hr>135</ns3:hr>
          </ns3:TrackPointExtension>
        </extensions>
      </trkpt>
      <trkpt lat="46.624301858246326446533203125" lon="6.86401636339724063873291015625">
        <ele>726.20001220703125</ele>
        <time>2013-08-15T17:30:01.000Z</time>
        <extensions>
          <ns3:TrackPointExtension>
            <ns3:atemp>16.0</ns3:atemp>
            <ns3:hr>135</ns3:hr>
          </ns3:TrackPointExtension>
        </extensions>
      </trkpt>
      <trkpt lat="46.6243208013474941253662109375" lon="6.86402700841426849365234375">
        <ele>726.4000244140625</ele>
        <time>2013-08-15T17:30:02.000Z</time>
        <extensions>
          <ns3:TrackPointExtension>
            <ns3:atemp>16.0</ns3:atemp>
            <ns3:hr>136</ns3:hr>
          </ns3:TrackPointExtension>
        </extensions>
      </trkpt>
      <trkpt lat="46.62434033118188381195068359375" lon="6.8640305288136005401611328125">
        <ele>726.79998779296875</ele>
        <time>2013-08-15T17:30:03.000Z</time>
        <extensions>
          <ns3:TrackPointExtension>
            <ns3:atemp>16.0</ns3:atemp>
            <ns3:hr>136</ns3:hr>
          </ns3:TrackPointExtension>
        </extensions>
      </trkpt>
      <trkpt lat="46.624364219605922698974609375" lon="6.864027343690395355224609375">
        <ele>727</ele>
        <time>2013-08-15T17:30:04.000Z</time>
        <extensions>
          <ns3:TrackPointExtension>
            <ns3:atemp>16.0</ns3:atemp>
            <ns3:hr>137</ns3:hr>
          </ns3:TrackPointExtension>
        </extensions>
      </trkpt>
      <trkpt lat="46.624386347830295562744140625" lon="6.86402390711009502410888671875">
        <ele>727.20001220703125</ele>
        <time>2013-08-15T17:30:05.000Z</time>
        <extensions>
          <ns3:TrackPointExtension>
            <ns3:atemp>16.0</ns3:atemp>
            <ns3:hr>138</ns3:hr>
          </ns3:TrackPointExtension>
        </extensions>
      </trkpt>
      <trkpt lat="46.6244140081107616424560546875" lon="6.8640177883207798004150390625">
        <ele>727.5999755859375</ele>
        <time>2013-08-15T17:30:06.000Z</time>
        <extensions>
          <ns3:TrackPointExtension>
            <ns3:atemp>16.0</ns3:atemp>
            <ns3:hr>138</ns3:hr>
          </ns3:TrackPointExtension>
        </extensions>
      </trkpt>
      <trkpt lat="46.62444108165800571441650390625" lon="6.8640151061117649078369140625">
        <ele>728</ele>
        <time>2013-08-15T17:30:07.000Z</time>
        <extensions>
          <ns3:TrackPointExtension>
            <ns3:atemp>16.0</ns3:atemp>
            <ns3:hr>139</ns3:hr>
          </ns3:TrackPointExtension>
        </extensions>
      </trkpt>
      <trkpt lat="46.62447008304297924041748046875" lon="6.864011585712432861328125">
        <ele>728.4000244140625</ele>
        <time>2013-08-15T17:30:08.000Z</time>
        <extensions>
          <ns3:TrackPointExtension>
            <ns3:atemp>16.0</ns3:atemp>
            <ns3:hr>139</ns3:hr>
          </ns3:TrackPointExtension>
        </extensions>
      </trkpt>
      <trkpt lat="46.62449724040925502777099609375" lon="6.8640043772757053375244140625">
        <ele>728.5999755859375</ele>
        <time>2013-08-15T17:30:09.000Z</time>
        <extensions>
          <ns3:TrackPointExtension>
            <ns3:atemp>16.0</ns3:atemp>
            <ns3:hr>140</ns3:hr>
          </ns3:TrackPointExtension>
        </extensions>
      </trkpt>
      <trkpt lat="46.62452154792845249176025390625" lon="6.8640030361711978912353515625">
        <ele>729</ele>
        <time>2013-08-15T17:30:10.000Z</time>
        <extensions>
          <ns3:TrackPointExtension>
            <ns3:atemp>16.0</ns3:atemp>
            <ns3:hr>141</ns3:hr>
          </ns3:TrackPointExtension>
        </extensions>
      </trkpt>
      <trkpt lat="46.624544598162174224853515625" lon="6.86400278471410274505615234375">
        <ele>729.20001220703125</ele>
        <time>2013-08-15T17:30:11.000Z</time>
        <extensions>
          <ns3:TrackPointExtension>
            <ns3:atemp>16.0</ns3:atemp>
            <ns3:hr>141</ns3:hr>
          </ns3:TrackPointExtension>
        </extensions>
      </trkpt>
      <trkpt lat="46.62456831894814968109130859375" lon="6.864002533257007598876953125">
        <ele>729.5999755859375</ele>
        <time>2013-08-15T17:30:12.000Z</time>
        <extensions>
          <ns3:TrackPointExtension>
            <ns3:atemp>16.0</ns3:atemp>
            <ns3:hr>142</ns3:hr>
          </ns3:TrackPointExtension>
        </extensions>
      </trkpt>
      <trkpt lat="46.6245896928012371063232421875" lon="6.86399540863931179046630859375">
        <ele>729.79998779296875</ele>
        <time>2013-08-15T17:30:13.000Z</time>
        <extensions>
          <ns3:TrackPointExtension>
            <ns3:atemp>16.0</ns3:atemp>
            <ns3:hr>142</ns3:hr>
          </ns3:TrackPointExtension>
        </extensions>
      </trkpt>
      <trkpt lat="46.62460972554981708526611328125" lon="6.86399037949740886688232421875">
        <ele>730.20001220703125</ele>
        <time>2013-08-15T17:30:14.000Z</time>
        <extensions>
          <ns3:TrackPointExtension>
            <ns3:atemp>16.0</ns3:atemp>
            <ns3:hr>142</ns3:hr>
          </ns3:TrackPointExtension>
        </extensions>
      </trkpt>
      <trkpt lat="46.62462749518454074859619140625" lon="6.86398132704198360443115234375">
        <ele>730.4000244140625</ele>
        <time>2013-08-15T17:30:15.000Z</time>
        <extensions>
          <ns3:TrackPointExtension>
            <ns3:atemp>16.0</ns3:atemp>
            <ns3:hr>142</ns3:hr>
          </ns3:TrackPointExtension>
        </extensions>
      </trkpt>
      <trkpt lat="46.62465222179889678955078125" lon="6.8639782257378101348876953125">
        <ele>730.79998779296875</ele>
        <time>2013-08-15T17:30:16.000Z</time>
        <extensions>
          <ns3:TrackPointExtension>
            <ns3:atemp>16.0</ns3:atemp>
            <ns3:hr>143</ns3:hr>
          </ns3:TrackPointExtension>
        </extensions>
      </trkpt>
      <trkpt lat="46.62467476911842823028564453125" lon="6.8639668263494968414306640625">
        <ele>731</ele>
        <time>2013-08-15T17:30:17.000Z</time>
        <extensions>
          <ns3:TrackPointExtension>
            <ns3:atemp>16.0</ns3:atemp>
            <ns3:hr>143</ns3:hr>
          </ns3:TrackPointExtension>
        </extensions>
      </trkpt>
      <trkpt lat="46.6247010044753551483154296875" lon="6.8639611266553401947021484375">
        <ele>731.20001220703125</ele>
        <time>2013-08-15T17:30:18.000Z</time>
        <extensions>
          <ns3:TrackPointExtension>
            <ns3:atemp>16.0</ns3:atemp>
            <ns3:hr>144</ns3:hr>
          </ns3:TrackPointExtension>
        </extensions>
      </trkpt>
      <trkpt lat="46.62472464144229888916015625" lon="6.8639527447521686553955078125">
        <ele>731.5999755859375</ele>
        <time>2013-08-15T17:30:19.000Z</time>
        <extensions>
          <ns3:TrackPointExtension>
            <ns3:atemp>16.0</ns3:atemp>
            <ns3:hr>144</ns3:hr>
          </ns3:TrackPointExtension>
        </extensions>
      </trkpt>
      <trkpt lat="46.62474752403795719146728515625" lon="6.86394193209707736968994140625">
        <ele>731.79998779296875</ele>
        <time>2013-08-15T17:30:20.000Z</time>
        <extensions>
          <ns3:TrackPointExtension>
            <ns3:atemp>16.0</ns3:atemp>
            <ns3:hr>145</ns3:hr>
          </ns3:TrackPointExtension>
        </extensions>
      </trkpt>
      <trkpt lat="46.6247700713574886322021484375" lon="6.8639343045651912689208984375">
        <ele>732</ele>
        <time>2013-08-15T17:30:21.000Z</time>
        <extensions>
          <ns3:TrackPointExtension>
            <ns3:atemp>16.0</ns3:atemp>
            <ns3:hr>145</ns3:hr>
          </ns3:TrackPointExtension>
        </extensions>
      </trkpt>
      <trkpt lat="46.6247908584773540496826171875" lon="6.8639322929084300994873046875">
        <ele>732</ele>
        <time>2013-08-15T17:30:22.000Z</time>
        <extensions>
          <ns3:TrackPointExtension>
            <ns3:atemp>16.0</ns3:atemp>
            <ns3:hr>145</ns3:hr>
          </ns3:TrackPointExtension>
        </extensions>
      </trkpt>
      <trkpt lat="46.62481290288269519805908203125" lon="6.86393304727971553802490234375">
        <ele>732.20001220703125</ele>
        <time>2013-08-15T17:30:23.000Z</time>
        <extensions>
          <ns3:TrackPointExtension>
            <ns3:atemp>16.0</ns3:atemp>
            <ns3:hr>145</ns3:hr>
          </ns3:TrackPointExtension>
        </extensions>
      </trkpt>
      <trkpt lat="46.62483369000256061553955078125" lon="6.86393606476485729217529296875">
        <ele>732.4000244140625</ele>
        <time>2013-08-15T17:30:24.000Z</time>
        <extensions>
          <ns3:TrackPointExtension>
            <ns3:atemp>16.0</ns3:atemp>
            <ns3:hr>145</ns3:hr>
          </ns3:TrackPointExtension>
        </extensions>
      </trkpt>
      <trkpt lat="46.62485498003661632537841796875" lon="6.86394344083964824676513671875">
        <ele>732.4000244140625</ele>
        <time>2013-08-15T17:30:25.000Z</time>
        <extensions>
          <ns3:TrackPointExtension>
            <ns3:atemp>16.0</ns3:atemp>
            <ns3:hr>146</ns3:hr>
          </ns3:TrackPointExtension>
        </extensions>
      </trkpt>
      <trkpt lat="46.624873839318752288818359375" lon="6.863941513001918792724609375">
        <ele>732.4000244140625</ele>
        <time>2013-08-15T17:30:26.000Z</time>
        <extensions>
          <ns3:TrackPointExtension>
            <ns3:atemp>16.0</ns3:atemp>
            <ns3:hr>145</ns3:hr>
          </ns3:TrackPointExtension>
        </extensions>
      </trkpt>
      <trkpt lat="46.6248916089534759521484375" lon="6.8639386631548404693603515625">
        <ele>732.5999755859375</ele>
        <time>2013-08-15T17:30:27.000Z</time>
        <extensions>
          <ns3:TrackPointExtension>
            <ns3:atemp>16.0</ns3:atemp>
            <ns3:hr>146</ns3:hr>
          </ns3:TrackPointExtension>
        </extensions>
      </trkpt>
      <trkpt lat="46.6249115578830242156982421875" lon="6.8639423511922359466552734375">
        <ele>732.79998779296875</ele>
        <time>2013-08-15T17:30:28.000Z</time>
        <extensions>
          <ns3:TrackPointExtension>
            <ns3:atemp>16.0</ns3:atemp>
            <ns3:hr>145</ns3:hr>
          </ns3:TrackPointExtension>
        </extensions>
      </trkpt>
      <trkpt lat="46.624933518469333648681640625" lon="6.86394260264933109283447265625">
        <ele>733</ele>
        <time>2013-08-15T17:30:29.000Z</time>
        <extensions>
          <ns3:TrackPointExtension>
            <ns3:atemp>16.0</ns3:atemp>
            <ns3:hr>146</ns3:hr>
          </ns3:TrackPointExtension>
        </extensions>
      </trkpt>
      <trkpt lat="46.6249595023691654205322265625" lon="6.86394293792545795440673828125">
        <ele>733.20001220703125</ele>
        <time>2013-08-15T17:30:30.000Z</time>
        <extensions>
          <ns3:TrackPointExtension>
            <ns3:atemp>16.0</ns3:atemp>
            <ns3:hr>146</ns3:hr>
          </ns3:TrackPointExtension>
        </extensions>
      </trkpt>
      <trkpt lat="46.62498791702091693878173828125" lon="6.8639393337070941925048828125">
        <ele>733.5999755859375</ele>
        <time>2013-08-15T17:30:31.000Z</time>
        <extensions>
          <ns3:TrackPointExtension>
            <ns3:atemp>16.0</ns3:atemp>
            <ns3:hr>146</ns3:hr>
          </ns3:TrackPointExtension>
        </extensions>
      </trkpt>
      <trkpt lat="46.6250168345868587493896484375" lon="6.86394226737320423126220703125">
        <ele>733.5999755859375</ele>
        <time>2013-08-15T17:30:32.000Z</time>
        <extensions>
          <ns3:TrackPointExtension>
            <ns3:atemp>16.0</ns3:atemp>
            <ns3:hr>146</ns3:hr>
          </ns3:TrackPointExtension>
        </extensions>
      </trkpt>
      <trkpt lat="46.62504374049603939056396484375" lon="6.86394696123898029327392578125">
        <ele>733.79998779296875</ele>
        <time>2013-08-15T17:30:33.000Z</time>
        <extensions>
          <ns3:TrackPointExtension>
            <ns3:atemp>16.0</ns3:atemp>
            <ns3:hr>146</ns3:hr>
          </ns3:TrackPointExtension>
        </extensions>
      </trkpt>
      <trkpt lat="46.62506997585296630859375" lon="6.86394444666802883148193359375">
        <ele>733.79998779296875</ele>
        <time>2013-08-15T17:30:34.000Z</time>
        <extensions>
          <ns3:TrackPointExtension>
            <ns3:atemp>16.0</ns3:atemp>
            <ns3:hr>145</ns3:hr>
          </ns3:TrackPointExtension>
        </extensions>
      </trkpt>
      <trkpt lat="46.6250969655811786651611328125" lon="6.8639497272670269012451171875">
        <ele>734</ele>
        <time>2013-08-15T17:30:35.000Z</time>
        <extensions>
          <ns3:TrackPointExtension>
            <ns3:atemp>16.0</ns3:atemp>
            <ns3:hr>145</ns3:hr>
          </ns3:TrackPointExtension>
        </extensions>
      </trkpt>
      <trkpt lat="46.625127978622913360595703125" lon="6.86395467258989810943603515625">
        <ele>734.20001220703125</ele>
        <time>2013-08-15T17:30:36.000Z</time>
        <extensions>
          <ns3:TrackPointExtension>
            <ns3:atemp>16.0</ns3:atemp>
            <ns3:hr>146</ns3:hr>
          </ns3:TrackPointExtension>
        </extensions>
      </trkpt>
      <trkpt lat="46.62515555508434772491455078125" lon="6.863959617912769317626953125">
        <ele>734.4000244140625</ele>
        <time>2013-08-15T17:30:37.000Z</time>
        <extensions>
          <ns3:TrackPointExtension>
            <ns3:atemp>16.0</ns3:atemp>
            <ns3:hr>145</ns3:hr>
          </ns3:TrackPointExtension>
        </extensions>
      </trkpt>
      <trkpt lat="46.62518640048801898956298828125" lon="6.863965652883052825927734375">
        <ele>734.5999755859375</ele>
        <time>2013-08-15T17:30:38.000Z</time>
        <extensions>
          <ns3:TrackPointExtension>
            <ns3:atemp>16.0</ns3:atemp>
            <ns3:hr>145</ns3:hr>
          </ns3:TrackPointExtension>
        </extensions>
      </trkpt>
      <trkpt lat="46.625217497348785400390625" lon="6.8639681674540042877197265625">
        <ele>734.5999755859375</ele>
        <time>2013-08-15T17:30:39.000Z</time>
        <extensions>
          <ns3:TrackPointExtension>
            <ns3:atemp>16.0</ns3:atemp>
            <ns3:hr>145</ns3:hr>
          </ns3:TrackPointExtension>
        </extensions>
      </trkpt>
      <trkpt lat="46.62525010295212268829345703125" lon="6.863975711166858673095703125">
        <ele>734.79998779296875</ele>
        <time>2013-08-15T17:30:40.000Z</time>
        <extensions>
          <ns3:TrackPointExtension>
            <ns3:atemp>16.0</ns3:atemp>
            <ns3:hr>145</ns3:hr>
          </ns3:TrackPointExtension>
        </extensions>
      </trkpt>
      <trkpt lat="46.625289581716060638427734375" lon="6.86397763900458812713623046875">
        <ele>734.79998779296875</ele>
        <time>2013-08-15T17:30:41.000Z</time>
        <extensions>
          <ns3:TrackPointExtension>
            <ns3:atemp>16.0</ns3:atemp>
            <ns3:hr>145</ns3:hr>
          </ns3:TrackPointExtension>
        </extensions>
      </trkpt>
      <trkpt lat="46.62533191032707691192626953125" lon="6.86398602090775966644287109375">
        <ele>735</ele>
        <time>2013-08-15T17:30:42.000Z</time>
        <extensions>
          <ns3:TrackPointExtension>
            <ns3:atemp>16.0</ns3:atemp>
            <ns3:hr>145</ns3:hr>
          </ns3:TrackPointExtension>
        </extensions>
      </trkpt>
      <trkpt lat="46.62537038326263427734375" lon="6.86399624682962894439697265625">
        <ele>735.20001220703125</ele>
        <time>2013-08-15T17:30:43.000Z</time>
        <extensions>
          <ns3:TrackPointExtension>
            <ns3:atemp>16.0</ns3:atemp>
            <ns3:hr>145</ns3:hr>
          </ns3:TrackPointExtension>
        </extensions>
      </trkpt>
      <trkpt lat="46.62541170604526996612548828125" lon="6.86400563456118106842041015625">
        <ele>735.4000244140625</ele>
        <time>2013-08-15T17:30:44.000Z</time>
        <extensions>
          <ns3:TrackPointExtension>
            <ns3:atemp>16.0</ns3:atemp>
            <ns3:hr>145</ns3:hr>
          </ns3:TrackPointExtension>
        </extensions>
      </trkpt>
      <trkpt lat="46.62544640712440013885498046875" lon="6.86401627957820892333984375">
        <ele>735.4000244140625</ele>
        <time>2013-08-15T17:30:45.000Z</time>
        <extensions>
          <ns3:TrackPointExtension>
            <ns3:atemp>16.0</ns3:atemp>
            <ns3:hr>145</ns3:hr>
          </ns3:TrackPointExtension>
        </extensions>
      </trkpt>
      <trkpt lat="46.62548345513641834259033203125" lon="6.86402700841426849365234375">
        <ele>735.4000244140625</ele>
        <time>2013-08-15T17:30:46.000Z</time>
        <extensions>
          <ns3:TrackPointExtension>
            <ns3:atemp>16.0</ns3:atemp>
            <ns3:hr>146</ns3:hr>
          </ns3:TrackPointExtension>
        </extensions>
      </trkpt>
      <trkpt lat="46.62551547400653362274169921875" lon="6.86403773725032806396484375">
        <ele>735.4000244140625</ele>
        <time>2013-08-15T17:30:47.000Z</time>
        <extensions>
          <ns3:TrackPointExtension>
            <ns3:atemp>16.0</ns3:atemp>
            <ns3:hr>146</ns3:hr>
          </ns3:TrackPointExtension>
        </extensions>
      </trkpt>
      <trkpt lat="46.6255546174943447113037109375" lon="6.8640509806573390960693359375">
        <ele>735.5999755859375</ele>
        <time>2013-08-15T17:30:48.000Z</time>
        <extensions>
          <ns3:TrackPointExtension>
            <ns3:atemp>16.0</ns3:atemp>
            <ns3:hr>145</ns3:hr>
          </ns3:TrackPointExtension>
        </extensions>
      </trkpt>
      <trkpt lat="46.62559342570602893829345703125" lon="6.86405860818922519683837890625">
        <ele>736</ele>
        <time>2013-08-15T17:30:49.000Z</time>
        <extensions>
          <ns3:TrackPointExtension>
            <ns3:atemp>16.0</ns3:atemp>
            <ns3:hr>146</ns3:hr>
          </ns3:TrackPointExtension>
        </extensions>
      </trkpt>
      <trkpt lat="46.62562896497547626495361328125" lon="6.864061541855335235595703125">
        <ele>736.20001220703125</ele>
        <time>2013-08-15T17:30:50.000Z</time>
        <extensions>
          <ns3:TrackPointExtension>
            <ns3:atemp>16.0</ns3:atemp>
            <ns3:hr>146</ns3:hr>
          </ns3:TrackPointExtension>
        </extensions>
      </trkpt>
      <trkpt lat="46.62566517479717731475830078125" lon="6.864072270691394805908203125">
        <ele>736.4000244140625</ele>
        <time>2013-08-15T17:30:51.000Z</time>
        <extensions>
          <ns3:TrackPointExtension>
            <ns3:atemp>16.0</ns3:atemp>
            <ns3:hr>146</ns3:hr>
          </ns3:TrackPointExtension>
        </extensions>
      </trkpt>
      <trkpt lat="46.625699289143085479736328125" lon="6.86408408917486667633056640625">
        <ele>736.79998779296875</ele>
        <time>2013-08-15T17:30:52.000Z</time>
        <extensions>
          <ns3:TrackPointExtension>
            <ns3:atemp>16.0</ns3:atemp>
            <ns3:hr>145</ns3:hr>
          </ns3:TrackPointExtension>
        </extensions>
      </trkpt>
      <trkpt lat="46.62573189474642276763916015625" lon="6.86409465037286281585693359375">
        <ele>737</ele>
        <time>2013-08-15T17:30:53.000Z</time>
        <extensions>
          <ns3:TrackPointExtension>
            <ns3:atemp>16.0</ns3:atemp>
            <ns3:hr>146</ns3:hr>
          </ns3:TrackPointExtension>
        </extensions>
      </trkpt>
      <trkpt lat="46.62576575763523578643798828125" lon="6.86410118825733661651611328125">
        <ele>737.20001220703125</ele>
        <time>2013-08-15T17:30:54.000Z</time>
        <extensions>
          <ns3:TrackPointExtension>
            <ns3:atemp>16.0</ns3:atemp>
            <ns3:hr>146</ns3:hr>
          </ns3:TrackPointExtension>
        </extensions>
      </trkpt>
      <trkpt lat="46.625799871981143951416015625" lon="6.8641099892556667327880859375">
        <ele>737.4000244140625</ele>
        <time>2013-08-15T17:30:55.000Z</time>
        <extensions>
          <ns3:TrackPointExtension>
            <ns3:atemp>16.0</ns3:atemp>
            <ns3:hr>145</ns3:hr>
          </ns3:TrackPointExtension>
        </extensions>
      </trkpt>
      <trkpt lat="46.625836081802845001220703125" lon="6.86411845497786998748779296875">
        <ele>737.4000244140625</ele>
        <time>2013-08-15T17:30:56.000Z</time>
        <extensions>
          <ns3:TrackPointExtension>
            <ns3:atemp>16.0</ns3:atemp>
            <ns3:hr>146</ns3:hr>
          </ns3:TrackPointExtension>
        </extensions>
      </trkpt>
      <trkpt lat="46.625871956348419189453125" lon="6.86412893235683441162109375">
        <ele>737.79998779296875</ele>
        <time>2013-08-15T17:30:57.000Z</time>
        <extensions>
          <ns3:TrackPointExtension>
            <ns3:atemp>16.0</ns3:atemp>
            <ns3:hr>146</ns3:hr>
          </ns3:TrackPointExtension>
        </extensions>
      </trkpt>
      <trkpt lat="46.62590405903756618499755859375" lon="6.86414058320224285125732421875">
        <ele>737.79998779296875</ele>
        <time>2013-08-15T17:30:58.000Z</time>
        <extensions>
          <ns3:TrackPointExtension>
            <ns3:atemp>16.0</ns3:atemp>
            <ns3:hr>146</ns3:hr>
          </ns3:TrackPointExtension>
        </extensions>
      </trkpt>
      <trkpt lat="46.62593758665025234222412109375" lon="6.8641468696296215057373046875">
        <ele>737.79998779296875</ele>
        <time>2013-08-15T17:30:59.000Z</time>
        <extensions>
          <ns3:TrackPointExtension>
            <ns3:atemp>16.0</ns3:atemp>
            <ns3:hr>146</ns3:hr>
          </ns3:TrackPointExtension>
        </extensions>
      </trkpt>
      <trkpt lat="46.62597496993839740753173828125" lon="6.8641552515327930450439453125">
        <ele>738</ele>
        <time>2013-08-15T17:31:00.000Z</time>
        <extensions>
          <ns3:TrackPointExtension>
            <ns3:atemp>16.0</ns3:atemp>
            <ns3:hr>146</ns3:hr>
          </ns3:TrackPointExtension>
        </extensions>
      </trkpt>
      <trkpt lat="46.62601050920784473419189453125" lon="6.86416757293045520782470703125">
        <ele>738.20001220703125</ele>
        <time>2013-08-15T17:31:01.000Z</time>
        <extensions>
          <ns3:TrackPointExtension>
            <ns3:atemp>16.0</ns3:atemp>
            <ns3:hr>146</ns3:hr>
          </ns3:TrackPointExtension>
        </extensions>
      </trkpt>
      <trkpt lat="46.62604956887662410736083984375" lon="6.86417746357619762420654296875">
        <ele>738.20001220703125</ele>
        <time>2013-08-15T17:31:02.000Z</time>
        <extensions>
          <ns3:TrackPointExtension>
            <ns3:atemp>16.0</ns3:atemp>
            <ns3:hr>146</ns3:hr>
          </ns3:TrackPointExtension>
        </extensions>
      </trkpt>
      <trkpt lat="46.6260850243270397186279296875" lon="6.8641926348209381103515625">
        <ele>738.4000244140625</ele>
        <time>2013-08-15T17:31:03.000Z</time>
        <extensions>
          <ns3:TrackPointExtension>
            <ns3:atemp>16.0</ns3:atemp>
            <ns3:hr>145</ns3:hr>
          </ns3:TrackPointExtension>
        </extensions>
      </trkpt>
      <trkpt lat="46.62611930631101131439208984375" lon="6.8641995079815387725830078125">
        <ele>738.4000244140625</ele>
        <time>2013-08-15T17:31:04.000Z</time>
        <extensions>
          <ns3:TrackPointExtension>
            <ns3:atemp>16.0</ns3:atemp>
            <ns3:hr>145</ns3:hr>
          </ns3:TrackPointExtension>
        </extensions>
      </trkpt>
      <trkpt lat="46.626151241362094879150390625" lon="6.8641995079815387725830078125">
        <ele>738.5999755859375</ele>
        <time>2013-08-15T17:31:05.000Z</time>
        <extensions>
          <ns3:TrackPointExtension>
            <ns3:atemp>16.0</ns3:atemp>
            <ns3:hr>145</ns3:hr>
          </ns3:TrackPointExtension>
        </extensions>
      </trkpt>
      <trkpt lat="46.62618451751768589019775390625" lon="6.8642025254666805267333984375">
        <ele>739</ele>
        <time>2013-08-15T17:31:06.000Z</time>
        <extensions>
          <ns3:TrackPointExtension>
            <ns3:atemp>16.0</ns3:atemp>
            <ns3:hr>146</ns3:hr>
          </ns3:TrackPointExtension>
        </extensions>
      </trkpt>
      <trkpt lat="46.62621502764523029327392578125" lon="6.8642087280750274658203125">
        <ele>739.4000244140625</ele>
        <time>2013-08-15T17:31:07.000Z</time>
        <extensions>
          <ns3:TrackPointExtension>
            <ns3:atemp>16.0</ns3:atemp>
            <ns3:hr>146</ns3:hr>
          </ns3:TrackPointExtension>
        </extensions>
      </trkpt>
      <trkpt lat="46.62625207565724849700927734375" lon="6.86421685852110385894775390625">
        <ele>739.5999755859375</ele>
        <time>2013-08-15T17:31:08.000Z</time>
        <extensions>
          <ns3:TrackPointExtension>
            <ns3:atemp>16.0</ns3:atemp>
            <ns3:hr>145</ns3:hr>
          </ns3:TrackPointExtension>
        </extensions>
      </trkpt>
      <trkpt lat="46.626288034021854400634765625" lon="6.86421954073011875152587890625">
        <ele>739.79998779296875</ele>
        <time>2013-08-15T17:31:09.000Z</time>
        <extensions>
          <ns3:TrackPointExtension>
            <ns3:atemp>16.0</ns3:atemp>
            <ns3:hr>146</ns3:hr>
          </ns3:TrackPointExtension>
        </extensions>
      </trkpt>
      <trkpt lat="46.62631896324455738067626953125" lon="6.8642172776162624359130859375">
        <ele>739.79998779296875</ele>
        <time>2013-08-15T17:31:10.000Z</time>
        <extensions>
          <ns3:TrackPointExtension>
            <ns3:atemp>16.0</ns3:atemp>
            <ns3:hr>145</ns3:hr>
          </ns3:TrackPointExtension>
        </extensions>
      </trkpt>
      <trkpt lat="46.6263472102582454681396484375" lon="6.86421400867402553558349609375">
        <ele>739.79998779296875</ele>
        <time>2013-08-15T17:31:11.000Z</time>
        <extensions>
          <ns3:TrackPointExtension>
            <ns3:atemp>16.0</ns3:atemp>
            <ns3:hr>145</ns3:hr>
          </ns3:TrackPointExtension>
        </extensions>
      </trkpt>
      <trkpt lat="46.626371853053569793701171875" lon="6.86420805752277374267578125">
        <ele>740</ele>
        <time>2013-08-15T17:31:12.000Z</time>
        <extensions>
          <ns3:TrackPointExtension>
            <ns3:atemp>16.0</ns3:atemp>
            <ns3:hr>146</ns3:hr>
          </ns3:TrackPointExtension>
        </extensions>
      </trkpt>
      <trkpt lat="46.62639959715306758880615234375" lon="6.86420110054314136505126953125">
        <ele>740</ele>
        <time>2013-08-15T17:31:13.000Z</time>
        <extensions>
          <ns3:TrackPointExtension>
            <ns3:atemp>16.0</ns3:atemp>
            <ns3:hr>146</ns3:hr>
          </ns3:TrackPointExtension>
        </extensions>
      </trkpt>
      <trkpt lat="46.62642910145223140716552734375" lon="6.8641887791454792022705078125">
        <ele>740.4000244140625</ele>
        <time>2013-08-15T17:31:14.000Z</time>
        <extensions>
          <ns3:TrackPointExtension>
            <ns3:atemp>16.0</ns3:atemp>
            <ns3:hr>146</ns3:hr>
          </ns3:TrackPointExtension>
        </extensions>
      </trkpt>
      <trkpt lat="46.62646212615072727203369140625" lon="6.864178217947483062744140625">
        <ele>740.5999755859375</ele>
        <time>2013-08-15T17:31:15.000Z</time>
        <extensions>
          <ns3:TrackPointExtension>
            <ns3:atemp>16.0</ns3:atemp>
            <ns3:hr>146</ns3:hr>
          </ns3:TrackPointExtension>
        </extensions>
      </trkpt>
      <trkpt lat="46.62649095989763736724853515625" lon="6.8641663156449794769287109375">
        <ele>740.79998779296875</ele>
        <time>2013-08-15T17:31:16.000Z</time>
        <extensions>
          <ns3:TrackPointExtension>
            <ns3:atemp>16.0</ns3:atemp>
            <ns3:hr>146</ns3:hr>
          </ns3:TrackPointExtension>
        </extensions>
      </trkpt>
      <trkpt lat="46.62651543505489826202392578125" lon="6.86415818519890308380126953125">
        <ele>741</ele>
        <time>2013-08-15T17:31:17.000Z</time>
        <extensions>
          <ns3:TrackPointExtension>
            <ns3:atemp>16.0</ns3:atemp>
            <ns3:hr>146</ns3:hr>
          </ns3:TrackPointExtension>
        </extensions>
      </trkpt>
      <trkpt lat="46.626537479460239410400390625" lon="6.86414427123963832855224609375">
        <ele>741</ele>
        <time>2013-08-15T17:31:18.000Z</time>
        <extensions>
          <ns3:TrackPointExtension>
            <ns3:atemp>16.0</ns3:atemp>
            <ns3:hr>146</ns3:hr>
          </ns3:TrackPointExtension>
        </extensions>
      </trkpt>
      <trkpt lat="46.6265651397407054901123046875" lon="6.86412801034748554229736328125">
        <ele>741.20001220703125</ele>
        <time>2013-08-15T17:31:19.000Z</time>
        <extensions>
          <ns3:TrackPointExtension>
            <ns3:atemp>16.0</ns3:atemp>
            <ns3:hr>146</ns3:hr>
          </ns3:TrackPointExtension>
        </extensions>
      </trkpt>
      <trkpt lat="46.6265902854502201080322265625" lon="6.8641160242259502410888671875">
        <ele>741.5999755859375</ele>
        <time>2013-08-15T17:31:20.000Z</time>
        <extensions>
          <ns3:TrackPointExtension>
            <ns3:atemp>16.0</ns3:atemp>
            <ns3:hr>146</ns3:hr>
          </ns3:TrackPointExtension>
        </extensions>
      </trkpt>
      <trkpt lat="46.62661953829228878021240234375" lon="6.86410018242895603179931640625">
        <ele>741.79998779296875</ele>
        <time>2013-08-15T17:31:21.000Z</time>
        <extensions>
          <ns3:TrackPointExtension>
            <ns3:atemp>16.0</ns3:atemp>
            <ns3:hr>146</ns3:hr>
          </ns3:TrackPointExtension>
        </extensions>
      </trkpt>
      <trkpt lat="46.6266466118395328521728515625" lon="6.8640853464603424072265625">
        <ele>742.20001220703125</ele>
        <time>2013-08-15T17:31:22.000Z</time>
        <extensions>
          <ns3:TrackPointExtension>
            <ns3:atemp>16.0</ns3:atemp>
            <ns3:hr>147</ns3:hr>
          </ns3:TrackPointExtension>
        </extensions>
      </trkpt>
      <trkpt lat="46.62666899152100086212158203125" lon="6.86406992375850677490234375">
        <ele>742.4000244140625</ele>
        <time>2013-08-15T17:31:23.000Z</time>
        <extensions>
          <ns3:TrackPointExtension>
            <ns3:atemp>16.0</ns3:atemp>
            <ns3:hr>147</ns3:hr>
          </ns3:TrackPointExtension>
        </extensions>
      </trkpt>
      <trkpt lat="46.62669564597308635711669921875" lon="6.864056847989559173583984375">
        <ele>742.4000244140625</ele>
        <time>2013-08-15T17:31:24.000Z</time>
        <extensions>
          <ns3:TrackPointExtension>
            <ns3:atemp>16.0</ns3:atemp>
            <ns3:hr>147</ns3:hr>
          </ns3:TrackPointExtension>
        </extensions>
      </trkpt>
      <trkpt lat="46.62671911530196666717529296875" lon="6.86404645442962646484375">
        <ele>742.79998779296875</ele>
        <time>2013-08-15T17:31:25.000Z</time>
        <extensions>
          <ns3:TrackPointExtension>
            <ns3:atemp>16.0</ns3:atemp>
            <ns3:hr>147</ns3:hr>
          </ns3:TrackPointExtension>
        </extensions>
      </trkpt>
      <trkpt lat="46.626741327345371246337890625" lon="6.8640368990600109100341796875">
        <ele>743</ele>
        <time>2013-08-15T17:31:26.000Z</time>
        <extensions>
          <ns3:TrackPointExtension>
            <ns3:atemp>16.0</ns3:atemp>
            <ns3:hr>147</ns3:hr>
          </ns3:TrackPointExtension>
        </extensions>
      </trkpt>
      <trkpt lat="46.62676538340747356414794921875" lon="6.86402776278555393218994140625">
        <ele>743.20001220703125</ele>
        <time>2013-08-15T17:31:27.000Z</time>
        <extensions>
          <ns3:TrackPointExtension>
            <ns3:atemp>16.0</ns3:atemp>
            <ns3:hr>147</ns3:hr>
          </ns3:TrackPointExtension>
        </extensions>
      </trkpt>
      <trkpt lat="46.62679371424019336700439453125" lon="6.8640204705297946929931640625">
        <ele>743.4000244140625</ele>
        <time>2013-08-15T17:31:28.000Z</time>
        <extensions>
          <ns3:TrackPointExtension>
            <ns3:atemp>16.0</ns3:atemp>
            <ns3:hr>147</ns3:hr>
          </ns3:TrackPointExtension>
        </extensions>
      </trkpt>
      <trkpt lat="46.62682221271097660064697265625" lon="6.86401502229273319244384765625">
        <ele>743.5999755859375</ele>
        <time>2013-08-15T17:31:29.000Z</time>
        <extensions>
          <ns3:TrackPointExtension>
            <ns3:atemp>16.0</ns3:atemp>
            <ns3:hr>147</ns3:hr>
          </ns3:TrackPointExtension>
        </extensions>
      </trkpt>
      <trkpt lat="46.6268467716872692108154296875" lon="6.86401217244565486907958984375">
        <ele>744</ele>
        <time>2013-08-15T17:31:30.000Z</time>
        <extensions>
          <ns3:TrackPointExtension>
            <ns3:atemp>16.0</ns3:atemp>
            <ns3:hr>148</ns3:hr>
          </ns3:TrackPointExtension>
        </extensions>
      </trkpt>
      <trkpt lat="46.6268712468445301055908203125" lon="6.8640043772757053375244140625">
        <ele>744</ele>
        <time>2013-08-15T17:31:31.000Z</time>
        <extensions>
          <ns3:TrackPointExtension>
            <ns3:atemp>16.0</ns3:atemp>
            <ns3:hr>147</ns3:hr>
          </ns3:TrackPointExtension>
        </extensions>
      </trkpt>
      <trkpt lat="46.626896895468235015869140625" lon="6.8640023656189441680908203125">
        <ele>744.20001220703125</ele>
        <time>2013-08-15T17:31:32.000Z</time>
        <extensions>
          <ns3:TrackPointExtension>
            <ns3:atemp>16.0</ns3:atemp>
            <ns3:hr>147</ns3:hr>
          </ns3:TrackPointExtension>
        </extensions>
      </trkpt>
      <trkpt lat="46.62692497484385967254638671875" lon="6.86400018632411956787109375">
        <ele>744.4000244140625</ele>
        <time>2013-08-15T17:31:33.000Z</time>
        <extensions>
          <ns3:TrackPointExtension>
            <ns3:atemp>16.0</ns3:atemp>
            <ns3:hr>147</ns3:hr>
          </ns3:TrackPointExtension>
        </extensions>
      </trkpt>
      <trkpt lat="46.6269542276859283447265625" lon="6.86398945748805999755859375">
        <ele>744.5999755859375</ele>
        <time>2013-08-15T17:31:34.000Z</time>
        <extensions>
          <ns3:TrackPointExtension>
            <ns3:atemp>16.0</ns3:atemp>
            <ns3:hr>147</ns3:hr>
          </ns3:TrackPointExtension>
        </extensions>
      </trkpt>
      <trkpt lat="46.62698398344218730926513671875" lon="6.86398166231811046600341796875">
        <ele>744.79998779296875</ele>
        <time>2013-08-15T17:31:35.000Z</time>
        <extensions>
          <ns3:TrackPointExtension>
            <ns3:atemp>16.0</ns3:atemp>
            <ns3:hr>147</ns3:hr>
          </ns3:TrackPointExtension>
        </extensions>
      </trkpt>
      <trkpt lat="46.62701533176004886627197265625" lon="6.863973699510097503662109375">
        <ele>745</ele>
        <time>2013-08-15T17:31:36.000Z</time>
        <extensions>
          <ns3:TrackPointExtension>
            <ns3:atemp>16.0</ns3:atemp>
            <ns3:hr>147</ns3:hr>
          </ns3:TrackPointExtension>
        </extensions>
      </trkpt>
      <trkpt lat="46.6270489431917667388916015625" lon="6.86396908946335315704345703125">
        <ele>745.20001220703125</ele>
        <time>2013-08-15T17:31:37.000Z</time>
        <extensions>
          <ns3:TrackPointExtension>
            <ns3:atemp>16.0</ns3:atemp>
            <ns3:hr>146</ns3:hr>
          </ns3:TrackPointExtension>
        </extensions>
      </trkpt>
      <trkpt lat="46.62708171643316745758056640625" lon="6.863960959017276763916015625">
        <ele>745.20001220703125</ele>
        <time>2013-08-15T17:31:38.000Z</time>
        <extensions>
          <ns3:TrackPointExtension>
            <ns3:atemp>16.0</ns3:atemp>
            <ns3:hr>146</ns3:hr>
          </ns3:TrackPointExtension>
        </extensions>
      </trkpt>
      <trkpt lat="46.627114154398441314697265625" lon="6.8639524094760417938232421875">
        <ele>745.5999755859375</ele>
        <time>2013-08-15T17:31:39.000Z</time>
        <extensions>
          <ns3:TrackPointExtension>
            <ns3:atemp>16.0</ns3:atemp>
            <ns3:hr>146</ns3:hr>
          </ns3:TrackPointExtension>
        </extensions>
      </trkpt>
      <trkpt lat="46.62714667618274688720703125" lon="6.86394545249640941619873046875">
        <ele>745.79998779296875</ele>
        <time>2013-08-15T17:31:40.000Z</time>
        <extensions>
          <ns3:TrackPointExtension>
            <ns3:atemp>16.0</ns3:atemp>
            <ns3:hr>146</ns3:hr>
          </ns3:TrackPointExtension>
        </extensions>
      </trkpt>
      <trkpt lat="46.62718112580478191375732421875" lon="6.86392751522362232208251953125">
        <ele>745.5999755859375</ele>
        <time>2013-08-15T17:31:41.000Z</time>
        <extensions>
          <ns3:TrackPointExtension>
            <ns3:atemp>15.0</ns3:atemp>
            <ns3:hr>146</ns3:hr>
          </ns3:TrackPointExtension>
        </extensions>
      </trkpt>
      <trkpt lat="46.62721917964518070220947265625" lon="6.863917373120784759521484375">
        <ele>745.5999755859375</ele>
        <time>2013-08-15T17:31:42.000Z</time>
        <extensions>
          <ns3:TrackPointExtension>
            <ns3:atemp>15.0</ns3:atemp>
            <ns3:hr>146</ns3:hr>
          </ns3:TrackPointExtension>
        </extensions>
      </trkpt>
      <trkpt lat="46.62725237198173999786376953125" lon="6.86391443945467472076416015625">
        <ele>745.5999755859375</ele>
        <time>2013-08-15T17:31:43.000Z</time>
        <extensions>
          <ns3:TrackPointExtension>
            <ns3:atemp>15.0</ns3:atemp>
            <ns3:hr>146</ns3:hr>
          </ns3:TrackPointExtension>
        </extensions>
      </trkpt>
      <trkpt lat="46.627285815775394439697265625" lon="6.86390723101794719696044921875">
        <ele>745.79998779296875</ele>
        <time>2013-08-15T17:31:44.000Z</time>
        <extensions>
          <ns3:TrackPointExtension>
            <ns3:atemp>15.0</ns3:atemp>
            <ns3:hr>146</ns3:hr>
          </ns3:TrackPointExtension>
        </extensions>
      </trkpt>
      <trkpt lat="46.62731833755970001220703125" lon="6.863895244896411895751953125">
        <ele>746.20001220703125</ele>
        <time>2013-08-15T17:31:45.000Z</time>
        <extensions>
          <ns3:TrackPointExtension>
            <ns3:atemp>15.0</ns3:atemp>
            <ns3:hr>146</ns3:hr>
          </ns3:TrackPointExtension>
        </extensions>
      </trkpt>
      <trkpt lat="46.62734960205852985382080078125" lon="6.86387806199491024017333984375">
        <ele>746.4000244140625</ele>
        <time>2013-08-15T17:31:46.000Z</time>
        <extensions>
          <ns3:TrackPointExtension>
            <ns3:atemp>15.0</ns3:atemp>
            <ns3:hr>146</ns3:hr>
          </ns3:TrackPointExtension>
        </extensions>
      </trkpt>
      <trkpt lat="46.62737893871963024139404296875" lon="6.86386582441627979278564453125">
        <ele>746.5999755859375</ele>
        <time>2013-08-15T17:31:47.000Z</time>
        <extensions>
          <ns3:TrackPointExtension>
            <ns3:atemp>15.0</ns3:atemp>
            <ns3:hr>146</ns3:hr>
          </ns3:TrackPointExtension>
        </extensions>
      </trkpt>
      <trkpt lat="46.6274086944758892059326171875" lon="6.86385811306536197662353515625">
        <ele>746.5999755859375</ele>
        <time>2013-08-15T17:31:48.000Z</time>
        <extensions>
          <ns3:TrackPointExtension>
            <ns3:atemp>15.0</ns3:atemp>
            <ns3:hr>146</ns3:hr>
          </ns3:TrackPointExtension>
        </extensions>
      </trkpt>
      <trkpt lat="46.62744113244116306304931640625" lon="6.863852329552173614501953125">
        <ele>747</ele>
        <time>2013-08-15T17:31:49.000Z</time>
        <extensions>
          <ns3:TrackPointExtension>
            <ns3:atemp>15.0</ns3:atemp>
            <ns3:hr>146</ns3:hr>
          </ns3:TrackPointExtension>
        </extensions>
      </trkpt>
      <trkpt lat="46.62747482769191265106201171875" lon="6.8638407625257968902587890625">
        <ele>747.20001220703125</ele>
        <time>2013-08-15T17:31:50.000Z</time>
        <extensions>
          <ns3:TrackPointExtension>
            <ns3:atemp>15.0</ns3:atemp>
            <ns3:hr>146</ns3:hr>
          </ns3:TrackPointExtension>
        </extensions>
      </trkpt>
      <trkpt lat="46.62750768475234508514404296875" lon="6.86383045278489589691162109375">
        <ele>747.4000244140625</ele>
        <time>2013-08-15T17:31:51.000Z</time>
        <extensions>
          <ns3:TrackPointExtension>
            <ns3:atemp>15.0</ns3:atemp>
            <ns3:hr>146</ns3:hr>
          </ns3:TrackPointExtension>
        </extensions>
      </trkpt>
      <trkpt lat="46.627534925937652587890625" lon="6.86381603591144084930419921875">
        <ele>747.4000244140625</ele>
        <time>2013-08-15T17:31:52.000Z</time>
        <extensions>
          <ns3:TrackPointExtension>
            <ns3:atemp>15.0</ns3:atemp>
            <ns3:hr>146</ns3:hr>
          </ns3:TrackPointExtension>
        </extensions>
      </trkpt>
      <trkpt lat="46.6275572218000888824462890625" lon="6.86381268315017223358154296875">
        <ele>747.79998779296875</ele>
        <time>2013-08-15T17:31:53.000Z</time>
        <extensions>
          <ns3:TrackPointExtension>
            <ns3:atemp>15.0</ns3:atemp>
            <ns3:hr>146</ns3:hr>
          </ns3:TrackPointExtension>
        </extensions>
      </trkpt>
      <trkpt lat="46.62757943384349346160888671875" lon="6.863809414207935333251953125">
        <ele>748</ele>
        <time>2013-08-15T17:31:54.000Z</time>
        <extensions>
          <ns3:TrackPointExtension>
            <ns3:atemp>15.0</ns3:atemp>
            <ns3:hr>146</ns3:hr>
          </ns3:TrackPointExtension>
        </extensions>
      </trkpt>
      <trkpt lat="46.62760156206786632537841796875" lon="6.86379876919090747833251953125">
        <ele>748.4000244140625</ele>
        <time>2013-08-15T17:31:55.000Z</time>
        <extensions>
          <ns3:TrackPointExtension>
            <ns3:atemp>15.0</ns3:atemp>
            <ns3:hr>146</ns3:hr>
          </ns3:TrackPointExtension>
        </extensions>
      </trkpt>
      <trkpt lat="46.62762117572128772735595703125" lon="6.86377949081361293792724609375">
        <ele>748.5999755859375</ele>
        <time>2013-08-15T17:31:56.000Z</time>
        <extensions>
          <ns3:TrackPointExtension>
            <ns3:atemp>15.0</ns3:atemp>
            <ns3:hr>146</ns3:hr>
          </ns3:TrackPointExtension>
        </extensions>
      </trkpt>
      <trkpt lat="46.62764129228889942169189453125" lon="6.86376423574984073638916015625">
        <ele>748.79998779296875</ele>
        <time>2013-08-15T17:31:57.000Z</time>
        <extensions>
          <ns3:TrackPointExtension>
            <ns3:atemp>15.0</ns3:atemp>
            <ns3:hr>146</ns3:hr>
          </ns3:TrackPointExtension>
        </extensions>
      </trkpt>
      <trkpt lat="46.6276581399142742156982421875" lon="6.86374680139124393463134765625">
        <ele>749</ele>
        <time>2013-08-15T17:31:58.000Z</time>
        <extensions>
          <ns3:TrackPointExtension>
            <ns3:atemp>15.0</ns3:atemp>
            <ns3:hr>146</ns3:hr>
          </ns3:TrackPointExtension>
        </extensions>
      </trkpt>
      <trkpt lat="46.62767834030091762542724609375" lon="6.86372584663331508636474609375">
        <ele>749.20001220703125</ele>
        <time>2013-08-15T17:31:59.000Z</time>
        <extensions>
          <ns3:TrackPointExtension>
            <ns3:atemp>15.0</ns3:atemp>
            <ns3:hr>146</ns3:hr>
          </ns3:TrackPointExtension>
        </extensions>
      </trkpt>
      <trkpt lat="46.62769921123981475830078125" lon="6.8637093342840671539306640625">
        <ele>749.20001220703125</ele>
        <time>2013-08-15T17:32:00.000Z</time>
        <extensions>
          <ns3:TrackPointExtension>
            <ns3:atemp>15.0</ns3:atemp>
            <ns3:hr>147</ns3:hr>
          </ns3:TrackPointExtension>
        </extensions>
      </trkpt>
      <trkpt lat="46.627718321979045867919921875" lon="6.863695420324802398681640625">
        <ele>749.4000244140625</ele>
        <time>2013-08-15T17:32:01.000Z</time>
        <extensions>
          <ns3:TrackPointExtension>
            <ns3:atemp>15.0</ns3:atemp>
            <ns3:hr>147</ns3:hr>
          </ns3:TrackPointExtension>
        </extensions>
      </trkpt>
      <trkpt lat="46.62773734889924526214599609375" lon="6.86368628405034542083740234375">
        <ele>749.79998779296875</ele>
        <time>2013-08-15T17:32:02.000Z</time>
        <extensions>
          <ns3:TrackPointExtension>
            <ns3:atemp>15.0</ns3:atemp>
            <ns3:hr>148</ns3:hr>
          </ns3:TrackPointExtension>
        </extensions>
      </trkpt>
      <trkpt lat="46.62775662727653980255126953125" lon="6.86367739923298358917236328125">
        <ele>750.20001220703125</ele>
        <time>2013-08-15T17:32:03.000Z</time>
        <extensions>
          <ns3:TrackPointExtension>
            <ns3:atemp>15.0</ns3:atemp>
            <ns3:hr>148</ns3:hr>
          </ns3:TrackPointExtension>
        </extensions>
      </trkpt>
      <trkpt lat="46.6277821920812129974365234375" lon="6.863661222159862518310546875">
        <ele>750.4000244140625</ele>
        <time>2013-08-15T17:32:04.000Z</time>
        <extensions>
          <ns3:TrackPointExtension>
            <ns3:atemp>15.0</ns3:atemp>
            <ns3:hr>148</ns3:hr>
          </ns3:TrackPointExtension>
        </extensions>
      </trkpt>
      <trkpt lat="46.6278096847236156463623046875" lon="6.863647811114788055419921875">
        <ele>750.5999755859375</ele>
        <time>2013-08-15T17:32:05.000Z</time>
        <extensions>
          <ns3:TrackPointExtension>
            <ns3:atemp>15.0</ns3:atemp>
            <ns3:hr>148</ns3:hr>
          </ns3:TrackPointExtension>
        </extensions>
      </trkpt>
      <trkpt lat="46.6278355009853839874267578125" lon="6.863633058965206146240234375">
        <ele>750.79998779296875</ele>
        <time>2013-08-15T17:32:06.000Z</time>
        <extensions>
          <ns3:TrackPointExtension>
            <ns3:atemp>15.0</ns3:atemp>
            <ns3:hr>147</ns3:hr>
          </ns3:TrackPointExtension>
        </extensions>
      </trkpt>
      <trkpt lat="46.62786106579005718231201171875" lon="6.86362442560493946075439453125">
        <ele>751.20001220703125</ele>
        <time>2013-08-15T17:32:07.000Z</time>
        <extensions>
          <ns3:TrackPointExtension>
            <ns3:atemp>15.0</ns3:atemp>
            <ns3:hr>148</ns3:hr>
          </ns3:TrackPointExtension>
        </extensions>
      </trkpt>
      <trkpt lat="46.62788696587085723876953125" lon="6.8636164627969264984130859375">
        <ele>751.4000244140625</ele>
        <time>2013-08-15T17:32:08.000Z</time>
        <extensions>
          <ns3:TrackPointExtension>
            <ns3:atemp>15.0</ns3:atemp>
            <ns3:hr>147</ns3:hr>
          </ns3:TrackPointExtension>
        </extensions>
      </trkpt>
      <trkpt lat="46.62791236303746700286865234375" lon="6.8636110983788967132568359375">
        <ele>751.5999755859375</ele>
        <time>2013-08-15T17:32:09.000Z</time>
        <extensions>
          <ns3:TrackPointExtension>
            <ns3:atemp>15.0</ns3:atemp>
            <ns3:hr>147</ns3:hr>
          </ns3:TrackPointExtension>
        </extensions>
      </trkpt>
      <trkpt lat="46.6279458068311214447021484375" lon="6.863604225218296051025390625">
        <ele>751.79998779296875</ele>
        <time>2013-08-15T17:32:10.000Z</time>
        <extensions>
          <ns3:TrackPointExtension>
            <ns3:atemp>15.0</ns3:atemp>
            <ns3:hr>147</ns3:hr>
          </ns3:TrackPointExtension>
        </extensions>
      </trkpt>
      <trkpt lat="46.6279786638915538787841796875" lon="6.86359441839158535003662109375">
        <ele>752</ele>
        <time>2013-08-15T17:32:11.000Z</time>
        <extensions>
          <ns3:TrackPointExtension>
            <ns3:atemp>15.0</ns3:atemp>
            <ns3:hr>147</ns3:hr>
          </ns3:TrackPointExtension>
        </extensions>
      </trkpt>
      <trkpt lat="46.62800825200974941253662109375" lon="6.86358687467873096466064453125">
        <ele>752.20001220703125</ele>
        <time>2013-08-15T17:32:12.000Z</time>
        <extensions>
          <ns3:TrackPointExtension>
            <ns3:atemp>15.0</ns3:atemp>
            <ns3:hr>147</ns3:hr>
          </ns3:TrackPointExtension>
        </extensions>
      </trkpt>
      <trkpt lat="46.62803624756634235382080078125" lon="6.86359575949609279632568359375">
        <ele>752.20001220703125</ele>
        <time>2013-08-15T17:32:13.000Z</time>
        <extensions>
          <ns3:TrackPointExtension>
            <ns3:atemp>15.0</ns3:atemp>
            <ns3:hr>147</ns3:hr>
          </ns3:TrackPointExtension>
        </extensions>
      </trkpt>
      <trkpt lat="46.6280638240277767181396484375" lon="6.86359793879091739654541015625">
        <ele>752.4000244140625</ele>
        <time>2013-08-15T17:32:14.000Z</time>
        <extensions>
          <ns3:TrackPointExtension>
            <ns3:atemp>15.0</ns3:atemp>
            <ns3:hr>146</ns3:hr>
          </ns3:TrackPointExtension>
        </extensions>
      </trkpt>
      <trkpt lat="46.62809425033628940582275390625" lon="6.86359743587672710418701171875">
        <ele>752.4000244140625</ele>
        <time>2013-08-15T17:32:15.000Z</time>
        <extensions>
          <ns3:TrackPointExtension>
            <ns3:atemp>15.0</ns3:atemp>
            <ns3:hr>146</ns3:hr>
          </ns3:TrackPointExtension>
        </extensions>
      </trkpt>
      <trkpt lat="46.62812794558703899383544921875" lon="6.8635904788970947265625">
        <ele>752.5999755859375</ele>
        <time>2013-08-15T17:32:16.000Z</time>
        <extensions>
          <ns3:TrackPointExtension>
            <ns3:atemp>15.0</ns3:atemp>
            <ns3:hr>146</ns3:hr>
          </ns3:TrackPointExtension>
        </extensions>
      </trkpt>
      <trkpt lat="46.628157198429107666015625" lon="6.86358176171779632568359375">
        <ele>752.5999755859375</ele>
        <time>2013-08-15T17:32:17.000Z</time>
        <extensions>
          <ns3:TrackPointExtension>
            <ns3:atemp>15.0</ns3:atemp>
            <ns3:hr>146</ns3:hr>
          </ns3:TrackPointExtension>
        </extensions>
      </trkpt>
      <trkpt lat="46.62818871438503265380859375" lon="6.863569356501102447509765625">
        <ele>752.79998779296875</ele>
        <time>2013-08-15T17:32:18.000Z</time>
        <extensions>
          <ns3:TrackPointExtension>
            <ns3:atemp>15.0</ns3:atemp>
            <ns3:hr>146</ns3:hr>
          </ns3:TrackPointExtension>
        </extensions>
      </trkpt>
      <trkpt lat="46.62821679376065731048583984375" lon="6.863566339015960693359375">
        <ele>753</ele>
        <time>2013-08-15T17:32:19.000Z</time>
        <extensions>
          <ns3:TrackPointExtension>
            <ns3:atemp>15.0</ns3:atemp>
            <ns3:hr>146</ns3:hr>
          </ns3:TrackPointExtension>
        </extensions>
      </trkpt>
      <trkpt lat="46.6282443702220916748046875" lon="6.863557286560535430908203125">
        <ele>753</ele>
        <time>2013-08-15T17:32:20.000Z</time>
        <extensions>
          <ns3:TrackPointExtension>
            <ns3:atemp>15.0</ns3:atemp>
            <ns3:hr>146</ns3:hr>
          </ns3:TrackPointExtension>
        </extensions>
      </trkpt>
      <trkpt lat="46.62827731110155582427978515625" lon="6.86354982666671276092529296875">
        <ele>753.20001220703125</ele>
        <time>2013-08-15T17:32:21.000Z</time>
        <extensions>
          <ns3:TrackPointExtension>
            <ns3:atemp>15.0</ns3:atemp>
            <ns3:hr>146</ns3:hr>
          </ns3:TrackPointExtension>
        </extensions>
      </trkpt>
      <trkpt lat="46.6283095814287662506103515625" lon="6.863540522754192352294921875">
        <ele>753.20001220703125</ele>
        <time>2013-08-15T17:32:22.000Z</time>
        <extensions>
          <ns3:TrackPointExtension>
            <ns3:atemp>15.0</ns3:atemp>
            <ns3:hr>146</ns3:hr>
          </ns3:TrackPointExtension>
        </extensions>
      </trkpt>
      <trkpt lat="46.62834788672626018524169921875" lon="6.8635299615561962127685546875">
        <ele>753.20001220703125</ele>
        <time>2013-08-15T17:32:23.000Z</time>
        <extensions>
          <ns3:TrackPointExtension>
            <ns3:atemp>15.0</ns3:atemp>
            <ns3:hr>145</ns3:hr>
          </ns3:TrackPointExtension>
        </extensions>
      </trkpt>
      <trkpt lat="46.62838677875697612762451171875" lon="6.863519735634326934814453125">
        <ele>753.20001220703125</ele>
        <time>2013-08-15T17:32:24.000Z</time>
        <extensions>
          <ns3:TrackPointExtension>
            <ns3:atemp>15.0</ns3:atemp>
            <ns3:hr>145</ns3:hr>
          </ns3:TrackPointExtension>
        </extensions>
      </trkpt>
      <trkpt lat="46.6284267604351043701171875" lon="6.86351680196821689605712890625">
        <ele>753.4000244140625</ele>
        <time>2013-08-15T17:32:25.000Z</time>
        <extensions>
          <ns3:TrackPointExtension>
            <ns3:atemp>15.0</ns3:atemp>
            <ns3:hr>145</ns3:hr>
          </ns3:TrackPointExtension>
        </extensions>
      </trkpt>
      <trkpt lat="46.6284651495516300201416015625" lon="6.86351646669209003448486328125">
        <ele>753.5999755859375</ele>
        <time>2013-08-15T17:32:26.000Z</time>
        <extensions>
          <ns3:TrackPointExtension>
            <ns3:atemp>15.0</ns3:atemp>
            <ns3:hr>144</ns3:hr>
          </ns3:TrackPointExtension>
        </extensions>
      </trkpt>
      <trkpt lat="46.62850429303944110870361328125" lon="6.86351948417723178863525390625">
        <ele>753.5999755859375</ele>
        <time>2013-08-15T17:32:27.000Z</time>
        <extensions>
          <ns3:TrackPointExtension>
            <ns3:atemp>15.0</ns3:atemp>
            <ns3:hr>144</ns3:hr>
          </ns3:TrackPointExtension>
        </extensions>
      </trkpt>
      <trkpt lat="46.62855022586882114410400390625" lon="6.8635292910039424896240234375">
        <ele>753.79998779296875</ele>
        <time>2013-08-15T17:32:28.000Z</time>
        <extensions>
          <ns3:TrackPointExtension>
            <ns3:atemp>15.0</ns3:atemp>
            <ns3:hr>144</ns3:hr>
          </ns3:TrackPointExtension>
        </extensions>
      </trkpt>
      <trkpt lat="46.6285930573940277099609375" lon="6.8635366670787334442138671875">
        <ele>753.79998779296875</ele>
        <time>2013-08-15T17:32:29.000Z</time>
        <extensions>
          <ns3:TrackPointExtension>
            <ns3:atemp>15.0</ns3:atemp>
            <ns3:hr>144</ns3:hr>
          </ns3:TrackPointExtension>
        </extensions>
      </trkpt>
      <trkpt lat="46.62864007987082004547119140625" lon="6.86353524215519428253173828125">
        <ele>754</ele>
        <time>2013-08-15T17:32:30.000Z</time>
        <extensions>
          <ns3:TrackPointExtension>
            <ns3:atemp>15.0</ns3:atemp>
            <ns3:hr>143</ns3:hr>
          </ns3:TrackPointExtension>
        </extensions>
      </trkpt>
      <trkpt lat="46.62868198938667774200439453125" lon="6.86353038065135478973388671875">
        <ele>754.5999755859375</ele>
        <time>2013-08-15T17:32:31.000Z</time>
        <extensions>
          <ns3:TrackPointExtension>
            <ns3:atemp>15.0</ns3:atemp>
            <ns3:hr>143</ns3:hr>
          </ns3:TrackPointExtension>
        </extensions>
      </trkpt>
      <trkpt lat="46.6287223063409328460693359375" lon="6.8635316379368305206298828125">
        <ele>755</ele>
        <time>2013-08-15T17:32:32.000Z</time>
        <extensions>
          <ns3:TrackPointExtension>
            <ns3:atemp>15.0</ns3:atemp>
            <ns3:hr>144</ns3:hr>
          </ns3:TrackPointExtension>
        </extensions>
      </trkpt>
      <trkpt lat="46.62876195274293422698974609375" lon="6.863528788089752197265625">
        <ele>755</ele>
        <time>2013-08-15T17:32:33.000Z</time>
        <extensions>
          <ns3:TrackPointExtension>
            <ns3:atemp>15.0</ns3:atemp>
            <ns3:hr>144</ns3:hr>
          </ns3:TrackPointExtension>
        </extensions>
      </trkpt>
      <trkpt lat="46.6288014315068721771240234375" lon="6.8635274469852447509765625">
        <ele>755</ele>
        <time>2013-08-15T17:32:34.000Z</time>
        <extensions>
          <ns3:TrackPointExtension>
            <ns3:atemp>15.0</ns3:atemp>
            <ns3:hr>144</ns3:hr>
          </ns3:TrackPointExtension>
        </extensions>
      </trkpt>
      <trkpt lat="46.62883806042373180389404296875" lon="6.86352686025202274322509765625">
        <ele>755.20001220703125</ele>
        <time>2013-08-15T17:32:35.000Z</time>
        <extensions>
          <ns3:TrackPointExtension>
            <ns3:atemp>15.0</ns3:atemp>
            <ns3:hr>144</ns3:hr>
          </ns3:TrackPointExtension>
        </extensions>
      </trkpt>
      <trkpt lat="46.62887477315962314605712890625" lon="6.863521076738834381103515625">
        <ele>755.5999755859375</ele>
        <time>2013-08-15T17:32:36.000Z</time>
        <extensions>
          <ns3:TrackPointExtension>
            <ns3:atemp>15.0</ns3:atemp>
            <ns3:hr>144</ns3:hr>
          </ns3:TrackPointExtension>
        </extensions>
      </trkpt>
      <trkpt lat="46.6289087198674678802490234375" lon="6.8635155446827411651611328125">
        <ele>755.79998779296875</ele>
        <time>2013-08-15T17:32:37.000Z</time>
        <extensions>
          <ns3:TrackPointExtension>
            <ns3:atemp>15.0</ns3:atemp>
            <ns3:hr>145</ns3:hr>
          </ns3:TrackPointExtension>
        </extensions>
      </trkpt>
      <trkpt lat="46.6289419122040271759033203125" lon="6.86351512558758258819580078125">
        <ele>755.79998779296875</ele>
        <time>2013-08-15T17:32:38.000Z</time>
        <extensions>
          <ns3:TrackPointExtension>
            <ns3:atemp>15.0</ns3:atemp>
            <ns3:hr>144</ns3:hr>
          </ns3:TrackPointExtension>
        </extensions>
      </trkpt>
      <trkpt lat="46.62897267378866672515869140625" lon="6.8635158799588680267333984375">
        <ele>755.79998779296875</ele>
        <time>2013-08-15T17:32:39.000Z</time>
        <extensions>
          <ns3:TrackPointExtension>
            <ns3:atemp>15.0</ns3:atemp>
            <ns3:hr>144</ns3:hr>
          </ns3:TrackPointExtension>
        </extensions>
      </trkpt>
      <trkpt lat="46.62900888361036777496337890625" lon="6.863521747291088104248046875">
        <ele>755.79998779296875</ele>
        <time>2013-08-15T17:32:40.000Z</time>
        <extensions>
          <ns3:TrackPointExtension>
            <ns3:atemp>15.0</ns3:atemp>
            <ns3:hr>144</ns3:hr>
          </ns3:TrackPointExtension>
        </extensions>
      </trkpt>
      <trkpt lat="46.6290401481091976165771484375" lon="6.86352618969976902008056640625">
        <ele>755.79998779296875</ele>
        <time>2013-08-15T17:32:41.000Z</time>
        <extensions>
          <ns3:TrackPointExtension>
            <ns3:atemp>15.0</ns3:atemp>
            <ns3:hr>144</ns3:hr>
          </ns3:TrackPointExtension>
        </extensions>
      </trkpt>
      <trkpt lat="46.6290699876844882965087890625" lon="6.863528788089752197265625">
        <ele>755.79998779296875</ele>
        <time>2013-08-15T17:32:42.000Z</time>
        <extensions>
          <ns3:TrackPointExtension>
            <ns3:atemp>15.0</ns3:atemp>
            <ns3:hr>144</ns3:hr>
          </ns3:TrackPointExtension>
        </extensions>
      </trkpt>
      <trkpt lat="46.629117093980312347412109375" lon="6.8635309673845767974853515625">
        <ele>755.79998779296875</ele>
        <time>2013-08-15T17:32:43.000Z</time>
        <extensions>
          <ns3:TrackPointExtension>
            <ns3:atemp>15.0</ns3:atemp>
            <ns3:hr>144</ns3:hr>
          </ns3:TrackPointExtension>
        </extensions>
      </trkpt>
      <trkpt lat="46.62916948087513446807861328125" lon="6.863535828888416290283203125">
        <ele>756</ele>
        <time>2013-08-15T17:32:44.000Z</time>
        <extensions>
          <ns3:TrackPointExtension>
            <ns3:atemp>15.0</ns3:atemp>
            <ns3:hr>144</ns3:hr>
          </ns3:TrackPointExtension>
        </extensions>
      </trkpt>
      <trkpt lat="46.62922379560768604278564453125" lon="6.8635443784296512603759765625">
        <ele>756.20001220703125</ele>
        <time>2013-08-15T17:32:45.000Z</time>
        <extensions>
          <ns3:TrackPointExtension>
            <ns3:atemp>15.0</ns3:atemp>
            <ns3:hr>145</ns3:hr>
          </ns3:TrackPointExtension>
        </extensions>
      </trkpt>
      <trkpt lat="46.6292855702340602874755859375" lon="6.86354295350611209869384765625">
        <ele>756.4000244140625</ele>
        <time>2013-08-15T17:32:46.000Z</time>
        <extensions>
          <ns3:TrackPointExtension>
            <ns3:atemp>15.0</ns3:atemp>
            <ns3:hr>145</ns3:hr>
          </ns3:TrackPointExtension>
        </extensions>
      </trkpt>
      <trkpt lat="46.62933812476694583892822265625" lon="6.863546557724475860595703125">
        <ele>756.4000244140625</ele>
        <time>2013-08-15T17:32:47.000Z</time>
        <extensions>
          <ns3:TrackPointExtension>
            <ns3:atemp>15.0</ns3:atemp>
            <ns3:hr>145</ns3:hr>
          </ns3:TrackPointExtension>
        </extensions>
      </trkpt>
      <trkpt lat="46.62939277477562427520751953125" lon="6.86355435289442539215087890625">
        <ele>756.4000244140625</ele>
        <time>2013-08-15T17:32:48.000Z</time>
        <extensions>
          <ns3:TrackPointExtension>
            <ns3:atemp>15.0</ns3:atemp>
            <ns3:hr>145</ns3:hr>
          </ns3:TrackPointExtension>
        </extensions>
      </trkpt>
      <trkpt lat="46.6294481791555881500244140625" lon="6.86356307007372379302978515625">
        <ele>756.20001220703125</ele>
        <time>2013-08-15T17:32:49.000Z</time>
        <extensions>
          <ns3:TrackPointExtension>
            <ns3:atemp>15.0</ns3:atemp>
            <ns3:hr>145</ns3:hr>
          </ns3:TrackPointExtension>
        </extensions>
      </trkpt>
      <trkpt lat="46.6294984705746173858642578125" lon="6.863577067852020263671875">
        <ele>756.4000244140625</ele>
        <time>2013-08-15T17:32:50.000Z</time>
        <extensions>
          <ns3:TrackPointExtension>
            <ns3:atemp>15.0</ns3:atemp>
            <ns3:hr>145</ns3:hr>
          </ns3:TrackPointExtension>
        </extensions>
      </trkpt>
      <trkpt lat="46.62954851053655147552490234375" lon="6.86357681639492511749267578125">
        <ele>756.20001220703125</ele>
        <time>2013-08-15T17:32:51.000Z</time>
        <extensions>
          <ns3:TrackPointExtension>
            <ns3:atemp>15.0</ns3:atemp>
            <ns3:hr>144</ns3:hr>
          </ns3:TrackPointExtension>
        </extensions>
      </trkpt>
      <trkpt lat="46.629593186080455780029296875" lon="6.86356441117823123931884765625">
        <ele>756.4000244140625</ele>
        <time>2013-08-15T17:32:52.000Z</time>
        <extensions>
          <ns3:TrackPointExtension>
            <ns3:atemp>15.0</ns3:atemp>
            <ns3:hr>144</ns3:hr>
          </ns3:TrackPointExtension>
        </extensions>
      </trkpt>
      <trkpt lat="46.62963174283504486083984375" lon="6.86354848556220531463623046875">
        <ele>756.20001220703125</ele>
        <time>2013-08-15T17:32:53.000Z</time>
        <extensions>
          <ns3:TrackPointExtension>
            <ns3:atemp>15.0</ns3:atemp>
            <ns3:hr>144</ns3:hr>
          </ns3:TrackPointExtension>
        </extensions>
      </trkpt>
      <trkpt lat="46.62966166622936725616455078125" lon="6.86353960074484348297119140625">
        <ele>756.4000244140625</ele>
        <time>2013-08-15T17:32:54.000Z</time>
        <extensions>
          <ns3:TrackPointExtension>
            <ns3:atemp>15.0</ns3:atemp>
            <ns3:hr>144</ns3:hr>
          </ns3:TrackPointExtension>
        </extensions>
      </trkpt>
      <trkpt lat="46.6297029890120029449462890625" lon="6.86352702789008617401123046875">
        <ele>756.5999755859375</ele>
        <time>2013-08-15T17:32:55.000Z</time>
        <extensions>
          <ns3:TrackPointExtension>
            <ns3:atemp>15.0</ns3:atemp>
            <ns3:hr>144</ns3:hr>
          </ns3:TrackPointExtension>
        </extensions>
      </trkpt>
      <trkpt lat="46.62974213249981403350830078125" lon="6.86351311393082141876220703125">
        <ele>756.5999755859375</ele>
        <time>2013-08-15T17:32:56.000Z</time>
        <extensions>
          <ns3:TrackPointExtension>
            <ns3:atemp>15.0</ns3:atemp>
            <ns3:hr>144</ns3:hr>
          </ns3:TrackPointExtension>
        </extensions>
      </trkpt>
      <trkpt lat="46.62979309447109699249267578125" lon="6.86350188218057155609130859375">
        <ele>757</ele>
        <time>2013-08-15T17:32:57.000Z</time>
        <extensions>
          <ns3:TrackPointExtension>
            <ns3:atemp>15.0</ns3:atemp>
            <ns3:hr>143</ns3:hr>
          </ns3:TrackPointExtension>
        </extensions>
      </trkpt>
      <trkpt lat="46.62984522990882396697998046875" lon="6.8634950928390026092529296875">
        <ele>757</ele>
        <time>2013-08-15T17:32:58.000Z</time>
        <extensions>
          <ns3:TrackPointExtension>
            <ns3:atemp>15.0</ns3:atemp>
            <ns3:hr>143</ns3:hr>
          </ns3:TrackPointExtension>
        </extensions>
      </trkpt>
      <trkpt lat="46.629887558519840240478515625" lon="6.8634857051074504852294921875">
        <ele>757.20001220703125</ele>
        <time>2013-08-15T17:32:59.000Z</time>
        <extensions>
          <ns3:TrackPointExtension>
            <ns3:atemp>15.0</ns3:atemp>
            <ns3:hr>143</ns3:hr>
          </ns3:TrackPointExtension>
        </extensions>
      </trkpt>
      <trkpt lat="46.6299363411962985992431640625" lon="6.86347455717623233795166015625">
        <ele>757.20001220703125</ele>
        <time>2013-08-15T17:33:00.000Z</time>
        <extensions>
          <ns3:TrackPointExtension>
            <ns3:atemp>15.0</ns3:atemp>
            <ns3:hr>143</ns3:hr>
          </ns3:TrackPointExtension>
        </extensions>
      </trkpt>
      <trkpt lat="46.6299785859882831573486328125" lon="6.86346776783466339111328125">
        <ele>757.20001220703125</ele>
        <time>2013-08-15T17:33:01.000Z</time>
        <extensions>
          <ns3:TrackPointExtension>
            <ns3:atemp>15.0</ns3:atemp>
            <ns3:hr>142</ns3:hr>
          </ns3:TrackPointExtension>
        </extensions>
      </trkpt>
      <trkpt lat="46.63002200424671173095703125" lon="6.86345879919826984405517578125">
        <ele>757.4000244140625</ele>
        <time>2013-08-15T17:33:02.000Z</time>
        <extensions>
          <ns3:TrackPointExtension>
            <ns3:atemp>15.0</ns3:atemp>
            <ns3:hr>143</ns3:hr>
          </ns3:TrackPointExtension>
        </extensions>
      </trkpt>
      <trkpt lat="46.63006735034286975860595703125" lon="6.86344957910478115081787109375">
        <ele>757.5999755859375</ele>
        <time>2013-08-15T17:33:03.000Z</time>
        <extensions>
          <ns3:TrackPointExtension>
            <ns3:atemp>15.0</ns3:atemp>
            <ns3:hr>143</ns3:hr>
          </ns3:TrackPointExtension>
        </extensions>
      </trkpt>
      <trkpt lat="46.6301049850881099700927734375" lon="6.863439939916133880615234375">
        <ele>757.5999755859375</ele>
        <time>2013-08-15T17:33:04.000Z</time>
        <extensions>
          <ns3:TrackPointExtension>
            <ns3:atemp>15.0</ns3:atemp>
            <ns3:hr>142</ns3:hr>
          </ns3:TrackPointExtension>
        </extensions>
      </trkpt>
      <trkpt lat="46.63014094345271587371826171875" lon="6.86342485249042510986328125">
        <ele>757.79998779296875</ele>
        <time>2013-08-15T17:33:05.000Z</time>
        <extensions>
          <ns3:TrackPointExtension>
            <ns3:atemp>15.0</ns3:atemp>
            <ns3:hr>143</ns3:hr>
          </ns3:TrackPointExtension>
        </extensions>
      </trkpt>
      <trkpt lat="46.63017564453184604644775390625" lon="6.8634109385311603546142578125">
        <ele>758</ele>
        <time>2013-08-15T17:33:06.000Z</time>
        <extensions>
          <ns3:TrackPointExtension>
            <ns3:atemp>15.0</ns3:atemp>
            <ns3:hr>143</ns3:hr>
          </ns3:TrackPointExtension>
        </extensions>
      </trkpt>
      <trkpt lat="46.63020883686840534210205078125" lon="6.8633992038667201995849609375">
        <ele>758</ele>
        <time>2013-08-15T17:33:07.000Z</time>
        <extensions>
          <ns3:TrackPointExtension>
            <ns3:atemp>15.0</ns3:atemp>
            <ns3:hr>143</ns3:hr>
          </ns3:TrackPointExtension>
        </extensions>
      </trkpt>
      <trkpt lat="46.63024622015655040740966796875" lon="6.8633834458887577056884765625">
        <ele>758.20001220703125</ele>
        <time>2013-08-15T17:33:08.000Z</time>
        <extensions>
          <ns3:TrackPointExtension>
            <ns3:atemp>15.0</ns3:atemp>
            <ns3:hr>143</ns3:hr>
          </ns3:TrackPointExtension>
        </extensions>
      </trkpt>
      <trkpt lat="46.63028217852115631103515625" lon="6.86337296850979328155517578125">
        <ele>758.20001220703125</ele>
        <time>2013-08-15T17:33:09.000Z</time>
        <extensions>
          <ns3:TrackPointExtension>
            <ns3:atemp>15.0</ns3:atemp>
            <ns3:hr>143</ns3:hr>
          </ns3:TrackPointExtension>
        </extensions>
      </trkpt>
      <trkpt lat="46.63031629286706447601318359375" lon="6.8633666820824146270751953125">
        <ele>758.4000244140625</ele>
        <time>2013-08-15T17:33:10.000Z</time>
        <extensions>
          <ns3:TrackPointExtension>
            <ns3:atemp>15.0</ns3:atemp>
            <ns3:hr>143</ns3:hr>
          </ns3:TrackPointExtension>
        </extensions>
      </trkpt>
      <trkpt lat="46.63034965284168720245361328125" lon="6.86335377395153045654296875">
        <ele>758.5999755859375</ele>
        <time>2013-08-15T17:33:11.000Z</time>
        <extensions>
          <ns3:TrackPointExtension>
            <ns3:atemp>15.0</ns3:atemp>
            <ns3:hr>143</ns3:hr>
          </ns3:TrackPointExtension>
        </extensions>
      </trkpt>
      <trkpt lat="46.63038485683500766754150390625" lon="6.86334094963967800140380859375">
        <ele>758.79998779296875</ele>
        <time>2013-08-15T17:33:12.000Z</time>
        <extensions>
          <ns3:TrackPointExtension>
            <ns3:atemp>15.0</ns3:atemp>
            <ns3:hr>143</ns3:hr>
          </ns3:TrackPointExtension>
        </extensions>
      </trkpt>
      <trkpt lat="46.63041763007640838623046875" lon="6.86332955025136470794677734375">
        <ele>759</ele>
        <time>2013-08-15T17:33:13.000Z</time>
        <extensions>
          <ns3:TrackPointExtension>
            <ns3:atemp>15.0</ns3:atemp>
            <ns3:hr>143</ns3:hr>
          </ns3:TrackPointExtension>
        </extensions>
      </trkpt>
      <trkpt lat="46.6304439492523670196533203125" lon="6.863321922719478607177734375">
        <ele>759.20001220703125</ele>
        <time>2013-08-15T17:33:14.000Z</time>
        <extensions>
          <ns3:TrackPointExtension>
            <ns3:atemp>15.0</ns3:atemp>
            <ns3:hr>143</ns3:hr>
          </ns3:TrackPointExtension>
        </extensions>
      </trkpt>
      <trkpt lat="46.63047370500862598419189453125" lon="6.86331689357757568359375">
        <ele>759.4000244140625</ele>
        <time>2013-08-15T17:33:15.000Z</time>
        <extensions>
          <ns3:TrackPointExtension>
            <ns3:atemp>15.0</ns3:atemp>
            <ns3:hr>143</ns3:hr>
          </ns3:TrackPointExtension>
        </extensions>
      </trkpt>
      <trkpt lat="46.63050748407840728759765625" lon="6.863309182226657867431640625">
        <ele>759.5999755859375</ele>
        <time>2013-08-15T17:33:16.000Z</time>
        <extensions>
          <ns3:TrackPointExtension>
            <ns3:atemp>15.0</ns3:atemp>
            <ns3:hr>144</ns3:hr>
          </ns3:TrackPointExtension>
        </extensions>
      </trkpt>
      <trkpt lat="46.630538664758205413818359375" lon="6.86330339871346950531005859375">
        <ele>759.5999755859375</ele>
        <time>2013-08-15T17:33:17.000Z</time>
        <extensions>
          <ns3:TrackPointExtension>
            <ns3:atemp>15.0</ns3:atemp>
            <ns3:hr>144</ns3:hr>
          </ns3:TrackPointExtension>
        </extensions>
      </trkpt>
      <trkpt lat="46.6305653192102909088134765625" lon="6.8633026443421840667724609375">
        <ele>759.79998779296875</ele>
        <time>2013-08-15T17:33:18.000Z</time>
        <extensions>
          <ns3:TrackPointExtension>
            <ns3:atemp>15.0</ns3:atemp>
            <ns3:hr>144</ns3:hr>
          </ns3:TrackPointExtension>
        </extensions>
      </trkpt>
      <trkpt lat="46.630592308938503265380859375" lon="6.86329602263867855072021484375">
        <ele>760.4000244140625</ele>
        <time>2013-08-15T17:33:19.000Z</time>
        <extensions>
          <ns3:TrackPointExtension>
            <ns3:atemp>15.0</ns3:atemp>
            <ns3:hr>144</ns3:hr>
          </ns3:TrackPointExtension>
        </extensions>
      </trkpt>
      <trkpt lat="46.63062424398958683013916015625" lon="6.8632949329912662506103515625">
        <ele>760.5999755859375</ele>
        <time>2013-08-15T17:33:20.000Z</time>
        <extensions>
          <ns3:TrackPointExtension>
            <ns3:atemp>15.0</ns3:atemp>
            <ns3:hr>144</ns3:hr>
          </ns3:TrackPointExtension>
        </extensions>
      </trkpt>
      <trkpt lat="46.63065433502197265625" lon="6.86329602263867855072021484375">
        <ele>761</ele>
        <time>2013-08-15T17:33:21.000Z</time>
        <extensions>
          <ns3:TrackPointExtension>
            <ns3:atemp>15.0</ns3:atemp>
            <ns3:hr>144</ns3:hr>
          </ns3:TrackPointExtension>
        </extensions>
      </trkpt>
      <trkpt lat="46.630684845149517059326171875" lon="6.8632994592189788818359375">
        <ele>761</ele>
        <time>2013-08-15T17:33:22.000Z</time>
        <extensions>
          <ns3:TrackPointExtension>
            <ns3:atemp>15.0</ns3:atemp>
            <ns3:hr>144</ns3:hr>
          </ns3:TrackPointExtension>
        </extensions>
      </trkpt>
      <trkpt lat="46.6307200491428375244140625" lon="6.8632899038493633270263671875">
        <ele>761.4000244140625</ele>
        <time>2013-08-15T17:33:23.000Z</time>
        <extensions>
          <ns3:TrackPointExtension>
            <ns3:atemp>15.0</ns3:atemp>
            <ns3:hr>145</ns3:hr>
          </ns3:TrackPointExtension>
        </extensions>
      </trkpt>
      <trkpt lat="46.630760617554187774658203125" lon="6.86328277923166751861572265625">
        <ele>761.4000244140625</ele>
        <time>2013-08-15T17:33:24.000Z</time>
        <extensions>
          <ns3:TrackPointExtension>
            <ns3:atemp>15.0</ns3:atemp>
            <ns3:hr>145</ns3:hr>
          </ns3:TrackPointExtension>
        </extensions>
      </trkpt>
      <trkpt lat="46.63080680184066295623779296875" lon="6.8632825277745723724365234375">
        <ele>761.5999755859375</ele>
        <time>2013-08-15T17:33:25.000Z</time>
        <extensions>
          <ns3:TrackPointExtension>
            <ns3:atemp>15.0</ns3:atemp>
            <ns3:hr>145</ns3:hr>
          </ns3:TrackPointExtension>
        </extensions>
      </trkpt>
      <trkpt lat="46.63085072301328182220458984375" lon="6.8632855452597141265869140625">
        <ele>761.79998779296875</ele>
        <time>2013-08-15T17:33:26.000Z</time>
        <extensions>
          <ns3:TrackPointExtension>
            <ns3:atemp>15.0</ns3:atemp>
            <ns3:hr>145</ns3:hr>
          </ns3:TrackPointExtension>
        </extensions>
      </trkpt>
      <trkpt lat="46.6308938898146152496337890625" lon="6.86329686082899570465087890625">
        <ele>762</ele>
        <time>2013-08-15T17:33:27.000Z</time>
        <extensions>
          <ns3:TrackPointExtension>
            <ns3:atemp>15.0</ns3:atemp>
            <ns3:hr>145</ns3:hr>
          </ns3:TrackPointExtension>
        </extensions>
      </trkpt>
      <trkpt lat="46.63094074465334415435791015625" lon="6.86328764073550701141357421875">
        <ele>762</ele>
        <time>2013-08-15T17:33:28.000Z</time>
        <extensions>
          <ns3:TrackPointExtension>
            <ns3:atemp>15.0</ns3:atemp>
            <ns3:hr>145</ns3:hr>
          </ns3:TrackPointExtension>
        </extensions>
      </trkpt>
      <trkpt lat="46.630984246730804443359375" lon="6.86327825300395488739013671875">
        <ele>762.20001220703125</ele>
        <time>2013-08-15T17:33:29.000Z</time>
        <extensions>
          <ns3:TrackPointExtension>
            <ns3:atemp>15.0</ns3:atemp>
            <ns3:hr>145</ns3:hr>
          </ns3:TrackPointExtension>
        </extensions>
      </trkpt>
      <trkpt lat="46.63102540187537670135498046875" lon="6.86327272094786167144775390625">
        <ele>762.20001220703125</ele>
        <time>2013-08-15T17:33:30.000Z</time>
        <extensions>
          <ns3:TrackPointExtension>
            <ns3:atemp>15.0</ns3:atemp>
            <ns3:hr>144</ns3:hr>
          </ns3:TrackPointExtension>
        </extensions>
      </trkpt>
      <trkpt lat="46.63106345571577548980712890625" lon="6.8632654286921024322509765625">
        <ele>762.4000244140625</ele>
        <time>2013-08-15T17:33:31.000Z</time>
        <extensions>
          <ns3:TrackPointExtension>
            <ns3:atemp>15.0</ns3:atemp>
            <ns3:hr>144</ns3:hr>
          </ns3:TrackPointExtension>
        </extensions>
      </trkpt>
      <trkpt lat="46.63109983317553997039794921875" lon="6.863263584673404693603515625">
        <ele>762.5999755859375</ele>
        <time>2013-08-15T17:33:32.000Z</time>
        <extensions>
          <ns3:TrackPointExtension>
            <ns3:atemp>15.0</ns3:atemp>
            <ns3:hr>144</ns3:hr>
          </ns3:TrackPointExtension>
        </extensions>
      </trkpt>
      <trkpt lat="46.63113336078822612762451171875" lon="6.863255202770233154296875">
        <ele>762.79998779296875</ele>
        <time>2013-08-15T17:33:33.000Z</time>
        <extensions>
          <ns3:TrackPointExtension>
            <ns3:atemp>15.0</ns3:atemp>
            <ns3:hr>144</ns3:hr>
          </ns3:TrackPointExtension>
        </extensions>
      </trkpt>
      <trkpt lat="46.63116370327770709991455078125" lon="6.86324606649577617645263671875">
        <ele>763.20001220703125</ele>
        <time>2013-08-15T17:33:34.000Z</time>
        <extensions>
          <ns3:TrackPointExtension>
            <ns3:atemp>15.0</ns3:atemp>
            <ns3:hr>144</ns3:hr>
          </ns3:TrackPointExtension>
        </extensions>
      </trkpt>
      <trkpt lat="46.6311956383287906646728515625" lon="6.8632362596690654754638671875">
        <ele>763.4000244140625</ele>
        <time>2013-08-15T17:33:35.000Z</time>
        <extensions>
          <ns3:TrackPointExtension>
            <ns3:atemp>15.0</ns3:atemp>
            <ns3:hr>144</ns3:hr>
          </ns3:TrackPointExtension>
        </extensions>
      </trkpt>
      <trkpt lat="46.63122899830341339111328125" lon="6.863222680985927581787109375">
        <ele>763.5999755859375</ele>
        <time>2013-08-15T17:33:36.000Z</time>
        <extensions>
          <ns3:TrackPointExtension>
            <ns3:atemp>15.0</ns3:atemp>
            <ns3:hr>144</ns3:hr>
          </ns3:TrackPointExtension>
        </extensions>
      </trkpt>
      <trkpt lat="46.6312623582780361175537109375" lon="6.86320533044636249542236328125">
        <ele>763.79998779296875</ele>
        <time>2013-08-15T17:33:37.000Z</time>
        <extensions>
          <ns3:TrackPointExtension>
            <ns3:atemp>15.0</ns3:atemp>
            <ns3:hr>145</ns3:hr>
          </ns3:TrackPointExtension>
        </extensions>
      </trkpt>
      <trkpt lat="46.6312952153384685516357421875" lon="6.863187812268733978271484375">
        <ele>763.79998779296875</ele>
        <time>2013-08-15T17:33:38.000Z</time>
        <extensions>
          <ns3:TrackPointExtension>
            <ns3:atemp>15.0</ns3:atemp>
            <ns3:hr>145</ns3:hr>
          </ns3:TrackPointExtension>
        </extensions>
      </trkpt>
      <trkpt lat="46.6313277371227741241455078125" lon="6.86317414976656436920166015625">
        <ele>764</ele>
        <time>2013-08-15T17:33:39.000Z</time>
        <extensions>
          <ns3:TrackPointExtension>
            <ns3:atemp>15.0</ns3:atemp>
            <ns3:hr>144</ns3:hr>
          </ns3:TrackPointExtension>
        </extensions>
      </trkpt>
      <trkpt lat="46.63136520422995090484619140625" lon="6.86316610313951969146728515625">
        <ele>764</ele>
        <time>2013-08-15T17:33:40.000Z</time>
        <extensions>
          <ns3:TrackPointExtension>
            <ns3:atemp>15.0</ns3:atemp>
            <ns3:hr>144</ns3:hr>
          </ns3:TrackPointExtension>
        </extensions>
      </trkpt>
      <trkpt lat="46.63140468299388885498046875" lon="6.86315805651247501373291015625">
        <ele>764.20001220703125</ele>
        <time>2013-08-15T17:33:41.000Z</time>
        <extensions>
          <ns3:TrackPointExtension>
            <ns3:atemp>15.0</ns3:atemp>
            <ns3:hr>143</ns3:hr>
          </ns3:TrackPointExtension>
        </extensions>
      </trkpt>
      <trkpt lat="46.6314390487968921661376953125" lon="6.863142885267734527587890625">
        <ele>764.20001220703125</ele>
        <time>2013-08-15T17:33:42.000Z</time>
        <extensions>
          <ns3:TrackPointExtension>
            <ns3:atemp>15.0</ns3:atemp>
            <ns3:hr>143</ns3:hr>
          </ns3:TrackPointExtension>
        </extensions>
      </trkpt>
      <trkpt lat="46.6314799524843692779541015625" lon="6.86312134377658367156982421875">
        <ele>763.79998779296875</ele>
        <time>2013-08-15T17:33:43.000Z</time>
        <extensions>
          <ns3:TrackPointExtension>
            <ns3:atemp>15.0</ns3:atemp>
            <ns3:hr>143</ns3:hr>
          </ns3:TrackPointExtension>
        </extensions>
      </trkpt>
      <trkpt lat="46.63152563385665416717529296875" lon="6.8631068430840969085693359375">
        <ele>764</ele>
        <time>2013-08-15T17:33:44.000Z</time>
        <extensions>
          <ns3:TrackPointExtension>
            <ns3:atemp>15.0</ns3:atemp>
            <ns3:hr>143</ns3:hr>
          </ns3:TrackPointExtension>
        </extensions>
      </trkpt>
      <trkpt lat="46.63156653754413127899169921875" lon="6.86308949254453182220458984375">
        <ele>764</ele>
        <time>2013-08-15T17:33:45.000Z</time>
        <extensions>
          <ns3:TrackPointExtension>
            <ns3:atemp>15.0</ns3:atemp>
            <ns3:hr>143</ns3:hr>
          </ns3:TrackPointExtension>
        </extensions>
      </trkpt>
      <trkpt lat="46.63160928525030612945556640625" lon="6.86306820251047611236572265625">
        <ele>763.79998779296875</ele>
        <time>2013-08-15T17:33:46.000Z</time>
        <extensions>
          <ns3:TrackPointExtension>
            <ns3:atemp>15.0</ns3:atemp>
            <ns3:hr>142</ns3:hr>
          </ns3:TrackPointExtension>
        </extensions>
      </trkpt>
      <trkpt lat="46.63164499215781688690185546875" lon="6.86304288916289806365966796875">
        <ele>763.5999755859375</ele>
        <time>2013-08-15T17:33:47.000Z</time>
        <extensions>
          <ns3:TrackPointExtension>
            <ns3:atemp>15.0</ns3:atemp>
            <ns3:hr>142</ns3:hr>
          </ns3:TrackPointExtension>
        </extensions>
      </trkpt>
      <trkpt lat="46.63167684338986873626708984375" lon="6.8630153127014636993408203125">
        <ele>763.5999755859375</ele>
        <time>2013-08-15T17:33:48.000Z</time>
        <extensions>
          <ns3:TrackPointExtension>
            <ns3:atemp>15.0</ns3:atemp>
            <ns3:hr>141</ns3:hr>
          </ns3:TrackPointExtension>
        </extensions>
      </trkpt>
      <trkpt lat="46.63171204738318920135498046875" lon="6.8629921786487102508544921875">
        <ele>763.5999755859375</ele>
        <time>2013-08-15T17:33:49.000Z</time>
        <extensions>
          <ns3:TrackPointExtension>
            <ns3:atemp>15.0</ns3:atemp>
            <ns3:hr>141</ns3:hr>
          </ns3:TrackPointExtension>
        </extensions>
      </trkpt>
      <trkpt lat="46.63174741901457309722900390625" lon="6.86297147534787654876708984375">
        <ele>763.5999755859375</ele>
        <time>2013-08-15T17:33:50.000Z</time>
        <extensions>
          <ns3:TrackPointExtension>
            <ns3:atemp>15.0</ns3:atemp>
            <ns3:hr>141</ns3:hr>
          </ns3:TrackPointExtension>
        </extensions>
      </trkpt>
      <trkpt lat="46.63178161717951297760009765625" lon="6.86294096522033214569091796875">
        <ele>763.20001220703125</ele>
        <time>2013-08-15T17:33:51.000Z</time>
        <extensions>
          <ns3:TrackPointExtension>
            <ns3:atemp>15.0</ns3:atemp>
            <ns3:hr>140</ns3:hr>
          </ns3:TrackPointExtension>
        </extensions>
      </trkpt>
      <trkpt lat="46.63182017393410205841064453125" lon="6.86290743760764598846435546875">
        <ele>762.79998779296875</ele>
        <time>2013-08-15T17:33:52.000Z</time>
        <extensions>
          <ns3:TrackPointExtension>
            <ns3:atemp>15.0</ns3:atemp>
            <ns3:hr>140</ns3:hr>
          </ns3:TrackPointExtension>
        </extensions>
      </trkpt>
      <trkpt lat="46.63185621611773967742919921875" lon="6.86285966075956821441650390625">
        <ele>762.5999755859375</ele>
        <time>2013-08-15T17:33:53.000Z</time>
        <extensions>
          <ns3:TrackPointExtension>
            <ns3:atemp>15.0</ns3:atemp>
            <ns3:hr>140</ns3:hr>
          </ns3:TrackPointExtension>
        </extensions>
      </trkpt>
      <trkpt lat="46.631889156997203826904296875" lon="6.86280383728444576263427734375">
        <ele>762.4000244140625</ele>
        <time>2013-08-15T17:33:54.000Z</time>
        <extensions>
          <ns3:TrackPointExtension>
            <ns3:atemp>15.0</ns3:atemp>
            <ns3:hr>140</ns3:hr>
          </ns3:TrackPointExtension>
        </extensions>
      </trkpt>
      <trkpt lat="46.63192528299987316131591796875" lon="6.86274315230548381805419921875">
        <ele>762.5999755859375</ele>
        <time>2013-08-15T17:33:55.000Z</time>
        <extensions>
          <ns3:TrackPointExtension>
            <ns3:atemp>15.0</ns3:atemp>
            <ns3:hr>139</ns3:hr>
          </ns3:TrackPointExtension>
        </extensions>
      </trkpt>
      <trkpt lat="46.63196266628801822662353515625" lon="6.86268682591617107391357421875">
        <ele>762.5999755859375</ele>
        <time>2013-08-15T17:33:56.000Z</time>
        <extensions>
          <ns3:TrackPointExtension>
            <ns3:atemp>15.0</ns3:atemp>
            <ns3:hr>139</ns3:hr>
          </ns3:TrackPointExtension>
        </extensions>
      </trkpt>
      <trkpt lat="46.63200206123292446136474609375" lon="6.8626396358013153076171875">
        <ele>763</ele>
        <time>2013-08-15T17:33:57.000Z</time>
        <extensions>
          <ns3:TrackPointExtension>
            <ns3:atemp>15.0</ns3:atemp>
            <ns3:hr>139</ns3:hr>
          </ns3:TrackPointExtension>
        </extensions>
      </trkpt>
      <trkpt lat="46.6320408694446086883544921875" lon="6.86258892528712749481201171875">
        <ele>763</ele>
        <time>2013-08-15T17:33:58.000Z</time>
        <extensions>
          <ns3:TrackPointExtension>
            <ns3:atemp>15.0</ns3:atemp>
            <ns3:hr>139</ns3:hr>
          </ns3:TrackPointExtension>
        </extensions>
      </trkpt>
      <trkpt lat="46.6320790909230709075927734375" lon="6.86253595165908336639404296875">
        <ele>763.4000244140625</ele>
        <time>2013-08-15T17:33:59.000Z</time>
        <extensions>
          <ns3:TrackPointExtension>
            <ns3:atemp>15.0</ns3:atemp>
            <ns3:hr>139</ns3:hr>
          </ns3:TrackPointExtension>
        </extensions>
      </trkpt>
      <trkpt lat="46.63212083280086517333984375" lon="6.86248884536325931549072265625">
        <ele>763.4000244140625</ele>
        <time>2013-08-15T17:34:00.000Z</time>
        <extensions>
          <ns3:TrackPointExtension>
            <ns3:atemp>15.0</ns3:atemp>
            <ns3:hr>138</ns3:hr>
          </ns3:TrackPointExtension>
        </extensions>
      </trkpt>
      <trkpt lat="46.63216777145862579345703125" lon="6.86244324781000614166259765625">
        <ele>763.20001220703125</ele>
        <time>2013-08-15T17:34:01.000Z</time>
        <extensions>
          <ns3:TrackPointExtension>
            <ns3:atemp>15.0</ns3:atemp>
            <ns3:hr>138</ns3:hr>
          </ns3:TrackPointExtension>
        </extensions>
      </trkpt>
      <trkpt lat="46.63221596740186214447021484375" lon="6.86240217648446559906005859375">
        <ele>763.5999755859375</ele>
        <time>2013-08-15T17:34:02.000Z</time>
        <extensions>
          <ns3:TrackPointExtension>
            <ns3:atemp>15.0</ns3:atemp>
            <ns3:hr>138</ns3:hr>
          </ns3:TrackPointExtension>
        </extensions>
      </trkpt>
      <trkpt lat="46.63226609118282794952392578125" lon="6.8623662181198596954345703125">
        <ele>763.79998779296875</ele>
        <time>2013-08-15T17:34:03.000Z</time>
        <extensions>
          <ns3:TrackPointExtension>
            <ns3:atemp>15.0</ns3:atemp>
            <ns3:hr>138</ns3:hr>
          </ns3:TrackPointExtension>
        </extensions>
      </trkpt>
      <trkpt lat="46.63232040591537952423095703125" lon="6.8623347021639347076416015625">
        <ele>764</ele>
        <time>2013-08-15T17:34:04.000Z</time>
        <extensions>
          <ns3:TrackPointExtension>
            <ns3:atemp>15.0</ns3:atemp>
            <ns3:hr>138</ns3:hr>
          </ns3:TrackPointExtension>
        </extensions>
      </trkpt>
      <trkpt lat="46.6323751397430896759033203125" lon="6.86230092309415340423583984375">
        <ele>764</ele>
        <time>2013-08-15T17:34:05.000Z</time>
        <extensions>
          <ns3:TrackPointExtension>
            <ns3:atemp>15.0</ns3:atemp>
            <ns3:hr>138</ns3:hr>
          </ns3:TrackPointExtension>
        </extensions>
      </trkpt>
      <trkpt lat="46.6324250958859920501708984375" lon="6.86226923950016498565673828125">
        <ele>763.79998779296875</ele>
        <time>2013-08-15T17:34:06.000Z</time>
        <extensions>
          <ns3:TrackPointExtension>
            <ns3:atemp>15.0</ns3:atemp>
            <ns3:hr>138</ns3:hr>
          </ns3:TrackPointExtension>
        </extensions>
      </trkpt>
      <trkpt lat="46.63247915916144847869873046875" lon="6.8622250668704509735107421875">
        <ele>763.5999755859375</ele>
        <time>2013-08-15T17:34:07.000Z</time>
        <extensions>
          <ns3:TrackPointExtension>
            <ns3:atemp>15.0</ns3:atemp>
            <ns3:hr>138</ns3:hr>
          </ns3:TrackPointExtension>
        </extensions>
      </trkpt>
      <trkpt lat="46.6325317136943340301513671875" lon="6.8621848337352275848388671875">
        <ele>763.4000244140625</ele>
        <time>2013-08-15T17:34:08.000Z</time>
        <extensions>
          <ns3:TrackPointExtension>
            <ns3:atemp>15.0</ns3:atemp>
            <ns3:hr>138</ns3:hr>
          </ns3:TrackPointExtension>
        </extensions>
      </trkpt>
      <trkpt lat="46.6325880400836467742919921875" lon="6.86214719898998737335205078125">
        <ele>763.5999755859375</ele>
        <time>2013-08-15T17:34:09.000Z</time>
        <extensions>
          <ns3:TrackPointExtension>
            <ns3:atemp>15.0</ns3:atemp>
            <ns3:hr>137</ns3:hr>
          </ns3:TrackPointExtension>
        </extensions>
      </trkpt>
      <trkpt lat="46.63264730013906955718994140625" lon="6.86210931278765201568603515625">
        <ele>763.5999755859375</ele>
        <time>2013-08-15T17:34:10.000Z</time>
        <extensions>
          <ns3:TrackPointExtension>
            <ns3:atemp>15.0</ns3:atemp>
            <ns3:hr>137</ns3:hr>
          </ns3:TrackPointExtension>
        </extensions>
      </trkpt>
      <trkpt lat="46.63270697928965091705322265625" lon="6.8620674870908260345458984375">
        <ele>763.79998779296875</ele>
        <time>2013-08-15T17:34:11.000Z</time>
        <extensions>
          <ns3:TrackPointExtension>
            <ns3:atemp>15.0</ns3:atemp>
            <ns3:hr>136</ns3:hr>
          </ns3:TrackPointExtension>
        </extensions>
      </trkpt>
      <trkpt lat="46.63276322185993194580078125" lon="6.8620242364704608917236328125">
        <ele>763.5999755859375</ele>
        <time>2013-08-15T17:34:12.000Z</time>
        <extensions>
          <ns3:TrackPointExtension>
            <ns3:atemp>15.0</ns3:atemp>
            <ns3:hr>136</ns3:hr>
          </ns3:TrackPointExtension>
        </extensions>
      </trkpt>
      <trkpt lat="46.63282047025859355926513671875" lon="6.8619813211262226104736328125">
        <ele>763.4000244140625</ele>
        <time>2013-08-15T17:34:13.000Z</time>
        <extensions>
          <ns3:TrackPointExtension>
            <ns3:atemp>15.0</ns3:atemp>
            <ns3:hr>136</ns3:hr>
          </ns3:TrackPointExtension>
        </extensions>
      </trkpt>
      <trkpt lat="46.63287721574306488037109375" lon="6.86193262226879596710205078125">
        <ele>763.20001220703125</ele>
        <time>2013-08-15T17:34:14.000Z</time>
        <extensions>
          <ns3:TrackPointExtension>
            <ns3:atemp>15.0</ns3:atemp>
            <ns3:hr>135</ns3:hr>
          </ns3:TrackPointExtension>
        </extensions>
      </trkpt>
      <trkpt lat="46.632931865751743316650390625" lon="6.861886270344257354736328125">
        <ele>762.79998779296875</ele>
        <time>2013-08-15T17:34:15.000Z</time>
        <extensions>
          <ns3:TrackPointExtension>
            <ns3:atemp>15.0</ns3:atemp>
            <ns3:hr>136</ns3:hr>
          </ns3:TrackPointExtension>
        </extensions>
      </trkpt>
      <trkpt lat="46.632988862693309783935546875" lon="6.86184109188616275787353515625">
        <ele>763</ele>
        <time>2013-08-15T17:34:16.000Z</time>
        <extensions>
          <ns3:TrackPointExtension>
            <ns3:atemp>15.0</ns3:atemp>
            <ns3:hr>136</ns3:hr>
          </ns3:TrackPointExtension>
        </extensions>
      </trkpt>
      <trkpt lat="46.63304678164422512054443359375" lon="6.86179339885711669921875">
        <ele>763</ele>
        <time>2013-08-15T17:34:17.000Z</time>
        <extensions>
          <ns3:TrackPointExtension>
            <ns3:atemp>15.0</ns3:atemp>
            <ns3:hr>136</ns3:hr>
          </ns3:TrackPointExtension>
        </extensions>
      </trkpt>
      <trkpt lat="46.63310444913804531097412109375" lon="6.8617476336658000946044921875">
        <ele>763.20001220703125</ele>
        <time>2013-08-15T17:34:18.000Z</time>
        <extensions>
          <ns3:TrackPointExtension>
            <ns3:atemp>15.0</ns3:atemp>
            <ns3:hr>136</ns3:hr>
          </ns3:TrackPointExtension>
        </extensions>
      </trkpt>
      <trkpt lat="46.63316245190799236297607421875" lon="6.8617027066648006439208984375">
        <ele>763.20001220703125</ele>
        <time>2013-08-15T17:34:19.000Z</time>
        <extensions>
          <ns3:TrackPointExtension>
            <ns3:atemp>15.0</ns3:atemp>
            <ns3:hr>136</ns3:hr>
          </ns3:TrackPointExtension>
        </extensions>
      </trkpt>
      <trkpt lat="46.63322380743920803070068359375" lon="6.86165769584476947784423828125">
        <ele>763.20001220703125</ele>
        <time>2013-08-15T17:34:20.000Z</time>
        <extensions>
          <ns3:TrackPointExtension>
            <ns3:atemp>15.0</ns3:atemp>
            <ns3:hr>135</ns3:hr>
          </ns3:TrackPointExtension>
        </extensions>
      </trkpt>
      <trkpt lat="46.63328432478010654449462890625" lon="6.86161310411989688873291015625">
        <ele>763.20001220703125</ele>
        <time>2013-08-15T17:34:21.000Z</time>
        <extensions>
          <ns3:TrackPointExtension>
            <ns3:atemp>15.0</ns3:atemp>
            <ns3:hr>135</ns3:hr>
          </ns3:TrackPointExtension>
        </extensions>
      </trkpt>
      <trkpt lat="46.63334735669195652008056640625" lon="6.86156474053859710693359375">
        <ele>762.79998779296875</ele>
        <time>2013-08-15T17:34:22.000Z</time>
        <extensions>
          <ns3:TrackPointExtension>
            <ns3:atemp>15.0</ns3:atemp>
            <ns3:hr>135</ns3:hr>
          </ns3:TrackPointExtension>
        </extensions>
      </trkpt>
      <trkpt lat="46.633406616747379302978515625" lon="6.86150497756898403167724609375">
        <ele>762.5999755859375</ele>
        <time>2013-08-15T17:34:23.000Z</time>
        <extensions>
          <ns3:TrackPointExtension>
            <ns3:atemp>15.0</ns3:atemp>
            <ns3:hr>134</ns3:hr>
          </ns3:TrackPointExtension>
        </extensions>
      </trkpt>
      <trkpt lat="46.6334651224315166473388671875" lon="6.8614519201219081878662109375">
        <ele>762.4000244140625</ele>
        <time>2013-08-15T17:34:24.000Z</time>
        <extensions>
          <ns3:TrackPointExtension>
            <ns3:atemp>15.0</ns3:atemp>
            <ns3:hr>134</ns3:hr>
          </ns3:TrackPointExtension>
        </extensions>
      </trkpt>
      <trkpt lat="46.63352237083017826080322265625" lon="6.86139986850321292877197265625">
        <ele>762.4000244140625</ele>
        <time>2013-08-15T17:34:25.000Z</time>
        <extensions>
          <ns3:TrackPointExtension>
            <ns3:atemp>15.0</ns3:atemp>
            <ns3:hr>134</ns3:hr>
          </ns3:TrackPointExtension>
        </extensions>
      </trkpt>
      <trkpt lat="46.6335819661617279052734375" lon="6.8613764829933643341064453125">
        <ele>762.4000244140625</ele>
        <time>2013-08-15T17:34:26.000Z</time>
        <extensions>
          <ns3:TrackPointExtension>
            <ns3:atemp>15.0</ns3:atemp>
            <ns3:hr>134</ns3:hr>
          </ns3:TrackPointExtension>
        </extensions>
      </trkpt>
      <trkpt lat="46.63364474661648273468017578125" lon="6.861351169645786285400390625">
        <ele>762.5999755859375</ele>
        <time>2013-08-15T17:34:27.000Z</time>
        <extensions>
          <ns3:TrackPointExtension>
            <ns3:atemp>15.0</ns3:atemp>
            <ns3:hr>133</ns3:hr>
          </ns3:TrackPointExtension>
        </extensions>
      </trkpt>
      <trkpt lat="46.63370870053768157958984375" lon="6.861330382525920867919921875">
        <ele>762.79998779296875</ele>
        <time>2013-08-15T17:34:28.000Z</time>
        <extensions>
          <ns3:TrackPointExtension>
            <ns3:atemp>15.0</ns3:atemp>
            <ns3:hr>133</ns3:hr>
          </ns3:TrackPointExtension>
        </extensions>
      </trkpt>
      <trkpt lat="46.63377500139176845550537109375" lon="6.86130993068218231201171875">
        <ele>762.79998779296875</ele>
        <time>2013-08-15T17:34:29.000Z</time>
        <extensions>
          <ns3:TrackPointExtension>
            <ns3:atemp>15.0</ns3:atemp>
            <ns3:hr>134</ns3:hr>
          </ns3:TrackPointExtension>
        </extensions>
      </trkpt>
      <trkpt lat="46.63384071551263332366943359375" lon="6.86128939501941204071044921875">
        <ele>762.79998779296875</ele>
        <time>2013-08-15T17:34:30.000Z</time>
        <extensions>
          <ns3:TrackPointExtension>
            <ns3:atemp>15.0</ns3:atemp>
            <ns3:hr>134</ns3:hr>
          </ns3:TrackPointExtension>
        </extensions>
      </trkpt>
      <trkpt lat="46.633903495967388153076171875" lon="6.861263327300548553466796875">
        <ele>762.79998779296875</ele>
        <time>2013-08-15T17:34:31.000Z</time>
        <extensions>
          <ns3:TrackPointExtension>
            <ns3:atemp>15.0</ns3:atemp>
            <ns3:hr>134</ns3:hr>
          </ns3:TrackPointExtension>
        </extensions>
      </trkpt>
      <trkpt lat="46.63396376185119152069091796875" lon="6.8612346611917018890380859375">
        <ele>762.79998779296875</ele>
        <time>2013-08-15T17:34:32.000Z</time>
        <extensions>
          <ns3:TrackPointExtension>
            <ns3:atemp>15.0</ns3:atemp>
            <ns3:hr>134</ns3:hr>
          </ns3:TrackPointExtension>
        </extensions>
      </trkpt>
      <trkpt lat="46.6340280510485172271728515625" lon="6.86121848411858081817626953125">
        <ele>762.79998779296875</ele>
        <time>2013-08-15T17:34:33.000Z</time>
        <extensions>
          <ns3:TrackPointExtension>
            <ns3:atemp>15.0</ns3:atemp>
            <ns3:hr>134</ns3:hr>
          </ns3:TrackPointExtension>
        </extensions>
      </trkpt>
      <trkpt lat="46.63409133441746234893798828125" lon="6.861221753060817718505859375">
        <ele>762.79998779296875</ele>
        <time>2013-08-15T17:34:34.000Z</time>
        <extensions>
          <ns3:TrackPointExtension>
            <ns3:atemp>15.0</ns3:atemp>
            <ns3:hr>134</ns3:hr>
          </ns3:TrackPointExtension>
        </extensions>
      </trkpt>
      <trkpt lat="46.63415235467255115509033203125" lon="6.8612319789826869964599609375">
        <ele>763</ele>
        <time>2013-08-15T17:34:35.000Z</time>
        <extensions>
          <ns3:TrackPointExtension>
            <ns3:atemp>15.0</ns3:atemp>
            <ns3:hr>134</ns3:hr>
          </ns3:TrackPointExtension>
        </extensions>
      </trkpt>
      <trkpt lat="46.6342144645750522613525390625" lon="6.86124094761908054351806640625">
        <ele>763.20001220703125</ele>
        <time>2013-08-15T17:34:36.000Z</time>
        <extensions>
          <ns3:TrackPointExtension>
            <ns3:atemp>15.0</ns3:atemp>
            <ns3:hr>134</ns3:hr>
          </ns3:TrackPointExtension>
        </extensions>
      </trkpt>
      <trkpt lat="46.63427657447755336761474609375" lon="6.86124513857066631317138671875">
        <ele>763</ele>
        <time>2013-08-15T17:34:37.000Z</time>
        <extensions>
          <ns3:TrackPointExtension>
            <ns3:atemp>15.0</ns3:atemp>
            <ns3:hr>134</ns3:hr>
          </ns3:TrackPointExtension>
        </extensions>
      </trkpt>
      <trkpt lat="46.63433742709457874298095703125" lon="6.86125452630221843719482421875">
        <ele>762.79998779296875</ele>
        <time>2013-08-15T17:34:38.000Z</time>
        <extensions>
          <ns3:TrackPointExtension>
            <ns3:atemp>15.0</ns3:atemp>
            <ns3:hr>135</ns3:hr>
          </ns3:TrackPointExtension>
        </extensions>
      </trkpt>
      <trkpt lat="46.63439693860709667205810546875" lon="6.86126827262341976165771484375">
        <ele>763</ele>
        <time>2013-08-15T17:34:39.000Z</time>
        <extensions>
          <ns3:TrackPointExtension>
            <ns3:atemp>15.0</ns3:atemp>
            <ns3:hr>135</ns3:hr>
          </ns3:TrackPointExtension>
        </extensions>
      </trkpt>
      <trkpt lat="46.63445703685283660888671875" lon="6.86127841472625732421875">
        <ele>763</ele>
        <time>2013-08-15T17:34:40.000Z</time>
        <extensions>
          <ns3:TrackPointExtension>
            <ns3:atemp>15.0</ns3:atemp>
            <ns3:hr>135</ns3:hr>
          </ns3:TrackPointExtension>
        </extensions>
      </trkpt>
      <trkpt lat="46.6345180571079254150390625" lon="6.861288137733936309814453125">
        <ele>763</ele>
        <time>2013-08-15T17:34:41.000Z</time>
        <extensions>
          <ns3:TrackPointExtension>
            <ns3:atemp>15.0</ns3:atemp>
            <ns3:hr>135</ns3:hr>
          </ns3:TrackPointExtension>
        </extensions>
      </trkpt>
      <trkpt lat="46.6345772333443164825439453125" lon="6.8612956814467906951904296875">
        <ele>762.79998779296875</ele>
        <time>2013-08-15T17:34:42.000Z</time>
        <extensions>
          <ns3:TrackPointExtension>
            <ns3:atemp>15.0</ns3:atemp>
            <ns3:hr>135</ns3:hr>
          </ns3:TrackPointExtension>
        </extensions>
      </trkpt>
      <trkpt lat="46.634637415409088134765625" lon="6.86130045913159847259521484375">
        <ele>762.79998779296875</ele>
        <time>2013-08-15T17:34:43.000Z</time>
        <extensions>
          <ns3:TrackPointExtension>
            <ns3:atemp>15.0</ns3:atemp>
            <ns3:hr>135</ns3:hr>
          </ns3:TrackPointExtension>
        </extensions>
      </trkpt>
      <trkpt lat="46.63469751365482807159423828125" lon="6.86130951158702373504638671875">
        <ele>763</ele>
        <time>2013-08-15T17:34:44.000Z</time>
        <extensions>
          <ns3:TrackPointExtension>
            <ns3:atemp>15.0</ns3:atemp>
            <ns3:hr>136</ns3:hr>
          </ns3:TrackPointExtension>
        </extensions>
      </trkpt>
      <trkpt lat="46.6347566060721874237060546875" lon="6.86130565591156482696533203125">
        <ele>763.4000244140625</ele>
        <time>2013-08-15T17:34:45.000Z</time>
        <extensions>
          <ns3:TrackPointExtension>
            <ns3:atemp>15.0</ns3:atemp>
            <ns3:hr>136</ns3:hr>
          </ns3:TrackPointExtension>
        </extensions>
      </trkpt>
      <trkpt lat="46.63481569848954677581787109375" lon="6.86129710637032985687255859375">
        <ele>763.5999755859375</ele>
        <time>2013-08-15T17:34:46.000Z</time>
        <extensions>
          <ns3:TrackPointExtension>
            <ns3:atemp>15.0</ns3:atemp>
            <ns3:hr>136</ns3:hr>
          </ns3:TrackPointExtension>
        </extensions>
      </trkpt>
      <trkpt lat="46.63487571291625499725341796875" lon="6.861288137733936309814453125">
        <ele>763.4000244140625</ele>
        <time>2013-08-15T17:34:47.000Z</time>
        <extensions>
          <ns3:TrackPointExtension>
            <ns3:atemp>15.0</ns3:atemp>
            <ns3:hr>136</ns3:hr>
          </ns3:TrackPointExtension>
        </extensions>
      </trkpt>
      <trkpt lat="46.63493371568620204925537109375" lon="6.86127380467951297760009765625">
        <ele>763.20001220703125</ele>
        <time>2013-08-15T17:34:48.000Z</time>
        <extensions>
          <ns3:TrackPointExtension>
            <ns3:atemp>15.0</ns3:atemp>
            <ns3:hr>136</ns3:hr>
          </ns3:TrackPointExtension>
        </extensions>
      </trkpt>
      <trkpt lat="46.63499020971357822418212890625" lon="6.8612584657967090606689453125">
        <ele>763.4000244140625</ele>
        <time>2013-08-15T17:34:49.000Z</time>
        <extensions>
          <ns3:TrackPointExtension>
            <ns3:atemp>15.0</ns3:atemp>
            <ns3:hr>136</ns3:hr>
          </ns3:TrackPointExtension>
        </extensions>
      </trkpt>
      <trkpt lat="46.63504687137901782989501953125" lon="6.861241869628429412841796875">
        <ele>763.4000244140625</ele>
        <time>2013-08-15T17:34:50.000Z</time>
        <extensions>
          <ns3:TrackPointExtension>
            <ns3:atemp>15.0</ns3:atemp>
            <ns3:hr>136</ns3:hr>
          </ns3:TrackPointExtension>
        </extensions>
      </trkpt>
      <trkpt lat="46.6351012699306011199951171875" lon="6.86122518964111804962158203125">
        <ele>763.5999755859375</ele>
        <time>2013-08-15T17:34:51.000Z</time>
        <extensions>
          <ns3:TrackPointExtension>
            <ns3:atemp>15.0</ns3:atemp>
            <ns3:hr>136</ns3:hr>
          </ns3:TrackPointExtension>
        </extensions>
      </trkpt>
      <trkpt lat="46.6351552493870258331298828125" lon="6.86121068894863128662109375">
        <ele>763.79998779296875</ele>
        <time>2013-08-15T17:34:52.000Z</time>
        <extensions>
          <ns3:TrackPointExtension>
            <ns3:atemp>15.0</ns3:atemp>
            <ns3:hr>136</ns3:hr>
          </ns3:TrackPointExtension>
        </extensions>
      </trkpt>
      <trkpt lat="46.63520897738635540008544921875" lon="6.8612046539783477783203125">
        <ele>763.79998779296875</ele>
        <time>2013-08-15T17:34:53.000Z</time>
        <extensions>
          <ns3:TrackPointExtension>
            <ns3:atemp>15.0</ns3:atemp>
            <ns3:hr>135</ns3:hr>
          </ns3:TrackPointExtension>
        </extensions>
      </trkpt>
      <trkpt lat="46.63526128046214580535888671875" lon="6.8611974455416202545166015625">
        <ele>764</ele>
        <time>2013-08-15T17:34:54.000Z</time>
        <extensions>
          <ns3:TrackPointExtension>
            <ns3:atemp>15.0</ns3:atemp>
            <ns3:hr>135</ns3:hr>
          </ns3:TrackPointExtension>
        </extensions>
      </trkpt>
      <trkpt lat="46.6353119909763336181640625" lon="6.86119199730455875396728515625">
        <ele>764.20001220703125</ele>
        <time>2013-08-15T17:34:55.000Z</time>
        <extensions>
          <ns3:TrackPointExtension>
            <ns3:atemp>15.0</ns3:atemp>
            <ns3:hr>135</ns3:hr>
          </ns3:TrackPointExtension>
        </extensions>
      </trkpt>
      <trkpt lat="46.635361947119235992431640625" lon="6.8611904047429561614990234375">
        <ele>764</ele>
        <time>2013-08-15T17:34:56.000Z</time>
        <extensions>
          <ns3:TrackPointExtension>
            <ns3:atemp>15.0</ns3:atemp>
            <ns3:hr>135</ns3:hr>
          </ns3:TrackPointExtension>
        </extensions>
      </trkpt>
      <trkpt lat="46.6354120709002017974853515625" lon="6.86118948273360729217529296875">
        <ele>764.20001220703125</ele>
        <time>2013-08-15T17:34:57.000Z</time>
        <extensions>
          <ns3:TrackPointExtension>
            <ns3:atemp>15.0</ns3:atemp>
            <ns3:hr>136</ns3:hr>
          </ns3:TrackPointExtension>
        </extensions>
      </trkpt>
      <trkpt lat="46.635461188852787017822265625" lon="6.8611957691609859466552734375">
        <ele>764.4000244140625</ele>
        <time>2013-08-15T17:34:58.000Z</time>
        <extensions>
          <ns3:TrackPointExtension>
            <ns3:atemp>15.0</ns3:atemp>
            <ns3:hr>135</ns3:hr>
          </ns3:TrackPointExtension>
        </extensions>
      </trkpt>
      <trkpt lat="46.6355099715292453765869140625" lon="6.86120607890188694000244140625">
        <ele>764.5999755859375</ele>
        <time>2013-08-15T17:34:59.000Z</time>
        <extensions>
          <ns3:TrackPointExtension>
            <ns3:atemp>15.0</ns3:atemp>
            <ns3:hr>136</ns3:hr>
          </ns3:TrackPointExtension>
        </extensions>
      </trkpt>
      <trkpt lat="46.6355605982244014739990234375" lon="6.86120934784412384033203125">
        <ele>764.4000244140625</ele>
        <time>2013-08-15T17:35:00.000Z</time>
        <extensions>
          <ns3:TrackPointExtension>
            <ns3:atemp>15.0</ns3:atemp>
            <ns3:hr>136</ns3:hr>
          </ns3:TrackPointExtension>
        </extensions>
      </trkpt>
      <trkpt lat="46.63561013527214527130126953125" lon="6.861209012567996978759765625">
        <ele>764.4000244140625</ele>
        <time>2013-08-15T17:35:01.000Z</time>
        <extensions>
          <ns3:TrackPointExtension>
            <ns3:atemp>15.0</ns3:atemp>
            <ns3:hr>136</ns3:hr>
          </ns3:TrackPointExtension>
        </extensions>
      </trkpt>
      <trkpt lat="46.63566025905311107635498046875" lon="6.86121177859604358673095703125">
        <ele>764.4000244140625</ele>
        <time>2013-08-15T17:35:02.000Z</time>
        <extensions>
          <ns3:TrackPointExtension>
            <ns3:atemp>15.0</ns3:atemp>
            <ns3:hr>136</ns3:hr>
          </ns3:TrackPointExtension>
        </extensions>
      </trkpt>
      <trkpt lat="46.6357111372053623199462890625" lon="6.8612165562808513641357421875">
        <ele>764.5999755859375</ele>
        <time>2013-08-15T17:35:03.000Z</time>
        <extensions>
          <ns3:TrackPointExtension>
            <ns3:atemp>15.0</ns3:atemp>
            <ns3:hr>136</ns3:hr>
          </ns3:TrackPointExtension>
        </extensions>
      </trkpt>
      <trkpt lat="46.63576201535761356353759765625" lon="6.86122166924178600311279296875">
        <ele>764.5999755859375</ele>
        <time>2013-08-15T17:35:04.000Z</time>
        <extensions>
          <ns3:TrackPointExtension>
            <ns3:atemp>15.0</ns3:atemp>
            <ns3:hr>137</ns3:hr>
          </ns3:TrackPointExtension>
        </extensions>
      </trkpt>
      <trkpt lat="46.63581331260502338409423828125" lon="6.86122946441173553466796875">
        <ele>764.5999755859375</ele>
        <time>2013-08-15T17:35:05.000Z</time>
        <extensions>
          <ns3:TrackPointExtension>
            <ns3:atemp>15.0</ns3:atemp>
            <ns3:hr>137</ns3:hr>
          </ns3:TrackPointExtension>
        </extensions>
      </trkpt>
      <trkpt lat="46.63586385548114776611328125" lon="6.86123910360038280487060546875">
        <ele>764.79998779296875</ele>
        <time>2013-08-15T17:35:06.000Z</time>
        <extensions>
          <ns3:TrackPointExtension>
            <ns3:atemp>15.0</ns3:atemp>
            <ns3:hr>137</ns3:hr>
          </ns3:TrackPointExtension>
        </extensions>
      </trkpt>
      <trkpt lat="46.63591389544308185577392578125" lon="6.861254610121250152587890625">
        <ele>764.79998779296875</ele>
        <time>2013-08-15T17:35:07.000Z</time>
        <extensions>
          <ns3:TrackPointExtension>
            <ns3:atemp>15.0</ns3:atemp>
            <ns3:hr>137</ns3:hr>
          </ns3:TrackPointExtension>
        </extensions>
      </trkpt>
      <trkpt lat="46.6359629295766353607177734375" lon="6.86127506196498870849609375">
        <ele>765.20001220703125</ele>
        <time>2013-08-15T17:35:08.000Z</time>
        <extensions>
          <ns3:TrackPointExtension>
            <ns3:atemp>15.0</ns3:atemp>
            <ns3:hr>137</ns3:hr>
          </ns3:TrackPointExtension>
        </extensions>
      </trkpt>
      <trkpt lat="46.63601347245275974273681640625" lon="6.86128051020205020904541015625">
        <ele>765.20001220703125</ele>
        <time>2013-08-15T17:35:09.000Z</time>
        <extensions>
          <ns3:TrackPointExtension>
            <ns3:atemp>15.0</ns3:atemp>
            <ns3:hr>137</ns3:hr>
          </ns3:TrackPointExtension>
        </extensions>
      </trkpt>
      <trkpt lat="46.63606493733823299407958984375" lon="6.861284784972667694091796875">
        <ele>765.4000244140625</ele>
        <time>2013-08-15T17:35:10.000Z</time>
        <extensions>
          <ns3:TrackPointExtension>
            <ns3:atemp>15.0</ns3:atemp>
            <ns3:hr>138</ns3:hr>
          </ns3:TrackPointExtension>
        </extensions>
      </trkpt>
      <trkpt lat="46.636116988956928253173828125" lon="6.86128939501941204071044921875">
        <ele>765.4000244140625</ele>
        <time>2013-08-15T17:35:11.000Z</time>
        <extensions>
          <ns3:TrackPointExtension>
            <ns3:atemp>15.0</ns3:atemp>
            <ns3:hr>138</ns3:hr>
          </ns3:TrackPointExtension>
        </extensions>
      </trkpt>
      <trkpt lat="46.6361674480140209197998046875" lon="6.86130096204578876495361328125">
        <ele>765.4000244140625</ele>
        <time>2013-08-15T17:35:12.000Z</time>
        <extensions>
          <ns3:TrackPointExtension>
            <ns3:atemp>15.0</ns3:atemp>
            <ns3:hr>138</ns3:hr>
          </ns3:TrackPointExtension>
        </extensions>
      </trkpt>
      <trkpt lat="46.6362163983285427093505859375" lon="6.86131931841373443603515625">
        <ele>765.20001220703125</ele>
        <time>2013-08-15T17:35:13.000Z</time>
        <extensions>
          <ns3:TrackPointExtension>
            <ns3:atemp>15.0</ns3:atemp>
            <ns3:hr>138</ns3:hr>
          </ns3:TrackPointExtension>
        </extensions>
      </trkpt>
      <trkpt lat="46.63626509718596935272216796875" lon="6.86132929287850856781005859375">
        <ele>765.4000244140625</ele>
        <time>2013-08-15T17:35:14.000Z</time>
        <extensions>
          <ns3:TrackPointExtension>
            <ns3:atemp>15.0</ns3:atemp>
            <ns3:hr>138</ns3:hr>
          </ns3:TrackPointExtension>
        </extensions>
      </trkpt>
      <trkpt lat="46.63631488569080829620361328125" lon="6.86133532784879207611083984375">
        <ele>765.4000244140625</ele>
        <time>2013-08-15T17:35:15.000Z</time>
        <extensions>
          <ns3:TrackPointExtension>
            <ns3:atemp>15.0</ns3:atemp>
            <ns3:hr>138</ns3:hr>
          </ns3:TrackPointExtension>
        </extensions>
      </trkpt>
      <trkpt lat="46.6363652609288692474365234375" lon="6.861341111361980438232421875">
        <ele>765.4000244140625</ele>
        <time>2013-08-15T17:35:16.000Z</time>
        <extensions>
          <ns3:TrackPointExtension>
            <ns3:atemp>15.0</ns3:atemp>
            <ns3:hr>139</ns3:hr>
          </ns3:TrackPointExtension>
        </extensions>
      </trkpt>
      <trkpt lat="46.636415384709835052490234375" lon="6.86134907416999340057373046875">
        <ele>765.79998779296875</ele>
        <time>2013-08-15T17:35:17.000Z</time>
        <extensions>
          <ns3:TrackPointExtension>
            <ns3:atemp>15.0</ns3:atemp>
            <ns3:hr>139</ns3:hr>
          </ns3:TrackPointExtension>
        </extensions>
      </trkpt>
      <trkpt lat="46.6364668495953083038330078125" lon="6.86135175637900829315185546875">
        <ele>766</ele>
        <time>2013-08-15T17:35:18.000Z</time>
        <extensions>
          <ns3:TrackPointExtension>
            <ns3:atemp>15.0</ns3:atemp>
            <ns3:hr>139</ns3:hr>
          </ns3:TrackPointExtension>
        </extensions>
      </trkpt>
      <trkpt lat="46.636517979204654693603515625" lon="6.8613563664257526397705078125">
        <ele>766.20001220703125</ele>
        <time>2013-08-15T17:35:19.000Z</time>
        <extensions>
          <ns3:TrackPointExtension>
            <ns3:atemp>15.0</ns3:atemp>
            <ns3:hr>139</ns3:hr>
          </ns3:TrackPointExtension>
        </extensions>
      </trkpt>
      <trkpt lat="46.63656927645206451416015625" lon="6.861356198787689208984375">
        <ele>766.20001220703125</ele>
        <time>2013-08-15T17:35:20.000Z</time>
        <extensions>
          <ns3:TrackPointExtension>
            <ns3:atemp>15.0</ns3:atemp>
            <ns3:hr>139</ns3:hr>
          </ns3:TrackPointExtension>
        </extensions>
      </trkpt>
      <trkpt lat="46.636619232594966888427734375" lon="6.86135955154895782470703125">
        <ele>766.20001220703125</ele>
        <time>2013-08-15T17:35:21.000Z</time>
        <extensions>
          <ns3:TrackPointExtension>
            <ns3:atemp>15.0</ns3:atemp>
            <ns3:hr>139</ns3:hr>
          </ns3:TrackPointExtension>
        </extensions>
      </trkpt>
      <trkpt lat="46.63666994310915470123291015625" lon="6.86135930009186267852783203125">
        <ele>766.20001220703125</ele>
        <time>2013-08-15T17:35:22.000Z</time>
        <extensions>
          <ns3:TrackPointExtension>
            <ns3:atemp>15.0</ns3:atemp>
            <ns3:hr>140</ns3:hr>
          </ns3:TrackPointExtension>
        </extensions>
      </trkpt>
      <trkpt lat="46.6367189772427082061767578125" lon="6.86135896481573581695556640625">
        <ele>766.20001220703125</ele>
        <time>2013-08-15T17:35:23.000Z</time>
        <extensions>
          <ns3:TrackPointExtension>
            <ns3:atemp>15.0</ns3:atemp>
            <ns3:hr>140</ns3:hr>
          </ns3:TrackPointExtension>
        </extensions>
      </trkpt>
      <trkpt lat="46.636767089366912841796875" lon="6.861365251243114471435546875">
        <ele>766.5999755859375</ele>
        <time>2013-08-15T17:35:24.000Z</time>
        <extensions>
          <ns3:TrackPointExtension>
            <ns3:atemp>15.0</ns3:atemp>
            <ns3:hr>140</ns3:hr>
          </ns3:TrackPointExtension>
        </extensions>
      </trkpt>
      <trkpt lat="46.636815033853054046630859375" lon="6.86136919073760509490966796875">
        <ele>766.5999755859375</ele>
        <time>2013-08-15T17:35:25.000Z</time>
        <extensions>
          <ns3:TrackPointExtension>
            <ns3:atemp>15.0</ns3:atemp>
            <ns3:hr>140</ns3:hr>
          </ns3:TrackPointExtension>
        </extensions>
      </trkpt>
      <trkpt lat="46.636861972510814666748046875" lon="6.86137455515563488006591796875">
        <ele>766.79998779296875</ele>
        <time>2013-08-15T17:35:26.000Z</time>
        <extensions>
          <ns3:TrackPointExtension>
            <ns3:atemp>15.0</ns3:atemp>
            <ns3:hr>140</ns3:hr>
          </ns3:TrackPointExtension>
        </extensions>
      </trkpt>
      <trkpt lat="46.63691000081598758697509765625" lon="6.861377321183681488037109375">
        <ele>766.79998779296875</ele>
        <time>2013-08-15T17:35:27.000Z</time>
        <extensions>
          <ns3:TrackPointExtension>
            <ns3:atemp>15.0</ns3:atemp>
            <ns3:hr>141</ns3:hr>
          </ns3:TrackPointExtension>
        </extensions>
      </trkpt>
      <trkpt lat="46.63695962168276309967041015625" lon="6.8613892234861850738525390625">
        <ele>766.79998779296875</ele>
        <time>2013-08-15T17:35:28.000Z</time>
        <extensions>
          <ns3:TrackPointExtension>
            <ns3:atemp>15.0</ns3:atemp>
            <ns3:hr>141</ns3:hr>
          </ns3:TrackPointExtension>
        </extensions>
      </trkpt>
      <trkpt lat="46.6370116733014583587646484375" lon="6.86140238307416439056396484375">
        <ele>766.79998779296875</ele>
        <time>2013-08-15T17:35:29.000Z</time>
        <extensions>
          <ns3:TrackPointExtension>
            <ns3:atemp>15.0</ns3:atemp>
            <ns3:hr>141</ns3:hr>
          </ns3:TrackPointExtension>
        </extensions>
      </trkpt>
      <trkpt lat="46.63706414401531219482421875" lon="6.8614230863749980926513671875">
        <ele>766.79998779296875</ele>
        <time>2013-08-15T17:35:30.000Z</time>
        <extensions>
          <ns3:TrackPointExtension>
            <ns3:atemp>15.0</ns3:atemp>
            <ns3:hr>141</ns3:hr>
          </ns3:TrackPointExtension>
        </extensions>
      </trkpt>
      <trkpt lat="46.63711778819561004638671875" lon="6.861445046961307525634765625">
        <ele>766.79998779296875</ele>
        <time>2013-08-15T17:35:31.000Z</time>
        <extensions>
          <ns3:TrackPointExtension>
            <ns3:atemp>15.0</ns3:atemp>
            <ns3:hr>140</ns3:hr>
          </ns3:TrackPointExtension>
        </extensions>
      </trkpt>
      <trkpt lat="46.63717143237590789794921875" lon="6.86146977357566356658935546875">
        <ele>767</ele>
        <time>2013-08-15T17:35:32.000Z</time>
        <extensions>
          <ns3:TrackPointExtension>
            <ns3:atemp>15.0</ns3:atemp>
            <ns3:hr>140</ns3:hr>
          </ns3:TrackPointExtension>
        </extensions>
      </trkpt>
      <trkpt lat="46.6372279264032840728759765625" lon="6.8614901416003704071044921875">
        <ele>767</ele>
        <time>2013-08-15T17:35:33.000Z</time>
        <extensions>
          <ns3:TrackPointExtension>
            <ns3:atemp>15.0</ns3:atemp>
            <ns3:hr>140</ns3:hr>
          </ns3:TrackPointExtension>
        </extensions>
      </trkpt>
      <trkpt lat="46.63728517480194568634033203125" lon="6.86151570640504360198974609375">
        <ele>767</ele>
        <time>2013-08-15T17:35:34.000Z</time>
        <extensions>
          <ns3:TrackPointExtension>
            <ns3:atemp>15.0</ns3:atemp>
            <ns3:hr>141</ns3:hr>
          </ns3:TrackPointExtension>
        </extensions>
      </trkpt>
      <trkpt lat="46.63734451867640018463134765625" lon="6.86153833754360675811767578125">
        <ele>767</ele>
        <time>2013-08-15T17:35:35.000Z</time>
        <extensions>
          <ns3:TrackPointExtension>
            <ns3:atemp>15.0</ns3:atemp>
            <ns3:hr>141</ns3:hr>
          </ns3:TrackPointExtension>
        </extensions>
      </trkpt>
      <trkpt lat="46.63740470074117183685302734375" lon="6.8615605495870113372802734375">
        <ele>766.79998779296875</ele>
        <time>2013-08-15T17:35:36.000Z</time>
        <extensions>
          <ns3:TrackPointExtension>
            <ns3:atemp>15.0</ns3:atemp>
            <ns3:hr>140</ns3:hr>
          </ns3:TrackPointExtension>
        </extensions>
      </trkpt>
      <trkpt lat="46.637464798986911773681640625" lon="6.8615846894681453704833984375">
        <ele>766.5999755859375</ele>
        <time>2013-08-15T17:35:37.000Z</time>
        <extensions>
          <ns3:TrackPointExtension>
            <ns3:atemp>15.0</ns3:atemp>
            <ns3:hr>140</ns3:hr>
          </ns3:TrackPointExtension>
        </extensions>
      </trkpt>
      <trkpt lat="46.6375263221561908721923828125" lon="6.861608326435089111328125">
        <ele>766.5999755859375</ele>
        <time>2013-08-15T17:35:38.000Z</time>
        <extensions>
          <ns3:TrackPointExtension>
            <ns3:atemp>15.0</ns3:atemp>
            <ns3:hr>140</ns3:hr>
          </ns3:TrackPointExtension>
        </extensions>
      </trkpt>
      <trkpt lat="46.6375896893441677093505859375" lon="6.8616333045065402984619140625">
        <ele>766.79998779296875</ele>
        <time>2013-08-15T17:35:39.000Z</time>
        <extensions>
          <ns3:TrackPointExtension>
            <ns3:atemp>15.0</ns3:atemp>
            <ns3:hr>140</ns3:hr>
          </ns3:TrackPointExtension>
        </extensions>
      </trkpt>
      <trkpt lat="46.6376540623605251312255859375" lon="6.8616641499102115631103515625">
        <ele>766.79998779296875</ele>
        <time>2013-08-15T17:35:40.000Z</time>
        <extensions>
          <ns3:TrackPointExtension>
            <ns3:atemp>15.0</ns3:atemp>
            <ns3:hr>140</ns3:hr>
          </ns3:TrackPointExtension>
        </extensions>
      </trkpt>
      <trkpt lat="46.6377181001007556915283203125" lon="6.861689798533916473388671875">
        <ele>766.5999755859375</ele>
        <time>2013-08-15T17:35:41.000Z</time>
        <extensions>
          <ns3:TrackPointExtension>
            <ns3:atemp>15.0</ns3:atemp>
            <ns3:hr>139</ns3:hr>
          </ns3:TrackPointExtension>
        </extensions>
      </trkpt>
      <trkpt lat="46.637778617441654205322265625" lon="6.86171888373792171478271484375">
        <ele>766.20001220703125</ele>
        <time>2013-08-15T17:35:42.000Z</time>
        <extensions>
          <ns3:TrackPointExtension>
            <ns3:atemp>15.0</ns3:atemp>
            <ns3:hr>139</ns3:hr>
          </ns3:TrackPointExtension>
        </extensions>
      </trkpt>
      <trkpt lat="46.6378398053348064422607421875" lon="6.86174486763775348663330078125">
        <ele>765.79998779296875</ele>
        <time>2013-08-15T17:35:43.000Z</time>
        <extensions>
          <ns3:TrackPointExtension>
            <ns3:atemp>15.0</ns3:atemp>
            <ns3:hr>138</ns3:hr>
          </ns3:TrackPointExtension>
        </extensions>
      </trkpt>
      <trkpt lat="46.63790007121860980987548828125" lon="6.861770935356616973876953125">
        <ele>765.4000244140625</ele>
        <time>2013-08-15T17:35:44.000Z</time>
        <extensions>
          <ns3:TrackPointExtension>
            <ns3:atemp>15.0</ns3:atemp>
            <ns3:hr>138</ns3:hr>
          </ns3:TrackPointExtension>
        </extensions>
      </trkpt>
      <trkpt lat="46.637960337102413177490234375" lon="6.86179582960903644561767578125">
        <ele>764.79998779296875</ele>
        <time>2013-08-15T17:35:45.000Z</time>
        <extensions>
          <ns3:TrackPointExtension>
            <ns3:atemp>15.0</ns3:atemp>
            <ns3:hr>137</ns3:hr>
          </ns3:TrackPointExtension>
        </extensions>
      </trkpt>
      <trkpt lat="46.63802035152912139892578125" lon="6.86182131059467792510986328125">
        <ele>764.5999755859375</ele>
        <time>2013-08-15T17:35:46.000Z</time>
        <extensions>
          <ns3:TrackPointExtension>
            <ns3:atemp>15.0</ns3:atemp>
            <ns3:hr>137</ns3:hr>
          </ns3:TrackPointExtension>
        </extensions>
      </trkpt>
      <trkpt lat="46.63808162324130535125732421875" lon="6.8618495576083660125732421875">
        <ele>764.5999755859375</ele>
        <time>2013-08-15T17:35:47.000Z</time>
        <extensions>
          <ns3:TrackPointExtension>
            <ns3:atemp>15.0</ns3:atemp>
            <ns3:hr>136</ns3:hr>
          </ns3:TrackPointExtension>
        </extensions>
      </trkpt>
      <trkpt lat="46.63814239203929901123046875" lon="6.861875541508197784423828125">
        <ele>764.4000244140625</ele>
        <time>2013-08-15T17:35:48.000Z</time>
        <extensions>
          <ns3:TrackPointExtension>
            <ns3:atemp>15.0</ns3:atemp>
            <ns3:hr>136</ns3:hr>
          </ns3:TrackPointExtension>
        </extensions>
      </trkpt>
      <trkpt lat="46.63820416666567325592041015625" lon="6.861901693046092987060546875">
        <ele>764</ele>
        <time>2013-08-15T17:35:49.000Z</time>
        <extensions>
          <ns3:TrackPointExtension>
            <ns3:atemp>15.0</ns3:atemp>
            <ns3:hr>135</ns3:hr>
          </ns3:TrackPointExtension>
        </extensions>
      </trkpt>
      <trkpt lat="46.63826703093945980072021484375" lon="6.86192960478365421295166015625">
        <ele>763.79998779296875</ele>
        <time>2013-08-15T17:35:50.000Z</time>
        <extensions>
          <ns3:TrackPointExtension>
            <ns3:atemp>15.0</ns3:atemp>
            <ns3:hr>135</ns3:hr>
          </ns3:TrackPointExtension>
        </extensions>
      </trkpt>
      <trkpt lat="46.6383294761180877685546875" lon="6.861956007778644561767578125">
        <ele>763.79998779296875</ele>
        <time>2013-08-15T17:35:51.000Z</time>
        <extensions>
          <ns3:TrackPointExtension>
            <ns3:atemp>15.0</ns3:atemp>
            <ns3:hr>135</ns3:hr>
          </ns3:TrackPointExtension>
        </extensions>
      </trkpt>
      <trkpt lat="46.63839158602058887481689453125" lon="6.8619819916784763336181640625">
        <ele>763.79998779296875</ele>
        <time>2013-08-15T17:35:52.000Z</time>
        <extensions>
          <ns3:TrackPointExtension>
            <ns3:atemp>15.0</ns3:atemp>
            <ns3:hr>135</ns3:hr>
          </ns3:TrackPointExtension>
        </extensions>
      </trkpt>
      <trkpt lat="46.6384536959230899810791015625" lon="6.8620094843208789825439453125">
        <ele>763.5999755859375</ele>
        <time>2013-08-15T17:35:53.000Z</time>
        <extensions>
          <ns3:TrackPointExtension>
            <ns3:atemp>15.0</ns3:atemp>
            <ns3:hr>134</ns3:hr>
          </ns3:TrackPointExtension>
        </extensions>
      </trkpt>
      <trkpt lat="46.638515554368495941162109375" lon="6.862032450735569000244140625">
        <ele>763.4000244140625</ele>
        <time>2013-08-15T17:35:54.000Z</time>
        <extensions>
          <ns3:TrackPointExtension>
            <ns3:atemp>15.0</ns3:atemp>
            <ns3:hr>134</ns3:hr>
          </ns3:TrackPointExtension>
        </extensions>
      </trkpt>
      <trkpt lat="46.6385797597467899322509765625" lon="6.8620560877025127410888671875">
        <ele>763</ele>
        <time>2013-08-15T17:35:55.000Z</time>
        <extensions>
          <ns3:TrackPointExtension>
            <ns3:atemp>15.0</ns3:atemp>
            <ns3:hr>134</ns3:hr>
          </ns3:TrackPointExtension>
        </extensions>
      </trkpt>
      <trkpt lat="46.63864396512508392333984375" lon="6.862080059945583343505859375">
        <ele>762.79998779296875</ele>
        <time>2013-08-15T17:35:56.000Z</time>
        <extensions>
          <ns3:TrackPointExtension>
            <ns3:atemp>15.0</ns3:atemp>
            <ns3:hr>133</ns3:hr>
          </ns3:TrackPointExtension>
        </extensions>
      </trkpt>
      <trkpt lat="46.63870758377015590667724609375" lon="6.86209925450384616851806640625">
        <ele>762.5999755859375</ele>
        <time>2013-08-15T17:35:57.000Z</time>
        <extensions>
          <ns3:TrackPointExtension>
            <ns3:atemp>15.0</ns3:atemp>
            <ns3:hr>133</ns3:hr>
          </ns3:TrackPointExtension>
        </extensions>
      </trkpt>
      <trkpt lat="46.63877078332006931304931640625" lon="6.86210763640701770782470703125">
        <ele>762.4000244140625</ele>
        <time>2013-08-15T17:35:58.000Z</time>
        <extensions>
          <ns3:TrackPointExtension>
            <ns3:atemp>15.0</ns3:atemp>
            <ns3:hr>132</ns3:hr>
          </ns3:TrackPointExtension>
        </extensions>
      </trkpt>
      <trkpt lat="46.6388312168419361114501953125" lon="6.862133033573627471923828125">
        <ele>762</ele>
        <time>2013-08-15T17:35:59.000Z</time>
        <extensions>
          <ns3:TrackPointExtension>
            <ns3:atemp>15.0</ns3:atemp>
            <ns3:hr>132</ns3:hr>
          </ns3:TrackPointExtension>
        </extensions>
      </trkpt>
      <trkpt lat="46.63888662122189998626708984375" lon="6.86217603273689746856689453125">
        <ele>762</ele>
        <time>2013-08-15T17:36:00.000Z</time>
        <extensions>
          <ns3:TrackPointExtension>
            <ns3:atemp>15.0</ns3:atemp>
            <ns3:hr>131</ns3:hr>
          </ns3:TrackPointExtension>
        </extensions>
      </trkpt>
      <trkpt lat="46.63893523626029491424560546875" lon="6.86223286204040050506591796875">
        <ele>762.20001220703125</ele>
        <time>2013-08-15T17:36:01.000Z</time>
        <extensions>
          <ns3:TrackPointExtension>
            <ns3:atemp>15.0</ns3:atemp>
            <ns3:hr>130</ns3:hr>
          </ns3:TrackPointExtension>
        </extensions>
      </trkpt>
      <trkpt lat="46.63898435421288013458251953125" lon="6.862295307219028472900390625">
        <ele>762.20001220703125</ele>
        <time>2013-08-15T17:36:02.000Z</time>
        <extensions>
          <ns3:TrackPointExtension>
            <ns3:atemp>15.0</ns3:atemp>
            <ns3:hr>130</ns3:hr>
          </ns3:TrackPointExtension>
        </extensions>
      </trkpt>
      <trkpt lat="46.6390307061374187469482421875" lon="6.86236445792019367218017578125">
        <ele>761.79998779296875</ele>
        <time>2013-08-15T17:36:03.000Z</time>
        <extensions>
          <ns3:TrackPointExtension>
            <ns3:atemp>15.0</ns3:atemp>
            <ns3:hr>129</ns3:hr>
          </ns3:TrackPointExtension>
        </extensions>
      </trkpt>
      <trkpt lat="46.63907404057681560516357421875" lon="6.86243318952620029449462890625">
        <ele>761.5999755859375</ele>
        <time>2013-08-15T17:36:04.000Z</time>
        <extensions>
          <ns3:TrackPointExtension>
            <ns3:atemp>15.0</ns3:atemp>
            <ns3:hr>129</ns3:hr>
          </ns3:TrackPointExtension>
        </extensions>
      </trkpt>
      <trkpt lat="46.6391188837587833404541015625" lon="6.86250611208379268646240234375">
        <ele>761.20001220703125</ele>
        <time>2013-08-15T17:36:05.000Z</time>
        <extensions>
          <ns3:TrackPointExtension>
            <ns3:atemp>15.0</ns3:atemp>
            <ns3:hr>129</ns3:hr>
          </ns3:TrackPointExtension>
        </extensions>
      </trkpt>
      <trkpt lat="46.63916565477848052978515625" lon="6.86257501132786273956298828125">
        <ele>761.20001220703125</ele>
        <time>2013-08-15T17:36:06.000Z</time>
        <extensions>
          <ns3:TrackPointExtension>
            <ns3:atemp>15.0</ns3:atemp>
            <ns3:hr>129</ns3:hr>
          </ns3:TrackPointExtension>
        </extensions>
      </trkpt>
      <trkpt lat="46.63921301253139972686767578125" lon="6.862648017704486846923828125">
        <ele>760.4000244140625</ele>
        <time>2013-08-15T17:36:07.000Z</time>
        <extensions>
          <ns3:TrackPointExtension>
            <ns3:atemp>15.0</ns3:atemp>
            <ns3:hr>128</ns3:hr>
          </ns3:TrackPointExtension>
        </extensions>
      </trkpt>
      <trkpt lat="46.63925684988498687744140625" lon="6.86273007653653621673583984375">
        <ele>760.20001220703125</ele>
        <time>2013-08-15T17:36:08.000Z</time>
        <extensions>
          <ns3:TrackPointExtension>
            <ns3:atemp>15.0</ns3:atemp>
            <ns3:hr>128</ns3:hr>
          </ns3:TrackPointExtension>
        </extensions>
      </trkpt>
      <trkpt lat="46.63929708302021026611328125" lon="6.86281389556825160980224609375">
        <ele>759.79998779296875</ele>
        <time>2013-08-15T17:36:09.000Z</time>
        <extensions>
          <ns3:TrackPointExtension>
            <ns3:atemp>15.0</ns3:atemp>
            <ns3:hr>127</ns3:hr>
          </ns3:TrackPointExtension>
        </extensions>
      </trkpt>
      <trkpt lat="46.6393354721367359161376953125" lon="6.86290425248444080352783203125">
        <ele>759.5999755859375</ele>
        <time>2013-08-15T17:36:10.000Z</time>
        <extensions>
          <ns3:TrackPointExtension>
            <ns3:atemp>15.0</ns3:atemp>
            <ns3:hr>126</ns3:hr>
          </ns3:TrackPointExtension>
        </extensions>
      </trkpt>
      <trkpt lat="46.63937352597713470458984375" lon="6.86299167573451995849609375">
        <ele>759</ele>
        <time>2013-08-15T17:36:11.000Z</time>
        <extensions>
          <ns3:TrackPointExtension>
            <ns3:atemp>15.0</ns3:atemp>
            <ns3:hr>126</ns3:hr>
          </ns3:TrackPointExtension>
        </extensions>
      </trkpt>
      <trkpt lat="46.63941334001719951629638671875" lon="6.86307289637625217437744140625">
        <ele>758.5999755859375</ele>
        <time>2013-08-15T17:36:12.000Z</time>
        <extensions>
          <ns3:TrackPointExtension>
            <ns3:atemp>16.0</ns3:atemp>
            <ns3:hr>125</ns3:hr>
          </ns3:TrackPointExtension>
        </extensions>
      </trkpt>
      <trkpt lat="46.6394528187811374664306640625" lon="6.86314883641898632049560546875">
        <ele>757.79998779296875</ele>
        <time>2013-08-15T17:36:13.000Z</time>
        <extensions>
          <ns3:TrackPointExtension>
            <ns3:atemp>16.0</ns3:atemp>
            <ns3:hr>124</ns3:hr>
          </ns3:TrackPointExtension>
        </extensions>
      </trkpt>
      <trkpt lat="46.63949766196310520172119140625" lon="6.863225363194942474365234375">
        <ele>757.20001220703125</ele>
        <time>2013-08-15T17:36:14.000Z</time>
        <extensions>
          <ns3:TrackPointExtension>
            <ns3:atemp>16.0</ns3:atemp>
            <ns3:hr>124</ns3:hr>
          </ns3:TrackPointExtension>
        </extensions>
      </trkpt>
      <trkpt lat="46.63954845629632472991943359375" lon="6.86329283751547336578369140625">
        <ele>756.79998779296875</ele>
        <time>2013-08-15T17:36:15.000Z</time>
        <extensions>
          <ns3:TrackPointExtension>
            <ns3:atemp>16.0</ns3:atemp>
            <ns3:hr>124</ns3:hr>
          </ns3:TrackPointExtension>
        </extensions>
      </trkpt>
      <trkpt lat="46.63960008881986141204833984375" lon="6.86335067264735698699951171875">
        <ele>756</ele>
        <time>2013-08-15T17:36:16.000Z</time>
        <extensions>
          <ns3:TrackPointExtension>
            <ns3:atemp>16.0</ns3:atemp>
            <ns3:hr>123</ns3:hr>
          </ns3:TrackPointExtension>
        </extensions>
      </trkpt>
      <trkpt lat="46.6396513022482395172119140625" lon="6.8634040653705596923828125">
        <ele>755.4000244140625</ele>
        <time>2013-08-15T17:36:17.000Z</time>
        <extensions>
          <ns3:TrackPointExtension>
            <ns3:atemp>16.0</ns3:atemp>
            <ns3:hr>123</ns3:hr>
          </ns3:TrackPointExtension>
        </extensions>
      </trkpt>
      <trkpt lat="46.63970368914306163787841796875" lon="6.86345142312347888946533203125">
        <ele>754.79998779296875</ele>
        <time>2013-08-15T17:36:18.000Z</time>
        <extensions>
          <ns3:TrackPointExtension>
            <ns3:atemp>16.0</ns3:atemp>
            <ns3:hr>122</ns3:hr>
          </ns3:TrackPointExtension>
        </extensions>
      </trkpt>
      <trkpt lat="46.63975632749497890472412109375" lon="6.86348360963165760040283203125">
        <ele>754.20001220703125</ele>
        <time>2013-08-15T17:36:19.000Z</time>
        <extensions>
          <ns3:TrackPointExtension>
            <ns3:atemp>16.0</ns3:atemp>
            <ns3:hr>120</ns3:hr>
          </ns3:TrackPointExtension>
        </extensions>
      </trkpt>
      <trkpt lat="46.63980879820883274078369140625" lon="6.86351110227406024932861328125">
        <ele>753.5999755859375</ele>
        <time>2013-08-15T17:36:20.000Z</time>
        <extensions>
          <ns3:TrackPointExtension>
            <ns3:atemp>16.0</ns3:atemp>
            <ns3:hr>120</ns3:hr>
          </ns3:TrackPointExtension>
        </extensions>
      </trkpt>
      <trkpt lat="46.6398615203797817230224609375" lon="6.8635269440710544586181640625">
        <ele>752.5999755859375</ele>
        <time>2013-08-15T17:36:21.000Z</time>
        <extensions>
          <ns3:TrackPointExtension>
            <ns3:atemp>16.0</ns3:atemp>
            <ns3:hr>120</ns3:hr>
          </ns3:TrackPointExtension>
        </extensions>
      </trkpt>
      <trkpt lat="46.63991935551166534423828125" lon="6.863543875515460968017578125">
        <ele>751.79998779296875</ele>
        <time>2013-08-15T17:36:22.000Z</time>
        <extensions>
          <ns3:TrackPointExtension>
            <ns3:atemp>16.0</ns3:atemp>
            <ns3:hr>119</ns3:hr>
          </ns3:TrackPointExtension>
        </extensions>
      </trkpt>
      <trkpt lat="46.6399849019944667816162109375" lon="6.8635658361017704010009765625">
        <ele>751</ele>
        <time>2013-08-15T17:36:23.000Z</time>
        <extensions>
          <ns3:TrackPointExtension>
            <ns3:atemp>16.0</ns3:atemp>
            <ns3:hr>119</ns3:hr>
          </ns3:TrackPointExtension>
        </extensions>
      </trkpt>
      <trkpt lat="46.64005204103887081146240234375" lon="6.86358318664133548736572265625">
        <ele>750.5999755859375</ele>
        <time>2013-08-15T17:36:24.000Z</time>
        <extensions>
          <ns3:TrackPointExtension>
            <ns3:atemp>16.0</ns3:atemp>
            <ns3:hr>118</ns3:hr>
          </ns3:TrackPointExtension>
        </extensions>
      </trkpt>
      <trkpt lat="46.64011524058878421783447265625" lon="6.863603554666042327880859375">
        <ele>750.20001220703125</ele>
        <time>2013-08-15T17:36:25.000Z</time>
        <extensions>
          <ns3:TrackPointExtension>
            <ns3:atemp>16.0</ns3:atemp>
            <ns3:hr>118</ns3:hr>
          </ns3:TrackPointExtension>
        </extensions>
      </trkpt>
      <trkpt lat="46.6401780210435390472412109375" lon="6.8636271916329860687255859375">
        <ele>749.4000244140625</ele>
        <time>2013-08-15T17:36:26.000Z</time>
        <extensions>
          <ns3:TrackPointExtension>
            <ns3:atemp>16.0</ns3:atemp>
            <ns3:hr>118</ns3:hr>
          </ns3:TrackPointExtension>
        </extensions>
      </trkpt>
      <trkpt lat="46.6402326710522174835205078125" lon="6.8636560253798961639404296875">
        <ele>748.20001220703125</ele>
        <time>2013-08-15T17:36:27.000Z</time>
        <extensions>
          <ns3:TrackPointExtension>
            <ns3:atemp>16.0</ns3:atemp>
            <ns3:hr>119</ns3:hr>
          </ns3:TrackPointExtension>
        </extensions>
      </trkpt>
      <trkpt lat="46.64028304629027843475341796875" lon="6.86369332484900951385498046875">
        <ele>747.20001220703125</ele>
        <time>2013-08-15T17:36:28.000Z</time>
        <extensions>
          <ns3:TrackPointExtension>
            <ns3:atemp>16.0</ns3:atemp>
            <ns3:hr>119</ns3:hr>
          </ns3:TrackPointExtension>
        </extensions>
      </trkpt>
      <trkpt lat="46.6403345949947834014892578125" lon="6.86372869648039340972900390625">
        <ele>746.4000244140625</ele>
        <time>2013-08-15T17:36:29.000Z</time>
        <extensions>
          <ns3:TrackPointExtension>
            <ns3:atemp>15.0</ns3:atemp>
            <ns3:hr>119</ns3:hr>
          </ns3:TrackPointExtension>
        </extensions>
      </trkpt>
      <trkpt lat="46.64038396440446376800537109375" lon="6.86375132761895656585693359375">
        <ele>746</ele>
        <time>2013-08-15T17:36:30.000Z</time>
        <extensions>
          <ns3:TrackPointExtension>
            <ns3:atemp>16.0</ns3:atemp>
            <ns3:hr>119</ns3:hr>
          </ns3:TrackPointExtension>
        </extensions>
      </trkpt>
      <trkpt lat="46.6404294781386852264404296875" lon="6.86377362348139286041259765625">
        <ele>744.4000244140625</ele>
        <time>2013-08-15T17:36:31.000Z</time>
        <extensions>
          <ns3:TrackPointExtension>
            <ns3:atemp>15.0</ns3:atemp>
            <ns3:hr>119</ns3:hr>
          </ns3:TrackPointExtension>
        </extensions>
      </trkpt>
      <trkpt lat="46.6404703818261623382568359375" lon="6.86378829181194305419921875">
        <ele>743.4000244140625</ele>
        <time>2013-08-15T17:36:32.000Z</time>
        <extensions>
          <ns3:TrackPointExtension>
            <ns3:atemp>15.0</ns3:atemp>
            <ns3:hr>119</ns3:hr>
          </ns3:TrackPointExtension>
        </extensions>
      </trkpt>
      <trkpt lat="46.6405136324465274810791015625" lon="6.86379977501928806304931640625">
        <ele>742.5999755859375</ele>
        <time>2013-08-15T17:36:33.000Z</time>
        <extensions>
          <ns3:TrackPointExtension>
            <ns3:atemp>15.0</ns3:atemp>
            <ns3:hr>119</ns3:hr>
          </ns3:TrackPointExtension>
        </extensions>
      </trkpt>
      <trkpt lat="46.640567444264888763427734375" lon="6.86382994987070560455322265625">
        <ele>741.79998779296875</ele>
        <time>2013-08-15T17:36:34.000Z</time>
        <extensions>
          <ns3:TrackPointExtension>
            <ns3:atemp>15.0</ns3:atemp>
            <ns3:hr>119</ns3:hr>
          </ns3:TrackPointExtension>
        </extensions>
      </trkpt>
      <trkpt lat="46.6406105272471904754638671875" lon="6.86386465094983577728271484375">
        <ele>741.20001220703125</ele>
        <time>2013-08-15T17:36:35.000Z</time>
        <extensions>
          <ns3:TrackPointExtension>
            <ns3:atemp>15.0</ns3:atemp>
            <ns3:hr>119</ns3:hr>
          </ns3:TrackPointExtension>
        </extensions>
      </trkpt>
      <trkpt lat="46.6406527720391750335693359375" lon="6.86390630900859832763671875">
        <ele>740.5999755859375</ele>
        <time>2013-08-15T17:36:36.000Z</time>
        <extensions>
          <ns3:TrackPointExtension>
            <ns3:atemp>15.0</ns3:atemp>
            <ns3:hr>118</ns3:hr>
          </ns3:TrackPointExtension>
        </extensions>
      </trkpt>
      <trkpt lat="46.640686802566051483154296875" lon="6.86394914053380489349365234375">
        <ele>739.79998779296875</ele>
        <time>2013-08-15T17:36:37.000Z</time>
        <extensions>
          <ns3:TrackPointExtension>
            <ns3:atemp>15.0</ns3:atemp>
            <ns3:hr>118</ns3:hr>
          </ns3:TrackPointExtension>
        </extensions>
      </trkpt>
      <trkpt lat="46.64071387611329555511474609375" lon="6.86400060541927814483642578125">
        <ele>739</ele>
        <time>2013-08-15T17:36:38.000Z</time>
        <extensions>
          <ns3:TrackPointExtension>
            <ns3:atemp>15.0</ns3:atemp>
            <ns3:hr>118</ns3:hr>
          </ns3:TrackPointExtension>
        </extensions>
      </trkpt>
      <trkpt lat="46.6407479904592037200927734375" lon="6.864052824676036834716796875">
        <ele>738.20001220703125</ele>
        <time>2013-08-15T17:36:39.000Z</time>
        <extensions>
          <ns3:TrackPointExtension>
            <ns3:atemp>15.0</ns3:atemp>
            <ns3:hr>118</ns3:hr>
          </ns3:TrackPointExtension>
        </extensions>
      </trkpt>
      <trkpt lat="46.6407930850982666015625" lon="6.8641022779047489166259765625">
        <ele>737.5999755859375</ele>
        <time>2013-08-15T17:36:40.000Z</time>
        <extensions>
          <ns3:TrackPointExtension>
            <ns3:atemp>15.0</ns3:atemp>
            <ns3:hr>117</ns3:hr>
          </ns3:TrackPointExtension>
        </extensions>
      </trkpt>
      <trkpt lat="46.64084245450794696807861328125" lon="6.8641465343534946441650390625">
        <ele>736.79998779296875</ele>
        <time>2013-08-15T17:36:41.000Z</time>
        <extensions>
          <ns3:TrackPointExtension>
            <ns3:atemp>15.0</ns3:atemp>
            <ns3:hr>117</ns3:hr>
          </ns3:TrackPointExtension>
        </extensions>
      </trkpt>
      <trkpt lat="46.64089031517505645751953125" lon="6.86418215744197368621826171875">
        <ele>736.20001220703125</ele>
        <time>2013-08-15T17:36:42.000Z</time>
        <extensions>
          <ns3:TrackPointExtension>
            <ns3:atemp>15.0</ns3:atemp>
            <ns3:hr>117</ns3:hr>
          </ns3:TrackPointExtension>
        </extensions>
      </trkpt>
      <trkpt lat="46.6409377567470073699951171875" lon="6.86421216465532779693603515625">
        <ele>735.5999755859375</ele>
        <time>2013-08-15T17:36:43.000Z</time>
        <extensions>
          <ns3:TrackPointExtension>
            <ns3:atemp>15.0</ns3:atemp>
            <ns3:hr>117</ns3:hr>
          </ns3:TrackPointExtension>
        </extensions>
      </trkpt>
      <trkpt lat="46.6409860365092754364013671875" lon="6.86424820683896541595458984375">
        <ele>735.20001220703125</ele>
        <time>2013-08-15T17:36:44.000Z</time>
        <extensions>
          <ns3:TrackPointExtension>
            <ns3:atemp>15.0</ns3:atemp>
            <ns3:hr>117</ns3:hr>
          </ns3:TrackPointExtension>
        </extensions>
      </trkpt>
      <trkpt lat="46.641037166118621826171875" lon="6.86429095454514026641845703125">
        <ele>735</ele>
        <time>2013-08-15T17:36:45.000Z</time>
        <extensions>
          <ns3:TrackPointExtension>
            <ns3:atemp>15.0</ns3:atemp>
            <ns3:hr>117</ns3:hr>
          </ns3:TrackPointExtension>
        </extensions>
      </trkpt>
      <trkpt lat="46.641081757843494415283203125" lon="6.8643401563167572021484375">
        <ele>734.5999755859375</ele>
        <time>2013-08-15T17:36:46.000Z</time>
        <extensions>
          <ns3:TrackPointExtension>
            <ns3:atemp>15.0</ns3:atemp>
            <ns3:hr>117</ns3:hr>
          </ns3:TrackPointExtension>
        </extensions>
      </trkpt>
      <trkpt lat="46.64111117832362651824951171875" lon="6.86438466422259807586669921875">
        <ele>734</ele>
        <time>2013-08-15T17:36:47.000Z</time>
        <extensions>
          <ns3:TrackPointExtension>
            <ns3:atemp>15.0</ns3:atemp>
            <ns3:hr>117</ns3:hr>
          </ns3:TrackPointExtension>
        </extensions>
      </trkpt>
      <trkpt lat="46.6411499865353107452392578125" lon="6.86442397534847259521484375">
        <ele>733.4000244140625</ele>
        <time>2013-08-15T17:36:48.000Z</time>
        <extensions>
          <ns3:TrackPointExtension>
            <ns3:atemp>15.0</ns3:atemp>
            <ns3:hr>116</ns3:hr>
          </ns3:TrackPointExtension>
        </extensions>
      </trkpt>
      <trkpt lat="46.6411935724318027496337890625" lon="6.86445088125765323638916015625">
        <ele>732.79998779296875</ele>
        <time>2013-08-15T17:36:49.000Z</time>
        <extensions>
          <ns3:TrackPointExtension>
            <ns3:atemp>15.0</ns3:atemp>
            <ns3:hr>116</ns3:hr>
          </ns3:TrackPointExtension>
        </extensions>
      </trkpt>
      <trkpt lat="46.6412418521940708160400390625" lon="6.8644715845584869384765625">
        <ele>732.79998779296875</ele>
        <time>2013-08-15T17:36:50.000Z</time>
        <extensions>
          <ns3:TrackPointExtension>
            <ns3:atemp>15.0</ns3:atemp>
            <ns3:hr>116</ns3:hr>
          </ns3:TrackPointExtension>
        </extensions>
      </trkpt>
      <trkpt lat="46.64129273034632205963134765625" lon="6.8644861690700054168701171875">
        <ele>732.4000244140625</ele>
        <time>2013-08-15T17:36:51.000Z</time>
        <extensions>
          <ns3:TrackPointExtension>
            <ns3:atemp>15.0</ns3:atemp>
            <ns3:hr>117</ns3:hr>
          </ns3:TrackPointExtension>
        </extensions>
      </trkpt>
      <trkpt lat="46.64134419523179531097412109375" lon="6.86449329368770122528076171875">
        <ele>732.4000244140625</ele>
        <time>2013-08-15T17:36:52.000Z</time>
        <extensions>
          <ns3:TrackPointExtension>
            <ns3:atemp>15.0</ns3:atemp>
            <ns3:hr>117</ns3:hr>
          </ns3:TrackPointExtension>
        </extensions>
      </trkpt>
      <trkpt lat="46.64139431901276111602783203125" lon="6.86449077911674976348876953125">
        <ele>732</ele>
        <time>2013-08-15T17:36:53.000Z</time>
        <extensions>
          <ns3:TrackPointExtension>
            <ns3:atemp>15.0</ns3:atemp>
            <ns3:hr>117</ns3:hr>
          </ns3:TrackPointExtension>
        </extensions>
      </trkpt>
      <trkpt lat="46.6414473764598369598388671875" lon="6.8644715845584869384765625">
        <ele>731.79998779296875</ele>
        <time>2013-08-15T17:36:54.000Z</time>
        <extensions>
          <ns3:TrackPointExtension>
            <ns3:atemp>15.0</ns3:atemp>
            <ns3:hr>118</ns3:hr>
          </ns3:TrackPointExtension>
        </extensions>
      </trkpt>
      <trkpt lat="46.64150261320173740386962890625" lon="6.86445255763828754425048828125">
        <ele>731.5999755859375</ele>
        <time>2013-08-15T17:36:55.000Z</time>
        <extensions>
          <ns3:TrackPointExtension>
            <ns3:atemp>15.0</ns3:atemp>
            <ns3:hr>118</ns3:hr>
          </ns3:TrackPointExtension>
        </extensions>
      </trkpt>
      <trkpt lat="46.64155810140073299407958984375" lon="6.86442137695848941802978515625">
        <ele>732.20001220703125</ele>
        <time>2013-08-15T17:36:56.000Z</time>
        <extensions>
          <ns3:TrackPointExtension>
            <ns3:atemp>15.0</ns3:atemp>
            <ns3:hr>118</ns3:hr>
          </ns3:TrackPointExtension>
        </extensions>
      </trkpt>
      <trkpt lat="46.64161593653261661529541015625" lon="6.86439220793545246124267578125">
        <ele>732.4000244140625</ele>
        <time>2013-08-15T17:36:57.000Z</time>
        <extensions>
          <ns3:TrackPointExtension>
            <ns3:atemp>15.0</ns3:atemp>
            <ns3:hr>118</ns3:hr>
          </ns3:TrackPointExtension>
        </extensions>
      </trkpt>
      <trkpt lat="46.641671843826770782470703125" lon="6.864355914294719696044921875">
        <ele>732.4000244140625</ele>
        <time>2013-08-15T17:36:58.000Z</time>
        <extensions>
          <ns3:TrackPointExtension>
            <ns3:atemp>15.0</ns3:atemp>
            <ns3:hr>118</ns3:hr>
          </ns3:TrackPointExtension>
        </extensions>
      </trkpt>
      <trkpt lat="46.64172674529254436492919921875" lon="6.8643192015588283538818359375">
        <ele>732.20001220703125</ele>
        <time>2013-08-15T17:36:59.000Z</time>
        <extensions>
          <ns3:TrackPointExtension>
            <ns3:atemp>15.0</ns3:atemp>
            <ns3:hr>119</ns3:hr>
          </ns3:TrackPointExtension>
        </extensions>
      </trkpt>
      <trkpt lat="46.6417813114821910858154296875" lon="6.86428274028003215789794921875">
        <ele>732.20001220703125</ele>
        <time>2013-08-15T17:37:00.000Z</time>
        <extensions>
          <ns3:TrackPointExtension>
            <ns3:atemp>15.0</ns3:atemp>
            <ns3:hr>120</ns3:hr>
          </ns3:TrackPointExtension>
        </extensions>
      </trkpt>
      <trkpt lat="46.64183889515697956085205078125" lon="6.86424820683896541595458984375">
        <ele>732.20001220703125</ele>
        <time>2013-08-15T17:37:01.000Z</time>
        <extensions>
          <ns3:TrackPointExtension>
            <ns3:atemp>15.0</ns3:atemp>
            <ns3:hr>120</ns3:hr>
          </ns3:TrackPointExtension>
        </extensions>
      </trkpt>
      <trkpt lat="46.6418941318988800048828125" lon="6.8642172776162624359130859375">
        <ele>732.20001220703125</ele>
        <time>2013-08-15T17:37:02.000Z</time>
        <extensions>
          <ns3:TrackPointExtension>
            <ns3:atemp>15.0</ns3:atemp>
            <ns3:hr>121</ns3:hr>
          </ns3:TrackPointExtension>
        </extensions>
      </trkpt>
      <trkpt lat="46.64194584824144840240478515625" lon="6.8641901202499866485595703125">
        <ele>732.4000244140625</ele>
        <time>2013-08-15T17:37:03.000Z</time>
        <extensions>
          <ns3:TrackPointExtension>
            <ns3:atemp>15.0</ns3:atemp>
            <ns3:hr>122</ns3:hr>
          </ns3:TrackPointExtension>
        </extensions>
      </trkpt>
      <trkpt lat="46.6419975645840167999267578125" lon="6.8641666509211063385009765625">
        <ele>732.79998779296875</ele>
        <time>2013-08-15T17:37:04.000Z</time>
        <extensions>
          <ns3:TrackPointExtension>
            <ns3:atemp>15.0</ns3:atemp>
            <ns3:hr>122</ns3:hr>
          </ns3:TrackPointExtension>
        </extensions>
      </trkpt>
      <trkpt lat="46.642051041126251220703125" lon="6.8641502223908901214599609375">
        <ele>732.5999755859375</ele>
        <time>2013-08-15T17:37:05.000Z</time>
        <extensions>
          <ns3:TrackPointExtension>
            <ns3:atemp>15.0</ns3:atemp>
            <ns3:hr>123</ns3:hr>
          </ns3:TrackPointExtension>
        </extensions>
      </trkpt>
      <trkpt lat="46.64210527203977108001708984375" lon="6.86412801034748554229736328125">
        <ele>732.4000244140625</ele>
        <time>2013-08-15T17:37:06.000Z</time>
        <extensions>
          <ns3:TrackPointExtension>
            <ns3:atemp>15.0</ns3:atemp>
            <ns3:hr>124</ns3:hr>
          </ns3:TrackPointExtension>
        </extensions>
      </trkpt>
      <trkpt lat="46.6421578265726566314697265625" lon="6.864113509654998779296875">
        <ele>732.4000244140625</ele>
        <time>2013-08-15T17:37:07.000Z</time>
        <extensions>
          <ns3:TrackPointExtension>
            <ns3:atemp>15.0</ns3:atemp>
            <ns3:hr>124</ns3:hr>
          </ns3:TrackPointExtension>
        </extensions>
      </trkpt>
      <trkpt lat="46.6422118060290813446044921875" lon="6.86410571448504924774169921875">
        <ele>732.4000244140625</ele>
        <time>2013-08-15T17:37:08.000Z</time>
        <extensions>
          <ns3:TrackPointExtension>
            <ns3:atemp>15.0</ns3:atemp>
            <ns3:hr>125</ns3:hr>
          </ns3:TrackPointExtension>
        </extensions>
      </trkpt>
      <trkpt lat="46.6422624327242374420166015625" lon="6.8640992604196071624755859375">
        <ele>732.79998779296875</ele>
        <time>2013-08-15T17:37:09.000Z</time>
        <extensions>
          <ns3:TrackPointExtension>
            <ns3:atemp>15.0</ns3:atemp>
            <ns3:hr>126</ns3:hr>
          </ns3:TrackPointExtension>
        </extensions>
      </trkpt>
      <trkpt lat="46.64231213741004467010498046875" lon="6.8640928901731967926025390625">
        <ele>733.20001220703125</ele>
        <time>2013-08-15T17:37:10.000Z</time>
        <extensions>
          <ns3:TrackPointExtension>
            <ns3:atemp>15.0</ns3:atemp>
            <ns3:hr>127</ns3:hr>
          </ns3:TrackPointExtension>
        </extensions>
      </trkpt>
      <trkpt lat="46.642356812953948974609375" lon="6.8640811555087566375732421875">
        <ele>733.5999755859375</ele>
        <time>2013-08-15T17:37:11.000Z</time>
        <extensions>
          <ns3:TrackPointExtension>
            <ns3:atemp>15.0</ns3:atemp>
            <ns3:hr>128</ns3:hr>
          </ns3:TrackPointExtension>
        </extensions>
      </trkpt>
      <trkpt lat="46.64240215905010700225830078125" lon="6.86405944637954235076904296875">
        <ele>733.5999755859375</ele>
        <time>2013-08-15T17:37:12.000Z</time>
        <extensions>
          <ns3:TrackPointExtension>
            <ns3:atemp>15.0</ns3:atemp>
            <ns3:hr>128</ns3:hr>
          </ns3:TrackPointExtension>
        </extensions>
      </trkpt>
      <trkpt lat="46.642448008060455322265625" lon="6.86403647996485233306884765625">
        <ele>733.5999755859375</ele>
        <time>2013-08-15T17:37:13.000Z</time>
        <extensions>
          <ns3:TrackPointExtension>
            <ns3:atemp>15.0</ns3:atemp>
            <ns3:hr>129</ns3:hr>
          </ns3:TrackPointExtension>
        </extensions>
      </trkpt>
      <trkpt lat="46.64248832501471042633056640625" lon="6.86399884521961212158203125">
        <ele>733.5999755859375</ele>
        <time>2013-08-15T17:37:14.000Z</time>
        <extensions>
          <ns3:TrackPointExtension>
            <ns3:atemp>15.0</ns3:atemp>
            <ns3:hr>130</ns3:hr>
          </ns3:TrackPointExtension>
        </extensions>
      </trkpt>
      <trkpt lat="46.64252738468348979949951171875" lon="6.8639614619314670562744140625">
        <ele>733.5999755859375</ele>
        <time>2013-08-15T17:37:15.000Z</time>
        <extensions>
          <ns3:TrackPointExtension>
            <ns3:atemp>15.0</ns3:atemp>
            <ns3:hr>130</ns3:hr>
          </ns3:TrackPointExtension>
        </extensions>
      </trkpt>
      <trkpt lat="46.64256359450519084930419921875" lon="6.8639218993484973907470703125">
        <ele>733.5999755859375</ele>
        <time>2013-08-15T17:37:16.000Z</time>
        <extensions>
          <ns3:TrackPointExtension>
            <ns3:atemp>15.0</ns3:atemp>
            <ns3:hr>131</ns3:hr>
          </ns3:TrackPointExtension>
        </extensions>
      </trkpt>
      <trkpt lat="46.6425926797091960906982421875" lon="6.8638679198920726776123046875">
        <ele>733.5999755859375</ele>
        <time>2013-08-15T17:37:17.000Z</time>
        <extensions>
          <ns3:TrackPointExtension>
            <ns3:atemp>15.0</ns3:atemp>
            <ns3:hr>131</ns3:hr>
          </ns3:TrackPointExtension>
        </extensions>
      </trkpt>
      <trkpt lat="46.6426174901425838470458984375" lon="6.86380530707538127899169921875">
        <ele>733.79998779296875</ele>
        <time>2013-08-15T17:37:18.000Z</time>
        <extensions>
          <ns3:TrackPointExtension>
            <ns3:atemp>15.0</ns3:atemp>
            <ns3:hr>132</ns3:hr>
          </ns3:TrackPointExtension>
        </extensions>
      </trkpt>
      <trkpt lat="46.64263651706278324127197265625" lon="6.8637374974787235260009765625">
        <ele>734.4000244140625</ele>
        <time>2013-08-15T17:37:19.000Z</time>
        <extensions>
          <ns3:TrackPointExtension>
            <ns3:atemp>15.0</ns3:atemp>
            <ns3:hr>132</ns3:hr>
          </ns3:TrackPointExtension>
        </extensions>
      </trkpt>
      <trkpt lat="46.642655543982982635498046875" lon="6.86366625130176544189453125">
        <ele>734.5999755859375</ele>
        <time>2013-08-15T17:37:20.000Z</time>
        <extensions>
          <ns3:TrackPointExtension>
            <ns3:atemp>15.0</ns3:atemp>
            <ns3:hr>132</ns3:hr>
          </ns3:TrackPointExtension>
        </extensions>
      </trkpt>
      <trkpt lat="46.64267205633223056793212890625" lon="6.86359592713415622711181640625">
        <ele>734.79998779296875</ele>
        <time>2013-08-15T17:37:21.000Z</time>
        <extensions>
          <ns3:TrackPointExtension>
            <ns3:atemp>15.0</ns3:atemp>
            <ns3:hr>133</ns3:hr>
          </ns3:TrackPointExtension>
        </extensions>
      </trkpt>
      <trkpt lat="46.642685718834400177001953125" lon="6.86352350749075412750244140625">
        <ele>735</ele>
        <time>2013-08-15T17:37:22.000Z</time>
        <extensions>
          <ns3:TrackPointExtension>
            <ns3:atemp>15.0</ns3:atemp>
            <ns3:hr>134</ns3:hr>
          </ns3:TrackPointExtension>
        </extensions>
      </trkpt>
      <trkpt lat="46.64269904606044292449951171875" lon="6.86345167458057403564453125">
        <ele>735.20001220703125</ele>
        <time>2013-08-15T17:37:23.000Z</time>
        <extensions>
          <ns3:TrackPointExtension>
            <ns3:atemp>15.0</ns3:atemp>
            <ns3:hr>134</ns3:hr>
          </ns3:TrackPointExtension>
        </extensions>
      </trkpt>
      <trkpt lat="46.642709188163280487060546875" lon="6.86337783001363277435302734375">
        <ele>735.20001220703125</ele>
        <time>2013-08-15T17:37:24.000Z</time>
        <extensions>
          <ns3:TrackPointExtension>
            <ns3:atemp>15.0</ns3:atemp>
            <ns3:hr>135</ns3:hr>
          </ns3:TrackPointExtension>
        </extensions>
      </trkpt>
      <trkpt lat="46.64272033609449863433837890625" lon="6.86330742202699184417724609375">
        <ele>735.20001220703125</ele>
        <time>2013-08-15T17:37:25.000Z</time>
        <extensions>
          <ns3:TrackPointExtension>
            <ns3:atemp>15.0</ns3:atemp>
            <ns3:hr>135</ns3:hr>
          </ns3:TrackPointExtension>
        </extensions>
      </trkpt>
      <trkpt lat="46.642735004425048828125" lon="6.86323449946939945220947265625">
        <ele>735.20001220703125</ele>
        <time>2013-08-15T17:37:26.000Z</time>
        <extensions>
          <ns3:TrackPointExtension>
            <ns3:atemp>15.0</ns3:atemp>
            <ns3:hr>136</ns3:hr>
          </ns3:TrackPointExtension>
        </extensions>
      </trkpt>
      <trkpt lat="46.64274833165109157562255859375" lon="6.86315872706472873687744140625">
        <ele>735</ele>
        <time>2013-08-15T17:37:27.000Z</time>
        <extensions>
          <ns3:TrackPointExtension>
            <ns3:atemp>15.0</ns3:atemp>
            <ns3:hr>136</ns3:hr>
          </ns3:TrackPointExtension>
        </extensions>
      </trkpt>
      <trkpt lat="46.64276375435292720794677734375" lon="6.86308027245104312896728515625">
        <ele>735</ele>
        <time>2013-08-15T17:37:28.000Z</time>
        <extensions>
          <ns3:TrackPointExtension>
            <ns3:atemp>15.0</ns3:atemp>
            <ns3:hr>136</ns3:hr>
          </ns3:TrackPointExtension>
        </extensions>
      </trkpt>
      <trkpt lat="46.6427868045866489410400390625" lon="6.86300575733184814453125">
        <ele>735.20001220703125</ele>
        <time>2013-08-15T17:37:29.000Z</time>
        <extensions>
          <ns3:TrackPointExtension>
            <ns3:atemp>15.0</ns3:atemp>
            <ns3:hr>136</ns3:hr>
          </ns3:TrackPointExtension>
        </extensions>
      </trkpt>
      <trkpt lat="46.64281320758163928985595703125" lon="6.86293476261198520660400390625">
        <ele>735.4000244140625</ele>
        <time>2013-08-15T17:37:30.000Z</time>
        <extensions>
          <ns3:TrackPointExtension>
            <ns3:atemp>15.0</ns3:atemp>
            <ns3:hr>137</ns3:hr>
          </ns3:TrackPointExtension>
        </extensions>
      </trkpt>
      <trkpt lat="46.64284028112888336181640625" lon="6.8628634326159954071044921875">
        <ele>735.20001220703125</ele>
        <time>2013-08-15T17:37:31.000Z</time>
        <extensions>
          <ns3:TrackPointExtension>
            <ns3:atemp>15.0</ns3:atemp>
            <ns3:hr>137</ns3:hr>
          </ns3:TrackPointExtension>
        </extensions>
      </trkpt>
      <trkpt lat="46.6428649239242076873779296875" lon="6.86279193498194217681884765625">
        <ele>735</ele>
        <time>2013-08-15T17:37:32.000Z</time>
        <extensions>
          <ns3:TrackPointExtension>
            <ns3:atemp>15.0</ns3:atemp>
            <ns3:hr>137</ns3:hr>
          </ns3:TrackPointExtension>
        </extensions>
      </trkpt>
      <trkpt lat="46.64288881234824657440185546875" lon="6.8627232871949672698974609375">
        <ele>734.79998779296875</ele>
        <time>2013-08-15T17:37:33.000Z</time>
        <extensions>
          <ns3:TrackPointExtension>
            <ns3:atemp>15.0</ns3:atemp>
            <ns3:hr>137</ns3:hr>
          </ns3:TrackPointExtension>
        </extensions>
      </trkpt>
      <trkpt lat="46.64291647262871265411376953125" lon="6.86265195719897747039794921875">
        <ele>734.79998779296875</ele>
        <time>2013-08-15T17:37:34.000Z</time>
        <extensions>
          <ns3:TrackPointExtension>
            <ns3:atemp>15.0</ns3:atemp>
            <ns3:hr>137</ns3:hr>
          </ns3:TrackPointExtension>
        </extensions>
      </trkpt>
      <trkpt lat="46.64295159280300140380859375" lon="6.86259076930582523345947265625">
        <ele>734.79998779296875</ele>
        <time>2013-08-15T17:37:35.000Z</time>
        <extensions>
          <ns3:TrackPointExtension>
            <ns3:atemp>15.0</ns3:atemp>
            <ns3:hr>137</ns3:hr>
          </ns3:TrackPointExtension>
        </extensions>
      </trkpt>
      <trkpt lat="46.64298369549214839935302734375" lon="6.86252706684172153472900390625">
        <ele>734.5999755859375</ele>
        <time>2013-08-15T17:37:36.000Z</time>
        <extensions>
          <ns3:TrackPointExtension>
            <ns3:atemp>15.0</ns3:atemp>
            <ns3:hr>137</ns3:hr>
          </ns3:TrackPointExtension>
        </extensions>
      </trkpt>
      <trkpt lat="46.64301462471485137939453125" lon="6.86246621422469615936279296875">
        <ele>735</ele>
        <time>2013-08-15T17:37:37.000Z</time>
        <extensions>
          <ns3:TrackPointExtension>
            <ns3:atemp>15.0</ns3:atemp>
            <ns3:hr>138</ns3:hr>
          </ns3:TrackPointExtension>
        </extensions>
      </trkpt>
      <trkpt lat="46.6430503316223621368408203125" lon="6.86240837909281253814697265625">
        <ele>735</ele>
        <time>2013-08-15T17:37:38.000Z</time>
        <extensions>
          <ns3:TrackPointExtension>
            <ns3:atemp>15.0</ns3:atemp>
            <ns3:hr>138</ns3:hr>
          </ns3:TrackPointExtension>
        </extensions>
      </trkpt>
      <trkpt lat="46.64308947511017322540283203125" lon="6.86234635300934314727783203125">
        <ele>735.20001220703125</ele>
        <time>2013-08-15T17:37:39.000Z</time>
        <extensions>
          <ns3:TrackPointExtension>
            <ns3:atemp>15.0</ns3:atemp>
            <ns3:hr>137</ns3:hr>
          </ns3:TrackPointExtension>
        </extensions>
      </trkpt>
      <trkpt lat="46.6431319713592529296875" lon="6.8622874282300472259521484375">
        <ele>735</ele>
        <time>2013-08-15T17:37:40.000Z</time>
        <extensions>
          <ns3:TrackPointExtension>
            <ns3:atemp>15.0</ns3:atemp>
            <ns3:hr>137</ns3:hr>
          </ns3:TrackPointExtension>
        </extensions>
      </trkpt>
      <trkpt lat="46.64318067021667957305908203125" lon="6.862227916717529296875">
        <ele>735</ele>
        <time>2013-08-15T17:37:41.000Z</time>
        <extensions>
          <ns3:TrackPointExtension>
            <ns3:atemp>15.0</ns3:atemp>
            <ns3:hr>137</ns3:hr>
          </ns3:TrackPointExtension>
        </extensions>
      </trkpt>
      <trkpt lat="46.643232889473438262939453125" lon="6.86217117123305797576904296875">
        <ele>734.5999755859375</ele>
        <time>2013-08-15T17:37:42.000Z</time>
        <extensions>
          <ns3:TrackPointExtension>
            <ns3:atemp>15.0</ns3:atemp>
            <ns3:hr>137</ns3:hr>
          </ns3:TrackPointExtension>
        </extensions>
      </trkpt>
      <trkpt lat="46.64329064078629016876220703125" lon="6.86211593449115753173828125">
        <ele>734.4000244140625</ele>
        <time>2013-08-15T17:37:43.000Z</time>
        <extensions>
          <ns3:TrackPointExtension>
            <ns3:atemp>15.0</ns3:atemp>
            <ns3:hr>137</ns3:hr>
          </ns3:TrackPointExtension>
        </extensions>
      </trkpt>
      <trkpt lat="46.6433507390320301055908203125" lon="6.86205684207379817962646484375">
        <ele>733.79998779296875</ele>
        <time>2013-08-15T17:37:44.000Z</time>
        <extensions>
          <ns3:TrackPointExtension>
            <ns3:atemp>15.0</ns3:atemp>
            <ns3:hr>137</ns3:hr>
          </ns3:TrackPointExtension>
        </extensions>
      </trkpt>
      <trkpt lat="46.6434117592871189117431640625" lon="6.86199917457997798919677734375">
        <ele>732.79998779296875</ele>
        <time>2013-08-15T17:37:45.000Z</time>
        <extensions>
          <ns3:TrackPointExtension>
            <ns3:atemp>15.0</ns3:atemp>
            <ns3:hr>137</ns3:hr>
          </ns3:TrackPointExtension>
        </extensions>
      </trkpt>
      <trkpt lat="46.64347168989479541778564453125" lon="6.86195307411253452301025390625">
        <ele>731.79998779296875</ele>
        <time>2013-08-15T17:37:46.000Z</time>
        <extensions>
          <ns3:TrackPointExtension>
            <ns3:atemp>15.0</ns3:atemp>
            <ns3:hr>137</ns3:hr>
          </ns3:TrackPointExtension>
        </extensions>
      </trkpt>
      <trkpt lat="46.6435257531702518463134765625" lon="6.86192147433757781982421875">
        <ele>730.79998779296875</ele>
        <time>2013-08-15T17:37:47.000Z</time>
        <extensions>
          <ns3:TrackPointExtension>
            <ns3:atemp>15.0</ns3:atemp>
            <ns3:hr>136</ns3:hr>
          </ns3:TrackPointExtension>
        </extensions>
      </trkpt>
      <trkpt lat="46.643576882779598236083984375" lon="6.861911751329898834228515625">
        <ele>730</ele>
        <time>2013-08-15T17:37:48.000Z</time>
        <extensions>
          <ns3:TrackPointExtension>
            <ns3:atemp>15.0</ns3:atemp>
            <ns3:hr>136</ns3:hr>
          </ns3:TrackPointExtension>
        </extensions>
      </trkpt>
      <trkpt lat="46.64360948838293552398681640625" lon="6.86191300861537456512451171875">
        <ele>729.4000244140625</ele>
        <time>2013-08-15T17:37:49.000Z</time>
        <extensions>
          <ns3:TrackPointExtension>
            <ns3:atemp>15.0</ns3:atemp>
            <ns3:hr>135</ns3:hr>
          </ns3:TrackPointExtension>
        </extensions>
      </trkpt>
      <trkpt lat="46.64362356998026371002197265625" lon="6.861911080777645111083984375">
        <ele>728.79998779296875</ele>
        <time>2013-08-15T17:37:50.000Z</time>
        <extensions>
          <ns3:TrackPointExtension>
            <ns3:atemp>15.0</ns3:atemp>
            <ns3:hr>135</ns3:hr>
          </ns3:TrackPointExtension>
        </extensions>
      </trkpt>
      <trkpt lat="46.6436303593218326568603515625" lon="6.861912421882152557373046875">
        <ele>728.4000244140625</ele>
        <time>2013-08-15T17:37:51.000Z</time>
        <extensions>
          <ns3:TrackPointExtension>
            <ns3:atemp>15.0</ns3:atemp>
            <ns3:hr>134</ns3:hr>
          </ns3:TrackPointExtension>
        </extensions>
      </trkpt>
      <trkpt lat="46.6436330415308475494384765625" lon="6.86191602610051631927490234375">
        <ele>728.20001220703125</ele>
        <time>2013-08-15T17:37:52.000Z</time>
        <extensions>
          <ns3:TrackPointExtension>
            <ns3:atemp>15.0</ns3:atemp>
            <ns3:hr>133</ns3:hr>
          </ns3:TrackPointExtension>
        </extensions>
      </trkpt>
      <trkpt lat="46.6436498053371906280517578125" lon="6.86192281544208526611328125">
        <ele>728.20001220703125</ele>
        <time>2013-08-15T17:37:53.000Z</time>
        <extensions>
          <ns3:TrackPointExtension>
            <ns3:atemp>15.0</ns3:atemp>
            <ns3:hr>132</ns3:hr>
          </ns3:TrackPointExtension>
        </extensions>
      </trkpt>
      <trkpt lat="46.64365835487842559814453125" lon="6.86193916015326976776123046875">
        <ele>728</ele>
        <time>2013-08-15T17:37:54.000Z</time>
        <extensions>
          <ns3:TrackPointExtension>
            <ns3:atemp>15.0</ns3:atemp>
            <ns3:hr>132</ns3:hr>
          </ns3:TrackPointExtension>
        </extensions>
      </trkpt>
      <trkpt lat="46.643668748438358306884765625" lon="6.86195634305477142333984375">
        <ele>728</ele>
        <time>2013-08-15T17:37:55.000Z</time>
        <extensions>
          <ns3:TrackPointExtension>
            <ns3:atemp>15.0</ns3:atemp>
            <ns3:hr>131</ns3:hr>
          </ns3:TrackPointExtension>
        </extensions>
      </trkpt>
      <trkpt lat="46.64366480894386768341064453125" lon="6.86194754205644130706787109375">
        <ele>727.79998779296875</ele>
        <time>2013-08-15T17:37:56.000Z</time>
        <extensions>
          <ns3:TrackPointExtension>
            <ns3:atemp>15.0</ns3:atemp>
            <ns3:hr>130</ns3:hr>
          </ns3:TrackPointExtension>
        </extensions>
      </trkpt>
      <trkpt lat="46.6436705924570560455322265625" lon="6.86195894144475460052490234375">
        <ele>727.5999755859375</ele>
        <time>2013-08-15T17:37:57.000Z</time>
        <extensions>
          <ns3:TrackPointExtension>
            <ns3:atemp>15.0</ns3:atemp>
            <ns3:hr>130</ns3:hr>
          </ns3:TrackPointExtension>
        </extensions>
      </trkpt>
      <trkpt lat="46.6436705924570560455322265625" lon="6.86195894144475460052490234375">
        <ele>727.5999755859375</ele>
        <time>2013-08-15T17:37:58.000Z</time>
        <extensions>
          <ns3:TrackPointExtension>
            <ns3:atemp>15.0</ns3:atemp>
            <ns3:hr>130</ns3:hr>
          </ns3:TrackPointExtension>
        </extensions>
      </trkpt>
      <trkpt lat="46.6436705924570560455322265625" lon="6.86195894144475460052490234375">
        <ele>727.5999755859375</ele>
        <time>2013-08-15T17:37:59.000Z</time>
        <extensions>
          <ns3:TrackPointExtension>
            <ns3:atemp>15.0</ns3:atemp>
            <ns3:hr>129</ns3:hr>
          </ns3:TrackPointExtension>
        </extensions>
      </trkpt>
      <trkpt lat="46.6436705924570560455322265625" lon="6.86195894144475460052490234375">
        <ele>727.5999755859375</ele>
        <time>2013-08-15T17:38:00.000Z</time>
        <extensions>
          <ns3:TrackPointExtension>
            <ns3:atemp>15.0</ns3:atemp>
            <ns3:hr>128</ns3:hr>
          </ns3:TrackPointExtension>
        </extensions>
      </trkpt>
      <trkpt lat="46.6436705924570560455322265625" lon="6.86195894144475460052490234375">
        <ele>727.5999755859375</ele>
        <time>2013-08-15T17:38:01.000Z</time>
        <extensions>
          <ns3:TrackPointExtension>
            <ns3:atemp>15.0</ns3:atemp>
            <ns3:hr>128</ns3:hr>
          </ns3:TrackPointExtension>
        </extensions>
      </trkpt>
      <trkpt lat="46.6436705924570560455322265625" lon="6.86195894144475460052490234375">
        <ele>727.5999755859375</ele>
        <time>2013-08-15T17:38:02.000Z</time>
        <extensions>
          <ns3:TrackPointExtension>
            <ns3:atemp>15.0</ns3:atemp>
            <ns3:hr>128</ns3:hr>
          </ns3:TrackPointExtension>
        </extensions>
      </trkpt>
      <trkpt lat="46.64366732351481914520263671875" lon="6.86196145601570606231689453125">
        <ele>727.5999755859375</ele>
        <time>2013-08-15T17:38:03.000Z</time>
        <extensions>
          <ns3:TrackPointExtension>
            <ns3:atemp>15.0</ns3:atemp>
            <ns3:hr>128</ns3:hr>
          </ns3:TrackPointExtension>
        </extensions>
      </trkpt>
      <trkpt lat="46.64366732351481914520263671875" lon="6.86196145601570606231689453125">
        <ele>727.5999755859375</ele>
        <time>2013-08-15T17:38:04.000Z</time>
        <extensions>
          <ns3:TrackPointExtension>
            <ns3:atemp>15.0</ns3:atemp>
            <ns3:hr>127</ns3:hr>
          </ns3:TrackPointExtension>
        </extensions>
      </trkpt>
      <trkpt lat="46.6436665691435337066650390625" lon="6.86196170747280120849609375">
        <ele>727.5999755859375</ele>
        <time>2013-08-15T17:38:05.000Z</time>
        <extensions>
          <ns3:TrackPointExtension>
            <ns3:atemp>15.0</ns3:atemp>
            <ns3:hr>126</ns3:hr>
          </ns3:TrackPointExtension>
        </extensions>
      </trkpt>
      <trkpt lat="46.6436665691435337066650390625" lon="6.86196170747280120849609375">
        <ele>727.5999755859375</ele>
        <time>2013-08-15T17:38:06.000Z</time>
        <extensions>
          <ns3:TrackPointExtension>
            <ns3:atemp>15.0</ns3:atemp>
            <ns3:hr>125</ns3:hr>
          </ns3:TrackPointExtension>
        </extensions>
      </trkpt>
      <trkpt lat="46.6436632163822650909423828125" lon="6.86195542104542255401611328125">
        <ele>727.5999755859375</ele>
        <time>2013-08-15T17:38:07.000Z</time>
        <extensions>
          <ns3:TrackPointExtension>
            <ns3:atemp>15.0</ns3:atemp>
            <ns3:hr>125</ns3:hr>
          </ns3:TrackPointExtension>
        </extensions>
      </trkpt>
      <trkpt lat="46.6436590254306793212890625" lon="6.86196179129183292388916015625">
        <ele>727.5999755859375</ele>
        <time>2013-08-15T17:38:08.000Z</time>
        <extensions>
          <ns3:TrackPointExtension>
            <ns3:atemp>15.0</ns3:atemp>
            <ns3:hr>124</ns3:hr>
          </ns3:TrackPointExtension>
        </extensions>
      </trkpt>
      <trkpt lat="46.643657684326171875" lon="6.8619583547115325927734375">
        <ele>727.79998779296875</ele>
        <time>2013-08-15T17:38:09.000Z</time>
        <extensions>
          <ns3:TrackPointExtension>
            <ns3:atemp>15.0</ns3:atemp>
            <ns3:hr>124</ns3:hr>
          </ns3:TrackPointExtension>
        </extensions>
      </trkpt>
      <trkpt lat="46.6436615400016307830810546875" lon="6.8619618751108646392822265625">
        <ele>724.4000244140625</ele>
        <time>2013-08-15T17:38:10.000Z</time>
        <extensions>
          <ns3:TrackPointExtension>
            <ns3:atemp>15.0</ns3:atemp>
            <ns3:hr>124</ns3:hr>
          </ns3:TrackPointExtension>
        </extensions>
      </trkpt>
      <trkpt lat="46.6436615400016307830810546875" lon="6.8619618751108646392822265625">
        <ele>726.5999755859375</ele>
        <time>2013-08-15T17:38:11.000Z</time>
        <extensions>
          <ns3:TrackPointExtension>
            <ns3:atemp>15.0</ns3:atemp>
            <ns3:hr>123</ns3:hr>
          </ns3:TrackPointExtension>
        </extensions>
      </trkpt>
      <trkpt lat="46.6436615400016307830810546875" lon="6.8619618751108646392822265625">
        <ele>726.79998779296875</ele>
        <time>2013-08-15T17:38:12.000Z</time>
        <extensions>
          <ns3:TrackPointExtension>
            <ns3:atemp>15.0</ns3:atemp>
            <ns3:hr>123</ns3:hr>
          </ns3:TrackPointExtension>
        </extensions>
      </trkpt>
      <trkpt lat="46.64365659467875957489013671875" lon="6.86195190064609050750732421875">
        <ele>730.20001220703125</ele>
        <time>2013-08-15T17:38:13.000Z</time>
        <extensions>
          <ns3:TrackPointExtension>
            <ns3:atemp>15.0</ns3:atemp>
            <ns3:hr>122</ns3:hr>
          </ns3:TrackPointExtension>
        </extensions>
      </trkpt>
      <trkpt lat="46.6436484642326831817626953125" lon="6.8619377352297306060791015625">
        <ele>728.20001220703125</ele>
        <time>2013-08-15T17:38:14.000Z</time>
        <extensions>
          <ns3:TrackPointExtension>
            <ns3:atemp>15.0</ns3:atemp>
            <ns3:hr>122</ns3:hr>
          </ns3:TrackPointExtension>
        </extensions>
      </trkpt>
      <trkpt lat="46.6436427645385265350341796875" lon="6.86192189343273639678955078125">
        <ele>728</ele>
        <time>2013-08-15T17:38:15.000Z</time>
        <extensions>
          <ns3:TrackPointExtension>
            <ns3:atemp>15.0</ns3:atemp>
            <ns3:hr>122</ns3:hr>
          </ns3:TrackPointExtension>
        </extensions>
      </trkpt>
      <trkpt lat="46.64363563992083072662353515625" lon="6.86190378852188587188720703125">
        <ele>728.20001220703125</ele>
        <time>2013-08-15T17:38:16.000Z</time>
        <extensions>
          <ns3:TrackPointExtension>
            <ns3:atemp>15.0</ns3:atemp>
            <ns3:hr>121</ns3:hr>
          </ns3:TrackPointExtension>
        </extensions>
      </trkpt>
      <trkpt lat="46.64362222887575626373291015625" lon="6.86189825646579265594482421875">
        <ele>728.4000244140625</ele>
        <time>2013-08-15T17:38:17.000Z</time>
        <extensions>
          <ns3:TrackPointExtension>
            <ns3:atemp>15.0</ns3:atemp>
            <ns3:hr>120</ns3:hr>
          </ns3:TrackPointExtension>
        </extensions>
      </trkpt>
      <trkpt lat="46.64360940456390380859375" lon="6.861906386911869049072265625">
        <ele>728.4000244140625</ele>
        <time>2013-08-15T17:38:18.000Z</time>
        <extensions>
          <ns3:TrackPointExtension>
            <ns3:atemp>15.0</ns3:atemp>
            <ns3:hr>119</ns3:hr>
          </ns3:TrackPointExtension>
        </extensions>
      </trkpt>
      <trkpt lat="46.64360227994620800018310546875" lon="6.86192407272756099700927734375">
        <ele>728.4000244140625</ele>
        <time>2013-08-15T17:38:19.000Z</time>
        <extensions>
          <ns3:TrackPointExtension>
            <ns3:atemp>15.0</ns3:atemp>
            <ns3:hr>116</ns3:hr>
          </ns3:TrackPointExtension>
        </extensions>
      </trkpt>
      <trkpt lat="46.64360336959362030029296875" lon="6.861941926181316375732421875">
        <ele>728.4000244140625</ele>
        <time>2013-08-15T17:38:20.000Z</time>
        <extensions>
          <ns3:TrackPointExtension>
            <ns3:atemp>15.0</ns3:atemp>
            <ns3:hr>115</ns3:hr>
          </ns3:TrackPointExtension>
        </extensions>
      </trkpt>
      <trkpt lat="46.64361099712550640106201171875" lon="6.86194921843707561492919921875">
        <ele>728.4000244140625</ele>
        <time>2013-08-15T17:38:21.000Z</time>
        <extensions>
          <ns3:TrackPointExtension>
            <ns3:atemp>15.0</ns3:atemp>
            <ns3:hr>112</ns3:hr>
          </ns3:TrackPointExtension>
        </extensions>
      </trkpt>
      <trkpt lat="46.6436249949038028717041015625" lon="6.861962042748928070068359375">
        <ele>728.5999755859375</ele>
        <time>2013-08-15T17:38:22.000Z</time>
        <extensions>
          <ns3:TrackPointExtension>
            <ns3:atemp>15.0</ns3:atemp>
            <ns3:hr>112</ns3:hr>
          </ns3:TrackPointExtension>
        </extensions>
      </trkpt>
      <trkpt lat="46.64364687167108058929443359375" lon="6.86198182404041290283203125">
        <ele>728.5999755859375</ele>
        <time>2013-08-15T17:38:23.000Z</time>
        <extensions>
          <ns3:TrackPointExtension>
            <ns3:atemp>15.0</ns3:atemp>
            <ns3:hr>112</ns3:hr>
          </ns3:TrackPointExtension>
        </extensions>
      </trkpt>
      <trkpt lat="46.64367436431348323822021484375" lon="6.8620000965893268585205078125">
        <ele>728.4000244140625</ele>
        <time>2013-08-15T17:38:24.000Z</time>
        <extensions>
          <ns3:TrackPointExtension>
            <ns3:atemp>15.0</ns3:atemp>
            <ns3:hr>113</ns3:hr>
          </ns3:TrackPointExtension>
        </extensions>
      </trkpt>
      <trkpt lat="46.64371199905872344970703125" lon="6.86202582903206348419189453125">
        <ele>728.5999755859375</ele>
        <time>2013-08-15T17:38:25.000Z</time>
        <extensions>
          <ns3:TrackPointExtension>
            <ns3:atemp>15.0</ns3:atemp>
            <ns3:hr>114</ns3:hr>
          </ns3:TrackPointExtension>
        </extensions>
      </trkpt>
      <trkpt lat="46.64375198073685169219970703125" lon="6.8620644696056842803955078125">
        <ele>728.4000244140625</ele>
        <time>2013-08-15T17:38:26.000Z</time>
        <extensions>
          <ns3:TrackPointExtension>
            <ns3:atemp>15.0</ns3:atemp>
            <ns3:hr>115</ns3:hr>
          </ns3:TrackPointExtension>
        </extensions>
      </trkpt>
      <trkpt lat="46.64379389025270938873291015625" lon="6.86210160143673419952392578125">
        <ele>728.4000244140625</ele>
        <time>2013-08-15T17:38:27.000Z</time>
        <extensions>
          <ns3:TrackPointExtension>
            <ns3:atemp>15.0</ns3:atemp>
            <ns3:hr>116</ns3:hr>
          </ns3:TrackPointExtension>
        </extensions>
      </trkpt>
      <trkpt lat="46.64383814670145511627197265625" lon="6.86214032582938671112060546875">
        <ele>728</ele>
        <time>2013-08-15T17:38:28.000Z</time>
        <extensions>
          <ns3:TrackPointExtension>
            <ns3:atemp>15.0</ns3:atemp>
            <ns3:hr>116</ns3:hr>
          </ns3:TrackPointExtension>
        </extensions>
      </trkpt>
      <trkpt lat="46.6438871808350086212158203125" lon="6.8621811456978321075439453125">
        <ele>728</ele>
        <time>2013-08-15T17:38:29.000Z</time>
        <extensions>
          <ns3:TrackPointExtension>
            <ns3:atemp>15.0</ns3:atemp>
            <ns3:hr>117</ns3:hr>
          </ns3:TrackPointExtension>
        </extensions>
      </trkpt>
      <trkpt lat="46.643940322101116180419921875" lon="6.86222615651786327362060546875">
        <ele>728</ele>
        <time>2013-08-15T17:38:30.000Z</time>
        <extensions>
          <ns3:TrackPointExtension>
            <ns3:atemp>15.0</ns3:atemp>
            <ns3:hr>118</ns3:hr>
          </ns3:TrackPointExtension>
        </extensions>
      </trkpt>
      <trkpt lat="46.64399589411914348602294921875" lon="6.8622706644237041473388671875">
        <ele>728</ele>
        <time>2013-08-15T17:38:31.000Z</time>
        <extensions>
          <ns3:TrackPointExtension>
            <ns3:atemp>15.0</ns3:atemp>
            <ns3:hr>118</ns3:hr>
          </ns3:TrackPointExtension>
        </extensions>
      </trkpt>
      <trkpt lat="46.64405507035553455352783203125" lon="6.8623162619769573211669921875">
        <ele>728</ele>
        <time>2013-08-15T17:38:32.000Z</time>
        <extensions>
          <ns3:TrackPointExtension>
            <ns3:atemp>15.0</ns3:atemp>
            <ns3:hr>119</ns3:hr>
          </ns3:TrackPointExtension>
        </extensions>
      </trkpt>
      <trkpt lat="46.64411709643900394439697265625" lon="6.862367056310176849365234375">
        <ele>727.79998779296875</ele>
        <time>2013-08-15T17:38:33.000Z</time>
        <extensions>
          <ns3:TrackPointExtension>
            <ns3:atemp>15.0</ns3:atemp>
            <ns3:hr>120</ns3:hr>
          </ns3:TrackPointExtension>
        </extensions>
      </trkpt>
      <trkpt lat="46.64417845197021961212158203125" lon="6.862417347729206085205078125">
        <ele>727.79998779296875</ele>
        <time>2013-08-15T17:38:34.000Z</time>
        <extensions>
          <ns3:TrackPointExtension>
            <ns3:atemp>15.0</ns3:atemp>
            <ns3:hr>120</ns3:hr>
          </ns3:TrackPointExtension>
        </extensions>
      </trkpt>
      <trkpt lat="46.6442405618727207183837890625" lon="6.86246462166309356689453125">
        <ele>727.4000244140625</ele>
        <time>2013-08-15T17:38:35.000Z</time>
        <extensions>
          <ns3:TrackPointExtension>
            <ns3:atemp>15.0</ns3:atemp>
            <ns3:hr>120</ns3:hr>
          </ns3:TrackPointExtension>
        </extensions>
      </trkpt>
      <trkpt lat="46.6443056054413318634033203125" lon="6.8625103868544101715087890625">
        <ele>727.20001220703125</ele>
        <time>2013-08-15T17:38:36.000Z</time>
        <extensions>
          <ns3:TrackPointExtension>
            <ns3:atemp>15.0</ns3:atemp>
            <ns3:hr>120</ns3:hr>
          </ns3:TrackPointExtension>
        </extensions>
      </trkpt>
      <trkpt lat="46.64437224157154560089111328125" lon="6.86255640350282192230224609375">
        <ele>726.79998779296875</ele>
        <time>2013-08-15T17:38:37.000Z</time>
        <extensions>
          <ns3:TrackPointExtension>
            <ns3:atemp>15.0</ns3:atemp>
            <ns3:hr>120</ns3:hr>
          </ns3:TrackPointExtension>
        </extensions>
      </trkpt>
      <trkpt lat="46.6444410569965839385986328125" lon="6.8626025877892971038818359375">
        <ele>726.5999755859375</ele>
        <time>2013-08-15T17:38:38.000Z</time>
        <extensions>
          <ns3:TrackPointExtension>
            <ns3:atemp>15.0</ns3:atemp>
            <ns3:hr>119</ns3:hr>
          </ns3:TrackPointExtension>
        </extensions>
      </trkpt>
      <trkpt lat="46.64451205171644687652587890625" lon="6.8626498617231845855712890625">
        <ele>726.20001220703125</ele>
        <time>2013-08-15T17:38:39.000Z</time>
        <extensions>
          <ns3:TrackPointExtension>
            <ns3:atemp>15.0</ns3:atemp>
            <ns3:hr>119</ns3:hr>
          </ns3:TrackPointExtension>
        </extensions>
      </trkpt>
      <trkpt lat="46.64458447135984897613525390625" lon="6.86270308680832386016845703125">
        <ele>726</ele>
        <time>2013-08-15T17:38:40.000Z</time>
        <extensions>
          <ns3:TrackPointExtension>
            <ns3:atemp>15.0</ns3:atemp>
            <ns3:hr>119</ns3:hr>
          </ns3:TrackPointExtension>
        </extensions>
      </trkpt>
      <trkpt lat="46.644658483564853668212890625" lon="6.8627611733973026275634765625">
        <ele>725.79998779296875</ele>
        <time>2013-08-15T17:38:41.000Z</time>
        <extensions>
          <ns3:TrackPointExtension>
            <ns3:atemp>15.0</ns3:atemp>
            <ns3:hr>120</ns3:hr>
          </ns3:TrackPointExtension>
        </extensions>
      </trkpt>
      <trkpt lat="46.64473417215049266815185546875" lon="6.86282194219529628753662109375">
        <ele>725.4000244140625</ele>
        <time>2013-08-15T17:38:42.000Z</time>
        <extensions>
          <ns3:TrackPointExtension>
            <ns3:atemp>15.0</ns3:atemp>
            <ns3:hr>120</ns3:hr>
          </ns3:TrackPointExtension>
        </extensions>
      </trkpt>
      <trkpt lat="46.64481514133512973785400390625" lon="6.86287843622267246246337890625">
        <ele>725.4000244140625</ele>
        <time>2013-08-15T17:38:43.000Z</time>
        <extensions>
          <ns3:TrackPointExtension>
            <ns3:atemp>15.0</ns3:atemp>
            <ns3:hr>120</ns3:hr>
          </ns3:TrackPointExtension>
        </extensions>
      </trkpt>
      <trkpt lat="46.644896529614925384521484375" lon="6.86293459497392177581787109375">
        <ele>725.4000244140625</ele>
        <time>2013-08-15T17:38:44.000Z</time>
        <extensions>
          <ns3:TrackPointExtension>
            <ns3:atemp>15.0</ns3:atemp>
            <ns3:hr>120</ns3:hr>
          </ns3:TrackPointExtension>
        </extensions>
      </trkpt>
      <trkpt lat="46.6449774987995624542236328125" lon="6.86299108900129795074462890625">
        <ele>725.20001220703125</ele>
        <time>2013-08-15T17:38:45.000Z</time>
        <extensions>
          <ns3:TrackPointExtension>
            <ns3:atemp>15.0</ns3:atemp>
            <ns3:hr>120</ns3:hr>
          </ns3:TrackPointExtension>
        </extensions>
      </trkpt>
      <trkpt lat="46.645061485469341278076171875" lon="6.86304800212383270263671875">
        <ele>724.79998779296875</ele>
        <time>2013-08-15T17:38:46.000Z</time>
        <extensions>
          <ns3:TrackPointExtension>
            <ns3:atemp>15.0</ns3:atemp>
            <ns3:hr>120</ns3:hr>
          </ns3:TrackPointExtension>
        </extensions>
      </trkpt>
      <trkpt lat="46.64514371193945407867431640625" lon="6.86310692690312862396240234375">
        <ele>724.20001220703125</ele>
        <time>2013-08-15T17:38:47.000Z</time>
        <extensions>
          <ns3:TrackPointExtension>
            <ns3:atemp>15.0</ns3:atemp>
            <ns3:hr>120</ns3:hr>
          </ns3:TrackPointExtension>
        </extensions>
      </trkpt>
      <trkpt lat="46.6452235914766788482666015625" lon="6.8631692044436931610107421875">
        <ele>724</ele>
        <time>2013-08-15T17:38:48.000Z</time>
        <extensions>
          <ns3:TrackPointExtension>
            <ns3:atemp>15.0</ns3:atemp>
            <ns3:hr>120</ns3:hr>
          </ns3:TrackPointExtension>
        </extensions>
      </trkpt>
      <trkpt lat="46.64530212990939617156982421875" lon="6.86323634348809719085693359375">
        <ele>723.79998779296875</ele>
        <time>2013-08-15T17:38:49.000Z</time>
        <extensions>
          <ns3:TrackPointExtension>
            <ns3:atemp>15.0</ns3:atemp>
            <ns3:hr>120</ns3:hr>
          </ns3:TrackPointExtension>
        </extensions>
      </trkpt>
      <trkpt lat="46.6453815065324306488037109375" lon="6.8633002974092960357666015625">
        <ele>723.5999755859375</ele>
        <time>2013-08-15T17:38:50.000Z</time>
        <extensions>
          <ns3:TrackPointExtension>
            <ns3:atemp>15.0</ns3:atemp>
            <ns3:hr>121</ns3:hr>
          </ns3:TrackPointExtension>
        </extensions>
      </trkpt>
      <trkpt lat="46.64546339772641658782958984375" lon="6.86336106620728969573974609375">
        <ele>723.20001220703125</ele>
        <time>2013-08-15T17:38:51.000Z</time>
        <extensions>
          <ns3:TrackPointExtension>
            <ns3:atemp>15.0</ns3:atemp>
            <ns3:hr>121</ns3:hr>
          </ns3:TrackPointExtension>
        </extensions>
      </trkpt>
      <trkpt lat="46.64554587565362453460693359375" lon="6.86341546475887298583984375">
        <ele>722.79998779296875</ele>
        <time>2013-08-15T17:38:52.000Z</time>
        <extensions>
          <ns3:TrackPointExtension>
            <ns3:atemp>15.0</ns3:atemp>
            <ns3:hr>121</ns3:hr>
          </ns3:TrackPointExtension>
        </extensions>
      </trkpt>
      <trkpt lat="46.645629443228244781494140625" lon="6.863470114767551422119140625">
        <ele>722</ele>
        <time>2013-08-15T17:38:53.000Z</time>
        <extensions>
          <ns3:TrackPointExtension>
            <ns3:atemp>15.0</ns3:atemp>
            <ns3:hr>120</ns3:hr>
          </ns3:TrackPointExtension>
        </extensions>
      </trkpt>
      <trkpt lat="46.64570848457515239715576171875" lon="6.8635188974440097808837890625">
        <ele>721.79998779296875</ele>
        <time>2013-08-15T17:38:54.000Z</time>
        <extensions>
          <ns3:TrackPointExtension>
            <ns3:atemp>15.0</ns3:atemp>
            <ns3:hr>120</ns3:hr>
          </ns3:TrackPointExtension>
        </extensions>
      </trkpt>
      <trkpt lat="46.64579012431204319000244140625" lon="6.8635715357959270477294921875">
        <ele>721.4000244140625</ele>
        <time>2013-08-15T17:38:55.000Z</time>
        <extensions>
          <ns3:TrackPointExtension>
            <ns3:atemp>15.0</ns3:atemp>
            <ns3:hr>119</ns3:hr>
          </ns3:TrackPointExtension>
        </extensions>
      </trkpt>
      <trkpt lat="46.64587561972439289093017578125" lon="6.8636268563568592071533203125">
        <ele>721</ele>
        <time>2013-08-15T17:38:56.000Z</time>
        <extensions>
          <ns3:TrackPointExtension>
            <ns3:atemp>15.0</ns3:atemp>
            <ns3:hr>119</ns3:hr>
          </ns3:TrackPointExtension>
        </extensions>
      </trkpt>
      <trkpt lat="46.64596346206963062286376953125" lon="6.86368008144199848175048828125">
        <ele>720.4000244140625</ele>
        <time>2013-08-15T17:38:57.000Z</time>
        <extensions>
          <ns3:TrackPointExtension>
            <ns3:atemp>15.0</ns3:atemp>
            <ns3:hr>119</ns3:hr>
          </ns3:TrackPointExtension>
        </extensions>
      </trkpt>
      <trkpt lat="46.64605180732905864715576171875" lon="6.86373925767838954925537109375">
        <ele>720</ele>
        <time>2013-08-15T17:38:58.000Z</time>
        <extensions>
          <ns3:TrackPointExtension>
            <ns3:atemp>15.0</ns3:atemp>
            <ns3:hr>119</ns3:hr>
          </ns3:TrackPointExtension>
        </extensions>
      </trkpt>
      <trkpt lat="46.6461405716836452484130859375" lon="6.86380195431411266326904296875">
        <ele>719.4000244140625</ele>
        <time>2013-08-15T17:38:59.000Z</time>
        <extensions>
          <ns3:TrackPointExtension>
            <ns3:atemp>15.0</ns3:atemp>
            <ns3:hr>119</ns3:hr>
          </ns3:TrackPointExtension>
        </extensions>
      </trkpt>
      <trkpt lat="46.64623084478080272674560546875" lon="6.86386615969240665435791015625">
        <ele>718.79998779296875</ele>
        <time>2013-08-15T17:39:00.000Z</time>
        <extensions>
          <ns3:TrackPointExtension>
            <ns3:atemp>15.0</ns3:atemp>
            <ns3:hr>120</ns3:hr>
          </ns3:TrackPointExtension>
        </extensions>
      </trkpt>
      <trkpt lat="46.64632136933505535125732421875" lon="6.86392332427203655242919921875">
        <ele>718.4000244140625</ele>
        <time>2013-08-15T17:39:01.000Z</time>
        <extensions>
          <ns3:TrackPointExtension>
            <ns3:atemp>15.0</ns3:atemp>
            <ns3:hr>120</ns3:hr>
          </ns3:TrackPointExtension>
        </extensions>
      </trkpt>
      <trkpt lat="46.6464097984135150909423828125" lon="6.86397009529173374176025390625">
        <ele>718</ele>
        <time>2013-08-15T17:39:02.000Z</time>
        <extensions>
          <ns3:TrackPointExtension>
            <ns3:atemp>15.0</ns3:atemp>
            <ns3:hr>121</ns3:hr>
          </ns3:TrackPointExtension>
        </extensions>
      </trkpt>
      <trkpt lat="46.6464994847774505615234375" lon="6.86400965787470340728759765625">
        <ele>717.5999755859375</ele>
        <time>2013-08-15T17:39:03.000Z</time>
        <extensions>
          <ns3:TrackPointExtension>
            <ns3:atemp>15.0</ns3:atemp>
            <ns3:hr>121</ns3:hr>
          </ns3:TrackPointExtension>
        </extensions>
      </trkpt>
      <trkpt lat="46.6465931944549083709716796875" lon="6.8640479631721973419189453125">
        <ele>716.79998779296875</ele>
        <time>2013-08-15T17:39:04.000Z</time>
        <extensions>
          <ns3:TrackPointExtension>
            <ns3:atemp>15.0</ns3:atemp>
            <ns3:hr>121</ns3:hr>
          </ns3:TrackPointExtension>
        </extensions>
      </trkpt>
      <trkpt lat="46.64668254554271697998046875" lon="6.864077635109424591064453125">
        <ele>716.4000244140625</ele>
        <time>2013-08-15T17:39:05.000Z</time>
        <extensions>
          <ns3:TrackPointExtension>
            <ns3:atemp>15.0</ns3:atemp>
            <ns3:hr>120</ns3:hr>
          </ns3:TrackPointExtension>
        </extensions>
      </trkpt>
      <trkpt lat="46.64676862768828868865966796875" lon="6.8640975840389728546142578125">
        <ele>715.79998779296875</ele>
        <time>2013-08-15T17:39:06.000Z</time>
        <extensions>
          <ns3:TrackPointExtension>
            <ns3:atemp>15.0</ns3:atemp>
            <ns3:hr>120</ns3:hr>
          </ns3:TrackPointExtension>
        </extensions>
      </trkpt>
      <trkpt lat="46.64685152471065521240234375" lon="6.86410755850374698638916015625">
        <ele>715.20001220703125</ele>
        <time>2013-08-15T17:39:07.000Z</time>
        <extensions>
          <ns3:TrackPointExtension>
            <ns3:atemp>15.0</ns3:atemp>
            <ns3:hr>120</ns3:hr>
          </ns3:TrackPointExtension>
        </extensions>
      </trkpt>
      <trkpt lat="46.6469415463507175445556640625" lon="6.864099763333797454833984375">
        <ele>714.20001220703125</ele>
        <time>2013-08-15T17:39:08.000Z</time>
        <extensions>
          <ns3:TrackPointExtension>
            <ns3:atemp>15.0</ns3:atemp>
            <ns3:hr>119</ns3:hr>
          </ns3:TrackPointExtension>
        </extensions>
      </trkpt>
      <trkpt lat="46.6470320709049701690673828125" lon="6.8640791438519954681396484375">
        <ele>713.5999755859375</ele>
        <time>2013-08-15T17:39:09.000Z</time>
        <extensions>
          <ns3:TrackPointExtension>
            <ns3:atemp>15.0</ns3:atemp>
            <ns3:hr>119</ns3:hr>
          </ns3:TrackPointExtension>
        </extensions>
      </trkpt>
      <trkpt lat="46.64712485857307910919189453125" lon="6.86404737643897533416748046875">
        <ele>713</ele>
        <time>2013-08-15T17:39:10.000Z</time>
        <extensions>
          <ns3:TrackPointExtension>
            <ns3:atemp>15.0</ns3:atemp>
            <ns3:hr>119</ns3:hr>
          </ns3:TrackPointExtension>
        </extensions>
      </trkpt>
      <trkpt lat="46.6472188197076320648193359375" lon="6.86399616301059722900390625">
        <ele>712.4000244140625</ele>
        <time>2013-08-15T17:39:11.000Z</time>
        <extensions>
          <ns3:TrackPointExtension>
            <ns3:atemp>15.0</ns3:atemp>
            <ns3:hr>118</ns3:hr>
          </ns3:TrackPointExtension>
        </extensions>
      </trkpt>
      <trkpt lat="46.647308170795440673828125" lon="6.8639316223561763763427734375">
        <ele>712</ele>
        <time>2013-08-15T17:39:12.000Z</time>
        <extensions>
          <ns3:TrackPointExtension>
            <ns3:atemp>15.0</ns3:atemp>
            <ns3:hr>118</ns3:hr>
          </ns3:TrackPointExtension>
        </extensions>
      </trkpt>
      <trkpt lat="46.647394001483917236328125" lon="6.8638588674366474151611328125">
        <ele>711.4000244140625</ele>
        <time>2013-08-15T17:39:13.000Z</time>
        <extensions>
          <ns3:TrackPointExtension>
            <ns3:atemp>15.0</ns3:atemp>
            <ns3:hr>118</ns3:hr>
          </ns3:TrackPointExtension>
        </extensions>
      </trkpt>
      <trkpt lat="46.64747656323015689849853515625" lon="6.86379374004900455474853515625">
        <ele>711.20001220703125</ele>
        <time>2013-08-15T17:39:14.000Z</time>
        <extensions>
          <ns3:TrackPointExtension>
            <ns3:atemp>15.0</ns3:atemp>
            <ns3:hr>118</ns3:hr>
          </ns3:TrackPointExtension>
        </extensions>
      </trkpt>
      <trkpt lat="46.64755954407155513763427734375" lon="6.86372433789074420928955078125">
        <ele>710.5999755859375</ele>
        <time>2013-08-15T17:39:15.000Z</time>
        <extensions>
          <ns3:TrackPointExtension>
            <ns3:atemp>15.0</ns3:atemp>
            <ns3:hr>117</ns3:hr>
          </ns3:TrackPointExtension>
        </extensions>
      </trkpt>
      <trkpt lat="46.64763741195201873779296875" lon="6.863657534122467041015625">
        <ele>710.4000244140625</ele>
        <time>2013-08-15T17:39:16.000Z</time>
        <extensions>
          <ns3:TrackPointExtension>
            <ns3:atemp>15.0</ns3:atemp>
            <ns3:hr>117</ns3:hr>
          </ns3:TrackPointExtension>
        </extensions>
      </trkpt>
      <trkpt lat="46.64771611802279949188232421875" lon="6.86359156854450702667236328125">
        <ele>710.20001220703125</ele>
        <time>2013-08-15T17:39:17.000Z</time>
        <extensions>
          <ns3:TrackPointExtension>
            <ns3:atemp>15.0</ns3:atemp>
            <ns3:hr>116</ns3:hr>
          </ns3:TrackPointExtension>
        </extensions>
      </trkpt>
      <trkpt lat="46.6477965004742145538330078125" lon="6.8635373376309871673583984375">
        <ele>710</ele>
        <time>2013-08-15T17:39:18.000Z</time>
        <extensions>
          <ns3:TrackPointExtension>
            <ns3:atemp>15.0</ns3:atemp>
            <ns3:hr>116</ns3:hr>
          </ns3:TrackPointExtension>
        </extensions>
      </trkpt>
      <trkpt lat="46.64787487126886844635009765625" lon="6.86349517665803432464599609375">
        <ele>710</ele>
        <time>2013-08-15T17:39:19.000Z</time>
        <extensions>
          <ns3:TrackPointExtension>
            <ns3:atemp>15.0</ns3:atemp>
            <ns3:hr>116</ns3:hr>
          </ns3:TrackPointExtension>
        </extensions>
      </trkpt>
      <trkpt lat="46.647960953414440155029296875" lon="6.86345175839960575103759765625">
        <ele>709.4000244140625</ele>
        <time>2013-08-15T17:39:20.000Z</time>
        <extensions>
          <ns3:TrackPointExtension>
            <ns3:atemp>15.0</ns3:atemp>
            <ns3:hr>116</ns3:hr>
          </ns3:TrackPointExtension>
        </extensions>
      </trkpt>
      <trkpt lat="46.64805038832128047943115234375" lon="6.863423176109790802001953125">
        <ele>709</ele>
        <time>2013-08-15T17:39:21.000Z</time>
        <extensions>
          <ns3:TrackPointExtension>
            <ns3:atemp>15.0</ns3:atemp>
            <ns3:hr>115</ns3:hr>
          </ns3:TrackPointExtension>
        </extensions>
      </trkpt>
      <trkpt lat="46.64813806302845478057861328125" lon="6.8634049035608768463134765625">
        <ele>708.79998779296875</ele>
        <time>2013-08-15T17:39:22.000Z</time>
        <extensions>
          <ns3:TrackPointExtension>
            <ns3:atemp>15.0</ns3:atemp>
            <ns3:hr>115</ns3:hr>
          </ns3:TrackPointExtension>
        </extensions>
      </trkpt>
      <trkpt lat="46.64821886457502841949462890625" lon="6.86338621191680431365966796875">
        <ele>708.20001220703125</ele>
        <time>2013-08-15T17:39:23.000Z</time>
        <extensions>
          <ns3:TrackPointExtension>
            <ns3:atemp>15.0</ns3:atemp>
            <ns3:hr>115</ns3:hr>
          </ns3:TrackPointExtension>
        </extensions>
      </trkpt>
      <trkpt lat="46.64829530753195285797119140625" lon="6.8633790872991085052490234375">
        <ele>707.5999755859375</ele>
        <time>2013-08-15T17:39:24.000Z</time>
        <extensions>
          <ns3:TrackPointExtension>
            <ns3:atemp>15.0</ns3:atemp>
            <ns3:hr>116</ns3:hr>
          </ns3:TrackPointExtension>
        </extensions>
      </trkpt>
      <trkpt lat="46.64836973883211612701416015625" lon="6.86337791383266448974609375">
        <ele>707.4000244140625</ele>
        <time>2013-08-15T17:39:25.000Z</time>
        <extensions>
          <ns3:TrackPointExtension>
            <ns3:atemp>15.0</ns3:atemp>
            <ns3:hr>115</ns3:hr>
          </ns3:TrackPointExtension>
        </extensions>
      </trkpt>
      <trkpt lat="46.64846512489020824432373046875" lon="6.8634142912924289703369140625">
        <ele>706.79998779296875</ele>
        <time>2013-08-15T17:39:26.000Z</time>
        <extensions>
          <ns3:TrackPointExtension>
            <ns3:atemp>15.0</ns3:atemp>
            <ns3:hr>115</ns3:hr>
          </ns3:TrackPointExtension>
        </extensions>
      </trkpt>
      <trkpt lat="46.64855816401541233062744140625" lon="6.86346114613115787506103515625">
        <ele>706.5999755859375</ele>
        <time>2013-08-15T17:39:27.000Z</time>
        <extensions>
          <ns3:TrackPointExtension>
            <ns3:atemp>15.0</ns3:atemp>
            <ns3:hr>115</ns3:hr>
          </ns3:TrackPointExtension>
        </extensions>
      </trkpt>
      <trkpt lat="46.64863360114395618438720703125" lon="6.86348109506070613861083984375">
        <ele>705.79998779296875</ele>
        <time>2013-08-15T17:39:28.000Z</time>
        <extensions>
          <ns3:TrackPointExtension>
            <ns3:atemp>15.0</ns3:atemp>
            <ns3:hr>115</ns3:hr>
          </ns3:TrackPointExtension>
        </extensions>
      </trkpt>
      <trkpt lat="46.6487010754644870758056640625" lon="6.8634910695254802703857421875">
        <ele>705.20001220703125</ele>
        <time>2013-08-15T17:39:29.000Z</time>
        <extensions>
          <ns3:TrackPointExtension>
            <ns3:atemp>15.0</ns3:atemp>
            <ns3:hr>114</ns3:hr>
          </ns3:TrackPointExtension>
        </extensions>
      </trkpt>
      <trkpt lat="46.6487758420407772064208984375" lon="6.8634860403835773468017578125">
        <ele>704.4000244140625</ele>
        <time>2013-08-15T17:39:30.000Z</time>
        <extensions>
          <ns3:TrackPointExtension>
            <ns3:atemp>15.0</ns3:atemp>
            <ns3:hr>113</ns3:hr>
          </ns3:TrackPointExtension>
        </extensions>
      </trkpt>
      <trkpt lat="46.64884717203676700592041015625" lon="6.8634766526520252227783203125">
        <ele>703.79998779296875</ele>
        <time>2013-08-15T17:39:31.000Z</time>
        <extensions>
          <ns3:TrackPointExtension>
            <ns3:atemp>15.0</ns3:atemp>
            <ns3:hr>112</ns3:hr>
          </ns3:TrackPointExtension>
        </extensions>
      </trkpt>
      <trkpt lat="46.64891422726213932037353515625" lon="6.8634816817939281463623046875">
        <ele>703.4000244140625</ele>
        <time>2013-08-15T17:39:32.000Z</time>
        <extensions>
          <ns3:TrackPointExtension>
            <ns3:atemp>15.0</ns3:atemp>
            <ns3:hr>112</ns3:hr>
          </ns3:TrackPointExtension>
        </extensions>
      </trkpt>
      <trkpt lat="46.64897055365145206451416015625" lon="6.8635158799588680267333984375">
        <ele>703.20001220703125</ele>
        <time>2013-08-15T17:39:33.000Z</time>
        <extensions>
          <ns3:TrackPointExtension>
            <ns3:atemp>15.0</ns3:atemp>
            <ns3:hr>111</ns3:hr>
          </ns3:TrackPointExtension>
        </extensions>
      </trkpt>
      <trkpt lat="46.6490048356354236602783203125" lon="6.86356089077889919281005859375">
        <ele>703.4000244140625</ele>
        <time>2013-08-15T17:39:34.000Z</time>
        <extensions>
          <ns3:TrackPointExtension>
            <ns3:atemp>15.0</ns3:atemp>
            <ns3:hr>110</ns3:hr>
          </ns3:TrackPointExtension>
        </extensions>
      </trkpt>
      <trkpt lat="46.64903710596263408660888671875" lon="6.863610260188579559326171875">
        <ele>703.4000244140625</ele>
        <time>2013-08-15T17:39:35.000Z</time>
        <extensions>
          <ns3:TrackPointExtension>
            <ns3:atemp>15.0</ns3:atemp>
            <ns3:hr>110</ns3:hr>
          </ns3:TrackPointExtension>
        </extensions>
      </trkpt>
      <trkpt lat="46.64906677789986133575439453125" lon="6.8636749684810638427734375">
        <ele>703.4000244140625</ele>
        <time>2013-08-15T17:39:36.000Z</time>
        <extensions>
          <ns3:TrackPointExtension>
            <ns3:atemp>15.0</ns3:atemp>
            <ns3:hr>111</ns3:hr>
          </ns3:TrackPointExtension>
        </extensions>
      </trkpt>
      <trkpt lat="46.6490973718464374542236328125" lon="6.86374512501060962677001953125">
        <ele>703.4000244140625</ele>
        <time>2013-08-15T17:39:37.000Z</time>
        <extensions>
          <ns3:TrackPointExtension>
            <ns3:atemp>15.0</ns3:atemp>
            <ns3:hr>111</ns3:hr>
          </ns3:TrackPointExtension>
        </extensions>
      </trkpt>
      <trkpt lat="46.64913282729685306549072265625" lon="6.86381385661661624908447265625">
        <ele>703.4000244140625</ele>
        <time>2013-08-15T17:39:38.000Z</time>
        <extensions>
          <ns3:TrackPointExtension>
            <ns3:atemp>15.0</ns3:atemp>
            <ns3:hr>112</ns3:hr>
          </ns3:TrackPointExtension>
        </extensions>
      </trkpt>
      <trkpt lat="46.64916937239468097686767578125" lon="6.863888539373874664306640625">
        <ele>703.5999755859375</ele>
        <time>2013-08-15T17:39:39.000Z</time>
        <extensions>
          <ns3:TrackPointExtension>
            <ns3:atemp>15.0</ns3:atemp>
            <ns3:hr>112</ns3:hr>
          </ns3:TrackPointExtension>
        </extensions>
      </trkpt>
      <trkpt lat="46.6492056660354137420654296875" lon="6.86396355740725994110107421875">
        <ele>703.5999755859375</ele>
        <time>2013-08-15T17:39:40.000Z</time>
        <extensions>
          <ns3:TrackPointExtension>
            <ns3:atemp>15.0</ns3:atemp>
            <ns3:hr>113</ns3:hr>
          </ns3:TrackPointExtension>
        </extensions>
      </trkpt>
      <trkpt lat="46.6492469049990177154541015625" lon="6.8640397489070892333984375">
        <ele>703.79998779296875</ele>
        <time>2013-08-15T17:39:41.000Z</time>
        <extensions>
          <ns3:TrackPointExtension>
            <ns3:atemp>15.0</ns3:atemp>
            <ns3:hr>114</ns3:hr>
          </ns3:TrackPointExtension>
        </extensions>
      </trkpt>
      <trkpt lat="46.64929023943841457366943359375" lon="6.86412080191075801849365234375">
        <ele>704</ele>
        <time>2013-08-15T17:39:42.000Z</time>
        <extensions>
          <ns3:TrackPointExtension>
            <ns3:atemp>15.0</ns3:atemp>
            <ns3:hr>115</ns3:hr>
          </ns3:TrackPointExtension>
        </extensions>
      </trkpt>
      <trkpt lat="46.64933281950652599334716796875" lon="6.8642021901905536651611328125">
        <ele>704</ele>
        <time>2013-08-15T17:39:43.000Z</time>
        <extensions>
          <ns3:TrackPointExtension>
            <ns3:atemp>15.0</ns3:atemp>
            <ns3:hr>115</ns3:hr>
          </ns3:TrackPointExtension>
        </extensions>
      </trkpt>
      <trkpt lat="46.64937640540301799774169921875" lon="6.86428475193679332733154296875">
        <ele>703.5999755859375</ele>
        <time>2013-08-15T17:39:44.000Z</time>
        <extensions>
          <ns3:TrackPointExtension>
            <ns3:atemp>15.0</ns3:atemp>
            <ns3:hr>115</ns3:hr>
          </ns3:TrackPointExtension>
        </extensions>
      </trkpt>
      <trkpt lat="46.64942300878465175628662109375" lon="6.8643681518733501434326171875">
        <ele>703.79998779296875</ele>
        <time>2013-08-15T17:39:45.000Z</time>
        <extensions>
          <ns3:TrackPointExtension>
            <ns3:atemp>15.0</ns3:atemp>
            <ns3:hr>115</ns3:hr>
          </ns3:TrackPointExtension>
        </extensions>
      </trkpt>
      <trkpt lat="46.64946743287146091461181640625" lon="6.8644516356289386749267578125">
        <ele>703.79998779296875</ele>
        <time>2013-08-15T17:39:46.000Z</time>
        <extensions>
          <ns3:TrackPointExtension>
            <ns3:atemp>15.0</ns3:atemp>
            <ns3:hr>115</ns3:hr>
          </ns3:TrackPointExtension>
        </extensions>
      </trkpt>
      <trkpt lat="46.6495168022811412811279296875" lon="6.86453134752810001373291015625">
        <ele>703.79998779296875</ele>
        <time>2013-08-15T17:39:47.000Z</time>
        <extensions>
          <ns3:TrackPointExtension>
            <ns3:atemp>15.0</ns3:atemp>
            <ns3:hr>116</ns3:hr>
          </ns3:TrackPointExtension>
        </extensions>
      </trkpt>
      <trkpt lat="46.649565584957599639892578125" lon="6.86461131088435649871826171875">
        <ele>703.4000244140625</ele>
        <time>2013-08-15T17:39:48.000Z</time>
        <extensions>
          <ns3:TrackPointExtension>
            <ns3:atemp>15.0</ns3:atemp>
            <ns3:hr>116</ns3:hr>
          </ns3:TrackPointExtension>
        </extensions>
      </trkpt>
      <trkpt lat="46.6496167145669460296630859375" lon="6.86469144187867641448974609375">
        <ele>703.4000244140625</ele>
        <time>2013-08-15T17:39:49.000Z</time>
        <extensions>
          <ns3:TrackPointExtension>
            <ns3:atemp>15.0</ns3:atemp>
            <ns3:hr>117</ns3:hr>
          </ns3:TrackPointExtension>
        </extensions>
      </trkpt>
      <trkpt lat="46.64966583251953125" lon="6.86476905830204486846923828125">
        <ele>703.20001220703125</ele>
        <time>2013-08-15T17:39:50.000Z</time>
        <extensions>
          <ns3:TrackPointExtension>
            <ns3:atemp>15.0</ns3:atemp>
            <ns3:hr>117</ns3:hr>
          </ns3:TrackPointExtension>
        </extensions>
      </trkpt>
      <trkpt lat="46.64971352554857730865478515625" lon="6.8648489378392696380615234375">
        <ele>703.20001220703125</ele>
        <time>2013-08-15T17:39:51.000Z</time>
        <extensions>
          <ns3:TrackPointExtension>
            <ns3:atemp>15.0</ns3:atemp>
            <ns3:hr>118</ns3:hr>
          </ns3:TrackPointExtension>
        </extensions>
      </trkpt>
      <trkpt lat="46.649760045111179351806640625" lon="6.86492680571973323822021484375">
        <ele>703</ele>
        <time>2013-08-15T17:39:52.000Z</time>
        <extensions>
          <ns3:TrackPointExtension>
            <ns3:atemp>15.0</ns3:atemp>
            <ns3:hr>118</ns3:hr>
          </ns3:TrackPointExtension>
        </extensions>
      </trkpt>
      <trkpt lat="46.64980907924473285675048828125" lon="6.86500777490437030792236328125">
        <ele>703</ele>
        <time>2013-08-15T17:39:53.000Z</time>
        <extensions>
          <ns3:TrackPointExtension>
            <ns3:atemp>15.0</ns3:atemp>
            <ns3:hr>119</ns3:hr>
          </ns3:TrackPointExtension>
        </extensions>
      </trkpt>
      <trkpt lat="46.64985685609281063079833984375" lon="6.86509025283157825469970703125">
        <ele>702.79998779296875</ele>
        <time>2013-08-15T17:39:54.000Z</time>
        <extensions>
          <ns3:TrackPointExtension>
            <ns3:atemp>15.0</ns3:atemp>
            <ns3:hr>119</ns3:hr>
          </ns3:TrackPointExtension>
        </extensions>
      </trkpt>
      <trkpt lat="46.6499063931405544281005859375" lon="6.86517231166362762451171875">
        <ele>702.79998779296875</ele>
        <time>2013-08-15T17:39:55.000Z</time>
        <extensions>
          <ns3:TrackPointExtension>
            <ns3:atemp>15.0</ns3:atemp>
            <ns3:hr>119</ns3:hr>
          </ns3:TrackPointExtension>
        </extensions>
      </trkpt>
      <trkpt lat="46.64995760656893253326416015625" lon="6.8652532808482646942138671875">
        <ele>702.79998779296875</ele>
        <time>2013-08-15T17:39:56.000Z</time>
        <extensions>
          <ns3:TrackPointExtension>
            <ns3:atemp>15.0</ns3:atemp>
            <ns3:hr>119</ns3:hr>
          </ns3:TrackPointExtension>
        </extensions>
      </trkpt>
      <trkpt lat="46.65000705979764461517333984375" lon="6.865338273346424102783203125">
        <ele>702.79998779296875</ele>
        <time>2013-08-15T17:39:57.000Z</time>
        <extensions>
          <ns3:TrackPointExtension>
            <ns3:atemp>15.0</ns3:atemp>
            <ns3:hr>119</ns3:hr>
          </ns3:TrackPointExtension>
        </extensions>
      </trkpt>
      <trkpt lat="46.650056429207324981689453125" lon="6.86542175710201263427734375">
        <ele>702.5999755859375</ele>
        <time>2013-08-15T17:39:58.000Z</time>
        <extensions>
          <ns3:TrackPointExtension>
            <ns3:atemp>15.0</ns3:atemp>
            <ns3:hr>119</ns3:hr>
          </ns3:TrackPointExtension>
        </extensions>
      </trkpt>
      <trkpt lat="46.65010579861700534820556640625" lon="6.86550465412437915802001953125">
        <ele>702.5999755859375</ele>
        <time>2013-08-15T17:39:59.000Z</time>
        <extensions>
          <ns3:TrackPointExtension>
            <ns3:atemp>15.0</ns3:atemp>
            <ns3:hr>119</ns3:hr>
          </ns3:TrackPointExtension>
        </extensions>
      </trkpt>
      <trkpt lat="46.65015734732151031494140625" lon="6.86558461748063564300537109375">
        <ele>702.5999755859375</ele>
        <time>2013-08-15T17:40:00.000Z</time>
        <extensions>
          <ns3:TrackPointExtension>
            <ns3:atemp>15.0</ns3:atemp>
            <ns3:hr>119</ns3:hr>
          </ns3:TrackPointExtension>
        </extensions>
      </trkpt>
      <trkpt lat="46.6502071358263492584228515625" lon="6.86566944234073162078857421875">
        <ele>702.5999755859375</ele>
        <time>2013-08-15T17:40:01.000Z</time>
        <extensions>
          <ns3:TrackPointExtension>
            <ns3:atemp>15.0</ns3:atemp>
            <ns3:hr>120</ns3:hr>
          </ns3:TrackPointExtension>
        </extensions>
      </trkpt>
      <trkpt lat="46.65025818161666393280029296875" lon="6.865752004086971282958984375">
        <ele>702.4000244140625</ele>
        <time>2013-08-15T17:40:02.000Z</time>
        <extensions>
          <ns3:TrackPointExtension>
            <ns3:atemp>15.0</ns3:atemp>
            <ns3:hr>120</ns3:hr>
          </ns3:TrackPointExtension>
        </extensions>
      </trkpt>
      <trkpt lat="46.6503080539405345916748046875" lon="6.86583506874740123748779296875">
        <ele>702.4000244140625</ele>
        <time>2013-08-15T17:40:03.000Z</time>
        <extensions>
          <ns3:TrackPointExtension>
            <ns3:atemp>15.0</ns3:atemp>
            <ns3:hr>120</ns3:hr>
          </ns3:TrackPointExtension>
        </extensions>
      </trkpt>
      <trkpt lat="46.650356836616992950439453125" lon="6.86592006124556064605712890625">
        <ele>702.20001220703125</ele>
        <time>2013-08-15T17:40:04.000Z</time>
        <extensions>
          <ns3:TrackPointExtension>
            <ns3:atemp>15.0</ns3:atemp>
            <ns3:hr>120</ns3:hr>
          </ns3:TrackPointExtension>
        </extensions>
      </trkpt>
      <trkpt lat="46.650405116379261016845703125" lon="6.86600647866725921630859375">
        <ele>702.20001220703125</ele>
        <time>2013-08-15T17:40:05.000Z</time>
        <extensions>
          <ns3:TrackPointExtension>
            <ns3:atemp>15.0</ns3:atemp>
            <ns3:hr>121</ns3:hr>
          </ns3:TrackPointExtension>
        </extensions>
      </trkpt>
      <trkpt lat="46.6504545696079730987548828125" lon="6.86609272845089435577392578125">
        <ele>702</ele>
        <time>2013-08-15T17:40:06.000Z</time>
        <extensions>
          <ns3:TrackPointExtension>
            <ns3:atemp>15.0</ns3:atemp>
            <ns3:hr>121</ns3:hr>
          </ns3:TrackPointExtension>
        </extensions>
      </trkpt>
      <trkpt lat="46.650506369769573211669921875" lon="6.8661766313016414642333984375">
        <ele>701.79998779296875</ele>
        <time>2013-08-15T17:40:07.000Z</time>
        <extensions>
          <ns3:TrackPointExtension>
            <ns3:atemp>15.0</ns3:atemp>
            <ns3:hr>121</ns3:hr>
          </ns3:TrackPointExtension>
        </extensions>
      </trkpt>
      <trkpt lat="46.6505574993789196014404296875" lon="6.86626019887626171112060546875">
        <ele>701.5999755859375</ele>
        <time>2013-08-15T17:40:08.000Z</time>
        <extensions>
          <ns3:TrackPointExtension>
            <ns3:atemp>15.0</ns3:atemp>
            <ns3:hr>121</ns3:hr>
          </ns3:TrackPointExtension>
        </extensions>
      </trkpt>
      <trkpt lat="46.6506101377308368682861328125" lon="6.86634217388927936553955078125">
        <ele>701.5999755859375</ele>
        <time>2013-08-15T17:40:09.000Z</time>
        <extensions>
          <ns3:TrackPointExtension>
            <ns3:atemp>15.0</ns3:atemp>
            <ns3:hr>121</ns3:hr>
          </ns3:TrackPointExtension>
        </extensions>
      </trkpt>
      <trkpt lat="46.65066026151180267333984375" lon="6.8664254061877727508544921875">
        <ele>701.5999755859375</ele>
        <time>2013-08-15T17:40:10.000Z</time>
        <extensions>
          <ns3:TrackPointExtension>
            <ns3:atemp>15.0</ns3:atemp>
            <ns3:hr>121</ns3:hr>
          </ns3:TrackPointExtension>
        </extensions>
      </trkpt>
      <trkpt lat="46.6507107205688953399658203125" lon="6.86650880612432956695556640625">
        <ele>701.5999755859375</ele>
        <time>2013-08-15T17:40:11.000Z</time>
        <extensions>
          <ns3:TrackPointExtension>
            <ns3:atemp>15.0</ns3:atemp>
            <ns3:hr>121</ns3:hr>
          </ns3:TrackPointExtension>
        </extensions>
      </trkpt>
      <trkpt lat="46.65076226927340030670166015625" lon="6.86659228987991809844970703125">
        <ele>701.4000244140625</ele>
        <time>2013-08-15T17:40:12.000Z</time>
        <extensions>
          <ns3:TrackPointExtension>
            <ns3:atemp>15.0</ns3:atemp>
            <ns3:hr>121</ns3:hr>
          </ns3:TrackPointExtension>
        </extensions>
      </trkpt>
      <trkpt lat="46.650813482701778411865234375" lon="6.866674683988094329833984375">
        <ele>701.4000244140625</ele>
        <time>2013-08-15T17:40:13.000Z</time>
        <extensions>
          <ns3:TrackPointExtension>
            <ns3:atemp>15.0</ns3:atemp>
            <ns3:hr>122</ns3:hr>
          </ns3:TrackPointExtension>
        </extensions>
      </trkpt>
      <trkpt lat="46.65086419321596622467041015625" lon="6.8667569942772388458251953125">
        <ele>701.20001220703125</ele>
        <time>2013-08-15T17:40:14.000Z</time>
        <extensions>
          <ns3:TrackPointExtension>
            <ns3:atemp>15.0</ns3:atemp>
            <ns3:hr>122</ns3:hr>
          </ns3:TrackPointExtension>
        </extensions>
      </trkpt>
      <trkpt lat="46.65091381408274173736572265625" lon="6.86683905310928821563720703125">
        <ele>701.4000244140625</ele>
        <time>2013-08-15T17:40:15.000Z</time>
        <extensions>
          <ns3:TrackPointExtension>
            <ns3:atemp>15.0</ns3:atemp>
            <ns3:hr>122</ns3:hr>
          </ns3:TrackPointExtension>
        </extensions>
      </trkpt>
      <trkpt lat="46.6509651951491832733154296875" lon="6.86691968701779842376708984375">
        <ele>701.4000244140625</ele>
        <time>2013-08-15T17:40:16.000Z</time>
        <extensions>
          <ns3:TrackPointExtension>
            <ns3:atemp>15.0</ns3:atemp>
            <ns3:hr>122</ns3:hr>
          </ns3:TrackPointExtension>
        </extensions>
      </trkpt>
      <trkpt lat="46.65101540274918079376220703125" lon="6.86699998565018177032470703125">
        <ele>701.4000244140625</ele>
        <time>2013-08-15T17:40:17.000Z</time>
        <extensions>
          <ns3:TrackPointExtension>
            <ns3:atemp>15.0</ns3:atemp>
            <ns3:hr>123</ns3:hr>
          </ns3:TrackPointExtension>
        </extensions>
      </trkpt>
      <trkpt lat="46.65106468833982944488525390625" lon="6.86708129011094570159912109375">
        <ele>701.4000244140625</ele>
        <time>2013-08-15T17:40:18.000Z</time>
        <extensions>
          <ns3:TrackPointExtension>
            <ns3:atemp>15.0</ns3:atemp>
            <ns3:hr>123</ns3:hr>
          </ns3:TrackPointExtension>
        </extensions>
      </trkpt>
      <trkpt lat="46.6511133871972560882568359375" lon="6.86716192401945590972900390625">
        <ele>701.20001220703125</ele>
        <time>2013-08-15T17:40:19.000Z</time>
        <extensions>
          <ns3:TrackPointExtension>
            <ns3:atemp>15.0</ns3:atemp>
            <ns3:hr>123</ns3:hr>
          </ns3:TrackPointExtension>
        </extensions>
      </trkpt>
      <trkpt lat="46.65116250514984130859375" lon="6.86723903752863407135009765625">
        <ele>701</ele>
        <time>2013-08-15T17:40:20.000Z</time>
        <extensions>
          <ns3:TrackPointExtension>
            <ns3:atemp>15.0</ns3:atemp>
            <ns3:hr>124</ns3:hr>
          </ns3:TrackPointExtension>
        </extensions>
      </trkpt>
      <trkpt lat="46.65121137164533138275146484375" lon="6.86731564812362194061279296875">
        <ele>700.79998779296875</ele>
        <time>2013-08-15T17:40:21.000Z</time>
        <extensions>
          <ns3:TrackPointExtension>
            <ns3:atemp>15.0</ns3:atemp>
            <ns3:hr>124</ns3:hr>
          </ns3:TrackPointExtension>
        </extensions>
      </trkpt>
      <trkpt lat="46.65125906467437744140625" lon="6.86739024706184864044189453125">
        <ele>700.79998779296875</ele>
        <time>2013-08-15T17:40:22.000Z</time>
        <extensions>
          <ns3:TrackPointExtension>
            <ns3:atemp>15.0</ns3:atemp>
            <ns3:hr>125</ns3:hr>
          </ns3:TrackPointExtension>
        </extensions>
      </trkpt>
      <trkpt lat="46.65130759589374065399169921875" lon="6.86746291816234588623046875">
        <ele>700.5999755859375</ele>
        <time>2013-08-15T17:40:23.000Z</time>
        <extensions>
          <ns3:TrackPointExtension>
            <ns3:atemp>15.0</ns3:atemp>
            <ns3:hr>125</ns3:hr>
          </ns3:TrackPointExtension>
        </extensions>
      </trkpt>
      <trkpt lat="46.65135503746569156646728515625" lon="6.86753667891025543212890625">
        <ele>700.4000244140625</ele>
        <time>2013-08-15T17:40:24.000Z</time>
        <extensions>
          <ns3:TrackPointExtension>
            <ns3:atemp>15.0</ns3:atemp>
            <ns3:hr>125</ns3:hr>
          </ns3:TrackPointExtension>
        </extensions>
      </trkpt>
      <trkpt lat="46.6514023952186107635498046875" lon="6.86760733835399150848388671875">
        <ele>700.20001220703125</ele>
        <time>2013-08-15T17:40:25.000Z</time>
        <extensions>
          <ns3:TrackPointExtension>
            <ns3:atemp>15.0</ns3:atemp>
            <ns3:hr>125</ns3:hr>
          </ns3:TrackPointExtension>
        </extensions>
      </trkpt>
      <trkpt lat="46.65144841186702251434326171875" lon="6.86767824925482273101806640625">
        <ele>700.20001220703125</ele>
        <time>2013-08-15T17:40:26.000Z</time>
        <extensions>
          <ns3:TrackPointExtension>
            <ns3:atemp>15.0</ns3:atemp>
            <ns3:hr>126</ns3:hr>
          </ns3:TrackPointExtension>
        </extensions>
      </trkpt>
      <trkpt lat="46.65149652399122714996337890625" lon="6.86774681322276592254638671875">
        <ele>700.20001220703125</ele>
        <time>2013-08-15T17:40:27.000Z</time>
        <extensions>
          <ns3:TrackPointExtension>
            <ns3:atemp>15.0</ns3:atemp>
            <ns3:hr>125</ns3:hr>
          </ns3:TrackPointExtension>
        </extensions>
      </trkpt>
      <trkpt lat="46.65154614485800266265869140625" lon="6.8678131140768527984619140625">
        <ele>700.4000244140625</ele>
        <time>2013-08-15T17:40:28.000Z</time>
        <extensions>
          <ns3:TrackPointExtension>
            <ns3:atemp>15.0</ns3:atemp>
            <ns3:hr>126</ns3:hr>
          </ns3:TrackPointExtension>
        </extensions>
      </trkpt>
      <trkpt lat="46.6515935026109218597412109375" lon="6.86788226477801799774169921875">
        <ele>700.4000244140625</ele>
        <time>2013-08-15T17:40:29.000Z</time>
        <extensions>
          <ns3:TrackPointExtension>
            <ns3:atemp>15.0</ns3:atemp>
            <ns3:hr>126</ns3:hr>
          </ns3:TrackPointExtension>
        </extensions>
      </trkpt>
      <trkpt lat="46.6516412794589996337890625" lon="6.86794965527951717376708984375">
        <ele>700.4000244140625</ele>
        <time>2013-08-15T17:40:30.000Z</time>
        <extensions>
          <ns3:TrackPointExtension>
            <ns3:atemp>15.0</ns3:atemp>
            <ns3:hr>126</ns3:hr>
          </ns3:TrackPointExtension>
        </extensions>
      </trkpt>
      <trkpt lat="46.651689223945140838623046875" lon="6.86801687814295291900634765625">
        <ele>700.4000244140625</ele>
        <time>2013-08-15T17:40:31.000Z</time>
        <extensions>
          <ns3:TrackPointExtension>
            <ns3:atemp>15.0</ns3:atemp>
            <ns3:hr>127</ns3:hr>
          </ns3:TrackPointExtension>
        </extensions>
      </trkpt>
      <trkpt lat="46.65173641405999660491943359375" lon="6.8680806644260883331298828125">
        <ele>700.4000244140625</ele>
        <time>2013-08-15T17:40:32.000Z</time>
        <extensions>
          <ns3:TrackPointExtension>
            <ns3:atemp>15.0</ns3:atemp>
            <ns3:hr>127</ns3:hr>
          </ns3:TrackPointExtension>
        </extensions>
      </trkpt>
      <trkpt lat="46.65178419090807437896728515625" lon="6.868142187595367431640625">
        <ele>700.5999755859375</ele>
        <time>2013-08-15T17:40:33.000Z</time>
        <extensions>
          <ns3:TrackPointExtension>
            <ns3:atemp>15.0</ns3:atemp>
            <ns3:hr>127</ns3:hr>
          </ns3:TrackPointExtension>
        </extensions>
      </trkpt>
      <trkpt lat="46.6518312133848667144775390625" lon="6.86820278875529766082763671875">
        <ele>700.5999755859375</ele>
        <time>2013-08-15T17:40:34.000Z</time>
        <extensions>
          <ns3:TrackPointExtension>
            <ns3:atemp>15.0</ns3:atemp>
            <ns3:hr>127</ns3:hr>
          </ns3:TrackPointExtension>
        </extensions>
      </trkpt>
      <trkpt lat="46.65187873877584934234619140625" lon="6.8682600371539592742919921875">
        <ele>700.79998779296875</ele>
        <time>2013-08-15T17:40:35.000Z</time>
        <extensions>
          <ns3:TrackPointExtension>
            <ns3:atemp>15.0</ns3:atemp>
            <ns3:hr>127</ns3:hr>
          </ns3:TrackPointExtension>
        </extensions>
      </trkpt>
      <trkpt lat="46.65192768909037113189697265625" lon="6.86831762082874774932861328125">
        <ele>700.79998779296875</ele>
        <time>2013-08-15T17:40:36.000Z</time>
        <extensions>
          <ns3:TrackPointExtension>
            <ns3:atemp>15.0</ns3:atemp>
            <ns3:hr>127</ns3:hr>
          </ns3:TrackPointExtension>
        </extensions>
      </trkpt>
      <trkpt lat="46.651978231966495513916015625" lon="6.86837361194193363189697265625">
        <ele>700.79998779296875</ele>
        <time>2013-08-15T17:40:37.000Z</time>
        <extensions>
          <ns3:TrackPointExtension>
            <ns3:atemp>15.0</ns3:atemp>
            <ns3:hr>128</ns3:hr>
          </ns3:TrackPointExtension>
        </extensions>
      </trkpt>
      <trkpt lat="46.6520276851952075958251953125" lon="6.8684266693890094757080078125">
        <ele>700.79998779296875</ele>
        <time>2013-08-15T17:40:38.000Z</time>
        <extensions>
          <ns3:TrackPointExtension>
            <ns3:atemp>15.0</ns3:atemp>
            <ns3:hr>128</ns3:hr>
          </ns3:TrackPointExtension>
        </extensions>
      </trkpt>
      <trkpt lat="46.6520793177187442779541015625" lon="6.86847955919802188873291015625">
        <ele>701.20001220703125</ele>
        <time>2013-08-15T17:40:39.000Z</time>
        <extensions>
          <ns3:TrackPointExtension>
            <ns3:atemp>15.0</ns3:atemp>
            <ns3:hr>128</ns3:hr>
          </ns3:TrackPointExtension>
        </extensions>
      </trkpt>
      <trkpt lat="46.65212986059486865997314453125" lon="6.86853437684476375579833984375">
        <ele>701.4000244140625</ele>
        <time>2013-08-15T17:40:40.000Z</time>
        <extensions>
          <ns3:TrackPointExtension>
            <ns3:atemp>15.0</ns3:atemp>
            <ns3:hr>128</ns3:hr>
          </ns3:TrackPointExtension>
        </extensions>
      </trkpt>
      <trkpt lat="46.65217763744294643402099609375" lon="6.86859053559601306915283203125">
        <ele>701.79998779296875</ele>
        <time>2013-08-15T17:40:41.000Z</time>
        <extensions>
          <ns3:TrackPointExtension>
            <ns3:atemp>15.0</ns3:atemp>
            <ns3:hr>128</ns3:hr>
          </ns3:TrackPointExtension>
        </extensions>
      </trkpt>
      <trkpt lat="46.6522254981100559234619140625" lon="6.86864652670919895172119140625">
        <ele>702</ele>
        <time>2013-08-15T17:40:42.000Z</time>
        <extensions>
          <ns3:TrackPointExtension>
            <ns3:atemp>15.0</ns3:atemp>
            <ns3:hr>128</ns3:hr>
          </ns3:TrackPointExtension>
        </extensions>
      </trkpt>
      <trkpt lat="46.65227419696748256683349609375" lon="6.86869715340435504913330078125">
        <ele>702</ele>
        <time>2013-08-15T17:40:43.000Z</time>
        <extensions>
          <ns3:TrackPointExtension>
            <ns3:atemp>15.0</ns3:atemp>
            <ns3:hr>128</ns3:hr>
          </ns3:TrackPointExtension>
        </extensions>
      </trkpt>
      <trkpt lat="46.6523240692913532257080078125" lon="6.86874342150986194610595703125">
        <ele>702.20001220703125</ele>
        <time>2013-08-15T17:40:44.000Z</time>
        <extensions>
          <ns3:TrackPointExtension>
            <ns3:atemp>15.0</ns3:atemp>
            <ns3:hr>129</ns3:hr>
          </ns3:TrackPointExtension>
        </extensions>
      </trkpt>
      <trkpt lat="46.65237176232039928436279296875" lon="6.86879237182438373565673828125">
        <ele>702.20001220703125</ele>
        <time>2013-08-15T17:40:45.000Z</time>
        <extensions>
          <ns3:TrackPointExtension>
            <ns3:atemp>15.0</ns3:atemp>
            <ns3:hr>129</ns3:hr>
          </ns3:TrackPointExtension>
        </extensions>
      </trkpt>
      <trkpt lat="46.6524192877113819122314453125" lon="6.86884383670985698699951171875">
        <ele>702.4000244140625</ele>
        <time>2013-08-15T17:40:46.000Z</time>
        <extensions>
          <ns3:TrackPointExtension>
            <ns3:atemp>15.0</ns3:atemp>
            <ns3:hr>130</ns3:hr>
          </ns3:TrackPointExtension>
        </extensions>
      </trkpt>
      <trkpt lat="46.65246496908366680145263671875" lon="6.86889278702437877655029296875">
        <ele>702.4000244140625</ele>
        <time>2013-08-15T17:40:47.000Z</time>
        <extensions>
          <ns3:TrackPointExtension>
            <ns3:atemp>15.0</ns3:atemp>
            <ns3:hr>130</ns3:hr>
          </ns3:TrackPointExtension>
        </extensions>
      </trkpt>
      <trkpt lat="46.65251224301755428314208984375" lon="6.8689396418631076812744140625">
        <ele>702.4000244140625</ele>
        <time>2013-08-15T17:40:48.000Z</time>
        <extensions>
          <ns3:TrackPointExtension>
            <ns3:atemp>15.0</ns3:atemp>
            <ns3:hr>131</ns3:hr>
          </ns3:TrackPointExtension>
        </extensions>
      </trkpt>
      <trkpt lat="46.65255985222756862640380859375" lon="6.86898498795926570892333984375">
        <ele>702.20001220703125</ele>
        <time>2013-08-15T17:40:49.000Z</time>
        <extensions>
          <ns3:TrackPointExtension>
            <ns3:atemp>15.0</ns3:atemp>
            <ns3:hr>131</ns3:hr>
          </ns3:TrackPointExtension>
        </extensions>
      </trkpt>
      <trkpt lat="46.6526068747043609619140625" lon="6.86902957968413829803466796875">
        <ele>702.20001220703125</ele>
        <time>2013-08-15T17:40:50.000Z</time>
        <extensions>
          <ns3:TrackPointExtension>
            <ns3:atemp>15.0</ns3:atemp>
            <ns3:hr>132</ns3:hr>
          </ns3:TrackPointExtension>
        </extensions>
      </trkpt>
      <trkpt lat="46.65265255607664585113525390625" lon="6.86908029019832611083984375">
        <ele>702.20001220703125</ele>
        <time>2013-08-15T17:40:51.000Z</time>
        <extensions>
          <ns3:TrackPointExtension>
            <ns3:atemp>15.0</ns3:atemp>
            <ns3:hr>133</ns3:hr>
          </ns3:TrackPointExtension>
        </extensions>
      </trkpt>
      <trkpt lat="46.6526995785534381866455078125" lon="6.86912731267511844635009765625">
        <ele>702.4000244140625</ele>
        <time>2013-08-15T17:40:52.000Z</time>
        <extensions>
          <ns3:TrackPointExtension>
            <ns3:atemp>15.0</ns3:atemp>
            <ns3:hr>133</ns3:hr>
          </ns3:TrackPointExtension>
        </extensions>
      </trkpt>
      <trkpt lat="46.6527458466589450836181640625" lon="6.8691736645996570587158203125">
        <ele>702.4000244140625</ele>
        <time>2013-08-15T17:40:53.000Z</time>
        <extensions>
          <ns3:TrackPointExtension>
            <ns3:atemp>15.0</ns3:atemp>
            <ns3:hr>134</ns3:hr>
          </ns3:TrackPointExtension>
        </extensions>
      </trkpt>
      <trkpt lat="46.65279035456478595733642578125" lon="6.86922253109514713287353515625">
        <ele>702.5999755859375</ele>
        <time>2013-08-15T17:40:54.000Z</time>
        <extensions>
          <ns3:TrackPointExtension>
            <ns3:atemp>15.0</ns3:atemp>
            <ns3:hr>134</ns3:hr>
          </ns3:TrackPointExtension>
        </extensions>
      </trkpt>
      <trkpt lat="46.6528343595564365386962890625" lon="6.8692705594003200531005859375">
        <ele>702.79998779296875</ele>
        <time>2013-08-15T17:40:55.000Z</time>
        <extensions>
          <ns3:TrackPointExtension>
            <ns3:atemp>15.0</ns3:atemp>
            <ns3:hr>135</ns3:hr>
          </ns3:TrackPointExtension>
        </extensions>
      </trkpt>
      <trkpt lat="46.652881465852260589599609375" lon="6.86931431293487548828125">
        <ele>702.79998779296875</ele>
        <time>2013-08-15T17:40:56.000Z</time>
        <extensions>
          <ns3:TrackPointExtension>
            <ns3:atemp>15.0</ns3:atemp>
            <ns3:hr>135</ns3:hr>
          </ns3:TrackPointExtension>
        </extensions>
      </trkpt>
      <trkpt lat="46.6529287397861480712890625" lon="6.86935949139297008514404296875">
        <ele>703</ele>
        <time>2013-08-15T17:40:57.000Z</time>
        <extensions>
          <ns3:TrackPointExtension>
            <ns3:atemp>15.0</ns3:atemp>
            <ns3:hr>135</ns3:hr>
          </ns3:TrackPointExtension>
        </extensions>
      </trkpt>
      <trkpt lat="46.65297492407262325286865234375" lon="6.8694060109555721282958984375">
        <ele>703</ele>
        <time>2013-08-15T17:40:58.000Z</time>
        <extensions>
          <ns3:TrackPointExtension>
            <ns3:atemp>15.0</ns3:atemp>
            <ns3:hr>136</ns3:hr>
          </ns3:TrackPointExtension>
        </extensions>
      </trkpt>
      <trkpt lat="46.65302194654941558837890625" lon="6.86945035122334957122802734375">
        <ele>703.20001220703125</ele>
        <time>2013-08-15T17:40:59.000Z</time>
        <extensions>
          <ns3:TrackPointExtension>
            <ns3:atemp>15.0</ns3:atemp>
            <ns3:hr>136</ns3:hr>
          </ns3:TrackPointExtension>
        </extensions>
      </trkpt>
      <trkpt lat="46.65306963957846164703369140625" lon="6.8694962002336978912353515625">
        <ele>703.20001220703125</ele>
        <time>2013-08-15T17:41:00.000Z</time>
        <extensions>
          <ns3:TrackPointExtension>
            <ns3:atemp>15.0</ns3:atemp>
            <ns3:hr>136</ns3:hr>
          </ns3:TrackPointExtension>
        </extensions>
      </trkpt>
      <trkpt lat="46.6531156562268733978271484375" lon="6.86954221688210964202880859375">
        <ele>703.4000244140625</ele>
        <time>2013-08-15T17:41:01.000Z</time>
        <extensions>
          <ns3:TrackPointExtension>
            <ns3:atemp>15.0</ns3:atemp>
            <ns3:hr>136</ns3:hr>
          </ns3:TrackPointExtension>
        </extensions>
      </trkpt>
      <trkpt lat="46.653161756694316864013671875" lon="6.8695892393589019775390625">
        <ele>703.5999755859375</ele>
        <time>2013-08-15T17:41:02.000Z</time>
        <extensions>
          <ns3:TrackPointExtension>
            <ns3:atemp>15.0</ns3:atemp>
            <ns3:hr>136</ns3:hr>
          </ns3:TrackPointExtension>
        </extensions>
      </trkpt>
      <trkpt lat="46.65320794098079204559326171875" lon="6.86963659711182117462158203125">
        <ele>703.5999755859375</ele>
        <time>2013-08-15T17:41:03.000Z</time>
        <extensions>
          <ns3:TrackPointExtension>
            <ns3:atemp>15.0</ns3:atemp>
            <ns3:hr>136</ns3:hr>
          </ns3:TrackPointExtension>
        </extensions>
      </trkpt>
      <trkpt lat="46.6532558016479015350341796875" lon="6.8696816079318523406982421875">
        <ele>703.5999755859375</ele>
        <time>2013-08-15T17:41:04.000Z</time>
        <extensions>
          <ns3:TrackPointExtension>
            <ns3:atemp>15.0</ns3:atemp>
            <ns3:hr>136</ns3:hr>
          </ns3:TrackPointExtension>
        </extensions>
      </trkpt>
      <trkpt lat="46.65330148302018642425537109375" lon="6.869730055332183837890625">
        <ele>703.5999755859375</ele>
        <time>2013-08-15T17:41:05.000Z</time>
        <extensions>
          <ns3:TrackPointExtension>
            <ns3:atemp>15.0</ns3:atemp>
            <ns3:hr>136</ns3:hr>
          </ns3:TrackPointExtension>
        </extensions>
      </trkpt>
      <trkpt lat="46.6533473320305347442626953125" lon="6.86977992765605449676513671875">
        <ele>703.79998779296875</ele>
        <time>2013-08-15T17:41:06.000Z</time>
        <extensions>
          <ns3:TrackPointExtension>
            <ns3:atemp>15.0</ns3:atemp>
            <ns3:hr>137</ns3:hr>
          </ns3:TrackPointExtension>
        </extensions>
      </trkpt>
      <trkpt lat="46.653394438326358795166015625" lon="6.86982971616089344024658203125">
        <ele>704</ele>
        <time>2013-08-15T17:41:07.000Z</time>
        <extensions>
          <ns3:TrackPointExtension>
            <ns3:atemp>15.0</ns3:atemp>
            <ns3:hr>136</ns3:hr>
          </ns3:TrackPointExtension>
        </extensions>
      </trkpt>
      <trkpt lat="46.653440706431865692138671875" lon="6.8698817677795886993408203125">
        <ele>704.20001220703125</ele>
        <time>2013-08-15T17:41:08.000Z</time>
        <extensions>
          <ns3:TrackPointExtension>
            <ns3:atemp>15.0</ns3:atemp>
            <ns3:hr>136</ns3:hr>
          </ns3:TrackPointExtension>
        </extensions>
      </trkpt>
      <trkpt lat="46.653484962880611419677734375" lon="6.86993499286472797393798828125">
        <ele>704.20001220703125</ele>
        <time>2013-08-15T17:41:09.000Z</time>
        <extensions>
          <ns3:TrackPointExtension>
            <ns3:atemp>15.0</ns3:atemp>
            <ns3:hr>137</ns3:hr>
          </ns3:TrackPointExtension>
        </extensions>
      </trkpt>
      <trkpt lat="46.65353030897676944732666015625" lon="6.8699897266924381256103515625">
        <ele>704.4000244140625</ele>
        <time>2013-08-15T17:41:10.000Z</time>
        <extensions>
          <ns3:TrackPointExtension>
            <ns3:atemp>15.0</ns3:atemp>
            <ns3:hr>137</ns3:hr>
          </ns3:TrackPointExtension>
        </extensions>
      </trkpt>
      <trkpt lat="46.65357406251132488250732421875" lon="6.8700453825294971466064453125">
        <ele>704.4000244140625</ele>
        <time>2013-08-15T17:41:11.000Z</time>
        <extensions>
          <ns3:TrackPointExtension>
            <ns3:atemp>15.0</ns3:atemp>
            <ns3:hr>137</ns3:hr>
          </ns3:TrackPointExtension>
        </extensions>
      </trkpt>
      <trkpt lat="46.65361982770264148712158203125" lon="6.87009676359593868255615234375">
        <ele>704.20001220703125</ele>
        <time>2013-08-15T17:41:12.000Z</time>
        <extensions>
          <ns3:TrackPointExtension>
            <ns3:atemp>15.0</ns3:atemp>
            <ns3:hr>137</ns3:hr>
          </ns3:TrackPointExtension>
        </extensions>
      </trkpt>
      <trkpt lat="46.65366441942751407623291015625" lon="6.87015191651880741119384765625">
        <ele>704.20001220703125</ele>
        <time>2013-08-15T17:41:13.000Z</time>
        <extensions>
          <ns3:TrackPointExtension>
            <ns3:atemp>15.0</ns3:atemp>
            <ns3:hr>137</ns3:hr>
          </ns3:TrackPointExtension>
        </extensions>
      </trkpt>
      <trkpt lat="46.65370867587625980377197265625" lon="6.87020815908908843994140625">
        <ele>704.20001220703125</ele>
        <time>2013-08-15T17:41:14.000Z</time>
        <extensions>
          <ns3:TrackPointExtension>
            <ns3:atemp>15.0</ns3:atemp>
            <ns3:hr>138</ns3:hr>
          </ns3:TrackPointExtension>
        </extensions>
      </trkpt>
      <trkpt lat="46.6537516750395298004150390625" lon="6.87026440165936946868896484375">
        <ele>704.4000244140625</ele>
        <time>2013-08-15T17:41:15.000Z</time>
        <extensions>
          <ns3:TrackPointExtension>
            <ns3:atemp>15.0</ns3:atemp>
            <ns3:hr>138</ns3:hr>
          </ns3:TrackPointExtension>
        </extensions>
      </trkpt>
      <trkpt lat="46.653793752193450927734375" lon="6.87032290734350681304931640625">
        <ele>704.5999755859375</ele>
        <time>2013-08-15T17:41:16.000Z</time>
        <extensions>
          <ns3:TrackPointExtension>
            <ns3:atemp>15.0</ns3:atemp>
            <ns3:hr>138</ns3:hr>
          </ns3:TrackPointExtension>
        </extensions>
      </trkpt>
      <trkpt lat="46.65383599698543548583984375" lon="6.87038375996053218841552734375">
        <ele>704.5999755859375</ele>
        <time>2013-08-15T17:41:17.000Z</time>
        <extensions>
          <ns3:TrackPointExtension>
            <ns3:atemp>15.0</ns3:atemp>
            <ns3:hr>139</ns3:hr>
          </ns3:TrackPointExtension>
        </extensions>
      </trkpt>
      <trkpt lat="46.65387949906289577484130859375" lon="6.87044125981628894805908203125">
        <ele>704.5999755859375</ele>
        <time>2013-08-15T17:41:18.000Z</time>
        <extensions>
          <ns3:TrackPointExtension>
            <ns3:atemp>16.0</ns3:atemp>
            <ns3:hr>139</ns3:hr>
          </ns3:TrackPointExtension>
        </extensions>
      </trkpt>
      <trkpt lat="46.653922162950038909912109375" lon="6.8705026991665363311767578125">
        <ele>704.5999755859375</ele>
        <time>2013-08-15T17:41:19.000Z</time>
        <extensions>
          <ns3:TrackPointExtension>
            <ns3:atemp>16.0</ns3:atemp>
            <ns3:hr>139</ns3:hr>
          </ns3:TrackPointExtension>
        </extensions>
      </trkpt>
      <trkpt lat="46.653965078294277191162109375" lon="6.87056715600192546844482421875">
        <ele>704.5999755859375</ele>
        <time>2013-08-15T17:41:20.000Z</time>
        <extensions>
          <ns3:TrackPointExtension>
            <ns3:atemp>16.0</ns3:atemp>
            <ns3:hr>139</ns3:hr>
          </ns3:TrackPointExtension>
        </extensions>
      </trkpt>
      <trkpt lat="46.6540105082094669342041015625" lon="6.87062817625701427459716796875">
        <ele>704.5999755859375</ele>
        <time>2013-08-15T17:41:21.000Z</time>
        <extensions>
          <ns3:TrackPointExtension>
            <ns3:atemp>16.0</ns3:atemp>
            <ns3:hr>139</ns3:hr>
          </ns3:TrackPointExtension>
        </extensions>
      </trkpt>
      <trkpt lat="46.65405518375337123870849609375" lon="6.8706904537975788116455078125">
        <ele>704.5999755859375</ele>
        <time>2013-08-15T17:41:22.000Z</time>
        <extensions>
          <ns3:TrackPointExtension>
            <ns3:atemp>16.0</ns3:atemp>
            <ns3:hr>139</ns3:hr>
          </ns3:TrackPointExtension>
        </extensions>
      </trkpt>
      <trkpt lat="46.65409885346889495849609375" lon="6.870754994451999664306640625">
        <ele>704.5999755859375</ele>
        <time>2013-08-15T17:41:23.000Z</time>
        <extensions>
          <ns3:TrackPointExtension>
            <ns3:atemp>16.0</ns3:atemp>
            <ns3:hr>139</ns3:hr>
          </ns3:TrackPointExtension>
        </extensions>
      </trkpt>
      <trkpt lat="46.6541439481079578399658203125" lon="6.87081777490675449371337890625">
        <ele>704.79998779296875</ele>
        <time>2013-08-15T17:41:24.000Z</time>
        <extensions>
          <ns3:TrackPointExtension>
            <ns3:atemp>16.0</ns3:atemp>
            <ns3:hr>139</ns3:hr>
          </ns3:TrackPointExtension>
        </extensions>
      </trkpt>
      <trkpt lat="46.6541908867657184600830078125" lon="6.8708805553615093231201171875">
        <ele>704.79998779296875</ele>
        <time>2013-08-15T17:41:25.000Z</time>
        <extensions>
          <ns3:TrackPointExtension>
            <ns3:atemp>16.0</ns3:atemp>
            <ns3:hr>138</ns3:hr>
          </ns3:TrackPointExtension>
        </extensions>
      </trkpt>
      <trkpt lat="46.65423455648124217987060546875" lon="6.87095087952911853790283203125">
        <ele>704.79998779296875</ele>
        <time>2013-08-15T17:41:26.000Z</time>
        <extensions>
          <ns3:TrackPointExtension>
            <ns3:atemp>16.0</ns3:atemp>
            <ns3:hr>138</ns3:hr>
          </ns3:TrackPointExtension>
        </extensions>
      </trkpt>
      <trkpt lat="46.65427730418741703033447265625" lon="6.87102531082928180694580078125">
        <ele>704.79998779296875</ele>
        <time>2013-08-15T17:41:27.000Z</time>
        <extensions>
          <ns3:TrackPointExtension>
            <ns3:atemp>16.0</ns3:atemp>
            <ns3:hr>138</ns3:hr>
          </ns3:TrackPointExtension>
        </extensions>
      </trkpt>
      <trkpt lat="46.65432189591228961944580078125" lon="6.8710941262543201446533203125">
        <ele>704.5999755859375</ele>
        <time>2013-08-15T17:41:28.000Z</time>
        <extensions>
          <ns3:TrackPointExtension>
            <ns3:atemp>16.0</ns3:atemp>
            <ns3:hr>137</ns3:hr>
          </ns3:TrackPointExtension>
        </extensions>
      </trkpt>
      <trkpt lat="46.65436782874166965484619140625" lon="6.8711628578603267669677734375">
        <ele>704.4000244140625</ele>
        <time>2013-08-15T17:41:29.000Z</time>
        <extensions>
          <ns3:TrackPointExtension>
            <ns3:atemp>16.0</ns3:atemp>
            <ns3:hr>137</ns3:hr>
          </ns3:TrackPointExtension>
        </extensions>
      </trkpt>
      <trkpt lat="46.6544128395617008209228515625" lon="6.8712362833321094512939453125">
        <ele>704.20001220703125</ele>
        <time>2013-08-15T17:41:30.000Z</time>
        <extensions>
          <ns3:TrackPointExtension>
            <ns3:atemp>16.0</ns3:atemp>
            <ns3:hr>136</ns3:hr>
          </ns3:TrackPointExtension>
        </extensions>
      </trkpt>
      <trkpt lat="46.654458604753017425537109375" lon="6.8713093735277652740478515625">
        <ele>704</ele>
        <time>2013-08-15T17:41:31.000Z</time>
        <extensions>
          <ns3:TrackPointExtension>
            <ns3:atemp>16.0</ns3:atemp>
            <ns3:hr>136</ns3:hr>
          </ns3:TrackPointExtension>
        </extensions>
      </trkpt>
      <trkpt lat="46.6545053757727146148681640625" lon="6.87138439156115055084228515625">
        <ele>704</ele>
        <time>2013-08-15T17:41:32.000Z</time>
        <extensions>
          <ns3:TrackPointExtension>
            <ns3:atemp>16.0</ns3:atemp>
            <ns3:hr>135</ns3:hr>
          </ns3:TrackPointExtension>
        </extensions>
      </trkpt>
      <trkpt lat="46.6545519791543483734130859375" lon="6.8714572302997112274169921875">
        <ele>703.79998779296875</ele>
        <time>2013-08-15T17:41:33.000Z</time>
        <extensions>
          <ns3:TrackPointExtension>
            <ns3:atemp>16.0</ns3:atemp>
            <ns3:hr>135</ns3:hr>
          </ns3:TrackPointExtension>
        </extensions>
      </trkpt>
      <trkpt lat="46.65460000745952129364013671875" lon="6.871527470648288726806640625">
        <ele>703.79998779296875</ele>
        <time>2013-08-15T17:41:34.000Z</time>
        <extensions>
          <ns3:TrackPointExtension>
            <ns3:atemp>16.0</ns3:atemp>
            <ns3:hr>134</ns3:hr>
          </ns3:TrackPointExtension>
        </extensions>
      </trkpt>
      <trkpt lat="46.65464711375534534454345703125" lon="6.87160030938684940338134765625">
        <ele>703.5999755859375</ele>
        <time>2013-08-15T17:41:35.000Z</time>
        <extensions>
          <ns3:TrackPointExtension>
            <ns3:atemp>16.0</ns3:atemp>
            <ns3:hr>134</ns3:hr>
          </ns3:TrackPointExtension>
        </extensions>
      </trkpt>
      <trkpt lat="46.65469706989824771881103515625" lon="6.871672980487346649169921875">
        <ele>703.4000244140625</ele>
        <time>2013-08-15T17:41:36.000Z</time>
        <extensions>
          <ns3:TrackPointExtension>
            <ns3:atemp>16.0</ns3:atemp>
            <ns3:hr>133</ns3:hr>
          </ns3:TrackPointExtension>
        </extensions>
      </trkpt>
      <trkpt lat="46.65474794805049896240234375" lon="6.871746741235256195068359375">
        <ele>703.20001220703125</ele>
        <time>2013-08-15T17:41:37.000Z</time>
        <extensions>
          <ns3:TrackPointExtension>
            <ns3:atemp>16.0</ns3:atemp>
            <ns3:hr>133</ns3:hr>
          </ns3:TrackPointExtension>
        </extensions>
      </trkpt>
      <trkpt lat="46.65479849092662334442138671875" lon="6.87182343564927577972412109375">
        <ele>703.20001220703125</ele>
        <time>2013-08-15T17:41:38.000Z</time>
        <extensions>
          <ns3:TrackPointExtension>
            <ns3:atemp>16.0</ns3:atemp>
            <ns3:hr>132</ns3:hr>
          </ns3:TrackPointExtension>
        </extensions>
      </trkpt>
      <trkpt lat="46.65485129691660404205322265625" lon="6.87190021388232707977294921875">
        <ele>703</ele>
        <time>2013-08-15T17:41:39.000Z</time>
        <extensions>
          <ns3:TrackPointExtension>
            <ns3:atemp>16.0</ns3:atemp>
            <ns3:hr>132</ns3:hr>
          </ns3:TrackPointExtension>
        </extensions>
      </trkpt>
      <trkpt lat="46.654905863106250762939453125" lon="6.8719742260873317718505859375">
        <ele>703.20001220703125</ele>
        <time>2013-08-15T17:41:40.000Z</time>
        <extensions>
          <ns3:TrackPointExtension>
            <ns3:atemp>16.0</ns3:atemp>
            <ns3:hr>131</ns3:hr>
          </ns3:TrackPointExtension>
        </extensions>
      </trkpt>
      <trkpt lat="46.6549603454768657684326171875" lon="6.872049830853939056396484375">
        <ele>702.79998779296875</ele>
        <time>2013-08-15T17:41:41.000Z</time>
        <extensions>
          <ns3:TrackPointExtension>
            <ns3:atemp>16.0</ns3:atemp>
            <ns3:hr>131</ns3:hr>
          </ns3:TrackPointExtension>
        </extensions>
      </trkpt>
      <trkpt lat="46.65501591749489307403564453125" lon="6.87212367542088031768798828125">
        <ele>702.5999755859375</ele>
        <time>2013-08-15T17:41:42.000Z</time>
        <extensions>
          <ns3:TrackPointExtension>
            <ns3:atemp>16.0</ns3:atemp>
            <ns3:hr>129</ns3:hr>
          </ns3:TrackPointExtension>
        </extensions>
      </trkpt>
      <trkpt lat="46.65507107041776180267333984375" lon="6.8722005374729633331298828125">
        <ele>702.20001220703125</ele>
        <time>2013-08-15T17:41:43.000Z</time>
        <extensions>
          <ns3:TrackPointExtension>
            <ns3:atemp>16.0</ns3:atemp>
            <ns3:hr>128</ns3:hr>
          </ns3:TrackPointExtension>
        </extensions>
      </trkpt>
      <trkpt lat="46.65512823499739170074462890625" lon="6.8722736276686191558837890625">
        <ele>702</ele>
        <time>2013-08-15T17:41:44.000Z</time>
        <extensions>
          <ns3:TrackPointExtension>
            <ns3:atemp>16.0</ns3:atemp>
            <ns3:hr>127</ns3:hr>
          </ns3:TrackPointExtension>
        </extensions>
      </trkpt>
      <trkpt lat="46.6551846452057361602783203125" lon="6.87234981916844844818115234375">
        <ele>701.79998779296875</ele>
        <time>2013-08-15T17:41:45.000Z</time>
        <extensions>
          <ns3:TrackPointExtension>
            <ns3:atemp>16.0</ns3:atemp>
            <ns3:hr>126</ns3:hr>
          </ns3:TrackPointExtension>
        </extensions>
      </trkpt>
      <trkpt lat="46.6552416421473026275634765625" lon="6.87242827378213405609130859375">
        <ele>701.4000244140625</ele>
        <time>2013-08-15T17:41:46.000Z</time>
        <extensions>
          <ns3:TrackPointExtension>
            <ns3:atemp>16.0</ns3:atemp>
            <ns3:hr>125</ns3:hr>
          </ns3:TrackPointExtension>
        </extensions>
      </trkpt>
      <trkpt lat="46.65530090220272541046142578125" lon="6.8725089915096759796142578125">
        <ele>700.79998779296875</ele>
        <time>2013-08-15T17:41:47.000Z</time>
        <extensions>
          <ns3:TrackPointExtension>
            <ns3:atemp>16.0</ns3:atemp>
            <ns3:hr>124</ns3:hr>
          </ns3:TrackPointExtension>
        </extensions>
      </trkpt>
      <trkpt lat="46.6553606651723384857177734375" lon="6.8725904636085033416748046875">
        <ele>700.5999755859375</ele>
        <time>2013-08-15T17:41:48.000Z</time>
        <extensions>
          <ns3:TrackPointExtension>
            <ns3:atemp>16.0</ns3:atemp>
            <ns3:hr>124</ns3:hr>
          </ns3:TrackPointExtension>
        </extensions>
      </trkpt>
      <trkpt lat="46.65542311035096645355224609375" lon="6.87267201952636241912841796875">
        <ele>700.4000244140625</ele>
        <time>2013-08-15T17:41:49.000Z</time>
        <extensions>
          <ns3:TrackPointExtension>
            <ns3:atemp>16.0</ns3:atemp>
            <ns3:hr>125</ns3:hr>
          </ns3:TrackPointExtension>
        </extensions>
      </trkpt>
      <trkpt lat="46.65548748336732387542724609375" lon="6.87275634147226810455322265625">
        <ele>700.20001220703125</ele>
        <time>2013-08-15T17:41:50.000Z</time>
        <extensions>
          <ns3:TrackPointExtension>
            <ns3:atemp>16.0</ns3:atemp>
            <ns3:hr>125</ns3:hr>
          </ns3:TrackPointExtension>
        </extensions>
      </trkpt>
      <trkpt lat="46.65555487386882305145263671875" lon="6.87284284271299839019775390625">
        <ele>700</ele>
        <time>2013-08-15T17:41:51.000Z</time>
        <extensions>
          <ns3:TrackPointExtension>
            <ns3:atemp>16.0</ns3:atemp>
            <ns3:hr>125</ns3:hr>
          </ns3:TrackPointExtension>
        </extensions>
      </trkpt>
      <trkpt lat="46.65562192909419536590576171875" lon="6.87293034978210926055908203125">
        <ele>699.79998779296875</ele>
        <time>2013-08-15T17:41:52.000Z</time>
        <extensions>
          <ns3:TrackPointExtension>
            <ns3:atemp>16.0</ns3:atemp>
            <ns3:hr>125</ns3:hr>
          </ns3:TrackPointExtension>
        </extensions>
      </trkpt>
      <trkpt lat="46.65568898431956768035888671875" lon="6.8730226345360279083251953125">
        <ele>699.4000244140625</ele>
        <time>2013-08-15T17:41:53.000Z</time>
        <extensions>
          <ns3:TrackPointExtension>
            <ns3:atemp>16.0</ns3:atemp>
            <ns3:hr>125</ns3:hr>
          </ns3:TrackPointExtension>
        </extensions>
      </trkpt>
      <trkpt lat="46.65575587190687656402587890625" lon="6.873112656176090240478515625">
        <ele>699.20001220703125</ele>
        <time>2013-08-15T17:41:54.000Z</time>
        <extensions>
          <ns3:TrackPointExtension>
            <ns3:atemp>16.0</ns3:atemp>
            <ns3:hr>124</ns3:hr>
          </ns3:TrackPointExtension>
        </extensions>
      </trkpt>
      <trkpt lat="46.65582242421805858612060546875" lon="6.87320410273969173431396484375">
        <ele>698.79998779296875</ele>
        <time>2013-08-15T17:41:55.000Z</time>
        <extensions>
          <ns3:TrackPointExtension>
            <ns3:atemp>16.0</ns3:atemp>
            <ns3:hr>123</ns3:hr>
          </ns3:TrackPointExtension>
        </extensions>
      </trkpt>
      <trkpt lat="46.655889563262462615966796875" lon="6.87329412437975406646728515625">
        <ele>698.79998779296875</ele>
        <time>2013-08-15T17:41:56.000Z</time>
        <extensions>
          <ns3:TrackPointExtension>
            <ns3:atemp>16.0</ns3:atemp>
            <ns3:hr>122</ns3:hr>
          </ns3:TrackPointExtension>
        </extensions>
      </trkpt>
      <trkpt lat="46.65595653466880321502685546875" lon="6.87338716350495815277099609375">
        <ele>698.4000244140625</ele>
        <time>2013-08-15T17:41:57.000Z</time>
        <extensions>
          <ns3:TrackPointExtension>
            <ns3:atemp>16.0</ns3:atemp>
            <ns3:hr>122</ns3:hr>
          </ns3:TrackPointExtension>
        </extensions>
      </trkpt>
      <trkpt lat="46.65602191351354122161865234375" lon="6.873476766049861907958984375">
        <ele>698.20001220703125</ele>
        <time>2013-08-15T17:41:58.000Z</time>
        <extensions>
          <ns3:TrackPointExtension>
            <ns3:atemp>16.0</ns3:atemp>
            <ns3:hr>121</ns3:hr>
          </ns3:TrackPointExtension>
        </extensions>
      </trkpt>
      <trkpt lat="46.65608880110085010528564453125" lon="6.8735647760331630706787109375">
        <ele>698</ele>
        <time>2013-08-15T17:41:59.000Z</time>
        <extensions>
          <ns3:TrackPointExtension>
            <ns3:atemp>16.0</ns3:atemp>
            <ns3:hr>121</ns3:hr>
          </ns3:TrackPointExtension>
        </extensions>
      </trkpt>
      <trkpt lat="46.65615485049784183502197265625" lon="6.87365320511162281036376953125">
        <ele>697.79998779296875</ele>
        <time>2013-08-15T17:42:00.000Z</time>
        <extensions>
          <ns3:TrackPointExtension>
            <ns3:atemp>16.0</ns3:atemp>
            <ns3:hr>120</ns3:hr>
          </ns3:TrackPointExtension>
        </extensions>
      </trkpt>
      <trkpt lat="46.6562229953706264495849609375" lon="6.873740293085575103759765625">
        <ele>697.4000244140625</ele>
        <time>2013-08-15T17:42:01.000Z</time>
        <extensions>
          <ns3:TrackPointExtension>
            <ns3:atemp>16.0</ns3:atemp>
            <ns3:hr>120</ns3:hr>
          </ns3:TrackPointExtension>
        </extensions>
      </trkpt>
      <trkpt lat="46.6562895476818084716796875" lon="6.8738298118114471435546875">
        <ele>696.79998779296875</ele>
        <time>2013-08-15T17:42:02.000Z</time>
        <extensions>
          <ns3:TrackPointExtension>
            <ns3:atemp>16.0</ns3:atemp>
            <ns3:hr>120</ns3:hr>
          </ns3:TrackPointExtension>
        </extensions>
      </trkpt>
      <trkpt lat="46.65635501034557819366455078125" lon="6.873922683298587799072265625">
        <ele>696.4000244140625</ele>
        <time>2013-08-15T17:42:03.000Z</time>
        <extensions>
          <ns3:TrackPointExtension>
            <ns3:atemp>16.0</ns3:atemp>
            <ns3:hr>120</ns3:hr>
          </ns3:TrackPointExtension>
        </extensions>
      </trkpt>
      <trkpt lat="46.6564194671809673309326171875" lon="6.87401547096669673919677734375">
        <ele>696.20001220703125</ele>
        <time>2013-08-15T17:42:04.000Z</time>
        <extensions>
          <ns3:TrackPointExtension>
            <ns3:atemp>16.0</ns3:atemp>
            <ns3:hr>119</ns3:hr>
          </ns3:TrackPointExtension>
        </extensions>
      </trkpt>
      <trkpt lat="46.656484343111515045166015625" lon="6.87410498969256877899169921875">
        <ele>696</ele>
        <time>2013-08-15T17:42:05.000Z</time>
        <extensions>
          <ns3:TrackPointExtension>
            <ns3:atemp>16.0</ns3:atemp>
            <ns3:hr>119</ns3:hr>
          </ns3:TrackPointExtension>
        </extensions>
      </trkpt>
      <trkpt lat="46.65655030868947505950927734375" lon="6.8741927482187747955322265625">
        <ele>695.79998779296875</ele>
        <time>2013-08-15T17:42:06.000Z</time>
        <extensions>
          <ns3:TrackPointExtension>
            <ns3:atemp>16.0</ns3:atemp>
            <ns3:hr>118</ns3:hr>
          </ns3:TrackPointExtension>
        </extensions>
      </trkpt>
      <trkpt lat="46.65661619044840335845947265625" lon="6.874280758202075958251953125">
        <ele>695.4000244140625</ele>
        <time>2013-08-15T17:42:07.000Z</time>
        <extensions>
          <ns3:TrackPointExtension>
            <ns3:atemp>16.0</ns3:atemp>
            <ns3:hr>118</ns3:hr>
          </ns3:TrackPointExtension>
        </extensions>
      </trkpt>
      <trkpt lat="46.6566819883882999420166015625" lon="6.8743662536144256591796875">
        <ele>695.20001220703125</ele>
        <time>2013-08-15T17:42:08.000Z</time>
        <extensions>
          <ns3:TrackPointExtension>
            <ns3:atemp>16.0</ns3:atemp>
            <ns3:hr>118</ns3:hr>
          </ns3:TrackPointExtension>
        </extensions>
      </trkpt>
      <trkpt lat="46.65674610994756221771240234375" lon="6.874452419579029083251953125">
        <ele>695</ele>
        <time>2013-08-15T17:42:09.000Z</time>
        <extensions>
          <ns3:TrackPointExtension>
            <ns3:atemp>16.0</ns3:atemp>
            <ns3:hr>118</ns3:hr>
          </ns3:TrackPointExtension>
        </extensions>
      </trkpt>
      <trkpt lat="46.65681056678295135498046875" lon="6.87453665770590305328369140625">
        <ele>694.5999755859375</ele>
        <time>2013-08-15T17:42:10.000Z</time>
        <extensions>
          <ns3:TrackPointExtension>
            <ns3:atemp>16.0</ns3:atemp>
            <ns3:hr>118</ns3:hr>
          </ns3:TrackPointExtension>
        </extensions>
      </trkpt>
      <trkpt lat="46.656875275075435638427734375" lon="6.87461880035698413848876953125">
        <ele>694.20001220703125</ele>
        <time>2013-08-15T17:42:11.000Z</time>
        <extensions>
          <ns3:TrackPointExtension>
            <ns3:atemp>16.0</ns3:atemp>
            <ns3:hr>117</ns3:hr>
          </ns3:TrackPointExtension>
        </extensions>
      </trkpt>
      <trkpt lat="46.65693260729312896728515625" lon="6.87470144592225551605224609375">
        <ele>693.79998779296875</ele>
        <time>2013-08-15T17:42:12.000Z</time>
        <extensions>
          <ns3:TrackPointExtension>
            <ns3:atemp>16.0</ns3:atemp>
            <ns3:hr>117</ns3:hr>
          </ns3:TrackPointExtension>
        </extensions>
      </trkpt>
      <trkpt lat="46.65699102915823459625244140625" lon="6.8747687526047229766845703125">
        <ele>693</ele>
        <time>2013-08-15T17:42:13.000Z</time>
        <extensions>
          <ns3:TrackPointExtension>
            <ns3:atemp>16.0</ns3:atemp>
            <ns3:hr>115</ns3:hr>
          </ns3:TrackPointExtension>
        </extensions>
      </trkpt>
      <trkpt lat="46.65704668499529361724853515625" lon="6.87482717446982860565185546875">
        <ele>692.5999755859375</ele>
        <time>2013-08-15T17:42:14.000Z</time>
        <extensions>
          <ns3:TrackPointExtension>
            <ns3:atemp>16.0</ns3:atemp>
            <ns3:hr>114</ns3:hr>
          </ns3:TrackPointExtension>
        </extensions>
      </trkpt>
      <trkpt lat="46.65710133500397205352783203125" lon="6.8748679943382740020751953125">
        <ele>691.79998779296875</ele>
        <time>2013-08-15T17:42:15.000Z</time>
        <extensions>
          <ns3:TrackPointExtension>
            <ns3:atemp>16.0</ns3:atemp>
            <ns3:hr>114</ns3:hr>
          </ns3:TrackPointExtension>
        </extensions>
      </trkpt>
      <trkpt lat="46.657156907021999359130859375" lon="6.87487293966114521026611328125">
        <ele>691.20001220703125</ele>
        <time>2013-08-15T17:42:16.000Z</time>
        <extensions>
          <ns3:TrackPointExtension>
            <ns3:atemp>16.0</ns3:atemp>
            <ns3:hr>113</ns3:hr>
          </ns3:TrackPointExtension>
        </extensions>
      </trkpt>
      <trkpt lat="46.65720946155488491058349609375" lon="6.8748307786881923675537109375">
        <ele>690.4000244140625</ele>
        <time>2013-08-15T17:42:17.000Z</time>
        <extensions>
          <ns3:TrackPointExtension>
            <ns3:atemp>16.0</ns3:atemp>
            <ns3:hr>113</ns3:hr>
          </ns3:TrackPointExtension>
        </extensions>
      </trkpt>
      <trkpt lat="46.6572519578039646148681640625" lon="6.87475626356899738311767578125">
        <ele>690</ele>
        <time>2013-08-15T17:42:18.000Z</time>
        <extensions>
          <ns3:TrackPointExtension>
            <ns3:atemp>16.0</ns3:atemp>
            <ns3:hr>114</ns3:hr>
          </ns3:TrackPointExtension>
        </extensions>
      </trkpt>
      <trkpt lat="46.65729864500463008880615234375" lon="6.87466255389153957366943359375">
        <ele>690</ele>
        <time>2013-08-15T17:42:19.000Z</time>
        <extensions>
          <ns3:TrackPointExtension>
            <ns3:atemp>16.0</ns3:atemp>
            <ns3:hr>115</ns3:hr>
          </ns3:TrackPointExtension>
        </extensions>
      </trkpt>
      <trkpt lat="46.65734105743467807769775390625" lon="6.87456649728119373321533203125">
        <ele>690.4000244140625</ele>
        <time>2013-08-15T17:42:20.000Z</time>
        <extensions>
          <ns3:TrackPointExtension>
            <ns3:atemp>16.0</ns3:atemp>
            <ns3:hr>116</ns3:hr>
          </ns3:TrackPointExtension>
        </extensions>
      </trkpt>
      <trkpt lat="46.6573847271502017974853515625" lon="6.8744623102247714996337890625">
        <ele>690.4000244140625</ele>
        <time>2013-08-15T17:42:21.000Z</time>
        <extensions>
          <ns3:TrackPointExtension>
            <ns3:atemp>16.0</ns3:atemp>
            <ns3:hr>117</ns3:hr>
          </ns3:TrackPointExtension>
        </extensions>
      </trkpt>
      <trkpt lat="46.65742923505604267120361328125" lon="6.8743593804538249969482421875">
        <ele>690.20001220703125</ele>
        <time>2013-08-15T17:42:22.000Z</time>
        <extensions>
          <ns3:TrackPointExtension>
            <ns3:atemp>16.0</ns3:atemp>
            <ns3:hr>117</ns3:hr>
          </ns3:TrackPointExtension>
        </extensions>
      </trkpt>
      <trkpt lat="46.6574779339134693145751953125" lon="6.8742549419403076171875">
        <ele>689.79998779296875</ele>
        <time>2013-08-15T17:42:23.000Z</time>
        <extensions>
          <ns3:TrackPointExtension>
            <ns3:atemp>16.0</ns3:atemp>
            <ns3:hr>118</ns3:hr>
          </ns3:TrackPointExtension>
        </extensions>
      </trkpt>
      <trkpt lat="46.6575248725712299346923828125" lon="6.8741511739790439605712890625">
        <ele>689.5999755859375</ele>
        <time>2013-08-15T17:42:24.000Z</time>
        <extensions>
          <ns3:TrackPointExtension>
            <ns3:atemp>16.0</ns3:atemp>
            <ns3:hr>118</ns3:hr>
          </ns3:TrackPointExtension>
        </extensions>
      </trkpt>
      <trkpt lat="46.65757172740995883941650390625" lon="6.87404899857938289642333984375">
        <ele>689.4000244140625</ele>
        <time>2013-08-15T17:42:25.000Z</time>
        <extensions>
          <ns3:TrackPointExtension>
            <ns3:atemp>16.0</ns3:atemp>
            <ns3:hr>117</ns3:hr>
          </ns3:TrackPointExtension>
        </extensions>
      </trkpt>
      <trkpt lat="46.65761900134384632110595703125" lon="6.87394975684583187103271484375">
        <ele>689.20001220703125</ele>
        <time>2013-08-15T17:42:26.000Z</time>
        <extensions>
          <ns3:TrackPointExtension>
            <ns3:atemp>16.0</ns3:atemp>
            <ns3:hr>117</ns3:hr>
          </ns3:TrackPointExtension>
        </extensions>
      </trkpt>
      <trkpt lat="46.657657809555530548095703125" lon="6.8738544546067714691162109375">
        <ele>689.20001220703125</ele>
        <time>2013-08-15T17:42:27.000Z</time>
        <extensions>
          <ns3:TrackPointExtension>
            <ns3:atemp>16.0</ns3:atemp>
            <ns3:hr>116</ns3:hr>
          </ns3:TrackPointExtension>
        </extensions>
      </trkpt>
      <trkpt lat="46.657698042690753936767578125" lon="6.87376820482313632965087890625">
        <ele>689.20001220703125</ele>
        <time>2013-08-15T17:42:28.000Z</time>
        <extensions>
          <ns3:TrackPointExtension>
            <ns3:atemp>16.0</ns3:atemp>
            <ns3:hr>116</ns3:hr>
          </ns3:TrackPointExtension>
        </extensions>
      </trkpt>
      <trkpt lat="46.65773903019726276397705078125" lon="6.873696036636829376220703125">
        <ele>689</ele>
        <time>2013-08-15T17:42:29.000Z</time>
        <extensions>
          <ns3:TrackPointExtension>
            <ns3:atemp>16.0</ns3:atemp>
            <ns3:hr>116</ns3:hr>
          </ns3:TrackPointExtension>
        </extensions>
      </trkpt>
      <trkpt lat="46.65778613649308681488037109375" lon="6.873638369143009185791015625">
        <ele>688.79998779296875</ele>
        <time>2013-08-15T17:42:30.000Z</time>
        <extensions>
          <ns3:TrackPointExtension>
            <ns3:atemp>16.0</ns3:atemp>
            <ns3:hr>116</ns3:hr>
          </ns3:TrackPointExtension>
        </extensions>
      </trkpt>
      <trkpt lat="46.657848916947841644287109375" lon="6.87362990342080593109130859375">
        <ele>688.4000244140625</ele>
        <time>2013-08-15T17:42:31.000Z</time>
        <extensions>
          <ns3:TrackPointExtension>
            <ns3:atemp>16.0</ns3:atemp>
            <ns3:hr>116</ns3:hr>
          </ns3:TrackPointExtension>
        </extensions>
      </trkpt>
      <trkpt lat="46.65790935046970844268798828125" lon="6.87366577796638011932373046875">
        <ele>688.20001220703125</ele>
        <time>2013-08-15T17:42:32.000Z</time>
        <extensions>
          <ns3:TrackPointExtension>
            <ns3:atemp>16.0</ns3:atemp>
            <ns3:hr>116</ns3:hr>
          </ns3:TrackPointExtension>
        </extensions>
      </trkpt>
      <trkpt lat="46.65795721113681793212890625" lon="6.8737277202308177947998046875">
        <ele>688</ele>
        <time>2013-08-15T17:42:33.000Z</time>
        <extensions>
          <ns3:TrackPointExtension>
            <ns3:atemp>16.0</ns3:atemp>
            <ns3:hr>116</ns3:hr>
          </ns3:TrackPointExtension>
        </extensions>
      </trkpt>
      <trkpt lat="46.6579992882907390594482421875" lon="6.8737964518368244171142578125">
        <ele>688</ele>
        <time>2013-08-15T17:42:34.000Z</time>
        <extensions>
          <ns3:TrackPointExtension>
            <ns3:atemp>16.0</ns3:atemp>
            <ns3:hr>116</ns3:hr>
          </ns3:TrackPointExtension>
        </extensions>
      </trkpt>
      <trkpt lat="46.658045388758182525634765625" lon="6.87386292032897472381591796875">
        <ele>687.79998779296875</ele>
        <time>2013-08-15T17:42:35.000Z</time>
        <extensions>
          <ns3:TrackPointExtension>
            <ns3:atemp>16.0</ns3:atemp>
            <ns3:hr>117</ns3:hr>
          </ns3:TrackPointExtension>
        </extensions>
      </trkpt>
      <trkpt lat="46.65809391997754573822021484375" lon="6.87392863444983959197998046875">
        <ele>687.79998779296875</ele>
        <time>2013-08-15T17:42:36.000Z</time>
        <extensions>
          <ns3:TrackPointExtension>
            <ns3:atemp>16.0</ns3:atemp>
            <ns3:hr>117</ns3:hr>
          </ns3:TrackPointExtension>
        </extensions>
      </trkpt>
      <trkpt lat="46.65814287029206752777099609375" lon="6.87399753369390964508056640625">
        <ele>687.79998779296875</ele>
        <time>2013-08-15T17:42:37.000Z</time>
        <extensions>
          <ns3:TrackPointExtension>
            <ns3:atemp>16.0</ns3:atemp>
            <ns3:hr>117</ns3:hr>
          </ns3:TrackPointExtension>
        </extensions>
      </trkpt>
      <trkpt lat="46.6581910662353038787841796875" lon="6.8740569613873958587646484375">
        <ele>687.79998779296875</ele>
        <time>2013-08-15T17:42:38.000Z</time>
        <extensions>
          <ns3:TrackPointExtension>
            <ns3:atemp>16.0</ns3:atemp>
            <ns3:hr>116</ns3:hr>
          </ns3:TrackPointExtension>
        </extensions>
      </trkpt>
      <trkpt lat="46.65824026800692081451416015625" lon="6.874115802347660064697265625">
        <ele>687.5999755859375</ele>
        <time>2013-08-15T17:42:39.000Z</time>
        <extensions>
          <ns3:TrackPointExtension>
            <ns3:atemp>16.0</ns3:atemp>
            <ns3:hr>116</ns3:hr>
          </ns3:TrackPointExtension>
        </extensions>
      </trkpt>
      <trkpt lat="46.65829055942595005035400390625" lon="6.8741784989833831787109375">
        <ele>687.5999755859375</ele>
        <time>2013-08-15T17:42:40.000Z</time>
        <extensions>
          <ns3:TrackPointExtension>
            <ns3:atemp>16.0</ns3:atemp>
            <ns3:hr>115</ns3:hr>
          </ns3:TrackPointExtension>
        </extensions>
      </trkpt>
      <trkpt lat="46.6583399288356304168701171875" lon="6.8742463923990726470947265625">
        <ele>687.4000244140625</ele>
        <time>2013-08-15T17:42:41.000Z</time>
        <extensions>
          <ns3:TrackPointExtension>
            <ns3:atemp>16.0</ns3:atemp>
            <ns3:hr>115</ns3:hr>
          </ns3:TrackPointExtension>
        </extensions>
      </trkpt>
      <trkpt lat="46.658392064273357391357421875" lon="6.8743107654154300689697265625">
        <ele>687.4000244140625</ele>
        <time>2013-08-15T17:42:42.000Z</time>
        <extensions>
          <ns3:TrackPointExtension>
            <ns3:atemp>16.0</ns3:atemp>
            <ns3:hr>115</ns3:hr>
          </ns3:TrackPointExtension>
        </extensions>
      </trkpt>
      <trkpt lat="46.65844445116817951202392578125" lon="6.87437421642243862152099609375">
        <ele>687.4000244140625</ele>
        <time>2013-08-15T17:42:43.000Z</time>
        <extensions>
          <ns3:TrackPointExtension>
            <ns3:atemp>16.0</ns3:atemp>
            <ns3:hr>115</ns3:hr>
          </ns3:TrackPointExtension>
        </extensions>
      </trkpt>
      <trkpt lat="46.65849633514881134033203125" lon="6.874441020190715789794921875">
        <ele>687.5999755859375</ele>
        <time>2013-08-15T17:42:44.000Z</time>
        <extensions>
          <ns3:TrackPointExtension>
            <ns3:atemp>16.0</ns3:atemp>
            <ns3:hr>116</ns3:hr>
          </ns3:TrackPointExtension>
        </extensions>
      </trkpt>
      <trkpt lat="46.65854821912944316864013671875" lon="6.874502710998058319091796875">
        <ele>687.5999755859375</ele>
        <time>2013-08-15T17:42:45.000Z</time>
        <extensions>
          <ns3:TrackPointExtension>
            <ns3:atemp>16.0</ns3:atemp>
            <ns3:hr>116</ns3:hr>
          </ns3:TrackPointExtension>
        </extensions>
      </trkpt>
      <trkpt lat="46.65859951637685298919677734375" lon="6.87456700019538402557373046875">
        <ele>687.5999755859375</ele>
        <time>2013-08-15T17:42:46.000Z</time>
        <extensions>
          <ns3:TrackPointExtension>
            <ns3:atemp>16.0</ns3:atemp>
            <ns3:hr>117</ns3:hr>
          </ns3:TrackPointExtension>
        </extensions>
      </trkpt>
      <trkpt lat="46.6586500592529773712158203125" lon="6.8746312893927097320556640625">
        <ele>687.4000244140625</ele>
        <time>2013-08-15T17:42:47.000Z</time>
        <extensions>
          <ns3:TrackPointExtension>
            <ns3:atemp>16.0</ns3:atemp>
            <ns3:hr>117</ns3:hr>
          </ns3:TrackPointExtension>
        </extensions>
      </trkpt>
      <trkpt lat="46.65870160795748233795166015625" lon="6.874695159494876861572265625">
        <ele>687.20001220703125</ele>
        <time>2013-08-15T17:42:48.000Z</time>
        <extensions>
          <ns3:TrackPointExtension>
            <ns3:atemp>16.0</ns3:atemp>
            <ns3:hr>117</ns3:hr>
          </ns3:TrackPointExtension>
        </extensions>
      </trkpt>
      <trkpt lat="46.65874737314879894256591796875" lon="6.87476146034896373748779296875">
        <ele>687.20001220703125</ele>
        <time>2013-08-15T17:42:49.000Z</time>
        <extensions>
          <ns3:TrackPointExtension>
            <ns3:atemp>16.0</ns3:atemp>
            <ns3:hr>117</ns3:hr>
          </ns3:TrackPointExtension>
        </extensions>
      </trkpt>
      <trkpt lat="46.658791713416576385498046875" lon="6.874827928841114044189453125">
        <ele>687</ele>
        <time>2013-08-15T17:42:50.000Z</time>
        <extensions>
          <ns3:TrackPointExtension>
            <ns3:atemp>16.0</ns3:atemp>
            <ns3:hr>117</ns3:hr>
          </ns3:TrackPointExtension>
        </extensions>
      </trkpt>
      <trkpt lat="46.65884074755012989044189453125" lon="6.87488299794495105743408203125">
        <ele>687</ele>
        <time>2013-08-15T17:42:51.000Z</time>
        <extensions>
          <ns3:TrackPointExtension>
            <ns3:atemp>16.0</ns3:atemp>
            <ns3:hr>117</ns3:hr>
          </ns3:TrackPointExtension>
        </extensions>
      </trkpt>
      <trkpt lat="46.6588964872062206268310546875" lon="6.87491518445312976837158203125">
        <ele>686.79998779296875</ele>
        <time>2013-08-15T17:42:52.000Z</time>
        <extensions>
          <ns3:TrackPointExtension>
            <ns3:atemp>16.0</ns3:atemp>
            <ns3:hr>116</ns3:hr>
          </ns3:TrackPointExtension>
        </extensions>
      </trkpt>
      <trkpt lat="46.65895155631005764007568359375" lon="6.87493613921105861663818359375">
        <ele>686.79998779296875</ele>
        <time>2013-08-15T17:42:53.000Z</time>
        <extensions>
          <ns3:TrackPointExtension>
            <ns3:atemp>16.0</ns3:atemp>
            <ns3:hr>116</ns3:hr>
          </ns3:TrackPointExtension>
        </extensions>
      </trkpt>
      <trkpt lat="46.6590081341564655303955078125" lon="6.8749541603028774261474609375">
        <ele>686.79998779296875</ele>
        <time>2013-08-15T17:42:54.000Z</time>
        <extensions>
          <ns3:TrackPointExtension>
            <ns3:atemp>16.0</ns3:atemp>
            <ns3:hr>116</ns3:hr>
          </ns3:TrackPointExtension>
        </extensions>
      </trkpt>
      <trkpt lat="46.6590651310980319976806640625" lon="6.87495692633092403411865234375">
        <ele>686.79998779296875</ele>
        <time>2013-08-15T17:42:55.000Z</time>
        <extensions>
          <ns3:TrackPointExtension>
            <ns3:atemp>16.0</ns3:atemp>
            <ns3:hr>116</ns3:hr>
          </ns3:TrackPointExtension>
        </extensions>
      </trkpt>
      <trkpt lat="46.6591207869350910186767578125" lon="6.87494167126715183258056640625">
        <ele>686.79998779296875</ele>
        <time>2013-08-15T17:42:56.000Z</time>
        <extensions>
          <ns3:TrackPointExtension>
            <ns3:atemp>16.0</ns3:atemp>
            <ns3:hr>117</ns3:hr>
          </ns3:TrackPointExtension>
        </extensions>
      </trkpt>
      <trkpt lat="46.6591727547347545623779296875" lon="6.8749119155108928680419921875">
        <ele>687</ele>
        <time>2013-08-15T17:42:57.000Z</time>
        <extensions>
          <ns3:TrackPointExtension>
            <ns3:atemp>16.0</ns3:atemp>
            <ns3:hr>117</ns3:hr>
          </ns3:TrackPointExtension>
        </extensions>
      </trkpt>
      <trkpt lat="46.65922128595411777496337890625" lon="6.8748726882040500640869140625">
        <ele>687.20001220703125</ele>
        <time>2013-08-15T17:42:58.000Z</time>
        <extensions>
          <ns3:TrackPointExtension>
            <ns3:atemp>16.0</ns3:atemp>
            <ns3:hr>117</ns3:hr>
          </ns3:TrackPointExtension>
        </extensions>
      </trkpt>
      <trkpt lat="46.65926587767899036407470703125" lon="6.87483069486916065216064453125">
        <ele>687.20001220703125</ele>
        <time>2013-08-15T17:42:59.000Z</time>
        <extensions>
          <ns3:TrackPointExtension>
            <ns3:atemp>16.0</ns3:atemp>
            <ns3:hr>118</ns3:hr>
          </ns3:TrackPointExtension>
        </extensions>
      </trkpt>
      <trkpt lat="46.6593098826706409454345703125" lon="6.87479264102876186370849609375">
        <ele>687.20001220703125</ele>
        <time>2013-08-15T17:43:00.000Z</time>
        <extensions>
          <ns3:TrackPointExtension>
            <ns3:atemp>16.0</ns3:atemp>
            <ns3:hr>118</ns3:hr>
          </ns3:TrackPointExtension>
        </extensions>
      </trkpt>
      <trkpt lat="46.65935120545327663421630859375" lon="6.8747550062835216522216796875">
        <ele>687</ele>
        <time>2013-08-15T17:43:01.000Z</time>
        <extensions>
          <ns3:TrackPointExtension>
            <ns3:atemp>16.0</ns3:atemp>
            <ns3:hr>118</ns3:hr>
          </ns3:TrackPointExtension>
        </extensions>
      </trkpt>
      <trkpt lat="46.65939428843557834625244140625" lon="6.8747241608798503875732421875">
        <ele>687.20001220703125</ele>
        <time>2013-08-15T17:43:02.000Z</time>
        <extensions>
          <ns3:TrackPointExtension>
            <ns3:atemp>16.0</ns3:atemp>
            <ns3:hr>119</ns3:hr>
          </ns3:TrackPointExtension>
        </extensions>
      </trkpt>
      <trkpt lat="46.659438125789165496826171875" lon="6.87469557859003543853759765625">
        <ele>687.5999755859375</ele>
        <time>2013-08-15T17:43:03.000Z</time>
        <extensions>
          <ns3:TrackPointExtension>
            <ns3:atemp>16.0</ns3:atemp>
            <ns3:hr>119</ns3:hr>
          </ns3:TrackPointExtension>
        </extensions>
      </trkpt>
      <trkpt lat="46.65948062203824520111083984375" lon="6.87466573901474475860595703125">
        <ele>687.79998779296875</ele>
        <time>2013-08-15T17:43:04.000Z</time>
        <extensions>
          <ns3:TrackPointExtension>
            <ns3:atemp>16.0</ns3:atemp>
            <ns3:hr>120</ns3:hr>
          </ns3:TrackPointExtension>
        </extensions>
      </trkpt>
      <trkpt lat="46.65952253155410289764404296875" lon="6.87463522888720035552978515625">
        <ele>688</ele>
        <time>2013-08-15T17:43:05.000Z</time>
        <extensions>
          <ns3:TrackPointExtension>
            <ns3:atemp>16.0</ns3:atemp>
            <ns3:hr>120</ns3:hr>
          </ns3:TrackPointExtension>
        </extensions>
      </trkpt>
      <trkpt lat="46.65956645272672176361083984375" lon="6.87460966408252716064453125">
        <ele>688.20001220703125</ele>
        <time>2013-08-15T17:43:06.000Z</time>
        <extensions>
          <ns3:TrackPointExtension>
            <ns3:atemp>16.0</ns3:atemp>
            <ns3:hr>121</ns3:hr>
          </ns3:TrackPointExtension>
        </extensions>
      </trkpt>
      <trkpt lat="46.65960953570902347564697265625" lon="6.87458686530590057373046875">
        <ele>688.20001220703125</ele>
        <time>2013-08-15T17:43:07.000Z</time>
        <extensions>
          <ns3:TrackPointExtension>
            <ns3:atemp>16.0</ns3:atemp>
            <ns3:hr>121</ns3:hr>
          </ns3:TrackPointExtension>
        </extensions>
      </trkpt>
      <trkpt lat="46.65965060703456401824951171875" lon="6.8745628930628299713134765625">
        <ele>688.5999755859375</ele>
        <time>2013-08-15T17:43:08.000Z</time>
        <extensions>
          <ns3:TrackPointExtension>
            <ns3:atemp>16.0</ns3:atemp>
            <ns3:hr>122</ns3:hr>
          </ns3:TrackPointExtension>
        </extensions>
      </trkpt>
      <trkpt lat="46.65969503112137317657470703125" lon="6.8745352327823638916015625">
        <ele>688.79998779296875</ele>
        <time>2013-08-15T17:43:09.000Z</time>
        <extensions>
          <ns3:TrackPointExtension>
            <ns3:atemp>16.0</ns3:atemp>
            <ns3:hr>122</ns3:hr>
          </ns3:TrackPointExtension>
        </extensions>
      </trkpt>
      <trkpt lat="46.6597363539040088653564453125" lon="6.874509416520595550537109375">
        <ele>689</ele>
        <time>2013-08-15T17:43:10.000Z</time>
        <extensions>
          <ns3:TrackPointExtension>
            <ns3:atemp>16.0</ns3:atemp>
            <ns3:hr>123</ns3:hr>
          </ns3:TrackPointExtension>
        </extensions>
      </trkpt>
      <trkpt lat="46.6597782634198665618896484375" lon="6.87448770739138126373291015625">
        <ele>689.20001220703125</ele>
        <time>2013-08-15T17:43:11.000Z</time>
        <extensions>
          <ns3:TrackPointExtension>
            <ns3:atemp>16.0</ns3:atemp>
            <ns3:hr>123</ns3:hr>
          </ns3:TrackPointExtension>
        </extensions>
      </trkpt>
      <trkpt lat="46.65981941856443881988525390625" lon="6.8744654953479766845703125">
        <ele>689.4000244140625</ele>
        <time>2013-08-15T17:43:12.000Z</time>
        <extensions>
          <ns3:TrackPointExtension>
            <ns3:atemp>16.0</ns3:atemp>
            <ns3:hr>124</ns3:hr>
          </ns3:TrackPointExtension>
        </extensions>
      </trkpt>
      <trkpt lat="46.65986266918480396270751953125" lon="6.87444596551358699798583984375">
        <ele>689.79998779296875</ele>
        <time>2013-08-15T17:43:13.000Z</time>
        <extensions>
          <ns3:TrackPointExtension>
            <ns3:atemp>16.0</ns3:atemp>
            <ns3:hr>124</ns3:hr>
          </ns3:TrackPointExtension>
        </extensions>
      </trkpt>
      <trkpt lat="46.65990759618580341339111328125" lon="6.87443397939205169677734375">
        <ele>690</ele>
        <time>2013-08-15T17:43:14.000Z</time>
        <extensions>
          <ns3:TrackPointExtension>
            <ns3:atemp>16.0</ns3:atemp>
            <ns3:hr>125</ns3:hr>
          </ns3:TrackPointExtension>
        </extensions>
      </trkpt>
      <trkpt lat="46.65995185263454914093017578125" lon="6.8744287826120853424072265625">
        <ele>690.4000244140625</ele>
        <time>2013-08-15T17:43:15.000Z</time>
        <extensions>
          <ns3:TrackPointExtension>
            <ns3:atemp>16.0</ns3:atemp>
            <ns3:hr>126</ns3:hr>
          </ns3:TrackPointExtension>
        </extensions>
      </trkpt>
      <trkpt lat="46.6599936783313751220703125" lon="6.87443674542009830474853515625">
        <ele>690.5999755859375</ele>
        <time>2013-08-15T17:43:16.000Z</time>
        <extensions>
          <ns3:TrackPointExtension>
            <ns3:atemp>16.0</ns3:atemp>
            <ns3:hr>127</ns3:hr>
          </ns3:TrackPointExtension>
        </extensions>
      </trkpt>
      <trkpt lat="46.66003751568496227264404296875" lon="6.87443456612527370452880859375">
        <ele>690.79998779296875</ele>
        <time>2013-08-15T17:43:17.000Z</time>
        <extensions>
          <ns3:TrackPointExtension>
            <ns3:atemp>16.0</ns3:atemp>
            <ns3:hr>127</ns3:hr>
          </ns3:TrackPointExtension>
        </extensions>
      </trkpt>
      <trkpt lat="46.66008193977177143096923828125" lon="6.87443322502076625823974609375">
        <ele>691.20001220703125</ele>
        <time>2013-08-15T17:43:18.000Z</time>
        <extensions>
          <ns3:TrackPointExtension>
            <ns3:atemp>16.0</ns3:atemp>
            <ns3:hr>128</ns3:hr>
          </ns3:TrackPointExtension>
        </extensions>
      </trkpt>
      <trkpt lat="46.660126112401485443115234375" lon="6.87443641014397144317626953125">
        <ele>691.4000244140625</ele>
        <time>2013-08-15T17:43:19.000Z</time>
        <extensions>
          <ns3:TrackPointExtension>
            <ns3:atemp>16.0</ns3:atemp>
            <ns3:hr>129</ns3:hr>
          </ns3:TrackPointExtension>
        </extensions>
      </trkpt>
      <trkpt lat="46.66016844101250171661376953125" lon="6.87444613315165042877197265625">
        <ele>691.79998779296875</ele>
        <time>2013-08-15T17:43:20.000Z</time>
        <extensions>
          <ns3:TrackPointExtension>
            <ns3:atemp>16.0</ns3:atemp>
            <ns3:hr>129</ns3:hr>
          </ns3:TrackPointExtension>
        </extensions>
      </trkpt>
      <trkpt lat="46.66021152399480342864990234375" lon="6.87445401214063167572021484375">
        <ele>692</ele>
        <time>2013-08-15T17:43:21.000Z</time>
        <extensions>
          <ns3:TrackPointExtension>
            <ns3:atemp>16.0</ns3:atemp>
            <ns3:hr>130</ns3:hr>
          </ns3:TrackPointExtension>
        </extensions>
      </trkpt>
      <trkpt lat="46.66025443933904170989990234375" lon="6.87446457333862781524658203125">
        <ele>692</ele>
        <time>2013-08-15T17:43:22.000Z</time>
        <extensions>
          <ns3:TrackPointExtension>
            <ns3:atemp>16.0</ns3:atemp>
            <ns3:hr>130</ns3:hr>
          </ns3:TrackPointExtension>
        </extensions>
      </trkpt>
      <trkpt lat="46.66029668413102626800537109375" lon="6.87447429634630680084228515625">
        <ele>692.4000244140625</ele>
        <time>2013-08-15T17:43:23.000Z</time>
        <extensions>
          <ns3:TrackPointExtension>
            <ns3:atemp>16.0</ns3:atemp>
            <ns3:hr>130</ns3:hr>
          </ns3:TrackPointExtension>
        </extensions>
      </trkpt>
      <trkpt lat="46.66033842600882053375244140625" lon="6.87448519282042980194091796875">
        <ele>692.5999755859375</ele>
        <time>2013-08-15T17:43:24.000Z</time>
        <extensions>
          <ns3:TrackPointExtension>
            <ns3:atemp>16.0</ns3:atemp>
            <ns3:hr>131</ns3:hr>
          </ns3:TrackPointExtension>
        </extensions>
      </trkpt>
      <trkpt lat="46.660380251705646514892578125" lon="6.8744961731135845184326171875">
        <ele>692.79998779296875</ele>
        <time>2013-08-15T17:43:25.000Z</time>
        <extensions>
          <ns3:TrackPointExtension>
            <ns3:atemp>16.0</ns3:atemp>
            <ns3:hr>131</ns3:hr>
          </ns3:TrackPointExtension>
        </extensions>
      </trkpt>
      <trkpt lat="46.66042082011699676513671875" lon="6.874507404863834381103515625">
        <ele>693</ele>
        <time>2013-08-15T17:43:26.000Z</time>
        <extensions>
          <ns3:TrackPointExtension>
            <ns3:atemp>16.0</ns3:atemp>
            <ns3:hr>131</ns3:hr>
          </ns3:TrackPointExtension>
        </extensions>
      </trkpt>
      <trkpt lat="46.66046197526156902313232421875" lon="6.87451754696667194366455078125">
        <ele>693.20001220703125</ele>
        <time>2013-08-15T17:43:27.000Z</time>
        <extensions>
          <ns3:TrackPointExtension>
            <ns3:atemp>16.0</ns3:atemp>
            <ns3:hr>131</ns3:hr>
          </ns3:TrackPointExtension>
        </extensions>
      </trkpt>
      <trkpt lat="46.660501956939697265625" lon="6.87453146092593669891357421875">
        <ele>693.4000244140625</ele>
        <time>2013-08-15T17:43:28.000Z</time>
        <extensions>
          <ns3:TrackPointExtension>
            <ns3:atemp>16.0</ns3:atemp>
            <ns3:hr>131</ns3:hr>
          </ns3:TrackPointExtension>
        </extensions>
      </trkpt>
      <trkpt lat="46.66054311208426952362060546875" lon="6.8745414353907108306884765625">
        <ele>693.5999755859375</ele>
        <time>2013-08-15T17:43:29.000Z</time>
        <extensions>
          <ns3:TrackPointExtension>
            <ns3:atemp>16.0</ns3:atemp>
            <ns3:hr>132</ns3:hr>
          </ns3:TrackPointExtension>
        </extensions>
      </trkpt>
      <trkpt lat="46.6605819202959537506103515625" lon="6.874556355178356170654296875">
        <ele>693.79998779296875</ele>
        <time>2013-08-15T17:43:30.000Z</time>
        <extensions>
          <ns3:TrackPointExtension>
            <ns3:atemp>16.0</ns3:atemp>
            <ns3:hr>132</ns3:hr>
          </ns3:TrackPointExtension>
        </extensions>
      </trkpt>
      <trkpt lat="46.66062257252633571624755859375" lon="6.87456968240439891815185546875">
        <ele>694</ele>
        <time>2013-08-15T17:43:31.000Z</time>
        <extensions>
          <ns3:TrackPointExtension>
            <ns3:atemp>16.0</ns3:atemp>
            <ns3:hr>132</ns3:hr>
          </ns3:TrackPointExtension>
        </extensions>
      </trkpt>
      <trkpt lat="46.66066431440412998199462890625" lon="6.8745816685259342193603515625">
        <ele>694</ele>
        <time>2013-08-15T17:43:32.000Z</time>
        <extensions>
          <ns3:TrackPointExtension>
            <ns3:atemp>16.0</ns3:atemp>
            <ns3:hr>133</ns3:hr>
          </ns3:TrackPointExtension>
        </extensions>
      </trkpt>
      <trkpt lat="46.66070555336773395538330078125" lon="6.8745934031903743743896484375">
        <ele>694.20001220703125</ele>
        <time>2013-08-15T17:43:33.000Z</time>
        <extensions>
          <ns3:TrackPointExtension>
            <ns3:atemp>16.0</ns3:atemp>
            <ns3:hr>133</ns3:hr>
          </ns3:TrackPointExtension>
        </extensions>
      </trkpt>
      <trkpt lat="46.6607473790645599365234375" lon="6.874603964388370513916015625">
        <ele>694.4000244140625</ele>
        <time>2013-08-15T17:43:34.000Z</time>
        <extensions>
          <ns3:TrackPointExtension>
            <ns3:atemp>16.0</ns3:atemp>
            <ns3:hr>134</ns3:hr>
          </ns3:TrackPointExtension>
        </extensions>
      </trkpt>
      <trkpt lat="46.66078853420913219451904296875" lon="6.87461460940539836883544921875">
        <ele>694.5999755859375</ele>
        <time>2013-08-15T17:43:35.000Z</time>
        <extensions>
          <ns3:TrackPointExtension>
            <ns3:atemp>16.0</ns3:atemp>
            <ns3:hr>134</ns3:hr>
          </ns3:TrackPointExtension>
        </extensions>
      </trkpt>
      <trkpt lat="46.66082960553467273712158203125" lon="6.8746282719075679779052734375">
        <ele>694.79998779296875</ele>
        <time>2013-08-15T17:43:36.000Z</time>
        <extensions>
          <ns3:TrackPointExtension>
            <ns3:atemp>16.0</ns3:atemp>
            <ns3:hr>135</ns3:hr>
          </ns3:TrackPointExtension>
        </extensions>
      </trkpt>
      <trkpt lat="46.66087017394602298736572265625" lon="6.874640844762325286865234375">
        <ele>695</ele>
        <time>2013-08-15T17:43:37.000Z</time>
        <extensions>
          <ns3:TrackPointExtension>
            <ns3:atemp>16.0</ns3:atemp>
            <ns3:hr>135</ns3:hr>
          </ns3:TrackPointExtension>
        </extensions>
      </trkpt>
      <trkpt lat="46.66091107763350009918212890625" lon="6.87465450726449489593505859375">
        <ele>695.4000244140625</ele>
        <time>2013-08-15T17:43:38.000Z</time>
        <extensions>
          <ns3:TrackPointExtension>
            <ns3:atemp>16.0</ns3:atemp>
            <ns3:hr>135</ns3:hr>
          </ns3:TrackPointExtension>
        </extensions>
      </trkpt>
      <trkpt lat="46.6609510593116283416748046875" lon="6.874670684337615966796875">
        <ele>695.5999755859375</ele>
        <time>2013-08-15T17:43:39.000Z</time>
        <extensions>
          <ns3:TrackPointExtension>
            <ns3:atemp>16.0</ns3:atemp>
            <ns3:hr>136</ns3:hr>
          </ns3:TrackPointExtension>
        </extensions>
      </trkpt>
      <trkpt lat="46.66099271737039089202880859375" lon="6.87468417920172214508056640625">
        <ele>696</ele>
        <time>2013-08-15T17:43:40.000Z</time>
        <extensions>
          <ns3:TrackPointExtension>
            <ns3:atemp>16.0</ns3:atemp>
            <ns3:hr>136</ns3:hr>
          </ns3:TrackPointExtension>
        </extensions>
      </trkpt>
      <trkpt lat="46.66103496216237545013427734375" lon="6.8746980093419551849365234375">
        <ele>696</ele>
        <time>2013-08-15T17:43:41.000Z</time>
        <extensions>
          <ns3:TrackPointExtension>
            <ns3:atemp>16.0</ns3:atemp>
            <ns3:hr>137</ns3:hr>
          </ns3:TrackPointExtension>
        </extensions>
      </trkpt>
      <trkpt lat="46.6610764525830745697021484375" lon="6.8747084029018878936767578125">
        <ele>696.20001220703125</ele>
        <time>2013-08-15T17:43:42.000Z</time>
        <extensions>
          <ns3:TrackPointExtension>
            <ns3:atemp>16.0</ns3:atemp>
            <ns3:hr>137</ns3:hr>
          </ns3:TrackPointExtension>
        </extensions>
      </trkpt>
      <trkpt lat="46.66111727245151996612548828125" lon="6.8747211433947086334228515625">
        <ele>696.4000244140625</ele>
        <time>2013-08-15T17:43:43.000Z</time>
        <extensions>
          <ns3:TrackPointExtension>
            <ns3:atemp>16.0</ns3:atemp>
            <ns3:hr>137</ns3:hr>
          </ns3:TrackPointExtension>
        </extensions>
      </trkpt>
      <trkpt lat="46.66115842759609222412109375" lon="6.8747365660965442657470703125">
        <ele>696.79998779296875</ele>
        <time>2013-08-15T17:43:44.000Z</time>
        <extensions>
          <ns3:TrackPointExtension>
            <ns3:atemp>16.0</ns3:atemp>
            <ns3:hr>137</ns3:hr>
          </ns3:TrackPointExtension>
        </extensions>
      </trkpt>
      <trkpt lat="46.661198996007442474365234375" lon="6.874749474227428436279296875">
        <ele>697</ele>
        <time>2013-08-15T17:43:45.000Z</time>
        <extensions>
          <ns3:TrackPointExtension>
            <ns3:atemp>16.0</ns3:atemp>
            <ns3:hr>138</ns3:hr>
          </ns3:TrackPointExtension>
        </extensions>
      </trkpt>
      <trkpt lat="46.66123889386653900146484375" lon="6.874761544167995452880859375">
        <ele>697.20001220703125</ele>
        <time>2013-08-15T17:43:46.000Z</time>
        <extensions>
          <ns3:TrackPointExtension>
            <ns3:atemp>16.0</ns3:atemp>
            <ns3:hr>138</ns3:hr>
          </ns3:TrackPointExtension>
        </extensions>
      </trkpt>
      <trkpt lat="46.6612799651920795440673828125" lon="6.8747744522988796234130859375">
        <ele>697.5999755859375</ele>
        <time>2013-08-15T17:43:47.000Z</time>
        <extensions>
          <ns3:TrackPointExtension>
            <ns3:atemp>16.0</ns3:atemp>
            <ns3:hr>138</ns3:hr>
          </ns3:TrackPointExtension>
        </extensions>
      </trkpt>
      <trkpt lat="46.66132128797471523284912109375" lon="6.87478560023009777069091796875">
        <ele>697.5999755859375</ele>
        <time>2013-08-15T17:43:48.000Z</time>
        <extensions>
          <ns3:TrackPointExtension>
            <ns3:atemp>16.0</ns3:atemp>
            <ns3:hr>138</ns3:hr>
          </ns3:TrackPointExtension>
        </extensions>
      </trkpt>
      <trkpt lat="46.66136185638606548309326171875" lon="6.87479515559971332550048828125">
        <ele>697.79998779296875</ele>
        <time>2013-08-15T17:43:49.000Z</time>
        <extensions>
          <ns3:TrackPointExtension>
            <ns3:atemp>16.0</ns3:atemp>
            <ns3:hr>139</ns3:hr>
          </ns3:TrackPointExtension>
        </extensions>
      </trkpt>
      <trkpt lat="46.66140192188322544097900390625" lon="6.87480504624545574188232421875">
        <ele>697.79998779296875</ele>
        <time>2013-08-15T17:43:50.000Z</time>
        <extensions>
          <ns3:TrackPointExtension>
            <ns3:atemp>16.0</ns3:atemp>
            <ns3:hr>139</ns3:hr>
          </ns3:TrackPointExtension>
        </extensions>
      </trkpt>
      <trkpt lat="46.66144265793263912200927734375" lon="6.8748160265386104583740234375">
        <ele>698</ele>
        <time>2013-08-15T17:43:51.000Z</time>
        <extensions>
          <ns3:TrackPointExtension>
            <ns3:atemp>16.0</ns3:atemp>
            <ns3:hr>139</ns3:hr>
          </ns3:TrackPointExtension>
        </extensions>
      </trkpt>
      <trkpt lat="46.6614834778010845184326171875" lon="6.8748277612030506134033203125">
        <ele>698.20001220703125</ele>
        <time>2013-08-15T17:43:52.000Z</time>
        <extensions>
          <ns3:TrackPointExtension>
            <ns3:atemp>16.0</ns3:atemp>
            <ns3:hr>139</ns3:hr>
          </ns3:TrackPointExtension>
        </extensions>
      </trkpt>
      <trkpt lat="46.66152480058372020721435546875" lon="6.87484025023877620697021484375">
        <ele>698.20001220703125</ele>
        <time>2013-08-15T17:43:53.000Z</time>
        <extensions>
          <ns3:TrackPointExtension>
            <ns3:atemp>16.0</ns3:atemp>
            <ns3:hr>139</ns3:hr>
          </ns3:TrackPointExtension>
        </extensions>
      </trkpt>
      <trkpt lat="46.66156620718538761138916015625" lon="6.874853074550628662109375">
        <ele>698.4000244140625</ele>
        <time>2013-08-15T17:43:54.000Z</time>
        <extensions>
          <ns3:TrackPointExtension>
            <ns3:atemp>16.0</ns3:atemp>
            <ns3:hr>140</ns3:hr>
          </ns3:TrackPointExtension>
        </extensions>
      </trkpt>
      <trkpt lat="46.661608032882213592529296875" lon="6.874863803386688232421875">
        <ele>698.5999755859375</ele>
        <time>2013-08-15T17:43:55.000Z</time>
        <extensions>
          <ns3:TrackPointExtension>
            <ns3:atemp>16.0</ns3:atemp>
            <ns3:hr>140</ns3:hr>
          </ns3:TrackPointExtension>
        </extensions>
      </trkpt>
      <trkpt lat="46.66164969094097614288330078125" lon="6.874878220260143280029296875">
        <ele>698.79998779296875</ele>
        <time>2013-08-15T17:43:56.000Z</time>
        <extensions>
          <ns3:TrackPointExtension>
            <ns3:atemp>16.0</ns3:atemp>
            <ns3:hr>140</ns3:hr>
          </ns3:TrackPointExtension>
        </extensions>
      </trkpt>
      <trkpt lat="46.66169009171426296234130859375" lon="6.87489037401974201202392578125">
        <ele>699</ele>
        <time>2013-08-15T17:43:57.000Z</time>
        <extensions>
          <ns3:TrackPointExtension>
            <ns3:atemp>16.0</ns3:atemp>
            <ns3:hr>140</ns3:hr>
          </ns3:TrackPointExtension>
        </extensions>
      </trkpt>
      <trkpt lat="46.6617302410304546356201171875" lon="6.87490328215062618255615234375">
        <ele>699.20001220703125</ele>
        <time>2013-08-15T17:43:58.000Z</time>
        <extensions>
          <ns3:TrackPointExtension>
            <ns3:atemp>16.0</ns3:atemp>
            <ns3:hr>141</ns3:hr>
          </ns3:TrackPointExtension>
        </extensions>
      </trkpt>
      <trkpt lat="46.66177005507051944732666015625" lon="6.874913759529590606689453125">
        <ele>699.79998779296875</ele>
        <time>2013-08-15T17:43:59.000Z</time>
        <extensions>
          <ns3:TrackPointExtension>
            <ns3:atemp>16.0</ns3:atemp>
            <ns3:hr>141</ns3:hr>
          </ns3:TrackPointExtension>
        </extensions>
      </trkpt>
      <trkpt lat="46.66180928237736225128173828125" lon="6.8749259971082210540771484375">
        <ele>700</ele>
        <time>2013-08-15T17:44:00.000Z</time>
        <extensions>
          <ns3:TrackPointExtension>
            <ns3:atemp>16.0</ns3:atemp>
            <ns3:hr>141</ns3:hr>
          </ns3:TrackPointExtension>
        </extensions>
      </trkpt>
      <trkpt lat="46.6618479229509830474853515625" lon="6.87493965961039066314697265625">
        <ele>700.20001220703125</ele>
        <time>2013-08-15T17:44:01.000Z</time>
        <extensions>
          <ns3:TrackPointExtension>
            <ns3:atemp>16.0</ns3:atemp>
            <ns3:hr>141</ns3:hr>
          </ns3:TrackPointExtension>
        </extensions>
      </trkpt>
      <trkpt lat="46.6618861444294452667236328125" lon="6.87494988553225994110107421875">
        <ele>700.4000244140625</ele>
        <time>2013-08-15T17:44:02.000Z</time>
        <extensions>
          <ns3:TrackPointExtension>
            <ns3:atemp>16.0</ns3:atemp>
            <ns3:hr>142</ns3:hr>
          </ns3:TrackPointExtension>
        </extensions>
      </trkpt>
      <trkpt lat="46.66192553937435150146484375" lon="6.8749544955790042877197265625">
        <ele>700.79998779296875</ele>
        <time>2013-08-15T17:44:03.000Z</time>
        <extensions>
          <ns3:TrackPointExtension>
            <ns3:atemp>16.0</ns3:atemp>
            <ns3:hr>142</ns3:hr>
          </ns3:TrackPointExtension>
        </extensions>
      </trkpt>
      <trkpt lat="46.661964766681194305419921875" lon="6.87496162019670009613037109375">
        <ele>701</ele>
        <time>2013-08-15T17:44:04.000Z</time>
        <extensions>
          <ns3:TrackPointExtension>
            <ns3:atemp>16.0</ns3:atemp>
            <ns3:hr>142</ns3:hr>
          </ns3:TrackPointExtension>
        </extensions>
      </trkpt>
      <trkpt lat="46.6620038263499736785888671875" lon="6.874976120889186859130859375">
        <ele>701.20001220703125</ele>
        <time>2013-08-15T17:44:05.000Z</time>
        <extensions>
          <ns3:TrackPointExtension>
            <ns3:atemp>16.0</ns3:atemp>
            <ns3:hr>142</ns3:hr>
          </ns3:TrackPointExtension>
        </extensions>
      </trkpt>
      <trkpt lat="46.6620410420000553131103515625" lon="6.87499045394361019134521484375">
        <ele>701.4000244140625</ele>
        <time>2013-08-15T17:44:06.000Z</time>
        <extensions>
          <ns3:TrackPointExtension>
            <ns3:atemp>16.0</ns3:atemp>
            <ns3:hr>142</ns3:hr>
          </ns3:TrackPointExtension>
        </extensions>
      </trkpt>
      <trkpt lat="46.66208068840205669403076171875" lon="6.87499665655195713043212890625">
        <ele>701.5999755859375</ele>
        <time>2013-08-15T17:44:07.000Z</time>
        <extensions>
          <ns3:TrackPointExtension>
            <ns3:atemp>16.0</ns3:atemp>
            <ns3:hr>143</ns3:hr>
          </ns3:TrackPointExtension>
        </extensions>
      </trkpt>
      <trkpt lat="46.6621178202331066131591796875" lon="6.8749977461993694305419921875">
        <ele>702.20001220703125</ele>
        <time>2013-08-15T17:44:08.000Z</time>
        <extensions>
          <ns3:TrackPointExtension>
            <ns3:atemp>16.0</ns3:atemp>
            <ns3:hr>143</ns3:hr>
          </ns3:TrackPointExtension>
        </extensions>
      </trkpt>
      <trkpt lat="46.66215478442609310150146484375" lon="6.87499632127583026885986328125">
        <ele>702.4000244140625</ele>
        <time>2013-08-15T17:44:09.000Z</time>
        <extensions>
          <ns3:TrackPointExtension>
            <ns3:atemp>16.0</ns3:atemp>
            <ns3:hr>143</ns3:hr>
          </ns3:TrackPointExtension>
        </extensions>
      </trkpt>
      <trkpt lat="46.66219250299036502838134765625" lon="6.87500051222741603851318359375">
        <ele>702.5999755859375</ele>
        <time>2013-08-15T17:44:10.000Z</time>
        <extensions>
          <ns3:TrackPointExtension>
            <ns3:atemp>16.0</ns3:atemp>
            <ns3:hr>143</ns3:hr>
          </ns3:TrackPointExtension>
        </extensions>
      </trkpt>
      <trkpt lat="46.66222703643143177032470703125" lon="6.87501107342541217803955078125">
        <ele>702.5999755859375</ele>
        <time>2013-08-15T17:44:11.000Z</time>
        <extensions>
          <ns3:TrackPointExtension>
            <ns3:atemp>16.0</ns3:atemp>
            <ns3:hr>143</ns3:hr>
          </ns3:TrackPointExtension>
        </extensions>
      </trkpt>
      <trkpt lat="46.66226123459637165069580078125" lon="6.87501735985279083251953125">
        <ele>702.5999755859375</ele>
        <time>2013-08-15T17:44:12.000Z</time>
        <extensions>
          <ns3:TrackPointExtension>
            <ns3:atemp>16.0</ns3:atemp>
            <ns3:hr>144</ns3:hr>
          </ns3:TrackPointExtension>
        </extensions>
      </trkpt>
      <trkpt lat="46.662296690046787261962890625" lon="6.87502205371856689453125">
        <ele>702.5999755859375</ele>
        <time>2013-08-15T17:44:13.000Z</time>
        <extensions>
          <ns3:TrackPointExtension>
            <ns3:atemp>16.0</ns3:atemp>
            <ns3:hr>144</ns3:hr>
          </ns3:TrackPointExtension>
        </extensions>
      </trkpt>
      <trkpt lat="46.66233415715396404266357421875" lon="6.8750218860805034637451171875">
        <ele>702.79998779296875</ele>
        <time>2013-08-15T17:44:14.000Z</time>
        <extensions>
          <ns3:TrackPointExtension>
            <ns3:atemp>16.0</ns3:atemp>
            <ns3:hr>144</ns3:hr>
          </ns3:TrackPointExtension>
        </extensions>
      </trkpt>
      <trkpt lat="46.66237086988985538482666015625" lon="6.8750178627669811248779296875">
        <ele>703</ele>
        <time>2013-08-15T17:44:15.000Z</time>
        <extensions>
          <ns3:TrackPointExtension>
            <ns3:atemp>16.0</ns3:atemp>
            <ns3:hr>145</ns3:hr>
          </ns3:TrackPointExtension>
        </extensions>
      </trkpt>
      <trkpt lat="46.66240590624511241912841796875" lon="6.875006295740604400634765625">
        <ele>703.20001220703125</ele>
        <time>2013-08-15T17:44:16.000Z</time>
        <extensions>
          <ns3:TrackPointExtension>
            <ns3:atemp>16.0</ns3:atemp>
            <ns3:hr>145</ns3:hr>
          </ns3:TrackPointExtension>
        </extensions>
      </trkpt>
      <trkpt lat="46.6624420322477817535400390625" lon="6.8749920465052127838134765625">
        <ele>703.5999755859375</ele>
        <time>2013-08-15T17:44:17.000Z</time>
        <extensions>
          <ns3:TrackPointExtension>
            <ns3:atemp>16.0</ns3:atemp>
            <ns3:hr>146</ns3:hr>
          </ns3:TrackPointExtension>
        </extensions>
      </trkpt>
      <trkpt lat="46.66247941553592681884765625" lon="6.8749776296317577362060546875">
        <ele>703.79998779296875</ele>
        <time>2013-08-15T17:44:18.000Z</time>
        <extensions>
          <ns3:TrackPointExtension>
            <ns3:atemp>16.0</ns3:atemp>
            <ns3:hr>146</ns3:hr>
          </ns3:TrackPointExtension>
        </extensions>
      </trkpt>
      <trkpt lat="46.6625164635479450225830078125" lon="6.87496597878634929656982421875">
        <ele>704.20001220703125</ele>
        <time>2013-08-15T17:44:19.000Z</time>
        <extensions>
          <ns3:TrackPointExtension>
            <ns3:atemp>16.0</ns3:atemp>
            <ns3:hr>146</ns3:hr>
          </ns3:TrackPointExtension>
        </extensions>
      </trkpt>
      <trkpt lat="46.66255208663642406463623046875" lon="6.87495625577867031097412109375">
        <ele>704.4000244140625</ele>
        <time>2013-08-15T17:44:20.000Z</time>
        <extensions>
          <ns3:TrackPointExtension>
            <ns3:atemp>16.0</ns3:atemp>
            <ns3:hr>147</ns3:hr>
          </ns3:TrackPointExtension>
        </extensions>
      </trkpt>
      <trkpt lat="46.66259315796196460723876953125" lon="6.87494033016264438629150390625">
        <ele>704.79998779296875</ele>
        <time>2013-08-15T17:44:21.000Z</time>
        <extensions>
          <ns3:TrackPointExtension>
            <ns3:atemp>16.0</ns3:atemp>
            <ns3:hr>147</ns3:hr>
          </ns3:TrackPointExtension>
        </extensions>
      </trkpt>
      <trkpt lat="46.66262869723141193389892578125" lon="6.87492339871823787689208984375">
        <ele>705.20001220703125</ele>
        <time>2013-08-15T17:44:22.000Z</time>
        <extensions>
          <ns3:TrackPointExtension>
            <ns3:atemp>16.0</ns3:atemp>
            <ns3:hr>147</ns3:hr>
          </ns3:TrackPointExtension>
        </extensions>
      </trkpt>
      <trkpt lat="46.66266708634793758392333984375" lon="6.8749068863689899444580078125">
        <ele>705.5999755859375</ele>
        <time>2013-08-15T17:44:23.000Z</time>
        <extensions>
          <ns3:TrackPointExtension>
            <ns3:atemp>16.0</ns3:atemp>
            <ns3:hr>148</ns3:hr>
          </ns3:TrackPointExtension>
        </extensions>
      </trkpt>
      <trkpt lat="46.66270430199801921844482421875" lon="6.8748904578387737274169921875">
        <ele>706</ele>
        <time>2013-08-15T17:44:24.000Z</time>
        <extensions>
          <ns3:TrackPointExtension>
            <ns3:atemp>16.0</ns3:atemp>
            <ns3:hr>148</ns3:hr>
          </ns3:TrackPointExtension>
        </extensions>
      </trkpt>
      <trkpt lat="46.6627404280006885528564453125" lon="6.8748713470995426177978515625">
        <ele>706.20001220703125</ele>
        <time>2013-08-15T17:44:25.000Z</time>
        <extensions>
          <ns3:TrackPointExtension>
            <ns3:atemp>16.0</ns3:atemp>
            <ns3:hr>148</ns3:hr>
          </ns3:TrackPointExtension>
        </extensions>
      </trkpt>
      <trkpt lat="46.66277445852756500244140625" lon="6.874849386513233184814453125">
        <ele>706.4000244140625</ele>
        <time>2013-08-15T17:44:26.000Z</time>
        <extensions>
          <ns3:TrackPointExtension>
            <ns3:atemp>16.0</ns3:atemp>
            <ns3:hr>148</ns3:hr>
          </ns3:TrackPointExtension>
        </extensions>
      </trkpt>
      <trkpt lat="46.66280907578766345977783203125" lon="6.874825246632099151611328125">
        <ele>706.5999755859375</ele>
        <time>2013-08-15T17:44:27.000Z</time>
        <extensions>
          <ns3:TrackPointExtension>
            <ns3:atemp>16.0</ns3:atemp>
            <ns3:hr>148</ns3:hr>
          </ns3:TrackPointExtension>
        </extensions>
      </trkpt>
      <trkpt lat="46.66284461505711078643798828125" lon="6.8748032860457897186279296875">
        <ele>707</ele>
        <time>2013-08-15T17:44:28.000Z</time>
        <extensions>
          <ns3:TrackPointExtension>
            <ns3:atemp>16.0</ns3:atemp>
            <ns3:hr>148</ns3:hr>
          </ns3:TrackPointExtension>
        </extensions>
      </trkpt>
      <trkpt lat="46.66287948377430438995361328125" lon="6.874783001840114593505859375">
        <ele>707</ele>
        <time>2013-08-15T17:44:29.000Z</time>
        <extensions>
          <ns3:TrackPointExtension>
            <ns3:atemp>16.0</ns3:atemp>
            <ns3:hr>147</ns3:hr>
          </ns3:TrackPointExtension>
        </extensions>
      </trkpt>
      <trkpt lat="46.66291401721537113189697265625" lon="6.87476112507283687591552734375">
        <ele>707.20001220703125</ele>
        <time>2013-08-15T17:44:30.000Z</time>
        <extensions>
          <ns3:TrackPointExtension>
            <ns3:atemp>16.0</ns3:atemp>
            <ns3:hr>148</ns3:hr>
          </ns3:TrackPointExtension>
        </extensions>
      </trkpt>
      <trkpt lat="46.66295039467513561248779296875" lon="6.8747363984584808349609375">
        <ele>707.4000244140625</ele>
        <time>2013-08-15T17:44:31.000Z</time>
        <extensions>
          <ns3:TrackPointExtension>
            <ns3:atemp>16.0</ns3:atemp>
            <ns3:hr>148</ns3:hr>
          </ns3:TrackPointExtension>
        </extensions>
      </trkpt>
      <trkpt lat="46.662987358868122100830078125" lon="6.87471100129187107086181640625">
        <ele>708</ele>
        <time>2013-08-15T17:44:32.000Z</time>
        <extensions>
          <ns3:TrackPointExtension>
            <ns3:atemp>16.0</ns3:atemp>
            <ns3:hr>147</ns3:hr>
          </ns3:TrackPointExtension>
        </extensions>
      </trkpt>
      <trkpt lat="46.663021557033061981201171875" lon="6.87467847950756549835205078125">
        <ele>708.20001220703125</ele>
        <time>2013-08-15T17:44:33.000Z</time>
        <extensions>
          <ns3:TrackPointExtension>
            <ns3:atemp>16.0</ns3:atemp>
            <ns3:hr>147</ns3:hr>
          </ns3:TrackPointExtension>
        </extensions>
      </trkpt>
      <trkpt lat="46.66305667720735073089599609375" lon="6.87464461661875247955322265625">
        <ele>708.4000244140625</ele>
        <time>2013-08-15T17:44:34.000Z</time>
        <extensions>
          <ns3:TrackPointExtension>
            <ns3:atemp>16.0</ns3:atemp>
            <ns3:hr>147</ns3:hr>
          </ns3:TrackPointExtension>
        </extensions>
      </trkpt>
      <trkpt lat="46.66308651678264141082763671875" lon="6.87460429966449737548828125">
        <ele>708.5999755859375</ele>
        <time>2013-08-15T17:44:35.000Z</time>
        <extensions>
          <ns3:TrackPointExtension>
            <ns3:atemp>16.0</ns3:atemp>
            <ns3:hr>148</ns3:hr>
          </ns3:TrackPointExtension>
        </extensions>
      </trkpt>
      <trkpt lat="46.66311602108180522918701171875" lon="6.87456632964313030242919921875">
        <ele>708.79998779296875</ele>
        <time>2013-08-15T17:44:36.000Z</time>
        <extensions>
          <ns3:TrackPointExtension>
            <ns3:atemp>16.0</ns3:atemp>
            <ns3:hr>148</ns3:hr>
          </ns3:TrackPointExtension>
        </extensions>
      </trkpt>
      <trkpt lat="46.66314862668514251708984375" lon="6.87453045509755611419677734375">
        <ele>709</ele>
        <time>2013-08-15T17:44:37.000Z</time>
        <extensions>
          <ns3:TrackPointExtension>
            <ns3:atemp>16.0</ns3:atemp>
            <ns3:hr>148</ns3:hr>
          </ns3:TrackPointExtension>
        </extensions>
      </trkpt>
      <trkpt lat="46.66318039409816265106201171875" lon="6.874493323266506195068359375">
        <ele>709.20001220703125</ele>
        <time>2013-08-15T17:44:38.000Z</time>
        <extensions>
          <ns3:TrackPointExtension>
            <ns3:atemp>16.0</ns3:atemp>
            <ns3:hr>148</ns3:hr>
          </ns3:TrackPointExtension>
        </extensions>
      </trkpt>
      <trkpt lat="46.66320889256894588470458984375" lon="6.8744515813887119293212890625">
        <ele>709.4000244140625</ele>
        <time>2013-08-15T17:44:39.000Z</time>
        <extensions>
          <ns3:TrackPointExtension>
            <ns3:atemp>16.0</ns3:atemp>
            <ns3:hr>148</ns3:hr>
          </ns3:TrackPointExtension>
        </extensions>
      </trkpt>
      <trkpt lat="46.66323470883071422576904296875" lon="6.8744063191115856170654296875">
        <ele>709.5999755859375</ele>
        <time>2013-08-15T17:44:40.000Z</time>
        <extensions>
          <ns3:TrackPointExtension>
            <ns3:atemp>16.0</ns3:atemp>
            <ns3:hr>148</ns3:hr>
          </ns3:TrackPointExtension>
        </extensions>
      </trkpt>
      <trkpt lat="46.6632631234824657440185546875" lon="6.8743613921105861663818359375">
        <ele>709.5999755859375</ele>
        <time>2013-08-15T17:44:41.000Z</time>
        <extensions>
          <ns3:TrackPointExtension>
            <ns3:atemp>16.0</ns3:atemp>
            <ns3:hr>148</ns3:hr>
          </ns3:TrackPointExtension>
        </extensions>
      </trkpt>
      <trkpt lat="46.663291454315185546875" lon="6.8743152916431427001953125">
        <ele>709.79998779296875</ele>
        <time>2013-08-15T17:44:42.000Z</time>
        <extensions>
          <ns3:TrackPointExtension>
            <ns3:atemp>16.0</ns3:atemp>
            <ns3:hr>148</ns3:hr>
          </ns3:TrackPointExtension>
        </extensions>
      </trkpt>
      <trkpt lat="46.66331785731017589569091796875" lon="6.8742671795189380645751953125">
        <ele>710</ele>
        <time>2013-08-15T17:44:43.000Z</time>
        <extensions>
          <ns3:TrackPointExtension>
            <ns3:atemp>16.0</ns3:atemp>
            <ns3:hr>148</ns3:hr>
          </ns3:TrackPointExtension>
        </extensions>
      </trkpt>
      <trkpt lat="46.66334451176226139068603515625" lon="6.87421646900475025177001953125">
        <ele>710.20001220703125</ele>
        <time>2013-08-15T17:44:44.000Z</time>
        <extensions>
          <ns3:TrackPointExtension>
            <ns3:atemp>16.0</ns3:atemp>
            <ns3:hr>148</ns3:hr>
          </ns3:TrackPointExtension>
        </extensions>
      </trkpt>
      <trkpt lat="46.66337125003337860107421875" lon="6.87416517175734043121337890625">
        <ele>710.20001220703125</ele>
        <time>2013-08-15T17:44:45.000Z</time>
        <extensions>
          <ns3:TrackPointExtension>
            <ns3:atemp>16.0</ns3:atemp>
            <ns3:hr>148</ns3:hr>
          </ns3:TrackPointExtension>
        </extensions>
      </trkpt>
      <trkpt lat="46.6633955575525760650634765625" lon="6.87410985119640827178955078125">
        <ele>710.5999755859375</ele>
        <time>2013-08-15T17:44:46.000Z</time>
        <extensions>
          <ns3:TrackPointExtension>
            <ns3:atemp>16.0</ns3:atemp>
            <ns3:hr>148</ns3:hr>
          </ns3:TrackPointExtension>
        </extensions>
      </trkpt>
      <trkpt lat="46.663421206176280975341796875" lon="6.87405536882579326629638671875">
        <ele>710.5999755859375</ele>
        <time>2013-08-15T17:44:47.000Z</time>
        <extensions>
          <ns3:TrackPointExtension>
            <ns3:atemp>16.0</ns3:atemp>
            <ns3:hr>148</ns3:hr>
          </ns3:TrackPointExtension>
        </extensions>
      </trkpt>
      <trkpt lat="46.6634458489716053009033203125" lon="6.87399971298873424530029296875">
        <ele>710.79998779296875</ele>
        <time>2013-08-15T17:44:48.000Z</time>
        <extensions>
          <ns3:TrackPointExtension>
            <ns3:atemp>16.0</ns3:atemp>
            <ns3:hr>148</ns3:hr>
          </ns3:TrackPointExtension>
        </extensions>
      </trkpt>
      <trkpt lat="46.66346940211951732635498046875" lon="6.87394179403781890869140625">
        <ele>711</ele>
        <time>2013-08-15T17:44:49.000Z</time>
        <extensions>
          <ns3:TrackPointExtension>
            <ns3:atemp>16.0</ns3:atemp>
            <ns3:hr>148</ns3:hr>
          </ns3:TrackPointExtension>
        </extensions>
      </trkpt>
      <trkpt lat="46.663492619991302490234375" lon="6.87387918122112751007080078125">
        <ele>711</ele>
        <time>2013-08-15T17:44:50.000Z</time>
        <extensions>
          <ns3:TrackPointExtension>
            <ns3:atemp>16.0</ns3:atemp>
            <ns3:hr>148</ns3:hr>
          </ns3:TrackPointExtension>
        </extensions>
      </trkpt>
      <trkpt lat="46.663517095148563385009765625" lon="6.873818747699260711669921875">
        <ele>711.20001220703125</ele>
        <time>2013-08-15T17:44:51.000Z</time>
        <extensions>
          <ns3:TrackPointExtension>
            <ns3:atemp>16.0</ns3:atemp>
            <ns3:hr>149</ns3:hr>
          </ns3:TrackPointExtension>
        </extensions>
      </trkpt>
      <trkpt lat="46.663542576134204864501953125" lon="6.87375864945352077484130859375">
        <ele>711.20001220703125</ele>
        <time>2013-08-15T17:44:52.000Z</time>
        <extensions>
          <ns3:TrackPointExtension>
            <ns3:atemp>16.0</ns3:atemp>
            <ns3:hr>148</ns3:hr>
          </ns3:TrackPointExtension>
        </extensions>
      </trkpt>
      <trkpt lat="46.66356881149113178253173828125" lon="6.8736970424652099609375">
        <ele>711.5999755859375</ele>
        <time>2013-08-15T17:44:53.000Z</time>
        <extensions>
          <ns3:TrackPointExtension>
            <ns3:atemp>16.0</ns3:atemp>
            <ns3:hr>149</ns3:hr>
          </ns3:TrackPointExtension>
        </extensions>
      </trkpt>
      <trkpt lat="46.66359529830515384674072265625" lon="6.87363744713366031646728515625">
        <ele>711.5999755859375</ele>
        <time>2013-08-15T17:44:54.000Z</time>
        <extensions>
          <ns3:TrackPointExtension>
            <ns3:atemp>16.0</ns3:atemp>
            <ns3:hr>148</ns3:hr>
          </ns3:TrackPointExtension>
        </extensions>
      </trkpt>
      <trkpt lat="46.66362295858561992645263671875" lon="6.87357793562114238739013671875">
        <ele>711.79998779296875</ele>
        <time>2013-08-15T17:44:55.000Z</time>
        <extensions>
          <ns3:TrackPointExtension>
            <ns3:atemp>16.0</ns3:atemp>
            <ns3:hr>148</ns3:hr>
          </ns3:TrackPointExtension>
        </extensions>
      </trkpt>
      <trkpt lat="46.66364743374288082122802734375" lon="6.873514316976070404052734375">
        <ele>712</ele>
        <time>2013-08-15T17:44:56.000Z</time>
        <extensions>
          <ns3:TrackPointExtension>
            <ns3:atemp>16.0</ns3:atemp>
            <ns3:hr>148</ns3:hr>
          </ns3:TrackPointExtension>
        </extensions>
      </trkpt>
      <trkpt lat="46.66367475874722003936767578125" lon="6.87345203943550586700439453125">
        <ele>712</ele>
        <time>2013-08-15T17:44:57.000Z</time>
        <extensions>
          <ns3:TrackPointExtension>
            <ns3:atemp>16.0</ns3:atemp>
            <ns3:hr>148</ns3:hr>
          </ns3:TrackPointExtension>
        </extensions>
      </trkpt>
      <trkpt lat="46.66370376013219356536865234375" lon="6.87338984571397304534912109375">
        <ele>712.20001220703125</ele>
        <time>2013-08-15T17:44:58.000Z</time>
        <extensions>
          <ns3:TrackPointExtension>
            <ns3:atemp>16.0</ns3:atemp>
            <ns3:hr>148</ns3:hr>
          </ns3:TrackPointExtension>
        </extensions>
      </trkpt>
      <trkpt lat="46.66372932493686676025390625" lon="6.87332614324986934661865234375">
        <ele>712.20001220703125</ele>
        <time>2013-08-15T17:44:59.000Z</time>
        <extensions>
          <ns3:TrackPointExtension>
            <ns3:atemp>16.0</ns3:atemp>
            <ns3:hr>148</ns3:hr>
          </ns3:TrackPointExtension>
        </extensions>
      </trkpt>
      <trkpt lat="46.66375455446541309356689453125" lon="6.87326227314770221710205078125">
        <ele>712.4000244140625</ele>
        <time>2013-08-15T17:45:00.000Z</time>
        <extensions>
          <ns3:TrackPointExtension>
            <ns3:atemp>16.0</ns3:atemp>
            <ns3:hr>148</ns3:hr>
          </ns3:TrackPointExtension>
        </extensions>
      </trkpt>
      <trkpt lat="46.66377768851816654205322265625" lon="6.8731973133981227874755859375">
        <ele>712.5999755859375</ele>
        <time>2013-08-15T17:45:01.000Z</time>
        <extensions>
          <ns3:TrackPointExtension>
            <ns3:atemp>16.0</ns3:atemp>
            <ns3:hr>148</ns3:hr>
          </ns3:TrackPointExtension>
        </extensions>
      </trkpt>
      <trkpt lat="46.66380518116056919097900390625" lon="6.87313268892467021942138671875">
        <ele>712.5999755859375</ele>
        <time>2013-08-15T17:45:02.000Z</time>
        <extensions>
          <ns3:TrackPointExtension>
            <ns3:atemp>16.0</ns3:atemp>
            <ns3:hr>148</ns3:hr>
          </ns3:TrackPointExtension>
        </extensions>
      </trkpt>
      <trkpt lat="46.663832254707813262939453125" lon="6.87306613661348819732666015625">
        <ele>712.79998779296875</ele>
        <time>2013-08-15T17:45:03.000Z</time>
        <extensions>
          <ns3:TrackPointExtension>
            <ns3:atemp>16.0</ns3:atemp>
            <ns3:hr>148</ns3:hr>
          </ns3:TrackPointExtension>
        </extensions>
      </trkpt>
      <trkpt lat="46.66385681368410587310791015625" lon="6.872999668121337890625">
        <ele>712.79998779296875</ele>
        <time>2013-08-15T17:45:04.000Z</time>
        <extensions>
          <ns3:TrackPointExtension>
            <ns3:atemp>16.0</ns3:atemp>
            <ns3:hr>147</ns3:hr>
          </ns3:TrackPointExtension>
        </extensions>
      </trkpt>
      <trkpt lat="46.66388480924069881439208984375" lon="6.8729341216385364532470703125">
        <ele>712.79998779296875</ele>
        <time>2013-08-15T17:45:05.000Z</time>
        <extensions>
          <ns3:TrackPointExtension>
            <ns3:atemp>16.0</ns3:atemp>
            <ns3:hr>147</ns3:hr>
          </ns3:TrackPointExtension>
        </extensions>
      </trkpt>
      <trkpt lat="46.66391213424503803253173828125" lon="6.872869245707988739013671875">
        <ele>713</ele>
        <time>2013-08-15T17:45:06.000Z</time>
        <extensions>
          <ns3:TrackPointExtension>
            <ns3:atemp>16.0</ns3:atemp>
            <ns3:hr>147</ns3:hr>
          </ns3:TrackPointExtension>
        </extensions>
      </trkpt>
      <trkpt lat="46.66394080035388469696044921875" lon="6.87280395068228244781494140625">
        <ele>713</ele>
        <time>2013-08-15T17:45:07.000Z</time>
        <extensions>
          <ns3:TrackPointExtension>
            <ns3:atemp>16.0</ns3:atemp>
            <ns3:hr>147</ns3:hr>
          </ns3:TrackPointExtension>
        </extensions>
      </trkpt>
      <trkpt lat="46.66397164575755596160888671875" lon="6.8727399967610836029052734375">
        <ele>713.20001220703125</ele>
        <time>2013-08-15T17:45:08.000Z</time>
        <extensions>
          <ns3:TrackPointExtension>
            <ns3:atemp>17.0</ns3:atemp>
            <ns3:hr>146</ns3:hr>
          </ns3:TrackPointExtension>
        </extensions>
      </trkpt>
      <trkpt lat="46.6640008985996246337890625" lon="6.872678138315677642822265625">
        <ele>713.20001220703125</ele>
        <time>2013-08-15T17:45:09.000Z</time>
        <extensions>
          <ns3:TrackPointExtension>
            <ns3:atemp>17.0</ns3:atemp>
            <ns3:hr>146</ns3:hr>
          </ns3:TrackPointExtension>
        </extensions>
      </trkpt>
      <trkpt lat="46.664027385413646697998046875" lon="6.87261234037578105926513671875">
        <ele>713.4000244140625</ele>
        <time>2013-08-15T17:45:10.000Z</time>
        <extensions>
          <ns3:TrackPointExtension>
            <ns3:atemp>17.0</ns3:atemp>
            <ns3:hr>146</ns3:hr>
          </ns3:TrackPointExtension>
        </extensions>
      </trkpt>
      <trkpt lat="46.66405387222766876220703125" lon="6.87254595570266246795654296875">
        <ele>713.5999755859375</ele>
        <time>2013-08-15T17:45:11.000Z</time>
        <extensions>
          <ns3:TrackPointExtension>
            <ns3:atemp>17.0</ns3:atemp>
            <ns3:hr>146</ns3:hr>
          </ns3:TrackPointExtension>
        </extensions>
      </trkpt>
      <trkpt lat="46.6640815325081348419189453125" lon="6.87247806228697299957275390625">
        <ele>713.79998779296875</ele>
        <time>2013-08-15T17:45:12.000Z</time>
        <extensions>
          <ns3:TrackPointExtension>
            <ns3:atemp>17.0</ns3:atemp>
            <ns3:hr>145</ns3:hr>
          </ns3:TrackPointExtension>
        </extensions>
      </trkpt>
      <trkpt lat="46.66410776786506175994873046875" lon="6.872409917414188385009765625">
        <ele>713.79998779296875</ele>
        <time>2013-08-15T17:45:13.000Z</time>
        <extensions>
          <ns3:TrackPointExtension>
            <ns3:atemp>17.0</ns3:atemp>
            <ns3:hr>145</ns3:hr>
          </ns3:TrackPointExtension>
        </extensions>
      </trkpt>
      <trkpt lat="46.66413567960262298583984375" lon="6.87234344892203807830810546875">
        <ele>713.79998779296875</ele>
        <time>2013-08-15T17:45:14.000Z</time>
        <extensions>
          <ns3:TrackPointExtension>
            <ns3:atemp>17.0</ns3:atemp>
            <ns3:hr>145</ns3:hr>
          </ns3:TrackPointExtension>
        </extensions>
      </trkpt>
      <trkpt lat="46.66416426189243793487548828125" lon="6.87227991409599781036376953125">
        <ele>714</ele>
        <time>2013-08-15T17:45:15.000Z</time>
        <extensions>
          <ns3:TrackPointExtension>
            <ns3:atemp>17.0</ns3:atemp>
            <ns3:hr>145</ns3:hr>
          </ns3:TrackPointExtension>
        </extensions>
      </trkpt>
      <trkpt lat="46.6641881503164768218994140625" lon="6.87221252359449863433837890625">
        <ele>714</ele>
        <time>2013-08-15T17:45:16.000Z</time>
        <extensions>
          <ns3:TrackPointExtension>
            <ns3:atemp>17.0</ns3:atemp>
            <ns3:hr>144</ns3:hr>
          </ns3:TrackPointExtension>
        </extensions>
      </trkpt>
      <trkpt lat="46.6642173193395137786865234375" lon="6.8721512518823146820068359375">
        <ele>714</ele>
        <time>2013-08-15T17:45:17.000Z</time>
        <extensions>
          <ns3:TrackPointExtension>
            <ns3:atemp>17.0</ns3:atemp>
            <ns3:hr>144</ns3:hr>
          </ns3:TrackPointExtension>
        </extensions>
      </trkpt>
      <trkpt lat="46.6642454825341701507568359375" lon="6.8720895610749721527099609375">
        <ele>714.20001220703125</ele>
        <time>2013-08-15T17:45:18.000Z</time>
        <extensions>
          <ns3:TrackPointExtension>
            <ns3:atemp>17.0</ns3:atemp>
            <ns3:hr>144</ns3:hr>
          </ns3:TrackPointExtension>
        </extensions>
      </trkpt>
      <trkpt lat="46.6642712987959384918212890625" lon="6.87202460132539272308349609375">
        <ele>714.20001220703125</ele>
        <time>2013-08-15T17:45:19.000Z</time>
        <extensions>
          <ns3:TrackPointExtension>
            <ns3:atemp>17.0</ns3:atemp>
            <ns3:hr>143</ns3:hr>
          </ns3:TrackPointExtension>
        </extensions>
      </trkpt>
      <trkpt lat="46.66429971344769001007080078125" lon="6.87196240760385990142822265625">
        <ele>714.4000244140625</ele>
        <time>2013-08-15T17:45:20.000Z</time>
        <extensions>
          <ns3:TrackPointExtension>
            <ns3:atemp>17.0</ns3:atemp>
            <ns3:hr>143</ns3:hr>
          </ns3:TrackPointExtension>
        </extensions>
      </trkpt>
      <trkpt lat="46.66432603262364864349365234375" lon="6.87189887277781963348388671875">
        <ele>714.5999755859375</ele>
        <time>2013-08-15T17:45:21.000Z</time>
        <extensions>
          <ns3:TrackPointExtension>
            <ns3:atemp>17.0</ns3:atemp>
            <ns3:hr>143</ns3:hr>
          </ns3:TrackPointExtension>
        </extensions>
      </trkpt>
      <trkpt lat="46.6643537767231464385986328125" lon="6.87183600850403308868408203125">
        <ele>714.79998779296875</ele>
        <time>2013-08-15T17:45:22.000Z</time>
        <extensions>
          <ns3:TrackPointExtension>
            <ns3:atemp>17.0</ns3:atemp>
            <ns3:hr>143</ns3:hr>
          </ns3:TrackPointExtension>
        </extensions>
      </trkpt>
      <trkpt lat="46.6643799282610416412353515625" lon="6.87177113257348537445068359375">
        <ele>714.79998779296875</ele>
        <time>2013-08-15T17:45:23.000Z</time>
        <extensions>
          <ns3:TrackPointExtension>
            <ns3:atemp>17.0</ns3:atemp>
            <ns3:hr>143</ns3:hr>
          </ns3:TrackPointExtension>
        </extensions>
      </trkpt>
      <trkpt lat="46.6644023917615413665771484375" lon="6.87170273624360561370849609375">
        <ele>714.79998779296875</ele>
        <time>2013-08-15T17:45:24.000Z</time>
        <extensions>
          <ns3:TrackPointExtension>
            <ns3:atemp>17.0</ns3:atemp>
            <ns3:hr>143</ns3:hr>
          </ns3:TrackPointExtension>
        </extensions>
      </trkpt>
      <trkpt lat="46.66442728601396083831787109375" lon="6.8716362677514553070068359375">
        <ele>714.79998779296875</ele>
        <time>2013-08-15T17:45:25.000Z</time>
        <extensions>
          <ns3:TrackPointExtension>
            <ns3:atemp>17.0</ns3:atemp>
            <ns3:hr>143</ns3:hr>
          </ns3:TrackPointExtension>
        </extensions>
      </trkpt>
      <trkpt lat="46.66445352137088775634765625" lon="6.87157214619219303131103515625">
        <ele>715</ele>
        <time>2013-08-15T17:45:26.000Z</time>
        <extensions>
          <ns3:TrackPointExtension>
            <ns3:atemp>17.0</ns3:atemp>
            <ns3:hr>143</ns3:hr>
          </ns3:TrackPointExtension>
        </extensions>
      </trkpt>
      <trkpt lat="46.6644823551177978515625" lon="6.8715095333755016326904296875">
        <ele>715</ele>
        <time>2013-08-15T17:45:27.000Z</time>
        <extensions>
          <ns3:TrackPointExtension>
            <ns3:atemp>17.0</ns3:atemp>
            <ns3:hr>142</ns3:hr>
          </ns3:TrackPointExtension>
        </extensions>
      </trkpt>
      <trkpt lat="46.6645090095698833465576171875" lon="6.87144675292074680328369140625">
        <ele>715.20001220703125</ele>
        <time>2013-08-15T17:45:28.000Z</time>
        <extensions>
          <ns3:TrackPointExtension>
            <ns3:atemp>17.0</ns3:atemp>
            <ns3:hr>142</ns3:hr>
          </ns3:TrackPointExtension>
        </extensions>
      </trkpt>
      <trkpt lat="46.66453356854617595672607421875" lon="6.871380619704723358154296875">
        <ele>715.4000244140625</ele>
        <time>2013-08-15T17:45:29.000Z</time>
        <extensions>
          <ns3:TrackPointExtension>
            <ns3:atemp>17.0</ns3:atemp>
            <ns3:hr>143</ns3:hr>
          </ns3:TrackPointExtension>
        </extensions>
      </trkpt>
      <trkpt lat="46.66456357575953006744384765625" lon="6.8713170848786830902099609375">
        <ele>715.4000244140625</ele>
        <time>2013-08-15T17:45:30.000Z</time>
        <extensions>
          <ns3:TrackPointExtension>
            <ns3:atemp>17.0</ns3:atemp>
            <ns3:hr>143</ns3:hr>
          </ns3:TrackPointExtension>
        </extensions>
      </trkpt>
      <trkpt lat="46.6645934991538524627685546875" lon="6.87125497497618198394775390625">
        <ele>715.5999755859375</ele>
        <time>2013-08-15T17:45:31.000Z</time>
        <extensions>
          <ns3:TrackPointExtension>
            <ns3:atemp>17.0</ns3:atemp>
            <ns3:hr>142</ns3:hr>
          </ns3:TrackPointExtension>
        </extensions>
      </trkpt>
      <trkpt lat="46.664622835814952850341796875" lon="6.87119026668369770050048828125">
        <ele>715.79998779296875</ele>
        <time>2013-08-15T17:45:32.000Z</time>
        <extensions>
          <ns3:TrackPointExtension>
            <ns3:atemp>17.0</ns3:atemp>
            <ns3:hr>142</ns3:hr>
          </ns3:TrackPointExtension>
        </extensions>
      </trkpt>
      <trkpt lat="46.66464739479124546051025390625" lon="6.8711234629154205322265625">
        <ele>716</ele>
        <time>2013-08-15T17:45:33.000Z</time>
        <extensions>
          <ns3:TrackPointExtension>
            <ns3:atemp>17.0</ns3:atemp>
            <ns3:hr>142</ns3:hr>
          </ns3:TrackPointExtension>
        </extensions>
      </trkpt>
      <trkpt lat="46.66467488743364810943603515625" lon="6.87105841934680938720703125">
        <ele>716.20001220703125</ele>
        <time>2013-08-15T17:45:34.000Z</time>
        <extensions>
          <ns3:TrackPointExtension>
            <ns3:atemp>17.0</ns3:atemp>
            <ns3:hr>141</ns3:hr>
          </ns3:TrackPointExtension>
        </extensions>
      </trkpt>
      <trkpt lat="46.664701960980892181396484375" lon="6.87099278904497623443603515625">
        <ele>716.20001220703125</ele>
        <time>2013-08-15T17:45:35.000Z</time>
        <extensions>
          <ns3:TrackPointExtension>
            <ns3:atemp>17.0</ns3:atemp>
            <ns3:hr>141</ns3:hr>
          </ns3:TrackPointExtension>
        </extensions>
      </trkpt>
      <trkpt lat="46.66472836397588253021240234375" lon="6.87092623673379421234130859375">
        <ele>716.4000244140625</ele>
        <time>2013-08-15T17:45:36.000Z</time>
        <extensions>
          <ns3:TrackPointExtension>
            <ns3:atemp>17.0</ns3:atemp>
            <ns3:hr>141</ns3:hr>
          </ns3:TrackPointExtension>
        </extensions>
      </trkpt>
      <trkpt lat="46.66475535370409488677978515625" lon="6.87086119316518306732177734375">
        <ele>716.4000244140625</ele>
        <time>2013-08-15T17:45:37.000Z</time>
        <extensions>
          <ns3:TrackPointExtension>
            <ns3:atemp>17.0</ns3:atemp>
            <ns3:hr>141</ns3:hr>
          </ns3:TrackPointExtension>
        </extensions>
      </trkpt>
      <trkpt lat="46.66477832011878490447998046875" lon="6.8707950599491596221923828125">
        <ele>716.5999755859375</ele>
        <time>2013-08-15T17:45:38.000Z</time>
        <extensions>
          <ns3:TrackPointExtension>
            <ns3:atemp>17.0</ns3:atemp>
            <ns3:hr>140</ns3:hr>
          </ns3:TrackPointExtension>
        </extensions>
      </trkpt>
      <trkpt lat="46.6648028790950775146484375" lon="6.87073060311377048492431640625">
        <ele>716.5999755859375</ele>
        <time>2013-08-15T17:45:39.000Z</time>
        <extensions>
          <ns3:TrackPointExtension>
            <ns3:atemp>17.0</ns3:atemp>
            <ns3:hr>140</ns3:hr>
          </ns3:TrackPointExtension>
        </extensions>
      </trkpt>
      <trkpt lat="46.6648297011852264404296875" lon="6.87066773883998394012451171875">
        <ele>716.79998779296875</ele>
        <time>2013-08-15T17:45:40.000Z</time>
        <extensions>
          <ns3:TrackPointExtension>
            <ns3:atemp>17.0</ns3:atemp>
            <ns3:hr>140</ns3:hr>
          </ns3:TrackPointExtension>
        </extensions>
      </trkpt>
      <trkpt lat="46.6648553498089313507080078125" lon="6.8706057965755462646484375">
        <ele>717</ele>
        <time>2013-08-15T17:45:41.000Z</time>
        <extensions>
          <ns3:TrackPointExtension>
            <ns3:atemp>17.0</ns3:atemp>
            <ns3:hr>140</ns3:hr>
          </ns3:TrackPointExtension>
        </extensions>
      </trkpt>
      <trkpt lat="46.664884351193904876708984375" lon="6.8705432675778865814208984375">
        <ele>717.20001220703125</ele>
        <time>2013-08-15T17:45:42.000Z</time>
        <extensions>
          <ns3:TrackPointExtension>
            <ns3:atemp>17.0</ns3:atemp>
            <ns3:hr>140</ns3:hr>
          </ns3:TrackPointExtension>
        </extensions>
      </trkpt>
      <trkpt lat="46.66491209529340267181396484375" lon="6.87047981657087802886962890625">
        <ele>717.4000244140625</ele>
        <time>2013-08-15T17:45:43.000Z</time>
        <extensions>
          <ns3:TrackPointExtension>
            <ns3:atemp>17.0</ns3:atemp>
            <ns3:hr>140</ns3:hr>
          </ns3:TrackPointExtension>
        </extensions>
      </trkpt>
      <trkpt lat="46.66493833065032958984375" lon="6.870416365563869476318359375">
        <ele>717.4000244140625</ele>
        <time>2013-08-15T17:45:44.000Z</time>
        <extensions>
          <ns3:TrackPointExtension>
            <ns3:atemp>17.0</ns3:atemp>
            <ns3:hr>139</ns3:hr>
          </ns3:TrackPointExtension>
        </extensions>
      </trkpt>
      <trkpt lat="46.66496557183563709259033203125" lon="6.87035392038524150848388671875">
        <ele>717.79998779296875</ele>
        <time>2013-08-15T17:45:45.000Z</time>
        <extensions>
          <ns3:TrackPointExtension>
            <ns3:atemp>17.0</ns3:atemp>
            <ns3:hr>139</ns3:hr>
          </ns3:TrackPointExtension>
        </extensions>
      </trkpt>
      <trkpt lat="46.66499197483062744140625" lon="6.87029038555920124053955078125">
        <ele>717.79998779296875</ele>
        <time>2013-08-15T17:45:46.000Z</time>
        <extensions>
          <ns3:TrackPointExtension>
            <ns3:atemp>17.0</ns3:atemp>
            <ns3:hr>139</ns3:hr>
          </ns3:TrackPointExtension>
        </extensions>
      </trkpt>
      <trkpt lat="46.6650156117975711822509765625" lon="6.87022626399993896484375">
        <ele>717.79998779296875</ele>
        <time>2013-08-15T17:45:47.000Z</time>
        <extensions>
          <ns3:TrackPointExtension>
            <ns3:atemp>17.0</ns3:atemp>
            <ns3:hr>139</ns3:hr>
          </ns3:TrackPointExtension>
        </extensions>
      </trkpt>
      <trkpt lat="46.66504226624965667724609375" lon="6.87016968615353107452392578125">
        <ele>717.79998779296875</ele>
        <time>2013-08-15T17:45:48.000Z</time>
        <extensions>
          <ns3:TrackPointExtension>
            <ns3:atemp>17.0</ns3:atemp>
            <ns3:hr>139</ns3:hr>
          </ns3:TrackPointExtension>
        </extensions>
      </trkpt>
      <trkpt lat="46.66507956571877002716064453125" lon="6.87012576498091220855712890625">
        <ele>717.79998779296875</ele>
        <time>2013-08-15T17:45:49.000Z</time>
        <extensions>
          <ns3:TrackPointExtension>
            <ns3:atemp>17.0</ns3:atemp>
            <ns3:hr>138</ns3:hr>
          </ns3:TrackPointExtension>
        </extensions>
      </trkpt>
      <trkpt lat="46.66512466035783290863037109375" lon="6.8701184727251529693603515625">
        <ele>717.5999755859375</ele>
        <time>2013-08-15T17:45:50.000Z</time>
        <extensions>
          <ns3:TrackPointExtension>
            <ns3:atemp>17.0</ns3:atemp>
            <ns3:hr>138</ns3:hr>
          </ns3:TrackPointExtension>
        </extensions>
      </trkpt>
      <trkpt lat="46.66516623459756374359130859375" lon="6.87013171613216400146484375">
        <ele>717.5999755859375</ele>
        <time>2013-08-15T17:45:51.000Z</time>
        <extensions>
          <ns3:TrackPointExtension>
            <ns3:atemp>17.0</ns3:atemp>
            <ns3:hr>137</ns3:hr>
          </ns3:TrackPointExtension>
        </extensions>
      </trkpt>
      <trkpt lat="46.665200851857662200927734375" lon="6.87017999589443206787109375">
        <ele>717.79998779296875</ele>
        <time>2013-08-15T17:45:52.000Z</time>
        <extensions>
          <ns3:TrackPointExtension>
            <ns3:atemp>17.0</ns3:atemp>
            <ns3:hr>137</ns3:hr>
          </ns3:TrackPointExtension>
        </extensions>
      </trkpt>
      <trkpt lat="46.6652268357574939727783203125" lon="6.870235987007617950439453125">
        <ele>718.20001220703125</ele>
        <time>2013-08-15T17:45:53.000Z</time>
        <extensions>
          <ns3:TrackPointExtension>
            <ns3:atemp>17.0</ns3:atemp>
            <ns3:hr>137</ns3:hr>
          </ns3:TrackPointExtension>
        </extensions>
      </trkpt>
      <trkpt lat="46.66525558568537235260009765625" lon="6.8702851049602031707763671875">
        <ele>718.5999755859375</ele>
        <time>2013-08-15T17:45:54.000Z</time>
        <extensions>
          <ns3:TrackPointExtension>
            <ns3:atemp>17.0</ns3:atemp>
            <ns3:hr>137</ns3:hr>
          </ns3:TrackPointExtension>
        </extensions>
      </trkpt>
      <trkpt lat="46.66528676636517047882080078125" lon="6.8703353963792324066162109375">
        <ele>718.79998779296875</ele>
        <time>2013-08-15T17:45:55.000Z</time>
        <extensions>
          <ns3:TrackPointExtension>
            <ns3:atemp>17.0</ns3:atemp>
            <ns3:hr>137</ns3:hr>
          </ns3:TrackPointExtension>
        </extensions>
      </trkpt>
      <trkpt lat="46.66531710885465145111083984375" lon="6.870389878749847412109375">
        <ele>719</ele>
        <time>2013-08-15T17:45:56.000Z</time>
        <extensions>
          <ns3:TrackPointExtension>
            <ns3:atemp>17.0</ns3:atemp>
            <ns3:hr>137</ns3:hr>
          </ns3:TrackPointExtension>
        </extensions>
      </trkpt>
      <trkpt lat="46.66534728370606899261474609375" lon="6.8704467080533504486083984375">
        <ele>719</ele>
        <time>2013-08-15T17:45:57.000Z</time>
        <extensions>
          <ns3:TrackPointExtension>
            <ns3:atemp>17.0</ns3:atemp>
            <ns3:hr>136</ns3:hr>
          </ns3:TrackPointExtension>
        </extensions>
      </trkpt>
      <trkpt lat="46.66537511162459850311279296875" lon="6.8705033697187900543212890625">
        <ele>719.20001220703125</ele>
        <time>2013-08-15T17:45:58.000Z</time>
        <extensions>
          <ns3:TrackPointExtension>
            <ns3:atemp>17.0</ns3:atemp>
            <ns3:hr>137</ns3:hr>
          </ns3:TrackPointExtension>
        </extensions>
      </trkpt>
      <trkpt lat="46.665406040847301483154296875" lon="6.87056355178356170654296875">
        <ele>719.4000244140625</ele>
        <time>2013-08-15T17:45:59.000Z</time>
        <extensions>
          <ns3:TrackPointExtension>
            <ns3:atemp>17.0</ns3:atemp>
            <ns3:hr>137</ns3:hr>
          </ns3:TrackPointExtension>
        </extensions>
      </trkpt>
      <trkpt lat="46.6654377244412899017333984375" lon="6.87062415294349193572998046875">
        <ele>719.5999755859375</ele>
        <time>2013-08-15T17:46:00.000Z</time>
        <extensions>
          <ns3:TrackPointExtension>
            <ns3:atemp>17.0</ns3:atemp>
            <ns3:hr>137</ns3:hr>
          </ns3:TrackPointExtension>
        </extensions>
      </trkpt>
      <trkpt lat="46.6654712520539760589599609375" lon="6.8706835806369781494140625">
        <ele>719.79998779296875</ele>
        <time>2013-08-15T17:46:01.000Z</time>
        <extensions>
          <ns3:TrackPointExtension>
            <ns3:atemp>17.0</ns3:atemp>
            <ns3:hr>136</ns3:hr>
          </ns3:TrackPointExtension>
        </extensions>
      </trkpt>
      <trkpt lat="46.66550687514245510101318359375" lon="6.8707400746643543243408203125">
        <ele>719.5999755859375</ele>
        <time>2013-08-15T17:46:02.000Z</time>
        <extensions>
          <ns3:TrackPointExtension>
            <ns3:atemp>17.0</ns3:atemp>
            <ns3:hr>136</ns3:hr>
          </ns3:TrackPointExtension>
        </extensions>
      </trkpt>
      <trkpt lat="46.66554174385964870452880859375" lon="6.8708007596433162689208984375">
        <ele>719.5999755859375</ele>
        <time>2013-08-15T17:46:03.000Z</time>
        <extensions>
          <ns3:TrackPointExtension>
            <ns3:atemp>17.0</ns3:atemp>
            <ns3:hr>136</ns3:hr>
          </ns3:TrackPointExtension>
        </extensions>
      </trkpt>
      <trkpt lat="46.66557736694812774658203125" lon="6.87086152844130992889404296875">
        <ele>719.5999755859375</ele>
        <time>2013-08-15T17:46:04.000Z</time>
        <extensions>
          <ns3:TrackPointExtension>
            <ns3:atemp>17.0</ns3:atemp>
            <ns3:hr>136</ns3:hr>
          </ns3:TrackPointExtension>
        </extensions>
      </trkpt>
      <trkpt lat="46.66561089456081390380859375" lon="6.8709278292953968048095703125">
        <ele>719.79998779296875</ele>
        <time>2013-08-15T17:46:05.000Z</time>
        <extensions>
          <ns3:TrackPointExtension>
            <ns3:atemp>17.0</ns3:atemp>
            <ns3:hr>136</ns3:hr>
          </ns3:TrackPointExtension>
        </extensions>
      </trkpt>
      <trkpt lat="46.6656459309160709381103515625" lon="6.8709891848266124725341796875">
        <ele>719.79998779296875</ele>
        <time>2013-08-15T17:46:06.000Z</time>
        <extensions>
          <ns3:TrackPointExtension>
            <ns3:atemp>17.0</ns3:atemp>
            <ns3:hr>136</ns3:hr>
          </ns3:TrackPointExtension>
        </extensions>
      </trkpt>
      <trkpt lat="46.665680296719074249267578125" lon="6.8710518814623355865478515625">
        <ele>719.79998779296875</ele>
        <time>2013-08-15T17:46:07.000Z</time>
        <extensions>
          <ns3:TrackPointExtension>
            <ns3:atemp>17.0</ns3:atemp>
            <ns3:hr>136</ns3:hr>
          </ns3:TrackPointExtension>
        </extensions>
      </trkpt>
      <trkpt lat="46.6657176800072193145751953125" lon="6.8711118958890438079833984375">
        <ele>719.79998779296875</ele>
        <time>2013-08-15T17:46:08.000Z</time>
        <extensions>
          <ns3:TrackPointExtension>
            <ns3:atemp>17.0</ns3:atemp>
            <ns3:hr>136</ns3:hr>
          </ns3:TrackPointExtension>
        </extensions>
      </trkpt>
      <trkpt lat="46.6657592542469501495361328125" lon="6.87116914428770542144775390625">
        <ele>720</ele>
        <time>2013-08-15T17:46:09.000Z</time>
        <extensions>
          <ns3:TrackPointExtension>
            <ns3:atemp>17.0</ns3:atemp>
            <ns3:hr>136</ns3:hr>
          </ns3:TrackPointExtension>
        </extensions>
      </trkpt>
      <trkpt lat="46.66580141521990299224853515625" lon="6.8712265603244304656982421875">
        <ele>720.20001220703125</ele>
        <time>2013-08-15T17:46:10.000Z</time>
        <extensions>
          <ns3:TrackPointExtension>
            <ns3:atemp>17.0</ns3:atemp>
            <ns3:hr>136</ns3:hr>
          </ns3:TrackPointExtension>
        </extensions>
      </trkpt>
      <trkpt lat="46.6658489406108856201171875" lon="6.87127693556249141693115234375">
        <ele>720.4000244140625</ele>
        <time>2013-08-15T17:46:11.000Z</time>
        <extensions>
          <ns3:TrackPointExtension>
            <ns3:atemp>17.0</ns3:atemp>
            <ns3:hr>136</ns3:hr>
          </ns3:TrackPointExtension>
        </extensions>
      </trkpt>
      <trkpt lat="46.6659004054963588714599609375" lon="6.87131733633577823638916015625">
        <ele>720.4000244140625</ele>
        <time>2013-08-15T17:46:12.000Z</time>
        <extensions>
          <ns3:TrackPointExtension>
            <ns3:atemp>17.0</ns3:atemp>
            <ns3:hr>136</ns3:hr>
          </ns3:TrackPointExtension>
        </extensions>
      </trkpt>
      <trkpt lat="46.66595346294343471527099609375" lon="6.87135622836649417877197265625">
        <ele>720.4000244140625</ele>
        <time>2013-08-15T17:46:13.000Z</time>
        <extensions>
          <ns3:TrackPointExtension>
            <ns3:atemp>17.0</ns3:atemp>
            <ns3:hr>137</ns3:hr>
          </ns3:TrackPointExtension>
        </extensions>
      </trkpt>
      <trkpt lat="46.66600509546697139739990234375" lon="6.87139998190104961395263671875">
        <ele>720.20001220703125</ele>
        <time>2013-08-15T17:46:14.000Z</time>
        <extensions>
          <ns3:TrackPointExtension>
            <ns3:atemp>17.0</ns3:atemp>
            <ns3:hr>136</ns3:hr>
          </ns3:TrackPointExtension>
        </extensions>
      </trkpt>
      <trkpt lat="46.6660620085895061492919921875" lon="6.87142898328602313995361328125">
        <ele>720</ele>
        <time>2013-08-15T17:46:15.000Z</time>
        <extensions>
          <ns3:TrackPointExtension>
            <ns3:atemp>17.0</ns3:atemp>
            <ns3:hr>136</ns3:hr>
          </ns3:TrackPointExtension>
        </extensions>
      </trkpt>
      <trkpt lat="46.66611523367464542388916015625" lon="6.87147055752575397491455078125">
        <ele>719.79998779296875</ele>
        <time>2013-08-15T17:46:16.000Z</time>
        <extensions>
          <ns3:TrackPointExtension>
            <ns3:atemp>17.0</ns3:atemp>
            <ns3:hr>137</ns3:hr>
          </ns3:TrackPointExtension>
        </extensions>
      </trkpt>
      <trkpt lat="46.666174829006195068359375" lon="6.8715091980993747711181640625">
        <ele>720.20001220703125</ele>
        <time>2013-08-15T17:46:17.000Z</time>
        <extensions>
          <ns3:TrackPointExtension>
            <ns3:atemp>17.0</ns3:atemp>
            <ns3:hr>137</ns3:hr>
          </ns3:TrackPointExtension>
        </extensions>
      </trkpt>
      <trkpt lat="46.666227467358112335205078125" lon="6.8715487606823444366455078125">
        <ele>721</ele>
        <time>2013-08-15T17:46:18.000Z</time>
        <extensions>
          <ns3:TrackPointExtension>
            <ns3:atemp>17.0</ns3:atemp>
            <ns3:hr>137</ns3:hr>
          </ns3:TrackPointExtension>
        </extensions>
      </trkpt>
      <trkpt lat="46.66628119535744190216064453125" lon="6.8715853057801723480224609375">
        <ele>721.5999755859375</ele>
        <time>2013-08-15T17:46:19.000Z</time>
        <extensions>
          <ns3:TrackPointExtension>
            <ns3:atemp>17.0</ns3:atemp>
            <ns3:hr>138</ns3:hr>
          </ns3:TrackPointExtension>
        </extensions>
      </trkpt>
      <trkpt lat="46.666332744061946868896484375" lon="6.87162176705896854400634765625">
        <ele>721.79998779296875</ele>
        <time>2013-08-15T17:46:20.000Z</time>
        <extensions>
          <ns3:TrackPointExtension>
            <ns3:atemp>17.0</ns3:atemp>
            <ns3:hr>138</ns3:hr>
          </ns3:TrackPointExtension>
        </extensions>
      </trkpt>
      <trkpt lat="46.6663828678429126739501953125" lon="6.87166065908968448638916015625">
        <ele>721.79998779296875</ele>
        <time>2013-08-15T17:46:21.000Z</time>
        <extensions>
          <ns3:TrackPointExtension>
            <ns3:atemp>17.0</ns3:atemp>
            <ns3:hr>138</ns3:hr>
          </ns3:TrackPointExtension>
        </extensions>
      </trkpt>
      <trkpt lat="46.66642905212938785552978515625" lon="6.87170743010938167572021484375">
        <ele>722</ele>
        <time>2013-08-15T17:46:22.000Z</time>
        <extensions>
          <ns3:TrackPointExtension>
            <ns3:atemp>17.0</ns3:atemp>
            <ns3:hr>139</ns3:hr>
          </ns3:TrackPointExtension>
        </extensions>
      </trkpt>
      <trkpt lat="46.66647163219749927520751953125" lon="6.871762163937091827392578125">
        <ele>722</ele>
        <time>2013-08-15T17:46:23.000Z</time>
        <extensions>
          <ns3:TrackPointExtension>
            <ns3:atemp>17.0</ns3:atemp>
            <ns3:hr>139</ns3:hr>
          </ns3:TrackPointExtension>
        </extensions>
      </trkpt>
      <trkpt lat="46.66650884784758090972900390625" lon="6.8718206696212291717529296875">
        <ele>722.20001220703125</ele>
        <time>2013-08-15T17:46:24.000Z</time>
        <extensions>
          <ns3:TrackPointExtension>
            <ns3:atemp>17.0</ns3:atemp>
            <ns3:hr>139</ns3:hr>
          </ns3:TrackPointExtension>
        </extensions>
      </trkpt>
      <trkpt lat="46.6665407828986644744873046875" lon="6.871883869171142578125">
        <ele>722.20001220703125</ele>
        <time>2013-08-15T17:46:25.000Z</time>
        <extensions>
          <ns3:TrackPointExtension>
            <ns3:atemp>17.0</ns3:atemp>
            <ns3:hr>140</ns3:hr>
          </ns3:TrackPointExtension>
        </extensions>
      </trkpt>
      <trkpt lat="46.66656911373138427734375" lon="6.87194765545427799224853515625">
        <ele>722.20001220703125</ele>
        <time>2013-08-15T17:46:26.000Z</time>
        <extensions>
          <ns3:TrackPointExtension>
            <ns3:atemp>17.0</ns3:atemp>
            <ns3:hr>140</ns3:hr>
          </ns3:TrackPointExtension>
        </extensions>
      </trkpt>
      <trkpt lat="46.66660373099148273468017578125" lon="6.87200582586228847503662109375">
        <ele>722</ele>
        <time>2013-08-15T17:46:27.000Z</time>
        <extensions>
          <ns3:TrackPointExtension>
            <ns3:atemp>17.0</ns3:atemp>
            <ns3:hr>140</ns3:hr>
          </ns3:TrackPointExtension>
        </extensions>
      </trkpt>
      <trkpt lat="46.6666380129754543304443359375" lon="6.8720597214996814727783203125">
        <ele>721.79998779296875</ele>
        <time>2013-08-15T17:46:28.000Z</time>
        <extensions>
          <ns3:TrackPointExtension>
            <ns3:atemp>17.0</ns3:atemp>
            <ns3:hr>141</ns3:hr>
          </ns3:TrackPointExtension>
        </extensions>
      </trkpt>
      <trkpt lat="46.66667480953037738800048828125" lon="6.87212334014475345611572265625">
        <ele>722</ele>
        <time>2013-08-15T17:46:29.000Z</time>
        <extensions>
          <ns3:TrackPointExtension>
            <ns3:atemp>17.0</ns3:atemp>
            <ns3:hr>141</ns3:hr>
          </ns3:TrackPointExtension>
        </extensions>
      </trkpt>
      <trkpt lat="46.66670649312436580657958984375" lon="6.87218436039984226226806640625">
        <ele>722.4000244140625</ele>
        <time>2013-08-15T17:46:30.000Z</time>
        <extensions>
          <ns3:TrackPointExtension>
            <ns3:atemp>17.0</ns3:atemp>
            <ns3:hr>141</ns3:hr>
          </ns3:TrackPointExtension>
        </extensions>
      </trkpt>
      <trkpt lat="46.66674136184155941009521484375" lon="6.8722454644739627838134765625">
        <ele>723</ele>
        <time>2013-08-15T17:46:31.000Z</time>
        <extensions>
          <ns3:TrackPointExtension>
            <ns3:atemp>17.0</ns3:atemp>
            <ns3:hr>142</ns3:hr>
          </ns3:TrackPointExtension>
        </extensions>
      </trkpt>
      <trkpt lat="46.66678058914840221405029296875" lon="6.87230070121586322784423828125">
        <ele>723.4000244140625</ele>
        <time>2013-08-15T17:46:32.000Z</time>
        <extensions>
          <ns3:TrackPointExtension>
            <ns3:atemp>17.0</ns3:atemp>
            <ns3:hr>142</ns3:hr>
          </ns3:TrackPointExtension>
        </extensions>
      </trkpt>
      <trkpt lat="46.666822917759418487548828125" lon="6.87235199846327304840087890625">
        <ele>723.5999755859375</ele>
        <time>2013-08-15T17:46:33.000Z</time>
        <extensions>
          <ns3:TrackPointExtension>
            <ns3:atemp>17.0</ns3:atemp>
            <ns3:hr>143</ns3:hr>
          </ns3:TrackPointExtension>
        </extensions>
      </trkpt>
      <trkpt lat="46.66686692275106906890869140625" lon="6.8724001944065093994140625">
        <ele>723.5999755859375</ele>
        <time>2013-08-15T17:46:34.000Z</time>
        <extensions>
          <ns3:TrackPointExtension>
            <ns3:atemp>17.0</ns3:atemp>
            <ns3:hr>143</ns3:hr>
          </ns3:TrackPointExtension>
        </extensions>
      </trkpt>
      <trkpt lat="46.66691034100949764251708984375" lon="6.87244570814073085784912109375">
        <ele>723.79998779296875</ele>
        <time>2013-08-15T17:46:35.000Z</time>
        <extensions>
          <ns3:TrackPointExtension>
            <ns3:atemp>17.0</ns3:atemp>
            <ns3:hr>143</ns3:hr>
          </ns3:TrackPointExtension>
        </extensions>
      </trkpt>
      <trkpt lat="46.66695677675306797027587890625" lon="6.87248778529465198516845703125">
        <ele>724</ele>
        <time>2013-08-15T17:46:36.000Z</time>
        <extensions>
          <ns3:TrackPointExtension>
            <ns3:atemp>17.0</ns3:atemp>
            <ns3:hr>143</ns3:hr>
          </ns3:TrackPointExtension>
        </extensions>
      </trkpt>
      <trkpt lat="46.667003631591796875" lon="6.87252692878246307373046875">
        <ele>724</ele>
        <time>2013-08-15T17:46:37.000Z</time>
        <extensions>
          <ns3:TrackPointExtension>
            <ns3:atemp>17.0</ns3:atemp>
            <ns3:hr>143</ns3:hr>
          </ns3:TrackPointExtension>
        </extensions>
      </trkpt>
      <trkpt lat="46.667049564421176910400390625" lon="6.8725676648318767547607421875">
        <ele>724.20001220703125</ele>
        <time>2013-08-15T17:46:38.000Z</time>
        <extensions>
          <ns3:TrackPointExtension>
            <ns3:atemp>17.0</ns3:atemp>
            <ns3:hr>143</ns3:hr>
          </ns3:TrackPointExtension>
        </extensions>
      </trkpt>
      <trkpt lat="46.66709549725055694580078125" lon="6.87260680831968784332275390625">
        <ele>724</ele>
        <time>2013-08-15T17:46:39.000Z</time>
        <extensions>
          <ns3:TrackPointExtension>
            <ns3:atemp>17.0</ns3:atemp>
            <ns3:hr>143</ns3:hr>
          </ns3:TrackPointExtension>
        </extensions>
      </trkpt>
      <trkpt lat="46.66714352555572986602783203125" lon="6.87264989130198955535888671875">
        <ele>724</ele>
        <time>2013-08-15T17:46:40.000Z</time>
        <extensions>
          <ns3:TrackPointExtension>
            <ns3:atemp>17.0</ns3:atemp>
            <ns3:hr>143</ns3:hr>
          </ns3:TrackPointExtension>
        </extensions>
      </trkpt>
      <trkpt lat="46.66719071567058563232421875" lon="6.8726954050362110137939453125">
        <ele>724.20001220703125</ele>
        <time>2013-08-15T17:46:41.000Z</time>
        <extensions>
          <ns3:TrackPointExtension>
            <ns3:atemp>17.0</ns3:atemp>
            <ns3:hr>143</ns3:hr>
          </ns3:TrackPointExtension>
        </extensions>
      </trkpt>
      <trkpt lat="46.66724167764186859130859375" lon="6.8727342970669269561767578125">
        <ele>724.4000244140625</ele>
        <time>2013-08-15T17:46:42.000Z</time>
        <extensions>
          <ns3:TrackPointExtension>
            <ns3:atemp>17.0</ns3:atemp>
            <ns3:hr>143</ns3:hr>
          </ns3:TrackPointExtension>
        </extensions>
      </trkpt>
      <trkpt lat="46.6672928072512149810791015625" lon="6.8727782182395458221435546875">
        <ele>724.4000244140625</ele>
        <time>2013-08-15T17:46:43.000Z</time>
        <extensions>
          <ns3:TrackPointExtension>
            <ns3:atemp>17.0</ns3:atemp>
            <ns3:hr>142</ns3:hr>
          </ns3:TrackPointExtension>
        </extensions>
      </trkpt>
      <trkpt lat="46.6673451103270053863525390625" lon="6.87282339669764041900634765625">
        <ele>724.5999755859375</ele>
        <time>2013-08-15T17:46:44.000Z</time>
        <extensions>
          <ns3:TrackPointExtension>
            <ns3:atemp>17.0</ns3:atemp>
            <ns3:hr>142</ns3:hr>
          </ns3:TrackPointExtension>
        </extensions>
      </trkpt>
      <trkpt lat="46.6673990897834300994873046875" lon="6.872863881289958953857421875">
        <ele>724.5999755859375</ele>
        <time>2013-08-15T17:46:45.000Z</time>
        <extensions>
          <ns3:TrackPointExtension>
            <ns3:atemp>17.0</ns3:atemp>
            <ns3:hr>142</ns3:hr>
          </ns3:TrackPointExtension>
        </extensions>
      </trkpt>
      <trkpt lat="46.66745130904018878936767578125" lon="6.8729009293019771575927734375">
        <ele>724.5999755859375</ele>
        <time>2013-08-15T17:46:46.000Z</time>
        <extensions>
          <ns3:TrackPointExtension>
            <ns3:atemp>17.0</ns3:atemp>
            <ns3:hr>142</ns3:hr>
          </ns3:TrackPointExtension>
        </extensions>
      </trkpt>
      <trkpt lat="46.667500846087932586669921875" lon="6.87294275499880313873291015625">
        <ele>724.5999755859375</ele>
        <time>2013-08-15T17:46:47.000Z</time>
        <extensions>
          <ns3:TrackPointExtension>
            <ns3:atemp>17.0</ns3:atemp>
            <ns3:hr>142</ns3:hr>
          </ns3:TrackPointExtension>
        </extensions>
      </trkpt>
      <trkpt lat="46.6675494611263275146484375" lon="6.872989274561405181884765625">
        <ele>724.5999755859375</ele>
        <time>2013-08-15T17:46:48.000Z</time>
        <extensions>
          <ns3:TrackPointExtension>
            <ns3:atemp>17.0</ns3:atemp>
            <ns3:hr>141</ns3:hr>
          </ns3:TrackPointExtension>
        </extensions>
      </trkpt>
      <trkpt lat="46.66760017164051532745361328125" lon="6.87303026206791400909423828125">
        <ele>724.79998779296875</ele>
        <time>2013-08-15T17:46:49.000Z</time>
        <extensions>
          <ns3:TrackPointExtension>
            <ns3:atemp>17.0</ns3:atemp>
            <ns3:hr>141</ns3:hr>
          </ns3:TrackPointExtension>
        </extensions>
      </trkpt>
      <trkpt lat="46.6676492057740688323974609375" lon="6.8730759434401988983154296875">
        <ele>724.5999755859375</ele>
        <time>2013-08-15T17:46:50.000Z</time>
        <extensions>
          <ns3:TrackPointExtension>
            <ns3:atemp>17.0</ns3:atemp>
            <ns3:hr>141</ns3:hr>
          </ns3:TrackPointExtension>
        </extensions>
      </trkpt>
      <trkpt lat="46.66769874282181262969970703125" lon="6.87312011606991291046142578125">
        <ele>724.79998779296875</ele>
        <time>2013-08-15T17:46:51.000Z</time>
        <extensions>
          <ns3:TrackPointExtension>
            <ns3:atemp>17.0</ns3:atemp>
            <ns3:hr>141</ns3:hr>
          </ns3:TrackPointExtension>
        </extensions>
      </trkpt>
      <trkpt lat="46.6677504591643810272216796875" lon="6.87316395342350006103515625">
        <ele>724.79998779296875</ele>
        <time>2013-08-15T17:46:52.000Z</time>
        <extensions>
          <ns3:TrackPointExtension>
            <ns3:atemp>17.0</ns3:atemp>
            <ns3:hr>141</ns3:hr>
          </ns3:TrackPointExtension>
        </extensions>
      </trkpt>
      <trkpt lat="46.6678014211356639862060546875" lon="6.8732129037380218505859375">
        <ele>724.79998779296875</ele>
        <time>2013-08-15T17:46:53.000Z</time>
        <extensions>
          <ns3:TrackPointExtension>
            <ns3:atemp>17.0</ns3:atemp>
            <ns3:hr>141</ns3:hr>
          </ns3:TrackPointExtension>
        </extensions>
      </trkpt>
      <trkpt lat="46.66785414330661296844482421875" lon="6.8732590042054653167724609375">
        <ele>724.79998779296875</ele>
        <time>2013-08-15T17:46:54.000Z</time>
        <extensions>
          <ns3:TrackPointExtension>
            <ns3:atemp>17.0</ns3:atemp>
            <ns3:hr>141</ns3:hr>
          </ns3:TrackPointExtension>
        </extensions>
      </trkpt>
      <trkpt lat="46.66790829040110111236572265625" lon="6.87330611050128936767578125">
        <ele>724.79998779296875</ele>
        <time>2013-08-15T17:46:55.000Z</time>
        <extensions>
          <ns3:TrackPointExtension>
            <ns3:atemp>17.0</ns3:atemp>
            <ns3:hr>141</ns3:hr>
          </ns3:TrackPointExtension>
        </extensions>
      </trkpt>
      <trkpt lat="46.6679596714675426483154296875" lon="6.8733612634241580963134765625">
        <ele>724.79998779296875</ele>
        <time>2013-08-15T17:46:56.000Z</time>
        <extensions>
          <ns3:TrackPointExtension>
            <ns3:atemp>17.0</ns3:atemp>
            <ns3:hr>141</ns3:hr>
          </ns3:TrackPointExtension>
        </extensions>
      </trkpt>
      <trkpt lat="46.66801054961979389190673828125" lon="6.8734185956418514251708984375">
        <ele>724.5999755859375</ele>
        <time>2013-08-15T17:46:57.000Z</time>
        <extensions>
          <ns3:TrackPointExtension>
            <ns3:atemp>17.0</ns3:atemp>
            <ns3:hr>140</ns3:hr>
          </ns3:TrackPointExtension>
        </extensions>
      </trkpt>
      <trkpt lat="46.66805866174399852752685546875" lon="6.87347969971597194671630859375">
        <ele>724.79998779296875</ele>
        <time>2013-08-15T17:46:58.000Z</time>
        <extensions>
          <ns3:TrackPointExtension>
            <ns3:atemp>17.0</ns3:atemp>
            <ns3:hr>140</ns3:hr>
          </ns3:TrackPointExtension>
        </extensions>
      </trkpt>
      <trkpt lat="46.66810945607721805572509765625" lon="6.87353837303817272186279296875">
        <ele>724.5999755859375</ele>
        <time>2013-08-15T17:46:59.000Z</time>
        <extensions>
          <ns3:TrackPointExtension>
            <ns3:atemp>17.0</ns3:atemp>
            <ns3:hr>140</ns3:hr>
          </ns3:TrackPointExtension>
        </extensions>
      </trkpt>
      <trkpt lat="46.6681611724197864532470703125" lon="6.8735989741981029510498046875">
        <ele>724.79998779296875</ele>
        <time>2013-08-15T17:47:00.000Z</time>
        <extensions>
          <ns3:TrackPointExtension>
            <ns3:atemp>17.0</ns3:atemp>
            <ns3:hr>140</ns3:hr>
          </ns3:TrackPointExtension>
        </extensions>
      </trkpt>
      <trkpt lat="46.6682107932865619659423828125" lon="6.87366284430027008056640625">
        <ele>724.5999755859375</ele>
        <time>2013-08-15T17:47:01.000Z</time>
        <extensions>
          <ns3:TrackPointExtension>
            <ns3:atemp>17.0</ns3:atemp>
            <ns3:hr>139</ns3:hr>
          </ns3:TrackPointExtension>
        </extensions>
      </trkpt>
      <trkpt lat="46.6682614199817180633544921875" lon="6.87372880987823009490966796875">
        <ele>724.5999755859375</ele>
        <time>2013-08-15T17:47:02.000Z</time>
        <extensions>
          <ns3:TrackPointExtension>
            <ns3:atemp>17.0</ns3:atemp>
            <ns3:hr>139</ns3:hr>
          </ns3:TrackPointExtension>
        </extensions>
      </trkpt>
      <trkpt lat="46.6683120466768741607666015625" lon="6.87379620037972927093505859375">
        <ele>724.4000244140625</ele>
        <time>2013-08-15T17:47:03.000Z</time>
        <extensions>
          <ns3:TrackPointExtension>
            <ns3:atemp>17.0</ns3:atemp>
            <ns3:hr>139</ns3:hr>
          </ns3:TrackPointExtension>
        </extensions>
      </trkpt>
      <trkpt lat="46.6683616675436496734619140625" lon="6.873867698013782501220703125">
        <ele>724.4000244140625</ele>
        <time>2013-08-15T17:47:04.000Z</time>
        <extensions>
          <ns3:TrackPointExtension>
            <ns3:atemp>17.0</ns3:atemp>
            <ns3:hr>139</ns3:hr>
          </ns3:TrackPointExtension>
        </extensions>
      </trkpt>
      <trkpt lat="46.6684079356491565704345703125" lon="6.87394724227488040924072265625">
        <ele>724.20001220703125</ele>
        <time>2013-08-15T17:47:05.000Z</time>
        <extensions>
          <ns3:TrackPointExtension>
            <ns3:atemp>17.0</ns3:atemp>
            <ns3:hr>139</ns3:hr>
          </ns3:TrackPointExtension>
        </extensions>
      </trkpt>
      <trkpt lat="46.66845059953629970550537109375" lon="6.87403189949691295623779296875">
        <ele>724</ele>
        <time>2013-08-15T17:47:06.000Z</time>
        <extensions>
          <ns3:TrackPointExtension>
            <ns3:atemp>17.0</ns3:atemp>
            <ns3:hr>139</ns3:hr>
          </ns3:TrackPointExtension>
        </extensions>
      </trkpt>
      <trkpt lat="46.6684910841286182403564453125" lon="6.8741199932992458343505859375">
        <ele>723.79998779296875</ele>
        <time>2013-08-15T17:47:07.000Z</time>
        <extensions>
          <ns3:TrackPointExtension>
            <ns3:atemp>17.0</ns3:atemp>
            <ns3:hr>139</ns3:hr>
          </ns3:TrackPointExtension>
        </extensions>
      </trkpt>
      <trkpt lat="46.668530814349651336669921875" lon="6.87420791946351528167724609375">
        <ele>724</ele>
        <time>2013-08-15T17:47:08.000Z</time>
        <extensions>
          <ns3:TrackPointExtension>
            <ns3:atemp>17.0</ns3:atemp>
            <ns3:hr>139</ns3:hr>
          </ns3:TrackPointExtension>
        </extensions>
      </trkpt>
      <trkpt lat="46.6685708798468112945556640625" lon="6.874296180903911590576171875">
        <ele>723.79998779296875</ele>
        <time>2013-08-15T17:47:09.000Z</time>
        <extensions>
          <ns3:TrackPointExtension>
            <ns3:atemp>17.0</ns3:atemp>
            <ns3:hr>139</ns3:hr>
          </ns3:TrackPointExtension>
        </extensions>
      </trkpt>
      <trkpt lat="46.66861287318170070648193359375" lon="6.8743835203349590301513671875">
        <ele>723.79998779296875</ele>
        <time>2013-08-15T17:47:10.000Z</time>
        <extensions>
          <ns3:TrackPointExtension>
            <ns3:atemp>17.0</ns3:atemp>
            <ns3:hr>139</ns3:hr>
          </ns3:TrackPointExtension>
        </extensions>
      </trkpt>
      <trkpt lat="46.6686577163636684417724609375" lon="6.87446884810924530029296875">
        <ele>723.4000244140625</ele>
        <time>2013-08-15T17:47:11.000Z</time>
        <extensions>
          <ns3:TrackPointExtension>
            <ns3:atemp>17.0</ns3:atemp>
            <ns3:hr>138</ns3:hr>
          </ns3:TrackPointExtension>
        </extensions>
      </trkpt>
      <trkpt lat="46.6687002964317798614501953125" lon="6.874557025730609893798828125">
        <ele>723.20001220703125</ele>
        <time>2013-08-15T17:47:12.000Z</time>
        <extensions>
          <ns3:TrackPointExtension>
            <ns3:atemp>17.0</ns3:atemp>
            <ns3:hr>138</ns3:hr>
          </ns3:TrackPointExtension>
        </extensions>
      </trkpt>
      <trkpt lat="46.668726615607738494873046875" lon="6.874664314091205596923828125">
        <ele>723</ele>
        <time>2013-08-15T17:47:13.000Z</time>
        <extensions>
          <ns3:TrackPointExtension>
            <ns3:atemp>17.0</ns3:atemp>
            <ns3:hr>136</ns3:hr>
          </ns3:TrackPointExtension>
        </extensions>
      </trkpt>
      <trkpt lat="46.66874346323311328887939453125" lon="6.87477755360305309295654296875">
        <ele>722.5999755859375</ele>
        <time>2013-08-15T17:47:14.000Z</time>
        <extensions>
          <ns3:TrackPointExtension>
            <ns3:atemp>17.0</ns3:atemp>
            <ns3:hr>135</ns3:hr>
          </ns3:TrackPointExtension>
        </extensions>
      </trkpt>
      <trkpt lat="46.66874011047184467315673828125" lon="6.874904371798038482666015625">
        <ele>722.20001220703125</ele>
        <time>2013-08-15T17:47:15.000Z</time>
        <extensions>
          <ns3:TrackPointExtension>
            <ns3:atemp>17.0</ns3:atemp>
            <ns3:hr>134</ns3:hr>
          </ns3:TrackPointExtension>
        </extensions>
      </trkpt>
      <trkpt lat="46.66872636415064334869384765625" lon="6.87503219582140445709228515625">
        <ele>721.5999755859375</ele>
        <time>2013-08-15T17:47:16.000Z</time>
        <extensions>
          <ns3:TrackPointExtension>
            <ns3:atemp>17.0</ns3:atemp>
            <ns3:hr>134</ns3:hr>
          </ns3:TrackPointExtension>
        </extensions>
      </trkpt>
      <trkpt lat="46.66869920678436756134033203125" lon="6.87516689300537109375">
        <ele>721</ele>
        <time>2013-08-15T17:47:17.000Z</time>
        <extensions>
          <ns3:TrackPointExtension>
            <ns3:atemp>17.0</ns3:atemp>
            <ns3:hr>134</ns3:hr>
          </ns3:TrackPointExtension>
        </extensions>
      </trkpt>
      <trkpt lat="46.668674312531948089599609375" lon="6.87530628405511379241943359375">
        <ele>720.79998779296875</ele>
        <time>2013-08-15T17:47:18.000Z</time>
        <extensions>
          <ns3:TrackPointExtension>
            <ns3:atemp>17.0</ns3:atemp>
            <ns3:hr>133</ns3:hr>
          </ns3:TrackPointExtension>
        </extensions>
      </trkpt>
      <trkpt lat="46.66865679435431957244873046875" lon="6.87545363791286945343017578125">
        <ele>720.79998779296875</ele>
        <time>2013-08-15T17:47:19.000Z</time>
        <extensions>
          <ns3:TrackPointExtension>
            <ns3:atemp>17.0</ns3:atemp>
            <ns3:hr>133</ns3:hr>
          </ns3:TrackPointExtension>
        </extensions>
      </trkpt>
      <trkpt lat="46.66863642632961273193359375" lon="6.8756076134741306304931640625">
        <ele>720.4000244140625</ele>
        <time>2013-08-15T17:47:20.000Z</time>
        <extensions>
          <ns3:TrackPointExtension>
            <ns3:atemp>17.0</ns3:atemp>
            <ns3:hr>133</ns3:hr>
          </ns3:TrackPointExtension>
        </extensions>
      </trkpt>
      <trkpt lat="46.66861421428620815277099609375" lon="6.875767372548580169677734375">
        <ele>719</ele>
        <time>2013-08-15T17:47:21.000Z</time>
        <extensions>
          <ns3:TrackPointExtension>
            <ns3:atemp>17.0</ns3:atemp>
            <ns3:hr>132</ns3:hr>
          </ns3:TrackPointExtension>
        </extensions>
      </trkpt>
      <trkpt lat="46.6685896553099155426025390625" lon="6.87592973001301288604736328125">
        <ele>718.20001220703125</ele>
        <time>2013-08-15T17:47:22.000Z</time>
        <extensions>
          <ns3:TrackPointExtension>
            <ns3:atemp>17.0</ns3:atemp>
            <ns3:hr>131</ns3:hr>
          </ns3:TrackPointExtension>
        </extensions>
      </trkpt>
      <trkpt lat="46.6685665212571620941162109375" lon="6.8760964460670948028564453125">
        <ele>717.5999755859375</ele>
        <time>2013-08-15T17:47:23.000Z</time>
        <extensions>
          <ns3:TrackPointExtension>
            <ns3:atemp>17.0</ns3:atemp>
            <ns3:hr>129</ns3:hr>
          </ns3:TrackPointExtension>
        </extensions>
      </trkpt>
      <trkpt lat="46.66856467723846435546875" lon="6.876269616186618804931640625">
        <ele>716.79998779296875</ele>
        <time>2013-08-15T17:47:24.000Z</time>
        <extensions>
          <ns3:TrackPointExtension>
            <ns3:atemp>17.0</ns3:atemp>
            <ns3:hr>127</ns3:hr>
          </ns3:TrackPointExtension>
        </extensions>
      </trkpt>
      <trkpt lat="46.66858152486383914947509765625" lon="6.876437924802303314208984375">
        <ele>716</ele>
        <time>2013-08-15T17:47:25.000Z</time>
        <extensions>
          <ns3:TrackPointExtension>
            <ns3:atemp>17.0</ns3:atemp>
            <ns3:hr>126</ns3:hr>
          </ns3:TrackPointExtension>
        </extensions>
      </trkpt>
      <trkpt lat="46.668623350560665130615234375" lon="6.8765996955335140228271484375">
        <ele>715.4000244140625</ele>
        <time>2013-08-15T17:47:26.000Z</time>
        <extensions>
          <ns3:TrackPointExtension>
            <ns3:atemp>17.0</ns3:atemp>
            <ns3:hr>125</ns3:hr>
          </ns3:TrackPointExtension>
        </extensions>
      </trkpt>
      <trkpt lat="46.66869166307151317596435546875" lon="6.8767418526113033294677734375">
        <ele>714.20001220703125</ele>
        <time>2013-08-15T17:47:27.000Z</time>
        <extensions>
          <ns3:TrackPointExtension>
            <ns3:atemp>17.0</ns3:atemp>
            <ns3:hr>124</ns3:hr>
          </ns3:TrackPointExtension>
        </extensions>
      </trkpt>
      <trkpt lat="46.66875846683979034423828125" lon="6.8768618814647197723388671875">
        <ele>713.5999755859375</ele>
        <time>2013-08-15T17:47:28.000Z</time>
        <extensions>
          <ns3:TrackPointExtension>
            <ns3:atemp>17.0</ns3:atemp>
            <ns3:hr>124</ns3:hr>
          </ns3:TrackPointExtension>
        </extensions>
      </trkpt>
      <trkpt lat="46.66882761754095554351806640625" lon="6.876970343291759490966796875">
        <ele>713</ele>
        <time>2013-08-15T17:47:29.000Z</time>
        <extensions>
          <ns3:TrackPointExtension>
            <ns3:atemp>17.0</ns3:atemp>
            <ns3:hr>123</ns3:hr>
          </ns3:TrackPointExtension>
        </extensions>
      </trkpt>
      <trkpt lat="46.6689061559736728668212890625" lon="6.87707436271011829376220703125">
        <ele>712.5999755859375</ele>
        <time>2013-08-15T17:47:30.000Z</time>
        <extensions>
          <ns3:TrackPointExtension>
            <ns3:atemp>17.0</ns3:atemp>
            <ns3:hr>124</ns3:hr>
          </ns3:TrackPointExtension>
        </extensions>
      </trkpt>
      <trkpt lat="46.66898419149219989776611328125" lon="6.877180226147174835205078125">
        <ele>712</ele>
        <time>2013-08-15T17:47:31.000Z</time>
        <extensions>
          <ns3:TrackPointExtension>
            <ns3:atemp>17.0</ns3:atemp>
            <ns3:hr>123</ns3:hr>
          </ns3:TrackPointExtension>
        </extensions>
      </trkpt>
      <trkpt lat="46.66905577294528484344482421875" lon="6.877293549478054046630859375">
        <ele>711.20001220703125</ele>
        <time>2013-08-15T17:47:32.000Z</time>
        <extensions>
          <ns3:TrackPointExtension>
            <ns3:atemp>17.0</ns3:atemp>
            <ns3:hr>123</ns3:hr>
          </ns3:TrackPointExtension>
        </extensions>
      </trkpt>
      <trkpt lat="46.6691364906728267669677734375" lon="6.8774026818573474884033203125">
        <ele>710.5999755859375</ele>
        <time>2013-08-15T17:47:33.000Z</time>
        <extensions>
          <ns3:TrackPointExtension>
            <ns3:atemp>17.0</ns3:atemp>
            <ns3:hr>123</ns3:hr>
          </ns3:TrackPointExtension>
        </extensions>
      </trkpt>
      <trkpt lat="46.66922986507415771484375" lon="6.8775039352476596832275390625">
        <ele>709.5999755859375</ele>
        <time>2013-08-15T17:47:34.000Z</time>
        <extensions>
          <ns3:TrackPointExtension>
            <ns3:atemp>17.0</ns3:atemp>
            <ns3:hr>122</ns3:hr>
          </ns3:TrackPointExtension>
        </extensions>
      </trkpt>
      <trkpt lat="46.6693155281245708465576171875" lon="6.877611391246318817138671875">
        <ele>709.20001220703125</ele>
        <time>2013-08-15T17:47:35.000Z</time>
        <extensions>
          <ns3:TrackPointExtension>
            <ns3:atemp>17.0</ns3:atemp>
            <ns3:hr>121</ns3:hr>
          </ns3:TrackPointExtension>
        </extensions>
      </trkpt>
      <trkpt lat="46.6693990118801593780517578125" lon="6.87771960161626338958740234375">
        <ele>709</ele>
        <time>2013-08-15T17:47:36.000Z</time>
        <extensions>
          <ns3:TrackPointExtension>
            <ns3:atemp>17.0</ns3:atemp>
            <ns3:hr>121</ns3:hr>
          </ns3:TrackPointExtension>
        </extensions>
      </trkpt>
      <trkpt lat="46.66947654448449611663818359375" lon="6.87783510424196720123291015625">
        <ele>708.5999755859375</ele>
        <time>2013-08-15T17:47:37.000Z</time>
        <extensions>
          <ns3:TrackPointExtension>
            <ns3:atemp>17.0</ns3:atemp>
            <ns3:hr>120</ns3:hr>
          </ns3:TrackPointExtension>
        </extensions>
      </trkpt>
      <trkpt lat="46.66955105960369110107421875" lon="6.877954714000225067138671875">
        <ele>708.20001220703125</ele>
        <time>2013-08-15T17:47:38.000Z</time>
        <extensions>
          <ns3:TrackPointExtension>
            <ns3:atemp>17.0</ns3:atemp>
            <ns3:hr>119</ns3:hr>
          </ns3:TrackPointExtension>
        </extensions>
      </trkpt>
      <trkpt lat="46.6696212999522686004638671875" lon="6.87807566486299037933349609375">
        <ele>707.5999755859375</ele>
        <time>2013-08-15T17:47:39.000Z</time>
        <extensions>
          <ns3:TrackPointExtension>
            <ns3:atemp>17.0</ns3:atemp>
            <ns3:hr>119</ns3:hr>
          </ns3:TrackPointExtension>
        </extensions>
      </trkpt>
      <trkpt lat="46.66969011537730693817138671875" lon="6.87819804064929485321044921875">
        <ele>707</ele>
        <time>2013-08-15T17:47:40.000Z</time>
        <extensions>
          <ns3:TrackPointExtension>
            <ns3:atemp>17.0</ns3:atemp>
            <ns3:hr>119</ns3:hr>
          </ns3:TrackPointExtension>
        </extensions>
      </trkpt>
      <trkpt lat="46.66975499130785465240478515625" lon="6.8783203326165676116943359375">
        <ele>706.5999755859375</ele>
        <time>2013-08-15T17:47:41.000Z</time>
        <extensions>
          <ns3:TrackPointExtension>
            <ns3:atemp>17.0</ns3:atemp>
            <ns3:hr>119</ns3:hr>
          </ns3:TrackPointExtension>
        </extensions>
      </trkpt>
      <trkpt lat="46.6698160953819751739501953125" lon="6.87844413332641124725341796875">
        <ele>706.20001220703125</ele>
        <time>2013-08-15T17:47:42.000Z</time>
        <extensions>
          <ns3:TrackPointExtension>
            <ns3:atemp>17.0</ns3:atemp>
            <ns3:hr>119</ns3:hr>
          </ns3:TrackPointExtension>
        </extensions>
      </trkpt>
      <trkpt lat="46.66987585835158824920654296875" lon="6.87856768257915973663330078125">
        <ele>706.20001220703125</ele>
        <time>2013-08-15T17:47:43.000Z</time>
        <extensions>
          <ns3:TrackPointExtension>
            <ns3:atemp>17.0</ns3:atemp>
            <ns3:hr>119</ns3:hr>
          </ns3:TrackPointExtension>
        </extensions>
      </trkpt>
      <trkpt lat="46.66993419639766216278076171875" lon="6.87868922017514705657958984375">
        <ele>706</ele>
        <time>2013-08-15T17:47:44.000Z</time>
        <extensions>
          <ns3:TrackPointExtension>
            <ns3:atemp>17.0</ns3:atemp>
            <ns3:hr>119</ns3:hr>
          </ns3:TrackPointExtension>
        </extensions>
      </trkpt>
      <trkpt lat="46.6699931211769580841064453125" lon="6.87880790792405605316162109375">
        <ele>705</ele>
        <time>2013-08-15T17:47:45.000Z</time>
        <extensions>
          <ns3:TrackPointExtension>
            <ns3:atemp>17.0</ns3:atemp>
            <ns3:hr>119</ns3:hr>
          </ns3:TrackPointExtension>
        </extensions>
      </trkpt>
      <trkpt lat="46.6700571589171886444091796875" lon="6.878919303417205810546875">
        <ele>704.5999755859375</ele>
        <time>2013-08-15T17:47:46.000Z</time>
        <extensions>
          <ns3:TrackPointExtension>
            <ns3:atemp>17.0</ns3:atemp>
            <ns3:hr>120</ns3:hr>
          </ns3:TrackPointExtension>
        </extensions>
      </trkpt>
      <trkpt lat="46.67012530378997325897216796875" lon="6.8790234066545963287353515625">
        <ele>704.20001220703125</ele>
        <time>2013-08-15T17:47:47.000Z</time>
        <extensions>
          <ns3:TrackPointExtension>
            <ns3:atemp>17.0</ns3:atemp>
            <ns3:hr>120</ns3:hr>
          </ns3:TrackPointExtension>
        </extensions>
      </trkpt>
      <trkpt lat="46.67019856162369251251220703125" lon="6.87912189401686191558837890625">
        <ele>704.20001220703125</ele>
        <time>2013-08-15T17:47:48.000Z</time>
        <extensions>
          <ns3:TrackPointExtension>
            <ns3:atemp>17.0</ns3:atemp>
            <ns3:hr>120</ns3:hr>
          </ns3:TrackPointExtension>
        </extensions>
      </trkpt>
      <trkpt lat="46.67027198709547519683837890625" lon="6.87921233475208282470703125">
        <ele>704</ele>
        <time>2013-08-15T17:47:49.000Z</time>
        <extensions>
          <ns3:TrackPointExtension>
            <ns3:atemp>17.0</ns3:atemp>
            <ns3:hr>121</ns3:hr>
          </ns3:TrackPointExtension>
        </extensions>
      </trkpt>
      <trkpt lat="46.67034910060465335845947265625" lon="6.87929020263254642486572265625">
        <ele>703.79998779296875</ele>
        <time>2013-08-15T17:47:50.000Z</time>
        <extensions>
          <ns3:TrackPointExtension>
            <ns3:atemp>17.0</ns3:atemp>
            <ns3:hr>121</ns3:hr>
          </ns3:TrackPointExtension>
        </extensions>
      </trkpt>
      <trkpt lat="46.67042487300932407379150390625" lon="6.8793657235801219940185546875">
        <ele>703.5999755859375</ele>
        <time>2013-08-15T17:47:51.000Z</time>
        <extensions>
          <ns3:TrackPointExtension>
            <ns3:atemp>17.0</ns3:atemp>
            <ns3:hr>122</ns3:hr>
          </ns3:TrackPointExtension>
        </extensions>
      </trkpt>
      <trkpt lat="46.67049796320497989654541015625" lon="6.87944074161350727081298828125">
        <ele>703.20001220703125</ele>
        <time>2013-08-15T17:47:52.000Z</time>
        <extensions>
          <ns3:TrackPointExtension>
            <ns3:atemp>17.0</ns3:atemp>
            <ns3:hr>122</ns3:hr>
          </ns3:TrackPointExtension>
        </extensions>
      </trkpt>
      <trkpt lat="46.67056837119162082672119140625" lon="6.87951182015240192413330078125">
        <ele>703</ele>
        <time>2013-08-15T17:47:53.000Z</time>
        <extensions>
          <ns3:TrackPointExtension>
            <ns3:atemp>17.0</ns3:atemp>
            <ns3:hr>121</ns3:hr>
          </ns3:TrackPointExtension>
        </extensions>
      </trkpt>
      <trkpt lat="46.6706385277211666107177734375" lon="6.87957921065390110015869140625">
        <ele>702.4000244140625</ele>
        <time>2013-08-15T17:47:54.000Z</time>
        <extensions>
          <ns3:TrackPointExtension>
            <ns3:atemp>17.0</ns3:atemp>
            <ns3:hr>121</ns3:hr>
          </ns3:TrackPointExtension>
        </extensions>
      </trkpt>
      <trkpt lat="46.67070734314620494842529296875" lon="6.87965355813503265380859375">
        <ele>702</ele>
        <time>2013-08-15T17:47:55.000Z</time>
        <extensions>
          <ns3:TrackPointExtension>
            <ns3:atemp>17.0</ns3:atemp>
            <ns3:hr>120</ns3:hr>
          </ns3:TrackPointExtension>
        </extensions>
      </trkpt>
      <trkpt lat="46.6707627475261688232421875" lon="6.8797553144395351409912109375">
        <ele>701.5999755859375</ele>
        <time>2013-08-15T17:47:56.000Z</time>
        <extensions>
          <ns3:TrackPointExtension>
            <ns3:atemp>17.0</ns3:atemp>
            <ns3:hr>120</ns3:hr>
          </ns3:TrackPointExtension>
        </extensions>
      </trkpt>
      <trkpt lat="46.67078747414052486419677734375" lon="6.87988967634737491607666015625">
        <ele>701.20001220703125</ele>
        <time>2013-08-15T17:47:57.000Z</time>
        <extensions>
          <ns3:TrackPointExtension>
            <ns3:atemp>17.0</ns3:atemp>
            <ns3:hr>120</ns3:hr>
          </ns3:TrackPointExtension>
        </extensions>
      </trkpt>
      <trkpt lat="46.67078462429344654083251953125" lon="6.88002697192132472991943359375">
        <ele>700.5999755859375</ele>
        <time>2013-08-15T17:47:58.000Z</time>
        <extensions>
          <ns3:TrackPointExtension>
            <ns3:atemp>17.0</ns3:atemp>
            <ns3:hr>120</ns3:hr>
          </ns3:TrackPointExtension>
        </extensions>
      </trkpt>
      <trkpt lat="46.67075495235621929168701171875" lon="6.88016208820044994354248046875">
        <ele>700</ele>
        <time>2013-08-15T17:47:59.000Z</time>
        <extensions>
          <ns3:TrackPointExtension>
            <ns3:atemp>17.0</ns3:atemp>
            <ns3:hr>121</ns3:hr>
          </ns3:TrackPointExtension>
        </extensions>
      </trkpt>
      <trkpt lat="46.67071522213518619537353515625" lon="6.88029150478541851043701171875">
        <ele>699.79998779296875</ele>
        <time>2013-08-15T17:48:00.000Z</time>
        <extensions>
          <ns3:TrackPointExtension>
            <ns3:atemp>17.0</ns3:atemp>
            <ns3:hr>122</ns3:hr>
          </ns3:TrackPointExtension>
        </extensions>
      </trkpt>
      <trkpt lat="46.67067230679094791412353515625" lon="6.88042209483683109283447265625">
        <ele>699.4000244140625</ele>
        <time>2013-08-15T17:48:01.000Z</time>
        <extensions>
          <ns3:TrackPointExtension>
            <ns3:atemp>17.0</ns3:atemp>
            <ns3:hr>122</ns3:hr>
          </ns3:TrackPointExtension>
        </extensions>
      </trkpt>
      <trkpt lat="46.67064632289111614227294921875" lon="6.8805532716214656829833984375">
        <ele>699.20001220703125</ele>
        <time>2013-08-15T17:48:02.000Z</time>
        <extensions>
          <ns3:TrackPointExtension>
            <ns3:atemp>17.0</ns3:atemp>
            <ns3:hr>123</ns3:hr>
          </ns3:TrackPointExtension>
        </extensions>
      </trkpt>
      <trkpt lat="46.67061899788677692413330078125" lon="6.8806826882064342498779296875">
        <ele>699</ele>
        <time>2013-08-15T17:48:03.000Z</time>
        <extensions>
          <ns3:TrackPointExtension>
            <ns3:atemp>17.0</ns3:atemp>
            <ns3:hr>123</ns3:hr>
          </ns3:TrackPointExtension>
        </extensions>
      </trkpt>
      <trkpt lat="46.67060022242367267608642578125" lon="6.88081235624849796295166015625">
        <ele>699</ele>
        <time>2013-08-15T17:48:04.000Z</time>
        <extensions>
          <ns3:TrackPointExtension>
            <ns3:atemp>17.0</ns3:atemp>
            <ns3:hr>122</ns3:hr>
          </ns3:TrackPointExtension>
        </extensions>
      </trkpt>
      <trkpt lat="46.6705909185111522674560546875" lon="6.880941689014434814453125">
        <ele>698.79998779296875</ele>
        <time>2013-08-15T17:48:05.000Z</time>
        <extensions>
          <ns3:TrackPointExtension>
            <ns3:atemp>17.0</ns3:atemp>
            <ns3:hr>122</ns3:hr>
          </ns3:TrackPointExtension>
        </extensions>
      </trkpt>
      <trkpt lat="46.67059401981532573699951171875" lon="6.8810692615807056427001953125">
        <ele>698.5999755859375</ele>
        <time>2013-08-15T17:48:06.000Z</time>
        <extensions>
          <ns3:TrackPointExtension>
            <ns3:atemp>17.0</ns3:atemp>
            <ns3:hr>122</ns3:hr>
          </ns3:TrackPointExtension>
        </extensions>
      </trkpt>
      <trkpt lat="46.6706113703548908233642578125" lon="6.881188787519931793212890625">
        <ele>698.4000244140625</ele>
        <time>2013-08-15T17:48:07.000Z</time>
        <extensions>
          <ns3:TrackPointExtension>
            <ns3:atemp>17.0</ns3:atemp>
            <ns3:hr>121</ns3:hr>
          </ns3:TrackPointExtension>
        </extensions>
      </trkpt>
      <trkpt lat="46.67064850218594074249267578125" lon="6.8812855146825313568115234375">
        <ele>698</ele>
        <time>2013-08-15T17:48:08.000Z</time>
        <extensions>
          <ns3:TrackPointExtension>
            <ns3:atemp>17.0</ns3:atemp>
            <ns3:hr>120</ns3:hr>
          </ns3:TrackPointExtension>
        </extensions>
      </trkpt>
      <trkpt lat="46.67070063762366771697998046875" lon="6.881357096135616302490234375">
        <ele>697.4000244140625</ele>
        <time>2013-08-15T17:48:09.000Z</time>
        <extensions>
          <ns3:TrackPointExtension>
            <ns3:atemp>17.0</ns3:atemp>
            <ns3:hr>120</ns3:hr>
          </ns3:TrackPointExtension>
        </extensions>
      </trkpt>
      <trkpt lat="46.670769788324832916259765625" lon="6.88140126876533031463623046875">
        <ele>697.4000244140625</ele>
        <time>2013-08-15T17:48:10.000Z</time>
        <extensions>
          <ns3:TrackPointExtension>
            <ns3:atemp>17.0</ns3:atemp>
            <ns3:hr>119</ns3:hr>
          </ns3:TrackPointExtension>
        </extensions>
      </trkpt>
      <trkpt lat="46.67084665037691593170166015625" lon="6.8814199604094028472900390625">
        <ele>697.4000244140625</ele>
        <time>2013-08-15T17:48:11.000Z</time>
        <extensions>
          <ns3:TrackPointExtension>
            <ns3:atemp>17.0</ns3:atemp>
            <ns3:hr>119</ns3:hr>
          </ns3:TrackPointExtension>
        </extensions>
      </trkpt>
      <trkpt lat="46.67092435061931610107421875" lon="6.8814105726778507232666015625">
        <ele>697</ele>
        <time>2013-08-15T17:48:12.000Z</time>
        <extensions>
          <ns3:TrackPointExtension>
            <ns3:atemp>17.0</ns3:atemp>
            <ns3:hr>120</ns3:hr>
          </ns3:TrackPointExtension>
        </extensions>
      </trkpt>
      <trkpt lat="46.67100481688976287841796875" lon="6.8814001791179180145263671875">
        <ele>696.5999755859375</ele>
        <time>2013-08-15T17:48:13.000Z</time>
        <extensions>
          <ns3:TrackPointExtension>
            <ns3:atemp>17.0</ns3:atemp>
            <ns3:hr>120</ns3:hr>
          </ns3:TrackPointExtension>
        </extensions>
      </trkpt>
      <trkpt lat="46.6710841096937656402587890625" lon="6.88140663318336009979248046875">
        <ele>696.20001220703125</ele>
        <time>2013-08-15T17:48:14.000Z</time>
        <extensions>
          <ns3:TrackPointExtension>
            <ns3:atemp>17.0</ns3:atemp>
            <ns3:hr>121</ns3:hr>
          </ns3:TrackPointExtension>
        </extensions>
      </trkpt>
      <trkpt lat="46.67116449214518070220947265625" lon="6.881432197988033294677734375">
        <ele>696.4000244140625</ele>
        <time>2013-08-15T17:48:15.000Z</time>
        <extensions>
          <ns3:TrackPointExtension>
            <ns3:atemp>17.0</ns3:atemp>
            <ns3:hr>122</ns3:hr>
          </ns3:TrackPointExtension>
        </extensions>
      </trkpt>
      <trkpt lat="46.67124914936721324920654296875" lon="6.88147368840873241424560546875">
        <ele>696.4000244140625</ele>
        <time>2013-08-15T17:48:16.000Z</time>
        <extensions>
          <ns3:TrackPointExtension>
            <ns3:atemp>17.0</ns3:atemp>
            <ns3:hr>122</ns3:hr>
          </ns3:TrackPointExtension>
        </extensions>
      </trkpt>
      <trkpt lat="46.671331040561199188232421875" lon="6.8815331161022186279296875">
        <ele>696.5999755859375</ele>
        <time>2013-08-15T17:48:17.000Z</time>
        <extensions>
          <ns3:TrackPointExtension>
            <ns3:atemp>17.0</ns3:atemp>
            <ns3:hr>122</ns3:hr>
          </ns3:TrackPointExtension>
        </extensions>
      </trkpt>
      <trkpt lat="46.67139373719692230224609375" lon="6.881613247096538543701171875">
        <ele>696.4000244140625</ele>
        <time>2013-08-15T17:48:18.000Z</time>
        <extensions>
          <ns3:TrackPointExtension>
            <ns3:atemp>17.0</ns3:atemp>
            <ns3:hr>121</ns3:hr>
          </ns3:TrackPointExtension>
        </extensions>
      </trkpt>
      <trkpt lat="46.67145140469074249267578125" lon="6.88170201145112514495849609375">
        <ele>696.20001220703125</ele>
        <time>2013-08-15T17:48:19.000Z</time>
        <extensions>
          <ns3:TrackPointExtension>
            <ns3:atemp>17.0</ns3:atemp>
            <ns3:hr>121</ns3:hr>
          </ns3:TrackPointExtension>
        </extensions>
      </trkpt>
      <trkpt lat="46.671510078012943267822265625" lon="6.88178398646414279937744140625">
        <ele>696.20001220703125</ele>
        <time>2013-08-15T17:48:20.000Z</time>
        <extensions>
          <ns3:TrackPointExtension>
            <ns3:atemp>17.0</ns3:atemp>
            <ns3:hr>121</ns3:hr>
          </ns3:TrackPointExtension>
        </extensions>
      </trkpt>
      <trkpt lat="46.67157101444900035858154296875" lon="6.88185707665979862213134765625">
        <ele>696</ele>
        <time>2013-08-15T17:48:21.000Z</time>
        <extensions>
          <ns3:TrackPointExtension>
            <ns3:atemp>17.0</ns3:atemp>
            <ns3:hr>122</ns3:hr>
          </ns3:TrackPointExtension>
        </extensions>
      </trkpt>
      <trkpt lat="46.67163605801761150360107421875" lon="6.881925724446773529052734375">
        <ele>696.20001220703125</ele>
        <time>2013-08-15T17:48:22.000Z</time>
        <extensions>
          <ns3:TrackPointExtension>
            <ns3:atemp>17.0</ns3:atemp>
            <ns3:hr>121</ns3:hr>
          </ns3:TrackPointExtension>
        </extensions>
      </trkpt>
      <trkpt lat="46.67170244269073009490966796875" lon="6.88199085183441638946533203125">
        <ele>696</ele>
        <time>2013-08-15T17:48:23.000Z</time>
        <extensions>
          <ns3:TrackPointExtension>
            <ns3:atemp>17.0</ns3:atemp>
            <ns3:hr>122</ns3:hr>
          </ns3:TrackPointExtension>
        </extensions>
      </trkpt>
      <trkpt lat="46.6717697493731975555419921875" lon="6.88205505721271038055419921875">
        <ele>695.5999755859375</ele>
        <time>2013-08-15T17:48:24.000Z</time>
        <extensions>
          <ns3:TrackPointExtension>
            <ns3:atemp>17.0</ns3:atemp>
            <ns3:hr>122</ns3:hr>
          </ns3:TrackPointExtension>
        </extensions>
      </trkpt>
      <trkpt lat="46.67183554731309413909912109375" lon="6.882123537361621856689453125">
        <ele>695.20001220703125</ele>
        <time>2013-08-15T17:48:25.000Z</time>
        <extensions>
          <ns3:TrackPointExtension>
            <ns3:atemp>17.0</ns3:atemp>
            <ns3:hr>122</ns3:hr>
          </ns3:TrackPointExtension>
        </extensions>
      </trkpt>
      <trkpt lat="46.6718988306820392608642578125" lon="6.88220056705176830291748046875">
        <ele>694.79998779296875</ele>
        <time>2013-08-15T17:48:26.000Z</time>
        <extensions>
          <ns3:TrackPointExtension>
            <ns3:atemp>17.0</ns3:atemp>
            <ns3:hr>122</ns3:hr>
          </ns3:TrackPointExtension>
        </extensions>
      </trkpt>
      <trkpt lat="46.6719585098326206207275390625" lon="6.8822849728167057037353515625">
        <ele>694.79998779296875</ele>
        <time>2013-08-15T17:48:27.000Z</time>
        <extensions>
          <ns3:TrackPointExtension>
            <ns3:atemp>17.0</ns3:atemp>
            <ns3:hr>122</ns3:hr>
          </ns3:TrackPointExtension>
        </extensions>
      </trkpt>
      <trkpt lat="46.67201458476483821868896484375" lon="6.88237675465643405914306640625">
        <ele>694.5999755859375</ele>
        <time>2013-08-15T17:48:28.000Z</time>
        <extensions>
          <ns3:TrackPointExtension>
            <ns3:atemp>17.0</ns3:atemp>
            <ns3:hr>122</ns3:hr>
          </ns3:TrackPointExtension>
        </extensions>
      </trkpt>
      <trkpt lat="46.67207342572510242462158203125" lon="6.88246258534491062164306640625">
        <ele>694.4000244140625</ele>
        <time>2013-08-15T17:48:29.000Z</time>
        <extensions>
          <ns3:TrackPointExtension>
            <ns3:atemp>17.0</ns3:atemp>
            <ns3:hr>122</ns3:hr>
          </ns3:TrackPointExtension>
        </extensions>
      </trkpt>
      <trkpt lat="46.67214048095047473907470703125" lon="6.88253466971218585968017578125">
        <ele>694.20001220703125</ele>
        <time>2013-08-15T17:48:30.000Z</time>
        <extensions>
          <ns3:TrackPointExtension>
            <ns3:atemp>17.0</ns3:atemp>
            <ns3:hr>122</ns3:hr>
          </ns3:TrackPointExtension>
        </extensions>
      </trkpt>
      <trkpt lat="46.67221290059387683868408203125" lon="6.8825964443385601043701171875">
        <ele>694.20001220703125</ele>
        <time>2013-08-15T17:48:31.000Z</time>
        <extensions>
          <ns3:TrackPointExtension>
            <ns3:atemp>17.0</ns3:atemp>
            <ns3:hr>121</ns3:hr>
          </ns3:TrackPointExtension>
        </extensions>
      </trkpt>
      <trkpt lat="46.67228716425597667694091796875" lon="6.88265092670917510986328125">
        <ele>694.20001220703125</ele>
        <time>2013-08-15T17:48:32.000Z</time>
        <extensions>
          <ns3:TrackPointExtension>
            <ns3:atemp>17.0</ns3:atemp>
            <ns3:hr>121</ns3:hr>
          </ns3:TrackPointExtension>
        </extensions>
      </trkpt>
      <trkpt lat="46.67236561886966228485107421875" lon="6.8826873041689395904541015625">
        <ele>693.79998779296875</ele>
        <time>2013-08-15T17:48:33.000Z</time>
        <extensions>
          <ns3:TrackPointExtension>
            <ns3:atemp>17.0</ns3:atemp>
            <ns3:hr>122</ns3:hr>
          </ns3:TrackPointExtension>
        </extensions>
      </trkpt>
      <trkpt lat="46.672445498406887054443359375" lon="6.88271705992519855499267578125">
        <ele>693.5999755859375</ele>
        <time>2013-08-15T17:48:34.000Z</time>
        <extensions>
          <ns3:TrackPointExtension>
            <ns3:atemp>17.0</ns3:atemp>
            <ns3:hr>122</ns3:hr>
          </ns3:TrackPointExtension>
        </extensions>
      </trkpt>
      <trkpt lat="46.67252621613442897796630859375" lon="6.8827412836253643035888671875">
        <ele>693.79998779296875</ele>
        <time>2013-08-15T17:48:35.000Z</time>
        <extensions>
          <ns3:TrackPointExtension>
            <ns3:atemp>17.0</ns3:atemp>
            <ns3:hr>122</ns3:hr>
          </ns3:TrackPointExtension>
        </extensions>
      </trkpt>
      <trkpt lat="46.67260936461389064788818359375" lon="6.88277338631451129913330078125">
        <ele>693.5999755859375</ele>
        <time>2013-08-15T17:48:36.000Z</time>
        <extensions>
          <ns3:TrackPointExtension>
            <ns3:atemp>17.0</ns3:atemp>
            <ns3:hr>122</ns3:hr>
          </ns3:TrackPointExtension>
        </extensions>
      </trkpt>
      <trkpt lat="46.672692261636257171630859375" lon="6.88281093724071979522705078125">
        <ele>693.20001220703125</ele>
        <time>2013-08-15T17:48:37.000Z</time>
        <extensions>
          <ns3:TrackPointExtension>
            <ns3:atemp>17.0</ns3:atemp>
            <ns3:hr>122</ns3:hr>
          </ns3:TrackPointExtension>
        </extensions>
      </trkpt>
      <trkpt lat="46.67277507483959197998046875" lon="6.8828562833368778228759765625">
        <ele>693</ele>
        <time>2013-08-15T17:48:38.000Z</time>
        <extensions>
          <ns3:TrackPointExtension>
            <ns3:atemp>17.0</ns3:atemp>
            <ns3:hr>123</ns3:hr>
          </ns3:TrackPointExtension>
        </extensions>
      </trkpt>
      <trkpt lat="46.6728570498526096343994140625" lon="6.882912777364253997802734375">
        <ele>692.79998779296875</ele>
        <time>2013-08-15T17:48:39.000Z</time>
        <extensions>
          <ns3:TrackPointExtension>
            <ns3:atemp>17.0</ns3:atemp>
            <ns3:hr>123</ns3:hr>
          </ns3:TrackPointExtension>
        </extensions>
      </trkpt>
      <trkpt lat="46.67293676175177097320556640625" lon="6.88297337852418422698974609375">
        <ele>692.5999755859375</ele>
        <time>2013-08-15T17:48:40.000Z</time>
        <extensions>
          <ns3:TrackPointExtension>
            <ns3:atemp>17.0</ns3:atemp>
            <ns3:hr>124</ns3:hr>
          </ns3:TrackPointExtension>
        </extensions>
      </trkpt>
      <trkpt lat="46.67301001958549022674560546875" lon="6.88304646871984004974365234375">
        <ele>692.5999755859375</ele>
        <time>2013-08-15T17:48:41.000Z</time>
        <extensions>
          <ns3:TrackPointExtension>
            <ns3:atemp>17.0</ns3:atemp>
            <ns3:hr>124</ns3:hr>
          </ns3:TrackPointExtension>
        </extensions>
      </trkpt>
      <trkpt lat="46.67307908646762371063232421875" lon="6.88312861137092113494873046875">
        <ele>692.4000244140625</ele>
        <time>2013-08-15T17:48:42.000Z</time>
        <extensions>
          <ns3:TrackPointExtension>
            <ns3:atemp>17.0</ns3:atemp>
            <ns3:hr>125</ns3:hr>
          </ns3:TrackPointExtension>
        </extensions>
      </trkpt>
      <trkpt lat="46.67314589023590087890625" lon="6.88321326859295368194580078125">
        <ele>692.4000244140625</ele>
        <time>2013-08-15T17:48:43.000Z</time>
        <extensions>
          <ns3:TrackPointExtension>
            <ns3:atemp>17.0</ns3:atemp>
            <ns3:hr>126</ns3:hr>
          </ns3:TrackPointExtension>
        </extensions>
      </trkpt>
      <trkpt lat="46.67321068234741687774658203125" lon="6.88330312259495258331298828125">
        <ele>692.20001220703125</ele>
        <time>2013-08-15T17:48:44.000Z</time>
        <extensions>
          <ns3:TrackPointExtension>
            <ns3:atemp>17.0</ns3:atemp>
            <ns3:hr>126</ns3:hr>
          </ns3:TrackPointExtension>
        </extensions>
      </trkpt>
      <trkpt lat="46.6732758097350597381591796875" lon="6.88339364714920520782470703125">
        <ele>691.5999755859375</ele>
        <time>2013-08-15T17:48:45.000Z</time>
        <extensions>
          <ns3:TrackPointExtension>
            <ns3:atemp>17.0</ns3:atemp>
            <ns3:hr>127</ns3:hr>
          </ns3:TrackPointExtension>
        </extensions>
      </trkpt>
      <trkpt lat="46.673341691493988037109375" lon="6.88348635099828243255615234375">
        <ele>691.4000244140625</ele>
        <time>2013-08-15T17:48:46.000Z</time>
        <extensions>
          <ns3:TrackPointExtension>
            <ns3:atemp>17.0</ns3:atemp>
            <ns3:hr>127</ns3:hr>
          </ns3:TrackPointExtension>
        </extensions>
      </trkpt>
      <trkpt lat="46.67340463958680629730224609375" lon="6.88358358107507228851318359375">
        <ele>691.20001220703125</ele>
        <time>2013-08-15T17:48:47.000Z</time>
        <extensions>
          <ns3:TrackPointExtension>
            <ns3:atemp>17.0</ns3:atemp>
            <ns3:hr>128</ns3:hr>
          </ns3:TrackPointExtension>
        </extensions>
      </trkpt>
      <trkpt lat="46.6734692640602588653564453125" lon="6.8836773745715618133544921875">
        <ele>691</ele>
        <time>2013-08-15T17:48:48.000Z</time>
        <extensions>
          <ns3:TrackPointExtension>
            <ns3:atemp>17.0</ns3:atemp>
            <ns3:hr>128</ns3:hr>
          </ns3:TrackPointExtension>
        </extensions>
      </trkpt>
      <trkpt lat="46.673533134162425994873046875" lon="6.88376898877322673797607421875">
        <ele>690.79998779296875</ele>
        <time>2013-08-15T17:48:49.000Z</time>
        <extensions>
          <ns3:TrackPointExtension>
            <ns3:atemp>17.0</ns3:atemp>
            <ns3:hr>128</ns3:hr>
          </ns3:TrackPointExtension>
        </extensions>
      </trkpt>
      <trkpt lat="46.67359692044556140899658203125" lon="6.88385901041328907012939453125">
        <ele>690.79998779296875</ele>
        <time>2013-08-15T17:48:50.000Z</time>
        <extensions>
          <ns3:TrackPointExtension>
            <ns3:atemp>17.0</ns3:atemp>
            <ns3:hr>128</ns3:hr>
          </ns3:TrackPointExtension>
        </extensions>
      </trkpt>
      <trkpt lat="46.67366288602352142333984375" lon="6.8839459307491779327392578125">
        <ele>690.4000244140625</ele>
        <time>2013-08-15T17:48:51.000Z</time>
        <extensions>
          <ns3:TrackPointExtension>
            <ns3:atemp>17.0</ns3:atemp>
            <ns3:hr>128</ns3:hr>
          </ns3:TrackPointExtension>
        </extensions>
      </trkpt>
      <trkpt lat="46.67372985742986202239990234375" lon="6.8840284086763858795166015625">
        <ele>690.20001220703125</ele>
        <time>2013-08-15T17:48:52.000Z</time>
        <extensions>
          <ns3:TrackPointExtension>
            <ns3:atemp>17.0</ns3:atemp>
            <ns3:hr>127</ns3:hr>
          </ns3:TrackPointExtension>
        </extensions>
      </trkpt>
      <trkpt lat="46.67379573918879032135009765625" lon="6.8841112218797206878662109375">
        <ele>689.79998779296875</ele>
        <time>2013-08-15T17:48:53.000Z</time>
        <extensions>
          <ns3:TrackPointExtension>
            <ns3:atemp>17.0</ns3:atemp>
            <ns3:hr>128</ns3:hr>
          </ns3:TrackPointExtension>
        </extensions>
      </trkpt>
      <trkpt lat="46.67386095039546489715576171875" lon="6.8841936998069286346435546875">
        <ele>690</ele>
        <time>2013-08-15T17:48:54.000Z</time>
        <extensions>
          <ns3:TrackPointExtension>
            <ns3:atemp>17.0</ns3:atemp>
            <ns3:hr>128</ns3:hr>
          </ns3:TrackPointExtension>
        </extensions>
      </trkpt>
      <trkpt lat="46.6739237308502197265625" lon="6.8842765130102634429931640625">
        <ele>690</ele>
        <time>2013-08-15T17:48:55.000Z</time>
        <extensions>
          <ns3:TrackPointExtension>
            <ns3:atemp>17.0</ns3:atemp>
            <ns3:hr>128</ns3:hr>
          </ns3:TrackPointExtension>
        </extensions>
      </trkpt>
      <trkpt lat="46.673985086381435394287109375" lon="6.88436091877520084381103515625">
        <ele>690.4000244140625</ele>
        <time>2013-08-15T17:48:56.000Z</time>
        <extensions>
          <ns3:TrackPointExtension>
            <ns3:atemp>16.0</ns3:atemp>
            <ns3:hr>128</ns3:hr>
          </ns3:TrackPointExtension>
        </extensions>
      </trkpt>
      <trkpt lat="46.6740529797971248626708984375" lon="6.88443853519856929779052734375">
        <ele>690</ele>
        <time>2013-08-15T17:48:57.000Z</time>
        <extensions>
          <ns3:TrackPointExtension>
            <ns3:atemp>16.0</ns3:atemp>
            <ns3:hr>127</ns3:hr>
          </ns3:TrackPointExtension>
        </extensions>
      </trkpt>
      <trkpt lat="46.674117855727672576904296875" lon="6.8845172412693500518798828125">
        <ele>690</ele>
        <time>2013-08-15T17:48:58.000Z</time>
        <extensions>
          <ns3:TrackPointExtension>
            <ns3:atemp>16.0</ns3:atemp>
            <ns3:hr>127</ns3:hr>
          </ns3:TrackPointExtension>
        </extensions>
      </trkpt>
      <trkpt lat="46.674180217087268829345703125" lon="6.88459628261625766754150390625">
        <ele>689.79998779296875</ele>
        <time>2013-08-15T17:48:59.000Z</time>
        <extensions>
          <ns3:TrackPointExtension>
            <ns3:atemp>16.0</ns3:atemp>
            <ns3:hr>127</ns3:hr>
          </ns3:TrackPointExtension>
        </extensions>
      </trkpt>
      <trkpt lat="46.674239225685596466064453125" lon="6.88467993400990962982177734375">
        <ele>689.5999755859375</ele>
        <time>2013-08-15T17:49:00.000Z</time>
        <extensions>
          <ns3:TrackPointExtension>
            <ns3:atemp>16.0</ns3:atemp>
            <ns3:hr>127</ns3:hr>
          </ns3:TrackPointExtension>
        </extensions>
      </trkpt>
      <trkpt lat="46.674298904836177825927734375" lon="6.88475922681391239166259765625">
        <ele>689.4000244140625</ele>
        <time>2013-08-15T17:49:01.000Z</time>
        <extensions>
          <ns3:TrackPointExtension>
            <ns3:atemp>16.0</ns3:atemp>
            <ns3:hr>127</ns3:hr>
          </ns3:TrackPointExtension>
        </extensions>
      </trkpt>
      <trkpt lat="46.67435749433934688568115234375" lon="6.8848347477614879608154296875">
        <ele>689.4000244140625</ele>
        <time>2013-08-15T17:49:02.000Z</time>
        <extensions>
          <ns3:TrackPointExtension>
            <ns3:atemp>16.0</ns3:atemp>
            <ns3:hr>127</ns3:hr>
          </ns3:TrackPointExtension>
        </extensions>
      </trkpt>
      <trkpt lat="46.67441633529961109161376953125" lon="6.884908340871334075927734375">
        <ele>689.20001220703125</ele>
        <time>2013-08-15T17:49:03.000Z</time>
        <extensions>
          <ns3:TrackPointExtension>
            <ns3:atemp>16.0</ns3:atemp>
            <ns3:hr>127</ns3:hr>
          </ns3:TrackPointExtension>
        </extensions>
      </trkpt>
      <trkpt lat="46.67447349987924098968505859375" lon="6.88498537056148052215576171875">
        <ele>689.20001220703125</ele>
        <time>2013-08-15T17:49:04.000Z</time>
        <extensions>
          <ns3:TrackPointExtension>
            <ns3:atemp>16.0</ns3:atemp>
            <ns3:hr>127</ns3:hr>
          </ns3:TrackPointExtension>
        </extensions>
      </trkpt>
      <trkpt lat="46.67452965863049030303955078125" lon="6.885061226785182952880859375">
        <ele>688.79998779296875</ele>
        <time>2013-08-15T17:49:05.000Z</time>
        <extensions>
          <ns3:TrackPointExtension>
            <ns3:atemp>16.0</ns3:atemp>
            <ns3:hr>127</ns3:hr>
          </ns3:TrackPointExtension>
        </extensions>
      </trkpt>
      <trkpt lat="46.67458883486688137054443359375" lon="6.8851364962756633758544921875">
        <ele>688.4000244140625</ele>
        <time>2013-08-15T17:49:06.000Z</time>
        <extensions>
          <ns3:TrackPointExtension>
            <ns3:atemp>16.0</ns3:atemp>
            <ns3:hr>127</ns3:hr>
          </ns3:TrackPointExtension>
        </extensions>
      </trkpt>
      <trkpt lat="46.67464591562747955322265625" lon="6.88521536998450756072998046875">
        <ele>688.20001220703125</ele>
        <time>2013-08-15T17:49:07.000Z</time>
        <extensions>
          <ns3:TrackPointExtension>
            <ns3:atemp>16.0</ns3:atemp>
            <ns3:hr>127</ns3:hr>
          </ns3:TrackPointExtension>
        </extensions>
      </trkpt>
      <trkpt lat="46.67470450513064861297607421875" lon="6.8852870352566242218017578125">
        <ele>688</ele>
        <time>2013-08-15T17:49:08.000Z</time>
        <extensions>
          <ns3:TrackPointExtension>
            <ns3:atemp>16.0</ns3:atemp>
            <ns3:hr>127</ns3:hr>
          </ns3:TrackPointExtension>
        </extensions>
      </trkpt>
      <trkpt lat="46.6747681237757205963134765625" lon="6.88535082153975963592529296875">
        <ele>688</ele>
        <time>2013-08-15T17:49:09.000Z</time>
        <extensions>
          <ns3:TrackPointExtension>
            <ns3:atemp>16.0</ns3:atemp>
            <ns3:hr>128</ns3:hr>
          </ns3:TrackPointExtension>
        </extensions>
      </trkpt>
      <trkpt lat="46.67483777739107608795166015625" lon="6.8853983469307422637939453125">
        <ele>688</ele>
        <time>2013-08-15T17:49:10.000Z</time>
        <extensions>
          <ns3:TrackPointExtension>
            <ns3:atemp>16.0</ns3:atemp>
            <ns3:hr>128</ns3:hr>
          </ns3:TrackPointExtension>
        </extensions>
      </trkpt>
      <trkpt lat="46.67491069994866847991943359375" lon="6.885432042181491851806640625">
        <ele>688.20001220703125</ele>
        <time>2013-08-15T17:49:11.000Z</time>
        <extensions>
          <ns3:TrackPointExtension>
            <ns3:atemp>16.0</ns3:atemp>
            <ns3:hr>128</ns3:hr>
          </ns3:TrackPointExtension>
        </extensions>
      </trkpt>
      <trkpt lat="46.67498362250626087188720703125" lon="6.88546045683324337005615234375">
        <ele>688.4000244140625</ele>
        <time>2013-08-15T17:49:12.000Z</time>
        <extensions>
          <ns3:TrackPointExtension>
            <ns3:atemp>16.0</ns3:atemp>
            <ns3:hr>128</ns3:hr>
          </ns3:TrackPointExtension>
        </extensions>
      </trkpt>
      <trkpt lat="46.67505956254899501800537109375" lon="6.885482333600521087646484375">
        <ele>688.4000244140625</ele>
        <time>2013-08-15T17:49:13.000Z</time>
        <extensions>
          <ns3:TrackPointExtension>
            <ns3:atemp>16.0</ns3:atemp>
            <ns3:hr>128</ns3:hr>
          </ns3:TrackPointExtension>
        </extensions>
      </trkpt>
      <trkpt lat="46.6751339100301265716552734375" lon="6.88550136052072048187255859375">
        <ele>688.4000244140625</ele>
        <time>2013-08-15T17:49:14.000Z</time>
        <extensions>
          <ns3:TrackPointExtension>
            <ns3:atemp>16.0</ns3:atemp>
            <ns3:hr>128</ns3:hr>
          </ns3:TrackPointExtension>
        </extensions>
      </trkpt>
      <trkpt lat="46.675208508968353271484375" lon="6.88551058061420917510986328125">
        <ele>688.4000244140625</ele>
        <time>2013-08-15T17:49:15.000Z</time>
        <extensions>
          <ns3:TrackPointExtension>
            <ns3:atemp>16.0</ns3:atemp>
            <ns3:hr>128</ns3:hr>
          </ns3:TrackPointExtension>
        </extensions>
      </trkpt>
      <trkpt lat="46.6752817668020725250244140625" lon="6.88550940714776515960693359375">
        <ele>688.5999755859375</ele>
        <time>2013-08-15T17:49:16.000Z</time>
        <extensions>
          <ns3:TrackPointExtension>
            <ns3:atemp>16.0</ns3:atemp>
            <ns3:hr>128</ns3:hr>
          </ns3:TrackPointExtension>
        </extensions>
      </trkpt>
      <trkpt lat="46.67535712011158466339111328125" lon="6.88550689257681369781494140625">
        <ele>688.4000244140625</ele>
        <time>2013-08-15T17:49:17.000Z</time>
        <extensions>
          <ns3:TrackPointExtension>
            <ns3:atemp>16.0</ns3:atemp>
            <ns3:hr>128</ns3:hr>
          </ns3:TrackPointExtension>
        </extensions>
      </trkpt>
      <trkpt lat="46.6754292882978916168212890625" lon="6.8855029530823230743408203125">
        <ele>688.4000244140625</ele>
        <time>2013-08-15T17:49:18.000Z</time>
        <extensions>
          <ns3:TrackPointExtension>
            <ns3:atemp>16.0</ns3:atemp>
            <ns3:hr>128</ns3:hr>
          </ns3:TrackPointExtension>
        </extensions>
      </trkpt>
      <trkpt lat="46.6755013726651668548583984375" lon="6.88549012877047061920166015625">
        <ele>688.20001220703125</ele>
        <time>2013-08-15T17:49:19.000Z</time>
        <extensions>
          <ns3:TrackPointExtension>
            <ns3:atemp>16.0</ns3:atemp>
            <ns3:hr>128</ns3:hr>
          </ns3:TrackPointExtension>
        </extensions>
      </trkpt>
      <trkpt lat="46.67557102628052234649658203125" lon="6.88547797501087188720703125">
        <ele>688.20001220703125</ele>
        <time>2013-08-15T17:49:20.000Z</time>
        <extensions>
          <ns3:TrackPointExtension>
            <ns3:atemp>16.0</ns3:atemp>
            <ns3:hr>129</ns3:hr>
          </ns3:TrackPointExtension>
        </extensions>
      </trkpt>
      <trkpt lat="46.67564126662909984588623046875" lon="6.88547973521053791046142578125">
        <ele>688.4000244140625</ele>
        <time>2013-08-15T17:49:21.000Z</time>
        <extensions>
          <ns3:TrackPointExtension>
            <ns3:atemp>16.0</ns3:atemp>
            <ns3:hr>129</ns3:hr>
          </ns3:TrackPointExtension>
        </extensions>
      </trkpt>
      <trkpt lat="46.6757085733115673065185546875" lon="6.885487027466297149658203125">
        <ele>688.5999755859375</ele>
        <time>2013-08-15T17:49:22.000Z</time>
        <extensions>
          <ns3:TrackPointExtension>
            <ns3:atemp>16.0</ns3:atemp>
            <ns3:hr>130</ns3:hr>
          </ns3:TrackPointExtension>
        </extensions>
      </trkpt>
      <trkpt lat="46.67577621527016162872314453125" lon="6.88549381680786609649658203125">
        <ele>688.5999755859375</ele>
        <time>2013-08-15T17:49:23.000Z</time>
        <extensions>
          <ns3:TrackPointExtension>
            <ns3:atemp>16.0</ns3:atemp>
            <ns3:hr>130</ns3:hr>
          </ns3:TrackPointExtension>
        </extensions>
      </trkpt>
      <trkpt lat="46.6758403368294239044189453125" lon="6.88550613820552825927734375">
        <ele>688.4000244140625</ele>
        <time>2013-08-15T17:49:24.000Z</time>
        <extensions>
          <ns3:TrackPointExtension>
            <ns3:atemp>16.0</ns3:atemp>
            <ns3:hr>131</ns3:hr>
          </ns3:TrackPointExtension>
        </extensions>
      </trkpt>
      <trkpt lat="46.675908230245113372802734375" lon="6.88553136773407459259033203125">
        <ele>688</ele>
        <time>2013-08-15T17:49:25.000Z</time>
        <extensions>
          <ns3:TrackPointExtension>
            <ns3:atemp>16.0</ns3:atemp>
            <ns3:hr>131</ns3:hr>
          </ns3:TrackPointExtension>
        </extensions>
      </trkpt>
      <trkpt lat="46.67597050778567790985107421875" lon="6.8855693377554416656494140625">
        <ele>687.5999755859375</ele>
        <time>2013-08-15T17:49:26.000Z</time>
        <extensions>
          <ns3:TrackPointExtension>
            <ns3:atemp>16.0</ns3:atemp>
            <ns3:hr>132</ns3:hr>
          </ns3:TrackPointExtension>
        </extensions>
      </trkpt>
      <trkpt lat="46.67603152804076671600341796875" lon="6.88562490977346897125244140625">
        <ele>687.5999755859375</ele>
        <time>2013-08-15T17:49:27.000Z</time>
        <extensions>
          <ns3:TrackPointExtension>
            <ns3:atemp>16.0</ns3:atemp>
            <ns3:hr>132</ns3:hr>
          </ns3:TrackPointExtension>
        </extensions>
      </trkpt>
      <trkpt lat="46.67609171010553836822509765625" lon="6.8856840021908283233642578125">
        <ele>688</ele>
        <time>2013-08-15T17:49:28.000Z</time>
        <extensions>
          <ns3:TrackPointExtension>
            <ns3:atemp>16.0</ns3:atemp>
            <ns3:hr>133</ns3:hr>
          </ns3:TrackPointExtension>
        </extensions>
      </trkpt>
      <trkpt lat="46.6761497966945171356201171875" lon="6.88574376516044139862060546875">
        <ele>688.5999755859375</ele>
        <time>2013-08-15T17:49:29.000Z</time>
        <extensions>
          <ns3:TrackPointExtension>
            <ns3:atemp>16.0</ns3:atemp>
            <ns3:hr>134</ns3:hr>
          </ns3:TrackPointExtension>
        </extensions>
      </trkpt>
      <trkpt lat="46.67620084248483180999755859375" lon="6.88581434078514575958251953125">
        <ele>688.79998779296875</ele>
        <time>2013-08-15T17:49:30.000Z</time>
        <extensions>
          <ns3:TrackPointExtension>
            <ns3:atemp>16.0</ns3:atemp>
            <ns3:hr>134</ns3:hr>
          </ns3:TrackPointExtension>
        </extensions>
      </trkpt>
      <trkpt lat="46.67624543420970439910888671875" lon="6.88588709570467472076416015625">
        <ele>688.79998779296875</ele>
        <time>2013-08-15T17:49:31.000Z</time>
        <extensions>
          <ns3:TrackPointExtension>
            <ns3:atemp>16.0</ns3:atemp>
            <ns3:hr>135</ns3:hr>
          </ns3:TrackPointExtension>
        </extensions>
      </trkpt>
      <trkpt lat="46.67628617025911808013916015625" lon="6.88595616258680820465087890625">
        <ele>688.79998779296875</ele>
        <time>2013-08-15T17:49:32.000Z</time>
        <extensions>
          <ns3:TrackPointExtension>
            <ns3:atemp>16.0</ns3:atemp>
            <ns3:hr>135</ns3:hr>
          </ns3:TrackPointExtension>
        </extensions>
      </trkpt>
      <trkpt lat="46.67632724158465862274169921875" lon="6.8860202841460704803466796875">
        <ele>688.5999755859375</ele>
        <time>2013-08-15T17:49:33.000Z</time>
        <extensions>
          <ns3:TrackPointExtension>
            <ns3:atemp>16.0</ns3:atemp>
            <ns3:hr>135</ns3:hr>
          </ns3:TrackPointExtension>
        </extensions>
      </trkpt>
      <trkpt lat="46.67637149803340435028076171875" lon="6.88607635907828807830810546875">
        <ele>688.4000244140625</ele>
        <time>2013-08-15T17:49:34.000Z</time>
        <extensions>
          <ns3:TrackPointExtension>
            <ns3:atemp>16.0</ns3:atemp>
            <ns3:hr>135</ns3:hr>
          </ns3:TrackPointExtension>
        </extensions>
      </trkpt>
      <trkpt lat="46.676417179405689239501953125" lon="6.88612665049731731414794921875">
        <ele>688.20001220703125</ele>
        <time>2013-08-15T17:49:35.000Z</time>
        <extensions>
          <ns3:TrackPointExtension>
            <ns3:atemp>16.0</ns3:atemp>
            <ns3:hr>134</ns3:hr>
          </ns3:TrackPointExtension>
        </extensions>
      </trkpt>
      <trkpt lat="46.67646302841603755950927734375" lon="6.8861724995076656341552734375">
        <ele>688.20001220703125</ele>
        <time>2013-08-15T17:49:36.000Z</time>
        <extensions>
          <ns3:TrackPointExtension>
            <ns3:atemp>16.0</ns3:atemp>
            <ns3:hr>134</ns3:hr>
          </ns3:TrackPointExtension>
        </extensions>
      </trkpt>
      <trkpt lat="46.67650225572288036346435546875" lon="6.88623142428696155548095703125">
        <ele>688</ele>
        <time>2013-08-15T17:49:37.000Z</time>
        <extensions>
          <ns3:TrackPointExtension>
            <ns3:atemp>16.0</ns3:atemp>
            <ns3:hr>133</ns3:hr>
          </ns3:TrackPointExtension>
        </extensions>
      </trkpt>
      <trkpt lat="46.67653595097362995147705078125" lon="6.88630283810198307037353515625">
        <ele>688</ele>
        <time>2013-08-15T17:49:38.000Z</time>
        <extensions>
          <ns3:TrackPointExtension>
            <ns3:atemp>16.0</ns3:atemp>
            <ns3:hr>133</ns3:hr>
          </ns3:TrackPointExtension>
        </extensions>
      </trkpt>
      <trkpt lat="46.676571071147918701171875" lon="6.88637743704020977020263671875">
        <ele>687.79998779296875</ele>
        <time>2013-08-15T17:49:39.000Z</time>
        <extensions>
          <ns3:TrackPointExtension>
            <ns3:atemp>16.0</ns3:atemp>
            <ns3:hr>133</ns3:hr>
          </ns3:TrackPointExtension>
        </extensions>
      </trkpt>
      <trkpt lat="46.67661909945309162139892578125" lon="6.88644147478044033050537109375">
        <ele>687.79998779296875</ele>
        <time>2013-08-15T17:49:40.000Z</time>
        <extensions>
          <ns3:TrackPointExtension>
            <ns3:atemp>16.0</ns3:atemp>
            <ns3:hr>134</ns3:hr>
          </ns3:TrackPointExtension>
        </extensions>
      </trkpt>
      <trkpt lat="46.67667408473789691925048828125" lon="6.886498890817165374755859375">
        <ele>687.79998779296875</ele>
        <time>2013-08-15T17:49:41.000Z</time>
        <extensions>
          <ns3:TrackPointExtension>
            <ns3:atemp>16.0</ns3:atemp>
            <ns3:hr>133</ns3:hr>
          </ns3:TrackPointExtension>
        </extensions>
      </trkpt>
      <trkpt lat="46.67672823183238506317138671875" lon="6.88655798323452472686767578125">
        <ele>688</ele>
        <time>2013-08-15T17:49:42.000Z</time>
        <extensions>
          <ns3:TrackPointExtension>
            <ns3:atemp>16.0</ns3:atemp>
            <ns3:hr>134</ns3:hr>
          </ns3:TrackPointExtension>
        </extensions>
      </trkpt>
      <trkpt lat="46.67678053490817546844482421875" lon="6.88662101514637470245361328125">
        <ele>688</ele>
        <time>2013-08-15T17:49:43.000Z</time>
        <extensions>
          <ns3:TrackPointExtension>
            <ns3:atemp>16.0</ns3:atemp>
            <ns3:hr>133</ns3:hr>
          </ns3:TrackPointExtension>
        </extensions>
      </trkpt>
      <trkpt lat="46.676834933459758758544921875" lon="6.886683963239192962646484375">
        <ele>688</ele>
        <time>2013-08-15T17:49:44.000Z</time>
        <extensions>
          <ns3:TrackPointExtension>
            <ns3:atemp>16.0</ns3:atemp>
            <ns3:hr>133</ns3:hr>
          </ns3:TrackPointExtension>
        </extensions>
      </trkpt>
      <trkpt lat="46.67688882909715175628662109375" lon="6.88674724660813808441162109375">
        <ele>688</ele>
        <time>2013-08-15T17:49:45.000Z</time>
        <extensions>
          <ns3:TrackPointExtension>
            <ns3:atemp>16.0</ns3:atemp>
            <ns3:hr>134</ns3:hr>
          </ns3:TrackPointExtension>
        </extensions>
      </trkpt>
      <trkpt lat="46.67694482021033763885498046875" lon="6.8868078477680683135986328125">
        <ele>688</ele>
        <time>2013-08-15T17:49:46.000Z</time>
        <extensions>
          <ns3:TrackPointExtension>
            <ns3:atemp>16.0</ns3:atemp>
            <ns3:hr>133</ns3:hr>
          </ns3:TrackPointExtension>
        </extensions>
      </trkpt>
      <trkpt lat="46.677002571523189544677734375" lon="6.886863671243190765380859375">
        <ele>688.20001220703125</ele>
        <time>2013-08-15T17:49:47.000Z</time>
        <extensions>
          <ns3:TrackPointExtension>
            <ns3:atemp>16.0</ns3:atemp>
            <ns3:hr>133</ns3:hr>
          </ns3:TrackPointExtension>
        </extensions>
      </trkpt>
      <trkpt lat="46.6770607419312000274658203125" lon="6.88692058436572551727294921875">
        <ele>688</ele>
        <time>2013-08-15T17:49:48.000Z</time>
        <extensions>
          <ns3:TrackPointExtension>
            <ns3:atemp>16.0</ns3:atemp>
            <ns3:hr>133</ns3:hr>
          </ns3:TrackPointExtension>
        </extensions>
      </trkpt>
      <trkpt lat="46.677117906510829925537109375" lon="6.8869781680405139923095703125">
        <ele>688</ele>
        <time>2013-08-15T17:49:49.000Z</time>
        <extensions>
          <ns3:TrackPointExtension>
            <ns3:atemp>16.0</ns3:atemp>
            <ns3:hr>133</ns3:hr>
          </ns3:TrackPointExtension>
        </extensions>
      </trkpt>
      <trkpt lat="46.677175574004650115966796875" lon="6.8870408646762371063232421875">
        <ele>688</ele>
        <time>2013-08-15T17:49:50.000Z</time>
        <extensions>
          <ns3:TrackPointExtension>
            <ns3:atemp>16.0</ns3:atemp>
            <ns3:hr>132</ns3:hr>
          </ns3:TrackPointExtension>
        </extensions>
      </trkpt>
      <trkpt lat="46.67723047547042369842529296875" lon="6.88710699789226055145263671875">
        <ele>688</ele>
        <time>2013-08-15T17:49:51.000Z</time>
        <extensions>
          <ns3:TrackPointExtension>
            <ns3:atemp>16.0</ns3:atemp>
            <ns3:hr>132</ns3:hr>
          </ns3:TrackPointExtension>
        </extensions>
      </trkpt>
      <trkpt lat="46.677286215126514434814453125" lon="6.88717187382280826568603515625">
        <ele>688</ele>
        <time>2013-08-15T17:49:52.000Z</time>
        <extensions>
          <ns3:TrackPointExtension>
            <ns3:atemp>16.0</ns3:atemp>
            <ns3:hr>132</ns3:hr>
          </ns3:TrackPointExtension>
        </extensions>
      </trkpt>
      <trkpt lat="46.67734379880130290985107421875" lon="6.88723004423081874847412109375">
        <ele>688.20001220703125</ele>
        <time>2013-08-15T17:49:53.000Z</time>
        <extensions>
          <ns3:TrackPointExtension>
            <ns3:atemp>16.0</ns3:atemp>
            <ns3:hr>132</ns3:hr>
          </ns3:TrackPointExtension>
        </extensions>
      </trkpt>
      <trkpt lat="46.67740347795188426971435546875" lon="6.88728536479175090789794921875">
        <ele>688.20001220703125</ele>
        <time>2013-08-15T17:49:54.000Z</time>
        <extensions>
          <ns3:TrackPointExtension>
            <ns3:atemp>16.0</ns3:atemp>
            <ns3:hr>132</ns3:hr>
          </ns3:TrackPointExtension>
        </extensions>
      </trkpt>
      <trkpt lat="46.67746030725538730621337890625" lon="6.88734537921845912933349609375">
        <ele>688.20001220703125</ele>
        <time>2013-08-15T17:49:55.000Z</time>
        <extensions>
          <ns3:TrackPointExtension>
            <ns3:atemp>16.0</ns3:atemp>
            <ns3:hr>132</ns3:hr>
          </ns3:TrackPointExtension>
        </extensions>
      </trkpt>
      <trkpt lat="46.677515543997287750244140625" lon="6.8874106742441654205322265625">
        <ele>688</ele>
        <time>2013-08-15T17:49:56.000Z</time>
        <extensions>
          <ns3:TrackPointExtension>
            <ns3:atemp>16.0</ns3:atemp>
            <ns3:hr>132</ns3:hr>
          </ns3:TrackPointExtension>
        </extensions>
      </trkpt>
      <trkpt lat="46.6775703616440296173095703125" lon="6.88747513107955455780029296875">
        <ele>688</ele>
        <time>2013-08-15T17:49:57.000Z</time>
        <extensions>
          <ns3:TrackPointExtension>
            <ns3:atemp>16.0</ns3:atemp>
            <ns3:hr>132</ns3:hr>
          </ns3:TrackPointExtension>
        </extensions>
      </trkpt>
      <trkpt lat="46.677628196775913238525390625" lon="6.887533552944660186767578125">
        <ele>688</ele>
        <time>2013-08-15T17:49:58.000Z</time>
        <extensions>
          <ns3:TrackPointExtension>
            <ns3:atemp>16.0</ns3:atemp>
            <ns3:hr>132</ns3:hr>
          </ns3:TrackPointExtension>
        </extensions>
      </trkpt>
      <trkpt lat="46.677685193717479705810546875" lon="6.8875922262668609619140625">
        <ele>688</ele>
        <time>2013-08-15T17:49:59.000Z</time>
        <extensions>
          <ns3:TrackPointExtension>
            <ns3:atemp>16.0</ns3:atemp>
            <ns3:hr>133</ns3:hr>
          </ns3:TrackPointExtension>
        </extensions>
      </trkpt>
      <trkpt lat="46.67774252593517303466796875" lon="6.887650229036808013916015625">
        <ele>688</ele>
        <time>2013-08-15T17:50:00.000Z</time>
        <extensions>
          <ns3:TrackPointExtension>
            <ns3:atemp>16.0</ns3:atemp>
            <ns3:hr>133</ns3:hr>
          </ns3:TrackPointExtension>
        </extensions>
      </trkpt>
      <trkpt lat="46.67779843322932720184326171875" lon="6.8877117522060871124267578125">
        <ele>688</ele>
        <time>2013-08-15T17:50:01.000Z</time>
        <extensions>
          <ns3:TrackPointExtension>
            <ns3:atemp>16.0</ns3:atemp>
            <ns3:hr>133</ns3:hr>
          </ns3:TrackPointExtension>
        </extensions>
      </trkpt>
      <trkpt lat="46.67785475961863994598388671875" lon="6.8877754546701908111572265625">
        <ele>688</ele>
        <time>2013-08-15T17:50:02.000Z</time>
        <extensions>
          <ns3:TrackPointExtension>
            <ns3:atemp>16.0</ns3:atemp>
            <ns3:hr>133</ns3:hr>
          </ns3:TrackPointExtension>
        </extensions>
      </trkpt>
      <trkpt lat="46.67791024781763553619384765625" lon="6.88784192316234111785888671875">
        <ele>688</ele>
        <time>2013-08-15T17:50:03.000Z</time>
        <extensions>
          <ns3:TrackPointExtension>
            <ns3:atemp>16.0</ns3:atemp>
            <ns3:hr>133</ns3:hr>
          </ns3:TrackPointExtension>
        </extensions>
      </trkpt>
      <trkpt lat="46.677968166768550872802734375" lon="6.88790512271225452423095703125">
        <ele>688.20001220703125</ele>
        <time>2013-08-15T17:50:04.000Z</time>
        <extensions>
          <ns3:TrackPointExtension>
            <ns3:atemp>16.0</ns3:atemp>
            <ns3:hr>133</ns3:hr>
          </ns3:TrackPointExtension>
        </extensions>
      </trkpt>
      <trkpt lat="46.67802608571946620941162109375" lon="6.88796932809054851531982421875">
        <ele>688.20001220703125</ele>
        <time>2013-08-15T17:50:05.000Z</time>
        <extensions>
          <ns3:TrackPointExtension>
            <ns3:atemp>16.0</ns3:atemp>
            <ns3:hr>133</ns3:hr>
          </ns3:TrackPointExtension>
        </extensions>
      </trkpt>
      <trkpt lat="46.67808442376554012298583984375" lon="6.88803420402109622955322265625">
        <ele>688.20001220703125</ele>
        <time>2013-08-15T17:50:06.000Z</time>
        <extensions>
          <ns3:TrackPointExtension>
            <ns3:atemp>16.0</ns3:atemp>
            <ns3:hr>133</ns3:hr>
          </ns3:TrackPointExtension>
        </extensions>
      </trkpt>
      <trkpt lat="46.67814175598323345184326171875" lon="6.8880993314087390899658203125">
        <ele>687.79998779296875</ele>
        <time>2013-08-15T17:50:07.000Z</time>
        <extensions>
          <ns3:TrackPointExtension>
            <ns3:atemp>16.0</ns3:atemp>
            <ns3:hr>132</ns3:hr>
          </ns3:TrackPointExtension>
        </extensions>
      </trkpt>
      <trkpt lat="46.67819992639124393463134765625" lon="6.8881650455296039581298828125">
        <ele>687.79998779296875</ele>
        <time>2013-08-15T17:50:08.000Z</time>
        <extensions>
          <ns3:TrackPointExtension>
            <ns3:atemp>16.0</ns3:atemp>
            <ns3:hr>132</ns3:hr>
          </ns3:TrackPointExtension>
        </extensions>
      </trkpt>
      <trkpt lat="46.678259856998920440673828125" lon="6.88822682015597820281982421875">
        <ele>687.5999755859375</ele>
        <time>2013-08-15T17:50:09.000Z</time>
        <extensions>
          <ns3:TrackPointExtension>
            <ns3:atemp>16.0</ns3:atemp>
            <ns3:hr>132</ns3:hr>
          </ns3:TrackPointExtension>
        </extensions>
      </trkpt>
      <trkpt lat="46.678319871425628662109375" lon="6.8882894329726696014404296875">
        <ele>687.5999755859375</ele>
        <time>2013-08-15T17:50:10.000Z</time>
        <extensions>
          <ns3:TrackPointExtension>
            <ns3:atemp>16.0</ns3:atemp>
            <ns3:hr>132</ns3:hr>
          </ns3:TrackPointExtension>
        </extensions>
      </trkpt>
      <trkpt lat="46.6783800534904003143310546875" lon="6.888351626694202423095703125">
        <ele>687.4000244140625</ele>
        <time>2013-08-15T17:50:11.000Z</time>
        <extensions>
          <ns3:TrackPointExtension>
            <ns3:atemp>16.0</ns3:atemp>
            <ns3:hr>131</ns3:hr>
          </ns3:TrackPointExtension>
        </extensions>
      </trkpt>
      <trkpt lat="46.67844048701226711273193359375" lon="6.888414323329925537109375">
        <ele>687.20001220703125</ele>
        <time>2013-08-15T17:50:12.000Z</time>
        <extensions>
          <ns3:TrackPointExtension>
            <ns3:atemp>16.0</ns3:atemp>
            <ns3:hr>131</ns3:hr>
          </ns3:TrackPointExtension>
        </extensions>
      </trkpt>
      <trkpt lat="46.678501926362514495849609375" lon="6.88847878016531467437744140625">
        <ele>687</ele>
        <time>2013-08-15T17:50:13.000Z</time>
        <extensions>
          <ns3:TrackPointExtension>
            <ns3:atemp>16.0</ns3:atemp>
            <ns3:hr>131</ns3:hr>
          </ns3:TrackPointExtension>
        </extensions>
      </trkpt>
      <trkpt lat="46.6785626113414764404296875" lon="6.88854315318167209625244140625">
        <ele>687</ele>
        <time>2013-08-15T17:50:14.000Z</time>
        <extensions>
          <ns3:TrackPointExtension>
            <ns3:atemp>16.0</ns3:atemp>
            <ns3:hr>130</ns3:hr>
          </ns3:TrackPointExtension>
        </extensions>
      </trkpt>
      <trkpt lat="46.67862270958721637725830078125" lon="6.8886069394648075103759765625">
        <ele>687</ele>
        <time>2013-08-15T17:50:15.000Z</time>
        <extensions>
          <ns3:TrackPointExtension>
            <ns3:atemp>16.0</ns3:atemp>
            <ns3:hr>130</ns3:hr>
          </ns3:TrackPointExtension>
        </extensions>
      </trkpt>
      <trkpt lat="46.6786831431090831756591796875" lon="6.88867256976664066314697265625">
        <ele>686.79998779296875</ele>
        <time>2013-08-15T17:50:16.000Z</time>
        <extensions>
          <ns3:TrackPointExtension>
            <ns3:atemp>16.0</ns3:atemp>
            <ns3:hr>129</ns3:hr>
          </ns3:TrackPointExtension>
        </extensions>
      </trkpt>
      <trkpt lat="46.67874290607869625091552734375" lon="6.8887375295162200927734375">
        <ele>686.79998779296875</ele>
        <time>2013-08-15T17:50:17.000Z</time>
        <extensions>
          <ns3:TrackPointExtension>
            <ns3:atemp>16.0</ns3:atemp>
            <ns3:hr>129</ns3:hr>
          </ns3:TrackPointExtension>
        </extensions>
      </trkpt>
      <trkpt lat="46.67880275286734104156494140625" lon="6.88880383037030696868896484375">
        <ele>686.5999755859375</ele>
        <time>2013-08-15T17:50:18.000Z</time>
        <extensions>
          <ns3:TrackPointExtension>
            <ns3:atemp>16.0</ns3:atemp>
            <ns3:hr>129</ns3:hr>
          </ns3:TrackPointExtension>
        </extensions>
      </trkpt>
      <trkpt lat="46.6788651980459690093994140625" lon="6.8888671137392520904541015625">
        <ele>686.4000244140625</ele>
        <time>2013-08-15T17:50:19.000Z</time>
        <extensions>
          <ns3:TrackPointExtension>
            <ns3:atemp>16.0</ns3:atemp>
            <ns3:hr>129</ns3:hr>
          </ns3:TrackPointExtension>
        </extensions>
      </trkpt>
      <trkpt lat="46.67892646975815296173095703125" lon="6.88893257640302181243896484375">
        <ele>686.20001220703125</ele>
        <time>2013-08-15T17:50:20.000Z</time>
        <extensions>
          <ns3:TrackPointExtension>
            <ns3:atemp>16.0</ns3:atemp>
            <ns3:hr>129</ns3:hr>
          </ns3:TrackPointExtension>
        </extensions>
      </trkpt>
      <trkpt lat="46.67898816056549549102783203125" lon="6.8890003859996795654296875">
        <ele>686.20001220703125</ele>
        <time>2013-08-15T17:50:21.000Z</time>
        <extensions>
          <ns3:TrackPointExtension>
            <ns3:atemp>16.0</ns3:atemp>
            <ns3:hr>129</ns3:hr>
          </ns3:TrackPointExtension>
        </extensions>
      </trkpt>
      <trkpt lat="46.67904851026833057403564453125" lon="6.8890689499676227569580078125">
        <ele>686</ele>
        <time>2013-08-15T17:50:22.000Z</time>
        <extensions>
          <ns3:TrackPointExtension>
            <ns3:atemp>16.0</ns3:atemp>
            <ns3:hr>129</ns3:hr>
          </ns3:TrackPointExtension>
        </extensions>
      </trkpt>
      <trkpt lat="46.67911053635179996490478515625" lon="6.88913575373589992523193359375">
        <ele>685.79998779296875</ele>
        <time>2013-08-15T17:50:23.000Z</time>
        <extensions>
          <ns3:TrackPointExtension>
            <ns3:atemp>16.0</ns3:atemp>
            <ns3:hr>129</ns3:hr>
          </ns3:TrackPointExtension>
        </extensions>
      </trkpt>
      <trkpt lat="46.679173149168491363525390625" lon="6.88920163549482822418212890625">
        <ele>685.79998779296875</ele>
        <time>2013-08-15T17:50:24.000Z</time>
        <extensions>
          <ns3:TrackPointExtension>
            <ns3:atemp>16.0</ns3:atemp>
            <ns3:hr>129</ns3:hr>
          </ns3:TrackPointExtension>
        </extensions>
      </trkpt>
      <trkpt lat="46.67923475615680217742919921875" lon="6.8892647512257099151611328125">
        <ele>685.5999755859375</ele>
        <time>2013-08-15T17:50:25.000Z</time>
        <extensions>
          <ns3:TrackPointExtension>
            <ns3:atemp>16.0</ns3:atemp>
            <ns3:hr>128</ns3:hr>
          </ns3:TrackPointExtension>
        </extensions>
      </trkpt>
      <trkpt lat="46.67929560877382755279541015625" lon="6.88932920806109905242919921875">
        <ele>685.5999755859375</ele>
        <time>2013-08-15T17:50:26.000Z</time>
        <extensions>
          <ns3:TrackPointExtension>
            <ns3:atemp>16.0</ns3:atemp>
            <ns3:hr>128</ns3:hr>
          </ns3:TrackPointExtension>
        </extensions>
      </trkpt>
      <trkpt lat="46.67935377918183803558349609375" lon="6.8893978558480739593505859375">
        <ele>685.5999755859375</ele>
        <time>2013-08-15T17:50:27.000Z</time>
        <extensions>
          <ns3:TrackPointExtension>
            <ns3:atemp>16.0</ns3:atemp>
            <ns3:hr>128</ns3:hr>
          </ns3:TrackPointExtension>
        </extensions>
      </trkpt>
      <trkpt lat="46.67941027320921421051025390625" lon="6.88946197740733623504638671875">
        <ele>685.4000244140625</ele>
        <time>2013-08-15T17:50:28.000Z</time>
        <extensions>
          <ns3:TrackPointExtension>
            <ns3:atemp>16.0</ns3:atemp>
            <ns3:hr>129</ns3:hr>
          </ns3:TrackPointExtension>
        </extensions>
      </trkpt>
      <trkpt lat="46.67947011999785900115966796875" lon="6.88952383585274219512939453125">
        <ele>685.4000244140625</ele>
        <time>2013-08-15T17:50:29.000Z</time>
        <extensions>
          <ns3:TrackPointExtension>
            <ns3:atemp>16.0</ns3:atemp>
            <ns3:hr>129</ns3:hr>
          </ns3:TrackPointExtension>
        </extensions>
      </trkpt>
      <trkpt lat="46.6795293800532817840576171875" lon="6.88958368264138698577880859375">
        <ele>685.20001220703125</ele>
        <time>2013-08-15T17:50:30.000Z</time>
        <extensions>
          <ns3:TrackPointExtension>
            <ns3:atemp>16.0</ns3:atemp>
            <ns3:hr>129</ns3:hr>
          </ns3:TrackPointExtension>
        </extensions>
      </trkpt>
      <trkpt lat="46.67958612553775310516357421875" lon="6.88964604400098323822021484375">
        <ele>685.20001220703125</ele>
        <time>2013-08-15T17:50:31.000Z</time>
        <extensions>
          <ns3:TrackPointExtension>
            <ns3:atemp>16.0</ns3:atemp>
            <ns3:hr>128</ns3:hr>
          </ns3:TrackPointExtension>
        </extensions>
      </trkpt>
      <trkpt lat="46.679642200469970703125" lon="6.8897039629518985748291015625">
        <ele>685.20001220703125</ele>
        <time>2013-08-15T17:50:32.000Z</time>
        <extensions>
          <ns3:TrackPointExtension>
            <ns3:atemp>16.0</ns3:atemp>
            <ns3:hr>128</ns3:hr>
          </ns3:TrackPointExtension>
        </extensions>
      </trkpt>
      <trkpt lat="46.679698191583156585693359375" lon="6.8897586129605770111083984375">
        <ele>684.79998779296875</ele>
        <time>2013-08-15T17:50:33.000Z</time>
        <extensions>
          <ns3:TrackPointExtension>
            <ns3:atemp>16.0</ns3:atemp>
            <ns3:hr>128</ns3:hr>
          </ns3:TrackPointExtension>
        </extensions>
      </trkpt>
      <trkpt lat="46.67973750270903110504150390625" lon="6.88983815722167491912841796875">
        <ele>684.20001220703125</ele>
        <time>2013-08-15T17:50:34.000Z</time>
        <extensions>
          <ns3:TrackPointExtension>
            <ns3:atemp>16.0</ns3:atemp>
            <ns3:hr>127</ns3:hr>
          </ns3:TrackPointExtension>
        </extensions>
      </trkpt>
      <trkpt lat="46.67974940501153469085693359375" lon="6.8899399973452091217041015625">
        <ele>683.5999755859375</ele>
        <time>2013-08-15T17:50:35.000Z</time>
        <extensions>
          <ns3:TrackPointExtension>
            <ns3:atemp>16.0</ns3:atemp>
            <ns3:hr>126</ns3:hr>
          </ns3:TrackPointExtension>
        </extensions>
      </trkpt>
      <trkpt lat="46.67972694151103496551513671875" lon="6.890044771134853363037109375">
        <ele>683</ele>
        <time>2013-08-15T17:50:36.000Z</time>
        <extensions>
          <ns3:TrackPointExtension>
            <ns3:atemp>16.0</ns3:atemp>
            <ns3:hr>126</ns3:hr>
          </ns3:TrackPointExtension>
        </extensions>
      </trkpt>
      <trkpt lat="46.6796668432652950286865234375" lon="6.890126578509807586669921875">
        <ele>682.5999755859375</ele>
        <time>2013-08-15T17:50:37.000Z</time>
        <extensions>
          <ns3:TrackPointExtension>
            <ns3:atemp>16.0</ns3:atemp>
            <ns3:hr>125</ns3:hr>
          </ns3:TrackPointExtension>
        </extensions>
      </trkpt>
      <trkpt lat="46.67959635145962238311767578125" lon="6.89018013887107372283935546875">
        <ele>681.79998779296875</ele>
        <time>2013-08-15T17:50:38.000Z</time>
        <extensions>
          <ns3:TrackPointExtension>
            <ns3:atemp>16.0</ns3:atemp>
            <ns3:hr>125</ns3:hr>
          </ns3:TrackPointExtension>
        </extensions>
      </trkpt>
      <trkpt lat="46.67952510528266429901123046875" lon="6.8902476131916046142578125">
        <ele>681.5999755859375</ele>
        <time>2013-08-15T17:50:39.000Z</time>
        <extensions>
          <ns3:TrackPointExtension>
            <ns3:atemp>16.0</ns3:atemp>
            <ns3:hr>125</ns3:hr>
          </ns3:TrackPointExtension>
        </extensions>
      </trkpt>
      <trkpt lat="46.6794636659324169158935546875" lon="6.89033553935587406158447265625">
        <ele>681.20001220703125</ele>
        <time>2013-08-15T17:50:40.000Z</time>
        <extensions>
          <ns3:TrackPointExtension>
            <ns3:atemp>16.0</ns3:atemp>
            <ns3:hr>125</ns3:hr>
          </ns3:TrackPointExtension>
        </extensions>
      </trkpt>
      <trkpt lat="46.679410524666309356689453125" lon="6.89044006168842315673828125">
        <ele>681.20001220703125</ele>
        <time>2013-08-15T17:50:41.000Z</time>
        <extensions>
          <ns3:TrackPointExtension>
            <ns3:atemp>16.0</ns3:atemp>
            <ns3:hr>125</ns3:hr>
          </ns3:TrackPointExtension>
        </extensions>
      </trkpt>
      <trkpt lat="46.679357551038265228271484375" lon="6.890551708638668060302734375">
        <ele>681</ele>
        <time>2013-08-15T17:50:42.000Z</time>
        <extensions>
          <ns3:TrackPointExtension>
            <ns3:atemp>16.0</ns3:atemp>
            <ns3:hr>125</ns3:hr>
          </ns3:TrackPointExtension>
        </extensions>
      </trkpt>
      <trkpt lat="46.67930499650537967681884765625" lon="6.89067098312079906463623046875">
        <ele>681</ele>
        <time>2013-08-15T17:50:43.000Z</time>
        <extensions>
          <ns3:TrackPointExtension>
            <ns3:atemp>16.0</ns3:atemp>
            <ns3:hr>125</ns3:hr>
          </ns3:TrackPointExtension>
        </extensions>
      </trkpt>
      <trkpt lat="46.6792574711143970489501953125" lon="6.8907921016216278076171875">
        <ele>680.79998779296875</ele>
        <time>2013-08-15T17:50:44.000Z</time>
        <extensions>
          <ns3:TrackPointExtension>
            <ns3:atemp>16.0</ns3:atemp>
            <ns3:hr>124</ns3:hr>
          </ns3:TrackPointExtension>
        </extensions>
      </trkpt>
      <trkpt lat="46.679216735064983367919921875" lon="6.8909230269491672515869140625">
        <ele>680.4000244140625</ele>
        <time>2013-08-15T17:50:45.000Z</time>
        <extensions>
          <ns3:TrackPointExtension>
            <ns3:atemp>16.0</ns3:atemp>
            <ns3:hr>123</ns3:hr>
          </ns3:TrackPointExtension>
        </extensions>
      </trkpt>
      <trkpt lat="46.6791860572993755340576171875" lon="6.89105738885700702667236328125">
        <ele>679.79998779296875</ele>
        <time>2013-08-15T17:50:46.000Z</time>
        <extensions>
          <ns3:TrackPointExtension>
            <ns3:atemp>16.0</ns3:atemp>
            <ns3:hr>122</ns3:hr>
          </ns3:TrackPointExtension>
        </extensions>
      </trkpt>
      <trkpt lat="46.67915873229503631591796875" lon="6.89119636081159114837646484375">
        <ele>679.20001220703125</ele>
        <time>2013-08-15T17:50:47.000Z</time>
        <extensions>
          <ns3:TrackPointExtension>
            <ns3:atemp>16.0</ns3:atemp>
            <ns3:hr>121</ns3:hr>
          </ns3:TrackPointExtension>
        </extensions>
      </trkpt>
      <trkpt lat="46.6791411302983760833740234375" lon="6.8913411162793636322021484375">
        <ele>678.79998779296875</ele>
        <time>2013-08-15T17:50:48.000Z</time>
        <extensions>
          <ns3:TrackPointExtension>
            <ns3:atemp>16.0</ns3:atemp>
            <ns3:hr>119</ns3:hr>
          </ns3:TrackPointExtension>
        </extensions>
      </trkpt>
      <trkpt lat="46.679126210510730743408203125" lon="6.891487129032611846923828125">
        <ele>678.20001220703125</ele>
        <time>2013-08-15T17:50:49.000Z</time>
        <extensions>
          <ns3:TrackPointExtension>
            <ns3:atemp>16.0</ns3:atemp>
            <ns3:hr>119</ns3:hr>
          </ns3:TrackPointExtension>
        </extensions>
      </trkpt>
      <trkpt lat="46.6791159845888614654541015625" lon="6.89163406379520893096923828125">
        <ele>678</ele>
        <time>2013-08-15T17:50:50.000Z</time>
        <extensions>
          <ns3:TrackPointExtension>
            <ns3:atemp>16.0</ns3:atemp>
            <ns3:hr>118</ns3:hr>
          </ns3:TrackPointExtension>
        </extensions>
      </trkpt>
      <trkpt lat="46.67910198681056499481201171875" lon="6.891777813434600830078125">
        <ele>677.5999755859375</ele>
        <time>2013-08-15T17:50:51.000Z</time>
        <extensions>
          <ns3:TrackPointExtension>
            <ns3:atemp>16.0</ns3:atemp>
            <ns3:hr>118</ns3:hr>
          </ns3:TrackPointExtension>
        </extensions>
      </trkpt>
      <trkpt lat="46.67908840812742710113525390625" lon="6.891918294131755828857421875">
        <ele>677.4000244140625</ele>
        <time>2013-08-15T17:50:52.000Z</time>
        <extensions>
          <ns3:TrackPointExtension>
            <ns3:atemp>16.0</ns3:atemp>
            <ns3:hr>118</ns3:hr>
          </ns3:TrackPointExtension>
        </extensions>
      </trkpt>
      <trkpt lat="46.679079271852970123291015625" lon="6.8920579366385936737060546875">
        <ele>677</ele>
        <time>2013-08-15T17:50:53.000Z</time>
        <extensions>
          <ns3:TrackPointExtension>
            <ns3:atemp>16.0</ns3:atemp>
            <ns3:hr>117</ns3:hr>
          </ns3:TrackPointExtension>
        </extensions>
      </trkpt>
      <trkpt lat="46.67907692492008209228515625" lon="6.89220068044960498809814453125">
        <ele>676.5999755859375</ele>
        <time>2013-08-15T17:50:54.000Z</time>
        <extensions>
          <ns3:TrackPointExtension>
            <ns3:atemp>16.0</ns3:atemp>
            <ns3:hr>117</ns3:hr>
          </ns3:TrackPointExtension>
        </extensions>
      </trkpt>
      <trkpt lat="46.679077930748462677001953125" lon="6.89234619028866291046142578125">
        <ele>676.20001220703125</ele>
        <time>2013-08-15T17:50:55.000Z</time>
        <extensions>
          <ns3:TrackPointExtension>
            <ns3:atemp>16.0</ns3:atemp>
            <ns3:hr>117</ns3:hr>
          </ns3:TrackPointExtension>
        </extensions>
      </trkpt>
      <trkpt lat="46.67907156050205230712890625" lon="6.892493627965450286865234375">
        <ele>675.79998779296875</ele>
        <time>2013-08-15T17:50:56.000Z</time>
        <extensions>
          <ns3:TrackPointExtension>
            <ns3:atemp>16.0</ns3:atemp>
            <ns3:hr>116</ns3:hr>
          </ns3:TrackPointExtension>
        </extensions>
      </trkpt>
      <trkpt lat="46.67904180474579334259033203125" lon="6.89262765459716320037841796875">
        <ele>674</ele>
        <time>2013-08-15T17:50:57.000Z</time>
        <extensions>
          <ns3:TrackPointExtension>
            <ns3:atemp>16.0</ns3:atemp>
            <ns3:hr>115</ns3:hr>
          </ns3:TrackPointExtension>
        </extensions>
      </trkpt>
      <trkpt lat="46.67899067513644695281982421875" lon="6.89274701289832592010498046875">
        <ele>672.5999755859375</ele>
        <time>2013-08-15T17:50:58.000Z</time>
        <extensions>
          <ns3:TrackPointExtension>
            <ns3:atemp>16.0</ns3:atemp>
            <ns3:hr>114</ns3:hr>
          </ns3:TrackPointExtension>
        </extensions>
      </trkpt>
      <trkpt lat="46.67891289107501506805419921875" lon="6.8928458355367183685302734375">
        <ele>671.79998779296875</ele>
        <time>2013-08-15T17:50:59.000Z</time>
        <extensions>
          <ns3:TrackPointExtension>
            <ns3:atemp>16.0</ns3:atemp>
            <ns3:hr>113</ns3:hr>
          </ns3:TrackPointExtension>
        </extensions>
      </trkpt>
      <trkpt lat="46.67881750501692295074462890625" lon="6.89290811307728290557861328125">
        <ele>671</ele>
        <time>2013-08-15T17:51:00.000Z</time>
        <extensions>
          <ns3:TrackPointExtension>
            <ns3:atemp>16.0</ns3:atemp>
            <ns3:hr>112</ns3:hr>
          </ns3:TrackPointExtension>
        </extensions>
      </trkpt>
      <trkpt lat="46.67870770208537578582763671875" lon="6.89291917718946933746337890625">
        <ele>670.20001220703125</ele>
        <time>2013-08-15T17:51:01.000Z</time>
        <extensions>
          <ns3:TrackPointExtension>
            <ns3:atemp>16.0</ns3:atemp>
            <ns3:hr>110</ns3:hr>
          </ns3:TrackPointExtension>
        </extensions>
      </trkpt>
      <trkpt lat="46.678614914417266845703125" lon="6.89289587549865245819091796875">
        <ele>669</ele>
        <time>2013-08-15T17:51:02.000Z</time>
        <extensions>
          <ns3:TrackPointExtension>
            <ns3:atemp>16.0</ns3:atemp>
            <ns3:hr>109</ns3:hr>
          </ns3:TrackPointExtension>
        </extensions>
      </trkpt>
      <trkpt lat="46.67853117920458316802978515625" lon="6.89284675754606723785400390625">
        <ele>668.20001220703125</ele>
        <time>2013-08-15T17:51:03.000Z</time>
        <extensions>
          <ns3:TrackPointExtension>
            <ns3:atemp>16.0</ns3:atemp>
            <ns3:hr>109</ns3:hr>
          </ns3:TrackPointExtension>
        </extensions>
      </trkpt>
      <trkpt lat="46.67845825664699077606201171875" lon="6.89278540201485157012939453125">
        <ele>667.20001220703125</ele>
        <time>2013-08-15T17:51:04.000Z</time>
        <extensions>
          <ns3:TrackPointExtension>
            <ns3:atemp>16.0</ns3:atemp>
            <ns3:hr>108</ns3:hr>
          </ns3:TrackPointExtension>
        </extensions>
      </trkpt>
      <trkpt lat="46.67839857749640941619873046875" lon="6.89273980446159839630126953125">
        <ele>666.5999755859375</ele>
        <time>2013-08-15T17:51:05.000Z</time>
        <extensions>
          <ns3:TrackPointExtension>
            <ns3:atemp>16.0</ns3:atemp>
            <ns3:hr>108</ns3:hr>
          </ns3:TrackPointExtension>
        </extensions>
      </trkpt>
      <trkpt lat="46.6783421672880649566650390625" lon="6.8927231244742870330810546875">
        <ele>665.79998779296875</ele>
        <time>2013-08-15T17:51:06.000Z</time>
        <extensions>
          <ns3:TrackPointExtension>
            <ns3:atemp>16.0</ns3:atemp>
            <ns3:hr>109</ns3:hr>
          </ns3:TrackPointExtension>
        </extensions>
      </trkpt>
      <trkpt lat="46.67829564772546291351318359375" lon="6.89272069372236728668212890625">
        <ele>665</ele>
        <time>2013-08-15T17:51:07.000Z</time>
        <extensions>
          <ns3:TrackPointExtension>
            <ns3:atemp>16.0</ns3:atemp>
            <ns3:hr>109</ns3:hr>
          </ns3:TrackPointExtension>
        </extensions>
      </trkpt>
      <trkpt lat="46.67826899327337741851806640625" lon="6.892720945179462432861328125">
        <ele>664.20001220703125</ele>
        <time>2013-08-15T17:51:08.000Z</time>
        <extensions>
          <ns3:TrackPointExtension>
            <ns3:atemp>16.0</ns3:atemp>
            <ns3:hr>109</ns3:hr>
          </ns3:TrackPointExtension>
        </extensions>
      </trkpt>
      <trkpt lat="46.678255498409271240234375" lon="6.89271398819983005523681640625">
        <ele>663.4000244140625</ele>
        <time>2013-08-15T17:51:09.000Z</time>
        <extensions>
          <ns3:TrackPointExtension>
            <ns3:atemp>16.0</ns3:atemp>
            <ns3:hr>108</ns3:hr>
          </ns3:TrackPointExtension>
        </extensions>
      </trkpt>
      <trkpt lat="46.67825038544833660125732421875" lon="6.8927083723247051239013671875">
        <ele>662.79998779296875</ele>
        <time>2013-08-15T17:51:10.000Z</time>
        <extensions>
          <ns3:TrackPointExtension>
            <ns3:atemp>16.0</ns3:atemp>
            <ns3:hr>108</ns3:hr>
          </ns3:TrackPointExtension>
        </extensions>
      </trkpt>
      <trkpt lat="46.67826027609407901763916015625" lon="6.892714239656925201416015625">
        <ele>662.5999755859375</ele>
        <time>2013-08-15T17:51:11.000Z</time>
        <extensions>
          <ns3:TrackPointExtension>
            <ns3:atemp>16.0</ns3:atemp>
            <ns3:hr>108</ns3:hr>
          </ns3:TrackPointExtension>
        </extensions>
      </trkpt>
      <trkpt lat="46.67825189419090747833251953125" lon="6.8927050195634365081787109375">
        <ele>662.5999755859375</ele>
        <time>2013-08-15T17:51:12.000Z</time>
        <extensions>
          <ns3:TrackPointExtension>
            <ns3:atemp>16.0</ns3:atemp>
            <ns3:hr>108</ns3:hr>
          </ns3:TrackPointExtension>
        </extensions>
      </trkpt>
      <trkpt lat="46.67825189419090747833251953125" lon="6.8927050195634365081787109375">
        <ele>662.4000244140625</ele>
        <time>2013-08-15T17:51:13.000Z</time>
        <extensions>
          <ns3:TrackPointExtension>
            <ns3:atemp>16.0</ns3:atemp>
            <ns3:hr>109</ns3:hr>
          </ns3:TrackPointExtension>
        </extensions>
      </trkpt>
      <trkpt lat="46.67825189419090747833251953125" lon="6.8927050195634365081787109375">
        <ele>662</ele>
        <time>2013-08-15T17:51:14.000Z</time>
        <extensions>
          <ns3:TrackPointExtension>
            <ns3:atemp>16.0</ns3:atemp>
            <ns3:hr>109</ns3:hr>
          </ns3:TrackPointExtension>
        </extensions>
      </trkpt>
      <trkpt lat="46.67825189419090747833251953125" lon="6.8927050195634365081787109375">
        <ele>661.79998779296875</ele>
        <time>2013-08-15T17:51:15.000Z</time>
        <extensions>
          <ns3:TrackPointExtension>
            <ns3:atemp>16.0</ns3:atemp>
            <ns3:hr>109</ns3:hr>
          </ns3:TrackPointExtension>
        </extensions>
      </trkpt>
      <trkpt lat="46.67825189419090747833251953125" lon="6.8927050195634365081787109375">
        <ele>661.79998779296875</ele>
        <time>2013-08-15T17:51:16.000Z</time>
        <extensions>
          <ns3:TrackPointExtension>
            <ns3:atemp>16.0</ns3:atemp>
            <ns3:hr>110</ns3:hr>
          </ns3:TrackPointExtension>
        </extensions>
      </trkpt>
      <trkpt lat="46.67825189419090747833251953125" lon="6.8927050195634365081787109375">
        <ele>661.79998779296875</ele>
        <time>2013-08-15T17:51:17.000Z</time>
        <extensions>
          <ns3:TrackPointExtension>
            <ns3:atemp>16.0</ns3:atemp>
            <ns3:hr>109</ns3:hr>
          </ns3:TrackPointExtension>
        </extensions>
      </trkpt>
      <trkpt lat="46.67825189419090747833251953125" lon="6.8927050195634365081787109375">
        <ele>661.5999755859375</ele>
        <time>2013-08-15T17:51:18.000Z</time>
        <extensions>
          <ns3:TrackPointExtension>
            <ns3:atemp>16.0</ns3:atemp>
            <ns3:hr>110</ns3:hr>
          </ns3:TrackPointExtension>
        </extensions>
      </trkpt>
      <trkpt lat="46.67825189419090747833251953125" lon="6.8927050195634365081787109375">
        <ele>661.79998779296875</ele>
        <time>2013-08-15T17:51:19.000Z</time>
        <extensions>
          <ns3:TrackPointExtension>
            <ns3:atemp>16.0</ns3:atemp>
            <ns3:hr>110</ns3:hr>
          </ns3:TrackPointExtension>
        </extensions>
      </trkpt>
      <trkpt lat="46.67825189419090747833251953125" lon="6.8927050195634365081787109375">
        <ele>661.5999755859375</ele>
        <time>2013-08-15T17:51:20.000Z</time>
        <extensions>
          <ns3:TrackPointExtension>
            <ns3:atemp>16.0</ns3:atemp>
            <ns3:hr>110</ns3:hr>
          </ns3:TrackPointExtension>
        </extensions>
      </trkpt>
      <trkpt lat="46.67825189419090747833251953125" lon="6.8927050195634365081787109375">
        <ele>661.5999755859375</ele>
        <time>2013-08-15T17:51:21.000Z</time>
        <extensions>
          <ns3:TrackPointExtension>
            <ns3:atemp>16.0</ns3:atemp>
            <ns3:hr>110</ns3:hr>
          </ns3:TrackPointExtension>
        </extensions>
      </trkpt>
      <trkpt lat="46.67825189419090747833251953125" lon="6.8927050195634365081787109375">
        <ele>661.5999755859375</ele>
        <time>2013-08-15T17:51:22.000Z</time>
        <extensions>
          <ns3:TrackPointExtension>
            <ns3:atemp>16.0</ns3:atemp>
            <ns3:hr>109</ns3:hr>
          </ns3:TrackPointExtension>
        </extensions>
      </trkpt>
      <trkpt lat="46.67825189419090747833251953125" lon="6.8927050195634365081787109375">
        <ele>661.5999755859375</ele>
        <time>2013-08-15T17:51:23.000Z</time>
        <extensions>
          <ns3:TrackPointExtension>
            <ns3:atemp>16.0</ns3:atemp>
            <ns3:hr>108</ns3:hr>
          </ns3:TrackPointExtension>
        </extensions>
      </trkpt>
      <trkpt lat="46.67825189419090747833251953125" lon="6.8927050195634365081787109375">
        <ele>661.79998779296875</ele>
        <time>2013-08-15T17:51:24.000Z</time>
        <extensions>
          <ns3:TrackPointExtension>
            <ns3:atemp>16.0</ns3:atemp>
            <ns3:hr>107</ns3:hr>
          </ns3:TrackPointExtension>
        </extensions>
      </trkpt>
      <trkpt lat="46.67825189419090747833251953125" lon="6.8927050195634365081787109375">
        <ele>661.79998779296875</ele>
        <time>2013-08-15T17:51:25.000Z</time>
        <extensions>
          <ns3:TrackPointExtension>
            <ns3:atemp>16.0</ns3:atemp>
            <ns3:hr>106</ns3:hr>
          </ns3:TrackPointExtension>
        </extensions>
      </trkpt>
      <trkpt lat="46.67825189419090747833251953125" lon="6.8927050195634365081787109375">
        <ele>661.79998779296875</ele>
        <time>2013-08-15T17:51:26.000Z</time>
        <extensions>
          <ns3:TrackPointExtension>
            <ns3:atemp>16.0</ns3:atemp>
            <ns3:hr>106</ns3:hr>
          </ns3:TrackPointExtension>
        </extensions>
      </trkpt>
      <trkpt lat="46.67825189419090747833251953125" lon="6.8927050195634365081787109375">
        <ele>661.79998779296875</ele>
        <time>2013-08-15T17:51:27.000Z</time>
        <extensions>
          <ns3:TrackPointExtension>
            <ns3:atemp>16.0</ns3:atemp>
            <ns3:hr>105</ns3:hr>
          </ns3:TrackPointExtension>
        </extensions>
      </trkpt>
      <trkpt lat="46.67825189419090747833251953125" lon="6.8927050195634365081787109375">
        <ele>661.79998779296875</ele>
        <time>2013-08-15T17:51:28.000Z</time>
        <extensions>
          <ns3:TrackPointExtension>
            <ns3:atemp>16.0</ns3:atemp>
            <ns3:hr>104</ns3:hr>
          </ns3:TrackPointExtension>
        </extensions>
      </trkpt>
      <trkpt lat="46.67825189419090747833251953125" lon="6.8927050195634365081787109375">
        <ele>661.5999755859375</ele>
        <time>2013-08-15T17:51:29.000Z</time>
        <extensions>
          <ns3:TrackPointExtension>
            <ns3:atemp>16.0</ns3:atemp>
            <ns3:hr>104</ns3:hr>
          </ns3:TrackPointExtension>
        </extensions>
      </trkpt>
      <trkpt lat="46.67825189419090747833251953125" lon="6.8927050195634365081787109375">
        <ele>661.5999755859375</ele>
        <time>2013-08-15T17:51:30.000Z</time>
        <extensions>
          <ns3:TrackPointExtension>
            <ns3:atemp>16.0</ns3:atemp>
            <ns3:hr>104</ns3:hr>
          </ns3:TrackPointExtension>
        </extensions>
      </trkpt>
      <trkpt lat="46.67825189419090747833251953125" lon="6.8927050195634365081787109375">
        <ele>661.5999755859375</ele>
        <time>2013-08-15T17:51:31.000Z</time>
        <extensions>
          <ns3:TrackPointExtension>
            <ns3:atemp>16.0</ns3:atemp>
            <ns3:hr>104</ns3:hr>
          </ns3:TrackPointExtension>
        </extensions>
      </trkpt>
      <trkpt lat="46.67825189419090747833251953125" lon="6.8927050195634365081787109375">
        <ele>661.5999755859375</ele>
        <time>2013-08-15T17:51:32.000Z</time>
        <extensions>
          <ns3:TrackPointExtension>
            <ns3:atemp>16.0</ns3:atemp>
            <ns3:hr>104</ns3:hr>
          </ns3:TrackPointExtension>
        </extensions>
      </trkpt>
      <trkpt lat="46.67825189419090747833251953125" lon="6.8927050195634365081787109375">
        <ele>661.5999755859375</ele>
        <time>2013-08-15T17:51:33.000Z</time>
        <extensions>
          <ns3:TrackPointExtension>
            <ns3:atemp>16.0</ns3:atemp>
            <ns3:hr>104</ns3:hr>
          </ns3:TrackPointExtension>
        </extensions>
      </trkpt>
      <trkpt lat="46.67825189419090747833251953125" lon="6.8927050195634365081787109375">
        <ele>661.5999755859375</ele>
        <time>2013-08-15T17:51:34.000Z</time>
        <extensions>
          <ns3:TrackPointExtension>
            <ns3:atemp>16.0</ns3:atemp>
            <ns3:hr>104</ns3:hr>
          </ns3:TrackPointExtension>
        </extensions>
      </trkpt>
      <trkpt lat="46.67825189419090747833251953125" lon="6.8927050195634365081787109375">
        <ele>661.5999755859375</ele>
        <time>2013-08-15T17:51:35.000Z</time>
        <extensions>
          <ns3:TrackPointExtension>
            <ns3:atemp>16.0</ns3:atemp>
            <ns3:hr>104</ns3:hr>
          </ns3:TrackPointExtension>
        </extensions>
      </trkpt>
      <trkpt lat="46.67825189419090747833251953125" lon="6.8927050195634365081787109375">
        <ele>661.5999755859375</ele>
        <time>2013-08-15T17:51:36.000Z</time>
        <extensions>
          <ns3:TrackPointExtension>
            <ns3:atemp>16.0</ns3:atemp>
            <ns3:hr>102</ns3:hr>
          </ns3:TrackPointExtension>
        </extensions>
      </trkpt>
      <trkpt lat="46.67825189419090747833251953125" lon="6.8927050195634365081787109375">
        <ele>661.5999755859375</ele>
        <time>2013-08-15T17:51:37.000Z</time>
        <extensions>
          <ns3:TrackPointExtension>
            <ns3:atemp>16.0</ns3:atemp>
            <ns3:hr>101</ns3:hr>
          </ns3:TrackPointExtension>
        </extensions>
      </trkpt>
      <trkpt lat="46.67825189419090747833251953125" lon="6.8927050195634365081787109375">
        <ele>661.79998779296875</ele>
        <time>2013-08-15T17:51:38.000Z</time>
        <extensions>
          <ns3:TrackPointExtension>
            <ns3:atemp>16.0</ns3:atemp>
            <ns3:hr>101</ns3:hr>
          </ns3:TrackPointExtension>
        </extensions>
      </trkpt>
      <trkpt lat="46.67825189419090747833251953125" lon="6.8927050195634365081787109375">
        <ele>661.5999755859375</ele>
        <time>2013-08-15T17:51:39.000Z</time>
        <extensions>
          <ns3:TrackPointExtension>
            <ns3:atemp>16.0</ns3:atemp>
            <ns3:hr>102</ns3:hr>
          </ns3:TrackPointExtension>
        </extensions>
      </trkpt>
      <trkpt lat="46.67825189419090747833251953125" lon="6.8927050195634365081787109375">
        <ele>661.5999755859375</ele>
        <time>2013-08-15T17:51:40.000Z</time>
        <extensions>
          <ns3:TrackPointExtension>
            <ns3:atemp>16.0</ns3:atemp>
            <ns3:hr>102</ns3:hr>
          </ns3:TrackPointExtension>
        </extensions>
      </trkpt>
      <trkpt lat="46.67825189419090747833251953125" lon="6.8927050195634365081787109375">
        <ele>661.5999755859375</ele>
        <time>2013-08-15T17:51:41.000Z</time>
        <extensions>
          <ns3:TrackPointExtension>
            <ns3:atemp>16.0</ns3:atemp>
            <ns3:hr>103</ns3:hr>
          </ns3:TrackPointExtension>
        </extensions>
      </trkpt>
      <trkpt lat="46.67825189419090747833251953125" lon="6.8927050195634365081787109375">
        <ele>661.5999755859375</ele>
        <time>2013-08-15T17:51:42.000Z</time>
        <extensions>
          <ns3:TrackPointExtension>
            <ns3:atemp>16.0</ns3:atemp>
            <ns3:hr>104</ns3:hr>
          </ns3:TrackPointExtension>
        </extensions>
      </trkpt>
      <trkpt lat="46.67825189419090747833251953125" lon="6.8927050195634365081787109375">
        <ele>661.5999755859375</ele>
        <time>2013-08-15T17:51:43.000Z</time>
        <extensions>
          <ns3:TrackPointExtension>
            <ns3:atemp>16.0</ns3:atemp>
            <ns3:hr>106</ns3:hr>
          </ns3:TrackPointExtension>
        </extensions>
      </trkpt>
      <trkpt lat="46.67825189419090747833251953125" lon="6.8927050195634365081787109375">
        <ele>661.5999755859375</ele>
        <time>2013-08-15T17:51:44.000Z</time>
        <extensions>
          <ns3:TrackPointExtension>
            <ns3:atemp>16.0</ns3:atemp>
            <ns3:hr>106</ns3:hr>
          </ns3:TrackPointExtension>
        </extensions>
      </trkpt>
      <trkpt lat="46.67825189419090747833251953125" lon="6.8927050195634365081787109375">
        <ele>661.5999755859375</ele>
        <time>2013-08-15T17:51:45.000Z</time>
        <extensions>
          <ns3:TrackPointExtension>
            <ns3:atemp>16.0</ns3:atemp>
            <ns3:hr>107</ns3:hr>
          </ns3:TrackPointExtension>
        </extensions>
      </trkpt>
      <trkpt lat="46.67825189419090747833251953125" lon="6.8927050195634365081787109375">
        <ele>661.5999755859375</ele>
        <time>2013-08-15T17:51:46.000Z</time>
        <extensions>
          <ns3:TrackPointExtension>
            <ns3:atemp>16.0</ns3:atemp>
            <ns3:hr>107</ns3:hr>
          </ns3:TrackPointExtension>
        </extensions>
      </trkpt>
      <trkpt lat="46.67825189419090747833251953125" lon="6.8927050195634365081787109375">
        <ele>661.5999755859375</ele>
        <time>2013-08-15T17:51:47.000Z</time>
        <extensions>
          <ns3:TrackPointExtension>
            <ns3:atemp>16.0</ns3:atemp>
            <ns3:hr>106</ns3:hr>
          </ns3:TrackPointExtension>
        </extensions>
      </trkpt>
      <trkpt lat="46.67825189419090747833251953125" lon="6.8927050195634365081787109375">
        <ele>661.79998779296875</ele>
        <time>2013-08-15T17:51:48.000Z</time>
        <extensions>
          <ns3:TrackPointExtension>
            <ns3:atemp>16.0</ns3:atemp>
            <ns3:hr>105</ns3:hr>
          </ns3:TrackPointExtension>
        </extensions>
      </trkpt>
      <trkpt lat="46.67825189419090747833251953125" lon="6.8927050195634365081787109375">
        <ele>661.79998779296875</ele>
        <time>2013-08-15T17:51:49.000Z</time>
        <extensions>
          <ns3:TrackPointExtension>
            <ns3:atemp>16.0</ns3:atemp>
            <ns3:hr>104</ns3:hr>
          </ns3:TrackPointExtension>
        </extensions>
      </trkpt>
      <trkpt lat="46.67825189419090747833251953125" lon="6.8927050195634365081787109375">
        <ele>661.79998779296875</ele>
        <time>2013-08-15T17:51:50.000Z</time>
        <extensions>
          <ns3:TrackPointExtension>
            <ns3:atemp>16.0</ns3:atemp>
            <ns3:hr>103</ns3:hr>
          </ns3:TrackPointExtension>
        </extensions>
      </trkpt>
      <trkpt lat="46.67825189419090747833251953125" lon="6.8927050195634365081787109375">
        <ele>661.5999755859375</ele>
        <time>2013-08-15T17:51:51.000Z</time>
        <extensions>
          <ns3:TrackPointExtension>
            <ns3:atemp>16.0</ns3:atemp>
            <ns3:hr>103</ns3:hr>
          </ns3:TrackPointExtension>
        </extensions>
      </trkpt>
      <trkpt lat="46.67825172655284404754638671875" lon="6.89270124770700931549072265625">
        <ele>661.79998779296875</ele>
        <time>2013-08-15T17:51:52.000Z</time>
        <extensions>
          <ns3:TrackPointExtension>
            <ns3:atemp>16.0</ns3:atemp>
            <ns3:hr>102</ns3:hr>
          </ns3:TrackPointExtension>
        </extensions>
      </trkpt>
      <trkpt lat="46.67825172655284404754638671875" lon="6.89270124770700931549072265625">
        <ele>661.79998779296875</ele>
        <time>2013-08-15T17:51:53.000Z</time>
        <extensions>
          <ns3:TrackPointExtension>
            <ns3:atemp>16.0</ns3:atemp>
            <ns3:hr>101</ns3:hr>
          </ns3:TrackPointExtension>
        </extensions>
      </trkpt>
      <trkpt lat="46.67825172655284404754638671875" lon="6.89270124770700931549072265625">
        <ele>662</ele>
        <time>2013-08-15T17:51:54.000Z</time>
        <extensions>
          <ns3:TrackPointExtension>
            <ns3:atemp>16.0</ns3:atemp>
            <ns3:hr>101</ns3:hr>
          </ns3:TrackPointExtension>
        </extensions>
      </trkpt>
      <trkpt lat="46.67825172655284404754638671875" lon="6.89270124770700931549072265625">
        <ele>662.4000244140625</ele>
        <time>2013-08-15T17:51:55.000Z</time>
        <extensions>
          <ns3:TrackPointExtension>
            <ns3:atemp>16.0</ns3:atemp>
            <ns3:hr>102</ns3:hr>
          </ns3:TrackPointExtension>
        </extensions>
      </trkpt>
      <trkpt lat="46.67824275791645050048828125" lon="6.89271164126694202423095703125">
        <ele>662.4000244140625</ele>
        <time>2013-08-15T17:51:56.000Z</time>
        <extensions>
          <ns3:TrackPointExtension>
            <ns3:atemp>16.0</ns3:atemp>
            <ns3:hr>103</ns3:hr>
          </ns3:TrackPointExtension>
        </extensions>
      </trkpt>
      <trkpt lat="46.67821903713047504425048828125" lon="6.8927351944148540496826171875">
        <ele>662.4000244140625</ele>
        <time>2013-08-15T17:51:57.000Z</time>
        <extensions>
          <ns3:TrackPointExtension>
            <ns3:atemp>16.0</ns3:atemp>
            <ns3:hr>104</ns3:hr>
          </ns3:TrackPointExtension>
        </extensions>
      </trkpt>
      <trkpt lat="46.678185760974884033203125" lon="6.892764531075954437255859375">
        <ele>662.4000244140625</ele>
        <time>2013-08-15T17:51:58.000Z</time>
        <extensions>
          <ns3:TrackPointExtension>
            <ns3:atemp>16.0</ns3:atemp>
            <ns3:hr>105</ns3:hr>
          </ns3:TrackPointExtension>
        </extensions>
      </trkpt>
      <trkpt lat="46.678149886429309844970703125" lon="6.8927821330726146697998046875">
        <ele>662.4000244140625</ele>
        <time>2013-08-15T17:51:59.000Z</time>
        <extensions>
          <ns3:TrackPointExtension>
            <ns3:atemp>16.0</ns3:atemp>
            <ns3:hr>105</ns3:hr>
          </ns3:TrackPointExtension>
        </extensions>
      </trkpt>
      <trkpt lat="46.678105629980564117431640625" lon="6.89280417747795581817626953125">
        <ele>662.4000244140625</ele>
        <time>2013-08-15T17:52:00.000Z</time>
        <extensions>
          <ns3:TrackPointExtension>
            <ns3:atemp>16.0</ns3:atemp>
            <ns3:hr>105</ns3:hr>
          </ns3:TrackPointExtension>
        </extensions>
      </trkpt>
      <trkpt lat="46.6780705936253070831298828125" lon="6.89285011030733585357666015625">
        <ele>662.5999755859375</ele>
        <time>2013-08-15T17:52:01.000Z</time>
        <extensions>
          <ns3:TrackPointExtension>
            <ns3:atemp>16.0</ns3:atemp>
            <ns3:hr>106</ns3:hr>
          </ns3:TrackPointExtension>
        </extensions>
      </trkpt>
      <trkpt lat="46.678045950829982757568359375" lon="6.8928931094706058502197265625">
        <ele>662.5999755859375</ele>
        <time>2013-08-15T17:52:02.000Z</time>
        <extensions>
          <ns3:TrackPointExtension>
            <ns3:atemp>16.0</ns3:atemp>
            <ns3:hr>106</ns3:hr>
          </ns3:TrackPointExtension>
        </extensions>
      </trkpt>
      <trkpt lat="46.67802373878657817840576171875" lon="6.892948932945728302001953125">
        <ele>662.5999755859375</ele>
        <time>2013-08-15T17:52:03.000Z</time>
        <extensions>
          <ns3:TrackPointExtension>
            <ns3:atemp>16.0</ns3:atemp>
            <ns3:hr>106</ns3:hr>
          </ns3:TrackPointExtension>
        </extensions>
      </trkpt>
      <trkpt lat="46.6780058853328227996826171875" lon="6.89300836063921451568603515625">
        <ele>662.5999755859375</ele>
        <time>2013-08-15T17:52:04.000Z</time>
        <extensions>
          <ns3:TrackPointExtension>
            <ns3:atemp>16.0</ns3:atemp>
            <ns3:hr>107</ns3:hr>
          </ns3:TrackPointExtension>
        </extensions>
      </trkpt>
      <trkpt lat="46.67799222283065319061279296875" lon="6.8930620886385440826416015625">
        <ele>662.79998779296875</ele>
        <time>2013-08-15T17:52:05.000Z</time>
        <extensions>
          <ns3:TrackPointExtension>
            <ns3:atemp>16.0</ns3:atemp>
            <ns3:hr>107</ns3:hr>
          </ns3:TrackPointExtension>
        </extensions>
      </trkpt>
      <trkpt lat="46.67798166163265705108642578125" lon="6.89311665482819080352783203125">
        <ele>663</ele>
        <time>2013-08-15T17:52:06.000Z</time>
        <extensions>
          <ns3:TrackPointExtension>
            <ns3:atemp>16.0</ns3:atemp>
            <ns3:hr>109</ns3:hr>
          </ns3:TrackPointExtension>
        </extensions>
      </trkpt>
      <trkpt lat="46.6779763810336589813232421875" lon="6.893170215189456939697265625">
        <ele>663.4000244140625</ele>
        <time>2013-08-15T17:52:07.000Z</time>
        <extensions>
          <ns3:TrackPointExtension>
            <ns3:atemp>16.0</ns3:atemp>
            <ns3:hr>110</ns3:hr>
          </ns3:TrackPointExtension>
        </extensions>
      </trkpt>
      <trkpt lat="46.67797897942364215850830078125" lon="6.89321614801883697509765625">
        <ele>663.79998779296875</ele>
        <time>2013-08-15T17:52:08.000Z</time>
        <extensions>
          <ns3:TrackPointExtension>
            <ns3:atemp>16.0</ns3:atemp>
            <ns3:hr>111</ns3:hr>
          </ns3:TrackPointExtension>
        </extensions>
      </trkpt>
      <trkpt lat="46.677984930574893951416015625" lon="6.89326836727559566497802734375">
        <ele>664.20001220703125</ele>
        <time>2013-08-15T17:52:09.000Z</time>
        <extensions>
          <ns3:TrackPointExtension>
            <ns3:atemp>16.0</ns3:atemp>
            <ns3:hr>113</ns3:hr>
          </ns3:TrackPointExtension>
        </extensions>
      </trkpt>
      <trkpt lat="46.67799322865903377532958984375" lon="6.89332720823585987091064453125">
        <ele>664.20001220703125</ele>
        <time>2013-08-15T17:52:10.000Z</time>
        <extensions>
          <ns3:TrackPointExtension>
            <ns3:atemp>16.0</ns3:atemp>
            <ns3:hr>114</ns3:hr>
          </ns3:TrackPointExtension>
        </extensions>
      </trkpt>
      <trkpt lat="46.678000353276729583740234375" lon="6.893395520746707916259765625">
        <ele>664</ele>
        <time>2013-08-15T17:52:11.000Z</time>
        <extensions>
          <ns3:TrackPointExtension>
            <ns3:atemp>16.0</ns3:atemp>
            <ns3:hr>114</ns3:hr>
          </ns3:TrackPointExtension>
        </extensions>
      </trkpt>
      <trkpt lat="46.6780078969895839691162109375" lon="6.8934677727520465850830078125">
        <ele>664</ele>
        <time>2013-08-15T17:52:12.000Z</time>
        <extensions>
          <ns3:TrackPointExtension>
            <ns3:atemp>16.0</ns3:atemp>
            <ns3:hr>115</ns3:hr>
          </ns3:TrackPointExtension>
        </extensions>
      </trkpt>
      <trkpt lat="46.67801535688340663909912109375" lon="6.893543712794780731201171875">
        <ele>663.79998779296875</ele>
        <time>2013-08-15T17:52:13.000Z</time>
        <extensions>
          <ns3:TrackPointExtension>
            <ns3:atemp>16.0</ns3:atemp>
            <ns3:hr>116</ns3:hr>
          </ns3:TrackPointExtension>
        </extensions>
      </trkpt>
      <trkpt lat="46.678024493157863616943359375" lon="6.89361722208559513092041015625">
        <ele>663.5999755859375</ele>
        <time>2013-08-15T17:52:14.000Z</time>
        <extensions>
          <ns3:TrackPointExtension>
            <ns3:atemp>16.0</ns3:atemp>
            <ns3:hr>116</ns3:hr>
          </ns3:TrackPointExtension>
        </extensions>
      </trkpt>
      <trkpt lat="46.6780340485274791717529296875" lon="6.893692575395107269287109375">
        <ele>663.4000244140625</ele>
        <time>2013-08-15T17:52:15.000Z</time>
        <extensions>
          <ns3:TrackPointExtension>
            <ns3:atemp>16.0</ns3:atemp>
            <ns3:hr>116</ns3:hr>
          </ns3:TrackPointExtension>
        </extensions>
      </trkpt>
      <trkpt lat="46.67804368771612644195556640625" lon="6.8937701918184757232666015625">
        <ele>663.5999755859375</ele>
        <time>2013-08-15T17:52:16.000Z</time>
        <extensions>
          <ns3:TrackPointExtension>
            <ns3:atemp>16.0</ns3:atemp>
            <ns3:hr>116</ns3:hr>
          </ns3:TrackPointExtension>
        </extensions>
      </trkpt>
      <trkpt lat="46.678048633038997650146484375" lon="6.89384722150862216949462890625">
        <ele>663.4000244140625</ele>
        <time>2013-08-15T17:52:17.000Z</time>
        <extensions>
          <ns3:TrackPointExtension>
            <ns3:atemp>16.0</ns3:atemp>
            <ns3:hr>116</ns3:hr>
          </ns3:TrackPointExtension>
        </extensions>
      </trkpt>
      <trkpt lat="46.67805097997188568115234375" lon="6.8939222395420074462890625">
        <ele>663.20001220703125</ele>
        <time>2013-08-15T17:52:18.000Z</time>
        <extensions>
          <ns3:TrackPointExtension>
            <ns3:atemp>16.0</ns3:atemp>
            <ns3:hr>116</ns3:hr>
          </ns3:TrackPointExtension>
        </extensions>
      </trkpt>
      <trkpt lat="46.678045280277729034423828125" lon="6.8940018676221370697021484375">
        <ele>662.79998779296875</ele>
        <time>2013-08-15T17:52:19.000Z</time>
        <extensions>
          <ns3:TrackPointExtension>
            <ns3:atemp>16.0</ns3:atemp>
            <ns3:hr>116</ns3:hr>
          </ns3:TrackPointExtension>
        </extensions>
      </trkpt>
      <trkpt lat="46.67803832329809665679931640625" lon="6.89407311379909515380859375">
        <ele>662.5999755859375</ele>
        <time>2013-08-15T17:52:20.000Z</time>
        <extensions>
          <ns3:TrackPointExtension>
            <ns3:atemp>16.0</ns3:atemp>
            <ns3:hr>117</ns3:hr>
          </ns3:TrackPointExtension>
        </extensions>
      </trkpt>
      <trkpt lat="46.67804603464901447296142578125" lon="6.89414679072797298431396484375">
        <ele>662.4000244140625</ele>
        <time>2013-08-15T17:52:21.000Z</time>
        <extensions>
          <ns3:TrackPointExtension>
            <ns3:atemp>16.0</ns3:atemp>
            <ns3:hr>117</ns3:hr>
          </ns3:TrackPointExtension>
        </extensions>
      </trkpt>
      <trkpt lat="46.67805659584701061248779296875" lon="6.89421166665852069854736328125">
        <ele>662.20001220703125</ele>
        <time>2013-08-15T17:52:22.000Z</time>
        <extensions>
          <ns3:TrackPointExtension>
            <ns3:atemp>16.0</ns3:atemp>
            <ns3:hr>117</ns3:hr>
          </ns3:TrackPointExtension>
        </extensions>
      </trkpt>
      <trkpt lat="46.67807721532881259918212890625" lon="6.894266903400421142578125">
        <ele>662</ele>
        <time>2013-08-15T17:52:23.000Z</time>
        <extensions>
          <ns3:TrackPointExtension>
            <ns3:atemp>16.0</ns3:atemp>
            <ns3:hr>116</ns3:hr>
          </ns3:TrackPointExtension>
        </extensions>
      </trkpt>
      <trkpt lat="46.67809716425836086273193359375" lon="6.89433035440742969512939453125">
        <ele>661.79998779296875</ele>
        <time>2013-08-15T17:52:24.000Z</time>
        <extensions>
          <ns3:TrackPointExtension>
            <ns3:atemp>16.0</ns3:atemp>
            <ns3:hr>116</ns3:hr>
          </ns3:TrackPointExtension>
        </extensions>
      </trkpt>
      <trkpt lat="46.67811459861695766448974609375" lon="6.8943943083286285400390625">
        <ele>661.79998779296875</ele>
        <time>2013-08-15T17:52:25.000Z</time>
        <extensions>
          <ns3:TrackPointExtension>
            <ns3:atemp>16.0</ns3:atemp>
            <ns3:hr>116</ns3:hr>
          </ns3:TrackPointExtension>
        </extensions>
      </trkpt>
      <trkpt lat="46.67813773266971111297607421875" lon="6.894461028277873992919921875">
        <ele>661.5999755859375</ele>
        <time>2013-08-15T17:52:26.000Z</time>
        <extensions>
          <ns3:TrackPointExtension>
            <ns3:atemp>16.0</ns3:atemp>
            <ns3:hr>116</ns3:hr>
          </ns3:TrackPointExtension>
        </extensions>
      </trkpt>
      <trkpt lat="46.6781537421047687530517578125" lon="6.894536130130290985107421875">
        <ele>661.4000244140625</ele>
        <time>2013-08-15T17:52:27.000Z</time>
        <extensions>
          <ns3:TrackPointExtension>
            <ns3:atemp>16.0</ns3:atemp>
            <ns3:hr>116</ns3:hr>
          </ns3:TrackPointExtension>
        </extensions>
      </trkpt>
      <trkpt lat="46.67817025445401668548583984375" lon="6.89460980705916881561279296875">
        <ele>661.4000244140625</ele>
        <time>2013-08-15T17:52:28.000Z</time>
        <extensions>
          <ns3:TrackPointExtension>
            <ns3:atemp>16.0</ns3:atemp>
            <ns3:hr>117</ns3:hr>
          </ns3:TrackPointExtension>
        </extensions>
      </trkpt>
      <trkpt lat="46.6781871020793914794921875" lon="6.8946885131299495697021484375">
        <ele>661.4000244140625</ele>
        <time>2013-08-15T17:52:29.000Z</time>
        <extensions>
          <ns3:TrackPointExtension>
            <ns3:atemp>16.0</ns3:atemp>
            <ns3:hr>116</ns3:hr>
          </ns3:TrackPointExtension>
        </extensions>
      </trkpt>
      <trkpt lat="46.678208224475383758544921875" lon="6.89476889558136463165283203125">
        <ele>661.20001220703125</ele>
        <time>2013-08-15T17:52:30.000Z</time>
        <extensions>
          <ns3:TrackPointExtension>
            <ns3:atemp>16.0</ns3:atemp>
            <ns3:hr>116</ns3:hr>
          </ns3:TrackPointExtension>
        </extensions>
      </trkpt>
      <trkpt lat="46.6782271675765514373779296875" lon="6.89484450034797191619873046875">
        <ele>661</ele>
        <time>2013-08-15T17:52:31.000Z</time>
        <extensions>
          <ns3:TrackPointExtension>
            <ns3:atemp>16.0</ns3:atemp>
            <ns3:hr>116</ns3:hr>
          </ns3:TrackPointExtension>
        </extensions>
      </trkpt>
      <trkpt lat="46.67824250645935535430908203125" lon="6.89491708762943744659423828125">
        <ele>660.5999755859375</ele>
        <time>2013-08-15T17:52:32.000Z</time>
        <extensions>
          <ns3:TrackPointExtension>
            <ns3:atemp>16.0</ns3:atemp>
            <ns3:hr>116</ns3:hr>
          </ns3:TrackPointExtension>
        </extensions>
      </trkpt>
      <trkpt lat="46.678244769573211669921875" lon="6.89497022889554500579833984375">
        <ele>660.4000244140625</ele>
        <time>2013-08-15T17:52:33.000Z</time>
        <extensions>
          <ns3:TrackPointExtension>
            <ns3:atemp>16.0</ns3:atemp>
            <ns3:hr>116</ns3:hr>
          </ns3:TrackPointExtension>
        </extensions>
      </trkpt>
      <trkpt lat="46.67825709097087383270263671875" lon="6.8950214423239231109619140625">
        <ele>660.20001220703125</ele>
        <time>2013-08-15T17:52:34.000Z</time>
        <extensions>
          <ns3:TrackPointExtension>
            <ns3:atemp>16.0</ns3:atemp>
            <ns3:hr>116</ns3:hr>
          </ns3:TrackPointExtension>
        </extensions>
      </trkpt>
      <trkpt lat="46.67828969657421112060546875" lon="6.8950536288321018218994140625">
        <ele>660.20001220703125</ele>
        <time>2013-08-15T17:52:35.000Z</time>
        <extensions>
          <ns3:TrackPointExtension>
            <ns3:atemp>16.0</ns3:atemp>
            <ns3:hr>116</ns3:hr>
          </ns3:TrackPointExtension>
        </extensions>
      </trkpt>
      <trkpt lat="46.67831660248339176177978515625" lon="6.89510433934628963470458984375">
        <ele>660.20001220703125</ele>
        <time>2013-08-15T17:52:36.000Z</time>
        <extensions>
          <ns3:TrackPointExtension>
            <ns3:atemp>16.0</ns3:atemp>
            <ns3:hr>116</ns3:hr>
          </ns3:TrackPointExtension>
        </extensions>
      </trkpt>
      <trkpt lat="46.67834334075450897216796875" lon="6.895146332681179046630859375">
        <ele>660.4000244140625</ele>
        <time>2013-08-15T17:52:37.000Z</time>
        <extensions>
          <ns3:TrackPointExtension>
            <ns3:atemp>16.0</ns3:atemp>
            <ns3:hr>116</ns3:hr>
          </ns3:TrackPointExtension>
        </extensions>
      </trkpt>
      <trkpt lat="46.67836613953113555908203125" lon="6.89519830048084259033203125">
        <ele>660.79998779296875</ele>
        <time>2013-08-15T17:52:38.000Z</time>
        <extensions>
          <ns3:TrackPointExtension>
            <ns3:atemp>16.0</ns3:atemp>
            <ns3:hr>117</ns3:hr>
          </ns3:TrackPointExtension>
        </extensions>
      </trkpt>
      <trkpt lat="46.67838583700358867645263671875" lon="6.89523878507316112518310546875">
        <ele>661</ele>
        <time>2013-08-15T17:52:39.000Z</time>
        <extensions>
          <ns3:TrackPointExtension>
            <ns3:atemp>16.0</ns3:atemp>
            <ns3:hr>118</ns3:hr>
          </ns3:TrackPointExtension>
        </extensions>
      </trkpt>
      <trkpt lat="46.67839338071644306182861328125" lon="6.89528538845479488372802734375">
        <ele>661</ele>
        <time>2013-08-15T17:52:40.000Z</time>
        <extensions>
          <ns3:TrackPointExtension>
            <ns3:atemp>16.0</ns3:atemp>
            <ns3:hr>118</ns3:hr>
          </ns3:TrackPointExtension>
        </extensions>
      </trkpt>
      <trkpt lat="46.678385250270366668701171875" lon="6.89533350057899951934814453125">
        <ele>661</ele>
        <time>2013-08-15T17:52:41.000Z</time>
        <extensions>
          <ns3:TrackPointExtension>
            <ns3:atemp>16.0</ns3:atemp>
            <ns3:hr>119</ns3:hr>
          </ns3:TrackPointExtension>
        </extensions>
      </trkpt>
      <trkpt lat="46.67838030494749546051025390625" lon="6.89537893049418926239013671875">
        <ele>661.4000244140625</ele>
        <time>2013-08-15T17:52:42.000Z</time>
        <extensions>
          <ns3:TrackPointExtension>
            <ns3:atemp>16.0</ns3:atemp>
            <ns3:hr>119</ns3:hr>
          </ns3:TrackPointExtension>
        </extensions>
      </trkpt>
      <trkpt lat="46.67837527580559253692626953125" lon="6.89543592743575572967529296875">
        <ele>661.4000244140625</ele>
        <time>2013-08-15T17:52:43.000Z</time>
        <extensions>
          <ns3:TrackPointExtension>
            <ns3:atemp>16.0</ns3:atemp>
            <ns3:hr>120</ns3:hr>
          </ns3:TrackPointExtension>
        </extensions>
      </trkpt>
      <trkpt lat="46.6783753596246242523193359375" lon="6.895483620464801788330078125">
        <ele>661.5999755859375</ele>
        <time>2013-08-15T17:52:44.000Z</time>
        <extensions>
          <ns3:TrackPointExtension>
            <ns3:atemp>16.0</ns3:atemp>
            <ns3:hr>120</ns3:hr>
          </ns3:TrackPointExtension>
        </extensions>
      </trkpt>
      <trkpt lat="46.67836806736886501312255859375" lon="6.8955169804394245147705078125">
        <ele>661.79998779296875</ele>
        <time>2013-08-15T17:52:45.000Z</time>
        <extensions>
          <ns3:TrackPointExtension>
            <ns3:atemp>16.0</ns3:atemp>
            <ns3:hr>121</ns3:hr>
          </ns3:TrackPointExtension>
        </extensions>
      </trkpt>
      <trkpt lat="46.6783693246543407440185546875" lon="6.89554874785244464874267578125">
        <ele>661.79998779296875</ele>
        <time>2013-08-15T17:52:46.000Z</time>
        <extensions>
          <ns3:TrackPointExtension>
            <ns3:atemp>16.0</ns3:atemp>
            <ns3:hr>121</ns3:hr>
          </ns3:TrackPointExtension>
        </extensions>
      </trkpt>
      <trkpt lat="46.67836521752178668975830078125" lon="6.895581185817718505859375">
        <ele>661.5999755859375</ele>
        <time>2013-08-15T17:52:47.000Z</time>
        <extensions>
          <ns3:TrackPointExtension>
            <ns3:atemp>16.0</ns3:atemp>
            <ns3:hr>121</ns3:hr>
          </ns3:TrackPointExtension>
        </extensions>
      </trkpt>
      <trkpt lat="46.6783582605421543121337890625" lon="6.89561949111521244049072265625">
        <ele>661.79998779296875</ele>
        <time>2013-08-15T17:52:48.000Z</time>
        <extensions>
          <ns3:TrackPointExtension>
            <ns3:atemp>16.0</ns3:atemp>
            <ns3:hr>121</ns3:hr>
          </ns3:TrackPointExtension>
        </extensions>
      </trkpt>
      <trkpt lat="46.67835281230509281158447265625" lon="6.89565938897430896759033203125">
        <ele>662</ele>
        <time>2013-08-15T17:52:49.000Z</time>
        <extensions>
          <ns3:TrackPointExtension>
            <ns3:atemp>16.0</ns3:atemp>
            <ns3:hr>121</ns3:hr>
          </ns3:TrackPointExtension>
        </extensions>
      </trkpt>
      <trkpt lat="46.67834359221160411834716796875" lon="6.89569425769150257110595703125">
        <ele>662.20001220703125</ele>
        <time>2013-08-15T17:52:50.000Z</time>
        <extensions>
          <ns3:TrackPointExtension>
            <ns3:atemp>16.0</ns3:atemp>
            <ns3:hr>121</ns3:hr>
          </ns3:TrackPointExtension>
        </extensions>
      </trkpt>
      <trkpt lat="46.67833395302295684814453125" lon="6.89573130570352077484130859375">
        <ele>662.20001220703125</ele>
        <time>2013-08-15T17:52:51.000Z</time>
        <extensions>
          <ns3:TrackPointExtension>
            <ns3:atemp>16.0</ns3:atemp>
            <ns3:hr>122</ns3:hr>
          </ns3:TrackPointExtension>
        </extensions>
      </trkpt>
      <trkpt lat="46.67833403684198856353759765625" lon="6.89576835371553897857666015625">
        <ele>662.4000244140625</ele>
        <time>2013-08-15T17:52:52.000Z</time>
        <extensions>
          <ns3:TrackPointExtension>
            <ns3:atemp>16.0</ns3:atemp>
            <ns3:hr>122</ns3:hr>
          </ns3:TrackPointExtension>
        </extensions>
      </trkpt>
      <trkpt lat="46.6783307678997516632080078125" lon="6.895809508860111236572265625">
        <ele>662.4000244140625</ele>
        <time>2013-08-15T17:52:53.000Z</time>
        <extensions>
          <ns3:TrackPointExtension>
            <ns3:atemp>16.0</ns3:atemp>
            <ns3:hr>122</ns3:hr>
          </ns3:TrackPointExtension>
        </extensions>
      </trkpt>
      <trkpt lat="46.6783290915191173553466796875" lon="6.8958592973649501800537109375">
        <ele>662.5999755859375</ele>
        <time>2013-08-15T17:52:54.000Z</time>
        <extensions>
          <ns3:TrackPointExtension>
            <ns3:atemp>16.0</ns3:atemp>
            <ns3:hr>123</ns3:hr>
          </ns3:TrackPointExtension>
        </extensions>
      </trkpt>
      <trkpt lat="46.67832900770008563995361328125" lon="6.895898692309856414794921875">
        <ele>662.4000244140625</ele>
        <time>2013-08-15T17:52:55.000Z</time>
        <extensions>
          <ns3:TrackPointExtension>
            <ns3:atemp>16.0</ns3:atemp>
            <ns3:hr>123</ns3:hr>
          </ns3:TrackPointExtension>
        </extensions>
      </trkpt>
      <trkpt lat="46.67834158055484294891357421875" lon="6.8959354050457477569580078125">
        <ele>662.5999755859375</ele>
        <time>2013-08-15T17:52:56.000Z</time>
        <extensions>
          <ns3:TrackPointExtension>
            <ns3:atemp>16.0</ns3:atemp>
            <ns3:hr>124</ns3:hr>
          </ns3:TrackPointExtension>
        </extensions>
      </trkpt>
      <trkpt lat="46.678357757627964019775390625" lon="6.89598284661769866943359375">
        <ele>663</ele>
        <time>2013-08-15T17:52:57.000Z</time>
        <extensions>
          <ns3:TrackPointExtension>
            <ns3:atemp>16.0</ns3:atemp>
            <ns3:hr>124</ns3:hr>
          </ns3:TrackPointExtension>
        </extensions>
      </trkpt>
      <trkpt lat="46.67837343178689479827880859375" lon="6.89602500759065151214599609375">
        <ele>663</ele>
        <time>2013-08-15T17:52:58.000Z</time>
        <extensions>
          <ns3:TrackPointExtension>
            <ns3:atemp>16.0</ns3:atemp>
            <ns3:hr>124</ns3:hr>
          </ns3:TrackPointExtension>
        </extensions>
      </trkpt>
      <trkpt lat="46.6783760301768779754638671875" lon="6.89607094042003154754638671875">
        <ele>663</ele>
        <time>2013-08-15T17:52:59.000Z</time>
        <extensions>
          <ns3:TrackPointExtension>
            <ns3:atemp>16.0</ns3:atemp>
            <ns3:hr>125</ns3:hr>
          </ns3:TrackPointExtension>
        </extensions>
      </trkpt>
      <trkpt lat="46.67838281951844692230224609375" lon="6.89611972309648990631103515625">
        <ele>663</ele>
        <time>2013-08-15T17:53:00.000Z</time>
        <extensions>
          <ns3:TrackPointExtension>
            <ns3:atemp>16.0</ns3:atemp>
            <ns3:hr>125</ns3:hr>
          </ns3:TrackPointExtension>
        </extensions>
      </trkpt>
      <trkpt lat="46.6784078814089298248291015625" lon="6.896150819957256317138671875">
        <ele>663</ele>
        <time>2013-08-15T17:53:01.000Z</time>
        <extensions>
          <ns3:TrackPointExtension>
            <ns3:atemp>16.0</ns3:atemp>
            <ns3:hr>125</ns3:hr>
          </ns3:TrackPointExtension>
        </extensions>
      </trkpt>
      <trkpt lat="46.67843587696552276611328125" lon="6.89618510194122791290283203125">
        <ele>663.20001220703125</ele>
        <time>2013-08-15T17:53:02.000Z</time>
        <extensions>
          <ns3:TrackPointExtension>
            <ns3:atemp>16.0</ns3:atemp>
            <ns3:hr>126</ns3:hr>
          </ns3:TrackPointExtension>
        </extensions>
      </trkpt>
      <trkpt lat="46.6784611903131008148193359375" lon="6.89622583799064159393310546875">
        <ele>663.20001220703125</ele>
        <time>2013-08-15T17:53:03.000Z</time>
        <extensions>
          <ns3:TrackPointExtension>
            <ns3:atemp>16.0</ns3:atemp>
            <ns3:hr>126</ns3:hr>
          </ns3:TrackPointExtension>
        </extensions>
      </trkpt>
      <trkpt lat="46.678493209183216094970703125" lon="6.89626858569681644439697265625">
        <ele>663.5999755859375</ele>
        <time>2013-08-15T17:53:04.000Z</time>
        <extensions>
          <ns3:TrackPointExtension>
            <ns3:atemp>16.0</ns3:atemp>
            <ns3:hr>126</ns3:hr>
          </ns3:TrackPointExtension>
        </extensions>
      </trkpt>
      <trkpt lat="46.67853218503296375274658203125" lon="6.896285600960254669189453125">
        <ele>663.79998779296875</ele>
        <time>2013-08-15T17:53:05.000Z</time>
        <extensions>
          <ns3:TrackPointExtension>
            <ns3:atemp>16.0</ns3:atemp>
            <ns3:hr>127</ns3:hr>
          </ns3:TrackPointExtension>
        </extensions>
      </trkpt>
      <trkpt lat="46.67857577092945575714111328125" lon="6.89630043692886829376220703125">
        <ele>664</ele>
        <time>2013-08-15T17:53:06.000Z</time>
        <extensions>
          <ns3:TrackPointExtension>
            <ns3:atemp>16.0</ns3:atemp>
            <ns3:hr>128</ns3:hr>
          </ns3:TrackPointExtension>
        </extensions>
      </trkpt>
      <trkpt lat="46.67861985974013805389404296875" lon="6.89632843248546123504638671875">
        <ele>664.20001220703125</ele>
        <time>2013-08-15T17:53:07.000Z</time>
        <extensions>
          <ns3:TrackPointExtension>
            <ns3:atemp>16.0</ns3:atemp>
            <ns3:hr>128</ns3:hr>
          </ns3:TrackPointExtension>
        </extensions>
      </trkpt>
      <trkpt lat="46.6786623559892177581787109375" lon="6.89635927788913249969482421875">
        <ele>664.5999755859375</ele>
        <time>2013-08-15T17:53:08.000Z</time>
        <extensions>
          <ns3:TrackPointExtension>
            <ns3:atemp>16.0</ns3:atemp>
            <ns3:hr>128</ns3:hr>
          </ns3:TrackPointExtension>
        </extensions>
      </trkpt>
      <trkpt lat="46.6787082888185977935791015625" lon="6.89638811163604259490966796875">
        <ele>664.79998779296875</ele>
        <time>2013-08-15T17:53:09.000Z</time>
        <extensions>
          <ns3:TrackPointExtension>
            <ns3:atemp>16.0</ns3:atemp>
            <ns3:hr>129</ns3:hr>
          </ns3:TrackPointExtension>
        </extensions>
      </trkpt>
      <trkpt lat="46.678754054009914398193359375" lon="6.89641996286809444427490234375">
        <ele>664.79998779296875</ele>
        <time>2013-08-15T17:53:10.000Z</time>
        <extensions>
          <ns3:TrackPointExtension>
            <ns3:atemp>16.0</ns3:atemp>
            <ns3:hr>129</ns3:hr>
          </ns3:TrackPointExtension>
        </extensions>
      </trkpt>
      <trkpt lat="46.6787998192012310028076171875" lon="6.89645047299563884735107421875">
        <ele>664.79998779296875</ele>
        <time>2013-08-15T17:53:11.000Z</time>
        <extensions>
          <ns3:TrackPointExtension>
            <ns3:atemp>16.0</ns3:atemp>
            <ns3:hr>129</ns3:hr>
          </ns3:TrackPointExtension>
        </extensions>
      </trkpt>
      <trkpt lat="46.6788469254970550537109375" lon="6.89648307859897613525390625">
        <ele>665</ele>
        <time>2013-08-15T17:53:12.000Z</time>
        <extensions>
          <ns3:TrackPointExtension>
            <ns3:atemp>16.0</ns3:atemp>
            <ns3:hr>130</ns3:hr>
          </ns3:TrackPointExtension>
        </extensions>
      </trkpt>
      <trkpt lat="46.67889512144029140472412109375" lon="6.89651534892618656158447265625">
        <ele>665.20001220703125</ele>
        <time>2013-08-15T17:53:13.000Z</time>
        <extensions>
          <ns3:TrackPointExtension>
            <ns3:atemp>16.0</ns3:atemp>
            <ns3:hr>131</ns3:hr>
          </ns3:TrackPointExtension>
        </extensions>
      </trkpt>
      <trkpt lat="46.67894206009805202484130859375" lon="6.89655105583369731903076171875">
        <ele>665.20001220703125</ele>
        <time>2013-08-15T17:53:14.000Z</time>
        <extensions>
          <ns3:TrackPointExtension>
            <ns3:atemp>16.0</ns3:atemp>
            <ns3:hr>131</ns3:hr>
          </ns3:TrackPointExtension>
        </extensions>
      </trkpt>
      <trkpt lat="46.67899109423160552978515625" lon="6.8965905345976352691650390625">
        <ele>665.4000244140625</ele>
        <time>2013-08-15T17:53:15.000Z</time>
        <extensions>
          <ns3:TrackPointExtension>
            <ns3:atemp>16.0</ns3:atemp>
            <ns3:hr>132</ns3:hr>
          </ns3:TrackPointExtension>
        </extensions>
      </trkpt>
      <trkpt lat="46.67903694324195384979248046875" lon="6.89663554541766643524169921875">
        <ele>665.20001220703125</ele>
        <time>2013-08-15T17:53:16.000Z</time>
        <extensions>
          <ns3:TrackPointExtension>
            <ns3:atemp>16.0</ns3:atemp>
            <ns3:hr>132</ns3:hr>
          </ns3:TrackPointExtension>
        </extensions>
      </trkpt>
      <trkpt lat="46.6790824569761753082275390625" lon="6.8966837413609027862548828125">
        <ele>665.4000244140625</ele>
        <time>2013-08-15T17:53:17.000Z</time>
        <extensions>
          <ns3:TrackPointExtension>
            <ns3:atemp>16.0</ns3:atemp>
            <ns3:hr>133</ns3:hr>
          </ns3:TrackPointExtension>
        </extensions>
      </trkpt>
      <trkpt lat="46.6791304014623165130615234375" lon="6.89673696644604206085205078125">
        <ele>665.4000244140625</ele>
        <time>2013-08-15T17:53:18.000Z</time>
        <extensions>
          <ns3:TrackPointExtension>
            <ns3:atemp>16.0</ns3:atemp>
            <ns3:hr>133</ns3:hr>
          </ns3:TrackPointExtension>
        </extensions>
      </trkpt>
      <trkpt lat="46.6791753284633159637451171875" lon="6.89678926952183246612548828125">
        <ele>665.79998779296875</ele>
        <time>2013-08-15T17:53:19.000Z</time>
        <extensions>
          <ns3:TrackPointExtension>
            <ns3:atemp>16.0</ns3:atemp>
            <ns3:hr>134</ns3:hr>
          </ns3:TrackPointExtension>
        </extensions>
      </trkpt>
      <trkpt lat="46.67922100983560085296630859375" lon="6.896845512092113494873046875">
        <ele>665.79998779296875</ele>
        <time>2013-08-15T17:53:20.000Z</time>
        <extensions>
          <ns3:TrackPointExtension>
            <ns3:atemp>16.0</ns3:atemp>
            <ns3:hr>134</ns3:hr>
          </ns3:TrackPointExtension>
        </extensions>
      </trkpt>
      <trkpt lat="46.67926711030304431915283203125" lon="6.8969090469181537628173828125">
        <ele>666</ele>
        <time>2013-08-15T17:53:21.000Z</time>
        <extensions>
          <ns3:TrackPointExtension>
            <ns3:atemp>16.0</ns3:atemp>
            <ns3:hr>134</ns3:hr>
          </ns3:TrackPointExtension>
        </extensions>
      </trkpt>
      <trkpt lat="46.67931840755045413970947265625" lon="6.8969653733074665069580078125">
        <ele>665.79998779296875</ele>
        <time>2013-08-15T17:53:22.000Z</time>
        <extensions>
          <ns3:TrackPointExtension>
            <ns3:atemp>16.0</ns3:atemp>
            <ns3:hr>134</ns3:hr>
          </ns3:TrackPointExtension>
        </extensions>
      </trkpt>
      <trkpt lat="46.6793734766542911529541015625" lon="6.89701172523200511932373046875">
        <ele>666</ele>
        <time>2013-08-15T17:53:23.000Z</time>
        <extensions>
          <ns3:TrackPointExtension>
            <ns3:atemp>16.0</ns3:atemp>
            <ns3:hr>134</ns3:hr>
          </ns3:TrackPointExtension>
        </extensions>
      </trkpt>
      <trkpt lat="46.67943323962390422821044921875" lon="6.89706084318459033966064453125">
        <ele>665.79998779296875</ele>
        <time>2013-08-15T17:53:24.000Z</time>
        <extensions>
          <ns3:TrackPointExtension>
            <ns3:atemp>16.0</ns3:atemp>
            <ns3:hr>134</ns3:hr>
          </ns3:TrackPointExtension>
        </extensions>
      </trkpt>
      <trkpt lat="46.67949543334543704986572265625" lon="6.89710794948041439056396484375">
        <ele>665.79998779296875</ele>
        <time>2013-08-15T17:53:25.000Z</time>
        <extensions>
          <ns3:TrackPointExtension>
            <ns3:atemp>16.0</ns3:atemp>
            <ns3:hr>134</ns3:hr>
          </ns3:TrackPointExtension>
        </extensions>
      </trkpt>
      <trkpt lat="46.6795605607330799102783203125" lon="6.89714767970144748687744140625">
        <ele>665.5999755859375</ele>
        <time>2013-08-15T17:53:26.000Z</time>
        <extensions>
          <ns3:TrackPointExtension>
            <ns3:atemp>16.0</ns3:atemp>
            <ns3:hr>134</ns3:hr>
          </ns3:TrackPointExtension>
        </extensions>
      </trkpt>
      <trkpt lat="46.67962652631103992462158203125" lon="6.89718581736087799072265625">
        <ele>665.4000244140625</ele>
        <time>2013-08-15T17:53:27.000Z</time>
        <extensions>
          <ns3:TrackPointExtension>
            <ns3:atemp>16.0</ns3:atemp>
            <ns3:hr>134</ns3:hr>
          </ns3:TrackPointExtension>
        </extensions>
      </trkpt>
      <trkpt lat="46.67969609610736370086669921875" lon="6.89722781069576740264892578125">
        <ele>665.20001220703125</ele>
        <time>2013-08-15T17:53:28.000Z</time>
        <extensions>
          <ns3:TrackPointExtension>
            <ns3:atemp>16.0</ns3:atemp>
            <ns3:hr>134</ns3:hr>
          </ns3:TrackPointExtension>
        </extensions>
      </trkpt>
      <trkpt lat="46.679770611226558685302734375" lon="6.89726770855486392974853515625">
        <ele>665.20001220703125</ele>
        <time>2013-08-15T17:53:29.000Z</time>
        <extensions>
          <ns3:TrackPointExtension>
            <ns3:atemp>16.0</ns3:atemp>
            <ns3:hr>134</ns3:hr>
          </ns3:TrackPointExtension>
        </extensions>
      </trkpt>
      <trkpt lat="46.67984378524124622344970703125" lon="6.8973093666136264801025390625">
        <ele>665.20001220703125</ele>
        <time>2013-08-15T17:53:30.000Z</time>
        <extensions>
          <ns3:TrackPointExtension>
            <ns3:atemp>16.0</ns3:atemp>
            <ns3:hr>134</ns3:hr>
          </ns3:TrackPointExtension>
        </extensions>
      </trkpt>
      <trkpt lat="46.67991804890334606170654296875" lon="6.89735420979559421539306640625">
        <ele>665</ele>
        <time>2013-08-15T17:53:31.000Z</time>
        <extensions>
          <ns3:TrackPointExtension>
            <ns3:atemp>16.0</ns3:atemp>
            <ns3:hr>134</ns3:hr>
          </ns3:TrackPointExtension>
        </extensions>
      </trkpt>
      <trkpt lat="46.67999147437512874603271484375" lon="6.897401399910449981689453125">
        <ele>664.79998779296875</ele>
        <time>2013-08-15T17:53:32.000Z</time>
        <extensions>
          <ns3:TrackPointExtension>
            <ns3:atemp>16.0</ns3:atemp>
            <ns3:hr>134</ns3:hr>
          </ns3:TrackPointExtension>
        </extensions>
      </trkpt>
      <trkpt lat="46.68006657622754573822021484375" lon="6.89745294861495494842529296875">
        <ele>664.5999755859375</ele>
        <time>2013-08-15T17:53:33.000Z</time>
        <extensions>
          <ns3:TrackPointExtension>
            <ns3:atemp>16.0</ns3:atemp>
            <ns3:hr>134</ns3:hr>
          </ns3:TrackPointExtension>
        </extensions>
      </trkpt>
      <trkpt lat="46.68014553375542163848876953125" lon="6.89750474877655506134033203125">
        <ele>664.4000244140625</ele>
        <time>2013-08-15T17:53:34.000Z</time>
        <extensions>
          <ns3:TrackPointExtension>
            <ns3:atemp>16.0</ns3:atemp>
            <ns3:hr>134</ns3:hr>
          </ns3:TrackPointExtension>
        </extensions>
      </trkpt>
      <trkpt lat="46.68022449128329753875732421875" lon="6.89755671657621860504150390625">
        <ele>664.20001220703125</ele>
        <time>2013-08-15T17:53:35.000Z</time>
        <extensions>
          <ns3:TrackPointExtension>
            <ns3:atemp>16.0</ns3:atemp>
            <ns3:hr>134</ns3:hr>
          </ns3:TrackPointExtension>
        </extensions>
      </trkpt>
      <trkpt lat="46.6803048737347126007080078125" lon="6.89760415814816951751708984375">
        <ele>664</ele>
        <time>2013-08-15T17:53:36.000Z</time>
        <extensions>
          <ns3:TrackPointExtension>
            <ns3:atemp>16.0</ns3:atemp>
            <ns3:hr>134</ns3:hr>
          </ns3:TrackPointExtension>
        </extensions>
      </trkpt>
      <trkpt lat="46.6803853400051593780517578125" lon="6.89765118062496185302734375">
        <ele>663.79998779296875</ele>
        <time>2013-08-15T17:53:37.000Z</time>
        <extensions>
          <ns3:TrackPointExtension>
            <ns3:atemp>16.0</ns3:atemp>
            <ns3:hr>134</ns3:hr>
          </ns3:TrackPointExtension>
        </extensions>
      </trkpt>
      <trkpt lat="46.68046907521784305572509765625" lon="6.89769719727337360382080078125">
        <ele>663.5999755859375</ele>
        <time>2013-08-15T17:53:38.000Z</time>
        <extensions>
          <ns3:TrackPointExtension>
            <ns3:atemp>16.0</ns3:atemp>
            <ns3:hr>134</ns3:hr>
          </ns3:TrackPointExtension>
        </extensions>
      </trkpt>
      <trkpt lat="46.68054878711700439453125" lon="6.89774983562529087066650390625">
        <ele>663.20001220703125</ele>
        <time>2013-08-15T17:53:39.000Z</time>
        <extensions>
          <ns3:TrackPointExtension>
            <ns3:atemp>16.0</ns3:atemp>
            <ns3:hr>134</ns3:hr>
          </ns3:TrackPointExtension>
        </extensions>
      </trkpt>
      <trkpt lat="46.6806347854435443878173828125" lon="6.89779736101627349853515625">
        <ele>663.20001220703125</ele>
        <time>2013-08-15T17:53:40.000Z</time>
        <extensions>
          <ns3:TrackPointExtension>
            <ns3:atemp>16.0</ns3:atemp>
            <ns3:hr>133</ns3:hr>
          </ns3:TrackPointExtension>
        </extensions>
      </trkpt>
      <trkpt lat="46.68072287924587726593017578125" lon="6.89784471876919269561767578125">
        <ele>662.4000244140625</ele>
        <time>2013-08-15T17:53:41.000Z</time>
        <extensions>
          <ns3:TrackPointExtension>
            <ns3:atemp>16.0</ns3:atemp>
            <ns3:hr>133</ns3:hr>
          </ns3:TrackPointExtension>
        </extensions>
      </trkpt>
      <trkpt lat="46.680810637772083282470703125" lon="6.897894926369190216064453125">
        <ele>661.79998779296875</ele>
        <time>2013-08-15T17:53:42.000Z</time>
        <extensions>
          <ns3:TrackPointExtension>
            <ns3:atemp>16.0</ns3:atemp>
            <ns3:hr>132</ns3:hr>
          </ns3:TrackPointExtension>
        </extensions>
      </trkpt>
      <trkpt lat="46.68089688755571842193603515625" lon="6.897947229444980621337890625">
        <ele>661.20001220703125</ele>
        <time>2013-08-15T17:53:43.000Z</time>
        <extensions>
          <ns3:TrackPointExtension>
            <ns3:atemp>16.0</ns3:atemp>
            <ns3:hr>132</ns3:hr>
          </ns3:TrackPointExtension>
        </extensions>
      </trkpt>
      <trkpt lat="46.6809841431677341461181640625" lon="6.89799609594047069549560546875">
        <ele>660.79998779296875</ele>
        <time>2013-08-15T17:53:44.000Z</time>
        <extensions>
          <ns3:TrackPointExtension>
            <ns3:atemp>16.0</ns3:atemp>
            <ns3:hr>131</ns3:hr>
          </ns3:TrackPointExtension>
        </extensions>
      </trkpt>
      <trkpt lat="46.6810691356658935546875" lon="6.89804638735949993133544921875">
        <ele>659.5999755859375</ele>
        <time>2013-08-15T17:53:45.000Z</time>
        <extensions>
          <ns3:TrackPointExtension>
            <ns3:atemp>16.0</ns3:atemp>
            <ns3:hr>130</ns3:hr>
          </ns3:TrackPointExtension>
        </extensions>
      </trkpt>
      <trkpt lat="46.681151948869228363037109375" lon="6.8981012888252735137939453125">
        <ele>659.20001220703125</ele>
        <time>2013-08-15T17:53:46.000Z</time>
        <extensions>
          <ns3:TrackPointExtension>
            <ns3:atemp>16.0</ns3:atemp>
            <ns3:hr>130</ns3:hr>
          </ns3:TrackPointExtension>
        </extensions>
      </trkpt>
      <trkpt lat="46.68123342096805572509765625" lon="6.89814596436917781829833984375">
        <ele>658.79998779296875</ele>
        <time>2013-08-15T17:53:47.000Z</time>
        <extensions>
          <ns3:TrackPointExtension>
            <ns3:atemp>16.0</ns3:atemp>
            <ns3:hr>130</ns3:hr>
          </ns3:TrackPointExtension>
        </extensions>
      </trkpt>
      <trkpt lat="46.6813110373914241790771484375" lon="6.89819575287401676177978515625">
        <ele>658.4000244140625</ele>
        <time>2013-08-15T17:53:48.000Z</time>
        <extensions>
          <ns3:TrackPointExtension>
            <ns3:atemp>16.0</ns3:atemp>
            <ns3:hr>129</ns3:hr>
          </ns3:TrackPointExtension>
        </extensions>
      </trkpt>
      <trkpt lat="46.68139209039509296417236328125" lon="6.898243613541126251220703125">
        <ele>658.20001220703125</ele>
        <time>2013-08-15T17:53:49.000Z</time>
        <extensions>
          <ns3:TrackPointExtension>
            <ns3:atemp>16.0</ns3:atemp>
            <ns3:hr>129</ns3:hr>
          </ns3:TrackPointExtension>
        </extensions>
      </trkpt>
      <trkpt lat="46.6814728081226348876953125" lon="6.89829281531274318695068359375">
        <ele>657.5999755859375</ele>
        <time>2013-08-15T17:53:50.000Z</time>
        <extensions>
          <ns3:TrackPointExtension>
            <ns3:atemp>16.0</ns3:atemp>
            <ns3:hr>129</ns3:hr>
          </ns3:TrackPointExtension>
        </extensions>
      </trkpt>
      <trkpt lat="46.6815531067550182342529296875" lon="6.89834260381758213043212890625">
        <ele>657.5999755859375</ele>
        <time>2013-08-15T17:53:51.000Z</time>
        <extensions>
          <ns3:TrackPointExtension>
            <ns3:atemp>16.0</ns3:atemp>
            <ns3:hr>128</ns3:hr>
          </ns3:TrackPointExtension>
        </extensions>
      </trkpt>
      <trkpt lat="46.6816352494060993194580078125" lon="6.89838233403861522674560546875">
        <ele>657.20001220703125</ele>
        <time>2013-08-15T17:53:52.000Z</time>
        <extensions>
          <ns3:TrackPointExtension>
            <ns3:atemp>16.0</ns3:atemp>
            <ns3:hr>128</ns3:hr>
          </ns3:TrackPointExtension>
        </extensions>
      </trkpt>
      <trkpt lat="46.6817195713520050048828125" lon="6.89840949140489101409912109375">
        <ele>657</ele>
        <time>2013-08-15T17:53:53.000Z</time>
        <extensions>
          <ns3:TrackPointExtension>
            <ns3:atemp>16.0</ns3:atemp>
            <ns3:hr>128</ns3:hr>
          </ns3:TrackPointExtension>
        </extensions>
      </trkpt>
      <trkpt lat="46.68180112726986408233642578125" lon="6.898418962955474853515625">
        <ele>656.5999755859375</ele>
        <time>2013-08-15T17:53:54.000Z</time>
        <extensions>
          <ns3:TrackPointExtension>
            <ns3:atemp>16.0</ns3:atemp>
            <ns3:hr>128</ns3:hr>
          </ns3:TrackPointExtension>
        </extensions>
      </trkpt>
      <trkpt lat="46.68188326992094516754150390625" lon="6.898419298231601715087890625">
        <ele>656.4000244140625</ele>
        <time>2013-08-15T17:53:55.000Z</time>
        <extensions>
          <ns3:TrackPointExtension>
            <ns3:atemp>16.0</ns3:atemp>
            <ns3:hr>128</ns3:hr>
          </ns3:TrackPointExtension>
        </extensions>
      </trkpt>
      <trkpt lat="46.6819718666374683380126953125" lon="6.89842223189771175384521484375">
        <ele>656</ele>
        <time>2013-08-15T17:53:56.000Z</time>
        <extensions>
          <ns3:TrackPointExtension>
            <ns3:atemp>16.0</ns3:atemp>
            <ns3:hr>127</ns3:hr>
          </ns3:TrackPointExtension>
        </extensions>
      </trkpt>
      <trkpt lat="46.6820561885833740234375" lon="6.8984409235417842864990234375">
        <ele>655.79998779296875</ele>
        <time>2013-08-15T17:53:57.000Z</time>
        <extensions>
          <ns3:TrackPointExtension>
            <ns3:atemp>16.0</ns3:atemp>
            <ns3:hr>127</ns3:hr>
          </ns3:TrackPointExtension>
        </extensions>
      </trkpt>
      <trkpt lat="46.682144701480865478515625" lon="6.89847218804061412811279296875">
        <ele>655.4000244140625</ele>
        <time>2013-08-15T17:53:58.000Z</time>
        <extensions>
          <ns3:TrackPointExtension>
            <ns3:atemp>16.0</ns3:atemp>
            <ns3:hr>127</ns3:hr>
          </ns3:TrackPointExtension>
        </extensions>
      </trkpt>
      <trkpt lat="46.68221913278102874755859375" lon="6.8985203839838504791259765625">
        <ele>655.20001220703125</ele>
        <time>2013-08-15T17:53:59.000Z</time>
        <extensions>
          <ns3:TrackPointExtension>
            <ns3:atemp>16.0</ns3:atemp>
            <ns3:hr>127</ns3:hr>
          </ns3:TrackPointExtension>
        </extensions>
      </trkpt>
      <trkpt lat="46.68230286799371242523193359375" lon="6.898599006235599517822265625">
        <ele>654.79998779296875</ele>
        <time>2013-08-15T17:54:00.000Z</time>
        <extensions>
          <ns3:TrackPointExtension>
            <ns3:atemp>16.0</ns3:atemp>
            <ns3:hr>126</ns3:hr>
          </ns3:TrackPointExtension>
        </extensions>
      </trkpt>
      <trkpt lat="46.68237679637968540191650390625" lon="6.89868324436247348785400390625">
        <ele>655</ele>
        <time>2013-08-15T17:54:01.000Z</time>
        <extensions>
          <ns3:TrackPointExtension>
            <ns3:atemp>16.0</ns3:atemp>
            <ns3:hr>126</ns3:hr>
          </ns3:TrackPointExtension>
        </extensions>
      </trkpt>
      <trkpt lat="46.682444773614406585693359375" lon="6.8987755291163921356201171875">
        <ele>655</ele>
        <time>2013-08-15T17:54:02.000Z</time>
        <extensions>
          <ns3:TrackPointExtension>
            <ns3:atemp>16.0</ns3:atemp>
            <ns3:hr>126</ns3:hr>
          </ns3:TrackPointExtension>
        </extensions>
      </trkpt>
      <trkpt lat="46.68250487186014652252197265625" lon="6.89887636341154575347900390625">
        <ele>654.79998779296875</ele>
        <time>2013-08-15T17:54:03.000Z</time>
        <extensions>
          <ns3:TrackPointExtension>
            <ns3:atemp>16.0</ns3:atemp>
            <ns3:hr>126</ns3:hr>
          </ns3:TrackPointExtension>
        </extensions>
      </trkpt>
      <trkpt lat="46.68256287463009357452392578125" lon="6.8989783711731433868408203125">
        <ele>654.5999755859375</ele>
        <time>2013-08-15T17:54:04.000Z</time>
        <extensions>
          <ns3:TrackPointExtension>
            <ns3:atemp>16.0</ns3:atemp>
            <ns3:hr>126</ns3:hr>
          </ns3:TrackPointExtension>
        </extensions>
      </trkpt>
      <trkpt lat="46.6826266609132289886474609375" lon="6.899065710604190826416015625">
        <ele>654.20001220703125</ele>
        <time>2013-08-15T17:54:05.000Z</time>
        <extensions>
          <ns3:TrackPointExtension>
            <ns3:atemp>16.0</ns3:atemp>
            <ns3:hr>126</ns3:hr>
          </ns3:TrackPointExtension>
        </extensions>
      </trkpt>
      <trkpt lat="46.68269849382340908050537109375" lon="6.89914491958916187286376953125">
        <ele>653.79998779296875</ele>
        <time>2013-08-15T17:54:06.000Z</time>
        <extensions>
          <ns3:TrackPointExtension>
            <ns3:atemp>16.0</ns3:atemp>
            <ns3:hr>126</ns3:hr>
          </ns3:TrackPointExtension>
        </extensions>
      </trkpt>
      <trkpt lat="46.68277845717966556549072265625" lon="6.89920409582555294036865234375">
        <ele>653.20001220703125</ele>
        <time>2013-08-15T17:54:07.000Z</time>
        <extensions>
          <ns3:TrackPointExtension>
            <ns3:atemp>16.0</ns3:atemp>
            <ns3:hr>126</ns3:hr>
          </ns3:TrackPointExtension>
        </extensions>
      </trkpt>
      <trkpt lat="46.682865209877490997314453125" lon="6.8992418982088565826416015625">
        <ele>653</ele>
        <time>2013-08-15T17:54:08.000Z</time>
        <extensions>
          <ns3:TrackPointExtension>
            <ns3:atemp>16.0</ns3:atemp>
            <ns3:hr>126</ns3:hr>
          </ns3:TrackPointExtension>
        </extensions>
      </trkpt>
      <trkpt lat="46.68295380659401416778564453125" lon="6.89928037114441394805908203125">
        <ele>652.5999755859375</ele>
        <time>2013-08-15T17:54:09.000Z</time>
        <extensions>
          <ns3:TrackPointExtension>
            <ns3:atemp>16.0</ns3:atemp>
            <ns3:hr>125</ns3:hr>
          </ns3:TrackPointExtension>
        </extensions>
      </trkpt>
      <trkpt lat="46.68304466642439365386962890625" lon="6.899309121072292327880859375">
        <ele>651.79998779296875</ele>
        <time>2013-08-15T17:54:10.000Z</time>
        <extensions>
          <ns3:TrackPointExtension>
            <ns3:atemp>16.0</ns3:atemp>
            <ns3:hr>125</ns3:hr>
          </ns3:TrackPointExtension>
        </extensions>
      </trkpt>
      <trkpt lat="46.68313435278832912445068359375" lon="6.89934088848531246185302734375">
        <ele>651.4000244140625</ele>
        <time>2013-08-15T17:54:11.000Z</time>
        <extensions>
          <ns3:TrackPointExtension>
            <ns3:atemp>16.0</ns3:atemp>
            <ns3:hr>125</ns3:hr>
          </ns3:TrackPointExtension>
        </extensions>
      </trkpt>
      <trkpt lat="46.683215908706188201904296875" lon="6.8993833847343921661376953125">
        <ele>650.79998779296875</ele>
        <time>2013-08-15T17:54:12.000Z</time>
        <extensions>
          <ns3:TrackPointExtension>
            <ns3:atemp>16.0</ns3:atemp>
            <ns3:hr>125</ns3:hr>
          </ns3:TrackPointExtension>
        </extensions>
      </trkpt>
      <trkpt lat="46.68330148793756961822509765625" lon="6.8994363583624362945556640625">
        <ele>650.4000244140625</ele>
        <time>2013-08-15T17:54:13.000Z</time>
        <extensions>
          <ns3:TrackPointExtension>
            <ns3:atemp>16.0</ns3:atemp>
            <ns3:hr>125</ns3:hr>
          </ns3:TrackPointExtension>
        </extensions>
      </trkpt>
      <trkpt lat="46.6833847202360630035400390625" lon="6.899488158524036407470703125">
        <ele>650</ele>
        <time>2013-08-15T17:54:14.000Z</time>
        <extensions>
          <ns3:TrackPointExtension>
            <ns3:atemp>16.0</ns3:atemp>
            <ns3:hr>124</ns3:hr>
          </ns3:TrackPointExtension>
        </extensions>
      </trkpt>
      <trkpt lat="46.683469712734222412109375" lon="6.8995369412004947662353515625">
        <ele>649.5999755859375</ele>
        <time>2013-08-15T17:54:15.000Z</time>
        <extensions>
          <ns3:TrackPointExtension>
            <ns3:atemp>16.0</ns3:atemp>
            <ns3:hr>123</ns3:hr>
          </ns3:TrackPointExtension>
        </extensions>
      </trkpt>
      <trkpt lat="46.68355110101401805877685546875" lon="6.89959309995174407958984375">
        <ele>649.20001220703125</ele>
        <time>2013-08-15T17:54:16.000Z</time>
        <extensions>
          <ns3:TrackPointExtension>
            <ns3:atemp>16.0</ns3:atemp>
            <ns3:hr>123</ns3:hr>
          </ns3:TrackPointExtension>
        </extensions>
      </trkpt>
      <trkpt lat="46.6836291365325450897216796875" lon="6.8996556289494037628173828125">
        <ele>648.79998779296875</ele>
        <time>2013-08-15T17:54:17.000Z</time>
        <extensions>
          <ns3:TrackPointExtension>
            <ns3:atemp>16.0</ns3:atemp>
            <ns3:hr>122</ns3:hr>
          </ns3:TrackPointExtension>
        </extensions>
      </trkpt>
      <trkpt lat="46.68370130471885204315185546875" lon="6.89972746185958385467529296875">
        <ele>648.4000244140625</ele>
        <time>2013-08-15T17:54:18.000Z</time>
        <extensions>
          <ns3:TrackPointExtension>
            <ns3:atemp>16.0</ns3:atemp>
            <ns3:hr>122</ns3:hr>
          </ns3:TrackPointExtension>
        </extensions>
      </trkpt>
      <trkpt lat="46.68376735411584377288818359375" lon="6.89980105496942996978759765625">
        <ele>648</ele>
        <time>2013-08-15T17:54:19.000Z</time>
        <extensions>
          <ns3:TrackPointExtension>
            <ns3:atemp>16.0</ns3:atemp>
            <ns3:hr>122</ns3:hr>
          </ns3:TrackPointExtension>
        </extensions>
      </trkpt>
      <trkpt lat="46.68383524753153324127197265625" lon="6.8998821079730987548828125">
        <ele>647.5999755859375</ele>
        <time>2013-08-15T17:54:20.000Z</time>
        <extensions>
          <ns3:TrackPointExtension>
            <ns3:atemp>16.0</ns3:atemp>
            <ns3:hr>122</ns3:hr>
          </ns3:TrackPointExtension>
        </extensions>
      </trkpt>
      <trkpt lat="46.68390297330915927886962890625" lon="6.89996450208127498626708984375">
        <ele>647.5999755859375</ele>
        <time>2013-08-15T17:54:21.000Z</time>
        <extensions>
          <ns3:TrackPointExtension>
            <ns3:atemp>16.0</ns3:atemp>
            <ns3:hr>121</ns3:hr>
          </ns3:TrackPointExtension>
        </extensions>
      </trkpt>
      <trkpt lat="46.68397463858127593994140625" lon="6.90005469135940074920654296875">
        <ele>647.5999755859375</ele>
        <time>2013-08-15T17:54:22.000Z</time>
        <extensions>
          <ns3:TrackPointExtension>
            <ns3:atemp>16.0</ns3:atemp>
            <ns3:hr>122</ns3:hr>
          </ns3:TrackPointExtension>
        </extensions>
      </trkpt>
      <trkpt lat="46.684049069881439208984375" lon="6.90014873631298542022705078125">
        <ele>647</ele>
        <time>2013-08-15T17:54:23.000Z</time>
        <extensions>
          <ns3:TrackPointExtension>
            <ns3:atemp>16.0</ns3:atemp>
            <ns3:hr>121</ns3:hr>
          </ns3:TrackPointExtension>
        </extensions>
      </trkpt>
      <trkpt lat="46.68412894941866397857666015625" lon="6.9002323038876056671142578125">
        <ele>646.5999755859375</ele>
        <time>2013-08-15T17:54:24.000Z</time>
        <extensions>
          <ns3:TrackPointExtension>
            <ns3:atemp>16.0</ns3:atemp>
            <ns3:hr>121</ns3:hr>
          </ns3:TrackPointExtension>
        </extensions>
      </trkpt>
      <trkpt lat="46.6842088289558887481689453125" lon="6.90030799247324466705322265625">
        <ele>646.4000244140625</ele>
        <time>2013-08-15T17:54:25.000Z</time>
        <extensions>
          <ns3:TrackPointExtension>
            <ns3:atemp>16.0</ns3:atemp>
            <ns3:hr>122</ns3:hr>
          </ns3:TrackPointExtension>
        </extensions>
      </trkpt>
      <trkpt lat="46.68428703211247920989990234375" lon="6.9003835134208202362060546875">
        <ele>646.20001220703125</ele>
        <time>2013-08-15T17:54:26.000Z</time>
        <extensions>
          <ns3:TrackPointExtension>
            <ns3:atemp>16.0</ns3:atemp>
            <ns3:hr>122</ns3:hr>
          </ns3:TrackPointExtension>
        </extensions>
      </trkpt>
      <trkpt lat="46.68436364270746707916259765625" lon="6.90046490170061588287353515625">
        <ele>646</ele>
        <time>2013-08-15T17:54:27.000Z</time>
        <extensions>
          <ns3:TrackPointExtension>
            <ns3:atemp>16.0</ns3:atemp>
            <ns3:hr>121</ns3:hr>
          </ns3:TrackPointExtension>
        </extensions>
      </trkpt>
      <trkpt lat="46.6844364814460277557373046875" lon="6.9005451165139675140380859375">
        <ele>645.5999755859375</ele>
        <time>2013-08-15T17:54:28.000Z</time>
        <extensions>
          <ns3:TrackPointExtension>
            <ns3:atemp>16.0</ns3:atemp>
            <ns3:hr>121</ns3:hr>
          </ns3:TrackPointExtension>
        </extensions>
      </trkpt>
      <trkpt lat="46.6845115832984447479248046875" lon="6.90061694942414760589599609375">
        <ele>645.20001220703125</ele>
        <time>2013-08-15T17:54:29.000Z</time>
        <extensions>
          <ns3:TrackPointExtension>
            <ns3:atemp>16.0</ns3:atemp>
            <ns3:hr>120</ns3:hr>
          </ns3:TrackPointExtension>
        </extensions>
      </trkpt>
      <trkpt lat="46.68459095992147922515869140625" lon="6.90067964605987071990966796875">
        <ele>644.4000244140625</ele>
        <time>2013-08-15T17:54:30.000Z</time>
        <extensions>
          <ns3:TrackPointExtension>
            <ns3:atemp>16.0</ns3:atemp>
            <ns3:hr>119</ns3:hr>
          </ns3:TrackPointExtension>
        </extensions>
      </trkpt>
      <trkpt lat="46.68466924689710140228271484375" lon="6.900730691850185394287109375">
        <ele>644.20001220703125</ele>
        <time>2013-08-15T17:54:31.000Z</time>
        <extensions>
          <ns3:TrackPointExtension>
            <ns3:atemp>16.0</ns3:atemp>
            <ns3:hr>119</ns3:hr>
          </ns3:TrackPointExtension>
        </extensions>
      </trkpt>
      <trkpt lat="46.6847482882440090179443359375" lon="6.90077587030827999114990234375">
        <ele>644.20001220703125</ele>
        <time>2013-08-15T17:54:32.000Z</time>
        <extensions>
          <ns3:TrackPointExtension>
            <ns3:atemp>16.0</ns3:atemp>
            <ns3:hr>119</ns3:hr>
          </ns3:TrackPointExtension>
        </extensions>
      </trkpt>
      <trkpt lat="46.68482012115418910980224609375" lon="6.90080487169325351715087890625">
        <ele>644.20001220703125</ele>
        <time>2013-08-15T17:54:33.000Z</time>
        <extensions>
          <ns3:TrackPointExtension>
            <ns3:atemp>16.0</ns3:atemp>
            <ns3:hr>120</ns3:hr>
          </ns3:TrackPointExtension>
        </extensions>
      </trkpt>
      <trkpt lat="46.684896983206272125244140625" lon="6.900841332972049713134765625">
        <ele>644.4000244140625</ele>
        <time>2013-08-15T17:54:34.000Z</time>
        <extensions>
          <ns3:TrackPointExtension>
            <ns3:atemp>16.0</ns3:atemp>
            <ns3:hr>120</ns3:hr>
          </ns3:TrackPointExtension>
        </extensions>
      </trkpt>
      <trkpt lat="46.68497635982930660247802734375" lon="6.90089170821011066436767578125">
        <ele>644.20001220703125</ele>
        <time>2013-08-15T17:54:35.000Z</time>
        <extensions>
          <ns3:TrackPointExtension>
            <ns3:atemp>16.0</ns3:atemp>
            <ns3:hr>120</ns3:hr>
          </ns3:TrackPointExtension>
        </extensions>
      </trkpt>
      <trkpt lat="46.68505112640559673309326171875" lon="6.900956667959690093994140625">
        <ele>643.4000244140625</ele>
        <time>2013-08-15T17:54:36.000Z</time>
        <extensions>
          <ns3:TrackPointExtension>
            <ns3:atemp>16.0</ns3:atemp>
            <ns3:hr>121</ns3:hr>
          </ns3:TrackPointExtension>
        </extensions>
      </trkpt>
      <trkpt lat="46.68512254022061824798583984375" lon="6.90103135071694850921630859375">
        <ele>642.79998779296875</ele>
        <time>2013-08-15T17:54:37.000Z</time>
        <extensions>
          <ns3:TrackPointExtension>
            <ns3:atemp>16.0</ns3:atemp>
            <ns3:hr>120</ns3:hr>
          </ns3:TrackPointExtension>
        </extensions>
      </trkpt>
      <trkpt lat="46.68519328348338603973388671875" lon="6.90111617557704448699951171875">
        <ele>641.5999755859375</ele>
        <time>2013-08-15T17:54:38.000Z</time>
        <extensions>
          <ns3:TrackPointExtension>
            <ns3:atemp>16.0</ns3:atemp>
            <ns3:hr>120</ns3:hr>
          </ns3:TrackPointExtension>
        </extensions>
      </trkpt>
      <trkpt lat="46.6852696426212787628173828125" lon="6.9012233801186084747314453125">
        <ele>640.79998779296875</ele>
        <time>2013-08-15T17:54:39.000Z</time>
        <extensions>
          <ns3:TrackPointExtension>
            <ns3:atemp>16.0</ns3:atemp>
            <ns3:hr>120</ns3:hr>
          </ns3:TrackPointExtension>
        </extensions>
      </trkpt>
      <trkpt lat="46.6853360272943973541259765625" lon="6.9013330154120922088623046875">
        <ele>639.4000244140625</ele>
        <time>2013-08-15T17:54:40.000Z</time>
        <extensions>
          <ns3:TrackPointExtension>
            <ns3:atemp>16.0</ns3:atemp>
            <ns3:hr>120</ns3:hr>
          </ns3:TrackPointExtension>
        </extensions>
      </trkpt>
      <trkpt lat="46.68540894985198974609375" lon="6.90142898820340633392333984375">
        <ele>638.5999755859375</ele>
        <time>2013-08-15T17:54:41.000Z</time>
        <extensions>
          <ns3:TrackPointExtension>
            <ns3:atemp>16.0</ns3:atemp>
            <ns3:hr>119</ns3:hr>
          </ns3:TrackPointExtension>
        </extensions>
      </trkpt>
      <trkpt lat="46.6854865662753582000732421875" lon="6.90152085386216640472412109375">
        <ele>637.79998779296875</ele>
        <time>2013-08-15T17:54:42.000Z</time>
        <extensions>
          <ns3:TrackPointExtension>
            <ns3:atemp>16.0</ns3:atemp>
            <ns3:hr>119</ns3:hr>
          </ns3:TrackPointExtension>
        </extensions>
      </trkpt>
      <trkpt lat="46.68557164259254932403564453125" lon="6.90158153884112834930419921875">
        <ele>637.4000244140625</ele>
        <time>2013-08-15T17:54:43.000Z</time>
        <extensions>
          <ns3:TrackPointExtension>
            <ns3:atemp>16.0</ns3:atemp>
            <ns3:hr>119</ns3:hr>
          </ns3:TrackPointExtension>
        </extensions>
      </trkpt>
      <trkpt lat="46.6856582276523113250732421875" lon="6.90165328793227672576904296875">
        <ele>636.79998779296875</ele>
        <time>2013-08-15T17:54:44.000Z</time>
        <extensions>
          <ns3:TrackPointExtension>
            <ns3:atemp>16.0</ns3:atemp>
            <ns3:hr>119</ns3:hr>
          </ns3:TrackPointExtension>
        </extensions>
      </trkpt>
      <trkpt lat="46.6857455670833587646484375" lon="6.90173760987818241119384765625">
        <ele>636</ele>
        <time>2013-08-15T17:54:45.000Z</time>
        <extensions>
          <ns3:TrackPointExtension>
            <ns3:atemp>16.0</ns3:atemp>
            <ns3:hr>118</ns3:hr>
          </ns3:TrackPointExtension>
        </extensions>
      </trkpt>
      <trkpt lat="46.68583081103861331939697265625" lon="6.901835091412067413330078125">
        <ele>635.20001220703125</ele>
        <time>2013-08-15T17:54:46.000Z</time>
        <extensions>
          <ns3:TrackPointExtension>
            <ns3:atemp>16.0</ns3:atemp>
            <ns3:hr>118</ns3:hr>
          </ns3:TrackPointExtension>
        </extensions>
      </trkpt>
      <trkpt lat="46.6859110258519649505615234375" lon="6.9019298069179058074951171875">
        <ele>634</ele>
        <time>2013-08-15T17:54:47.000Z</time>
        <extensions>
          <ns3:TrackPointExtension>
            <ns3:atemp>16.0</ns3:atemp>
            <ns3:hr>118</ns3:hr>
          </ns3:TrackPointExtension>
        </extensions>
      </trkpt>
      <trkpt lat="46.6859810985624790191650390625" lon="6.9020270369946956634521484375">
        <ele>632.5999755859375</ele>
        <time>2013-08-15T17:54:48.000Z</time>
        <extensions>
          <ns3:TrackPointExtension>
            <ns3:atemp>16.0</ns3:atemp>
            <ns3:hr>118</ns3:hr>
          </ns3:TrackPointExtension>
        </extensions>
      </trkpt>
      <trkpt lat="46.68602644465863704681396484375" lon="6.90213340334594249725341796875">
        <ele>631.4000244140625</ele>
        <time>2013-08-15T17:54:49.000Z</time>
        <extensions>
          <ns3:TrackPointExtension>
            <ns3:atemp>16.0</ns3:atemp>
            <ns3:hr>118</ns3:hr>
          </ns3:TrackPointExtension>
        </extensions>
      </trkpt>
      <trkpt lat="46.68606315739452838897705078125" lon="6.90224873833358287811279296875">
        <ele>629.79998779296875</ele>
        <time>2013-08-15T17:54:50.000Z</time>
        <extensions>
          <ns3:TrackPointExtension>
            <ns3:atemp>16.0</ns3:atemp>
            <ns3:hr>117</ns3:hr>
          </ns3:TrackPointExtension>
        </extensions>
      </trkpt>
      <trkpt lat="46.686049662530422210693359375" lon="6.9023750536143779754638671875">
        <ele>628.5999755859375</ele>
        <time>2013-08-15T17:54:51.000Z</time>
        <extensions>
          <ns3:TrackPointExtension>
            <ns3:atemp>16.0</ns3:atemp>
            <ns3:hr>116</ns3:hr>
          </ns3:TrackPointExtension>
        </extensions>
      </trkpt>
      <trkpt lat="46.68607589788734912872314453125" lon="6.902486868202686309814453125">
        <ele>628</ele>
        <time>2013-08-15T17:54:52.000Z</time>
        <extensions>
          <ns3:TrackPointExtension>
            <ns3:atemp>16.0</ns3:atemp>
            <ns3:hr>115</ns3:hr>
          </ns3:TrackPointExtension>
        </extensions>
      </trkpt>
      <trkpt lat="46.68607941828668117523193359375" lon="6.90257026813924312591552734375">
        <ele>627.20001220703125</ele>
        <time>2013-08-15T17:54:53.000Z</time>
        <extensions>
          <ns3:TrackPointExtension>
            <ns3:atemp>16.0</ns3:atemp>
            <ns3:hr>114</ns3:hr>
          </ns3:TrackPointExtension>
        </extensions>
      </trkpt>
      <trkpt lat="46.6861068271100521087646484375" lon="6.9026389159262180328369140625">
        <ele>626.5999755859375</ele>
        <time>2013-08-15T17:54:54.000Z</time>
        <extensions>
          <ns3:TrackPointExtension>
            <ns3:atemp>16.0</ns3:atemp>
            <ns3:hr>113</ns3:hr>
          </ns3:TrackPointExtension>
        </extensions>
      </trkpt>
      <trkpt lat="46.686158962547779083251953125" lon="6.90264402888715267181396484375">
        <ele>625.79998779296875</ele>
        <time>2013-08-15T17:54:55.000Z</time>
        <extensions>
          <ns3:TrackPointExtension>
            <ns3:atemp>16.0</ns3:atemp>
            <ns3:hr>113</ns3:hr>
          </ns3:TrackPointExtension>
        </extensions>
      </trkpt>
      <trkpt lat="46.686210930347442626953125" lon="6.90260748378932476043701171875">
        <ele>625.20001220703125</ele>
        <time>2013-08-15T17:54:56.000Z</time>
        <extensions>
          <ns3:TrackPointExtension>
            <ns3:atemp>16.0</ns3:atemp>
            <ns3:hr>113</ns3:hr>
          </ns3:TrackPointExtension>
        </extensions>
      </trkpt>
      <trkpt lat="46.6862560249865055084228515625" lon="6.90256222151219844818115234375">
        <ele>625</ele>
        <time>2013-08-15T17:54:57.000Z</time>
        <extensions>
          <ns3:TrackPointExtension>
            <ns3:atemp>16.0</ns3:atemp>
            <ns3:hr>112</ns3:hr>
          </ns3:TrackPointExtension>
        </extensions>
      </trkpt>
      <trkpt lat="46.68629952706396579742431640625" lon="6.90250405110418796539306640625">
        <ele>624.20001220703125</ele>
        <time>2013-08-15T17:54:58.000Z</time>
        <extensions>
          <ns3:TrackPointExtension>
            <ns3:atemp>16.0</ns3:atemp>
            <ns3:hr>112</ns3:hr>
          </ns3:TrackPointExtension>
        </extensions>
      </trkpt>
      <trkpt lat="46.68635786511003971099853515625" lon="6.90245342440903186798095703125">
        <ele>624</ele>
        <time>2013-08-15T17:54:59.000Z</time>
        <extensions>
          <ns3:TrackPointExtension>
            <ns3:atemp>16.0</ns3:atemp>
            <ns3:hr>113</ns3:hr>
          </ns3:TrackPointExtension>
        </extensions>
      </trkpt>
      <trkpt lat="46.68641653843224048614501953125" lon="6.90242148935794830322265625">
        <ele>624</ele>
        <time>2013-08-15T17:55:00.000Z</time>
        <extensions>
          <ns3:TrackPointExtension>
            <ns3:atemp>16.0</ns3:atemp>
            <ns3:hr>113</ns3:hr>
          </ns3:TrackPointExtension>
        </extensions>
      </trkpt>
      <trkpt lat="46.68648057617247104644775390625" lon="6.90242140553891658782958984375">
        <ele>624.20001220703125</ele>
        <time>2013-08-15T17:55:01.000Z</time>
        <extensions>
          <ns3:TrackPointExtension>
            <ns3:atemp>16.0</ns3:atemp>
            <ns3:hr>113</ns3:hr>
          </ns3:TrackPointExtension>
        </extensions>
      </trkpt>
      <trkpt lat="46.6865460388362407684326171875" lon="6.902447640895843505859375">
        <ele>624.20001220703125</ele>
        <time>2013-08-15T17:55:02.000Z</time>
        <extensions>
          <ns3:TrackPointExtension>
            <ns3:atemp>16.0</ns3:atemp>
            <ns3:hr>114</ns3:hr>
          </ns3:TrackPointExtension>
        </extensions>
      </trkpt>
      <trkpt lat="46.6866157762706279754638671875" lon="6.90246650017797946929931640625">
        <ele>624.20001220703125</ele>
        <time>2013-08-15T17:55:03.000Z</time>
        <extensions>
          <ns3:TrackPointExtension>
            <ns3:atemp>16.0</ns3:atemp>
            <ns3:hr>115</ns3:hr>
          </ns3:TrackPointExtension>
        </extensions>
      </trkpt>
      <trkpt lat="46.68669976294040679931640625" lon="6.902511678636074066162109375">
        <ele>624.20001220703125</ele>
        <time>2013-08-15T17:55:04.000Z</time>
        <extensions>
          <ns3:TrackPointExtension>
            <ns3:atemp>16.0</ns3:atemp>
            <ns3:hr>116</ns3:hr>
          </ns3:TrackPointExtension>
        </extensions>
      </trkpt>
      <trkpt lat="46.686785928905010223388671875" lon="6.90256054513156414031982421875">
        <ele>624.20001220703125</ele>
        <time>2013-08-15T17:55:05.000Z</time>
        <extensions>
          <ns3:TrackPointExtension>
            <ns3:atemp>16.0</ns3:atemp>
            <ns3:hr>117</ns3:hr>
          </ns3:TrackPointExtension>
        </extensions>
      </trkpt>
      <trkpt lat="46.6868561692535877227783203125" lon="6.9025923125445842742919921875">
        <ele>624.5999755859375</ele>
        <time>2013-08-15T17:55:06.000Z</time>
        <extensions>
          <ns3:TrackPointExtension>
            <ns3:atemp>16.0</ns3:atemp>
            <ns3:hr>117</ns3:hr>
          </ns3:TrackPointExtension>
        </extensions>
      </trkpt>
      <trkpt lat="46.6869202069938182830810546875" lon="6.90261854790151119232177734375">
        <ele>624.79998779296875</ele>
        <time>2013-08-15T17:55:07.000Z</time>
        <extensions>
          <ns3:TrackPointExtension>
            <ns3:atemp>16.0</ns3:atemp>
            <ns3:hr>118</ns3:hr>
          </ns3:TrackPointExtension>
        </extensions>
      </trkpt>
      <trkpt lat="46.6869916208088397979736328125" lon="6.90263782627880573272705078125">
        <ele>625</ele>
        <time>2013-08-15T17:55:08.000Z</time>
        <extensions>
          <ns3:TrackPointExtension>
            <ns3:atemp>16.0</ns3:atemp>
            <ns3:hr>118</ns3:hr>
          </ns3:TrackPointExtension>
        </extensions>
      </trkpt>
      <trkpt lat="46.6870613582432270050048828125" lon="6.9026399217545986175537109375">
        <ele>625.20001220703125</ele>
        <time>2013-08-15T17:55:09.000Z</time>
        <extensions>
          <ns3:TrackPointExtension>
            <ns3:atemp>16.0</ns3:atemp>
            <ns3:hr>118</ns3:hr>
          </ns3:TrackPointExtension>
        </extensions>
      </trkpt>
      <trkpt lat="46.68712212704122066497802734375" lon="6.9026100821793079376220703125">
        <ele>625</ele>
        <time>2013-08-15T17:55:10.000Z</time>
        <extensions>
          <ns3:TrackPointExtension>
            <ns3:atemp>16.0</ns3:atemp>
            <ns3:hr>119</ns3:hr>
          </ns3:TrackPointExtension>
        </extensions>
      </trkpt>
      <trkpt lat="46.68717141263186931610107421875" lon="6.90254646353423595428466796875">
        <ele>625.4000244140625</ele>
        <time>2013-08-15T17:55:11.000Z</time>
        <extensions>
          <ns3:TrackPointExtension>
            <ns3:atemp>16.0</ns3:atemp>
            <ns3:hr>119</ns3:hr>
          </ns3:TrackPointExtension>
        </extensions>
      </trkpt>
      <trkpt lat="46.687215752899646759033203125" lon="6.9024722836911678314208984375">
        <ele>625.4000244140625</ele>
        <time>2013-08-15T17:55:12.000Z</time>
        <extensions>
          <ns3:TrackPointExtension>
            <ns3:atemp>16.0</ns3:atemp>
            <ns3:hr>119</ns3:hr>
          </ns3:TrackPointExtension>
        </extensions>
      </trkpt>
      <trkpt lat="46.68724064715206623077392578125" lon="6.90238569863140583038330078125">
        <ele>625.79998779296875</ele>
        <time>2013-08-15T17:55:13.000Z</time>
        <extensions>
          <ns3:TrackPointExtension>
            <ns3:atemp>16.0</ns3:atemp>
            <ns3:hr>120</ns3:hr>
          </ns3:TrackPointExtension>
        </extensions>
      </trkpt>
      <trkpt lat="46.68725154362618923187255859375" lon="6.9023056514561176300048828125">
        <ele>625.79998779296875</ele>
        <time>2013-08-15T17:55:14.000Z</time>
        <extensions>
          <ns3:TrackPointExtension>
            <ns3:atemp>16.0</ns3:atemp>
            <ns3:hr>121</ns3:hr>
          </ns3:TrackPointExtension>
        </extensions>
      </trkpt>
      <trkpt lat="46.687251962721347808837890625" lon="6.902222670614719390869140625">
        <ele>626</ele>
        <time>2013-08-15T17:55:15.000Z</time>
        <extensions>
          <ns3:TrackPointExtension>
            <ns3:atemp>16.0</ns3:atemp>
            <ns3:hr>122</ns3:hr>
          </ns3:TrackPointExtension>
        </extensions>
      </trkpt>
      <trkpt lat="46.6872471012175083160400390625" lon="6.9021480716764926910400390625">
        <ele>625.79998779296875</ele>
        <time>2013-08-15T17:55:16.000Z</time>
        <extensions>
          <ns3:TrackPointExtension>
            <ns3:atemp>16.0</ns3:atemp>
            <ns3:hr>122</ns3:hr>
          </ns3:TrackPointExtension>
        </extensions>
      </trkpt>
      <trkpt lat="46.68723930604755878448486328125" lon="6.90207908861339092254638671875">
        <ele>625.79998779296875</ele>
        <time>2013-08-15T17:55:17.000Z</time>
        <extensions>
          <ns3:TrackPointExtension>
            <ns3:atemp>16.0</ns3:atemp>
            <ns3:hr>123</ns3:hr>
          </ns3:TrackPointExtension>
        </extensions>
      </trkpt>
      <trkpt lat="46.68723360635340213775634765625" lon="6.90202125348150730133056640625">
        <ele>625.79998779296875</ele>
        <time>2013-08-15T17:55:18.000Z</time>
        <extensions>
          <ns3:TrackPointExtension>
            <ns3:atemp>16.0</ns3:atemp>
            <ns3:hr>124</ns3:hr>
          </ns3:TrackPointExtension>
        </extensions>
      </trkpt>
      <trkpt lat="46.687228493392467498779296875" lon="6.90196207724511623382568359375">
        <ele>625.79998779296875</ele>
        <time>2013-08-15T17:55:19.000Z</time>
        <extensions>
          <ns3:TrackPointExtension>
            <ns3:atemp>16.0</ns3:atemp>
            <ns3:hr>124</ns3:hr>
          </ns3:TrackPointExtension>
        </extensions>
      </trkpt>
      <trkpt lat="46.68722279369831085205078125" lon="6.9019076786935329437255859375">
        <ele>625.79998779296875</ele>
        <time>2013-08-15T17:55:20.000Z</time>
        <extensions>
          <ns3:TrackPointExtension>
            <ns3:atemp>16.0</ns3:atemp>
            <ns3:hr>125</ns3:hr>
          </ns3:TrackPointExtension>
        </extensions>
      </trkpt>
      <trkpt lat="46.687217764556407928466796875" lon="6.90185478888452053070068359375">
        <ele>626</ele>
        <time>2013-08-15T17:55:21.000Z</time>
        <extensions>
          <ns3:TrackPointExtension>
            <ns3:atemp>16.0</ns3:atemp>
            <ns3:hr>125</ns3:hr>
          </ns3:TrackPointExtension>
        </extensions>
      </trkpt>
      <trkpt lat="46.68721097521483898162841796875" lon="6.9018025696277618408203125">
        <ele>626.4000244140625</ele>
        <time>2013-08-15T17:55:22.000Z</time>
        <extensions>
          <ns3:TrackPointExtension>
            <ns3:atemp>16.0</ns3:atemp>
            <ns3:hr>126</ns3:hr>
          </ns3:TrackPointExtension>
        </extensions>
      </trkpt>
      <trkpt lat="46.6872055269777774810791015625" lon="6.90175135619938373565673828125">
        <ele>626.79998779296875</ele>
        <time>2013-08-15T17:55:23.000Z</time>
        <extensions>
          <ns3:TrackPointExtension>
            <ns3:atemp>16.0</ns3:atemp>
            <ns3:hr>126</ns3:hr>
          </ns3:TrackPointExtension>
        </extensions>
      </trkpt>
      <trkpt lat="46.68720108456909656524658203125" lon="6.90170424990355968475341796875">
        <ele>627</ele>
        <time>2013-08-15T17:55:24.000Z</time>
        <extensions>
          <ns3:TrackPointExtension>
            <ns3:atemp>16.0</ns3:atemp>
            <ns3:hr>126</ns3:hr>
          </ns3:TrackPointExtension>
        </extensions>
      </trkpt>
      <trkpt lat="46.6871947981417179107666015625" lon="6.9016550481319427490234375">
        <ele>627.20001220703125</ele>
        <time>2013-08-15T17:55:25.000Z</time>
        <extensions>
          <ns3:TrackPointExtension>
            <ns3:atemp>16.0</ns3:atemp>
            <ns3:hr>127</ns3:hr>
          </ns3:TrackPointExtension>
        </extensions>
      </trkpt>
      <trkpt lat="46.6871924512088298797607421875" lon="6.90160634927451610565185546875">
        <ele>627.5999755859375</ele>
        <time>2013-08-15T17:55:26.000Z</time>
        <extensions>
          <ns3:TrackPointExtension>
            <ns3:atemp>16.0</ns3:atemp>
            <ns3:hr>127</ns3:hr>
          </ns3:TrackPointExtension>
        </extensions>
      </trkpt>
      <trkpt lat="46.687192954123020172119140625" lon="6.90155823715031147003173828125">
        <ele>627.79998779296875</ele>
        <time>2013-08-15T17:55:27.000Z</time>
        <extensions>
          <ns3:TrackPointExtension>
            <ns3:atemp>16.0</ns3:atemp>
            <ns3:hr>128</ns3:hr>
          </ns3:TrackPointExtension>
        </extensions>
      </trkpt>
      <trkpt lat="46.6871937923133373260498046875" lon="6.901515237987041473388671875">
        <ele>628</ele>
        <time>2013-08-15T17:55:28.000Z</time>
        <extensions>
          <ns3:TrackPointExtension>
            <ns3:atemp>16.0</ns3:atemp>
            <ns3:hr>129</ns3:hr>
          </ns3:TrackPointExtension>
        </extensions>
      </trkpt>
      <trkpt lat="46.687197983264923095703125" lon="6.90146838314831256866455078125">
        <ele>628.4000244140625</ele>
        <time>2013-08-15T17:55:29.000Z</time>
        <extensions>
          <ns3:TrackPointExtension>
            <ns3:atemp>16.0</ns3:atemp>
            <ns3:hr>129</ns3:hr>
          </ns3:TrackPointExtension>
        </extensions>
      </trkpt>
      <trkpt lat="46.6872008331120014190673828125" lon="6.9014238752424716949462890625">
        <ele>628.79998779296875</ele>
        <time>2013-08-15T17:55:30.000Z</time>
        <extensions>
          <ns3:TrackPointExtension>
            <ns3:atemp>16.0</ns3:atemp>
            <ns3:hr>130</ns3:hr>
          </ns3:TrackPointExtension>
        </extensions>
      </trkpt>
      <trkpt lat="46.68720963411033153533935546875" lon="6.9013812951743602752685546875">
        <ele>629.20001220703125</ele>
        <time>2013-08-15T17:55:31.000Z</time>
        <extensions>
          <ns3:TrackPointExtension>
            <ns3:atemp>16.0</ns3:atemp>
            <ns3:hr>131</ns3:hr>
          </ns3:TrackPointExtension>
        </extensions>
      </trkpt>
      <trkpt lat="46.6872202791273593902587890625" lon="6.901343576610088348388671875">
        <ele>629.5999755859375</ele>
        <time>2013-08-15T17:55:32.000Z</time>
        <extensions>
          <ns3:TrackPointExtension>
            <ns3:atemp>16.0</ns3:atemp>
            <ns3:hr>132</ns3:hr>
          </ns3:TrackPointExtension>
        </extensions>
      </trkpt>
      <trkpt lat="46.6872341930866241455078125" lon="6.90130912698805332183837890625">
        <ele>630</ele>
        <time>2013-08-15T17:55:33.000Z</time>
        <extensions>
          <ns3:TrackPointExtension>
            <ns3:atemp>16.0</ns3:atemp>
            <ns3:hr>133</ns3:hr>
          </ns3:TrackPointExtension>
        </extensions>
      </trkpt>
      <trkpt lat="46.687251627445220947265625" lon="6.9012800417840480804443359375">
        <ele>630.4000244140625</ele>
        <time>2013-08-15T17:55:34.000Z</time>
        <extensions>
          <ns3:TrackPointExtension>
            <ns3:atemp>16.0</ns3:atemp>
            <ns3:hr>134</ns3:hr>
          </ns3:TrackPointExtension>
        </extensions>
      </trkpt>
      <trkpt lat="46.6872695647180080413818359375" lon="6.90125296823680400848388671875">
        <ele>630.79998779296875</ele>
        <time>2013-08-15T17:55:35.000Z</time>
        <extensions>
          <ns3:TrackPointExtension>
            <ns3:atemp>16.0</ns3:atemp>
            <ns3:hr>135</ns3:hr>
          </ns3:TrackPointExtension>
        </extensions>
      </trkpt>
      <trkpt lat="46.68728540651500225067138671875" lon="6.901226229965686798095703125">
        <ele>631.20001220703125</ele>
        <time>2013-08-15T17:55:36.000Z</time>
        <extensions>
          <ns3:TrackPointExtension>
            <ns3:atemp>16.0</ns3:atemp>
            <ns3:hr>136</ns3:hr>
          </ns3:TrackPointExtension>
        </extensions>
      </trkpt>
      <trkpt lat="46.68730133213102817535400390625" lon="6.90120016224682331085205078125">
        <ele>631.5999755859375</ele>
        <time>2013-08-15T17:55:37.000Z</time>
        <extensions>
          <ns3:TrackPointExtension>
            <ns3:atemp>16.0</ns3:atemp>
            <ns3:hr>137</ns3:hr>
          </ns3:TrackPointExtension>
        </extensions>
      </trkpt>
      <trkpt lat="46.6873185150325298309326171875" lon="6.90117501653730869293212890625">
        <ele>631.79998779296875</ele>
        <time>2013-08-15T17:55:38.000Z</time>
        <extensions>
          <ns3:TrackPointExtension>
            <ns3:atemp>16.0</ns3:atemp>
            <ns3:hr>138</ns3:hr>
          </ns3:TrackPointExtension>
        </extensions>
      </trkpt>
      <trkpt lat="46.68733553029596805572509765625" lon="6.90114987082779407501220703125">
        <ele>632</ele>
        <time>2013-08-15T17:55:39.000Z</time>
        <extensions>
          <ns3:TrackPointExtension>
            <ns3:atemp>16.0</ns3:atemp>
            <ns3:hr>138</ns3:hr>
          </ns3:TrackPointExtension>
        </extensions>
      </trkpt>
      <trkpt lat="46.6873540543019771575927734375" lon="6.9011241383850574493408203125">
        <ele>632.4000244140625</ele>
        <time>2013-08-15T17:55:40.000Z</time>
        <extensions>
          <ns3:TrackPointExtension>
            <ns3:atemp>16.0</ns3:atemp>
            <ns3:hr>139</ns3:hr>
          </ns3:TrackPointExtension>
        </extensions>
      </trkpt>
      <trkpt lat="46.6873709857463836669921875" lon="6.90109740011394023895263671875">
        <ele>633</ele>
        <time>2013-08-15T17:55:41.000Z</time>
        <extensions>
          <ns3:TrackPointExtension>
            <ns3:atemp>16.0</ns3:atemp>
            <ns3:hr>140</ns3:hr>
          </ns3:TrackPointExtension>
        </extensions>
      </trkpt>
      <trkpt lat="46.68738682754337787628173828125" lon="6.90107074566185474395751953125">
        <ele>633.4000244140625</ele>
        <time>2013-08-15T17:55:42.000Z</time>
        <extensions>
          <ns3:TrackPointExtension>
            <ns3:atemp>16.0</ns3:atemp>
            <ns3:hr>140</ns3:hr>
          </ns3:TrackPointExtension>
        </extensions>
      </trkpt>
      <trkpt lat="46.68740157969295978546142578125" lon="6.90104576759040355682373046875">
        <ele>633.5999755859375</ele>
        <time>2013-08-15T17:55:43.000Z</time>
        <extensions>
          <ns3:TrackPointExtension>
            <ns3:atemp>16.0</ns3:atemp>
            <ns3:hr>141</ns3:hr>
          </ns3:TrackPointExtension>
        </extensions>
      </trkpt>
      <trkpt lat="46.68741163797676563262939453125" lon="6.90102900378406047821044921875">
        <ele>633.5999755859375</ele>
        <time>2013-08-15T17:55:44.000Z</time>
        <extensions>
          <ns3:TrackPointExtension>
            <ns3:atemp>16.0</ns3:atemp>
            <ns3:hr>141</ns3:hr>
          </ns3:TrackPointExtension>
        </extensions>
      </trkpt>
      <trkpt lat="46.6874261386692523956298828125" lon="6.90100821666419506072998046875">
        <ele>634</ele>
        <time>2013-08-15T17:55:45.000Z</time>
        <extensions>
          <ns3:TrackPointExtension>
            <ns3:atemp>16.0</ns3:atemp>
            <ns3:hr>142</ns3:hr>
          </ns3:TrackPointExtension>
        </extensions>
      </trkpt>
      <trkpt lat="46.6874407231807708740234375" lon="6.900983490049839019775390625">
        <ele>634.5999755859375</ele>
        <time>2013-08-15T17:55:46.000Z</time>
        <extensions>
          <ns3:TrackPointExtension>
            <ns3:atemp>16.0</ns3:atemp>
            <ns3:hr>142</ns3:hr>
          </ns3:TrackPointExtension>
        </extensions>
      </trkpt>
      <trkpt lat="46.68745589442551136016845703125" lon="6.9009603559970855712890625">
        <ele>635</ele>
        <time>2013-08-15T17:55:47.000Z</time>
        <extensions>
          <ns3:TrackPointExtension>
            <ns3:atemp>16.0</ns3:atemp>
            <ns3:hr>142</ns3:hr>
          </ns3:TrackPointExtension>
        </extensions>
      </trkpt>
      <trkpt lat="46.6874717362225055694580078125" lon="6.90093688666820526123046875">
        <ele>635.20001220703125</ele>
        <time>2013-08-15T17:55:48.000Z</time>
        <extensions>
          <ns3:TrackPointExtension>
            <ns3:atemp>16.0</ns3:atemp>
            <ns3:hr>143</ns3:hr>
          </ns3:TrackPointExtension>
        </extensions>
      </trkpt>
      <trkpt lat="46.6874885000288486480712890625" lon="6.90091283060610294342041015625">
        <ele>635.5999755859375</ele>
        <time>2013-08-15T17:55:49.000Z</time>
        <extensions>
          <ns3:TrackPointExtension>
            <ns3:atemp>16.0</ns3:atemp>
            <ns3:hr>143</ns3:hr>
          </ns3:TrackPointExtension>
        </extensions>
      </trkpt>
      <trkpt lat="46.68750576674938201904296875" lon="6.90088802017271518707275390625">
        <ele>635.79998779296875</ele>
        <time>2013-08-15T17:55:50.000Z</time>
        <extensions>
          <ns3:TrackPointExtension>
            <ns3:atemp>16.0</ns3:atemp>
            <ns3:hr>143</ns3:hr>
          </ns3:TrackPointExtension>
        </extensions>
      </trkpt>
      <trkpt lat="46.68752311728894710540771484375" lon="6.90086354501545429229736328125">
        <ele>636.20001220703125</ele>
        <time>2013-08-15T17:55:51.000Z</time>
        <extensions>
          <ns3:TrackPointExtension>
            <ns3:atemp>16.0</ns3:atemp>
            <ns3:hr>144</ns3:hr>
          </ns3:TrackPointExtension>
        </extensions>
      </trkpt>
      <trkpt lat="46.6875418089330196380615234375" lon="6.900840662419795989990234375">
        <ele>636.4000244140625</ele>
        <time>2013-08-15T17:55:52.000Z</time>
        <extensions>
          <ns3:TrackPointExtension>
            <ns3:atemp>16.0</ns3:atemp>
            <ns3:hr>144</ns3:hr>
          </ns3:TrackPointExtension>
        </extensions>
      </trkpt>
      <trkpt lat="46.6875602491199970245361328125" lon="6.90081995911896228790283203125">
        <ele>636.79998779296875</ele>
        <time>2013-08-15T17:55:53.000Z</time>
        <extensions>
          <ns3:TrackPointExtension>
            <ns3:atemp>16.0</ns3:atemp>
            <ns3:hr>144</ns3:hr>
          </ns3:TrackPointExtension>
        </extensions>
      </trkpt>
      <trkpt lat="46.6875820420682430267333984375" lon="6.90079950727522373199462890625">
        <ele>637</ele>
        <time>2013-08-15T17:55:54.000Z</time>
        <extensions>
          <ns3:TrackPointExtension>
            <ns3:atemp>16.0</ns3:atemp>
            <ns3:hr>144</ns3:hr>
          </ns3:TrackPointExtension>
        </extensions>
      </trkpt>
      <trkpt lat="46.6875991411507129669189453125" lon="6.9007781334221363067626953125">
        <ele>637.4000244140625</ele>
        <time>2013-08-15T17:55:55.000Z</time>
        <extensions>
          <ns3:TrackPointExtension>
            <ns3:atemp>16.0</ns3:atemp>
            <ns3:hr>144</ns3:hr>
          </ns3:TrackPointExtension>
        </extensions>
      </trkpt>
      <trkpt lat="46.68761439621448516845703125" lon="6.9007553346455097198486328125">
        <ele>637.5999755859375</ele>
        <time>2013-08-15T17:55:56.000Z</time>
        <extensions>
          <ns3:TrackPointExtension>
            <ns3:atemp>16.0</ns3:atemp>
            <ns3:hr>145</ns3:hr>
          </ns3:TrackPointExtension>
        </extensions>
      </trkpt>
      <trkpt lat="46.6876303218305110931396484375" lon="6.90073044039309024810791015625">
        <ele>638</ele>
        <time>2013-08-15T17:55:57.000Z</time>
        <extensions>
          <ns3:TrackPointExtension>
            <ns3:atemp>16.0</ns3:atemp>
            <ns3:hr>145</ns3:hr>
          </ns3:TrackPointExtension>
        </extensions>
      </trkpt>
      <trkpt lat="46.687646247446537017822265625" lon="6.9007090665400028228759765625">
        <ele>638.20001220703125</ele>
        <time>2013-08-15T17:55:58.000Z</time>
        <extensions>
          <ns3:TrackPointExtension>
            <ns3:atemp>16.0</ns3:atemp>
            <ns3:hr>145</ns3:hr>
          </ns3:TrackPointExtension>
        </extensions>
      </trkpt>
      <trkpt lat="46.68766292743384838104248046875" lon="6.900685764849185943603515625">
        <ele>638.4000244140625</ele>
        <time>2013-08-15T17:55:59.000Z</time>
        <extensions>
          <ns3:TrackPointExtension>
            <ns3:atemp>16.0</ns3:atemp>
            <ns3:hr>145</ns3:hr>
          </ns3:TrackPointExtension>
        </extensions>
      </trkpt>
      <trkpt lat="46.68767835013568401336669921875" lon="6.900661624968051910400390625">
        <ele>638.5999755859375</ele>
        <time>2013-08-15T17:56:00.000Z</time>
        <extensions>
          <ns3:TrackPointExtension>
            <ns3:atemp>16.0</ns3:atemp>
            <ns3:hr>146</ns3:hr>
          </ns3:TrackPointExtension>
        </extensions>
      </trkpt>
      <trkpt lat="46.6876955330371856689453125" lon="6.90063069574534893035888671875">
        <ele>638.79998779296875</ele>
        <time>2013-08-15T17:56:01.000Z</time>
        <extensions>
          <ns3:TrackPointExtension>
            <ns3:atemp>16.0</ns3:atemp>
            <ns3:hr>146</ns3:hr>
          </ns3:TrackPointExtension>
        </extensions>
      </trkpt>
      <trkpt lat="46.687711291015148162841796875" lon="6.90060429275035858154296875">
        <ele>639.20001220703125</ele>
        <time>2013-08-15T17:56:02.000Z</time>
        <extensions>
          <ns3:TrackPointExtension>
            <ns3:atemp>16.0</ns3:atemp>
            <ns3:hr>147</ns3:hr>
          </ns3:TrackPointExtension>
        </extensions>
      </trkpt>
      <trkpt lat="46.687729395925998687744140625" lon="6.90057705156505107879638671875">
        <ele>639.4000244140625</ele>
        <time>2013-08-15T17:56:03.000Z</time>
        <extensions>
          <ns3:TrackPointExtension>
            <ns3:atemp>16.0</ns3:atemp>
            <ns3:hr>147</ns3:hr>
          </ns3:TrackPointExtension>
        </extensions>
      </trkpt>
      <trkpt lat="46.6877490095794200897216796875" lon="6.9005498103797435760498046875">
        <ele>639.79998779296875</ele>
        <time>2013-08-15T17:56:04.000Z</time>
        <extensions>
          <ns3:TrackPointExtension>
            <ns3:atemp>16.0</ns3:atemp>
            <ns3:hr>147</ns3:hr>
          </ns3:TrackPointExtension>
        </extensions>
      </trkpt>
      <trkpt lat="46.68776862323284149169921875" lon="6.90052055753767490386962890625">
        <ele>639.79998779296875</ele>
        <time>2013-08-15T17:56:05.000Z</time>
        <extensions>
          <ns3:TrackPointExtension>
            <ns3:atemp>16.0</ns3:atemp>
            <ns3:hr>147</ns3:hr>
          </ns3:TrackPointExtension>
        </extensions>
      </trkpt>
      <trkpt lat="46.68778882361948490142822265625" lon="6.90048753283917903900146484375">
        <ele>640</ele>
        <time>2013-08-15T17:56:06.000Z</time>
        <extensions>
          <ns3:TrackPointExtension>
            <ns3:atemp>16.0</ns3:atemp>
            <ns3:hr>148</ns3:hr>
          </ns3:TrackPointExtension>
        </extensions>
      </trkpt>
      <trkpt lat="46.68780994601547718048095703125" lon="6.90045249648392200469970703125">
        <ele>640.20001220703125</ele>
        <time>2013-08-15T17:56:07.000Z</time>
        <extensions>
          <ns3:TrackPointExtension>
            <ns3:atemp>16.0</ns3:atemp>
            <ns3:hr>148</ns3:hr>
          </ns3:TrackPointExtension>
        </extensions>
      </trkpt>
      <trkpt lat="46.68783366680145263671875" lon="6.9004153646528720855712890625">
        <ele>640.5999755859375</ele>
        <time>2013-08-15T17:56:08.000Z</time>
        <extensions>
          <ns3:TrackPointExtension>
            <ns3:atemp>16.0</ns3:atemp>
            <ns3:hr>148</ns3:hr>
          </ns3:TrackPointExtension>
        </extensions>
      </trkpt>
      <trkpt lat="46.68785789050161838531494140625" lon="6.90037588588893413543701171875">
        <ele>640.79998779296875</ele>
        <time>2013-08-15T17:56:09.000Z</time>
        <extensions>
          <ns3:TrackPointExtension>
            <ns3:atemp>16.0</ns3:atemp>
            <ns3:hr>149</ns3:hr>
          </ns3:TrackPointExtension>
        </extensions>
      </trkpt>
      <trkpt lat="46.6878814436495304107666015625" lon="6.900334060192108154296875">
        <ele>641.20001220703125</ele>
        <time>2013-08-15T17:56:10.000Z</time>
        <extensions>
          <ns3:TrackPointExtension>
            <ns3:atemp>16.0</ns3:atemp>
            <ns3:hr>148</ns3:hr>
          </ns3:TrackPointExtension>
        </extensions>
      </trkpt>
      <trkpt lat="46.68790650554001331329345703125" lon="6.9002936594188213348388671875">
        <ele>641.4000244140625</ele>
        <time>2013-08-15T17:56:11.000Z</time>
        <extensions>
          <ns3:TrackPointExtension>
            <ns3:atemp>16.0</ns3:atemp>
            <ns3:hr>149</ns3:hr>
          </ns3:TrackPointExtension>
        </extensions>
      </trkpt>
      <trkpt lat="46.687927879393100738525390625" lon="6.90026373602449893951416015625">
        <ele>641.5999755859375</ele>
        <time>2013-08-15T17:56:12.000Z</time>
        <extensions>
          <ns3:TrackPointExtension>
            <ns3:atemp>16.0</ns3:atemp>
            <ns3:hr>148</ns3:hr>
          </ns3:TrackPointExtension>
        </extensions>
      </trkpt>
      <trkpt lat="46.687952019274234771728515625" lon="6.9002255983650684356689453125">
        <ele>641.79998779296875</ele>
        <time>2013-08-15T17:56:13.000Z</time>
        <extensions>
          <ns3:TrackPointExtension>
            <ns3:atemp>16.0</ns3:atemp>
            <ns3:hr>149</ns3:hr>
          </ns3:TrackPointExtension>
        </extensions>
      </trkpt>
      <trkpt lat="46.6879733093082904815673828125" lon="6.90018243156373500823974609375">
        <ele>642</ele>
        <time>2013-08-15T17:56:14.000Z</time>
        <extensions>
          <ns3:TrackPointExtension>
            <ns3:atemp>16.0</ns3:atemp>
            <ns3:hr>149</ns3:hr>
          </ns3:TrackPointExtension>
        </extensions>
      </trkpt>
      <trkpt lat="46.68800055049359798431396484375" lon="6.9001434557139873504638671875">
        <ele>642.20001220703125</ele>
        <time>2013-08-15T17:56:15.000Z</time>
        <extensions>
          <ns3:TrackPointExtension>
            <ns3:atemp>16.0</ns3:atemp>
            <ns3:hr>149</ns3:hr>
          </ns3:TrackPointExtension>
        </extensions>
      </trkpt>
      <trkpt lat="46.68802469037473201751708984375" lon="6.90010565333068370819091796875">
        <ele>642.4000244140625</ele>
        <time>2013-08-15T17:56:16.000Z</time>
        <extensions>
          <ns3:TrackPointExtension>
            <ns3:atemp>16.0</ns3:atemp>
            <ns3:hr>149</ns3:hr>
          </ns3:TrackPointExtension>
        </extensions>
      </trkpt>
      <trkpt lat="46.68804564513266086578369140625" lon="6.90006709657609462738037109375">
        <ele>642.5999755859375</ele>
        <time>2013-08-15T17:56:17.000Z</time>
        <extensions>
          <ns3:TrackPointExtension>
            <ns3:atemp>16.0</ns3:atemp>
            <ns3:hr>149</ns3:hr>
          </ns3:TrackPointExtension>
        </extensions>
      </trkpt>
      <trkpt lat="46.68807799927890300750732421875" lon="6.9000170566141605377197265625">
        <ele>643</ele>
        <time>2013-08-15T17:56:18.000Z</time>
        <extensions>
          <ns3:TrackPointExtension>
            <ns3:atemp>16.0</ns3:atemp>
            <ns3:hr>149</ns3:hr>
          </ns3:TrackPointExtension>
        </extensions>
      </trkpt>
      <trkpt lat="46.6880993731319904327392578125" lon="6.89997732639312744140625">
        <ele>643</ele>
        <time>2013-08-15T17:56:19.000Z</time>
        <extensions>
          <ns3:TrackPointExtension>
            <ns3:atemp>16.0</ns3:atemp>
            <ns3:hr>149</ns3:hr>
          </ns3:TrackPointExtension>
        </extensions>
      </trkpt>
      <trkpt lat="46.68811823241412639617919921875" lon="6.8999402783811092376708984375">
        <ele>643.20001220703125</ele>
        <time>2013-08-15T17:56:20.000Z</time>
        <extensions>
          <ns3:TrackPointExtension>
            <ns3:atemp>16.0</ns3:atemp>
            <ns3:hr>149</ns3:hr>
          </ns3:TrackPointExtension>
        </extensions>
      </trkpt>
      <trkpt lat="46.68813767842948436737060546875" lon="6.8999047391116619110107421875">
        <ele>643.4000244140625</ele>
        <time>2013-08-15T17:56:21.000Z</time>
        <extensions>
          <ns3:TrackPointExtension>
            <ns3:atemp>16.0</ns3:atemp>
            <ns3:hr>149</ns3:hr>
          </ns3:TrackPointExtension>
        </extensions>
      </trkpt>
      <trkpt lat="46.6881567053496837615966796875" lon="6.8998695351183414459228515625">
        <ele>643.79998779296875</ele>
        <time>2013-08-15T17:56:22.000Z</time>
        <extensions>
          <ns3:TrackPointExtension>
            <ns3:atemp>16.0</ns3:atemp>
            <ns3:hr>149</ns3:hr>
          </ns3:TrackPointExtension>
        </extensions>
      </trkpt>
      <trkpt lat="46.68817740865051746368408203125" lon="6.89983743242919445037841796875">
        <ele>643.79998779296875</ele>
        <time>2013-08-15T17:56:23.000Z</time>
        <extensions>
          <ns3:TrackPointExtension>
            <ns3:atemp>16.0</ns3:atemp>
            <ns3:hr>149</ns3:hr>
          </ns3:TrackPointExtension>
        </extensions>
      </trkpt>
      <trkpt lat="46.6882002912461757659912109375" lon="6.89980558119714260101318359375">
        <ele>643.79998779296875</ele>
        <time>2013-08-15T17:56:24.000Z</time>
        <extensions>
          <ns3:TrackPointExtension>
            <ns3:atemp>16.0</ns3:atemp>
            <ns3:hr>149</ns3:hr>
          </ns3:TrackPointExtension>
        </extensions>
      </trkpt>
      <trkpt lat="46.68822250328958034515380859375" lon="6.8997702933847904205322265625">
        <ele>643.79998779296875</ele>
        <time>2013-08-15T17:56:25.000Z</time>
        <extensions>
          <ns3:TrackPointExtension>
            <ns3:atemp>16.0</ns3:atemp>
            <ns3:hr>149</ns3:hr>
          </ns3:TrackPointExtension>
        </extensions>
      </trkpt>
      <trkpt lat="46.6882395185530185699462890625" lon="6.8997337482869625091552734375">
        <ele>644.20001220703125</ele>
        <time>2013-08-15T17:56:26.000Z</time>
        <extensions>
          <ns3:TrackPointExtension>
            <ns3:atemp>16.0</ns3:atemp>
            <ns3:hr>149</ns3:hr>
          </ns3:TrackPointExtension>
        </extensions>
      </trkpt>
      <trkpt lat="46.68825435452163219451904296875" lon="6.89969628117978572845458984375">
        <ele>644.4000244140625</ele>
        <time>2013-08-15T17:56:27.000Z</time>
        <extensions>
          <ns3:TrackPointExtension>
            <ns3:atemp>16.0</ns3:atemp>
            <ns3:hr>148</ns3:hr>
          </ns3:TrackPointExtension>
        </extensions>
      </trkpt>
      <trkpt lat="46.6882683522999286651611328125" lon="6.89966191537678241729736328125">
        <ele>644.5999755859375</ele>
        <time>2013-08-15T17:56:28.000Z</time>
        <extensions>
          <ns3:TrackPointExtension>
            <ns3:atemp>16.0</ns3:atemp>
            <ns3:hr>148</ns3:hr>
          </ns3:TrackPointExtension>
        </extensions>
      </trkpt>
      <trkpt lat="46.68828972615301609039306640625" lon="6.89963090233504772186279296875">
        <ele>644.5999755859375</ele>
        <time>2013-08-15T17:56:29.000Z</time>
        <extensions>
          <ns3:TrackPointExtension>
            <ns3:atemp>16.0</ns3:atemp>
            <ns3:hr>148</ns3:hr>
          </ns3:TrackPointExtension>
        </extensions>
      </trkpt>
      <trkpt lat="46.688304729759693145751953125" lon="6.8995979614555835723876953125">
        <ele>645</ele>
        <time>2013-08-15T17:56:30.000Z</time>
        <extensions>
          <ns3:TrackPointExtension>
            <ns3:atemp>16.0</ns3:atemp>
            <ns3:hr>148</ns3:hr>
          </ns3:TrackPointExtension>
        </extensions>
      </trkpt>
      <trkpt lat="46.68831906281411647796630859375" lon="6.899561919271945953369140625">
        <ele>645.20001220703125</ele>
        <time>2013-08-15T17:56:31.000Z</time>
        <extensions>
          <ns3:TrackPointExtension>
            <ns3:atemp>16.0</ns3:atemp>
            <ns3:hr>148</ns3:hr>
          </ns3:TrackPointExtension>
        </extensions>
      </trkpt>
      <trkpt lat="46.688332892954349517822265625" lon="6.89952964894473552703857421875">
        <ele>645.5999755859375</ele>
        <time>2013-08-15T17:56:32.000Z</time>
        <extensions>
          <ns3:TrackPointExtension>
            <ns3:atemp>16.0</ns3:atemp>
            <ns3:hr>148</ns3:hr>
          </ns3:TrackPointExtension>
        </extensions>
      </trkpt>
      <trkpt lat="46.68834454379975795745849609375" lon="6.8994826264679431915283203125">
        <ele>645.79998779296875</ele>
        <time>2013-08-15T17:56:33.000Z</time>
        <extensions>
          <ns3:TrackPointExtension>
            <ns3:atemp>16.0</ns3:atemp>
            <ns3:hr>147</ns3:hr>
          </ns3:TrackPointExtension>
        </extensions>
      </trkpt>
      <trkpt lat="46.68835594318807125091552734375" lon="6.8994387052953243255615234375">
        <ele>646.20001220703125</ele>
        <time>2013-08-15T17:56:34.000Z</time>
        <extensions>
          <ns3:TrackPointExtension>
            <ns3:atemp>16.0</ns3:atemp>
            <ns3:hr>148</ns3:hr>
          </ns3:TrackPointExtension>
        </extensions>
      </trkpt>
      <trkpt lat="46.68836667202413082122802734375" lon="6.89939771778881549835205078125">
        <ele>646.4000244140625</ele>
        <time>2013-08-15T17:56:35.000Z</time>
        <extensions>
          <ns3:TrackPointExtension>
            <ns3:atemp>16.0</ns3:atemp>
            <ns3:hr>148</ns3:hr>
          </ns3:TrackPointExtension>
        </extensions>
      </trkpt>
      <trkpt lat="46.68837907724082469940185546875" lon="6.8993579037487506866455078125">
        <ele>646.79998779296875</ele>
        <time>2013-08-15T17:56:36.000Z</time>
        <extensions>
          <ns3:TrackPointExtension>
            <ns3:atemp>16.0</ns3:atemp>
            <ns3:hr>148</ns3:hr>
          </ns3:TrackPointExtension>
        </extensions>
      </trkpt>
      <trkpt lat="46.68839148245751857757568359375" lon="6.89931775443255901336669921875">
        <ele>647.20001220703125</ele>
        <time>2013-08-15T17:56:37.000Z</time>
        <extensions>
          <ns3:TrackPointExtension>
            <ns3:atemp>16.0</ns3:atemp>
            <ns3:hr>148</ns3:hr>
          </ns3:TrackPointExtension>
        </extensions>
      </trkpt>
      <trkpt lat="46.6884058155119419097900390625" lon="6.89927701838314533233642578125">
        <ele>647.4000244140625</ele>
        <time>2013-08-15T17:56:38.000Z</time>
        <extensions>
          <ns3:TrackPointExtension>
            <ns3:atemp>16.0</ns3:atemp>
            <ns3:hr>148</ns3:hr>
          </ns3:TrackPointExtension>
        </extensions>
      </trkpt>
      <trkpt lat="46.68842048384249210357666015625" lon="6.8992378748953342437744140625">
        <ele>647.79998779296875</ele>
        <time>2013-08-15T17:56:39.000Z</time>
        <extensions>
          <ns3:TrackPointExtension>
            <ns3:atemp>16.0</ns3:atemp>
            <ns3:hr>148</ns3:hr>
          </ns3:TrackPointExtension>
        </extensions>
      </trkpt>
      <trkpt lat="46.68843490071594715118408203125" lon="6.8991952948272228240966796875">
        <ele>648</ele>
        <time>2013-08-15T17:56:40.000Z</time>
        <extensions>
          <ns3:TrackPointExtension>
            <ns3:atemp>16.0</ns3:atemp>
            <ns3:hr>148</ns3:hr>
          </ns3:TrackPointExtension>
        </extensions>
      </trkpt>
      <trkpt lat="46.688449569046497344970703125" lon="6.89915321767330169677734375">
        <ele>648.20001220703125</ele>
        <time>2013-08-15T17:56:41.000Z</time>
        <extensions>
          <ns3:TrackPointExtension>
            <ns3:atemp>16.0</ns3:atemp>
            <ns3:hr>148</ns3:hr>
          </ns3:TrackPointExtension>
        </extensions>
      </trkpt>
      <trkpt lat="46.68846524320542812347412109375" lon="6.89910921268165111541748046875">
        <ele>648.4000244140625</ele>
        <time>2013-08-15T17:56:42.000Z</time>
        <extensions>
          <ns3:TrackPointExtension>
            <ns3:atemp>16.0</ns3:atemp>
            <ns3:hr>148</ns3:hr>
          </ns3:TrackPointExtension>
        </extensions>
      </trkpt>
      <trkpt lat="46.68848133645951747894287109375" lon="6.89906713552772998809814453125">
        <ele>648.4000244140625</ele>
        <time>2013-08-15T17:56:43.000Z</time>
        <extensions>
          <ns3:TrackPointExtension>
            <ns3:atemp>16.0</ns3:atemp>
            <ns3:hr>148</ns3:hr>
          </ns3:TrackPointExtension>
        </extensions>
      </trkpt>
      <trkpt lat="46.68849860318005084991455078125" lon="6.8990179337561130523681640625">
        <ele>648.5999755859375</ele>
        <time>2013-08-15T17:56:44.000Z</time>
        <extensions>
          <ns3:TrackPointExtension>
            <ns3:atemp>16.0</ns3:atemp>
            <ns3:hr>148</ns3:hr>
          </ns3:TrackPointExtension>
        </extensions>
      </trkpt>
      <trkpt lat="46.68851821683347225189208984375" lon="6.89897879026830196380615234375">
        <ele>648.79998779296875</ele>
        <time>2013-08-15T17:56:45.000Z</time>
        <extensions>
          <ns3:TrackPointExtension>
            <ns3:atemp>16.0</ns3:atemp>
            <ns3:hr>147</ns3:hr>
          </ns3:TrackPointExtension>
        </extensions>
      </trkpt>
      <trkpt lat="46.6885359026491641998291015625" lon="6.89892598427832126617431640625">
        <ele>648.79998779296875</ele>
        <time>2013-08-15T17:56:46.000Z</time>
        <extensions>
          <ns3:TrackPointExtension>
            <ns3:atemp>16.0</ns3:atemp>
            <ns3:hr>147</ns3:hr>
          </ns3:TrackPointExtension>
        </extensions>
      </trkpt>
      <trkpt lat="46.6885499842464923858642578125" lon="6.89887317828834056854248046875">
        <ele>648.79998779296875</ele>
        <time>2013-08-15T17:56:47.000Z</time>
        <extensions>
          <ns3:TrackPointExtension>
            <ns3:atemp>16.0</ns3:atemp>
            <ns3:hr>147</ns3:hr>
          </ns3:TrackPointExtension>
        </extensions>
      </trkpt>
      <trkpt lat="46.6885645687580108642578125" lon="6.89881953410804271697998046875">
        <ele>649.20001220703125</ele>
        <time>2013-08-15T17:56:48.000Z</time>
        <extensions>
          <ns3:TrackPointExtension>
            <ns3:atemp>16.0</ns3:atemp>
            <ns3:hr>147</ns3:hr>
          </ns3:TrackPointExtension>
        </extensions>
      </trkpt>
      <trkpt lat="46.68858133256435394287109375" lon="6.89876588992774486541748046875">
        <ele>649.4000244140625</ele>
        <time>2013-08-15T17:56:49.000Z</time>
        <extensions>
          <ns3:TrackPointExtension>
            <ns3:atemp>16.0</ns3:atemp>
            <ns3:hr>147</ns3:hr>
          </ns3:TrackPointExtension>
        </extensions>
      </trkpt>
      <trkpt lat="46.68859876692295074462890625" lon="6.8987124972045421600341796875">
        <ele>649.5999755859375</ele>
        <time>2013-08-15T17:56:50.000Z</time>
        <extensions>
          <ns3:TrackPointExtension>
            <ns3:atemp>16.0</ns3:atemp>
            <ns3:hr>147</ns3:hr>
          </ns3:TrackPointExtension>
        </extensions>
      </trkpt>
      <trkpt lat="46.68861812911927700042724609375" lon="6.89865843392908573150634765625">
        <ele>649.5999755859375</ele>
        <time>2013-08-15T17:56:51.000Z</time>
        <extensions>
          <ns3:TrackPointExtension>
            <ns3:atemp>16.0</ns3:atemp>
            <ns3:hr>146</ns3:hr>
          </ns3:TrackPointExtension>
        </extensions>
      </trkpt>
      <trkpt lat="46.688639335334300994873046875" lon="6.89860613085329532623291015625">
        <ele>649.5999755859375</ele>
        <time>2013-08-15T17:56:52.000Z</time>
        <extensions>
          <ns3:TrackPointExtension>
            <ns3:atemp>16.0</ns3:atemp>
            <ns3:hr>146</ns3:hr>
          </ns3:TrackPointExtension>
        </extensions>
      </trkpt>
      <trkpt lat="46.6886602900922298431396484375" lon="6.89855701290071010589599609375">
        <ele>649.4000244140625</ele>
        <time>2013-08-15T17:56:53.000Z</time>
        <extensions>
          <ns3:TrackPointExtension>
            <ns3:atemp>16.0</ns3:atemp>
            <ns3:hr>146</ns3:hr>
          </ns3:TrackPointExtension>
        </extensions>
      </trkpt>
      <trkpt lat="46.68868350796401500701904296875" lon="6.89850705675780773162841796875">
        <ele>649.20001220703125</ele>
        <time>2013-08-15T17:56:54.000Z</time>
        <extensions>
          <ns3:TrackPointExtension>
            <ns3:atemp>16.0</ns3:atemp>
            <ns3:hr>145</ns3:hr>
          </ns3:TrackPointExtension>
        </extensions>
      </trkpt>
      <trkpt lat="46.6887095756828784942626953125" lon="6.89845710061490535736083984375">
        <ele>649.20001220703125</ele>
        <time>2013-08-15T17:56:55.000Z</time>
        <extensions>
          <ns3:TrackPointExtension>
            <ns3:atemp>16.0</ns3:atemp>
            <ns3:hr>145</ns3:hr>
          </ns3:TrackPointExtension>
        </extensions>
      </trkpt>
      <trkpt lat="46.6887407563626766204833984375" lon="6.89841167069971561431884765625">
        <ele>649.20001220703125</ele>
        <time>2013-08-15T17:56:56.000Z</time>
        <extensions>
          <ns3:TrackPointExtension>
            <ns3:atemp>16.0</ns3:atemp>
            <ns3:hr>144</ns3:hr>
          </ns3:TrackPointExtension>
        </extensions>
      </trkpt>
      <trkpt lat="46.6887742839753627777099609375" lon="6.89837311394512653350830078125">
        <ele>649.20001220703125</ele>
        <time>2013-08-15T17:56:57.000Z</time>
        <extensions>
          <ns3:TrackPointExtension>
            <ns3:atemp>16.0</ns3:atemp>
            <ns3:hr>144</ns3:hr>
          </ns3:TrackPointExtension>
        </extensions>
      </trkpt>
      <trkpt lat="46.6888135112822055816650390625" lon="6.898350231349468231201171875">
        <ele>649</ele>
        <time>2013-08-15T17:56:58.000Z</time>
        <extensions>
          <ns3:TrackPointExtension>
            <ns3:atemp>16.0</ns3:atemp>
            <ns3:hr>143</ns3:hr>
          </ns3:TrackPointExtension>
        </extensions>
      </trkpt>
      <trkpt lat="46.68885936029255390167236328125" lon="6.8983389995992183685302734375">
        <ele>648.79998779296875</ele>
        <time>2013-08-15T17:56:59.000Z</time>
        <extensions>
          <ns3:TrackPointExtension>
            <ns3:atemp>16.0</ns3:atemp>
            <ns3:hr>142</ns3:hr>
          </ns3:TrackPointExtension>
        </extensions>
      </trkpt>
      <trkpt lat="46.6889047063887119293212890625" lon="6.898352913558483123779296875">
        <ele>648.79998779296875</ele>
        <time>2013-08-15T17:57:00.000Z</time>
        <extensions>
          <ns3:TrackPointExtension>
            <ns3:atemp>16.0</ns3:atemp>
            <ns3:hr>141</ns3:hr>
          </ns3:TrackPointExtension>
        </extensions>
      </trkpt>
      <trkpt lat="46.6889546625316143035888671875" lon="6.8983721919357776641845703125">
        <ele>648.79998779296875</ele>
        <time>2013-08-15T17:57:01.000Z</time>
        <extensions>
          <ns3:TrackPointExtension>
            <ns3:atemp>16.0</ns3:atemp>
            <ns3:hr>141</ns3:hr>
          </ns3:TrackPointExtension>
        </extensions>
      </trkpt>
      <trkpt lat="46.68900587595999240875244140625" lon="6.8983961641788482666015625">
        <ele>648.5999755859375</ele>
        <time>2013-08-15T17:57:02.000Z</time>
        <extensions>
          <ns3:TrackPointExtension>
            <ns3:atemp>16.0</ns3:atemp>
            <ns3:hr>140</ns3:hr>
          </ns3:TrackPointExtension>
        </extensions>
      </trkpt>
      <trkpt lat="46.689057759940624237060546875" lon="6.89842307008802890777587890625">
        <ele>648.5999755859375</ele>
        <time>2013-08-15T17:57:03.000Z</time>
        <extensions>
          <ns3:TrackPointExtension>
            <ns3:atemp>16.0</ns3:atemp>
            <ns3:hr>140</ns3:hr>
          </ns3:TrackPointExtension>
        </extensions>
      </trkpt>
      <trkpt lat="46.68911106884479522705078125" lon="6.898451149463653564453125">
        <ele>648.5999755859375</ele>
        <time>2013-08-15T17:57:04.000Z</time>
        <extensions>
          <ns3:TrackPointExtension>
            <ns3:atemp>16.0</ns3:atemp>
            <ns3:hr>139</ns3:hr>
          </ns3:TrackPointExtension>
        </extensions>
      </trkpt>
      <trkpt lat="46.689165048301219940185546875" lon="6.89848534762859344482421875">
        <ele>648.5999755859375</ele>
        <time>2013-08-15T17:57:05.000Z</time>
        <extensions>
          <ns3:TrackPointExtension>
            <ns3:atemp>16.0</ns3:atemp>
            <ns3:hr>139</ns3:hr>
          </ns3:TrackPointExtension>
        </extensions>
      </trkpt>
      <trkpt lat="46.6892195306718349456787109375" lon="6.89852616749703884124755859375">
        <ele>648.5999755859375</ele>
        <time>2013-08-15T17:57:06.000Z</time>
        <extensions>
          <ns3:TrackPointExtension>
            <ns3:atemp>16.0</ns3:atemp>
            <ns3:hr>139</ns3:hr>
          </ns3:TrackPointExtension>
        </extensions>
      </trkpt>
      <trkpt lat="46.68927409686148166656494140625" lon="6.89857251942157745361328125">
        <ele>648.5999755859375</ele>
        <time>2013-08-15T17:57:07.000Z</time>
        <extensions>
          <ns3:TrackPointExtension>
            <ns3:atemp>16.0</ns3:atemp>
            <ns3:hr>138</ns3:hr>
          </ns3:TrackPointExtension>
        </extensions>
      </trkpt>
      <trkpt lat="46.6893281601369380950927734375" lon="6.8986213020980358123779296875">
        <ele>648.79998779296875</ele>
        <time>2013-08-15T17:57:08.000Z</time>
        <extensions>
          <ns3:TrackPointExtension>
            <ns3:atemp>16.0</ns3:atemp>
            <ns3:hr>138</ns3:hr>
          </ns3:TrackPointExtension>
        </extensions>
      </trkpt>
      <trkpt lat="46.6893818043172359466552734375" lon="6.89867201261222362518310546875">
        <ele>648.79998779296875</ele>
        <time>2013-08-15T17:57:09.000Z</time>
        <extensions>
          <ns3:TrackPointExtension>
            <ns3:atemp>16.0</ns3:atemp>
            <ns3:hr>137</ns3:hr>
          </ns3:TrackPointExtension>
        </extensions>
      </trkpt>
      <trkpt lat="46.6894362866878509521484375" lon="6.8987238965928554534912109375">
        <ele>648.79998779296875</ele>
        <time>2013-08-15T17:57:10.000Z</time>
        <extensions>
          <ns3:TrackPointExtension>
            <ns3:atemp>16.0</ns3:atemp>
            <ns3:hr>136</ns3:hr>
          </ns3:TrackPointExtension>
        </extensions>
      </trkpt>
      <trkpt lat="46.68949127197265625" lon="6.898777373135089874267578125">
        <ele>648.5999755859375</ele>
        <time>2013-08-15T17:57:11.000Z</time>
        <extensions>
          <ns3:TrackPointExtension>
            <ns3:atemp>16.0</ns3:atemp>
            <ns3:hr>135</ns3:hr>
          </ns3:TrackPointExtension>
        </extensions>
      </trkpt>
      <trkpt lat="46.6895477660000324249267578125" lon="6.8988321907818317413330078125">
        <ele>648.4000244140625</ele>
        <time>2013-08-15T17:57:12.000Z</time>
        <extensions>
          <ns3:TrackPointExtension>
            <ns3:atemp>16.0</ns3:atemp>
            <ns3:hr>134</ns3:hr>
          </ns3:TrackPointExtension>
        </extensions>
      </trkpt>
      <trkpt lat="46.68960325419902801513671875" lon="6.89888977445662021636962890625">
        <ele>648.20001220703125</ele>
        <time>2013-08-15T17:57:13.000Z</time>
        <extensions>
          <ns3:TrackPointExtension>
            <ns3:atemp>16.0</ns3:atemp>
            <ns3:hr>133</ns3:hr>
          </ns3:TrackPointExtension>
        </extensions>
      </trkpt>
      <trkpt lat="46.68965932913124561309814453125" lon="6.898948363959789276123046875">
        <ele>648</ele>
        <time>2013-08-15T17:57:14.000Z</time>
        <extensions>
          <ns3:TrackPointExtension>
            <ns3:atemp>16.0</ns3:atemp>
            <ns3:hr>132</ns3:hr>
          </ns3:TrackPointExtension>
        </extensions>
      </trkpt>
      <trkpt lat="46.6897164098918437957763671875" lon="6.89900628291070461273193359375">
        <ele>648</ele>
        <time>2013-08-15T17:57:15.000Z</time>
        <extensions>
          <ns3:TrackPointExtension>
            <ns3:atemp>16.0</ns3:atemp>
            <ns3:hr>132</ns3:hr>
          </ns3:TrackPointExtension>
        </extensions>
      </trkpt>
      <trkpt lat="46.68977357447147369384765625" lon="6.89906512387096881866455078125">
        <ele>648</ele>
        <time>2013-08-15T17:57:16.000Z</time>
        <extensions>
          <ns3:TrackPointExtension>
            <ns3:atemp>16.0</ns3:atemp>
            <ns3:hr>131</ns3:hr>
          </ns3:TrackPointExtension>
        </extensions>
      </trkpt>
      <trkpt lat="46.68983082287013530731201171875" lon="6.89911943860352039337158203125">
        <ele>648</ele>
        <time>2013-08-15T17:57:17.000Z</time>
        <extensions>
          <ns3:TrackPointExtension>
            <ns3:atemp>16.0</ns3:atemp>
            <ns3:hr>130</ns3:hr>
          </ns3:TrackPointExtension>
        </extensions>
      </trkpt>
      <trkpt lat="46.68988890945911407470703125" lon="6.89916822127997875213623046875">
        <ele>647.5999755859375</ele>
        <time>2013-08-15T17:57:18.000Z</time>
        <extensions>
          <ns3:TrackPointExtension>
            <ns3:atemp>16.0</ns3:atemp>
            <ns3:hr>128</ns3:hr>
          </ns3:TrackPointExtension>
        </extensions>
      </trkpt>
      <trkpt lat="46.68994925916194915771484375" lon="6.8992130644619464874267578125">
        <ele>647.20001220703125</ele>
        <time>2013-08-15T17:57:19.000Z</time>
        <extensions>
          <ns3:TrackPointExtension>
            <ns3:atemp>16.0</ns3:atemp>
            <ns3:hr>127</ns3:hr>
          </ns3:TrackPointExtension>
        </extensions>
      </trkpt>
      <trkpt lat="46.69001002795994281768798828125" lon="6.8992563150823116302490234375">
        <ele>647</ele>
        <time>2013-08-15T17:57:20.000Z</time>
        <extensions>
          <ns3:TrackPointExtension>
            <ns3:atemp>16.0</ns3:atemp>
            <ns3:hr>126</ns3:hr>
          </ns3:TrackPointExtension>
        </extensions>
      </trkpt>
      <trkpt lat="46.69007004238665103912353515625" lon="6.899298392236232757568359375">
        <ele>646.79998779296875</ele>
        <time>2013-08-15T17:57:21.000Z</time>
        <extensions>
          <ns3:TrackPointExtension>
            <ns3:atemp>16.0</ns3:atemp>
            <ns3:hr>125</ns3:hr>
          </ns3:TrackPointExtension>
        </extensions>
      </trkpt>
      <trkpt lat="46.69012896716594696044921875" lon="6.89934005029499530792236328125">
        <ele>646.4000244140625</ele>
        <time>2013-08-15T17:57:22.000Z</time>
        <extensions>
          <ns3:TrackPointExtension>
            <ns3:atemp>16.0</ns3:atemp>
            <ns3:hr>124</ns3:hr>
          </ns3:TrackPointExtension>
        </extensions>
      </trkpt>
      <trkpt lat="46.69018705375492572784423828125" lon="6.89937508665025234222412109375">
        <ele>646</ele>
        <time>2013-08-15T17:57:23.000Z</time>
        <extensions>
          <ns3:TrackPointExtension>
            <ns3:atemp>16.0</ns3:atemp>
            <ns3:hr>123</ns3:hr>
          </ns3:TrackPointExtension>
        </extensions>
      </trkpt>
      <trkpt lat="46.6902444697916507720947265625" lon="6.89939537085592746734619140625">
        <ele>645.79998779296875</ele>
        <time>2013-08-15T17:57:24.000Z</time>
        <extensions>
          <ns3:TrackPointExtension>
            <ns3:atemp>16.0</ns3:atemp>
            <ns3:hr>122</ns3:hr>
          </ns3:TrackPointExtension>
        </extensions>
      </trkpt>
      <trkpt lat="46.690293252468109130859375" lon="6.8993870727717876434326171875">
        <ele>645.20001220703125</ele>
        <time>2013-08-15T17:57:25.000Z</time>
        <extensions>
          <ns3:TrackPointExtension>
            <ns3:atemp>16.0</ns3:atemp>
            <ns3:hr>121</ns3:hr>
          </ns3:TrackPointExtension>
        </extensions>
      </trkpt>
      <trkpt lat="46.69032971374690532684326171875" lon="6.8993585743010044097900390625">
        <ele>645</ele>
        <time>2013-08-15T17:57:26.000Z</time>
        <extensions>
          <ns3:TrackPointExtension>
            <ns3:atemp>16.0</ns3:atemp>
            <ns3:hr>120</ns3:hr>
          </ns3:TrackPointExtension>
        </extensions>
      </trkpt>
      <trkpt lat="46.6903587989509105682373046875" lon="6.89931523986160755157470703125">
        <ele>644.5999755859375</ele>
        <time>2013-08-15T17:57:27.000Z</time>
        <extensions>
          <ns3:TrackPointExtension>
            <ns3:atemp>16.0</ns3:atemp>
            <ns3:hr>120</ns3:hr>
          </ns3:TrackPointExtension>
        </extensions>
      </trkpt>
      <trkpt lat="46.6903819330036640167236328125" lon="6.8992606736719608306884765625">
        <ele>644.5999755859375</ele>
        <time>2013-08-15T17:57:28.000Z</time>
        <extensions>
          <ns3:TrackPointExtension>
            <ns3:atemp>16.0</ns3:atemp>
            <ns3:hr>120</ns3:hr>
          </ns3:TrackPointExtension>
        </extensions>
      </trkpt>
      <trkpt lat="46.69039676897227764129638671875" lon="6.899196468293666839599609375">
        <ele>644.5999755859375</ele>
        <time>2013-08-15T17:57:29.000Z</time>
        <extensions>
          <ns3:TrackPointExtension>
            <ns3:atemp>16.0</ns3:atemp>
            <ns3:hr>120</ns3:hr>
          </ns3:TrackPointExtension>
        </extensions>
      </trkpt>
      <trkpt lat="46.6904043965041637420654296875" lon="6.8991258926689624786376953125">
        <ele>644.5999755859375</ele>
        <time>2013-08-15T17:57:30.000Z</time>
        <extensions>
          <ns3:TrackPointExtension>
            <ns3:atemp>16.0</ns3:atemp>
            <ns3:hr>120</ns3:hr>
          </ns3:TrackPointExtension>
        </extensions>
      </trkpt>
      <trkpt lat="46.69040682725608348846435546875" lon="6.8990504555404186248779296875">
        <ele>644.5999755859375</ele>
        <time>2013-08-15T17:57:31.000Z</time>
        <extensions>
          <ns3:TrackPointExtension>
            <ns3:atemp>16.0</ns3:atemp>
            <ns3:hr>121</ns3:hr>
          </ns3:TrackPointExtension>
        </extensions>
      </trkpt>
      <trkpt lat="46.69040565378963947296142578125" lon="6.8989730067551136016845703125">
        <ele>644.5999755859375</ele>
        <time>2013-08-15T17:57:32.000Z</time>
        <extensions>
          <ns3:TrackPointExtension>
            <ns3:atemp>16.0</ns3:atemp>
            <ns3:hr>121</ns3:hr>
          </ns3:TrackPointExtension>
        </extensions>
      </trkpt>
      <trkpt lat="46.69040347449481487274169921875" lon="6.89889438450336456298828125">
        <ele>644.79998779296875</ele>
        <time>2013-08-15T17:57:33.000Z</time>
        <extensions>
          <ns3:TrackPointExtension>
            <ns3:atemp>16.0</ns3:atemp>
            <ns3:hr>122</ns3:hr>
          </ns3:TrackPointExtension>
        </extensions>
      </trkpt>
      <trkpt lat="46.690400876104831695556640625" lon="6.89881525933742523193359375">
        <ele>644.79998779296875</ele>
        <time>2013-08-15T17:57:34.000Z</time>
        <extensions>
          <ns3:TrackPointExtension>
            <ns3:atemp>16.0</ns3:atemp>
            <ns3:hr>122</ns3:hr>
          </ns3:TrackPointExtension>
        </extensions>
      </trkpt>
      <trkpt lat="46.69040028937160968780517578125" lon="6.89873537980020046234130859375">
        <ele>644.79998779296875</ele>
        <time>2013-08-15T17:57:35.000Z</time>
        <extensions>
          <ns3:TrackPointExtension>
            <ns3:atemp>16.0</ns3:atemp>
            <ns3:hr>122</ns3:hr>
          </ns3:TrackPointExtension>
        </extensions>
      </trkpt>
      <trkpt lat="46.69040045700967311859130859375" lon="6.898655332624912261962890625">
        <ele>644.79998779296875</ele>
        <time>2013-08-15T17:57:36.000Z</time>
        <extensions>
          <ns3:TrackPointExtension>
            <ns3:atemp>16.0</ns3:atemp>
            <ns3:hr>121</ns3:hr>
          </ns3:TrackPointExtension>
        </extensions>
      </trkpt>
      <trkpt lat="46.6904032230377197265625" lon="6.898574866354465484619140625">
        <ele>645</ele>
        <time>2013-08-15T17:57:37.000Z</time>
        <extensions>
          <ns3:TrackPointExtension>
            <ns3:atemp>16.0</ns3:atemp>
            <ns3:hr>121</ns3:hr>
          </ns3:TrackPointExtension>
        </extensions>
      </trkpt>
      <trkpt lat="46.6904067434370517730712890625" lon="6.8984932266175746917724609375">
        <ele>645.20001220703125</ele>
        <time>2013-08-15T17:57:38.000Z</time>
        <extensions>
          <ns3:TrackPointExtension>
            <ns3:atemp>16.0</ns3:atemp>
            <ns3:hr>120</ns3:hr>
          </ns3:TrackPointExtension>
        </extensions>
      </trkpt>
      <trkpt lat="46.69041034765541553497314453125" lon="6.89840982668101787567138671875">
        <ele>645.20001220703125</ele>
        <time>2013-08-15T17:57:39.000Z</time>
        <extensions>
          <ns3:TrackPointExtension>
            <ns3:atemp>16.0</ns3:atemp>
            <ns3:hr>120</ns3:hr>
          </ns3:TrackPointExtension>
        </extensions>
      </trkpt>
      <trkpt lat="46.6904168017208576202392578125" lon="6.89832617528736591339111328125">
        <ele>645.20001220703125</ele>
        <time>2013-08-15T17:57:40.000Z</time>
        <extensions>
          <ns3:TrackPointExtension>
            <ns3:atemp>16.0</ns3:atemp>
            <ns3:hr>120</ns3:hr>
          </ns3:TrackPointExtension>
        </extensions>
      </trkpt>
      <trkpt lat="46.6904261894524097442626953125" lon="6.8982434459030628204345703125">
        <ele>645</ele>
        <time>2013-08-15T17:57:41.000Z</time>
        <extensions>
          <ns3:TrackPointExtension>
            <ns3:atemp>16.0</ns3:atemp>
            <ns3:hr>120</ns3:hr>
          </ns3:TrackPointExtension>
        </extensions>
      </trkpt>
      <trkpt lat="46.69043633155524730682373046875" lon="6.898161470890045166015625">
        <ele>645.20001220703125</ele>
        <time>2013-08-15T17:57:42.000Z</time>
        <extensions>
          <ns3:TrackPointExtension>
            <ns3:atemp>16.0</ns3:atemp>
            <ns3:hr>121</ns3:hr>
          </ns3:TrackPointExtension>
        </extensions>
      </trkpt>
      <trkpt lat="46.690448820590972900390625" lon="6.8980825133621692657470703125">
        <ele>645.20001220703125</ele>
        <time>2013-08-15T17:57:43.000Z</time>
        <extensions>
          <ns3:TrackPointExtension>
            <ns3:atemp>16.0</ns3:atemp>
            <ns3:hr>121</ns3:hr>
          </ns3:TrackPointExtension>
        </extensions>
      </trkpt>
      <trkpt lat="46.69046130962669849395751953125" lon="6.89800665713846683502197265625">
        <ele>645.4000244140625</ele>
        <time>2013-08-15T17:57:44.000Z</time>
        <extensions>
          <ns3:TrackPointExtension>
            <ns3:atemp>16.0</ns3:atemp>
            <ns3:hr>121</ns3:hr>
          </ns3:TrackPointExtension>
        </extensions>
      </trkpt>
      <trkpt lat="46.69047472067177295684814453125" lon="6.8979292921721935272216796875">
        <ele>645.4000244140625</ele>
        <time>2013-08-15T17:57:45.000Z</time>
        <extensions>
          <ns3:TrackPointExtension>
            <ns3:atemp>16.0</ns3:atemp>
            <ns3:hr>122</ns3:hr>
          </ns3:TrackPointExtension>
        </extensions>
      </trkpt>
      <trkpt lat="46.69048880226910114288330078125" lon="6.8978505022823810577392578125">
        <ele>645.5999755859375</ele>
        <time>2013-08-15T17:57:46.000Z</time>
        <extensions>
          <ns3:TrackPointExtension>
            <ns3:atemp>16.0</ns3:atemp>
            <ns3:hr>123</ns3:hr>
          </ns3:TrackPointExtension>
        </extensions>
      </trkpt>
      <trkpt lat="46.69050673954188823699951171875" lon="6.8977738916873931884765625">
        <ele>645.79998779296875</ele>
        <time>2013-08-15T17:57:47.000Z</time>
        <extensions>
          <ns3:TrackPointExtension>
            <ns3:atemp>16.0</ns3:atemp>
            <ns3:hr>123</ns3:hr>
          </ns3:TrackPointExtension>
        </extensions>
      </trkpt>
      <trkpt lat="46.69052870012819766998291015625" lon="6.8976996280252933502197265625">
        <ele>646</ele>
        <time>2013-08-15T17:57:48.000Z</time>
        <extensions>
          <ns3:TrackPointExtension>
            <ns3:atemp>16.0</ns3:atemp>
            <ns3:hr>124</ns3:hr>
          </ns3:TrackPointExtension>
        </extensions>
      </trkpt>
      <trkpt lat="46.69055300764739513397216796875" lon="6.8976282142102718353271484375">
        <ele>646</ele>
        <time>2013-08-15T17:57:49.000Z</time>
        <extensions>
          <ns3:TrackPointExtension>
            <ns3:atemp>16.0</ns3:atemp>
            <ns3:hr>124</ns3:hr>
          </ns3:TrackPointExtension>
        </extensions>
      </trkpt>
      <trkpt lat="46.69057580642402172088623046875" lon="6.8975574709475040435791015625">
        <ele>646</ele>
        <time>2013-08-15T17:57:50.000Z</time>
        <extensions>
          <ns3:TrackPointExtension>
            <ns3:atemp>16.0</ns3:atemp>
            <ns3:hr>124</ns3:hr>
          </ns3:TrackPointExtension>
        </extensions>
      </trkpt>
      <trkpt lat="46.69059701263904571533203125" lon="6.8974863924086093902587890625">
        <ele>646.20001220703125</ele>
        <time>2013-08-15T17:57:51.000Z</time>
        <extensions>
          <ns3:TrackPointExtension>
            <ns3:atemp>16.0</ns3:atemp>
            <ns3:hr>124</ns3:hr>
          </ns3:TrackPointExtension>
        </extensions>
      </trkpt>
      <trkpt lat="46.690618805587291717529296875" lon="6.89741640351712703704833984375">
        <ele>646.5999755859375</ele>
        <time>2013-08-15T17:57:52.000Z</time>
        <extensions>
          <ns3:TrackPointExtension>
            <ns3:atemp>16.0</ns3:atemp>
            <ns3:hr>125</ns3:hr>
          </ns3:TrackPointExtension>
        </extensions>
      </trkpt>
      <trkpt lat="46.690644957125186920166015625" lon="6.89734750427305698394775390625">
        <ele>647</ele>
        <time>2013-08-15T17:57:53.000Z</time>
        <extensions>
          <ns3:TrackPointExtension>
            <ns3:atemp>16.0</ns3:atemp>
            <ns3:hr>125</ns3:hr>
          </ns3:TrackPointExtension>
        </extensions>
      </trkpt>
      <trkpt lat="46.6906754672527313232421875" lon="6.89727944321930408477783203125">
        <ele>647.20001220703125</ele>
        <time>2013-08-15T17:57:54.000Z</time>
        <extensions>
          <ns3:TrackPointExtension>
            <ns3:atemp>16.0</ns3:atemp>
            <ns3:hr>126</ns3:hr>
          </ns3:TrackPointExtension>
        </extensions>
      </trkpt>
      <trkpt lat="46.6907051391899585723876953125" lon="6.8972118012607097625732421875">
        <ele>647.4000244140625</ele>
        <time>2013-08-15T17:57:55.000Z</time>
        <extensions>
          <ns3:TrackPointExtension>
            <ns3:atemp>16.0</ns3:atemp>
            <ns3:hr>126</ns3:hr>
          </ns3:TrackPointExtension>
        </extensions>
      </trkpt>
      <trkpt lat="46.69073455967009067535400390625" lon="6.89714181236922740936279296875">
        <ele>647.4000244140625</ele>
        <time>2013-08-15T17:57:56.000Z</time>
        <extensions>
          <ns3:TrackPointExtension>
            <ns3:atemp>16.0</ns3:atemp>
            <ns3:hr>127</ns3:hr>
          </ns3:TrackPointExtension>
        </extensions>
      </trkpt>
      <trkpt lat="46.69076339341700077056884765625" lon="6.8970729969441890716552734375">
        <ele>647.4000244140625</ele>
        <time>2013-08-15T17:57:57.000Z</time>
        <extensions>
          <ns3:TrackPointExtension>
            <ns3:atemp>16.0</ns3:atemp>
            <ns3:hr>128</ns3:hr>
          </ns3:TrackPointExtension>
        </extensions>
      </trkpt>
      <trkpt lat="46.69078853912651538848876953125" lon="6.89700401388108730316162109375">
        <ele>647.4000244140625</ele>
        <time>2013-08-15T17:57:58.000Z</time>
        <extensions>
          <ns3:TrackPointExtension>
            <ns3:atemp>16.0</ns3:atemp>
            <ns3:hr>128</ns3:hr>
          </ns3:TrackPointExtension>
        </extensions>
      </trkpt>
      <trkpt lat="46.6908127628266811370849609375" lon="6.8969365395605564117431640625">
        <ele>647.5999755859375</ele>
        <time>2013-08-15T17:57:59.000Z</time>
        <extensions>
          <ns3:TrackPointExtension>
            <ns3:atemp>16.0</ns3:atemp>
            <ns3:hr>129</ns3:hr>
          </ns3:TrackPointExtension>
        </extensions>
      </trkpt>
      <trkpt lat="46.69083665125072002410888671875" lon="6.89687007106840610504150390625">
        <ele>647.79998779296875</ele>
        <time>2013-08-15T17:58:00.000Z</time>
        <extensions>
          <ns3:TrackPointExtension>
            <ns3:atemp>16.0</ns3:atemp>
            <ns3:hr>129</ns3:hr>
          </ns3:TrackPointExtension>
        </extensions>
      </trkpt>
      <trkpt lat="46.69085961766541004180908203125" lon="6.89680452458560466766357421875">
        <ele>647.79998779296875</ele>
        <time>2013-08-15T17:58:01.000Z</time>
        <extensions>
          <ns3:TrackPointExtension>
            <ns3:atemp>16.0</ns3:atemp>
            <ns3:hr>129</ns3:hr>
          </ns3:TrackPointExtension>
        </extensions>
      </trkpt>
      <trkpt lat="46.69088358990848064422607421875" lon="6.89674233086407184600830078125">
        <ele>648</ele>
        <time>2013-08-15T17:58:02.000Z</time>
        <extensions>
          <ns3:TrackPointExtension>
            <ns3:atemp>16.0</ns3:atemp>
            <ns3:hr>129</ns3:hr>
          </ns3:TrackPointExtension>
        </extensions>
      </trkpt>
      <trkpt lat="46.69090907089412212371826171875" lon="6.89667887985706329345703125">
        <ele>648.20001220703125</ele>
        <time>2013-08-15T17:58:03.000Z</time>
        <extensions>
          <ns3:TrackPointExtension>
            <ns3:atemp>16.0</ns3:atemp>
            <ns3:hr>130</ns3:hr>
          </ns3:TrackPointExtension>
        </extensions>
      </trkpt>
      <trkpt lat="46.69093362987041473388671875" lon="6.89661341719329357147216796875">
        <ele>648.4000244140625</ele>
        <time>2013-08-15T17:58:04.000Z</time>
        <extensions>
          <ns3:TrackPointExtension>
            <ns3:atemp>16.0</ns3:atemp>
            <ns3:hr>130</ns3:hr>
          </ns3:TrackPointExtension>
        </extensions>
      </trkpt>
      <trkpt lat="46.69095684774219989776611328125" lon="6.89654770307242870330810546875">
        <ele>648.79998779296875</ele>
        <time>2013-08-15T17:58:05.000Z</time>
        <extensions>
          <ns3:TrackPointExtension>
            <ns3:atemp>16.0</ns3:atemp>
            <ns3:hr>130</ns3:hr>
          </ns3:TrackPointExtension>
        </extensions>
      </trkpt>
      <trkpt lat="46.69097998179495334625244140625" lon="6.8964815698564052581787109375">
        <ele>649.20001220703125</ele>
        <time>2013-08-15T17:58:06.000Z</time>
        <extensions>
          <ns3:TrackPointExtension>
            <ns3:atemp>16.0</ns3:atemp>
            <ns3:hr>131</ns3:hr>
          </ns3:TrackPointExtension>
        </extensions>
      </trkpt>
      <trkpt lat="46.69100311584770679473876953125" lon="6.89641602337360382080078125">
        <ele>649.4000244140625</ele>
        <time>2013-08-15T17:58:07.000Z</time>
        <extensions>
          <ns3:TrackPointExtension>
            <ns3:atemp>16.0</ns3:atemp>
            <ns3:hr>131</ns3:hr>
          </ns3:TrackPointExtension>
        </extensions>
      </trkpt>
      <trkpt lat="46.6910290159285068511962890625" lon="6.89635123126208782196044921875">
        <ele>649.5999755859375</ele>
        <time>2013-08-15T17:58:08.000Z</time>
        <extensions>
          <ns3:TrackPointExtension>
            <ns3:atemp>16.0</ns3:atemp>
            <ns3:hr>131</ns3:hr>
          </ns3:TrackPointExtension>
        </extensions>
      </trkpt>
      <trkpt lat="46.69105558656156063079833984375" lon="6.89628593623638153076171875">
        <ele>649.5999755859375</ele>
        <time>2013-08-15T17:58:09.000Z</time>
        <extensions>
          <ns3:TrackPointExtension>
            <ns3:atemp>16.0</ns3:atemp>
            <ns3:hr>131</ns3:hr>
          </ns3:TrackPointExtension>
        </extensions>
      </trkpt>
      <trkpt lat="46.691082157194614410400390625" lon="6.896220557391643524169921875">
        <ele>649.5999755859375</ele>
        <time>2013-08-15T17:58:10.000Z</time>
        <extensions>
          <ns3:TrackPointExtension>
            <ns3:atemp>16.0</ns3:atemp>
            <ns3:hr>132</ns3:hr>
          </ns3:TrackPointExtension>
        </extensions>
      </trkpt>
      <trkpt lat="46.69110688380897045135498046875" lon="6.8961543403565883636474609375">
        <ele>649.79998779296875</ele>
        <time>2013-08-15T17:58:11.000Z</time>
        <extensions>
          <ns3:TrackPointExtension>
            <ns3:atemp>16.0</ns3:atemp>
            <ns3:hr>132</ns3:hr>
          </ns3:TrackPointExtension>
        </extensions>
      </trkpt>
      <trkpt lat="46.69113119132816791534423828125" lon="6.89608879387378692626953125">
        <ele>650</ele>
        <time>2013-08-15T17:58:12.000Z</time>
        <extensions>
          <ns3:TrackPointExtension>
            <ns3:atemp>16.0</ns3:atemp>
            <ns3:hr>133</ns3:hr>
          </ns3:TrackPointExtension>
        </extensions>
      </trkpt>
      <trkpt lat="46.69115801341831684112548828125" lon="6.89602567814290523529052734375">
        <ele>650.4000244140625</ele>
        <time>2013-08-15T17:58:13.000Z</time>
        <extensions>
          <ns3:TrackPointExtension>
            <ns3:atemp>16.0</ns3:atemp>
            <ns3:hr>133</ns3:hr>
          </ns3:TrackPointExtension>
        </extensions>
      </trkpt>
      <trkpt lat="46.69118517078459262847900390625" lon="6.8959634006023406982421875">
        <ele>650.4000244140625</ele>
        <time>2013-08-15T17:58:14.000Z</time>
        <extensions>
          <ns3:TrackPointExtension>
            <ns3:atemp>16.0</ns3:atemp>
            <ns3:hr>133</ns3:hr>
          </ns3:TrackPointExtension>
        </extensions>
      </trkpt>
      <trkpt lat="46.6912119090557098388671875" lon="6.89590045250952243804931640625">
        <ele>650.5999755859375</ele>
        <time>2013-08-15T17:58:15.000Z</time>
        <extensions>
          <ns3:TrackPointExtension>
            <ns3:atemp>16.0</ns3:atemp>
            <ns3:hr>133</ns3:hr>
          </ns3:TrackPointExtension>
        </extensions>
      </trkpt>
      <trkpt lat="46.6912372224032878875732421875" lon="6.8958334811031818389892578125">
        <ele>650.5999755859375</ele>
        <time>2013-08-15T17:58:16.000Z</time>
        <extensions>
          <ns3:TrackPointExtension>
            <ns3:atemp>16.0</ns3:atemp>
            <ns3:hr>134</ns3:hr>
          </ns3:TrackPointExtension>
        </extensions>
      </trkpt>
      <trkpt lat="46.691261194646358489990234375" lon="6.89576550386846065521240234375">
        <ele>651</ele>
        <time>2013-08-15T17:58:17.000Z</time>
        <extensions>
          <ns3:TrackPointExtension>
            <ns3:atemp>16.0</ns3:atemp>
            <ns3:hr>134</ns3:hr>
          </ns3:TrackPointExtension>
        </extensions>
      </trkpt>
      <trkpt lat="46.691286675631999969482421875" lon="6.8956990353763103485107421875">
        <ele>651</ele>
        <time>2013-08-15T17:58:18.000Z</time>
        <extensions>
          <ns3:TrackPointExtension>
            <ns3:atemp>16.0</ns3:atemp>
            <ns3:hr>134</ns3:hr>
          </ns3:TrackPointExtension>
        </extensions>
      </trkpt>
      <trkpt lat="46.69131291098892688751220703125" lon="6.89563214778900146484375">
        <ele>651.20001220703125</ele>
        <time>2013-08-15T17:58:19.000Z</time>
        <extensions>
          <ns3:TrackPointExtension>
            <ns3:atemp>16.0</ns3:atemp>
            <ns3:hr>133</ns3:hr>
          </ns3:TrackPointExtension>
        </extensions>
      </trkpt>
      <trkpt lat="46.6913364641368389129638671875" lon="6.89556450583040714263916015625">
        <ele>651.20001220703125</ele>
        <time>2013-08-15T17:58:20.000Z</time>
        <extensions>
          <ns3:TrackPointExtension>
            <ns3:atemp>16.0</ns3:atemp>
            <ns3:hr>133</ns3:hr>
          </ns3:TrackPointExtension>
        </extensions>
      </trkpt>
      <trkpt lat="46.6913569159805774688720703125" lon="6.89549460075795650482177734375">
        <ele>651.20001220703125</ele>
        <time>2013-08-15T17:58:21.000Z</time>
        <extensions>
          <ns3:TrackPointExtension>
            <ns3:atemp>16.0</ns3:atemp>
            <ns3:hr>133</ns3:hr>
          </ns3:TrackPointExtension>
        </extensions>
      </trkpt>
      <trkpt lat="46.69137208722531795501708984375" lon="6.8954204209148883819580078125">
        <ele>651.20001220703125</ele>
        <time>2013-08-15T17:58:22.000Z</time>
        <extensions>
          <ns3:TrackPointExtension>
            <ns3:atemp>16.0</ns3:atemp>
            <ns3:hr>133</ns3:hr>
          </ns3:TrackPointExtension>
        </extensions>
      </trkpt>
      <trkpt lat="46.69138424098491668701171875" lon="6.89534372650086879730224609375">
        <ele>651.4000244140625</ele>
        <time>2013-08-15T17:58:23.000Z</time>
        <extensions>
          <ns3:TrackPointExtension>
            <ns3:atemp>16.0</ns3:atemp>
            <ns3:hr>133</ns3:hr>
          </ns3:TrackPointExtension>
        </extensions>
      </trkpt>
      <trkpt lat="46.691392958164215087890625" lon="6.895264685153961181640625">
        <ele>651.4000244140625</ele>
        <time>2013-08-15T17:58:24.000Z</time>
        <extensions>
          <ns3:TrackPointExtension>
            <ns3:atemp>16.0</ns3:atemp>
            <ns3:hr>133</ns3:hr>
          </ns3:TrackPointExtension>
        </extensions>
      </trkpt>
      <trkpt lat="46.69139790348708629608154296875" lon="6.895185895264148712158203125">
        <ele>651.4000244140625</ele>
        <time>2013-08-15T17:58:25.000Z</time>
        <extensions>
          <ns3:TrackPointExtension>
            <ns3:atemp>16.0</ns3:atemp>
            <ns3:hr>134</ns3:hr>
          </ns3:TrackPointExtension>
        </extensions>
      </trkpt>
      <trkpt lat="46.69139991514384746551513671875" lon="6.895106099545955657958984375">
        <ele>651.20001220703125</ele>
        <time>2013-08-15T17:58:26.000Z</time>
        <extensions>
          <ns3:TrackPointExtension>
            <ns3:atemp>16.0</ns3:atemp>
            <ns3:hr>134</ns3:hr>
          </ns3:TrackPointExtension>
        </extensions>
      </trkpt>
      <trkpt lat="46.69140025041997432708740234375" lon="6.895024962723255157470703125">
        <ele>651.20001220703125</ele>
        <time>2013-08-15T17:58:27.000Z</time>
        <extensions>
          <ns3:TrackPointExtension>
            <ns3:atemp>16.0</ns3:atemp>
            <ns3:hr>134</ns3:hr>
          </ns3:TrackPointExtension>
        </extensions>
      </trkpt>
      <trkpt lat="46.691400669515132904052734375" lon="6.894942484796047210693359375">
        <ele>651.20001220703125</ele>
        <time>2013-08-15T17:58:28.000Z</time>
        <extensions>
          <ns3:TrackPointExtension>
            <ns3:atemp>16.0</ns3:atemp>
            <ns3:hr>134</ns3:hr>
          </ns3:TrackPointExtension>
        </extensions>
      </trkpt>
      <trkpt lat="46.69140033423900604248046875" lon="6.894858665764331817626953125">
        <ele>651.20001220703125</ele>
        <time>2013-08-15T17:58:29.000Z</time>
        <extensions>
          <ns3:TrackPointExtension>
            <ns3:atemp>16.0</ns3:atemp>
            <ns3:hr>134</ns3:hr>
          </ns3:TrackPointExtension>
        </extensions>
      </trkpt>
      <trkpt lat="46.69139874167740345001220703125" lon="6.89477459527552127838134765625">
        <ele>651.20001220703125</ele>
        <time>2013-08-15T17:58:30.000Z</time>
        <extensions>
          <ns3:TrackPointExtension>
            <ns3:atemp>16.0</ns3:atemp>
            <ns3:hr>134</ns3:hr>
          </ns3:TrackPointExtension>
        </extensions>
      </trkpt>
      <trkpt lat="46.69139505364000797271728515625" lon="6.89469077624380588531494140625">
        <ele>651.20001220703125</ele>
        <time>2013-08-15T17:58:31.000Z</time>
        <extensions>
          <ns3:TrackPointExtension>
            <ns3:atemp>16.0</ns3:atemp>
            <ns3:hr>134</ns3:hr>
          </ns3:TrackPointExtension>
        </extensions>
      </trkpt>
      <trkpt lat="46.69138834811747074127197265625" lon="6.8946073763072490692138671875">
        <ele>651.20001220703125</ele>
        <time>2013-08-15T17:58:32.000Z</time>
        <extensions>
          <ns3:TrackPointExtension>
            <ns3:atemp>16.0</ns3:atemp>
            <ns3:hr>134</ns3:hr>
          </ns3:TrackPointExtension>
        </extensions>
      </trkpt>
      <trkpt lat="46.69137745164334774017333984375" lon="6.89452330581843852996826171875">
        <ele>651.20001220703125</ele>
        <time>2013-08-15T17:58:33.000Z</time>
        <extensions>
          <ns3:TrackPointExtension>
            <ns3:atemp>16.0</ns3:atemp>
            <ns3:hr>134</ns3:hr>
          </ns3:TrackPointExtension>
        </extensions>
      </trkpt>
      <trkpt lat="46.69136588461697101593017578125" lon="6.89443797804415225982666015625">
        <ele>651.20001220703125</ele>
        <time>2013-08-15T17:58:34.000Z</time>
        <extensions>
          <ns3:TrackPointExtension>
            <ns3:atemp>16.0</ns3:atemp>
            <ns3:hr>134</ns3:hr>
          </ns3:TrackPointExtension>
        </extensions>
      </trkpt>
      <trkpt lat="46.69135347940027713775634765625" lon="6.894353069365024566650390625">
        <ele>651.20001220703125</ele>
        <time>2013-08-15T17:58:35.000Z</time>
        <extensions>
          <ns3:TrackPointExtension>
            <ns3:atemp>16.0</ns3:atemp>
            <ns3:hr>133</ns3:hr>
          </ns3:TrackPointExtension>
        </extensions>
      </trkpt>
      <trkpt lat="46.6913414932787418365478515625" lon="6.89426698721945285797119140625">
        <ele>651.20001220703125</ele>
        <time>2013-08-15T17:58:36.000Z</time>
        <extensions>
          <ns3:TrackPointExtension>
            <ns3:atemp>16.0</ns3:atemp>
            <ns3:hr>133</ns3:hr>
          </ns3:TrackPointExtension>
        </extensions>
      </trkpt>
      <trkpt lat="46.69132925570011138916015625" lon="6.8941825814545154571533203125">
        <ele>651.4000244140625</ele>
        <time>2013-08-15T17:58:37.000Z</time>
        <extensions>
          <ns3:TrackPointExtension>
            <ns3:atemp>16.0</ns3:atemp>
            <ns3:hr>134</ns3:hr>
          </ns3:TrackPointExtension>
        </extensions>
      </trkpt>
      <trkpt lat="46.69131559319794178009033203125" lon="6.894100606441497802734375">
        <ele>651.4000244140625</ele>
        <time>2013-08-15T17:58:38.000Z</time>
        <extensions>
          <ns3:TrackPointExtension>
            <ns3:atemp>16.0</ns3:atemp>
            <ns3:hr>134</ns3:hr>
          </ns3:TrackPointExtension>
        </extensions>
      </trkpt>
      <trkpt lat="46.6913026012480258941650390625" lon="6.894014775753021240234375">
        <ele>651.5999755859375</ele>
        <time>2013-08-15T17:58:39.000Z</time>
        <extensions>
          <ns3:TrackPointExtension>
            <ns3:atemp>16.0</ns3:atemp>
            <ns3:hr>134</ns3:hr>
          </ns3:TrackPointExtension>
        </extensions>
      </trkpt>
      <trkpt lat="46.6912901960313320159912109375" lon="6.89392752014100551605224609375">
        <ele>651.5999755859375</ele>
        <time>2013-08-15T17:58:40.000Z</time>
        <extensions>
          <ns3:TrackPointExtension>
            <ns3:atemp>16.0</ns3:atemp>
            <ns3:hr>134</ns3:hr>
          </ns3:TrackPointExtension>
        </extensions>
      </trkpt>
      <trkpt lat="46.69127720408141613006591796875" lon="6.89383976161479949951171875">
        <ele>651.4000244140625</ele>
        <time>2013-08-15T17:58:41.000Z</time>
        <extensions>
          <ns3:TrackPointExtension>
            <ns3:atemp>16.0</ns3:atemp>
            <ns3:hr>133</ns3:hr>
          </ns3:TrackPointExtension>
        </extensions>
      </trkpt>
      <trkpt lat="46.6912630386650562286376953125" lon="6.8937524221837520599365234375">
        <ele>651.4000244140625</ele>
        <time>2013-08-15T17:58:42.000Z</time>
        <extensions>
          <ns3:TrackPointExtension>
            <ns3:atemp>16.0</ns3:atemp>
            <ns3:hr>133</ns3:hr>
          </ns3:TrackPointExtension>
        </extensions>
      </trkpt>
      <trkpt lat="46.69124837033450603485107421875" lon="6.893664412200450897216796875">
        <ele>651.4000244140625</ele>
        <time>2013-08-15T17:58:43.000Z</time>
        <extensions>
          <ns3:TrackPointExtension>
            <ns3:atemp>16.0</ns3:atemp>
            <ns3:hr>133</ns3:hr>
          </ns3:TrackPointExtension>
        </extensions>
      </trkpt>
      <trkpt lat="46.69123076833784580230712890625" lon="6.89357698895037174224853515625">
        <ele>651.4000244140625</ele>
        <time>2013-08-15T17:58:44.000Z</time>
        <extensions>
          <ns3:TrackPointExtension>
            <ns3:atemp>16.0</ns3:atemp>
            <ns3:hr>133</ns3:hr>
          </ns3:TrackPointExtension>
        </extensions>
      </trkpt>
      <trkpt lat="46.691212914884090423583984375" lon="6.8934888951480388641357421875">
        <ele>651.4000244140625</ele>
        <time>2013-08-15T17:58:45.000Z</time>
        <extensions>
          <ns3:TrackPointExtension>
            <ns3:atemp>16.0</ns3:atemp>
            <ns3:hr>133</ns3:hr>
          </ns3:TrackPointExtension>
        </extensions>
      </trkpt>
      <trkpt lat="46.691198833286762237548828125" lon="6.89339979551732540130615234375">
        <ele>651.4000244140625</ele>
        <time>2013-08-15T17:58:46.000Z</time>
        <extensions>
          <ns3:TrackPointExtension>
            <ns3:atemp>16.0</ns3:atemp>
            <ns3:hr>133</ns3:hr>
          </ns3:TrackPointExtension>
        </extensions>
      </trkpt>
      <trkpt lat="46.6911879368126392364501953125" lon="6.8933111988008022308349609375">
        <ele>651.4000244140625</ele>
        <time>2013-08-15T17:58:47.000Z</time>
        <extensions>
          <ns3:TrackPointExtension>
            <ns3:atemp>16.0</ns3:atemp>
            <ns3:hr>133</ns3:hr>
          </ns3:TrackPointExtension>
        </extensions>
      </trkpt>
      <trkpt lat="46.69117678888142108917236328125" lon="6.89322411082684993743896484375">
        <ele>651.5999755859375</ele>
        <time>2013-08-15T17:58:48.000Z</time>
        <extensions>
          <ns3:TrackPointExtension>
            <ns3:atemp>16.0</ns3:atemp>
            <ns3:hr>133</ns3:hr>
          </ns3:TrackPointExtension>
        </extensions>
      </trkpt>
      <trkpt lat="46.6911668144166469573974609375" lon="6.8931392021477222442626953125">
        <ele>651.79998779296875</ele>
        <time>2013-08-15T17:58:49.000Z</time>
        <extensions>
          <ns3:TrackPointExtension>
            <ns3:atemp>16.0</ns3:atemp>
            <ns3:hr>133</ns3:hr>
          </ns3:TrackPointExtension>
        </extensions>
      </trkpt>
      <trkpt lat="46.69115625321865081787109375" lon="6.89305345527827739715576171875">
        <ele>652</ele>
        <time>2013-08-15T17:58:50.000Z</time>
        <extensions>
          <ns3:TrackPointExtension>
            <ns3:atemp>16.0</ns3:atemp>
            <ns3:hr>133</ns3:hr>
          </ns3:TrackPointExtension>
        </extensions>
      </trkpt>
      <trkpt lat="46.6911466978490352630615234375" lon="6.89296779222786426544189453125">
        <ele>652.20001220703125</ele>
        <time>2013-08-15T17:58:51.000Z</time>
        <extensions>
          <ns3:TrackPointExtension>
            <ns3:atemp>16.0</ns3:atemp>
            <ns3:hr>133</ns3:hr>
          </ns3:TrackPointExtension>
        </extensions>
      </trkpt>
      <trkpt lat="46.6911379806697368621826171875" lon="6.8928823806345462799072265625">
        <ele>652.4000244140625</ele>
        <time>2013-08-15T17:58:52.000Z</time>
        <extensions>
          <ns3:TrackPointExtension>
            <ns3:atemp>16.0</ns3:atemp>
            <ns3:hr>132</ns3:hr>
          </ns3:TrackPointExtension>
        </extensions>
      </trkpt>
      <trkpt lat="46.69113068841397762298583984375" lon="6.89279663376510143280029296875">
        <ele>652.5999755859375</ele>
        <time>2013-08-15T17:58:53.000Z</time>
        <extensions>
          <ns3:TrackPointExtension>
            <ns3:atemp>16.0</ns3:atemp>
            <ns3:hr>132</ns3:hr>
          </ns3:TrackPointExtension>
        </extensions>
      </trkpt>
      <trkpt lat="46.69112406671047210693359375" lon="6.892712898552417755126953125">
        <ele>652.79998779296875</ele>
        <time>2013-08-15T17:58:54.000Z</time>
        <extensions>
          <ns3:TrackPointExtension>
            <ns3:atemp>16.0</ns3:atemp>
            <ns3:hr>132</ns3:hr>
          </ns3:TrackPointExtension>
        </extensions>
      </trkpt>
      <trkpt lat="46.69111828319728374481201171875" lon="6.8926302529871463775634765625">
        <ele>652.79998779296875</ele>
        <time>2013-08-15T17:58:55.000Z</time>
        <extensions>
          <ns3:TrackPointExtension>
            <ns3:atemp>16.0</ns3:atemp>
            <ns3:hr>132</ns3:hr>
          </ns3:TrackPointExtension>
        </extensions>
      </trkpt>
      <trkpt lat="46.691113002598285675048828125" lon="6.892549954354763031005859375">
        <ele>652.79998779296875</ele>
        <time>2013-08-15T17:58:56.000Z</time>
        <extensions>
          <ns3:TrackPointExtension>
            <ns3:atemp>16.0</ns3:atemp>
            <ns3:hr>132</ns3:hr>
          </ns3:TrackPointExtension>
        </extensions>
      </trkpt>
      <trkpt lat="46.69110788963735103607177734375" lon="6.89247141592204570770263671875">
        <ele>653</ele>
        <time>2013-08-15T17:58:57.000Z</time>
        <extensions>
          <ns3:TrackPointExtension>
            <ns3:atemp>16.0</ns3:atemp>
            <ns3:hr>132</ns3:hr>
          </ns3:TrackPointExtension>
        </extensions>
      </trkpt>
      <trkpt lat="46.69110101647675037384033203125" lon="6.89239145256578922271728515625">
        <ele>653.20001220703125</ele>
        <time>2013-08-15T17:58:58.000Z</time>
        <extensions>
          <ns3:TrackPointExtension>
            <ns3:atemp>16.0</ns3:atemp>
            <ns3:hr>132</ns3:hr>
          </ns3:TrackPointExtension>
        </extensions>
      </trkpt>
      <trkpt lat="46.6910938918590545654296875" lon="6.8923127464950084686279296875">
        <ele>653.20001220703125</ele>
        <time>2013-08-15T17:58:59.000Z</time>
        <extensions>
          <ns3:TrackPointExtension>
            <ns3:atemp>16.0</ns3:atemp>
            <ns3:hr>132</ns3:hr>
          </ns3:TrackPointExtension>
        </extensions>
      </trkpt>
      <trkpt lat="46.6910873539745807647705078125" lon="6.892236806452274322509765625">
        <ele>653.20001220703125</ele>
        <time>2013-08-15T17:59:00.000Z</time>
        <extensions>
          <ns3:TrackPointExtension>
            <ns3:atemp>16.0</ns3:atemp>
            <ns3:hr>132</ns3:hr>
          </ns3:TrackPointExtension>
        </extensions>
      </trkpt>
      <trkpt lat="46.69108106754720211029052734375" lon="6.8921628780663013458251953125">
        <ele>653.4000244140625</ele>
        <time>2013-08-15T17:59:01.000Z</time>
        <extensions>
          <ns3:TrackPointExtension>
            <ns3:atemp>16.0</ns3:atemp>
            <ns3:hr>132</ns3:hr>
          </ns3:TrackPointExtension>
        </extensions>
      </trkpt>
      <trkpt lat="46.69107603840529918670654296875" lon="6.8920877762138843536376953125">
        <ele>653.5999755859375</ele>
        <time>2013-08-15T17:59:02.000Z</time>
        <extensions>
          <ns3:TrackPointExtension>
            <ns3:atemp>16.0</ns3:atemp>
            <ns3:hr>132</ns3:hr>
          </ns3:TrackPointExtension>
        </extensions>
      </trkpt>
      <trkpt lat="46.6910726018249988555908203125" lon="6.89201275818049907684326171875">
        <ele>653.79998779296875</ele>
        <time>2013-08-15T17:59:03.000Z</time>
        <extensions>
          <ns3:TrackPointExtension>
            <ns3:atemp>16.0</ns3:atemp>
            <ns3:hr>132</ns3:hr>
          </ns3:TrackPointExtension>
        </extensions>
      </trkpt>
      <trkpt lat="46.6910679079592227935791015625" lon="6.89193681813776493072509765625">
        <ele>653.79998779296875</ele>
        <time>2013-08-15T17:59:04.000Z</time>
        <extensions>
          <ns3:TrackPointExtension>
            <ns3:atemp>16.0</ns3:atemp>
            <ns3:hr>132</ns3:hr>
          </ns3:TrackPointExtension>
        </extensions>
      </trkpt>
      <trkpt lat="46.691061370074748992919921875" lon="6.8918607942759990692138671875">
        <ele>653.79998779296875</ele>
        <time>2013-08-15T17:59:05.000Z</time>
        <extensions>
          <ns3:TrackPointExtension>
            <ns3:atemp>16.0</ns3:atemp>
            <ns3:hr>132</ns3:hr>
          </ns3:TrackPointExtension>
        </extensions>
      </trkpt>
      <trkpt lat="46.69105458073318004608154296875" lon="6.89178560860455036163330078125">
        <ele>654</ele>
        <time>2013-08-15T17:59:06.000Z</time>
        <extensions>
          <ns3:TrackPointExtension>
            <ns3:atemp>16.0</ns3:atemp>
            <ns3:hr>133</ns3:hr>
          </ns3:TrackPointExtension>
        </extensions>
      </trkpt>
      <trkpt lat="46.69104921631515026092529296875" lon="6.89171084202826023101806640625">
        <ele>654.20001220703125</ele>
        <time>2013-08-15T17:59:07.000Z</time>
        <extensions>
          <ns3:TrackPointExtension>
            <ns3:atemp>16.0</ns3:atemp>
            <ns3:hr>132</ns3:hr>
          </ns3:TrackPointExtension>
        </extensions>
      </trkpt>
      <trkpt lat="46.6910451091825962066650390625" lon="6.89163607545197010040283203125">
        <ele>654.4000244140625</ele>
        <time>2013-08-15T17:59:08.000Z</time>
        <extensions>
          <ns3:TrackPointExtension>
            <ns3:atemp>16.0</ns3:atemp>
            <ns3:hr>133</ns3:hr>
          </ns3:TrackPointExtension>
        </extensions>
      </trkpt>
      <trkpt lat="46.69104133732616901397705078125" lon="6.89156122505664825439453125">
        <ele>654.4000244140625</ele>
        <time>2013-08-15T17:59:09.000Z</time>
        <extensions>
          <ns3:TrackPointExtension>
            <ns3:atemp>16.0</ns3:atemp>
            <ns3:hr>132</ns3:hr>
          </ns3:TrackPointExtension>
        </extensions>
      </trkpt>
      <trkpt lat="46.6910367272794246673583984375" lon="6.8914866261184215545654296875">
        <ele>654.5999755859375</ele>
        <time>2013-08-15T17:59:10.000Z</time>
        <extensions>
          <ns3:TrackPointExtension>
            <ns3:atemp>16.0</ns3:atemp>
            <ns3:hr>133</ns3:hr>
          </ns3:TrackPointExtension>
        </extensions>
      </trkpt>
      <trkpt lat="46.69103018939495086669921875" lon="6.8914132006466388702392578125">
        <ele>654.79998779296875</ele>
        <time>2013-08-15T17:59:11.000Z</time>
        <extensions>
          <ns3:TrackPointExtension>
            <ns3:atemp>16.0</ns3:atemp>
            <ns3:hr>133</ns3:hr>
          </ns3:TrackPointExtension>
        </extensions>
      </trkpt>
      <trkpt lat="46.691022813320159912109375" lon="6.8913391046226024627685546875">
        <ele>655</ele>
        <time>2013-08-15T17:59:12.000Z</time>
        <extensions>
          <ns3:TrackPointExtension>
            <ns3:atemp>16.0</ns3:atemp>
            <ns3:hr>133</ns3:hr>
          </ns3:TrackPointExtension>
        </extensions>
      </trkpt>
      <trkpt lat="46.69101652689278125762939453125" lon="6.89126475714147090911865234375">
        <ele>655.20001220703125</ele>
        <time>2013-08-15T17:59:13.000Z</time>
        <extensions>
          <ns3:TrackPointExtension>
            <ns3:atemp>16.0</ns3:atemp>
            <ns3:hr>133</ns3:hr>
          </ns3:TrackPointExtension>
        </extensions>
      </trkpt>
      <trkpt lat="46.69100998900830745697021484375" lon="6.89118973910808563232421875">
        <ele>655.4000244140625</ele>
        <time>2013-08-15T17:59:14.000Z</time>
        <extensions>
          <ns3:TrackPointExtension>
            <ns3:atemp>16.0</ns3:atemp>
            <ns3:hr>133</ns3:hr>
          </ns3:TrackPointExtension>
        </extensions>
      </trkpt>
      <trkpt lat="46.69100529514253139495849609375" lon="6.89111438579857349395751953125">
        <ele>655.5999755859375</ele>
        <time>2013-08-15T17:59:15.000Z</time>
        <extensions>
          <ns3:TrackPointExtension>
            <ns3:atemp>16.0</ns3:atemp>
            <ns3:hr>134</ns3:hr>
          </ns3:TrackPointExtension>
        </extensions>
      </trkpt>
      <trkpt lat="46.6910011880099773406982421875" lon="6.89103911630809307098388671875">
        <ele>655.79998779296875</ele>
        <time>2013-08-15T17:59:16.000Z</time>
        <extensions>
          <ns3:TrackPointExtension>
            <ns3:atemp>16.0</ns3:atemp>
            <ns3:hr>134</ns3:hr>
          </ns3:TrackPointExtension>
        </extensions>
      </trkpt>
      <trkpt lat="46.69099892489612102508544921875" lon="6.89096401445567607879638671875">
        <ele>656</ele>
        <time>2013-08-15T17:59:17.000Z</time>
        <extensions>
          <ns3:TrackPointExtension>
            <ns3:atemp>16.0</ns3:atemp>
            <ns3:hr>134</ns3:hr>
          </ns3:TrackPointExtension>
        </extensions>
      </trkpt>
      <trkpt lat="46.6910001821815967559814453125" lon="6.890889666974544525146484375">
        <ele>656.20001220703125</ele>
        <time>2013-08-15T17:59:18.000Z</time>
        <extensions>
          <ns3:TrackPointExtension>
            <ns3:atemp>16.0</ns3:atemp>
            <ns3:hr>134</ns3:hr>
          </ns3:TrackPointExtension>
        </extensions>
      </trkpt>
      <trkpt lat="46.6910031996667385101318359375" lon="6.8908174149692058563232421875">
        <ele>656.4000244140625</ele>
        <time>2013-08-15T17:59:19.000Z</time>
        <extensions>
          <ns3:TrackPointExtension>
            <ns3:atemp>16.0</ns3:atemp>
            <ns3:hr>134</ns3:hr>
          </ns3:TrackPointExtension>
        </extensions>
      </trkpt>
      <trkpt lat="46.6910065524280071258544921875" lon="6.89074625261127948760986328125">
        <ele>656.5999755859375</ele>
        <time>2013-08-15T17:59:20.000Z</time>
        <extensions>
          <ns3:TrackPointExtension>
            <ns3:atemp>16.0</ns3:atemp>
            <ns3:hr>134</ns3:hr>
          </ns3:TrackPointExtension>
        </extensions>
      </trkpt>
      <trkpt lat="46.69101183302700519561767578125" lon="6.8906776048243045806884765625">
        <ele>657</ele>
        <time>2013-08-15T17:59:21.000Z</time>
        <extensions>
          <ns3:TrackPointExtension>
            <ns3:atemp>16.0</ns3:atemp>
            <ns3:hr>135</ns3:hr>
          </ns3:TrackPointExtension>
        </extensions>
      </trkpt>
      <trkpt lat="46.69101686216890811920166015625" lon="6.890608705580234527587890625">
        <ele>657.4000244140625</ele>
        <time>2013-08-15T17:59:22.000Z</time>
        <extensions>
          <ns3:TrackPointExtension>
            <ns3:atemp>16.0</ns3:atemp>
            <ns3:hr>135</ns3:hr>
          </ns3:TrackPointExtension>
        </extensions>
      </trkpt>
      <trkpt lat="46.6910223104059696197509765625" lon="6.89054156653583049774169921875">
        <ele>657.5999755859375</ele>
        <time>2013-08-15T17:59:23.000Z</time>
        <extensions>
          <ns3:TrackPointExtension>
            <ns3:atemp>16.0</ns3:atemp>
            <ns3:hr>135</ns3:hr>
          </ns3:TrackPointExtension>
        </extensions>
      </trkpt>
      <trkpt lat="46.6910303570330142974853515625" lon="6.89047417603433132171630859375">
        <ele>657.5999755859375</ele>
        <time>2013-08-15T17:59:24.000Z</time>
        <extensions>
          <ns3:TrackPointExtension>
            <ns3:atemp>16.0</ns3:atemp>
            <ns3:hr>135</ns3:hr>
          </ns3:TrackPointExtension>
        </extensions>
      </trkpt>
      <trkpt lat="46.69103999622166156768798828125" lon="6.89040745608508586883544921875">
        <ele>657.79998779296875</ele>
        <time>2013-08-15T17:59:25.000Z</time>
        <extensions>
          <ns3:TrackPointExtension>
            <ns3:atemp>16.0</ns3:atemp>
            <ns3:hr>136</ns3:hr>
          </ns3:TrackPointExtension>
        </extensions>
      </trkpt>
      <trkpt lat="46.6910511441528797149658203125" lon="6.89034107141196727752685546875">
        <ele>658</ele>
        <time>2013-08-15T17:59:26.000Z</time>
        <extensions>
          <ns3:TrackPointExtension>
            <ns3:atemp>16.0</ns3:atemp>
            <ns3:hr>136</ns3:hr>
          </ns3:TrackPointExtension>
        </extensions>
      </trkpt>
      <trkpt lat="46.69106212444603443145751953125" lon="6.8902746029198169708251953125">
        <ele>658.4000244140625</ele>
        <time>2013-08-15T17:59:27.000Z</time>
        <extensions>
          <ns3:TrackPointExtension>
            <ns3:atemp>16.0</ns3:atemp>
            <ns3:hr>137</ns3:hr>
          </ns3:TrackPointExtension>
        </extensions>
      </trkpt>
      <trkpt lat="46.691075451672077178955078125" lon="6.89020863734185695648193359375">
        <ele>658.79998779296875</ele>
        <time>2013-08-15T17:59:28.000Z</time>
        <extensions>
          <ns3:TrackPointExtension>
            <ns3:atemp>16.0</ns3:atemp>
            <ns3:hr>138</ns3:hr>
          </ns3:TrackPointExtension>
        </extensions>
      </trkpt>
      <trkpt lat="46.69108877889811992645263671875" lon="6.8901414982974529266357421875">
        <ele>659</ele>
        <time>2013-08-15T17:59:29.000Z</time>
        <extensions>
          <ns3:TrackPointExtension>
            <ns3:atemp>16.0</ns3:atemp>
            <ns3:hr>138</ns3:hr>
          </ns3:TrackPointExtension>
        </extensions>
      </trkpt>
      <trkpt lat="46.69110084883868694305419921875" lon="6.8900744430720806121826171875">
        <ele>659.4000244140625</ele>
        <time>2013-08-15T17:59:30.000Z</time>
        <extensions>
          <ns3:TrackPointExtension>
            <ns3:atemp>16.0</ns3:atemp>
            <ns3:hr>139</ns3:hr>
          </ns3:TrackPointExtension>
        </extensions>
      </trkpt>
      <trkpt lat="46.6911128349602222442626953125" lon="6.89000965096056461334228515625">
        <ele>659.4000244140625</ele>
        <time>2013-08-15T17:59:31.000Z</time>
        <extensions>
          <ns3:TrackPointExtension>
            <ns3:atemp>16.0</ns3:atemp>
            <ns3:hr>139</ns3:hr>
          </ns3:TrackPointExtension>
        </extensions>
      </trkpt>
      <trkpt lat="46.6911265812814235687255859375" lon="6.889945529401302337646484375">
        <ele>659.5999755859375</ele>
        <time>2013-08-15T17:59:32.000Z</time>
        <extensions>
          <ns3:TrackPointExtension>
            <ns3:atemp>16.0</ns3:atemp>
            <ns3:hr>140</ns3:hr>
          </ns3:TrackPointExtension>
        </extensions>
      </trkpt>
      <trkpt lat="46.6911396570503711700439453125" lon="6.88988207839429378509521484375">
        <ele>659.79998779296875</ele>
        <time>2013-08-15T17:59:33.000Z</time>
        <extensions>
          <ns3:TrackPointExtension>
            <ns3:atemp>16.0</ns3:atemp>
            <ns3:hr>140</ns3:hr>
          </ns3:TrackPointExtension>
        </extensions>
      </trkpt>
      <trkpt lat="46.6911513917148113250732421875" lon="6.8898196332156658172607421875">
        <ele>660</ele>
        <time>2013-08-15T17:59:34.000Z</time>
        <extensions>
          <ns3:TrackPointExtension>
            <ns3:atemp>16.0</ns3:atemp>
            <ns3:hr>140</ns3:hr>
          </ns3:TrackPointExtension>
        </extensions>
      </trkpt>
      <trkpt lat="46.69116404838860034942626953125" lon="6.88975651748478412628173828125">
        <ele>660.20001220703125</ele>
        <time>2013-08-15T17:59:35.000Z</time>
        <extensions>
          <ns3:TrackPointExtension>
            <ns3:atemp>16.0</ns3:atemp>
            <ns3:hr>141</ns3:hr>
          </ns3:TrackPointExtension>
        </extensions>
      </trkpt>
      <trkpt lat="46.69117662124335765838623046875" lon="6.8896932341158390045166015625">
        <ele>660.4000244140625</ele>
        <time>2013-08-15T17:59:36.000Z</time>
        <extensions>
          <ns3:TrackPointExtension>
            <ns3:atemp>16.0</ns3:atemp>
            <ns3:hr>141</ns3:hr>
          </ns3:TrackPointExtension>
        </extensions>
      </trkpt>
      <trkpt lat="46.6911896131932735443115234375" lon="6.88962928019464015960693359375">
        <ele>660.79998779296875</ele>
        <time>2013-08-15T17:59:37.000Z</time>
        <extensions>
          <ns3:TrackPointExtension>
            <ns3:atemp>16.0</ns3:atemp>
            <ns3:hr>141</ns3:hr>
          </ns3:TrackPointExtension>
        </extensions>
      </trkpt>
      <trkpt lat="46.6912033595144748687744140625" lon="6.88956641592085361480712890625">
        <ele>661.4000244140625</ele>
        <time>2013-08-15T17:59:38.000Z</time>
        <extensions>
          <ns3:TrackPointExtension>
            <ns3:atemp>16.0</ns3:atemp>
            <ns3:hr>141</ns3:hr>
          </ns3:TrackPointExtension>
        </extensions>
      </trkpt>
      <trkpt lat="46.69121651910245418548583984375" lon="6.88950338400900363922119140625">
        <ele>661.5999755859375</ele>
        <time>2013-08-15T17:59:39.000Z</time>
        <extensions>
          <ns3:TrackPointExtension>
            <ns3:atemp>16.0</ns3:atemp>
            <ns3:hr>141</ns3:hr>
          </ns3:TrackPointExtension>
        </extensions>
      </trkpt>
      <trkpt lat="46.6912291757762432098388671875" lon="6.88943867571651935577392578125">
        <ele>661.79998779296875</ele>
        <time>2013-08-15T17:59:40.000Z</time>
        <extensions>
          <ns3:TrackPointExtension>
            <ns3:atemp>16.0</ns3:atemp>
            <ns3:hr>142</ns3:hr>
          </ns3:TrackPointExtension>
        </extensions>
      </trkpt>
      <trkpt lat="46.6912439279258251190185546875" lon="6.88937497325241565704345703125">
        <ele>661.79998779296875</ele>
        <time>2013-08-15T17:59:41.000Z</time>
        <extensions>
          <ns3:TrackPointExtension>
            <ns3:atemp>16.0</ns3:atemp>
            <ns3:hr>142</ns3:hr>
          </ns3:TrackPointExtension>
        </extensions>
      </trkpt>
      <trkpt lat="46.69125708751380443572998046875" lon="6.8893110193312168121337890625">
        <ele>662.20001220703125</ele>
        <time>2013-08-15T17:59:42.000Z</time>
        <extensions>
          <ns3:TrackPointExtension>
            <ns3:atemp>16.0</ns3:atemp>
            <ns3:hr>143</ns3:hr>
          </ns3:TrackPointExtension>
        </extensions>
      </trkpt>
      <trkpt lat="46.6912682354450225830078125" lon="6.88924555666744709014892578125">
        <ele>662.4000244140625</ele>
        <time>2013-08-15T17:59:43.000Z</time>
        <extensions>
          <ns3:TrackPointExtension>
            <ns3:atemp>16.0</ns3:atemp>
            <ns3:hr>143</ns3:hr>
          </ns3:TrackPointExtension>
        </extensions>
      </trkpt>
      <trkpt lat="46.69128105975687503814697265625" lon="6.8891800940036773681640625">
        <ele>662.5999755859375</ele>
        <time>2013-08-15T17:59:44.000Z</time>
        <extensions>
          <ns3:TrackPointExtension>
            <ns3:atemp>16.0</ns3:atemp>
            <ns3:hr>143</ns3:hr>
          </ns3:TrackPointExtension>
        </extensions>
      </trkpt>
      <trkpt lat="46.69129480607807636260986328125" lon="6.88911379314959049224853515625">
        <ele>662.79998779296875</ele>
        <time>2013-08-15T17:59:45.000Z</time>
        <extensions>
          <ns3:TrackPointExtension>
            <ns3:atemp>16.0</ns3:atemp>
            <ns3:hr>143</ns3:hr>
          </ns3:TrackPointExtension>
        </extensions>
      </trkpt>
      <trkpt lat="46.6913083009421825408935546875" lon="6.88904799520969390869140625">
        <ele>663.20001220703125</ele>
        <time>2013-08-15T17:59:46.000Z</time>
        <extensions>
          <ns3:TrackPointExtension>
            <ns3:atemp>16.0</ns3:atemp>
            <ns3:hr>143</ns3:hr>
          </ns3:TrackPointExtension>
        </extensions>
      </trkpt>
      <trkpt lat="46.69132120907306671142578125" lon="6.88898420892655849456787109375">
        <ele>663.4000244140625</ele>
        <time>2013-08-15T17:59:47.000Z</time>
        <extensions>
          <ns3:TrackPointExtension>
            <ns3:atemp>16.0</ns3:atemp>
            <ns3:hr>143</ns3:hr>
          </ns3:TrackPointExtension>
        </extensions>
      </trkpt>
      <trkpt lat="46.69133386574685573577880859375" lon="6.888918913900852203369140625">
        <ele>663.79998779296875</ele>
        <time>2013-08-15T17:59:48.000Z</time>
        <extensions>
          <ns3:TrackPointExtension>
            <ns3:atemp>16.0</ns3:atemp>
            <ns3:hr>144</ns3:hr>
          </ns3:TrackPointExtension>
        </extensions>
      </trkpt>
      <trkpt lat="46.691345684230327606201171875" lon="6.88885227777063846588134765625">
        <ele>664</ele>
        <time>2013-08-15T17:59:49.000Z</time>
        <extensions>
          <ns3:TrackPointExtension>
            <ns3:atemp>16.0</ns3:atemp>
            <ns3:hr>144</ns3:hr>
          </ns3:TrackPointExtension>
        </extensions>
      </trkpt>
      <trkpt lat="46.6913592629134654998779296875" lon="6.88878522254526615142822265625">
        <ele>664.4000244140625</ele>
        <time>2013-08-15T17:59:50.000Z</time>
        <extensions>
          <ns3:TrackPointExtension>
            <ns3:atemp>16.0</ns3:atemp>
            <ns3:hr>144</ns3:hr>
          </ns3:TrackPointExtension>
        </extensions>
      </trkpt>
      <trkpt lat="46.69137409888207912445068359375" lon="6.8887187540531158447265625">
        <ele>664.5999755859375</ele>
        <time>2013-08-15T17:59:51.000Z</time>
        <extensions>
          <ns3:TrackPointExtension>
            <ns3:atemp>16.0</ns3:atemp>
            <ns3:hr>145</ns3:hr>
          </ns3:TrackPointExtension>
        </extensions>
      </trkpt>
      <trkpt lat="46.691387929022312164306640625" lon="6.8886508606374263763427734375">
        <ele>664.79998779296875</ele>
        <time>2013-08-15T17:59:52.000Z</time>
        <extensions>
          <ns3:TrackPointExtension>
            <ns3:atemp>16.0</ns3:atemp>
            <ns3:hr>146</ns3:hr>
          </ns3:TrackPointExtension>
        </extensions>
      </trkpt>
      <trkpt lat="46.6914001666009426116943359375" lon="6.8885824643075466156005859375">
        <ele>665</ele>
        <time>2013-08-15T17:59:53.000Z</time>
        <extensions>
          <ns3:TrackPointExtension>
            <ns3:atemp>16.0</ns3:atemp>
            <ns3:hr>146</ns3:hr>
          </ns3:TrackPointExtension>
        </extensions>
      </trkpt>
      <trkpt lat="46.69141240417957305908203125" lon="6.88851398415863513946533203125">
        <ele>665</ele>
        <time>2013-08-15T17:59:54.000Z</time>
        <extensions>
          <ns3:TrackPointExtension>
            <ns3:atemp>16.0</ns3:atemp>
            <ns3:hr>146</ns3:hr>
          </ns3:TrackPointExtension>
        </extensions>
      </trkpt>
      <trkpt lat="46.69142623431980609893798828125" lon="6.88844583928585052490234375">
        <ele>665.20001220703125</ele>
        <time>2013-08-15T17:59:55.000Z</time>
        <extensions>
          <ns3:TrackPointExtension>
            <ns3:atemp>16.0</ns3:atemp>
            <ns3:hr>146</ns3:hr>
          </ns3:TrackPointExtension>
        </extensions>
      </trkpt>
      <trkpt lat="46.69144014827907085418701171875" lon="6.8883766047656536102294921875">
        <ele>665.4000244140625</ele>
        <time>2013-08-15T17:59:56.000Z</time>
        <extensions>
          <ns3:TrackPointExtension>
            <ns3:atemp>16.0</ns3:atemp>
            <ns3:hr>146</ns3:hr>
          </ns3:TrackPointExtension>
        </extensions>
      </trkpt>
      <trkpt lat="46.6914531402289867401123046875" lon="6.888307370245456695556640625">
        <ele>665.5999755859375</ele>
        <time>2013-08-15T17:59:57.000Z</time>
        <extensions>
          <ns3:TrackPointExtension>
            <ns3:atemp>16.0</ns3:atemp>
            <ns3:hr>147</ns3:hr>
          </ns3:TrackPointExtension>
        </extensions>
      </trkpt>
      <trkpt lat="46.69146730564534664154052734375" lon="6.88823939301073551177978515625">
        <ele>665.79998779296875</ele>
        <time>2013-08-15T17:59:58.000Z</time>
        <extensions>
          <ns3:TrackPointExtension>
            <ns3:atemp>16.0</ns3:atemp>
            <ns3:hr>147</ns3:hr>
          </ns3:TrackPointExtension>
        </extensions>
      </trkpt>
      <trkpt lat="46.69148239307105541229248046875" lon="6.88817233778536319732666015625">
        <ele>666</ele>
        <time>2013-08-15T17:59:59.000Z</time>
        <extensions>
          <ns3:TrackPointExtension>
            <ns3:atemp>16.0</ns3:atemp>
            <ns3:hr>148</ns3:hr>
          </ns3:TrackPointExtension>
        </extensions>
      </trkpt>
      <trkpt lat="46.6914960555732250213623046875" lon="6.88810612075030803680419921875">
        <ele>666.20001220703125</ele>
        <time>2013-08-15T18:00:00.000Z</time>
        <extensions>
          <ns3:TrackPointExtension>
            <ns3:atemp>16.0</ns3:atemp>
            <ns3:hr>148</ns3:hr>
          </ns3:TrackPointExtension>
        </extensions>
      </trkpt>
      <trkpt lat="46.69150904752314090728759765625" lon="6.88804090954363346099853515625">
        <ele>666.5999755859375</ele>
        <time>2013-08-15T18:00:01.000Z</time>
        <extensions>
          <ns3:TrackPointExtension>
            <ns3:atemp>16.0</ns3:atemp>
            <ns3:hr>148</ns3:hr>
          </ns3:TrackPointExtension>
        </extensions>
      </trkpt>
      <trkpt lat="46.69152279384434223175048828125" lon="6.8879749439656734466552734375">
        <ele>666.79998779296875</ele>
        <time>2013-08-15T18:00:02.000Z</time>
        <extensions>
          <ns3:TrackPointExtension>
            <ns3:atemp>16.0</ns3:atemp>
            <ns3:hr>148</ns3:hr>
          </ns3:TrackPointExtension>
        </extensions>
      </trkpt>
      <trkpt lat="46.6915359534323215484619140625" lon="6.88790763728320598602294921875">
        <ele>667</ele>
        <time>2013-08-15T18:00:03.000Z</time>
        <extensions>
          <ns3:TrackPointExtension>
            <ns3:atemp>16.0</ns3:atemp>
            <ns3:hr>148</ns3:hr>
          </ns3:TrackPointExtension>
        </extensions>
      </trkpt>
      <trkpt lat="46.69154861010611057281494140625" lon="6.88784058205783367156982421875">
        <ele>667.20001220703125</ele>
        <time>2013-08-15T18:00:04.000Z</time>
        <extensions>
          <ns3:TrackPointExtension>
            <ns3:atemp>16.0</ns3:atemp>
            <ns3:hr>148</ns3:hr>
          </ns3:TrackPointExtension>
        </extensions>
      </trkpt>
      <trkpt lat="46.69156235642731189727783203125" lon="6.88777537085115909576416015625">
        <ele>667.4000244140625</ele>
        <time>2013-08-15T18:00:05.000Z</time>
        <extensions>
          <ns3:TrackPointExtension>
            <ns3:atemp>16.0</ns3:atemp>
            <ns3:hr>147</ns3:hr>
          </ns3:TrackPointExtension>
        </extensions>
      </trkpt>
      <trkpt lat="46.69157526455819606781005859375" lon="6.887709237635135650634765625">
        <ele>667.4000244140625</ele>
        <time>2013-08-15T18:00:06.000Z</time>
        <extensions>
          <ns3:TrackPointExtension>
            <ns3:atemp>16.0</ns3:atemp>
            <ns3:hr>148</ns3:hr>
          </ns3:TrackPointExtension>
        </extensions>
      </trkpt>
      <trkpt lat="46.69158834032714366912841796875" lon="6.887642182409763336181640625">
        <ele>667.5999755859375</ele>
        <time>2013-08-15T18:00:07.000Z</time>
        <extensions>
          <ns3:TrackPointExtension>
            <ns3:atemp>16.0</ns3:atemp>
            <ns3:hr>148</ns3:hr>
          </ns3:TrackPointExtension>
        </extensions>
      </trkpt>
      <trkpt lat="46.69160149991512298583984375" lon="6.88757722266018390655517578125">
        <ele>667.79998779296875</ele>
        <time>2013-08-15T18:00:08.000Z</time>
        <extensions>
          <ns3:TrackPointExtension>
            <ns3:atemp>16.0</ns3:atemp>
            <ns3:hr>148</ns3:hr>
          </ns3:TrackPointExtension>
        </extensions>
      </trkpt>
      <trkpt lat="46.69161315076053142547607421875" lon="6.88751167617738246917724609375">
        <ele>668</ele>
        <time>2013-08-15T18:00:09.000Z</time>
        <extensions>
          <ns3:TrackPointExtension>
            <ns3:atemp>16.0</ns3:atemp>
            <ns3:hr>148</ns3:hr>
          </ns3:TrackPointExtension>
        </extensions>
      </trkpt>
      <trkpt lat="46.691623963415622711181640625" lon="6.8874462135136127471923828125">
        <ele>668.20001220703125</ele>
        <time>2013-08-15T18:00:10.000Z</time>
        <extensions>
          <ns3:TrackPointExtension>
            <ns3:atemp>16.0</ns3:atemp>
            <ns3:hr>148</ns3:hr>
          </ns3:TrackPointExtension>
        </extensions>
      </trkpt>
      <trkpt lat="46.69163477607071399688720703125" lon="6.88737991265952587127685546875">
        <ele>668.4000244140625</ele>
        <time>2013-08-15T18:00:11.000Z</time>
        <extensions>
          <ns3:TrackPointExtension>
            <ns3:atemp>16.0</ns3:atemp>
            <ns3:hr>148</ns3:hr>
          </ns3:TrackPointExtension>
        </extensions>
      </trkpt>
      <trkpt lat="46.69164634309709072113037109375" lon="6.88731319271028041839599609375">
        <ele>668.5999755859375</ele>
        <time>2013-08-15T18:00:12.000Z</time>
        <extensions>
          <ns3:TrackPointExtension>
            <ns3:atemp>16.0</ns3:atemp>
            <ns3:hr>147</ns3:hr>
          </ns3:TrackPointExtension>
        </extensions>
      </trkpt>
      <trkpt lat="46.69165782630443572998046875" lon="6.88724563457071781158447265625">
        <ele>669</ele>
        <time>2013-08-15T18:00:13.000Z</time>
        <extensions>
          <ns3:TrackPointExtension>
            <ns3:atemp>16.0</ns3:atemp>
            <ns3:hr>147</ns3:hr>
          </ns3:TrackPointExtension>
        </extensions>
      </trkpt>
      <trkpt lat="46.69166964478790760040283203125" lon="6.88717824406921863555908203125">
        <ele>669.20001220703125</ele>
        <time>2013-08-15T18:00:14.000Z</time>
        <extensions>
          <ns3:TrackPointExtension>
            <ns3:atemp>16.0</ns3:atemp>
            <ns3:hr>147</ns3:hr>
          </ns3:TrackPointExtension>
        </extensions>
      </trkpt>
      <trkpt lat="46.69168205000460147857666015625" lon="6.887111105024814605712890625">
        <ele>669.4000244140625</ele>
        <time>2013-08-15T18:00:15.000Z</time>
        <extensions>
          <ns3:TrackPointExtension>
            <ns3:atemp>16.0</ns3:atemp>
            <ns3:hr>147</ns3:hr>
          </ns3:TrackPointExtension>
        </extensions>
      </trkpt>
      <trkpt lat="46.691693700850009918212890625" lon="6.88704296015202999114990234375">
        <ele>669.79998779296875</ele>
        <time>2013-08-15T18:00:16.000Z</time>
        <extensions>
          <ns3:TrackPointExtension>
            <ns3:atemp>16.0</ns3:atemp>
            <ns3:hr>148</ns3:hr>
          </ns3:TrackPointExtension>
        </extensions>
      </trkpt>
      <trkpt lat="46.691702418029308319091796875" lon="6.88697464764118194580078125">
        <ele>669.79998779296875</ele>
        <time>2013-08-15T18:00:17.000Z</time>
        <extensions>
          <ns3:TrackPointExtension>
            <ns3:atemp>16.0</ns3:atemp>
            <ns3:hr>148</ns3:hr>
          </ns3:TrackPointExtension>
        </extensions>
      </trkpt>
      <trkpt lat="46.691709794104099273681640625" lon="6.88690599985420703887939453125">
        <ele>670.20001220703125</ele>
        <time>2013-08-15T18:00:18.000Z</time>
        <extensions>
          <ns3:TrackPointExtension>
            <ns3:atemp>16.0</ns3:atemp>
            <ns3:hr>148</ns3:hr>
          </ns3:TrackPointExtension>
        </extensions>
      </trkpt>
      <trkpt lat="46.6917186789214611053466796875" lon="6.8868353404104709625244140625">
        <ele>670.4000244140625</ele>
        <time>2013-08-15T18:00:19.000Z</time>
        <extensions>
          <ns3:TrackPointExtension>
            <ns3:atemp>16.0</ns3:atemp>
            <ns3:hr>149</ns3:hr>
          </ns3:TrackPointExtension>
        </extensions>
      </trkpt>
      <trkpt lat="46.6917268931865692138671875" lon="6.88676535151898860931396484375">
        <ele>670.5999755859375</ele>
        <time>2013-08-15T18:00:20.000Z</time>
        <extensions>
          <ns3:TrackPointExtension>
            <ns3:atemp>16.0</ns3:atemp>
            <ns3:hr>149</ns3:hr>
          </ns3:TrackPointExtension>
        </extensions>
      </trkpt>
      <trkpt lat="46.69173183850944042205810546875" lon="6.88669703900814056396484375">
        <ele>670.5999755859375</ele>
        <time>2013-08-15T18:00:21.000Z</time>
        <extensions>
          <ns3:TrackPointExtension>
            <ns3:atemp>16.0</ns3:atemp>
            <ns3:hr>149</ns3:hr>
          </ns3:TrackPointExtension>
        </extensions>
      </trkpt>
      <trkpt lat="46.6917374543845653533935546875" lon="6.886626966297626495361328125">
        <ele>671</ele>
        <time>2013-08-15T18:00:22.000Z</time>
        <extensions>
          <ns3:TrackPointExtension>
            <ns3:atemp>16.0</ns3:atemp>
            <ns3:hr>149</ns3:hr>
          </ns3:TrackPointExtension>
        </extensions>
      </trkpt>
      <trkpt lat="46.69174575246870517730712890625" lon="6.88655714504420757293701171875">
        <ele>671.20001220703125</ele>
        <time>2013-08-15T18:00:23.000Z</time>
        <extensions>
          <ns3:TrackPointExtension>
            <ns3:atemp>16.0</ns3:atemp>
            <ns3:hr>149</ns3:hr>
          </ns3:TrackPointExtension>
        </extensions>
      </trkpt>
      <trkpt lat="46.69175178743898868560791015625" lon="6.88648740760982036590576171875">
        <ele>671.5999755859375</ele>
        <time>2013-08-15T18:00:24.000Z</time>
        <extensions>
          <ns3:TrackPointExtension>
            <ns3:atemp>16.0</ns3:atemp>
            <ns3:hr>149</ns3:hr>
          </ns3:TrackPointExtension>
        </extensions>
      </trkpt>
      <trkpt lat="46.6917548887431621551513671875" lon="6.88641750253736972808837890625">
        <ele>671.79998779296875</ele>
        <time>2013-08-15T18:00:25.000Z</time>
        <extensions>
          <ns3:TrackPointExtension>
            <ns3:atemp>16.0</ns3:atemp>
            <ns3:hr>149</ns3:hr>
          </ns3:TrackPointExtension>
        </extensions>
      </trkpt>
      <trkpt lat="46.69175832532346248626708984375" lon="6.88634893856942653656005859375">
        <ele>672.20001220703125</ele>
        <time>2013-08-15T18:00:26.000Z</time>
        <extensions>
          <ns3:TrackPointExtension>
            <ns3:atemp>16.0</ns3:atemp>
            <ns3:hr>150</ns3:hr>
          </ns3:TrackPointExtension>
        </extensions>
      </trkpt>
      <trkpt lat="46.69176184572279453277587890625" lon="6.88627903349697589874267578125">
        <ele>672.4000244140625</ele>
        <time>2013-08-15T18:00:27.000Z</time>
        <extensions>
          <ns3:TrackPointExtension>
            <ns3:atemp>16.0</ns3:atemp>
            <ns3:hr>150</ns3:hr>
          </ns3:TrackPointExtension>
        </extensions>
      </trkpt>
      <trkpt lat="46.6917632706463336944580078125" lon="6.88620929606258869171142578125">
        <ele>672.4000244140625</ele>
        <time>2013-08-15T18:00:28.000Z</time>
        <extensions>
          <ns3:TrackPointExtension>
            <ns3:atemp>16.0</ns3:atemp>
            <ns3:hr>150</ns3:hr>
          </ns3:TrackPointExtension>
        </extensions>
      </trkpt>
      <trkpt lat="46.69176570139825344085693359375" lon="6.88613872043788433074951171875">
        <ele>672.4000244140625</ele>
        <time>2013-08-15T18:00:29.000Z</time>
        <extensions>
          <ns3:TrackPointExtension>
            <ns3:atemp>16.0</ns3:atemp>
            <ns3:hr>150</ns3:hr>
          </ns3:TrackPointExtension>
        </extensions>
      </trkpt>
      <trkpt lat="46.69176804833114147186279296875" lon="6.886068396270275115966796875">
        <ele>672.5999755859375</ele>
        <time>2013-08-15T18:00:30.000Z</time>
        <extensions>
          <ns3:TrackPointExtension>
            <ns3:atemp>16.0</ns3:atemp>
            <ns3:hr>150</ns3:hr>
          </ns3:TrackPointExtension>
        </extensions>
      </trkpt>
      <trkpt lat="46.69177223928272724151611328125" lon="6.8859984911978244781494140625">
        <ele>672.5999755859375</ele>
        <time>2013-08-15T18:00:31.000Z</time>
        <extensions>
          <ns3:TrackPointExtension>
            <ns3:atemp>16.0</ns3:atemp>
            <ns3:hr>150</ns3:hr>
          </ns3:TrackPointExtension>
        </extensions>
      </trkpt>
      <trkpt lat="46.6917776875197887420654296875" lon="6.885928921401500701904296875">
        <ele>672.79998779296875</ele>
        <time>2013-08-15T18:00:32.000Z</time>
        <extensions>
          <ns3:TrackPointExtension>
            <ns3:atemp>16.0</ns3:atemp>
            <ns3:hr>149</ns3:hr>
          </ns3:TrackPointExtension>
        </extensions>
      </trkpt>
      <trkpt lat="46.6917823813855648040771484375" lon="6.88585641793906688690185546875">
        <ele>672.79998779296875</ele>
        <time>2013-08-15T18:00:33.000Z</time>
        <extensions>
          <ns3:TrackPointExtension>
            <ns3:atemp>16.0</ns3:atemp>
            <ns3:hr>150</ns3:hr>
          </ns3:TrackPointExtension>
        </extensions>
      </trkpt>
      <trkpt lat="46.691784895956516265869140625" lon="6.88578383065760135650634765625">
        <ele>672.79998779296875</ele>
        <time>2013-08-15T18:00:34.000Z</time>
        <extensions>
          <ns3:TrackPointExtension>
            <ns3:atemp>16.0</ns3:atemp>
            <ns3:hr>149</ns3:hr>
          </ns3:TrackPointExtension>
        </extensions>
      </trkpt>
      <trkpt lat="46.69178816489875316619873046875" lon="6.8857101537287235260009765625">
        <ele>672.79998779296875</ele>
        <time>2013-08-15T18:00:35.000Z</time>
        <extensions>
          <ns3:TrackPointExtension>
            <ns3:atemp>16.0</ns3:atemp>
            <ns3:hr>150</ns3:hr>
          </ns3:TrackPointExtension>
        </extensions>
      </trkpt>
      <trkpt lat="46.69179084710776805877685546875" lon="6.88563547097146511077880859375">
        <ele>673</ele>
        <time>2013-08-15T18:00:36.000Z</time>
        <extensions>
          <ns3:TrackPointExtension>
            <ns3:atemp>16.0</ns3:atemp>
            <ns3:hr>149</ns3:hr>
          </ns3:TrackPointExtension>
        </extensions>
      </trkpt>
      <trkpt lat="46.69179386459290981292724609375" lon="6.885560117661952972412109375">
        <ele>673.20001220703125</ele>
        <time>2013-08-15T18:00:37.000Z</time>
        <extensions>
          <ns3:TrackPointExtension>
            <ns3:atemp>16.0</ns3:atemp>
            <ns3:hr>149</ns3:hr>
          </ns3:TrackPointExtension>
        </extensions>
      </trkpt>
      <trkpt lat="46.6917981393635272979736328125" lon="6.88548459671437740325927734375">
        <ele>673.20001220703125</ele>
        <time>2013-08-15T18:00:38.000Z</time>
        <extensions>
          <ns3:TrackPointExtension>
            <ns3:atemp>16.0</ns3:atemp>
            <ns3:hr>149</ns3:hr>
          </ns3:TrackPointExtension>
        </extensions>
      </trkpt>
      <trkpt lat="46.691803671419620513916015625" lon="6.88540798611938953399658203125">
        <ele>673.4000244140625</ele>
        <time>2013-08-15T18:00:39.000Z</time>
        <extensions>
          <ns3:TrackPointExtension>
            <ns3:atemp>16.0</ns3:atemp>
            <ns3:hr>149</ns3:hr>
          </ns3:TrackPointExtension>
        </extensions>
      </trkpt>
      <trkpt lat="46.69181247241795063018798828125" lon="6.8853326328098773956298828125">
        <ele>673.5999755859375</ele>
        <time>2013-08-15T18:00:40.000Z</time>
        <extensions>
          <ns3:TrackPointExtension>
            <ns3:atemp>16.0</ns3:atemp>
            <ns3:hr>149</ns3:hr>
          </ns3:TrackPointExtension>
        </extensions>
      </trkpt>
      <trkpt lat="46.691823117434978485107421875" lon="6.88525627367198467254638671875">
        <ele>673.5999755859375</ele>
        <time>2013-08-15T18:00:41.000Z</time>
        <extensions>
          <ns3:TrackPointExtension>
            <ns3:atemp>16.0</ns3:atemp>
            <ns3:hr>149</ns3:hr>
          </ns3:TrackPointExtension>
        </extensions>
      </trkpt>
      <trkpt lat="46.69183376245200634002685546875" lon="6.88518024981021881103515625">
        <ele>673.79998779296875</ele>
        <time>2013-08-15T18:00:42.000Z</time>
        <extensions>
          <ns3:TrackPointExtension>
            <ns3:atemp>16.0</ns3:atemp>
            <ns3:hr>149</ns3:hr>
          </ns3:TrackPointExtension>
        </extensions>
      </trkpt>
      <trkpt lat="46.6918440721929073333740234375" lon="6.8851022981107234954833984375">
        <ele>673.79998779296875</ele>
        <time>2013-08-15T18:00:43.000Z</time>
        <extensions>
          <ns3:TrackPointExtension>
            <ns3:atemp>16.0</ns3:atemp>
            <ns3:hr>148</ns3:hr>
          </ns3:TrackPointExtension>
        </extensions>
      </trkpt>
      <trkpt lat="46.6918548010289669036865234375" lon="6.88502493314445018768310546875">
        <ele>674</ele>
        <time>2013-08-15T18:00:44.000Z</time>
        <extensions>
          <ns3:TrackPointExtension>
            <ns3:atemp>16.0</ns3:atemp>
            <ns3:hr>148</ns3:hr>
          </ns3:TrackPointExtension>
        </extensions>
      </trkpt>
      <trkpt lat="46.691867373883724212646484375" lon="6.88494681380689144134521484375">
        <ele>674.20001220703125</ele>
        <time>2013-08-15T18:00:45.000Z</time>
        <extensions>
          <ns3:TrackPointExtension>
            <ns3:atemp>16.0</ns3:atemp>
            <ns3:hr>149</ns3:hr>
          </ns3:TrackPointExtension>
        </extensions>
      </trkpt>
      <trkpt lat="46.691882126033306121826171875" lon="6.88486869446933269500732421875">
        <ele>674.20001220703125</ele>
        <time>2013-08-15T18:00:46.000Z</time>
        <extensions>
          <ns3:TrackPointExtension>
            <ns3:atemp>16.0</ns3:atemp>
            <ns3:hr>149</ns3:hr>
          </ns3:TrackPointExtension>
        </extensions>
      </trkpt>
      <trkpt lat="46.69189989566802978515625" lon="6.88479057513177394866943359375">
        <ele>674.4000244140625</ele>
        <time>2013-08-15T18:00:47.000Z</time>
        <extensions>
          <ns3:TrackPointExtension>
            <ns3:atemp>16.0</ns3:atemp>
            <ns3:hr>148</ns3:hr>
          </ns3:TrackPointExtension>
        </extensions>
      </trkpt>
      <trkpt lat="46.6919205151498317718505859375" lon="6.884711869060993194580078125">
        <ele>674.4000244140625</ele>
        <time>2013-08-15T18:00:48.000Z</time>
        <extensions>
          <ns3:TrackPointExtension>
            <ns3:atemp>16.0</ns3:atemp>
            <ns3:hr>148</ns3:hr>
          </ns3:TrackPointExtension>
        </extensions>
      </trkpt>
      <trkpt lat="46.69194490648806095123291015625" lon="6.88463517464697360992431640625">
        <ele>674.4000244140625</ele>
        <time>2013-08-15T18:00:49.000Z</time>
        <extensions>
          <ns3:TrackPointExtension>
            <ns3:atemp>16.0</ns3:atemp>
            <ns3:hr>148</ns3:hr>
          </ns3:TrackPointExtension>
        </extensions>
      </trkpt>
      <trkpt lat="46.69197223149240016937255859375" lon="6.88455889932811260223388671875">
        <ele>674.5999755859375</ele>
        <time>2013-08-15T18:00:50.000Z</time>
        <extensions>
          <ns3:TrackPointExtension>
            <ns3:atemp>16.0</ns3:atemp>
            <ns3:hr>148</ns3:hr>
          </ns3:TrackPointExtension>
        </extensions>
      </trkpt>
      <trkpt lat="46.6920003108680248260498046875" lon="6.8844837136566638946533203125">
        <ele>674.5999755859375</ele>
        <time>2013-08-15T18:00:51.000Z</time>
        <extensions>
          <ns3:TrackPointExtension>
            <ns3:atemp>16.0</ns3:atemp>
            <ns3:hr>147</ns3:hr>
          </ns3:TrackPointExtension>
        </extensions>
      </trkpt>
      <trkpt lat="46.6920301504433155059814453125" lon="6.8844086118042469024658203125">
        <ele>674.5999755859375</ele>
        <time>2013-08-15T18:00:52.000Z</time>
        <extensions>
          <ns3:TrackPointExtension>
            <ns3:atemp>16.0</ns3:atemp>
            <ns3:hr>147</ns3:hr>
          </ns3:TrackPointExtension>
        </extensions>
      </trkpt>
      <trkpt lat="46.69206225313246250152587890625" lon="6.88433543778955936431884765625">
        <ele>674.5999755859375</ele>
        <time>2013-08-15T18:00:53.000Z</time>
        <extensions>
          <ns3:TrackPointExtension>
            <ns3:atemp>16.0</ns3:atemp>
            <ns3:hr>146</ns3:hr>
          </ns3:TrackPointExtension>
        </extensions>
      </trkpt>
      <trkpt lat="46.6920961998403072357177734375" lon="6.8842636048793792724609375">
        <ele>674.5999755859375</ele>
        <time>2013-08-15T18:00:54.000Z</time>
        <extensions>
          <ns3:TrackPointExtension>
            <ns3:atemp>16.0</ns3:atemp>
            <ns3:hr>146</ns3:hr>
          </ns3:TrackPointExtension>
        </extensions>
      </trkpt>
      <trkpt lat="46.69213215820491313934326171875" lon="6.884192861616611480712890625">
        <ele>674.79998779296875</ele>
        <time>2013-08-15T18:00:55.000Z</time>
        <extensions>
          <ns3:TrackPointExtension>
            <ns3:atemp>16.0</ns3:atemp>
            <ns3:hr>146</ns3:hr>
          </ns3:TrackPointExtension>
        </extensions>
      </trkpt>
      <trkpt lat="46.69217088259756565093994140625" lon="6.8841241300106048583984375">
        <ele>674.5999755859375</ele>
        <time>2013-08-15T18:00:56.000Z</time>
        <extensions>
          <ns3:TrackPointExtension>
            <ns3:atemp>16.0</ns3:atemp>
            <ns3:hr>145</ns3:hr>
          </ns3:TrackPointExtension>
        </extensions>
      </trkpt>
      <trkpt lat="46.692213378846645355224609375" lon="6.884060092270374298095703125">
        <ele>674.5999755859375</ele>
        <time>2013-08-15T18:00:57.000Z</time>
        <extensions>
          <ns3:TrackPointExtension>
            <ns3:atemp>16.0</ns3:atemp>
            <ns3:hr>145</ns3:hr>
          </ns3:TrackPointExtension>
        </extensions>
      </trkpt>
      <trkpt lat="46.69226006604731082916259765625" lon="6.88399898819625377655029296875">
        <ele>674.79998779296875</ele>
        <time>2013-08-15T18:00:58.000Z</time>
        <extensions>
          <ns3:TrackPointExtension>
            <ns3:atemp>16.0</ns3:atemp>
            <ns3:hr>144</ns3:hr>
          </ns3:TrackPointExtension>
        </extensions>
      </trkpt>
      <trkpt lat="46.69230834580957889556884765625" lon="6.8839390575885772705078125">
        <ele>674.5999755859375</ele>
        <time>2013-08-15T18:00:59.000Z</time>
        <extensions>
          <ns3:TrackPointExtension>
            <ns3:atemp>16.0</ns3:atemp>
            <ns3:hr>144</ns3:hr>
          </ns3:TrackPointExtension>
        </extensions>
      </trkpt>
      <trkpt lat="46.69235830195248126983642578125" lon="6.8838792107999324798583984375">
        <ele>674.5999755859375</ele>
        <time>2013-08-15T18:01:00.000Z</time>
        <extensions>
          <ns3:TrackPointExtension>
            <ns3:atemp>16.0</ns3:atemp>
            <ns3:hr>144</ns3:hr>
          </ns3:TrackPointExtension>
        </extensions>
      </trkpt>
      <trkpt lat="46.69241110794246196746826171875" lon="6.8838225491344928741455078125">
        <ele>674.5999755859375</ele>
        <time>2013-08-15T18:01:01.000Z</time>
        <extensions>
          <ns3:TrackPointExtension>
            <ns3:atemp>16.0</ns3:atemp>
            <ns3:hr>144</ns3:hr>
          </ns3:TrackPointExtension>
        </extensions>
      </trkpt>
      <trkpt lat="46.6924660094082355499267578125" lon="6.88377100042998790740966796875">
        <ele>674.5999755859375</ele>
        <time>2013-08-15T18:01:02.000Z</time>
        <extensions>
          <ns3:TrackPointExtension>
            <ns3:atemp>16.0</ns3:atemp>
            <ns3:hr>143</ns3:hr>
          </ns3:TrackPointExtension>
        </extensions>
      </trkpt>
      <trkpt lat="46.69252208434045314788818359375" lon="6.88372188247740268707275390625">
        <ele>674.5999755859375</ele>
        <time>2013-08-15T18:01:03.000Z</time>
        <extensions>
          <ns3:TrackPointExtension>
            <ns3:atemp>16.0</ns3:atemp>
            <ns3:hr>143</ns3:hr>
          </ns3:TrackPointExtension>
        </extensions>
      </trkpt>
      <trkpt lat="46.69258050620555877685546875" lon="6.8836746923625469207763671875">
        <ele>674.5999755859375</ele>
        <time>2013-08-15T18:01:04.000Z</time>
        <extensions>
          <ns3:TrackPointExtension>
            <ns3:atemp>16.0</ns3:atemp>
            <ns3:hr>143</ns3:hr>
          </ns3:TrackPointExtension>
        </extensions>
      </trkpt>
      <trkpt lat="46.69264010153710842132568359375" lon="6.88363186083734035491943359375">
        <ele>674.4000244140625</ele>
        <time>2013-08-15T18:01:05.000Z</time>
        <extensions>
          <ns3:TrackPointExtension>
            <ns3:atemp>16.0</ns3:atemp>
            <ns3:hr>142</ns3:hr>
          </ns3:TrackPointExtension>
        </extensions>
      </trkpt>
      <trkpt lat="46.6927017085254192352294921875" lon="6.8835925497114658355712890625">
        <ele>674.4000244140625</ele>
        <time>2013-08-15T18:01:06.000Z</time>
        <extensions>
          <ns3:TrackPointExtension>
            <ns3:atemp>16.0</ns3:atemp>
            <ns3:hr>142</ns3:hr>
          </ns3:TrackPointExtension>
        </extensions>
      </trkpt>
      <trkpt lat="46.69276281259953975677490234375" lon="6.88355776481330394744873046875">
        <ele>674.4000244140625</ele>
        <time>2013-08-15T18:01:07.000Z</time>
        <extensions>
          <ns3:TrackPointExtension>
            <ns3:atemp>16.0</ns3:atemp>
            <ns3:hr>142</ns3:hr>
          </ns3:TrackPointExtension>
        </extensions>
      </trkpt>
      <trkpt lat="46.69282416813075542449951171875" lon="6.88352222554385662078857421875">
        <ele>674.4000244140625</ele>
        <time>2013-08-15T18:01:08.000Z</time>
        <extensions>
          <ns3:TrackPointExtension>
            <ns3:atemp>16.0</ns3:atemp>
            <ns3:hr>141</ns3:hr>
          </ns3:TrackPointExtension>
        </extensions>
      </trkpt>
      <trkpt lat="46.6928856074810028076171875" lon="6.88348718918859958648681640625">
        <ele>674.20001220703125</ele>
        <time>2013-08-15T18:01:09.000Z</time>
        <extensions>
          <ns3:TrackPointExtension>
            <ns3:atemp>16.0</ns3:atemp>
            <ns3:hr>140</ns3:hr>
          </ns3:TrackPointExtension>
        </extensions>
      </trkpt>
      <trkpt lat="46.69294956140220165252685546875" lon="6.883456595242023468017578125">
        <ele>674.20001220703125</ele>
        <time>2013-08-15T18:01:10.000Z</time>
        <extensions>
          <ns3:TrackPointExtension>
            <ns3:atemp>16.0</ns3:atemp>
            <ns3:hr>140</ns3:hr>
          </ns3:TrackPointExtension>
        </extensions>
      </trkpt>
      <trkpt lat="46.69301426969468593597412109375" lon="6.88342650420963764190673828125">
        <ele>674.20001220703125</ele>
        <time>2013-08-15T18:01:11.000Z</time>
        <extensions>
          <ns3:TrackPointExtension>
            <ns3:atemp>16.0</ns3:atemp>
            <ns3:hr>139</ns3:hr>
          </ns3:TrackPointExtension>
        </extensions>
      </trkpt>
      <trkpt lat="46.69308073818683624267578125" lon="6.88339716754853725433349609375">
        <ele>674</ele>
        <time>2013-08-15T18:01:12.000Z</time>
        <extensions>
          <ns3:TrackPointExtension>
            <ns3:atemp>16.0</ns3:atemp>
            <ns3:hr>139</ns3:hr>
          </ns3:TrackPointExtension>
        </extensions>
      </trkpt>
      <trkpt lat="46.69314737431704998016357421875" lon="6.8833685852587223052978515625">
        <ele>673.79998779296875</ele>
        <time>2013-08-15T18:01:13.000Z</time>
        <extensions>
          <ns3:TrackPointExtension>
            <ns3:atemp>16.0</ns3:atemp>
            <ns3:hr>138</ns3:hr>
          </ns3:TrackPointExtension>
        </extensions>
      </trkpt>
      <trkpt lat="46.69321392662823200225830078125" lon="6.88334017060697078704833984375">
        <ele>673.79998779296875</ele>
        <time>2013-08-15T18:01:14.000Z</time>
        <extensions>
          <ns3:TrackPointExtension>
            <ns3:atemp>16.0</ns3:atemp>
            <ns3:hr>137</ns3:hr>
          </ns3:TrackPointExtension>
        </extensions>
      </trkpt>
      <trkpt lat="46.69328165240585803985595703125" lon="6.88331183977425098419189453125">
        <ele>673.79998779296875</ele>
        <time>2013-08-15T18:01:15.000Z</time>
        <extensions>
          <ns3:TrackPointExtension>
            <ns3:atemp>16.0</ns3:atemp>
            <ns3:hr>137</ns3:hr>
          </ns3:TrackPointExtension>
        </extensions>
      </trkpt>
      <trkpt lat="46.69334853999316692352294921875" lon="6.88328267075121402740478515625">
        <ele>673.5999755859375</ele>
        <time>2013-08-15T18:01:16.000Z</time>
        <extensions>
          <ns3:TrackPointExtension>
            <ns3:atemp>16.0</ns3:atemp>
            <ns3:hr>136</ns3:hr>
          </ns3:TrackPointExtension>
        </extensions>
      </trkpt>
      <trkpt lat="46.6934158466756343841552734375" lon="6.88325115479528903961181640625">
        <ele>673.5999755859375</ele>
        <time>2013-08-15T18:01:17.000Z</time>
        <extensions>
          <ns3:TrackPointExtension>
            <ns3:atemp>16.0</ns3:atemp>
            <ns3:hr>136</ns3:hr>
          </ns3:TrackPointExtension>
        </extensions>
      </trkpt>
      <trkpt lat="46.693483404815196990966796875" lon="6.88322030939161777496337890625">
        <ele>673.4000244140625</ele>
        <time>2013-08-15T18:01:18.000Z</time>
        <extensions>
          <ns3:TrackPointExtension>
            <ns3:atemp>16.0</ns3:atemp>
            <ns3:hr>135</ns3:hr>
          </ns3:TrackPointExtension>
        </extensions>
      </trkpt>
      <trkpt lat="46.69355146586894989013671875" lon="6.88319181092083454132080078125">
        <ele>673.4000244140625</ele>
        <time>2013-08-15T18:01:19.000Z</time>
        <extensions>
          <ns3:TrackPointExtension>
            <ns3:atemp>16.0</ns3:atemp>
            <ns3:hr>134</ns3:hr>
          </ns3:TrackPointExtension>
        </extensions>
      </trkpt>
      <trkpt lat="46.69362128712236881256103515625" lon="6.88316297717392444610595703125">
        <ele>673.20001220703125</ele>
        <time>2013-08-15T18:01:20.000Z</time>
        <extensions>
          <ns3:TrackPointExtension>
            <ns3:atemp>16.0</ns3:atemp>
            <ns3:hr>134</ns3:hr>
          </ns3:TrackPointExtension>
        </extensions>
      </trkpt>
      <trkpt lat="46.69368959963321685791015625" lon="6.88313498161733150482177734375">
        <ele>673.20001220703125</ele>
        <time>2013-08-15T18:01:21.000Z</time>
        <extensions>
          <ns3:TrackPointExtension>
            <ns3:atemp>16.0</ns3:atemp>
            <ns3:hr>133</ns3:hr>
          </ns3:TrackPointExtension>
        </extensions>
      </trkpt>
      <trkpt lat="46.69375925324857234954833984375" lon="6.8831080757081508636474609375">
        <ele>672.5999755859375</ele>
        <time>2013-08-15T18:01:22.000Z</time>
        <extensions>
          <ns3:TrackPointExtension>
            <ns3:atemp>16.0</ns3:atemp>
            <ns3:hr>133</ns3:hr>
          </ns3:TrackPointExtension>
        </extensions>
      </trkpt>
      <trkpt lat="46.6938297450542449951171875" lon="6.88307982869446277618408203125">
        <ele>672.4000244140625</ele>
        <time>2013-08-15T18:01:23.000Z</time>
        <extensions>
          <ns3:TrackPointExtension>
            <ns3:atemp>16.0</ns3:atemp>
            <ns3:hr>132</ns3:hr>
          </ns3:TrackPointExtension>
        </extensions>
      </trkpt>
      <trkpt lat="46.69390149414539337158203125" lon="6.88305065967142581939697265625">
        <ele>672.20001220703125</ele>
        <time>2013-08-15T18:01:24.000Z</time>
        <extensions>
          <ns3:TrackPointExtension>
            <ns3:atemp>16.0</ns3:atemp>
            <ns3:hr>130</ns3:hr>
          </ns3:TrackPointExtension>
        </extensions>
      </trkpt>
      <trkpt lat="46.6939767636358737945556640625" lon="6.88302333466708660125732421875">
        <ele>672</ele>
        <time>2013-08-15T18:01:25.000Z</time>
        <extensions>
          <ns3:TrackPointExtension>
            <ns3:atemp>16.0</ns3:atemp>
            <ns3:hr>130</ns3:hr>
          </ns3:TrackPointExtension>
        </extensions>
      </trkpt>
      <trkpt lat="46.694056056439876556396484375" lon="6.8829976022243499755859375">
        <ele>671.79998779296875</ele>
        <time>2013-08-15T18:01:26.000Z</time>
        <extensions>
          <ns3:TrackPointExtension>
            <ns3:atemp>16.0</ns3:atemp>
            <ns3:hr>129</ns3:hr>
          </ns3:TrackPointExtension>
        </extensions>
      </trkpt>
      <trkpt lat="46.6941370256245136260986328125" lon="6.8829712830483913421630859375">
        <ele>671.79998779296875</ele>
        <time>2013-08-15T18:01:27.000Z</time>
        <extensions>
          <ns3:TrackPointExtension>
            <ns3:atemp>16.0</ns3:atemp>
            <ns3:hr>130</ns3:hr>
          </ns3:TrackPointExtension>
        </extensions>
      </trkpt>
      <trkpt lat="46.6942215152084827423095703125" lon="6.88294689171016216278076171875">
        <ele>671.5999755859375</ele>
        <time>2013-08-15T18:01:28.000Z</time>
        <extensions>
          <ns3:TrackPointExtension>
            <ns3:atemp>16.0</ns3:atemp>
            <ns3:hr>130</ns3:hr>
          </ns3:TrackPointExtension>
        </extensions>
      </trkpt>
      <trkpt lat="46.69430877082049846649169921875" lon="6.88292342238128185272216796875">
        <ele>671.4000244140625</ele>
        <time>2013-08-15T18:01:29.000Z</time>
        <extensions>
          <ns3:TrackPointExtension>
            <ns3:atemp>16.0</ns3:atemp>
            <ns3:hr>130</ns3:hr>
          </ns3:TrackPointExtension>
        </extensions>
      </trkpt>
      <trkpt lat="46.6943983733654022216796875" lon="6.88290171325206756591796875">
        <ele>671.20001220703125</ele>
        <time>2013-08-15T18:01:30.000Z</time>
        <extensions>
          <ns3:TrackPointExtension>
            <ns3:atemp>16.0</ns3:atemp>
            <ns3:hr>130</ns3:hr>
          </ns3:TrackPointExtension>
        </extensions>
      </trkpt>
      <trkpt lat="46.69448981992900371551513671875" lon="6.88288251869380474090576171875">
        <ele>671</ele>
        <time>2013-08-15T18:01:31.000Z</time>
        <extensions>
          <ns3:TrackPointExtension>
            <ns3:atemp>16.0</ns3:atemp>
            <ns3:hr>129</ns3:hr>
          </ns3:TrackPointExtension>
        </extensions>
      </trkpt>
      <trkpt lat="46.69458411633968353271484375" lon="6.8828660063445568084716796875">
        <ele>670.5999755859375</ele>
        <time>2013-08-15T18:01:32.000Z</time>
        <extensions>
          <ns3:TrackPointExtension>
            <ns3:atemp>16.0</ns3:atemp>
            <ns3:hr>129</ns3:hr>
          </ns3:TrackPointExtension>
        </extensions>
      </trkpt>
      <trkpt lat="46.69468042440712451934814453125" lon="6.8828502483665943145751953125">
        <ele>670.4000244140625</ele>
        <time>2013-08-15T18:01:33.000Z</time>
        <extensions>
          <ns3:TrackPointExtension>
            <ns3:atemp>16.0</ns3:atemp>
            <ns3:hr>129</ns3:hr>
          </ns3:TrackPointExtension>
        </extensions>
      </trkpt>
      <trkpt lat="46.69477916322648525238037109375" lon="6.882837004959583282470703125">
        <ele>670.4000244140625</ele>
        <time>2013-08-15T18:01:34.000Z</time>
        <extensions>
          <ns3:TrackPointExtension>
            <ns3:atemp>16.0</ns3:atemp>
            <ns3:hr>128</ns3:hr>
          </ns3:TrackPointExtension>
        </extensions>
      </trkpt>
      <trkpt lat="46.69488024897873401641845703125" lon="6.882827281951904296875">
        <ele>670</ele>
        <time>2013-08-15T18:01:35.000Z</time>
        <extensions>
          <ns3:TrackPointExtension>
            <ns3:atemp>16.0</ns3:atemp>
            <ns3:hr>128</ns3:hr>
          </ns3:TrackPointExtension>
        </extensions>
      </trkpt>
      <trkpt lat="46.69498250819742679595947265625" lon="6.8828207440674304962158203125">
        <ele>669.79998779296875</ele>
        <time>2013-08-15T18:01:36.000Z</time>
        <extensions>
          <ns3:TrackPointExtension>
            <ns3:atemp>16.0</ns3:atemp>
            <ns3:hr>127</ns3:hr>
          </ns3:TrackPointExtension>
        </extensions>
      </trkpt>
      <trkpt lat="46.6950858570635318756103515625" lon="6.88281948678195476531982421875">
        <ele>669.4000244140625</ele>
        <time>2013-08-15T18:01:37.000Z</time>
        <extensions>
          <ns3:TrackPointExtension>
            <ns3:atemp>16.0</ns3:atemp>
            <ns3:hr>127</ns3:hr>
          </ns3:TrackPointExtension>
        </extensions>
      </trkpt>
      <trkpt lat="46.6951894573867321014404296875" lon="6.882820911705493927001953125">
        <ele>669.20001220703125</ele>
        <time>2013-08-15T18:01:38.000Z</time>
        <extensions>
          <ns3:TrackPointExtension>
            <ns3:atemp>16.0</ns3:atemp>
            <ns3:hr>127</ns3:hr>
          </ns3:TrackPointExtension>
        </extensions>
      </trkpt>
      <trkpt lat="46.695294566452503204345703125" lon="6.88282518647611141204833984375">
        <ele>668.5999755859375</ele>
        <time>2013-08-15T18:01:39.000Z</time>
        <extensions>
          <ns3:TrackPointExtension>
            <ns3:atemp>16.0</ns3:atemp>
            <ns3:hr>127</ns3:hr>
          </ns3:TrackPointExtension>
        </extensions>
      </trkpt>
      <trkpt lat="46.69540076516568660736083984375" lon="6.88283331692218780517578125">
        <ele>668.5999755859375</ele>
        <time>2013-08-15T18:01:40.000Z</time>
        <extensions>
          <ns3:TrackPointExtension>
            <ns3:atemp>16.0</ns3:atemp>
            <ns3:hr>127</ns3:hr>
          </ns3:TrackPointExtension>
        </extensions>
      </trkpt>
      <trkpt lat="46.69550688005983829498291015625" lon="6.88284513540565967559814453125">
        <ele>667.79998779296875</ele>
        <time>2013-08-15T18:01:41.000Z</time>
        <extensions>
          <ns3:TrackPointExtension>
            <ns3:atemp>16.0</ns3:atemp>
            <ns3:hr>127</ns3:hr>
          </ns3:TrackPointExtension>
        </extensions>
      </trkpt>
      <trkpt lat="46.69561316259205341339111328125" lon="6.88285955227911472320556640625">
        <ele>667.20001220703125</ele>
        <time>2013-08-15T18:01:42.000Z</time>
        <extensions>
          <ns3:TrackPointExtension>
            <ns3:atemp>16.0</ns3:atemp>
            <ns3:hr>127</ns3:hr>
          </ns3:TrackPointExtension>
        </extensions>
      </trkpt>
      <trkpt lat="46.69572003185749053955078125" lon="6.8828774057328701019287109375">
        <ele>666.5999755859375</ele>
        <time>2013-08-15T18:01:43.000Z</time>
        <extensions>
          <ns3:TrackPointExtension>
            <ns3:atemp>16.0</ns3:atemp>
            <ns3:hr>128</ns3:hr>
          </ns3:TrackPointExtension>
        </extensions>
      </trkpt>
      <trkpt lat="46.6958253085613250732421875" lon="6.88289861194789409637451171875">
        <ele>666.5999755859375</ele>
        <time>2013-08-15T18:01:44.000Z</time>
        <extensions>
          <ns3:TrackPointExtension>
            <ns3:atemp>16.0</ns3:atemp>
            <ns3:hr>127</ns3:hr>
          </ns3:TrackPointExtension>
        </extensions>
      </trkpt>
      <trkpt lat="46.6959304176270961761474609375" lon="6.88292057253420352935791015625">
        <ele>666.4000244140625</ele>
        <time>2013-08-15T18:01:45.000Z</time>
        <extensions>
          <ns3:TrackPointExtension>
            <ns3:atemp>16.0</ns3:atemp>
            <ns3:hr>128</ns3:hr>
          </ns3:TrackPointExtension>
        </extensions>
      </trkpt>
      <trkpt lat="46.6960346885025501251220703125" lon="6.8829452991485595703125">
        <ele>665.5999755859375</ele>
        <time>2013-08-15T18:01:46.000Z</time>
        <extensions>
          <ns3:TrackPointExtension>
            <ns3:atemp>16.0</ns3:atemp>
            <ns3:hr>128</ns3:hr>
          </ns3:TrackPointExtension>
        </extensions>
      </trkpt>
      <trkpt lat="46.6961386241018772125244140625" lon="6.88297186978161334991455078125">
        <ele>665</ele>
        <time>2013-08-15T18:01:47.000Z</time>
        <extensions>
          <ns3:TrackPointExtension>
            <ns3:atemp>16.0</ns3:atemp>
            <ns3:hr>128</ns3:hr>
          </ns3:TrackPointExtension>
        </extensions>
      </trkpt>
      <trkpt lat="46.6962415538728237152099609375" lon="6.8830024637281894683837890625">
        <ele>664.5999755859375</ele>
        <time>2013-08-15T18:01:48.000Z</time>
        <extensions>
          <ns3:TrackPointExtension>
            <ns3:atemp>16.0</ns3:atemp>
            <ns3:hr>128</ns3:hr>
          </ns3:TrackPointExtension>
        </extensions>
      </trkpt>
      <trkpt lat="46.696344316005706787109375" lon="6.88303389586508274078369140625">
        <ele>664.4000244140625</ele>
        <time>2013-08-15T18:01:49.000Z</time>
        <extensions>
          <ns3:TrackPointExtension>
            <ns3:atemp>16.0</ns3:atemp>
            <ns3:hr>128</ns3:hr>
          </ns3:TrackPointExtension>
        </extensions>
      </trkpt>
      <trkpt lat="46.696445904672145843505859375" lon="6.88306675292551517486572265625">
        <ele>664.4000244140625</ele>
        <time>2013-08-15T18:01:50.000Z</time>
        <extensions>
          <ns3:TrackPointExtension>
            <ns3:atemp>16.0</ns3:atemp>
            <ns3:hr>128</ns3:hr>
          </ns3:TrackPointExtension>
        </extensions>
      </trkpt>
      <trkpt lat="46.69654606841504573822021484375" lon="6.88310095109045505523681640625">
        <ele>664</ele>
        <time>2013-08-15T18:01:51.000Z</time>
        <extensions>
          <ns3:TrackPointExtension>
            <ns3:atemp>16.0</ns3:atemp>
            <ns3:hr>128</ns3:hr>
          </ns3:TrackPointExtension>
        </extensions>
      </trkpt>
      <trkpt lat="46.69664681889116764068603515625" lon="6.88313330523669719696044921875">
        <ele>663.4000244140625</ele>
        <time>2013-08-15T18:01:52.000Z</time>
        <extensions>
          <ns3:TrackPointExtension>
            <ns3:atemp>16.0</ns3:atemp>
            <ns3:hr>129</ns3:hr>
          </ns3:TrackPointExtension>
        </extensions>
      </trkpt>
      <trkpt lat="46.6967471502721309661865234375" lon="6.883167922496795654296875">
        <ele>662.79998779296875</ele>
        <time>2013-08-15T18:01:53.000Z</time>
        <extensions>
          <ns3:TrackPointExtension>
            <ns3:atemp>16.0</ns3:atemp>
            <ns3:hr>129</ns3:hr>
          </ns3:TrackPointExtension>
        </extensions>
      </trkpt>
      <trkpt lat="46.69684664346277713775634765625" lon="6.8832042999565601348876953125">
        <ele>662.4000244140625</ele>
        <time>2013-08-15T18:01:54.000Z</time>
        <extensions>
          <ns3:TrackPointExtension>
            <ns3:atemp>16.0</ns3:atemp>
            <ns3:hr>129</ns3:hr>
          </ns3:TrackPointExtension>
        </extensions>
      </trkpt>
      <trkpt lat="46.696945466101169586181640625" lon="6.8832443654537200927734375">
        <ele>662.20001220703125</ele>
        <time>2013-08-15T18:01:55.000Z</time>
        <extensions>
          <ns3:TrackPointExtension>
            <ns3:atemp>16.0</ns3:atemp>
            <ns3:hr>129</ns3:hr>
          </ns3:TrackPointExtension>
        </extensions>
      </trkpt>
      <trkpt lat="46.6970445401966571807861328125" lon="6.883282251656055450439453125">
        <ele>661.79998779296875</ele>
        <time>2013-08-15T18:01:56.000Z</time>
        <extensions>
          <ns3:TrackPointExtension>
            <ns3:atemp>16.0</ns3:atemp>
            <ns3:hr>129</ns3:hr>
          </ns3:TrackPointExtension>
        </extensions>
      </trkpt>
      <trkpt lat="46.69714420102536678314208984375" lon="6.8833182938396930694580078125">
        <ele>661.4000244140625</ele>
        <time>2013-08-15T18:01:57.000Z</time>
        <extensions>
          <ns3:TrackPointExtension>
            <ns3:atemp>16.0</ns3:atemp>
            <ns3:hr>129</ns3:hr>
          </ns3:TrackPointExtension>
        </extensions>
      </trkpt>
      <trkpt lat="46.6972440294921398162841796875" lon="6.88335391692817211151123046875">
        <ele>661</ele>
        <time>2013-08-15T18:01:58.000Z</time>
        <extensions>
          <ns3:TrackPointExtension>
            <ns3:atemp>16.0</ns3:atemp>
            <ns3:hr>129</ns3:hr>
          </ns3:TrackPointExtension>
        </extensions>
      </trkpt>
      <trkpt lat="46.6973429359495639801025390625" lon="6.8833880312740802764892578125">
        <ele>661</ele>
        <time>2013-08-15T18:01:59.000Z</time>
        <extensions>
          <ns3:TrackPointExtension>
            <ns3:atemp>16.0</ns3:atemp>
            <ns3:hr>129</ns3:hr>
          </ns3:TrackPointExtension>
        </extensions>
      </trkpt>
      <trkpt lat="46.69744142331182956695556640625" lon="6.8834232352674007415771484375">
        <ele>660.79998779296875</ele>
        <time>2013-08-15T18:02:00.000Z</time>
        <extensions>
          <ns3:TrackPointExtension>
            <ns3:atemp>16.0</ns3:atemp>
            <ns3:hr>129</ns3:hr>
          </ns3:TrackPointExtension>
        </extensions>
      </trkpt>
      <trkpt lat="46.6975397430360317230224609375" lon="6.8834564276039600372314453125">
        <ele>660.4000244140625</ele>
        <time>2013-08-15T18:02:01.000Z</time>
        <extensions>
          <ns3:TrackPointExtension>
            <ns3:atemp>16.0</ns3:atemp>
            <ns3:hr>130</ns3:hr>
          </ns3:TrackPointExtension>
        </extensions>
      </trkpt>
      <trkpt lat="46.6976383142173290252685546875" lon="6.883490793406963348388671875">
        <ele>660</ele>
        <time>2013-08-15T18:02:02.000Z</time>
        <extensions>
          <ns3:TrackPointExtension>
            <ns3:atemp>16.0</ns3:atemp>
            <ns3:hr>130</ns3:hr>
          </ns3:TrackPointExtension>
        </extensions>
      </trkpt>
      <trkpt lat="46.69773763976991176605224609375" lon="6.88352440483868122100830078125">
        <ele>659.79998779296875</ele>
        <time>2013-08-15T18:02:03.000Z</time>
        <extensions>
          <ns3:TrackPointExtension>
            <ns3:atemp>16.0</ns3:atemp>
            <ns3:hr>129</ns3:hr>
          </ns3:TrackPointExtension>
        </extensions>
      </trkpt>
      <trkpt lat="46.6978364624083042144775390625" lon="6.8835539929568767547607421875">
        <ele>659.5999755859375</ele>
        <time>2013-08-15T18:02:04.000Z</time>
        <extensions>
          <ns3:TrackPointExtension>
            <ns3:atemp>16.0</ns3:atemp>
            <ns3:hr>129</ns3:hr>
          </ns3:TrackPointExtension>
        </extensions>
      </trkpt>
      <trkpt lat="46.6979340277612209320068359375" lon="6.88358165323734283447265625">
        <ele>659.20001220703125</ele>
        <time>2013-08-15T18:02:05.000Z</time>
        <extensions>
          <ns3:TrackPointExtension>
            <ns3:atemp>16.0</ns3:atemp>
            <ns3:hr>129</ns3:hr>
          </ns3:TrackPointExtension>
        </extensions>
      </trkpt>
      <trkpt lat="46.6980312578380107879638671875" lon="6.88360570929944515228271484375">
        <ele>658.5999755859375</ele>
        <time>2013-08-15T18:02:06.000Z</time>
        <extensions>
          <ns3:TrackPointExtension>
            <ns3:atemp>16.0</ns3:atemp>
            <ns3:hr>129</ns3:hr>
          </ns3:TrackPointExtension>
        </extensions>
      </trkpt>
      <trkpt lat="46.698127649724483489990234375" lon="6.883622892200946807861328125">
        <ele>658.5999755859375</ele>
        <time>2013-08-15T18:02:07.000Z</time>
        <extensions>
          <ns3:TrackPointExtension>
            <ns3:atemp>16.0</ns3:atemp>
            <ns3:hr>129</ns3:hr>
          </ns3:TrackPointExtension>
        </extensions>
      </trkpt>
      <trkpt lat="46.69822261668741703033447265625" lon="6.88363186083734035491943359375">
        <ele>658.4000244140625</ele>
        <time>2013-08-15T18:02:08.000Z</time>
        <extensions>
          <ns3:TrackPointExtension>
            <ns3:atemp>16.0</ns3:atemp>
            <ns3:hr>128</ns3:hr>
          </ns3:TrackPointExtension>
        </extensions>
      </trkpt>
      <trkpt lat="46.6983172483742237091064453125" lon="6.8836361356079578399658203125">
        <ele>658.20001220703125</ele>
        <time>2013-08-15T18:02:09.000Z</time>
        <extensions>
          <ns3:TrackPointExtension>
            <ns3:atemp>16.0</ns3:atemp>
            <ns3:hr>128</ns3:hr>
          </ns3:TrackPointExtension>
        </extensions>
      </trkpt>
      <trkpt lat="46.6984117962419986724853515625" lon="6.88363420777022838592529296875">
        <ele>657.20001220703125</ele>
        <time>2013-08-15T18:02:10.000Z</time>
        <extensions>
          <ns3:TrackPointExtension>
            <ns3:atemp>16.0</ns3:atemp>
            <ns3:hr>127</ns3:hr>
          </ns3:TrackPointExtension>
        </extensions>
      </trkpt>
      <trkpt lat="46.69850307516753673553466796875" lon="6.88361962325870990753173828125">
        <ele>656.5999755859375</ele>
        <time>2013-08-15T18:02:11.000Z</time>
        <extensions>
          <ns3:TrackPointExtension>
            <ns3:atemp>16.0</ns3:atemp>
            <ns3:hr>127</ns3:hr>
          </ns3:TrackPointExtension>
        </extensions>
      </trkpt>
      <trkpt lat="46.6985925100743770599365234375" lon="6.8836036138236522674560546875">
        <ele>655.79998779296875</ele>
        <time>2013-08-15T18:02:12.000Z</time>
        <extensions>
          <ns3:TrackPointExtension>
            <ns3:atemp>16.0</ns3:atemp>
            <ns3:hr>126</ns3:hr>
          </ns3:TrackPointExtension>
        </extensions>
      </trkpt>
      <trkpt lat="46.69868093915283679962158203125" lon="6.8835824914276599884033203125">
        <ele>655.20001220703125</ele>
        <time>2013-08-15T18:02:13.000Z</time>
        <extensions>
          <ns3:TrackPointExtension>
            <ns3:atemp>16.0</ns3:atemp>
            <ns3:hr>126</ns3:hr>
          </ns3:TrackPointExtension>
        </extensions>
      </trkpt>
      <trkpt lat="46.69876023195683956146240234375" lon="6.883538402616977691650390625">
        <ele>654.5999755859375</ele>
        <time>2013-08-15T18:02:14.000Z</time>
        <extensions>
          <ns3:TrackPointExtension>
            <ns3:atemp>16.0</ns3:atemp>
            <ns3:hr>125</ns3:hr>
          </ns3:TrackPointExtension>
        </extensions>
      </trkpt>
      <trkpt lat="46.698824353516101837158203125" lon="6.88347243703901767730712890625">
        <ele>654</ele>
        <time>2013-08-15T18:02:15.000Z</time>
        <extensions>
          <ns3:TrackPointExtension>
            <ns3:atemp>16.0</ns3:atemp>
            <ns3:hr>125</ns3:hr>
          </ns3:TrackPointExtension>
        </extensions>
      </trkpt>
      <trkpt lat="46.6988764889538288116455078125" lon="6.8833957426249980926513671875">
        <ele>653.20001220703125</ele>
        <time>2013-08-15T18:02:16.000Z</time>
        <extensions>
          <ns3:TrackPointExtension>
            <ns3:atemp>16.0</ns3:atemp>
            <ns3:hr>124</ns3:hr>
          </ns3:TrackPointExtension>
        </extensions>
      </trkpt>
      <trkpt lat="46.69891462661325931549072265625" lon="6.8833199702203273773193359375">
        <ele>652.79998779296875</ele>
        <time>2013-08-15T18:02:17.000Z</time>
        <extensions>
          <ns3:TrackPointExtension>
            <ns3:atemp>16.0</ns3:atemp>
            <ns3:hr>124</ns3:hr>
          </ns3:TrackPointExtension>
        </extensions>
      </trkpt>
      <trkpt lat="46.69894136488437652587890625" lon="6.8832550942897796630859375">
        <ele>652.20001220703125</ele>
        <time>2013-08-15T18:02:18.000Z</time>
        <extensions>
          <ns3:TrackPointExtension>
            <ns3:atemp>16.0</ns3:atemp>
            <ns3:hr>123</ns3:hr>
          </ns3:TrackPointExtension>
        </extensions>
      </trkpt>
      <trkpt lat="46.69895821250975131988525390625" lon="6.88320622779428958892822265625">
        <ele>651.5999755859375</ele>
        <time>2013-08-15T18:02:19.000Z</time>
        <extensions>
          <ns3:TrackPointExtension>
            <ns3:atemp>16.0</ns3:atemp>
            <ns3:hr>123</ns3:hr>
          </ns3:TrackPointExtension>
        </extensions>
      </trkpt>
      <trkpt lat="46.69896273873746395111083984375" lon="6.88317521475255489349365234375">
        <ele>651</ele>
        <time>2013-08-15T18:02:20.000Z</time>
        <extensions>
          <ns3:TrackPointExtension>
            <ns3:atemp>16.0</ns3:atemp>
            <ns3:hr>122</ns3:hr>
          </ns3:TrackPointExtension>
        </extensions>
      </trkpt>
      <trkpt lat="46.69896223582327365875244140625" lon="6.88316188752651214599609375">
        <ele>650.79998779296875</ele>
        <time>2013-08-15T18:02:21.000Z</time>
        <extensions>
          <ns3:TrackPointExtension>
            <ns3:atemp>16.0</ns3:atemp>
            <ns3:hr>122</ns3:hr>
          </ns3:TrackPointExtension>
        </extensions>
      </trkpt>
      <trkpt lat="46.69896240346133708953857421875" lon="6.8831633962690830230712890625">
        <ele>650.5999755859375</ele>
        <time>2013-08-15T18:02:22.000Z</time>
        <extensions>
          <ns3:TrackPointExtension>
            <ns3:atemp>16.0</ns3:atemp>
            <ns3:hr>122</ns3:hr>
          </ns3:TrackPointExtension>
        </extensions>
      </trkpt>
      <trkpt lat="46.698960475623607635498046875" lon="6.88315928913652896881103515625">
        <ele>650.4000244140625</ele>
        <time>2013-08-15T18:02:23.000Z</time>
        <extensions>
          <ns3:TrackPointExtension>
            <ns3:atemp>16.0</ns3:atemp>
            <ns3:hr>121</ns3:hr>
          </ns3:TrackPointExtension>
        </extensions>
      </trkpt>
    </trkseg>
  </trk>
</gpx>
